<?xml version="1.0" encoding="UTF-8"?>
<gpx version="1.1" creator="https://www.youtrack.es" xsi:schemaLocation="http://www.topografix.com/GPX/1/1 http://www.topografix.com/GPX/1/1/gpx.xsd http://www.garmin.com/xmlschemas/GpxExtensions/v3 http://www.garmin.com/xmlschemas/GpxExtensionsv3.xsd http://www.garmin.com/xmlschemas/TrackPointExtension/v1 http://www.garmin.com/xmlschemas/TrackPointExtensionv1.xsd" xmlns:gpxtpx="http://www.garmin.com/xmlschemas/TrackPointExtension/v1" xmlns:gpxx="http://www.garmin.com/xmlschemas/GpxExtensions/v3" xmlns:xsi="http://www.w3.org/2001/XMLSchema-instance">
  <metadata>
    <link href="https://www.youtrack.es">
      <text>YouTrack.es</text>
    </link>
    <time>2026-05-07T16:50:08Z</time>
  </metadata>
  <trk>
    <src>https://www.youtrack.es</src>
    <link href="https://www.youtrack.es/ruta/24002-mundial">
      <text>YouTrack.es</text>
    </link>
    <trkseg>
      <trkpt lat="20.21468667" lon="-98.73087">
        <ele>2375.0</ele>
        <time>2019-10-12T14:34:47.834Z</time>
      </trkpt>
      <trkpt lat="20.2147" lon="-98.73086667">
        <ele>2376.0</ele>
        <time>2019-10-12T14:34:48.835Z</time>
      </trkpt>
      <trkpt lat="20.21471667" lon="-98.73086333">
        <ele>2376.0</ele>
        <time>2019-10-12T14:34:49.840Z</time>
      </trkpt>
      <trkpt lat="20.21473" lon="-98.73085667">
        <ele>2376.0</ele>
        <time>2019-10-12T14:34:50.845Z</time>
      </trkpt>
      <trkpt lat="20.21474333" lon="-98.73085">
        <ele>2376.0</ele>
        <time>2019-10-12T14:34:51.845Z</time>
      </trkpt>
      <trkpt lat="20.21475667" lon="-98.73085">
        <ele>2377.0</ele>
        <time>2019-10-12T14:34:52.846Z</time>
      </trkpt>
      <trkpt lat="20.21477" lon="-98.73085167">
        <ele>2377.0</ele>
        <time>2019-10-12T14:34:53.850Z</time>
      </trkpt>
      <trkpt lat="20.21478167" lon="-98.73085">
        <ele>2376.0</ele>
        <time>2019-10-12T14:34:54.853Z</time>
      </trkpt>
      <trkpt lat="20.214795" lon="-98.73084667">
        <ele>2376.0</ele>
        <time>2019-10-12T14:34:55.857Z</time>
      </trkpt>
      <trkpt lat="20.21481" lon="-98.73084167">
        <ele>2376.0</ele>
        <time>2019-10-12T14:34:56.859Z</time>
      </trkpt>
      <trkpt lat="20.21482667" lon="-98.73084167">
        <ele>2376.0</ele>
        <time>2019-10-12T14:34:57.862Z</time>
      </trkpt>
      <trkpt lat="20.21484667" lon="-98.73084167">
        <ele>2375.0</ele>
        <time>2019-10-12T14:34:58.868Z</time>
      </trkpt>
      <trkpt lat="20.214865" lon="-98.73084167">
        <ele>2375.0</ele>
        <time>2019-10-12T14:34:59.871Z</time>
      </trkpt>
      <trkpt lat="20.21488" lon="-98.73084167">
        <ele>2375.0</ele>
        <time>2019-10-12T14:35:00.876Z</time>
      </trkpt>
      <trkpt lat="20.21490167" lon="-98.730845">
        <ele>2375.0</ele>
        <time>2019-10-12T14:35:01.881Z</time>
      </trkpt>
      <trkpt lat="20.21491667" lon="-98.73084667">
        <ele>2375.0</ele>
        <time>2019-10-12T14:35:02.882Z</time>
      </trkpt>
      <trkpt lat="20.21493" lon="-98.73085167">
        <ele>2374.0</ele>
        <time>2019-10-12T14:35:03.883Z</time>
      </trkpt>
      <trkpt lat="20.214945" lon="-98.73085667">
        <ele>2374.0</ele>
        <time>2019-10-12T14:35:04.884Z</time>
      </trkpt>
      <trkpt lat="20.21496167" lon="-98.73085833">
        <ele>2374.0</ele>
        <time>2019-10-12T14:35:05.884Z</time>
      </trkpt>
      <trkpt lat="20.21498167" lon="-98.73086">
        <ele>2374.0</ele>
        <time>2019-10-12T14:35:06.885Z</time>
      </trkpt>
      <trkpt lat="20.21500167" lon="-98.73086167">
        <ele>2374.0</ele>
        <time>2019-10-12T14:35:07.888Z</time>
      </trkpt>
      <trkpt lat="20.21502167" lon="-98.73087">
        <ele>2375.0</ele>
        <time>2019-10-12T14:35:08.894Z</time>
      </trkpt>
      <trkpt lat="20.21504333" lon="-98.730875">
        <ele>2375.0</ele>
        <time>2019-10-12T14:35:09.896Z</time>
      </trkpt>
      <trkpt lat="20.21506333" lon="-98.73088">
        <ele>2375.0</ele>
        <time>2019-10-12T14:35:10.903Z</time>
      </trkpt>
      <trkpt lat="20.21508333" lon="-98.73088833">
        <ele>2375.0</ele>
        <time>2019-10-12T14:35:11.909Z</time>
      </trkpt>
      <trkpt lat="20.215105" lon="-98.73089833">
        <ele>2375.0</ele>
        <time>2019-10-12T14:35:12.911Z</time>
      </trkpt>
      <trkpt lat="20.21512833" lon="-98.73091167">
        <ele>2376.0</ele>
        <time>2019-10-12T14:35:13.912Z</time>
      </trkpt>
      <trkpt lat="20.21515167" lon="-98.73092333">
        <ele>2376.0</ele>
        <time>2019-10-12T14:35:14.912Z</time>
      </trkpt>
      <trkpt lat="20.21517333" lon="-98.730935">
        <ele>2376.0</ele>
        <time>2019-10-12T14:35:15.916Z</time>
      </trkpt>
      <trkpt lat="20.21519833" lon="-98.73094667">
        <ele>2376.0</ele>
        <time>2019-10-12T14:35:16.921Z</time>
      </trkpt>
      <trkpt lat="20.21522333" lon="-98.73096">
        <ele>2378.0</ele>
        <time>2019-10-12T14:35:17.928Z</time>
      </trkpt>
      <trkpt lat="20.21524333" lon="-98.73096667">
        <ele>2379.0</ele>
        <time>2019-10-12T14:35:18.933Z</time>
      </trkpt>
      <trkpt lat="20.215265" lon="-98.73097167">
        <ele>2381.0</ele>
        <time>2019-10-12T14:35:19.940Z</time>
      </trkpt>
      <trkpt lat="20.215285" lon="-98.73097333">
        <ele>2381.0</ele>
        <time>2019-10-12T14:35:20.944Z</time>
      </trkpt>
      <trkpt lat="20.21530833" lon="-98.730975">
        <ele>2382.0</ele>
        <time>2019-10-12T14:35:21.951Z</time>
      </trkpt>
      <trkpt lat="20.215335" lon="-98.73098167">
        <ele>2383.0</ele>
        <time>2019-10-12T14:35:22.831Z</time>
      </trkpt>
      <trkpt lat="20.21536" lon="-98.73098333">
        <ele>2384.0</ele>
        <time>2019-10-12T14:35:23.836Z</time>
      </trkpt>
      <trkpt lat="20.21538333" lon="-98.73098667">
        <ele>2384.0</ele>
        <time>2019-10-12T14:35:24.837Z</time>
      </trkpt>
      <trkpt lat="20.21540667" lon="-98.73098667">
        <ele>2384.0</ele>
        <time>2019-10-12T14:35:25.838Z</time>
      </trkpt>
      <trkpt lat="20.21543" lon="-98.73098667">
        <ele>2383.0</ele>
        <time>2019-10-12T14:35:26.840Z</time>
      </trkpt>
      <trkpt lat="20.21545667" lon="-98.73099">
        <ele>2382.0</ele>
        <time>2019-10-12T14:35:27.847Z</time>
      </trkpt>
      <trkpt lat="20.21548333" lon="-98.73099667">
        <ele>2382.0</ele>
        <time>2019-10-12T14:35:28.850Z</time>
      </trkpt>
      <trkpt lat="20.21551167" lon="-98.73100167">
        <ele>2381.0</ele>
        <time>2019-10-12T14:35:29.855Z</time>
      </trkpt>
      <trkpt lat="20.21553833" lon="-98.73100833">
        <ele>2381.0</ele>
        <time>2019-10-12T14:35:30.862Z</time>
      </trkpt>
      <trkpt lat="20.21556667" lon="-98.731015">
        <ele>2382.0</ele>
        <time>2019-10-12T14:35:31.865Z</time>
      </trkpt>
      <trkpt lat="20.21560167" lon="-98.731025">
        <ele>2383.0</ele>
        <time>2019-10-12T14:35:32.869Z</time>
      </trkpt>
      <trkpt lat="20.21563" lon="-98.73103">
        <ele>2383.0</ele>
        <time>2019-10-12T14:35:33.874Z</time>
      </trkpt>
      <trkpt lat="20.21565667" lon="-98.731035">
        <ele>2383.0</ele>
        <time>2019-10-12T14:35:34.880Z</time>
      </trkpt>
      <trkpt lat="20.21568167" lon="-98.73103667">
        <ele>2383.0</ele>
        <time>2019-10-12T14:35:35.885Z</time>
      </trkpt>
      <trkpt lat="20.21570667" lon="-98.73104167">
        <ele>2382.0</ele>
        <time>2019-10-12T14:35:36.892Z</time>
      </trkpt>
      <trkpt lat="20.21573" lon="-98.73104833">
        <ele>2382.0</ele>
        <time>2019-10-12T14:35:37.893Z</time>
      </trkpt>
      <trkpt lat="20.215755" lon="-98.73106">
        <ele>2382.0</ele>
        <time>2019-10-12T14:35:38.901Z</time>
      </trkpt>
      <trkpt lat="20.21578167" lon="-98.73106833">
        <ele>2382.0</ele>
        <time>2019-10-12T14:35:39.908Z</time>
      </trkpt>
      <trkpt lat="20.215805" lon="-98.73107167">
        <ele>2382.0</ele>
        <time>2019-10-12T14:35:40.911Z</time>
      </trkpt>
      <trkpt lat="20.21582833" lon="-98.73107333">
        <ele>2381.0</ele>
        <time>2019-10-12T14:35:41.912Z</time>
      </trkpt>
      <trkpt lat="20.21585167" lon="-98.731075">
        <ele>2380.0</ele>
        <time>2019-10-12T14:35:42.913Z</time>
      </trkpt>
      <trkpt lat="20.21587667" lon="-98.73107833">
        <ele>2379.0</ele>
        <time>2019-10-12T14:35:43.913Z</time>
      </trkpt>
      <trkpt lat="20.21590167" lon="-98.73108">
        <ele>2379.0</ele>
        <time>2019-10-12T14:35:44.914Z</time>
      </trkpt>
      <trkpt lat="20.215925" lon="-98.73108333">
        <ele>2378.0</ele>
        <time>2019-10-12T14:35:45.914Z</time>
      </trkpt>
      <trkpt lat="20.21594833" lon="-98.73108833">
        <ele>2378.0</ele>
        <time>2019-10-12T14:35:46.915Z</time>
      </trkpt>
      <trkpt lat="20.21597167" lon="-98.73108833">
        <ele>2377.0</ele>
        <time>2019-10-12T14:35:47.921Z</time>
      </trkpt>
      <trkpt lat="20.21599333" lon="-98.73109">
        <ele>2376.0</ele>
        <time>2019-10-12T14:35:48.928Z</time>
      </trkpt>
      <trkpt lat="20.21601667" lon="-98.73109">
        <ele>2376.0</ele>
        <time>2019-10-12T14:35:49.928Z</time>
      </trkpt>
      <trkpt lat="20.21604" lon="-98.73108833">
        <ele>2375.0</ele>
        <time>2019-10-12T14:35:50.934Z</time>
      </trkpt>
      <trkpt lat="20.21606833" lon="-98.73108333">
        <ele>2375.0</ele>
        <time>2019-10-12T14:35:51.941Z</time>
      </trkpt>
      <trkpt lat="20.21609333" lon="-98.73107833">
        <ele>2374.0</ele>
        <time>2019-10-12T14:35:52.945Z</time>
      </trkpt>
      <trkpt lat="20.21611833" lon="-98.73107333">
        <ele>2374.0</ele>
        <time>2019-10-12T14:35:53.951Z</time>
      </trkpt>
      <trkpt lat="20.216145" lon="-98.73106667">
        <ele>2373.0</ele>
        <time>2019-10-12T14:35:54.953Z</time>
      </trkpt>
      <trkpt lat="20.21617333" lon="-98.73106">
        <ele>2373.0</ele>
        <time>2019-10-12T14:35:55.832Z</time>
      </trkpt>
      <trkpt lat="20.2162" lon="-98.73105333">
        <ele>2372.0</ele>
        <time>2019-10-12T14:35:56.836Z</time>
      </trkpt>
      <trkpt lat="20.216225" lon="-98.731045">
        <ele>2371.0</ele>
        <time>2019-10-12T14:35:57.842Z</time>
      </trkpt>
      <trkpt lat="20.21625" lon="-98.731035">
        <ele>2371.0</ele>
        <time>2019-10-12T14:35:58.847Z</time>
      </trkpt>
      <trkpt lat="20.21627667" lon="-98.73102667">
        <ele>2371.0</ele>
        <time>2019-10-12T14:35:59.852Z</time>
      </trkpt>
      <trkpt lat="20.2163" lon="-98.73101667">
        <ele>2370.0</ele>
        <time>2019-10-12T14:36:00.858Z</time>
      </trkpt>
      <trkpt lat="20.21632333" lon="-98.73100667">
        <ele>2370.0</ele>
        <time>2019-10-12T14:36:01.862Z</time>
      </trkpt>
      <trkpt lat="20.21634833" lon="-98.73099667">
        <ele>2370.0</ele>
        <time>2019-10-12T14:36:02.865Z</time>
      </trkpt>
      <trkpt lat="20.21637167" lon="-98.730985">
        <ele>2370.0</ele>
        <time>2019-10-12T14:36:03.866Z</time>
      </trkpt>
      <trkpt lat="20.21639167" lon="-98.730975">
        <ele>2369.0</ele>
        <time>2019-10-12T14:36:04.867Z</time>
      </trkpt>
      <trkpt lat="20.21641167" lon="-98.73096667">
        <ele>2368.0</ele>
        <time>2019-10-12T14:36:05.869Z</time>
      </trkpt>
      <trkpt lat="20.21643333" lon="-98.73095833">
        <ele>2368.0</ele>
        <time>2019-10-12T14:36:06.874Z</time>
      </trkpt>
      <trkpt lat="20.216455" lon="-98.73095">
        <ele>2367.0</ele>
        <time>2019-10-12T14:36:07.880Z</time>
      </trkpt>
      <trkpt lat="20.216475" lon="-98.73094167">
        <ele>2367.0</ele>
        <time>2019-10-12T14:36:08.886Z</time>
      </trkpt>
      <trkpt lat="20.21649833" lon="-98.730935">
        <ele>2367.0</ele>
        <time>2019-10-12T14:36:09.887Z</time>
      </trkpt>
      <trkpt lat="20.21652" lon="-98.73092667">
        <ele>2368.0</ele>
        <time>2019-10-12T14:36:10.887Z</time>
      </trkpt>
      <trkpt lat="20.216545" lon="-98.73092833">
        <ele>2368.0</ele>
        <time>2019-10-12T14:36:11.893Z</time>
      </trkpt>
      <trkpt lat="20.21656667" lon="-98.73093">
        <ele>2368.0</ele>
        <time>2019-10-12T14:36:12.895Z</time>
      </trkpt>
      <trkpt lat="20.216585" lon="-98.73092667">
        <ele>2368.0</ele>
        <time>2019-10-12T14:36:13.901Z</time>
      </trkpt>
      <trkpt lat="20.216605" lon="-98.730925">
        <ele>2368.0</ele>
        <time>2019-10-12T14:36:14.908Z</time>
      </trkpt>
      <trkpt lat="20.21662667" lon="-98.73092167">
        <ele>2368.0</ele>
        <time>2019-10-12T14:36:15.915Z</time>
      </trkpt>
      <trkpt lat="20.21664333" lon="-98.730915">
        <ele>2367.0</ele>
        <time>2019-10-12T14:36:16.922Z</time>
      </trkpt>
      <trkpt lat="20.21666667" lon="-98.730915">
        <ele>2366.0</ele>
        <time>2019-10-12T14:36:17.924Z</time>
      </trkpt>
      <trkpt lat="20.21668667" lon="-98.73091333">
        <ele>2366.0</ele>
        <time>2019-10-12T14:36:18.929Z</time>
      </trkpt>
      <trkpt lat="20.21670833" lon="-98.73091167">
        <ele>2365.0</ele>
        <time>2019-10-12T14:36:19.934Z</time>
      </trkpt>
      <trkpt lat="20.21672667" lon="-98.73091167">
        <ele>2365.0</ele>
        <time>2019-10-12T14:36:20.939Z</time>
      </trkpt>
      <trkpt lat="20.21675333" lon="-98.73090833">
        <ele>2364.0</ele>
        <time>2019-10-12T14:36:21.942Z</time>
      </trkpt>
      <trkpt lat="20.21677833" lon="-98.73090833">
        <ele>2364.0</ele>
        <time>2019-10-12T14:36:22.943Z</time>
      </trkpt>
      <trkpt lat="20.21680333" lon="-98.73091">
        <ele>2364.0</ele>
        <time>2019-10-12T14:36:23.944Z</time>
      </trkpt>
      <trkpt lat="20.21683333" lon="-98.73091167">
        <ele>2364.0</ele>
        <time>2019-10-12T14:36:24.945Z</time>
      </trkpt>
      <trkpt lat="20.21685833" lon="-98.73091167">
        <ele>2364.0</ele>
        <time>2019-10-12T14:36:25.949Z</time>
      </trkpt>
      <trkpt lat="20.21688167" lon="-98.73091167">
        <ele>2363.0</ele>
        <time>2019-10-12T14:36:26.952Z</time>
      </trkpt>
      <trkpt lat="20.21690333" lon="-98.73090667">
        <ele>2363.0</ele>
        <time>2019-10-12T14:36:27.833Z</time>
      </trkpt>
      <trkpt lat="20.21692667" lon="-98.73090333">
        <ele>2362.0</ele>
        <time>2019-10-12T14:36:28.839Z</time>
      </trkpt>
      <trkpt lat="20.21695" lon="-98.73089833">
        <ele>2362.0</ele>
        <time>2019-10-12T14:36:29.844Z</time>
      </trkpt>
      <trkpt lat="20.21697333" lon="-98.730895">
        <ele>2362.0</ele>
        <time>2019-10-12T14:36:30.849Z</time>
      </trkpt>
      <trkpt lat="20.216995" lon="-98.73089333">
        <ele>2361.0</ele>
        <time>2019-10-12T14:36:31.851Z</time>
      </trkpt>
      <trkpt lat="20.21701667" lon="-98.73089167">
        <ele>2361.0</ele>
        <time>2019-10-12T14:36:32.854Z</time>
      </trkpt>
      <trkpt lat="20.21704" lon="-98.730885">
        <ele>2361.0</ele>
        <time>2019-10-12T14:36:33.860Z</time>
      </trkpt>
      <trkpt lat="20.21706333" lon="-98.73087833">
        <ele>2361.0</ele>
        <time>2019-10-12T14:36:34.866Z</time>
      </trkpt>
      <trkpt lat="20.217085" lon="-98.73087167">
        <ele>2360.0</ele>
        <time>2019-10-12T14:36:35.871Z</time>
      </trkpt>
      <trkpt lat="20.21709833" lon="-98.73086">
        <ele>2359.0</ele>
        <time>2019-10-12T14:36:36.876Z</time>
      </trkpt>
      <trkpt lat="20.217115" lon="-98.73084833">
        <ele>2358.0</ele>
        <time>2019-10-12T14:36:37.882Z</time>
      </trkpt>
      <trkpt lat="20.21713167" lon="-98.73083167">
        <ele>2357.0</ele>
        <time>2019-10-12T14:36:38.887Z</time>
      </trkpt>
      <trkpt lat="20.217145" lon="-98.73081167">
        <ele>2356.0</ele>
        <time>2019-10-12T14:36:39.891Z</time>
      </trkpt>
      <trkpt lat="20.21715167" lon="-98.73078833">
        <ele>2355.0</ele>
        <time>2019-10-12T14:36:40.892Z</time>
      </trkpt>
      <trkpt lat="20.21715333" lon="-98.73076333">
        <ele>2353.0</ele>
        <time>2019-10-12T14:36:41.893Z</time>
      </trkpt>
      <trkpt lat="20.21715833" lon="-98.73074167">
        <ele>2352.0</ele>
        <time>2019-10-12T14:36:42.896Z</time>
      </trkpt>
      <trkpt lat="20.21716" lon="-98.73071833">
        <ele>2351.0</ele>
        <time>2019-10-12T14:36:43.904Z</time>
      </trkpt>
      <trkpt lat="20.21716333" lon="-98.73069667">
        <ele>2350.0</ele>
        <time>2019-10-12T14:36:44.906Z</time>
      </trkpt>
      <trkpt lat="20.21716833" lon="-98.73067833">
        <ele>2349.0</ele>
        <time>2019-10-12T14:36:45.912Z</time>
      </trkpt>
      <trkpt lat="20.21717333" lon="-98.73066">
        <ele>2349.0</ele>
        <time>2019-10-12T14:36:46.917Z</time>
      </trkpt>
      <trkpt lat="20.21718167" lon="-98.73064">
        <ele>2348.0</ele>
        <time>2019-10-12T14:36:47.919Z</time>
      </trkpt>
      <trkpt lat="20.21718833" lon="-98.73061667">
        <ele>2348.0</ele>
        <time>2019-10-12T14:36:48.920Z</time>
      </trkpt>
      <trkpt lat="20.217195" lon="-98.73059333">
        <ele>2347.0</ele>
        <time>2019-10-12T14:36:49.921Z</time>
      </trkpt>
      <trkpt lat="20.2172" lon="-98.73056833">
        <ele>2346.0</ele>
        <time>2019-10-12T14:36:50.928Z</time>
      </trkpt>
      <trkpt lat="20.21720167" lon="-98.730545">
        <ele>2346.0</ele>
        <time>2019-10-12T14:36:51.930Z</time>
      </trkpt>
      <trkpt lat="20.217205" lon="-98.73052167">
        <ele>2346.0</ele>
        <time>2019-10-12T14:36:52.935Z</time>
      </trkpt>
      <trkpt lat="20.217215" lon="-98.730505">
        <ele>2346.0</ele>
        <time>2019-10-12T14:36:53.940Z</time>
      </trkpt>
      <trkpt lat="20.21723" lon="-98.73049">
        <ele>2347.0</ele>
        <time>2019-10-12T14:36:54.945Z</time>
      </trkpt>
      <trkpt lat="20.217245" lon="-98.73047167">
        <ele>2347.0</ele>
        <time>2019-10-12T14:36:55.951Z</time>
      </trkpt>
      <trkpt lat="20.21725167" lon="-98.73045">
        <ele>2347.0</ele>
        <time>2019-10-12T14:36:56.831Z</time>
      </trkpt>
      <trkpt lat="20.21725833" lon="-98.73042667">
        <ele>2347.0</ele>
        <time>2019-10-12T14:36:57.835Z</time>
      </trkpt>
      <trkpt lat="20.21726" lon="-98.73040333">
        <ele>2347.0</ele>
        <time>2019-10-12T14:36:58.836Z</time>
      </trkpt>
      <trkpt lat="20.21726167" lon="-98.73037833">
        <ele>2347.0</ele>
        <time>2019-10-12T14:36:59.837Z</time>
      </trkpt>
      <trkpt lat="20.21726167" lon="-98.73035167">
        <ele>2347.0</ele>
        <time>2019-10-12T14:37:00.841Z</time>
      </trkpt>
      <trkpt lat="20.21726167" lon="-98.73032667">
        <ele>2347.0</ele>
        <time>2019-10-12T14:37:01.842Z</time>
      </trkpt>
      <trkpt lat="20.21726" lon="-98.73030333">
        <ele>2346.0</ele>
        <time>2019-10-12T14:37:02.844Z</time>
      </trkpt>
      <trkpt lat="20.21725667" lon="-98.73027667">
        <ele>2346.0</ele>
        <time>2019-10-12T14:37:03.844Z</time>
      </trkpt>
      <trkpt lat="20.21725" lon="-98.73025">
        <ele>2345.0</ele>
        <time>2019-10-12T14:37:04.845Z</time>
      </trkpt>
      <trkpt lat="20.21723833" lon="-98.73022333">
        <ele>2344.0</ele>
        <time>2019-10-12T14:37:05.851Z</time>
      </trkpt>
      <trkpt lat="20.21722833" lon="-98.73019833">
        <ele>2343.0</ele>
        <time>2019-10-12T14:37:06.854Z</time>
      </trkpt>
      <trkpt lat="20.21722" lon="-98.73017">
        <ele>2342.0</ele>
        <time>2019-10-12T14:37:07.855Z</time>
      </trkpt>
      <trkpt lat="20.21721167" lon="-98.73014333">
        <ele>2341.0</ele>
        <time>2019-10-12T14:37:08.862Z</time>
      </trkpt>
      <trkpt lat="20.217205" lon="-98.730115">
        <ele>2341.0</ele>
        <time>2019-10-12T14:37:09.866Z</time>
      </trkpt>
      <trkpt lat="20.217195" lon="-98.73009">
        <ele>2341.0</ele>
        <time>2019-10-12T14:37:10.867Z</time>
      </trkpt>
      <trkpt lat="20.21719" lon="-98.73006667">
        <ele>2340.0</ele>
        <time>2019-10-12T14:37:11.873Z</time>
      </trkpt>
      <trkpt lat="20.21719" lon="-98.73004333">
        <ele>2340.0</ele>
        <time>2019-10-12T14:37:12.877Z</time>
      </trkpt>
      <trkpt lat="20.21718833" lon="-98.73002">
        <ele>2340.0</ele>
        <time>2019-10-12T14:37:13.881Z</time>
      </trkpt>
      <trkpt lat="20.217185" lon="-98.72999667">
        <ele>2339.0</ele>
        <time>2019-10-12T14:37:14.888Z</time>
      </trkpt>
      <trkpt lat="20.21718167" lon="-98.72997167">
        <ele>2338.0</ele>
        <time>2019-10-12T14:37:15.888Z</time>
      </trkpt>
      <trkpt lat="20.21717667" lon="-98.72994667">
        <ele>2337.0</ele>
        <time>2019-10-12T14:37:16.893Z</time>
      </trkpt>
      <trkpt lat="20.21717333" lon="-98.72992333">
        <ele>2337.0</ele>
        <time>2019-10-12T14:37:17.899Z</time>
      </trkpt>
      <trkpt lat="20.21717" lon="-98.7299">
        <ele>2337.0</ele>
        <time>2019-10-12T14:37:18.902Z</time>
      </trkpt>
      <trkpt lat="20.21717167" lon="-98.72987833">
        <ele>2337.0</ele>
        <time>2019-10-12T14:37:19.909Z</time>
      </trkpt>
      <trkpt lat="20.21717333" lon="-98.72986167">
        <ele>2337.0</ele>
        <time>2019-10-12T14:37:20.912Z</time>
      </trkpt>
      <trkpt lat="20.217175" lon="-98.729845">
        <ele>2337.0</ele>
        <time>2019-10-12T14:37:21.913Z</time>
      </trkpt>
      <trkpt lat="20.217175" lon="-98.72982833">
        <ele>2337.0</ele>
        <time>2019-10-12T14:37:22.913Z</time>
      </trkpt>
      <trkpt lat="20.217175" lon="-98.72980167">
        <ele>2336.0</ele>
        <time>2019-10-12T14:37:23.913Z</time>
      </trkpt>
      <trkpt lat="20.21718" lon="-98.72978">
        <ele>2336.0</ele>
        <time>2019-10-12T14:37:24.917Z</time>
      </trkpt>
      <trkpt lat="20.21719167" lon="-98.72976">
        <ele>2336.0</ele>
        <time>2019-10-12T14:37:25.918Z</time>
      </trkpt>
      <trkpt lat="20.21720833" lon="-98.72974833">
        <ele>2337.0</ele>
        <time>2019-10-12T14:37:26.922Z</time>
      </trkpt>
      <trkpt lat="20.21722833" lon="-98.729745">
        <ele>2337.0</ele>
        <time>2019-10-12T14:37:27.926Z</time>
      </trkpt>
      <trkpt lat="20.21725333" lon="-98.72974833">
        <ele>2338.0</ele>
        <time>2019-10-12T14:37:28.930Z</time>
      </trkpt>
      <trkpt lat="20.21727833" lon="-98.729755">
        <ele>2338.0</ele>
        <time>2019-10-12T14:37:29.937Z</time>
      </trkpt>
      <trkpt lat="20.21730167" lon="-98.72976667">
        <ele>2338.0</ele>
        <time>2019-10-12T14:37:30.942Z</time>
      </trkpt>
      <trkpt lat="20.21732167" lon="-98.72977833">
        <ele>2338.0</ele>
        <time>2019-10-12T14:37:31.948Z</time>
      </trkpt>
      <trkpt lat="20.21734333" lon="-98.72979167">
        <ele>2338.0</ele>
        <time>2019-10-12T14:37:32.952Z</time>
      </trkpt>
      <trkpt lat="20.21736833" lon="-98.72980333">
        <ele>2339.0</ele>
        <time>2019-10-12T14:37:33.833Z</time>
      </trkpt>
      <trkpt lat="20.217395" lon="-98.72981167">
        <ele>2339.0</ele>
        <time>2019-10-12T14:37:34.837Z</time>
      </trkpt>
      <trkpt lat="20.217425" lon="-98.72981167">
        <ele>2339.0</ele>
        <time>2019-10-12T14:37:35.842Z</time>
      </trkpt>
      <trkpt lat="20.21746" lon="-98.72981167">
        <ele>2339.0</ele>
        <time>2019-10-12T14:37:36.845Z</time>
      </trkpt>
      <trkpt lat="20.21749" lon="-98.72980667">
        <ele>2339.0</ele>
        <time>2019-10-12T14:37:37.850Z</time>
      </trkpt>
      <trkpt lat="20.21751667" lon="-98.72979667">
        <ele>2339.0</ele>
        <time>2019-10-12T14:37:38.858Z</time>
      </trkpt>
      <trkpt lat="20.217545" lon="-98.72978333">
        <ele>2339.0</ele>
        <time>2019-10-12T14:37:39.860Z</time>
      </trkpt>
      <trkpt lat="20.21756833" lon="-98.72976833">
        <ele>2340.0</ele>
        <time>2019-10-12T14:37:40.861Z</time>
      </trkpt>
      <trkpt lat="20.21759167" lon="-98.729765">
        <ele>2340.0</ele>
        <time>2019-10-12T14:37:41.865Z</time>
      </trkpt>
      <trkpt lat="20.21761167" lon="-98.729765">
        <ele>2340.0</ele>
        <time>2019-10-12T14:37:42.871Z</time>
      </trkpt>
      <trkpt lat="20.21763333" lon="-98.72977">
        <ele>2340.0</ele>
        <time>2019-10-12T14:37:43.877Z</time>
      </trkpt>
      <trkpt lat="20.217655" lon="-98.72978">
        <ele>2340.0</ele>
        <time>2019-10-12T14:37:44.882Z</time>
      </trkpt>
      <trkpt lat="20.21767833" lon="-98.72979167">
        <ele>2340.0</ele>
        <time>2019-10-12T14:37:45.886Z</time>
      </trkpt>
      <trkpt lat="20.21770167" lon="-98.7298">
        <ele>2340.0</ele>
        <time>2019-10-12T14:37:46.887Z</time>
      </trkpt>
      <trkpt lat="20.21772" lon="-98.72981333">
        <ele>2341.0</ele>
        <time>2019-10-12T14:37:47.891Z</time>
      </trkpt>
      <trkpt lat="20.21773833" lon="-98.72982833">
        <ele>2340.0</ele>
        <time>2019-10-12T14:37:48.896Z</time>
      </trkpt>
      <trkpt lat="20.217755" lon="-98.72984333">
        <ele>2340.0</ele>
        <time>2019-10-12T14:37:49.904Z</time>
      </trkpt>
      <trkpt lat="20.21777167" lon="-98.72986">
        <ele>2340.0</ele>
        <time>2019-10-12T14:37:50.911Z</time>
      </trkpt>
      <trkpt lat="20.217785" lon="-98.72987833">
        <ele>2340.0</ele>
        <time>2019-10-12T14:37:51.914Z</time>
      </trkpt>
      <trkpt lat="20.21779667" lon="-98.72990167">
        <ele>2340.0</ele>
        <time>2019-10-12T14:37:52.919Z</time>
      </trkpt>
      <trkpt lat="20.21780667" lon="-98.729925">
        <ele>2340.0</ele>
        <time>2019-10-12T14:37:53.926Z</time>
      </trkpt>
      <trkpt lat="20.21781333" lon="-98.72994833">
        <ele>2340.0</ele>
        <time>2019-10-12T14:37:54.932Z</time>
      </trkpt>
      <trkpt lat="20.21781667" lon="-98.72997167">
        <ele>2339.0</ele>
        <time>2019-10-12T14:37:55.934Z</time>
      </trkpt>
      <trkpt lat="20.21781833" lon="-98.729995">
        <ele>2339.0</ele>
        <time>2019-10-12T14:37:56.941Z</time>
      </trkpt>
      <trkpt lat="20.21782833" lon="-98.73001667">
        <ele>2339.0</ele>
        <time>2019-10-12T14:37:57.947Z</time>
      </trkpt>
      <trkpt lat="20.21784" lon="-98.73004">
        <ele>2338.0</ele>
        <time>2019-10-12T14:37:58.948Z</time>
      </trkpt>
      <trkpt lat="20.21785" lon="-98.73006333">
        <ele>2338.0</ele>
        <time>2019-10-12T14:37:59.951Z</time>
      </trkpt>
      <trkpt lat="20.217855" lon="-98.73008833">
        <ele>2338.0</ele>
        <time>2019-10-12T14:38:00.831Z</time>
      </trkpt>
      <trkpt lat="20.217855" lon="-98.73011333">
        <ele>2337.0</ele>
        <time>2019-10-12T14:38:01.838Z</time>
      </trkpt>
      <trkpt lat="20.21785833" lon="-98.73013833">
        <ele>2337.0</ele>
        <time>2019-10-12T14:38:02.843Z</time>
      </trkpt>
      <trkpt lat="20.21786167" lon="-98.730165">
        <ele>2336.0</ele>
        <time>2019-10-12T14:38:03.845Z</time>
      </trkpt>
      <trkpt lat="20.21786167" lon="-98.730195">
        <ele>2335.0</ele>
        <time>2019-10-12T14:38:04.849Z</time>
      </trkpt>
      <trkpt lat="20.21786167" lon="-98.73022333">
        <ele>2335.0</ele>
        <time>2019-10-12T14:38:05.852Z</time>
      </trkpt>
      <trkpt lat="20.21786333" lon="-98.73025167">
        <ele>2335.0</ele>
        <time>2019-10-12T14:38:06.858Z</time>
      </trkpt>
      <trkpt lat="20.21786667" lon="-98.73028167">
        <ele>2335.0</ele>
        <time>2019-10-12T14:38:07.864Z</time>
      </trkpt>
      <trkpt lat="20.21787167" lon="-98.73031">
        <ele>2335.0</ele>
        <time>2019-10-12T14:38:08.870Z</time>
      </trkpt>
      <trkpt lat="20.21787333" lon="-98.73034">
        <ele>2335.0</ele>
        <time>2019-10-12T14:38:09.877Z</time>
      </trkpt>
      <trkpt lat="20.217875" lon="-98.73037">
        <ele>2335.0</ele>
        <time>2019-10-12T14:38:10.878Z</time>
      </trkpt>
      <trkpt lat="20.21787833" lon="-98.73039833">
        <ele>2335.0</ele>
        <time>2019-10-12T14:38:11.883Z</time>
      </trkpt>
      <trkpt lat="20.217885" lon="-98.730425">
        <ele>2335.0</ele>
        <time>2019-10-12T14:38:12.887Z</time>
      </trkpt>
      <trkpt lat="20.21788333" lon="-98.73045667">
        <ele>2335.0</ele>
        <time>2019-10-12T14:38:13.894Z</time>
      </trkpt>
      <trkpt lat="20.21787833" lon="-98.73049167">
        <ele>2335.0</ele>
        <time>2019-10-12T14:38:14.901Z</time>
      </trkpt>
      <trkpt lat="20.21787667" lon="-98.73052667">
        <ele>2336.0</ele>
        <time>2019-10-12T14:38:15.908Z</time>
      </trkpt>
      <trkpt lat="20.217875" lon="-98.73055833">
        <ele>2336.0</ele>
        <time>2019-10-12T14:38:16.913Z</time>
      </trkpt>
      <trkpt lat="20.21787833" lon="-98.73057833">
        <ele>2336.0</ele>
        <time>2019-10-12T14:38:17.919Z</time>
      </trkpt>
      <trkpt lat="20.21789" lon="-98.73059667">
        <ele>2336.0</ele>
        <time>2019-10-12T14:38:18.923Z</time>
      </trkpt>
      <trkpt lat="20.21789833" lon="-98.73061333">
        <ele>2336.0</ele>
        <time>2019-10-12T14:38:19.931Z</time>
      </trkpt>
      <trkpt lat="20.2179" lon="-98.73063333">
        <ele>2335.0</ele>
        <time>2019-10-12T14:38:20.934Z</time>
      </trkpt>
      <trkpt lat="20.217905" lon="-98.73064833">
        <ele>2333.0</ele>
        <time>2019-10-12T14:38:21.942Z</time>
      </trkpt>
      <trkpt lat="20.21790833" lon="-98.730665">
        <ele>2332.0</ele>
        <time>2019-10-12T14:38:22.950Z</time>
      </trkpt>
      <trkpt lat="20.21791" lon="-98.73068667">
        <ele>2331.0</ele>
        <time>2019-10-12T14:38:23.955Z</time>
      </trkpt>
      <trkpt lat="20.21790667" lon="-98.73071">
        <ele>2331.0</ele>
        <time>2019-10-12T14:38:24.830Z</time>
      </trkpt>
      <trkpt lat="20.21790333" lon="-98.73072833">
        <ele>2331.0</ele>
        <time>2019-10-12T14:38:25.831Z</time>
      </trkpt>
      <trkpt lat="20.21790333" lon="-98.73074667">
        <ele>2332.0</ele>
        <time>2019-10-12T14:38:26.832Z</time>
      </trkpt>
      <trkpt lat="20.21789667" lon="-98.73076833">
        <ele>2333.0</ele>
        <time>2019-10-12T14:38:27.836Z</time>
      </trkpt>
      <trkpt lat="20.21788667" lon="-98.73079333">
        <ele>2333.0</ele>
        <time>2019-10-12T14:38:28.837Z</time>
      </trkpt>
      <trkpt lat="20.21788" lon="-98.73080833">
        <ele>2333.0</ele>
        <time>2019-10-12T14:38:29.839Z</time>
      </trkpt>
      <trkpt lat="20.21787167" lon="-98.73083333">
        <ele>2333.0</ele>
        <time>2019-10-12T14:38:30.846Z</time>
      </trkpt>
      <trkpt lat="20.21787" lon="-98.730855">
        <ele>2333.0</ele>
        <time>2019-10-12T14:38:31.850Z</time>
      </trkpt>
      <trkpt lat="20.21786833" lon="-98.730885">
        <ele>2333.0</ele>
        <time>2019-10-12T14:38:32.853Z</time>
      </trkpt>
      <trkpt lat="20.21786167" lon="-98.73091833">
        <ele>2334.0</ele>
        <time>2019-10-12T14:38:33.856Z</time>
      </trkpt>
      <trkpt lat="20.21786167" lon="-98.73094333">
        <ele>2335.0</ele>
        <time>2019-10-12T14:38:34.858Z</time>
      </trkpt>
      <trkpt lat="20.21786167" lon="-98.73096667">
        <ele>2335.0</ele>
        <time>2019-10-12T14:38:35.864Z</time>
      </trkpt>
      <trkpt lat="20.21786" lon="-98.73098">
        <ele>2336.0</ele>
        <time>2019-10-12T14:38:36.871Z</time>
      </trkpt>
      <trkpt lat="20.21785667" lon="-98.73099833">
        <ele>2337.0</ele>
        <time>2019-10-12T14:38:37.878Z</time>
      </trkpt>
      <trkpt lat="20.21785167" lon="-98.73102">
        <ele>2338.0</ele>
        <time>2019-10-12T14:38:38.884Z</time>
      </trkpt>
      <trkpt lat="20.21785167" lon="-98.73104167">
        <ele>2339.0</ele>
        <time>2019-10-12T14:38:39.885Z</time>
      </trkpt>
      <trkpt lat="20.21784833" lon="-98.73106333">
        <ele>2338.0</ele>
        <time>2019-10-12T14:38:40.887Z</time>
      </trkpt>
      <trkpt lat="20.21784833" lon="-98.73109167">
        <ele>2338.0</ele>
        <time>2019-10-12T14:38:41.894Z</time>
      </trkpt>
      <trkpt lat="20.21784833" lon="-98.73111333">
        <ele>2338.0</ele>
        <time>2019-10-12T14:38:42.899Z</time>
      </trkpt>
      <trkpt lat="20.21785667" lon="-98.73113167">
        <ele>2338.0</ele>
        <time>2019-10-12T14:38:43.903Z</time>
      </trkpt>
      <trkpt lat="20.21786" lon="-98.73115167">
        <ele>2338.0</ele>
        <time>2019-10-12T14:38:44.908Z</time>
      </trkpt>
      <trkpt lat="20.21786833" lon="-98.73116833">
        <ele>2338.0</ele>
        <time>2019-10-12T14:38:45.916Z</time>
      </trkpt>
      <trkpt lat="20.217875" lon="-98.73118667">
        <ele>2338.0</ele>
        <time>2019-10-12T14:38:46.923Z</time>
      </trkpt>
      <trkpt lat="20.21788" lon="-98.731205">
        <ele>2339.0</ele>
        <time>2019-10-12T14:38:47.929Z</time>
      </trkpt>
      <trkpt lat="20.217885" lon="-98.73122">
        <ele>2339.0</ele>
        <time>2019-10-12T14:38:48.935Z</time>
      </trkpt>
      <trkpt lat="20.21788833" lon="-98.731235">
        <ele>2339.0</ele>
        <time>2019-10-12T14:38:49.936Z</time>
      </trkpt>
      <trkpt lat="20.21789" lon="-98.73125">
        <ele>2339.0</ele>
        <time>2019-10-12T14:38:50.942Z</time>
      </trkpt>
      <trkpt lat="20.21788833" lon="-98.73126333">
        <ele>2339.0</ele>
        <time>2019-10-12T14:38:51.947Z</time>
      </trkpt>
      <trkpt lat="20.217885" lon="-98.73127667">
        <ele>2338.0</ele>
        <time>2019-10-12T14:38:52.954Z</time>
      </trkpt>
      <trkpt lat="20.21789" lon="-98.73129">
        <ele>2337.0</ele>
        <time>2019-10-12T14:38:53.832Z</time>
      </trkpt>
      <trkpt lat="20.21789667" lon="-98.7313">
        <ele>2337.0</ele>
        <time>2019-10-12T14:38:54.833Z</time>
      </trkpt>
      <trkpt lat="20.217905" lon="-98.73131167">
        <ele>2337.0</ele>
        <time>2019-10-12T14:38:55.836Z</time>
      </trkpt>
      <trkpt lat="20.21791333" lon="-98.731325">
        <ele>2337.0</ele>
        <time>2019-10-12T14:38:56.840Z</time>
      </trkpt>
      <trkpt lat="20.21792167" lon="-98.73133833">
        <ele>2337.0</ele>
        <time>2019-10-12T14:38:57.843Z</time>
      </trkpt>
      <trkpt lat="20.21793" lon="-98.73134833">
        <ele>2337.0</ele>
        <time>2019-10-12T14:38:58.845Z</time>
      </trkpt>
      <trkpt lat="20.21793667" lon="-98.73136167">
        <ele>2338.0</ele>
        <time>2019-10-12T14:38:59.847Z</time>
      </trkpt>
      <trkpt lat="20.21794667" lon="-98.731375">
        <ele>2339.0</ele>
        <time>2019-10-12T14:39:00.847Z</time>
      </trkpt>
      <trkpt lat="20.217955" lon="-98.73138667">
        <ele>2339.0</ele>
        <time>2019-10-12T14:39:01.848Z</time>
      </trkpt>
      <trkpt lat="20.21796667" lon="-98.73139667">
        <ele>2339.0</ele>
        <time>2019-10-12T14:39:02.849Z</time>
      </trkpt>
      <trkpt lat="20.21797167" lon="-98.73140833">
        <ele>2339.0</ele>
        <time>2019-10-12T14:39:03.850Z</time>
      </trkpt>
      <trkpt lat="20.21798167" lon="-98.73142167">
        <ele>2339.0</ele>
        <time>2019-10-12T14:39:04.851Z</time>
      </trkpt>
      <trkpt lat="20.21799167" lon="-98.73143167">
        <ele>2338.0</ele>
        <time>2019-10-12T14:39:05.851Z</time>
      </trkpt>
      <trkpt lat="20.218" lon="-98.73144333">
        <ele>2338.0</ele>
        <time>2019-10-12T14:39:06.851Z</time>
      </trkpt>
      <trkpt lat="20.21800333" lon="-98.73145833">
        <ele>2338.0</ele>
        <time>2019-10-12T14:39:07.854Z</time>
      </trkpt>
      <trkpt lat="20.21801" lon="-98.731475">
        <ele>2339.0</ele>
        <time>2019-10-12T14:39:08.858Z</time>
      </trkpt>
      <trkpt lat="20.21802" lon="-98.731495">
        <ele>2339.0</ele>
        <time>2019-10-12T14:39:09.863Z</time>
      </trkpt>
      <trkpt lat="20.21803" lon="-98.73150667">
        <ele>2339.0</ele>
        <time>2019-10-12T14:39:10.866Z</time>
      </trkpt>
      <trkpt lat="20.21803667" lon="-98.73152">
        <ele>2338.0</ele>
        <time>2019-10-12T14:39:11.869Z</time>
      </trkpt>
      <trkpt lat="20.218045" lon="-98.73153">
        <ele>2337.0</ele>
        <time>2019-10-12T14:39:12.874Z</time>
      </trkpt>
      <trkpt lat="20.21805167" lon="-98.73154167">
        <ele>2337.0</ele>
        <time>2019-10-12T14:39:13.878Z</time>
      </trkpt>
      <trkpt lat="20.21806333" lon="-98.73155167">
        <ele>2336.0</ele>
        <time>2019-10-12T14:39:14.886Z</time>
      </trkpt>
      <trkpt lat="20.21807333" lon="-98.73156667">
        <ele>2336.0</ele>
        <time>2019-10-12T14:39:15.889Z</time>
      </trkpt>
      <trkpt lat="20.21808" lon="-98.73157833">
        <ele>2336.0</ele>
        <time>2019-10-12T14:39:16.896Z</time>
      </trkpt>
      <trkpt lat="20.21809" lon="-98.73159">
        <ele>2335.0</ele>
        <time>2019-10-12T14:39:17.902Z</time>
      </trkpt>
      <trkpt lat="20.21810167" lon="-98.7316">
        <ele>2335.0</ele>
        <time>2019-10-12T14:39:18.904Z</time>
      </trkpt>
      <trkpt lat="20.21811" lon="-98.73161333">
        <ele>2336.0</ele>
        <time>2019-10-12T14:39:19.904Z</time>
      </trkpt>
      <trkpt lat="20.21812" lon="-98.73163167">
        <ele>2336.0</ele>
        <time>2019-10-12T14:39:20.907Z</time>
      </trkpt>
      <trkpt lat="20.21813167" lon="-98.73164833">
        <ele>2336.0</ele>
        <time>2019-10-12T14:39:21.910Z</time>
      </trkpt>
      <trkpt lat="20.21814167" lon="-98.73166333">
        <ele>2336.0</ele>
        <time>2019-10-12T14:39:22.914Z</time>
      </trkpt>
      <trkpt lat="20.218155" lon="-98.73167">
        <ele>2336.0</ele>
        <time>2019-10-12T14:39:23.917Z</time>
      </trkpt>
      <trkpt lat="20.21817" lon="-98.73168">
        <ele>2336.0</ele>
        <time>2019-10-12T14:39:24.918Z</time>
      </trkpt>
      <trkpt lat="20.21818333" lon="-98.73169">
        <ele>2336.0</ele>
        <time>2019-10-12T14:39:25.923Z</time>
      </trkpt>
      <trkpt lat="20.21819833" lon="-98.73170333">
        <ele>2336.0</ele>
        <time>2019-10-12T14:39:26.926Z</time>
      </trkpt>
      <trkpt lat="20.21821833" lon="-98.731715">
        <ele>2336.0</ele>
        <time>2019-10-12T14:39:27.932Z</time>
      </trkpt>
      <trkpt lat="20.21823333" lon="-98.73172833">
        <ele>2336.0</ele>
        <time>2019-10-12T14:39:28.939Z</time>
      </trkpt>
      <trkpt lat="20.21824833" lon="-98.73174333">
        <ele>2336.0</ele>
        <time>2019-10-12T14:39:29.942Z</time>
      </trkpt>
      <trkpt lat="20.21826" lon="-98.73175333">
        <ele>2336.0</ele>
        <time>2019-10-12T14:39:30.943Z</time>
      </trkpt>
      <trkpt lat="20.218275" lon="-98.73176667">
        <ele>2336.0</ele>
        <time>2019-10-12T14:39:31.946Z</time>
      </trkpt>
      <trkpt lat="20.21828333" lon="-98.73178333">
        <ele>2336.0</ele>
        <time>2019-10-12T14:39:32.948Z</time>
      </trkpt>
      <trkpt lat="20.21829" lon="-98.7318">
        <ele>2336.0</ele>
        <time>2019-10-12T14:39:33.948Z</time>
      </trkpt>
      <trkpt lat="20.21829667" lon="-98.73182">
        <ele>2335.0</ele>
        <time>2019-10-12T14:39:34.949Z</time>
      </trkpt>
      <trkpt lat="20.21830667" lon="-98.73184">
        <ele>2334.0</ele>
        <time>2019-10-12T14:39:35.949Z</time>
      </trkpt>
      <trkpt lat="20.21831167" lon="-98.73185333">
        <ele>2334.0</ele>
        <time>2019-10-12T14:39:36.952Z</time>
      </trkpt>
      <trkpt lat="20.21831833" lon="-98.73187">
        <ele>2334.0</ele>
        <time>2019-10-12T14:39:37.832Z</time>
      </trkpt>
      <trkpt lat="20.21832333" lon="-98.731885">
        <ele>2335.0</ele>
        <time>2019-10-12T14:39:38.837Z</time>
      </trkpt>
      <trkpt lat="20.21832333" lon="-98.731905">
        <ele>2334.0</ele>
        <time>2019-10-12T14:39:39.843Z</time>
      </trkpt>
      <trkpt lat="20.21832833" lon="-98.731925">
        <ele>2334.0</ele>
        <time>2019-10-12T14:39:40.849Z</time>
      </trkpt>
      <trkpt lat="20.218335" lon="-98.73194">
        <ele>2334.0</ele>
        <time>2019-10-12T14:39:41.852Z</time>
      </trkpt>
      <trkpt lat="20.21833667" lon="-98.73195333">
        <ele>2334.0</ele>
        <time>2019-10-12T14:39:42.854Z</time>
      </trkpt>
      <trkpt lat="20.21834" lon="-98.73197">
        <ele>2335.0</ele>
        <time>2019-10-12T14:39:43.860Z</time>
      </trkpt>
      <trkpt lat="20.218345" lon="-98.73198833">
        <ele>2335.0</ele>
        <time>2019-10-12T14:39:44.864Z</time>
      </trkpt>
      <trkpt lat="20.21834333" lon="-98.73201167">
        <ele>2335.0</ele>
        <time>2019-10-12T14:39:45.869Z</time>
      </trkpt>
      <trkpt lat="20.21834" lon="-98.73203333">
        <ele>2335.0</ele>
        <time>2019-10-12T14:39:46.870Z</time>
      </trkpt>
      <trkpt lat="20.218335" lon="-98.73204667">
        <ele>2336.0</ele>
        <time>2019-10-12T14:39:47.871Z</time>
      </trkpt>
      <trkpt lat="20.21833833" lon="-98.73206667">
        <ele>2336.0</ele>
        <time>2019-10-12T14:39:48.872Z</time>
      </trkpt>
      <trkpt lat="20.21834333" lon="-98.73209167">
        <ele>2337.0</ele>
        <time>2019-10-12T14:39:49.872Z</time>
      </trkpt>
      <trkpt lat="20.21834833" lon="-98.73210833">
        <ele>2337.0</ele>
        <time>2019-10-12T14:39:50.875Z</time>
      </trkpt>
      <trkpt lat="20.218355" lon="-98.732125">
        <ele>2337.0</ele>
        <time>2019-10-12T14:39:51.881Z</time>
      </trkpt>
      <trkpt lat="20.21835833" lon="-98.73214167">
        <ele>2337.0</ele>
        <time>2019-10-12T14:39:52.884Z</time>
      </trkpt>
      <trkpt lat="20.21836167" lon="-98.73215667">
        <ele>2338.0</ele>
        <time>2019-10-12T14:39:53.888Z</time>
      </trkpt>
      <trkpt lat="20.218365" lon="-98.73217">
        <ele>2338.0</ele>
        <time>2019-10-12T14:39:54.893Z</time>
      </trkpt>
      <trkpt lat="20.218365" lon="-98.73218667">
        <ele>2338.0</ele>
        <time>2019-10-12T14:39:55.896Z</time>
      </trkpt>
      <trkpt lat="20.21836667" lon="-98.73220833">
        <ele>2337.0</ele>
        <time>2019-10-12T14:39:56.903Z</time>
      </trkpt>
      <trkpt lat="20.21836667" lon="-98.73222833">
        <ele>2338.0</ele>
        <time>2019-10-12T14:39:57.908Z</time>
      </trkpt>
      <trkpt lat="20.21837" lon="-98.73224667">
        <ele>2338.0</ele>
        <time>2019-10-12T14:39:58.915Z</time>
      </trkpt>
      <trkpt lat="20.21837167" lon="-98.73227">
        <ele>2339.0</ele>
        <time>2019-10-12T14:39:59.917Z</time>
      </trkpt>
      <trkpt lat="20.21837" lon="-98.73229333">
        <ele>2339.0</ele>
        <time>2019-10-12T14:40:00.925Z</time>
      </trkpt>
      <trkpt lat="20.21836833" lon="-98.73231833">
        <ele>2339.0</ele>
        <time>2019-10-12T14:40:01.930Z</time>
      </trkpt>
      <trkpt lat="20.21837" lon="-98.732345">
        <ele>2339.0</ele>
        <time>2019-10-12T14:40:02.937Z</time>
      </trkpt>
      <trkpt lat="20.21837667" lon="-98.732365">
        <ele>2339.0</ele>
        <time>2019-10-12T14:40:03.938Z</time>
      </trkpt>
      <trkpt lat="20.218385" lon="-98.73238833">
        <ele>2338.0</ele>
        <time>2019-10-12T14:40:04.938Z</time>
      </trkpt>
      <trkpt lat="20.21840167" lon="-98.73240167">
        <ele>2338.0</ele>
        <time>2019-10-12T14:40:05.938Z</time>
      </trkpt>
      <trkpt lat="20.21841667" lon="-98.73241333">
        <ele>2338.0</ele>
        <time>2019-10-12T14:40:06.938Z</time>
      </trkpt>
      <trkpt lat="20.21843833" lon="-98.73243167">
        <ele>2339.0</ele>
        <time>2019-10-12T14:40:07.939Z</time>
      </trkpt>
      <trkpt lat="20.21845333" lon="-98.732445">
        <ele>2338.0</ele>
        <time>2019-10-12T14:40:08.939Z</time>
      </trkpt>
      <trkpt lat="20.21846667" lon="-98.73245667">
        <ele>2339.0</ele>
        <time>2019-10-12T14:40:09.939Z</time>
      </trkpt>
      <trkpt lat="20.21848667" lon="-98.73246667">
        <ele>2339.0</ele>
        <time>2019-10-12T14:40:10.940Z</time>
      </trkpt>
      <trkpt lat="20.21851333" lon="-98.73247667">
        <ele>2339.0</ele>
        <time>2019-10-12T14:40:11.941Z</time>
      </trkpt>
      <trkpt lat="20.21852667" lon="-98.73248">
        <ele>2339.0</ele>
        <time>2019-10-12T14:40:12.942Z</time>
      </trkpt>
      <trkpt lat="20.21854167" lon="-98.73247833">
        <ele>2338.0</ele>
        <time>2019-10-12T14:40:13.942Z</time>
      </trkpt>
      <trkpt lat="20.218555" lon="-98.73247167">
        <ele>2339.0</ele>
        <time>2019-10-12T14:40:14.943Z</time>
      </trkpt>
      <trkpt lat="20.21857167" lon="-98.73247167">
        <ele>2338.0</ele>
        <time>2019-10-12T14:40:15.948Z</time>
      </trkpt>
      <trkpt lat="20.21858667" lon="-98.732475">
        <ele>2338.0</ele>
        <time>2019-10-12T14:40:16.952Z</time>
      </trkpt>
      <trkpt lat="20.21860667" lon="-98.73247333">
        <ele>2337.0</ele>
        <time>2019-10-12T14:40:17.831Z</time>
      </trkpt>
      <trkpt lat="20.21862333" lon="-98.73247">
        <ele>2337.0</ele>
        <time>2019-10-12T14:40:18.838Z</time>
      </trkpt>
      <trkpt lat="20.21863833" lon="-98.73246333">
        <ele>2336.0</ele>
        <time>2019-10-12T14:40:19.840Z</time>
      </trkpt>
      <trkpt lat="20.218655" lon="-98.73245">
        <ele>2336.0</ele>
        <time>2019-10-12T14:40:20.844Z</time>
      </trkpt>
      <trkpt lat="20.21867" lon="-98.73244667">
        <ele>2336.0</ele>
        <time>2019-10-12T14:40:21.847Z</time>
      </trkpt>
      <trkpt lat="20.21868333" lon="-98.732445">
        <ele>2336.0</ele>
        <time>2019-10-12T14:40:22.854Z</time>
      </trkpt>
      <trkpt lat="20.218695" lon="-98.73243833">
        <ele>2336.0</ele>
        <time>2019-10-12T14:40:23.859Z</time>
      </trkpt>
      <trkpt lat="20.21871167" lon="-98.73242833">
        <ele>2336.0</ele>
        <time>2019-10-12T14:40:24.866Z</time>
      </trkpt>
      <trkpt lat="20.218735" lon="-98.73241333">
        <ele>2336.0</ele>
        <time>2019-10-12T14:40:25.871Z</time>
      </trkpt>
      <trkpt lat="20.218755" lon="-98.73240667">
        <ele>2336.0</ele>
        <time>2019-10-12T14:40:26.876Z</time>
      </trkpt>
      <trkpt lat="20.21877667" lon="-98.73240667">
        <ele>2336.0</ele>
        <time>2019-10-12T14:40:27.883Z</time>
      </trkpt>
      <trkpt lat="20.218795" lon="-98.73241">
        <ele>2336.0</ele>
        <time>2019-10-12T14:40:28.888Z</time>
      </trkpt>
      <trkpt lat="20.21880833" lon="-98.732415">
        <ele>2336.0</ele>
        <time>2019-10-12T14:40:29.891Z</time>
      </trkpt>
      <trkpt lat="20.21881833" lon="-98.73242333">
        <ele>2335.0</ele>
        <time>2019-10-12T14:40:30.892Z</time>
      </trkpt>
      <trkpt lat="20.21883333" lon="-98.732435">
        <ele>2335.0</ele>
        <time>2019-10-12T14:40:31.892Z</time>
      </trkpt>
      <trkpt lat="20.218845" lon="-98.73245">
        <ele>2335.0</ele>
        <time>2019-10-12T14:40:32.897Z</time>
      </trkpt>
      <trkpt lat="20.21885333" lon="-98.73246333">
        <ele>2335.0</ele>
        <time>2019-10-12T14:40:33.902Z</time>
      </trkpt>
      <trkpt lat="20.218865" lon="-98.73247667">
        <ele>2334.0</ele>
        <time>2019-10-12T14:40:34.906Z</time>
      </trkpt>
      <trkpt lat="20.21887667" lon="-98.73249167">
        <ele>2333.0</ele>
        <time>2019-10-12T14:40:35.911Z</time>
      </trkpt>
      <trkpt lat="20.21889" lon="-98.73250333">
        <ele>2333.0</ele>
        <time>2019-10-12T14:40:36.917Z</time>
      </trkpt>
      <trkpt lat="20.21889833" lon="-98.732515">
        <ele>2333.0</ele>
        <time>2019-10-12T14:40:37.923Z</time>
      </trkpt>
      <trkpt lat="20.21890833" lon="-98.73252667">
        <ele>2333.0</ele>
        <time>2019-10-12T14:40:38.927Z</time>
      </trkpt>
      <trkpt lat="20.21892" lon="-98.73254">
        <ele>2333.0</ele>
        <time>2019-10-12T14:40:39.930Z</time>
      </trkpt>
      <trkpt lat="20.21893" lon="-98.73255167">
        <ele>2333.0</ele>
        <time>2019-10-12T14:40:40.931Z</time>
      </trkpt>
      <trkpt lat="20.21894" lon="-98.732565">
        <ele>2333.0</ele>
        <time>2019-10-12T14:40:41.933Z</time>
      </trkpt>
      <trkpt lat="20.21895333" lon="-98.73257667">
        <ele>2333.0</ele>
        <time>2019-10-12T14:40:42.939Z</time>
      </trkpt>
      <trkpt lat="20.21896833" lon="-98.73258167">
        <ele>2332.0</ele>
        <time>2019-10-12T14:40:43.945Z</time>
      </trkpt>
      <trkpt lat="20.21898" lon="-98.73259">
        <ele>2332.0</ele>
        <time>2019-10-12T14:40:44.950Z</time>
      </trkpt>
      <trkpt lat="20.21899667" lon="-98.73260333">
        <ele>2331.0</ele>
        <time>2019-10-12T14:40:45.951Z</time>
      </trkpt>
      <trkpt lat="20.21900833" lon="-98.73261167">
        <ele>2330.0</ele>
        <time>2019-10-12T14:40:46.953Z</time>
      </trkpt>
      <trkpt lat="20.219025" lon="-98.73263">
        <ele>2329.0</ele>
        <time>2019-10-12T14:40:47.833Z</time>
      </trkpt>
      <trkpt lat="20.21903667" lon="-98.73265167">
        <ele>2329.0</ele>
        <time>2019-10-12T14:40:48.840Z</time>
      </trkpt>
      <trkpt lat="20.21904667" lon="-98.73267667">
        <ele>2329.0</ele>
        <time>2019-10-12T14:40:49.845Z</time>
      </trkpt>
      <trkpt lat="20.21904667" lon="-98.73270167">
        <ele>2330.0</ele>
        <time>2019-10-12T14:40:50.845Z</time>
      </trkpt>
      <trkpt lat="20.21905667" lon="-98.73272167">
        <ele>2330.0</ele>
        <time>2019-10-12T14:40:51.846Z</time>
      </trkpt>
      <trkpt lat="20.21906333" lon="-98.73273167">
        <ele>2331.0</ele>
        <time>2019-10-12T14:40:52.846Z</time>
      </trkpt>
      <trkpt lat="20.21907333" lon="-98.73274833">
        <ele>2332.0</ele>
        <time>2019-10-12T14:40:53.846Z</time>
      </trkpt>
      <trkpt lat="20.21908" lon="-98.73276833">
        <ele>2333.0</ele>
        <time>2019-10-12T14:40:54.847Z</time>
      </trkpt>
      <trkpt lat="20.219085" lon="-98.73278333">
        <ele>2333.0</ele>
        <time>2019-10-12T14:40:55.848Z</time>
      </trkpt>
      <trkpt lat="20.21908667" lon="-98.732815">
        <ele>2333.0</ele>
        <time>2019-10-12T14:40:56.849Z</time>
      </trkpt>
      <trkpt lat="20.21908667" lon="-98.73284333">
        <ele>2333.0</ele>
        <time>2019-10-12T14:40:57.850Z</time>
      </trkpt>
      <trkpt lat="20.219085" lon="-98.73287">
        <ele>2333.0</ele>
        <time>2019-10-12T14:40:58.856Z</time>
      </trkpt>
      <trkpt lat="20.219085" lon="-98.732895">
        <ele>2333.0</ele>
        <time>2019-10-12T14:40:59.864Z</time>
      </trkpt>
      <trkpt lat="20.21908333" lon="-98.73293">
        <ele>2332.0</ele>
        <time>2019-10-12T14:41:00.870Z</time>
      </trkpt>
      <trkpt lat="20.21908833" lon="-98.73295667">
        <ele>2332.0</ele>
        <time>2019-10-12T14:41:01.873Z</time>
      </trkpt>
      <trkpt lat="20.21909833" lon="-98.73297833">
        <ele>2332.0</ele>
        <time>2019-10-12T14:41:02.876Z</time>
      </trkpt>
      <trkpt lat="20.21910833" lon="-98.733005">
        <ele>2332.0</ele>
        <time>2019-10-12T14:41:03.880Z</time>
      </trkpt>
      <trkpt lat="20.21911333" lon="-98.73302167">
        <ele>2332.0</ele>
        <time>2019-10-12T14:41:04.886Z</time>
      </trkpt>
      <trkpt lat="20.21913167" lon="-98.73303667">
        <ele>2332.0</ele>
        <time>2019-10-12T14:41:05.890Z</time>
      </trkpt>
      <trkpt lat="20.21915167" lon="-98.73305">
        <ele>2332.0</ele>
        <time>2019-10-12T14:41:06.894Z</time>
      </trkpt>
      <trkpt lat="20.219175" lon="-98.733065">
        <ele>2332.0</ele>
        <time>2019-10-12T14:41:07.899Z</time>
      </trkpt>
      <trkpt lat="20.21919667" lon="-98.73307833">
        <ele>2333.0</ele>
        <time>2019-10-12T14:41:08.900Z</time>
      </trkpt>
      <trkpt lat="20.21921667" lon="-98.733095">
        <ele>2333.0</ele>
        <time>2019-10-12T14:41:09.902Z</time>
      </trkpt>
      <trkpt lat="20.21923333" lon="-98.73311333">
        <ele>2333.0</ele>
        <time>2019-10-12T14:41:10.906Z</time>
      </trkpt>
      <trkpt lat="20.219255" lon="-98.73312">
        <ele>2333.0</ele>
        <time>2019-10-12T14:41:11.911Z</time>
      </trkpt>
      <trkpt lat="20.21927833" lon="-98.733125">
        <ele>2334.0</ele>
        <time>2019-10-12T14:41:12.916Z</time>
      </trkpt>
      <trkpt lat="20.21930167" lon="-98.73313667">
        <ele>2334.0</ele>
        <time>2019-10-12T14:41:13.922Z</time>
      </trkpt>
      <trkpt lat="20.219315" lon="-98.733145">
        <ele>2335.0</ele>
        <time>2019-10-12T14:41:14.924Z</time>
      </trkpt>
      <trkpt lat="20.21932333" lon="-98.73315333">
        <ele>2335.0</ele>
        <time>2019-10-12T14:41:15.927Z</time>
      </trkpt>
      <trkpt lat="20.21933333" lon="-98.73316167">
        <ele>2335.0</ele>
        <time>2019-10-12T14:41:16.928Z</time>
      </trkpt>
      <trkpt lat="20.21933" lon="-98.733175">
        <ele>2334.0</ele>
        <time>2019-10-12T14:41:17.928Z</time>
      </trkpt>
      <trkpt lat="20.21932167" lon="-98.73318167">
        <ele>2334.0</ele>
        <time>2019-10-12T14:41:18.928Z</time>
      </trkpt>
      <trkpt lat="20.21931667" lon="-98.73318667">
        <ele>2334.0</ele>
        <time>2019-10-12T14:41:19.928Z</time>
      </trkpt>
      <trkpt lat="20.21931" lon="-98.73319167">
        <ele>2334.0</ele>
        <time>2019-10-12T14:41:20.929Z</time>
      </trkpt>
      <trkpt lat="20.219305" lon="-98.73319167">
        <ele>2334.0</ele>
        <time>2019-10-12T14:41:21.929Z</time>
      </trkpt>
      <trkpt lat="20.21930167" lon="-98.733195">
        <ele>2334.0</ele>
        <time>2019-10-12T14:41:22.933Z</time>
      </trkpt>
      <trkpt lat="20.21929333" lon="-98.73319833">
        <ele>2334.0</ele>
        <time>2019-10-12T14:41:23.937Z</time>
      </trkpt>
      <trkpt lat="20.21928333" lon="-98.73321">
        <ele>2333.0</ele>
        <time>2019-10-12T14:41:24.937Z</time>
      </trkpt>
      <trkpt lat="20.21928333" lon="-98.73321">
        <ele>2333.0</ele>
        <time>2019-10-12T14:41:25.941Z</time>
      </trkpt>
      <trkpt lat="20.21928" lon="-98.73321333">
        <ele>2333.0</ele>
        <time>2019-10-12T14:41:26.943Z</time>
      </trkpt>
      <trkpt lat="20.21927833" lon="-98.73321333">
        <ele>2334.0</ele>
        <time>2019-10-12T14:41:27.951Z</time>
      </trkpt>
      <trkpt lat="20.21927667" lon="-98.73321667">
        <ele>2334.0</ele>
        <time>2019-10-12T14:41:28.832Z</time>
      </trkpt>
      <trkpt lat="20.21926833" lon="-98.73322333">
        <ele>2333.0</ele>
        <time>2019-10-12T14:41:29.838Z</time>
      </trkpt>
      <trkpt lat="20.21926667" lon="-98.73322833">
        <ele>2333.0</ele>
        <time>2019-10-12T14:41:30.840Z</time>
      </trkpt>
      <trkpt lat="20.21927" lon="-98.73322667">
        <ele>2333.0</ele>
        <time>2019-10-12T14:41:31.841Z</time>
      </trkpt>
      <trkpt lat="20.21927" lon="-98.73322667">
        <ele>2333.0</ele>
        <time>2019-10-12T14:41:32.842Z</time>
      </trkpt>
      <trkpt lat="20.21927" lon="-98.73322667">
        <ele>2333.0</ele>
        <time>2019-10-12T14:41:33.843Z</time>
      </trkpt>
      <trkpt lat="20.21927" lon="-98.73322667">
        <ele>2333.0</ele>
        <time>2019-10-12T14:41:34.848Z</time>
      </trkpt>
      <trkpt lat="20.21927" lon="-98.73322667">
        <ele>2333.0</ele>
        <time>2019-10-12T14:41:35.855Z</time>
      </trkpt>
      <trkpt lat="20.21927" lon="-98.73322667">
        <ele>2333.0</ele>
        <time>2019-10-12T14:41:36.860Z</time>
      </trkpt>
      <trkpt lat="20.21927" lon="-98.73322667">
        <ele>2333.0</ele>
        <time>2019-10-12T14:41:37.864Z</time>
      </trkpt>
      <trkpt lat="20.21927" lon="-98.73322667">
        <ele>2333.0</ele>
        <time>2019-10-12T14:41:38.867Z</time>
      </trkpt>
      <trkpt lat="20.21927" lon="-98.73322667">
        <ele>2333.0</ele>
        <time>2019-10-12T14:41:39.874Z</time>
      </trkpt>
      <trkpt lat="20.219275" lon="-98.73322833">
        <ele>2333.0</ele>
        <time>2019-10-12T14:41:40.879Z</time>
      </trkpt>
      <trkpt lat="20.21930167" lon="-98.733235">
        <ele>2333.0</ele>
        <time>2019-10-12T14:41:41.880Z</time>
      </trkpt>
      <trkpt lat="20.21933333" lon="-98.73323833">
        <ele>2333.0</ele>
        <time>2019-10-12T14:41:42.881Z</time>
      </trkpt>
      <trkpt lat="20.21936" lon="-98.73324167">
        <ele>2333.0</ele>
        <time>2019-10-12T14:41:43.881Z</time>
      </trkpt>
      <trkpt lat="20.21939" lon="-98.733245">
        <ele>2332.0</ele>
        <time>2019-10-12T14:41:44.883Z</time>
      </trkpt>
      <trkpt lat="20.21942333" lon="-98.73324167">
        <ele>2332.0</ele>
        <time>2019-10-12T14:41:45.884Z</time>
      </trkpt>
      <trkpt lat="20.21945333" lon="-98.73323667">
        <ele>2332.0</ele>
        <time>2019-10-12T14:41:46.884Z</time>
      </trkpt>
      <trkpt lat="20.219485" lon="-98.733235">
        <ele>2331.0</ele>
        <time>2019-10-12T14:41:47.885Z</time>
      </trkpt>
      <trkpt lat="20.21951" lon="-98.73323167">
        <ele>2331.0</ele>
        <time>2019-10-12T14:41:48.886Z</time>
      </trkpt>
      <trkpt lat="20.219545" lon="-98.73322667">
        <ele>2330.0</ele>
        <time>2019-10-12T14:41:49.887Z</time>
      </trkpt>
      <trkpt lat="20.21957167" lon="-98.73322">
        <ele>2330.0</ele>
        <time>2019-10-12T14:41:50.887Z</time>
      </trkpt>
      <trkpt lat="20.21959833" lon="-98.73320833">
        <ele>2329.0</ele>
        <time>2019-10-12T14:41:51.891Z</time>
      </trkpt>
      <trkpt lat="20.21961833" lon="-98.733195">
        <ele>2329.0</ele>
        <time>2019-10-12T14:41:52.897Z</time>
      </trkpt>
      <trkpt lat="20.21964667" lon="-98.73318333">
        <ele>2329.0</ele>
        <time>2019-10-12T14:41:53.902Z</time>
      </trkpt>
      <trkpt lat="20.21967333" lon="-98.73316833">
        <ele>2329.0</ele>
        <time>2019-10-12T14:41:54.907Z</time>
      </trkpt>
      <trkpt lat="20.2197" lon="-98.73315333">
        <ele>2329.0</ele>
        <time>2019-10-12T14:41:55.914Z</time>
      </trkpt>
      <trkpt lat="20.21972667" lon="-98.73313833">
        <ele>2329.0</ele>
        <time>2019-10-12T14:41:56.914Z</time>
      </trkpt>
      <trkpt lat="20.21975167" lon="-98.73312">
        <ele>2329.0</ele>
        <time>2019-10-12T14:41:57.918Z</time>
      </trkpt>
      <trkpt lat="20.21978" lon="-98.73311167">
        <ele>2329.0</ele>
        <time>2019-10-12T14:41:58.921Z</time>
      </trkpt>
      <trkpt lat="20.21980667" lon="-98.73310167">
        <ele>2330.0</ele>
        <time>2019-10-12T14:41:59.925Z</time>
      </trkpt>
      <trkpt lat="20.21983333" lon="-98.73309833">
        <ele>2330.0</ele>
        <time>2019-10-12T14:42:00.927Z</time>
      </trkpt>
      <trkpt lat="20.21986" lon="-98.73309667">
        <ele>2329.0</ele>
        <time>2019-10-12T14:42:01.929Z</time>
      </trkpt>
      <trkpt lat="20.219885" lon="-98.73309833">
        <ele>2329.0</ele>
        <time>2019-10-12T14:42:02.930Z</time>
      </trkpt>
      <trkpt lat="20.21991167" lon="-98.73309667">
        <ele>2329.0</ele>
        <time>2019-10-12T14:42:03.933Z</time>
      </trkpt>
      <trkpt lat="20.219935" lon="-98.73309667">
        <ele>2329.0</ele>
        <time>2019-10-12T14:42:04.941Z</time>
      </trkpt>
      <trkpt lat="20.21997" lon="-98.73310167">
        <ele>2331.0</ele>
        <time>2019-10-12T14:42:05.944Z</time>
      </trkpt>
      <trkpt lat="20.219995" lon="-98.73310167">
        <ele>2331.0</ele>
        <time>2019-10-12T14:42:06.949Z</time>
      </trkpt>
      <trkpt lat="20.220025" lon="-98.73310167">
        <ele>2331.0</ele>
        <time>2019-10-12T14:42:07.830Z</time>
      </trkpt>
      <trkpt lat="20.22004333" lon="-98.7331">
        <ele>2330.0</ele>
        <time>2019-10-12T14:42:08.835Z</time>
      </trkpt>
      <trkpt lat="20.220065" lon="-98.73309667">
        <ele>2329.0</ele>
        <time>2019-10-12T14:42:09.836Z</time>
      </trkpt>
      <trkpt lat="20.22008333" lon="-98.73309167">
        <ele>2328.0</ele>
        <time>2019-10-12T14:42:10.837Z</time>
      </trkpt>
      <trkpt lat="20.22010833" lon="-98.73308333">
        <ele>2327.0</ele>
        <time>2019-10-12T14:42:11.841Z</time>
      </trkpt>
      <trkpt lat="20.22013333" lon="-98.733075">
        <ele>2327.0</ele>
        <time>2019-10-12T14:42:12.847Z</time>
      </trkpt>
      <trkpt lat="20.220155" lon="-98.73307167">
        <ele>2328.0</ele>
        <time>2019-10-12T14:42:13.853Z</time>
      </trkpt>
      <trkpt lat="20.22017667" lon="-98.73307667">
        <ele>2328.0</ele>
        <time>2019-10-12T14:42:14.860Z</time>
      </trkpt>
      <trkpt lat="20.22019667" lon="-98.73307667">
        <ele>2328.0</ele>
        <time>2019-10-12T14:42:15.863Z</time>
      </trkpt>
      <trkpt lat="20.22022" lon="-98.73307833">
        <ele>2328.0</ele>
        <time>2019-10-12T14:42:16.869Z</time>
      </trkpt>
      <trkpt lat="20.22024167" lon="-98.73308333">
        <ele>2328.0</ele>
        <time>2019-10-12T14:42:17.875Z</time>
      </trkpt>
      <trkpt lat="20.22025667" lon="-98.73309167">
        <ele>2328.0</ele>
        <time>2019-10-12T14:42:18.881Z</time>
      </trkpt>
      <trkpt lat="20.22026833" lon="-98.733105">
        <ele>2328.0</ele>
        <time>2019-10-12T14:42:19.887Z</time>
      </trkpt>
      <trkpt lat="20.22027333" lon="-98.73311667">
        <ele>2329.0</ele>
        <time>2019-10-12T14:42:20.894Z</time>
      </trkpt>
      <trkpt lat="20.220275" lon="-98.73313167">
        <ele>2329.0</ele>
        <time>2019-10-12T14:42:21.897Z</time>
      </trkpt>
      <trkpt lat="20.22027833" lon="-98.733145">
        <ele>2329.0</ele>
        <time>2019-10-12T14:42:22.902Z</time>
      </trkpt>
      <trkpt lat="20.22028167" lon="-98.73316">
        <ele>2330.0</ele>
        <time>2019-10-12T14:42:23.905Z</time>
      </trkpt>
      <trkpt lat="20.22028833" lon="-98.733175">
        <ele>2330.0</ele>
        <time>2019-10-12T14:42:24.906Z</time>
      </trkpt>
      <trkpt lat="20.220295" lon="-98.73319333">
        <ele>2330.0</ele>
        <time>2019-10-12T14:42:25.906Z</time>
      </trkpt>
      <trkpt lat="20.22030333" lon="-98.73321667">
        <ele>2330.0</ele>
        <time>2019-10-12T14:42:26.906Z</time>
      </trkpt>
      <trkpt lat="20.22031167" lon="-98.73323333">
        <ele>2330.0</ele>
        <time>2019-10-12T14:42:27.906Z</time>
      </trkpt>
      <trkpt lat="20.22032167" lon="-98.73325167">
        <ele>2330.0</ele>
        <time>2019-10-12T14:42:28.910Z</time>
      </trkpt>
      <trkpt lat="20.22033167" lon="-98.73327333">
        <ele>2330.0</ele>
        <time>2019-10-12T14:42:29.916Z</time>
      </trkpt>
      <trkpt lat="20.22034333" lon="-98.73329333">
        <ele>2330.0</ele>
        <time>2019-10-12T14:42:30.921Z</time>
      </trkpt>
      <trkpt lat="20.22035833" lon="-98.73330833">
        <ele>2330.0</ele>
        <time>2019-10-12T14:42:31.924Z</time>
      </trkpt>
      <trkpt lat="20.220375" lon="-98.73331833">
        <ele>2329.0</ele>
        <time>2019-10-12T14:42:32.929Z</time>
      </trkpt>
      <trkpt lat="20.22039" lon="-98.73333">
        <ele>2328.0</ele>
        <time>2019-10-12T14:42:33.934Z</time>
      </trkpt>
      <trkpt lat="20.220405" lon="-98.73334">
        <ele>2328.0</ele>
        <time>2019-10-12T14:42:34.937Z</time>
      </trkpt>
      <trkpt lat="20.22042" lon="-98.73334333">
        <ele>2328.0</ele>
        <time>2019-10-12T14:42:35.942Z</time>
      </trkpt>
      <trkpt lat="20.220435" lon="-98.73334667">
        <ele>2327.0</ele>
        <time>2019-10-12T14:42:36.947Z</time>
      </trkpt>
      <trkpt lat="20.22045" lon="-98.73334833">
        <ele>2327.0</ele>
        <time>2019-10-12T14:42:37.954Z</time>
      </trkpt>
      <trkpt lat="20.22047167" lon="-98.73335">
        <ele>2327.0</ele>
        <time>2019-10-12T14:42:38.831Z</time>
      </trkpt>
      <trkpt lat="20.22048667" lon="-98.73335333">
        <ele>2326.0</ele>
        <time>2019-10-12T14:42:39.834Z</time>
      </trkpt>
      <trkpt lat="20.22049833" lon="-98.733355">
        <ele>2326.0</ele>
        <time>2019-10-12T14:42:40.838Z</time>
      </trkpt>
      <trkpt lat="20.22051" lon="-98.733355">
        <ele>2326.0</ele>
        <time>2019-10-12T14:42:41.844Z</time>
      </trkpt>
      <trkpt lat="20.22052333" lon="-98.73336167">
        <ele>2326.0</ele>
        <time>2019-10-12T14:42:42.847Z</time>
      </trkpt>
      <trkpt lat="20.22053833" lon="-98.73337333">
        <ele>2326.0</ele>
        <time>2019-10-12T14:42:43.847Z</time>
      </trkpt>
      <trkpt lat="20.22055167" lon="-98.733385">
        <ele>2326.0</ele>
        <time>2019-10-12T14:42:44.847Z</time>
      </trkpt>
      <trkpt lat="20.22056333" lon="-98.73339333">
        <ele>2326.0</ele>
        <time>2019-10-12T14:42:45.848Z</time>
      </trkpt>
      <trkpt lat="20.220575" lon="-98.73340333">
        <ele>2326.0</ele>
        <time>2019-10-12T14:42:46.849Z</time>
      </trkpt>
      <trkpt lat="20.22058833" lon="-98.733415">
        <ele>2326.0</ele>
        <time>2019-10-12T14:42:47.850Z</time>
      </trkpt>
      <trkpt lat="20.2206" lon="-98.73342833">
        <ele>2326.0</ele>
        <time>2019-10-12T14:42:48.850Z</time>
      </trkpt>
      <trkpt lat="20.22061333" lon="-98.73344833">
        <ele>2326.0</ele>
        <time>2019-10-12T14:42:49.851Z</time>
      </trkpt>
      <trkpt lat="20.22062" lon="-98.733465">
        <ele>2326.0</ele>
        <time>2019-10-12T14:42:50.852Z</time>
      </trkpt>
      <trkpt lat="20.22063" lon="-98.733485">
        <ele>2326.0</ele>
        <time>2019-10-12T14:42:51.853Z</time>
      </trkpt>
      <trkpt lat="20.22064333" lon="-98.733505">
        <ele>2325.0</ele>
        <time>2019-10-12T14:42:52.858Z</time>
      </trkpt>
      <trkpt lat="20.22066167" lon="-98.73352">
        <ele>2325.0</ele>
        <time>2019-10-12T14:42:53.865Z</time>
      </trkpt>
      <trkpt lat="20.22068167" lon="-98.73353">
        <ele>2325.0</ele>
        <time>2019-10-12T14:42:54.867Z</time>
      </trkpt>
      <trkpt lat="20.220695" lon="-98.73353667">
        <ele>2325.0</ele>
        <time>2019-10-12T14:42:55.872Z</time>
      </trkpt>
      <trkpt lat="20.220715" lon="-98.73354833">
        <ele>2325.0</ele>
        <time>2019-10-12T14:42:56.877Z</time>
      </trkpt>
      <trkpt lat="20.22073667" lon="-98.73355833">
        <ele>2324.0</ele>
        <time>2019-10-12T14:42:57.879Z</time>
      </trkpt>
      <trkpt lat="20.22076333" lon="-98.733565">
        <ele>2324.0</ele>
        <time>2019-10-12T14:42:58.880Z</time>
      </trkpt>
      <trkpt lat="20.22078333" lon="-98.73357333">
        <ele>2324.0</ele>
        <time>2019-10-12T14:42:59.882Z</time>
      </trkpt>
      <trkpt lat="20.22080167" lon="-98.73357333">
        <ele>2323.0</ele>
        <time>2019-10-12T14:43:00.887Z</time>
      </trkpt>
      <trkpt lat="20.22081667" lon="-98.73357667">
        <ele>2323.0</ele>
        <time>2019-10-12T14:43:01.890Z</time>
      </trkpt>
      <trkpt lat="20.22083667" lon="-98.733585">
        <ele>2322.0</ele>
        <time>2019-10-12T14:43:02.896Z</time>
      </trkpt>
      <trkpt lat="20.22085" lon="-98.73359333">
        <ele>2322.0</ele>
        <time>2019-10-12T14:43:03.903Z</time>
      </trkpt>
      <trkpt lat="20.22087" lon="-98.73359333">
        <ele>2321.0</ele>
        <time>2019-10-12T14:43:04.908Z</time>
      </trkpt>
      <trkpt lat="20.22088333" lon="-98.73360167">
        <ele>2321.0</ele>
        <time>2019-10-12T14:43:05.911Z</time>
      </trkpt>
      <trkpt lat="20.22089167" lon="-98.73361167">
        <ele>2321.0</ele>
        <time>2019-10-12T14:43:06.917Z</time>
      </trkpt>
      <trkpt lat="20.22089333" lon="-98.73363">
        <ele>2321.0</ele>
        <time>2019-10-12T14:43:07.923Z</time>
      </trkpt>
      <trkpt lat="20.22089667" lon="-98.73365333">
        <ele>2321.0</ele>
        <time>2019-10-12T14:43:08.928Z</time>
      </trkpt>
      <trkpt lat="20.22090167" lon="-98.733675">
        <ele>2322.0</ele>
        <time>2019-10-12T14:43:09.929Z</time>
      </trkpt>
      <trkpt lat="20.22090333" lon="-98.733705">
        <ele>2322.0</ele>
        <time>2019-10-12T14:43:10.930Z</time>
      </trkpt>
      <trkpt lat="20.22090333" lon="-98.73373333">
        <ele>2323.0</ele>
        <time>2019-10-12T14:43:11.936Z</time>
      </trkpt>
      <trkpt lat="20.22090167" lon="-98.73375667">
        <ele>2324.0</ele>
        <time>2019-10-12T14:43:12.943Z</time>
      </trkpt>
      <trkpt lat="20.22088833" lon="-98.73378333">
        <ele>2325.0</ele>
        <time>2019-10-12T14:43:13.948Z</time>
      </trkpt>
      <trkpt lat="20.22087167" lon="-98.73380333">
        <ele>2326.0</ele>
        <time>2019-10-12T14:43:14.954Z</time>
      </trkpt>
      <trkpt lat="20.22086" lon="-98.73382667">
        <ele>2327.0</ele>
        <time>2019-10-12T14:43:15.831Z</time>
      </trkpt>
      <trkpt lat="20.22085833" lon="-98.73385667">
        <ele>2328.0</ele>
        <time>2019-10-12T14:43:16.835Z</time>
      </trkpt>
      <trkpt lat="20.220855" lon="-98.73389">
        <ele>2329.0</ele>
        <time>2019-10-12T14:43:17.840Z</time>
      </trkpt>
      <trkpt lat="20.22085333" lon="-98.73393167">
        <ele>2330.0</ele>
        <time>2019-10-12T14:43:18.845Z</time>
      </trkpt>
      <trkpt lat="20.22085333" lon="-98.733965">
        <ele>2330.0</ele>
        <time>2019-10-12T14:43:19.847Z</time>
      </trkpt>
      <trkpt lat="20.22085" lon="-98.733995">
        <ele>2331.0</ele>
        <time>2019-10-12T14:43:20.852Z</time>
      </trkpt>
      <trkpt lat="20.22084667" lon="-98.73401667">
        <ele>2331.0</ele>
        <time>2019-10-12T14:43:21.853Z</time>
      </trkpt>
      <trkpt lat="20.22085333" lon="-98.73404333">
        <ele>2332.0</ele>
        <time>2019-10-12T14:43:22.855Z</time>
      </trkpt>
      <trkpt lat="20.22086167" lon="-98.73407333">
        <ele>2332.0</ele>
        <time>2019-10-12T14:43:23.857Z</time>
      </trkpt>
      <trkpt lat="20.22087667" lon="-98.73409833">
        <ele>2331.0</ele>
        <time>2019-10-12T14:43:24.860Z</time>
      </trkpt>
      <trkpt lat="20.220895" lon="-98.73412833">
        <ele>2331.0</ele>
        <time>2019-10-12T14:43:25.864Z</time>
      </trkpt>
      <trkpt lat="20.220915" lon="-98.73414833">
        <ele>2330.0</ele>
        <time>2019-10-12T14:43:26.869Z</time>
      </trkpt>
      <trkpt lat="20.22094" lon="-98.734165">
        <ele>2330.0</ele>
        <time>2019-10-12T14:43:27.873Z</time>
      </trkpt>
      <trkpt lat="20.22096667" lon="-98.73417833">
        <ele>2330.0</ele>
        <time>2019-10-12T14:43:28.876Z</time>
      </trkpt>
      <trkpt lat="20.22099" lon="-98.734175">
        <ele>2329.0</ele>
        <time>2019-10-12T14:43:29.879Z</time>
      </trkpt>
      <trkpt lat="20.22101833" lon="-98.73417167">
        <ele>2329.0</ele>
        <time>2019-10-12T14:43:30.880Z</time>
      </trkpt>
      <trkpt lat="20.22105167" lon="-98.73417167">
        <ele>2330.0</ele>
        <time>2019-10-12T14:43:31.880Z</time>
      </trkpt>
      <trkpt lat="20.22107833" lon="-98.73417">
        <ele>2330.0</ele>
        <time>2019-10-12T14:43:32.881Z</time>
      </trkpt>
      <trkpt lat="20.22110167" lon="-98.73417833">
        <ele>2330.0</ele>
        <time>2019-10-12T14:43:33.882Z</time>
      </trkpt>
      <trkpt lat="20.22112667" lon="-98.73418167">
        <ele>2330.0</ele>
        <time>2019-10-12T14:43:34.883Z</time>
      </trkpt>
      <trkpt lat="20.22114667" lon="-98.73418167">
        <ele>2329.0</ele>
        <time>2019-10-12T14:43:35.884Z</time>
      </trkpt>
      <trkpt lat="20.22117" lon="-98.73418667">
        <ele>2328.0</ele>
        <time>2019-10-12T14:43:36.885Z</time>
      </trkpt>
      <trkpt lat="20.22119" lon="-98.73419833">
        <ele>2327.0</ele>
        <time>2019-10-12T14:43:37.885Z</time>
      </trkpt>
      <trkpt lat="20.22121" lon="-98.734205">
        <ele>2326.0</ele>
        <time>2019-10-12T14:43:38.886Z</time>
      </trkpt>
      <trkpt lat="20.22123" lon="-98.734215">
        <ele>2325.0</ele>
        <time>2019-10-12T14:43:39.887Z</time>
      </trkpt>
      <trkpt lat="20.22125333" lon="-98.73422667">
        <ele>2325.0</ele>
        <time>2019-10-12T14:43:40.887Z</time>
      </trkpt>
      <trkpt lat="20.22128" lon="-98.734235">
        <ele>2326.0</ele>
        <time>2019-10-12T14:43:41.888Z</time>
      </trkpt>
      <trkpt lat="20.22130667" lon="-98.73423833">
        <ele>2326.0</ele>
        <time>2019-10-12T14:43:42.888Z</time>
      </trkpt>
      <trkpt lat="20.22133333" lon="-98.73424">
        <ele>2326.0</ele>
        <time>2019-10-12T14:43:43.889Z</time>
      </trkpt>
      <trkpt lat="20.22135333" lon="-98.73424333">
        <ele>2326.0</ele>
        <time>2019-10-12T14:43:44.890Z</time>
      </trkpt>
      <trkpt lat="20.22137333" lon="-98.73424167">
        <ele>2325.0</ele>
        <time>2019-10-12T14:43:45.891Z</time>
      </trkpt>
      <trkpt lat="20.22139" lon="-98.734245">
        <ele>2324.0</ele>
        <time>2019-10-12T14:43:46.892Z</time>
      </trkpt>
      <trkpt lat="20.22140833" lon="-98.734245">
        <ele>2322.0</ele>
        <time>2019-10-12T14:43:47.892Z</time>
      </trkpt>
      <trkpt lat="20.22142667" lon="-98.73424667">
        <ele>2320.0</ele>
        <time>2019-10-12T14:43:48.893Z</time>
      </trkpt>
      <trkpt lat="20.22144333" lon="-98.734255">
        <ele>2319.0</ele>
        <time>2019-10-12T14:43:49.894Z</time>
      </trkpt>
      <trkpt lat="20.22145667" lon="-98.734265">
        <ele>2318.0</ele>
        <time>2019-10-12T14:43:50.895Z</time>
      </trkpt>
      <trkpt lat="20.22147" lon="-98.73427333">
        <ele>2317.0</ele>
        <time>2019-10-12T14:43:51.896Z</time>
      </trkpt>
      <trkpt lat="20.22147833" lon="-98.73428833">
        <ele>2316.0</ele>
        <time>2019-10-12T14:43:52.900Z</time>
      </trkpt>
      <trkpt lat="20.221485" lon="-98.73430333">
        <ele>2315.0</ele>
        <time>2019-10-12T14:43:53.906Z</time>
      </trkpt>
      <trkpt lat="20.22149167" lon="-98.73432333">
        <ele>2315.0</ele>
        <time>2019-10-12T14:43:54.911Z</time>
      </trkpt>
      <trkpt lat="20.221495" lon="-98.73434">
        <ele>2314.0</ele>
        <time>2019-10-12T14:43:55.917Z</time>
      </trkpt>
      <trkpt lat="20.22149833" lon="-98.73436">
        <ele>2314.0</ele>
        <time>2019-10-12T14:43:56.921Z</time>
      </trkpt>
      <trkpt lat="20.221505" lon="-98.73438167">
        <ele>2314.0</ele>
        <time>2019-10-12T14:43:57.922Z</time>
      </trkpt>
      <trkpt lat="20.22151" lon="-98.73440333">
        <ele>2314.0</ele>
        <time>2019-10-12T14:43:58.923Z</time>
      </trkpt>
      <trkpt lat="20.22152167" lon="-98.73443333">
        <ele>2314.0</ele>
        <time>2019-10-12T14:43:59.926Z</time>
      </trkpt>
      <trkpt lat="20.22153833" lon="-98.73445667">
        <ele>2314.0</ele>
        <time>2019-10-12T14:44:00.929Z</time>
      </trkpt>
      <trkpt lat="20.22155333" lon="-98.73447667">
        <ele>2314.0</ele>
        <time>2019-10-12T14:44:01.934Z</time>
      </trkpt>
      <trkpt lat="20.22157" lon="-98.73449">
        <ele>2314.0</ele>
        <time>2019-10-12T14:44:02.941Z</time>
      </trkpt>
      <trkpt lat="20.22159167" lon="-98.73449333">
        <ele>2314.0</ele>
        <time>2019-10-12T14:44:03.948Z</time>
      </trkpt>
      <trkpt lat="20.22161167" lon="-98.73449167">
        <ele>2313.0</ele>
        <time>2019-10-12T14:44:04.953Z</time>
      </trkpt>
      <trkpt lat="20.22163333" lon="-98.73449">
        <ele>2312.0</ele>
        <time>2019-10-12T14:44:05.954Z</time>
      </trkpt>
      <trkpt lat="20.22165833" lon="-98.734485">
        <ele>2311.0</ele>
        <time>2019-10-12T14:44:06.831Z</time>
      </trkpt>
      <trkpt lat="20.22168333" lon="-98.73448">
        <ele>2311.0</ele>
        <time>2019-10-12T14:44:07.834Z</time>
      </trkpt>
      <trkpt lat="20.22171333" lon="-98.73447333">
        <ele>2311.0</ele>
        <time>2019-10-12T14:44:08.841Z</time>
      </trkpt>
      <trkpt lat="20.22173833" lon="-98.73447167">
        <ele>2311.0</ele>
        <time>2019-10-12T14:44:09.846Z</time>
      </trkpt>
      <trkpt lat="20.22176167" lon="-98.73447">
        <ele>2310.0</ele>
        <time>2019-10-12T14:44:10.848Z</time>
      </trkpt>
      <trkpt lat="20.22178167" lon="-98.73446833">
        <ele>2309.0</ele>
        <time>2019-10-12T14:44:11.849Z</time>
      </trkpt>
      <trkpt lat="20.22180167" lon="-98.73447667">
        <ele>2308.0</ele>
        <time>2019-10-12T14:44:12.850Z</time>
      </trkpt>
      <trkpt lat="20.22182333" lon="-98.73448">
        <ele>2307.0</ele>
        <time>2019-10-12T14:44:13.854Z</time>
      </trkpt>
      <trkpt lat="20.22184333" lon="-98.734475">
        <ele>2305.0</ele>
        <time>2019-10-12T14:44:14.859Z</time>
      </trkpt>
      <trkpt lat="20.22186833" lon="-98.73447">
        <ele>2303.0</ele>
        <time>2019-10-12T14:44:15.865Z</time>
      </trkpt>
      <trkpt lat="20.22189833" lon="-98.73447167">
        <ele>2303.0</ele>
        <time>2019-10-12T14:44:16.870Z</time>
      </trkpt>
      <trkpt lat="20.22192" lon="-98.73447333">
        <ele>2303.0</ele>
        <time>2019-10-12T14:44:17.875Z</time>
      </trkpt>
      <trkpt lat="20.22194167" lon="-98.73447167">
        <ele>2303.0</ele>
        <time>2019-10-12T14:44:18.879Z</time>
      </trkpt>
      <trkpt lat="20.22196333" lon="-98.734465">
        <ele>2302.0</ele>
        <time>2019-10-12T14:44:19.883Z</time>
      </trkpt>
      <trkpt lat="20.221985" lon="-98.73445833">
        <ele>2301.0</ele>
        <time>2019-10-12T14:44:20.886Z</time>
      </trkpt>
      <trkpt lat="20.22200167" lon="-98.73445167">
        <ele>2301.0</ele>
        <time>2019-10-12T14:44:21.893Z</time>
      </trkpt>
      <trkpt lat="20.22203" lon="-98.73444">
        <ele>2300.0</ele>
        <time>2019-10-12T14:44:22.897Z</time>
      </trkpt>
      <trkpt lat="20.22205167" lon="-98.73443">
        <ele>2300.0</ele>
        <time>2019-10-12T14:44:23.903Z</time>
      </trkpt>
      <trkpt lat="20.22207333" lon="-98.73441833">
        <ele>2299.0</ele>
        <time>2019-10-12T14:44:24.906Z</time>
      </trkpt>
      <trkpt lat="20.222095" lon="-98.73440833">
        <ele>2299.0</ele>
        <time>2019-10-12T14:44:25.908Z</time>
      </trkpt>
      <trkpt lat="20.22211667" lon="-98.73440167">
        <ele>2300.0</ele>
        <time>2019-10-12T14:44:26.913Z</time>
      </trkpt>
      <trkpt lat="20.22214" lon="-98.73439667">
        <ele>2301.0</ele>
        <time>2019-10-12T14:44:27.920Z</time>
      </trkpt>
      <trkpt lat="20.22216167" lon="-98.73439833">
        <ele>2303.0</ele>
        <time>2019-10-12T14:44:28.925Z</time>
      </trkpt>
      <trkpt lat="20.22218333" lon="-98.7344">
        <ele>2304.0</ele>
        <time>2019-10-12T14:44:29.926Z</time>
      </trkpt>
      <trkpt lat="20.22220667" lon="-98.73439833">
        <ele>2304.0</ele>
        <time>2019-10-12T14:44:30.927Z</time>
      </trkpt>
      <trkpt lat="20.22223333" lon="-98.73439833">
        <ele>2304.0</ele>
        <time>2019-10-12T14:44:31.929Z</time>
      </trkpt>
      <trkpt lat="20.22225333" lon="-98.734395">
        <ele>2305.0</ele>
        <time>2019-10-12T14:44:32.933Z</time>
      </trkpt>
      <trkpt lat="20.22227333" lon="-98.73439167">
        <ele>2305.0</ele>
        <time>2019-10-12T14:44:33.936Z</time>
      </trkpt>
      <trkpt lat="20.222295" lon="-98.73439333">
        <ele>2305.0</ele>
        <time>2019-10-12T14:44:34.941Z</time>
      </trkpt>
      <trkpt lat="20.22232" lon="-98.73440167">
        <ele>2305.0</ele>
        <time>2019-10-12T14:44:35.947Z</time>
      </trkpt>
      <trkpt lat="20.22234667" lon="-98.73440167">
        <ele>2304.0</ele>
        <time>2019-10-12T14:44:36.952Z</time>
      </trkpt>
      <trkpt lat="20.22237333" lon="-98.73439667">
        <ele>2304.0</ele>
        <time>2019-10-12T14:44:37.830Z</time>
      </trkpt>
      <trkpt lat="20.2224" lon="-98.734395">
        <ele>2303.0</ele>
        <time>2019-10-12T14:44:38.836Z</time>
      </trkpt>
      <trkpt lat="20.22242333" lon="-98.734395">
        <ele>2303.0</ele>
        <time>2019-10-12T14:44:39.843Z</time>
      </trkpt>
      <trkpt lat="20.22244167" lon="-98.73439333">
        <ele>2302.0</ele>
        <time>2019-10-12T14:44:40.845Z</time>
      </trkpt>
      <trkpt lat="20.22246667" lon="-98.73439">
        <ele>2303.0</ele>
        <time>2019-10-12T14:44:41.849Z</time>
      </trkpt>
      <trkpt lat="20.22248833" lon="-98.73438167">
        <ele>2303.0</ele>
        <time>2019-10-12T14:44:42.855Z</time>
      </trkpt>
      <trkpt lat="20.222515" lon="-98.73437833">
        <ele>2304.0</ele>
        <time>2019-10-12T14:44:43.860Z</time>
      </trkpt>
      <trkpt lat="20.22254167" lon="-98.73437333">
        <ele>2303.0</ele>
        <time>2019-10-12T14:44:44.866Z</time>
      </trkpt>
      <trkpt lat="20.22256833" lon="-98.73437333">
        <ele>2302.0</ele>
        <time>2019-10-12T14:44:45.870Z</time>
      </trkpt>
      <trkpt lat="20.222595" lon="-98.73437333">
        <ele>2301.0</ele>
        <time>2019-10-12T14:44:46.876Z</time>
      </trkpt>
      <trkpt lat="20.22262167" lon="-98.73437333">
        <ele>2301.0</ele>
        <time>2019-10-12T14:44:47.878Z</time>
      </trkpt>
      <trkpt lat="20.22265333" lon="-98.73437667">
        <ele>2301.0</ele>
        <time>2019-10-12T14:44:48.878Z</time>
      </trkpt>
      <trkpt lat="20.22268333" lon="-98.73439">
        <ele>2302.0</ele>
        <time>2019-10-12T14:44:49.879Z</time>
      </trkpt>
      <trkpt lat="20.22271" lon="-98.73439667">
        <ele>2302.0</ele>
        <time>2019-10-12T14:44:50.880Z</time>
      </trkpt>
      <trkpt lat="20.222735" lon="-98.73440167">
        <ele>2301.0</ele>
        <time>2019-10-12T14:44:51.881Z</time>
      </trkpt>
      <trkpt lat="20.22275" lon="-98.73441667">
        <ele>2300.0</ele>
        <time>2019-10-12T14:44:52.882Z</time>
      </trkpt>
      <trkpt lat="20.22278" lon="-98.73443333">
        <ele>2301.0</ele>
        <time>2019-10-12T14:44:53.883Z</time>
      </trkpt>
      <trkpt lat="20.22280833" lon="-98.73443667">
        <ele>2299.0</ele>
        <time>2019-10-12T14:44:54.888Z</time>
      </trkpt>
      <trkpt lat="20.22283833" lon="-98.73443667">
        <ele>2298.0</ele>
        <time>2019-10-12T14:44:55.894Z</time>
      </trkpt>
      <trkpt lat="20.222865" lon="-98.73443333">
        <ele>2296.0</ele>
        <time>2019-10-12T14:44:56.896Z</time>
      </trkpt>
      <trkpt lat="20.22288667" lon="-98.73443167">
        <ele>2296.0</ele>
        <time>2019-10-12T14:44:57.900Z</time>
      </trkpt>
      <trkpt lat="20.22291333" lon="-98.734445">
        <ele>2296.0</ele>
        <time>2019-10-12T14:44:58.905Z</time>
      </trkpt>
      <trkpt lat="20.222935" lon="-98.734455">
        <ele>2297.0</ele>
        <time>2019-10-12T14:44:59.910Z</time>
      </trkpt>
      <trkpt lat="20.22295167" lon="-98.73447333">
        <ele>2297.0</ele>
        <time>2019-10-12T14:45:00.918Z</time>
      </trkpt>
      <trkpt lat="20.22296833" lon="-98.73449">
        <ele>2298.0</ele>
        <time>2019-10-12T14:45:01.926Z</time>
      </trkpt>
      <trkpt lat="20.222975" lon="-98.73450833">
        <ele>2298.0</ele>
        <time>2019-10-12T14:45:02.930Z</time>
      </trkpt>
      <trkpt lat="20.22298667" lon="-98.73452167">
        <ele>2298.0</ele>
        <time>2019-10-12T14:45:03.935Z</time>
      </trkpt>
      <trkpt lat="20.22299667" lon="-98.73453667">
        <ele>2298.0</ele>
        <time>2019-10-12T14:45:04.942Z</time>
      </trkpt>
      <trkpt lat="20.22300833" lon="-98.73454833">
        <ele>2297.0</ele>
        <time>2019-10-12T14:45:05.950Z</time>
      </trkpt>
      <trkpt lat="20.22302167" lon="-98.73456167">
        <ele>2297.0</ele>
        <time>2019-10-12T14:45:06.830Z</time>
      </trkpt>
      <trkpt lat="20.22303" lon="-98.73457333">
        <ele>2296.0</ele>
        <time>2019-10-12T14:45:07.830Z</time>
      </trkpt>
      <trkpt lat="20.22303667" lon="-98.73458667">
        <ele>2296.0</ele>
        <time>2019-10-12T14:45:08.830Z</time>
      </trkpt>
      <trkpt lat="20.22303833" lon="-98.73459667">
        <ele>2295.0</ele>
        <time>2019-10-12T14:45:09.833Z</time>
      </trkpt>
      <trkpt lat="20.22304167" lon="-98.73460667">
        <ele>2295.0</ele>
        <time>2019-10-12T14:45:10.839Z</time>
      </trkpt>
      <trkpt lat="20.223045" lon="-98.734615">
        <ele>2295.0</ele>
        <time>2019-10-12T14:45:11.843Z</time>
      </trkpt>
      <trkpt lat="20.22304833" lon="-98.73462333">
        <ele>2294.0</ele>
        <time>2019-10-12T14:45:12.846Z</time>
      </trkpt>
      <trkpt lat="20.223055" lon="-98.734635">
        <ele>2292.0</ele>
        <time>2019-10-12T14:45:13.851Z</time>
      </trkpt>
      <trkpt lat="20.22306333" lon="-98.73464333">
        <ele>2291.0</ele>
        <time>2019-10-12T14:45:14.854Z</time>
      </trkpt>
      <trkpt lat="20.223075" lon="-98.73465333">
        <ele>2290.0</ele>
        <time>2019-10-12T14:45:15.859Z</time>
      </trkpt>
      <trkpt lat="20.22309" lon="-98.734665">
        <ele>2290.0</ele>
        <time>2019-10-12T14:45:16.866Z</time>
      </trkpt>
      <trkpt lat="20.22310667" lon="-98.73467667">
        <ele>2289.0</ele>
        <time>2019-10-12T14:45:17.874Z</time>
      </trkpt>
      <trkpt lat="20.22312333" lon="-98.73468833">
        <ele>2287.0</ele>
        <time>2019-10-12T14:45:18.878Z</time>
      </trkpt>
      <trkpt lat="20.22313667" lon="-98.73470333">
        <ele>2286.0</ele>
        <time>2019-10-12T14:45:19.882Z</time>
      </trkpt>
      <trkpt lat="20.223145" lon="-98.73471667">
        <ele>2286.0</ele>
        <time>2019-10-12T14:45:20.887Z</time>
      </trkpt>
      <trkpt lat="20.22315" lon="-98.734735">
        <ele>2285.0</ele>
        <time>2019-10-12T14:45:21.893Z</time>
      </trkpt>
      <trkpt lat="20.22315667" lon="-98.73475333">
        <ele>2284.0</ele>
        <time>2019-10-12T14:45:22.896Z</time>
      </trkpt>
      <trkpt lat="20.22316667" lon="-98.73477833">
        <ele>2285.0</ele>
        <time>2019-10-12T14:45:23.898Z</time>
      </trkpt>
      <trkpt lat="20.22318167" lon="-98.7348">
        <ele>2286.0</ele>
        <time>2019-10-12T14:45:24.902Z</time>
      </trkpt>
      <trkpt lat="20.22319667" lon="-98.73481333">
        <ele>2285.0</ele>
        <time>2019-10-12T14:45:25.909Z</time>
      </trkpt>
      <trkpt lat="20.22321333" lon="-98.734825">
        <ele>2285.0</ele>
        <time>2019-10-12T14:45:26.917Z</time>
      </trkpt>
      <trkpt lat="20.22323167" lon="-98.734835">
        <ele>2284.0</ele>
        <time>2019-10-12T14:45:27.921Z</time>
      </trkpt>
      <trkpt lat="20.22324" lon="-98.73484667">
        <ele>2283.0</ele>
        <time>2019-10-12T14:45:28.922Z</time>
      </trkpt>
      <trkpt lat="20.223245" lon="-98.73486">
        <ele>2282.0</ele>
        <time>2019-10-12T14:45:29.923Z</time>
      </trkpt>
      <trkpt lat="20.22325833" lon="-98.73487333">
        <ele>2282.0</ele>
        <time>2019-10-12T14:45:30.924Z</time>
      </trkpt>
      <trkpt lat="20.22328333" lon="-98.73488167">
        <ele>2282.0</ele>
        <time>2019-10-12T14:45:31.927Z</time>
      </trkpt>
      <trkpt lat="20.22330833" lon="-98.73488">
        <ele>2283.0</ele>
        <time>2019-10-12T14:45:32.933Z</time>
      </trkpt>
      <trkpt lat="20.22333" lon="-98.734875">
        <ele>2283.0</ele>
        <time>2019-10-12T14:45:33.940Z</time>
      </trkpt>
      <trkpt lat="20.22335167" lon="-98.73487167">
        <ele>2284.0</ele>
        <time>2019-10-12T14:45:34.946Z</time>
      </trkpt>
      <trkpt lat="20.22336667" lon="-98.73486833">
        <ele>2283.0</ele>
        <time>2019-10-12T14:45:35.951Z</time>
      </trkpt>
      <trkpt lat="20.22337167" lon="-98.734865">
        <ele>2283.0</ele>
        <time>2019-10-12T14:45:36.831Z</time>
      </trkpt>
      <trkpt lat="20.22337667" lon="-98.73486667">
        <ele>2283.0</ele>
        <time>2019-10-12T14:45:37.839Z</time>
      </trkpt>
      <trkpt lat="20.22338" lon="-98.73488167">
        <ele>2282.0</ele>
        <time>2019-10-12T14:45:38.840Z</time>
      </trkpt>
      <trkpt lat="20.22338333" lon="-98.73489833">
        <ele>2282.0</ele>
        <time>2019-10-12T14:45:39.841Z</time>
      </trkpt>
      <trkpt lat="20.22338167" lon="-98.73492333">
        <ele>2282.0</ele>
        <time>2019-10-12T14:45:40.843Z</time>
      </trkpt>
      <trkpt lat="20.22337" lon="-98.73495167">
        <ele>2281.0</ele>
        <time>2019-10-12T14:45:41.847Z</time>
      </trkpt>
      <trkpt lat="20.22337" lon="-98.73498167">
        <ele>2281.0</ele>
        <time>2019-10-12T14:45:42.853Z</time>
      </trkpt>
      <trkpt lat="20.223365" lon="-98.73500333">
        <ele>2281.0</ele>
        <time>2019-10-12T14:45:43.858Z</time>
      </trkpt>
      <trkpt lat="20.22336167" lon="-98.73501">
        <ele>2280.0</ele>
        <time>2019-10-12T14:45:44.863Z</time>
      </trkpt>
      <trkpt lat="20.223355" lon="-98.73501667">
        <ele>2279.0</ele>
        <time>2019-10-12T14:45:45.869Z</time>
      </trkpt>
      <trkpt lat="20.22334333" lon="-98.73502">
        <ele>2278.0</ele>
        <time>2019-10-12T14:45:46.874Z</time>
      </trkpt>
      <trkpt lat="20.223325" lon="-98.735025">
        <ele>2277.0</ele>
        <time>2019-10-12T14:45:47.880Z</time>
      </trkpt>
      <trkpt lat="20.22330667" lon="-98.73502667">
        <ele>2276.0</ele>
        <time>2019-10-12T14:45:48.885Z</time>
      </trkpt>
      <trkpt lat="20.22329833" lon="-98.73503333">
        <ele>2275.0</ele>
        <time>2019-10-12T14:45:49.888Z</time>
      </trkpt>
      <trkpt lat="20.22329167" lon="-98.73504333">
        <ele>2274.0</ele>
        <time>2019-10-12T14:45:50.892Z</time>
      </trkpt>
      <trkpt lat="20.223285" lon="-98.73505333">
        <ele>2274.0</ele>
        <time>2019-10-12T14:45:51.898Z</time>
      </trkpt>
      <trkpt lat="20.22328" lon="-98.73506167">
        <ele>2274.0</ele>
        <time>2019-10-12T14:45:52.907Z</time>
      </trkpt>
      <trkpt lat="20.22328" lon="-98.73507667">
        <ele>2274.0</ele>
        <time>2019-10-12T14:45:53.914Z</time>
      </trkpt>
      <trkpt lat="20.223285" lon="-98.73509">
        <ele>2273.0</ele>
        <time>2019-10-12T14:45:54.917Z</time>
      </trkpt>
      <trkpt lat="20.22329" lon="-98.73509667">
        <ele>2273.0</ele>
        <time>2019-10-12T14:45:55.918Z</time>
      </trkpt>
      <trkpt lat="20.22329167" lon="-98.735105">
        <ele>2272.0</ele>
        <time>2019-10-12T14:45:56.919Z</time>
      </trkpt>
      <trkpt lat="20.22329" lon="-98.73511333">
        <ele>2272.0</ele>
        <time>2019-10-12T14:45:57.919Z</time>
      </trkpt>
      <trkpt lat="20.22328333" lon="-98.73512833">
        <ele>2272.0</ele>
        <time>2019-10-12T14:45:58.920Z</time>
      </trkpt>
      <trkpt lat="20.22327667" lon="-98.73514167">
        <ele>2272.0</ele>
        <time>2019-10-12T14:45:59.921Z</time>
      </trkpt>
      <trkpt lat="20.22328167" lon="-98.73515833">
        <ele>2273.0</ele>
        <time>2019-10-12T14:46:00.922Z</time>
      </trkpt>
      <trkpt lat="20.22329333" lon="-98.735175">
        <ele>2274.0</ele>
        <time>2019-10-12T14:46:01.923Z</time>
      </trkpt>
      <trkpt lat="20.22330667" lon="-98.73518667">
        <ele>2274.0</ele>
        <time>2019-10-12T14:46:02.924Z</time>
      </trkpt>
      <trkpt lat="20.22332333" lon="-98.7352">
        <ele>2274.0</ele>
        <time>2019-10-12T14:46:03.924Z</time>
      </trkpt>
      <trkpt lat="20.22333833" lon="-98.73520167">
        <ele>2274.0</ele>
        <time>2019-10-12T14:46:04.925Z</time>
      </trkpt>
      <trkpt lat="20.22335667" lon="-98.73520333">
        <ele>2274.0</ele>
        <time>2019-10-12T14:46:05.926Z</time>
      </trkpt>
      <trkpt lat="20.22337167" lon="-98.73520167">
        <ele>2273.0</ele>
        <time>2019-10-12T14:46:06.927Z</time>
      </trkpt>
      <trkpt lat="20.22338833" lon="-98.7352">
        <ele>2272.0</ele>
        <time>2019-10-12T14:46:07.928Z</time>
      </trkpt>
      <trkpt lat="20.223405" lon="-98.735195">
        <ele>2271.0</ele>
        <time>2019-10-12T14:46:08.928Z</time>
      </trkpt>
      <trkpt lat="20.22342167" lon="-98.735185">
        <ele>2269.0</ele>
        <time>2019-10-12T14:46:09.929Z</time>
      </trkpt>
      <trkpt lat="20.22343833" lon="-98.73517667">
        <ele>2268.0</ele>
        <time>2019-10-12T14:46:10.929Z</time>
      </trkpt>
      <trkpt lat="20.223455" lon="-98.73516833">
        <ele>2266.0</ele>
        <time>2019-10-12T14:46:11.930Z</time>
      </trkpt>
      <trkpt lat="20.22347333" lon="-98.73515833">
        <ele>2265.0</ele>
        <time>2019-10-12T14:46:12.931Z</time>
      </trkpt>
      <trkpt lat="20.22348833" lon="-98.73515167">
        <ele>2263.0</ele>
        <time>2019-10-12T14:46:13.931Z</time>
      </trkpt>
      <trkpt lat="20.22350833" lon="-98.735145">
        <ele>2262.0</ele>
        <time>2019-10-12T14:46:14.932Z</time>
      </trkpt>
      <trkpt lat="20.22352833" lon="-98.73514167">
        <ele>2261.0</ele>
        <time>2019-10-12T14:46:15.933Z</time>
      </trkpt>
      <trkpt lat="20.223545" lon="-98.73514">
        <ele>2260.0</ele>
        <time>2019-10-12T14:46:16.934Z</time>
      </trkpt>
      <trkpt lat="20.22355833" lon="-98.73514167">
        <ele>2260.0</ele>
        <time>2019-10-12T14:46:17.939Z</time>
      </trkpt>
      <trkpt lat="20.22357667" lon="-98.73514167">
        <ele>2258.0</ele>
        <time>2019-10-12T14:46:18.944Z</time>
      </trkpt>
      <trkpt lat="20.223595" lon="-98.73514333">
        <ele>2257.0</ele>
        <time>2019-10-12T14:46:19.951Z</time>
      </trkpt>
      <trkpt lat="20.22361333" lon="-98.73515167">
        <ele>2256.0</ele>
        <time>2019-10-12T14:46:20.953Z</time>
      </trkpt>
      <trkpt lat="20.223635" lon="-98.73516">
        <ele>2255.0</ele>
        <time>2019-10-12T14:46:21.831Z</time>
      </trkpt>
      <trkpt lat="20.22365833" lon="-98.73516167">
        <ele>2254.0</ele>
        <time>2019-10-12T14:46:22.836Z</time>
      </trkpt>
      <trkpt lat="20.22367667" lon="-98.73514667">
        <ele>2253.0</ele>
        <time>2019-10-12T14:46:23.838Z</time>
      </trkpt>
      <trkpt lat="20.22368833" lon="-98.73513167">
        <ele>2252.0</ele>
        <time>2019-10-12T14:46:24.844Z</time>
      </trkpt>
      <trkpt lat="20.22370833" lon="-98.73512333">
        <ele>2251.0</ele>
        <time>2019-10-12T14:46:25.847Z</time>
      </trkpt>
      <trkpt lat="20.22372833" lon="-98.73510833">
        <ele>2251.0</ele>
        <time>2019-10-12T14:46:26.853Z</time>
      </trkpt>
      <trkpt lat="20.22375167" lon="-98.735095">
        <ele>2252.0</ele>
        <time>2019-10-12T14:46:27.860Z</time>
      </trkpt>
      <trkpt lat="20.22376667" lon="-98.73509167">
        <ele>2252.0</ele>
        <time>2019-10-12T14:46:28.864Z</time>
      </trkpt>
      <trkpt lat="20.22378" lon="-98.735105">
        <ele>2252.0</ele>
        <time>2019-10-12T14:46:29.869Z</time>
      </trkpt>
      <trkpt lat="20.22379167" lon="-98.73512167">
        <ele>2253.0</ele>
        <time>2019-10-12T14:46:30.873Z</time>
      </trkpt>
      <trkpt lat="20.22379667" lon="-98.735135">
        <ele>2254.0</ele>
        <time>2019-10-12T14:46:31.880Z</time>
      </trkpt>
      <trkpt lat="20.22381" lon="-98.73514167">
        <ele>2256.0</ele>
        <time>2019-10-12T14:46:32.885Z</time>
      </trkpt>
      <trkpt lat="20.22382833" lon="-98.73514667">
        <ele>2256.0</ele>
        <time>2019-10-12T14:46:33.888Z</time>
      </trkpt>
      <trkpt lat="20.22384333" lon="-98.73515">
        <ele>2255.0</ele>
        <time>2019-10-12T14:46:34.894Z</time>
      </trkpt>
      <trkpt lat="20.22384667" lon="-98.73516">
        <ele>2254.0</ele>
        <time>2019-10-12T14:46:35.898Z</time>
      </trkpt>
      <trkpt lat="20.22384833" lon="-98.73516333">
        <ele>2253.0</ele>
        <time>2019-10-12T14:46:36.901Z</time>
      </trkpt>
      <trkpt lat="20.22386167" lon="-98.735165">
        <ele>2253.0</ele>
        <time>2019-10-12T14:46:37.907Z</time>
      </trkpt>
      <trkpt lat="20.223885" lon="-98.73515667">
        <ele>2252.0</ele>
        <time>2019-10-12T14:46:38.912Z</time>
      </trkpt>
      <trkpt lat="20.22390167" lon="-98.73515">
        <ele>2251.0</ele>
        <time>2019-10-12T14:46:39.917Z</time>
      </trkpt>
      <trkpt lat="20.22391333" lon="-98.735145">
        <ele>2252.0</ele>
        <time>2019-10-12T14:46:40.924Z</time>
      </trkpt>
      <trkpt lat="20.22391833" lon="-98.735145">
        <ele>2252.0</ele>
        <time>2019-10-12T14:46:41.930Z</time>
      </trkpt>
      <trkpt lat="20.22392" lon="-98.73514833">
        <ele>2252.0</ele>
        <time>2019-10-12T14:46:42.935Z</time>
      </trkpt>
      <trkpt lat="20.22392" lon="-98.73515167">
        <ele>2252.0</ele>
        <time>2019-10-12T14:46:43.939Z</time>
      </trkpt>
      <trkpt lat="20.22392" lon="-98.73515667">
        <ele>2252.0</ele>
        <time>2019-10-12T14:46:44.944Z</time>
      </trkpt>
      <trkpt lat="20.223925" lon="-98.73516667">
        <ele>2252.0</ele>
        <time>2019-10-12T14:46:45.949Z</time>
      </trkpt>
      <trkpt lat="20.22393667" lon="-98.73517333">
        <ele>2252.0</ele>
        <time>2019-10-12T14:46:46.830Z</time>
      </trkpt>
      <trkpt lat="20.22394667" lon="-98.735175">
        <ele>2252.0</ele>
        <time>2019-10-12T14:46:47.834Z</time>
      </trkpt>
      <trkpt lat="20.223965" lon="-98.735175">
        <ele>2252.0</ele>
        <time>2019-10-12T14:46:48.835Z</time>
      </trkpt>
      <trkpt lat="20.223975" lon="-98.73517333">
        <ele>2251.0</ele>
        <time>2019-10-12T14:46:49.836Z</time>
      </trkpt>
      <trkpt lat="20.22398833" lon="-98.73517333">
        <ele>2250.0</ele>
        <time>2019-10-12T14:46:50.840Z</time>
      </trkpt>
      <trkpt lat="20.22400167" lon="-98.73517333">
        <ele>2250.0</ele>
        <time>2019-10-12T14:46:51.846Z</time>
      </trkpt>
      <trkpt lat="20.224015" lon="-98.73517167">
        <ele>2250.0</ele>
        <time>2019-10-12T14:46:52.851Z</time>
      </trkpt>
      <trkpt lat="20.22403167" lon="-98.73516667">
        <ele>2250.0</ele>
        <time>2019-10-12T14:46:53.854Z</time>
      </trkpt>
      <trkpt lat="20.22404333" lon="-98.73515833">
        <ele>2249.0</ele>
        <time>2019-10-12T14:46:54.861Z</time>
      </trkpt>
      <trkpt lat="20.22405333" lon="-98.73514333">
        <ele>2247.0</ele>
        <time>2019-10-12T14:46:55.865Z</time>
      </trkpt>
      <trkpt lat="20.22406333" lon="-98.73513">
        <ele>2246.0</ele>
        <time>2019-10-12T14:46:56.872Z</time>
      </trkpt>
      <trkpt lat="20.22407167" lon="-98.73512833">
        <ele>2245.0</ele>
        <time>2019-10-12T14:46:57.877Z</time>
      </trkpt>
      <trkpt lat="20.22408167" lon="-98.73513333">
        <ele>2245.0</ele>
        <time>2019-10-12T14:46:58.881Z</time>
      </trkpt>
      <trkpt lat="20.224095" lon="-98.73513833">
        <ele>2245.0</ele>
        <time>2019-10-12T14:46:59.887Z</time>
      </trkpt>
      <trkpt lat="20.224105" lon="-98.73514167">
        <ele>2245.0</ele>
        <time>2019-10-12T14:47:00.891Z</time>
      </trkpt>
      <trkpt lat="20.22411333" lon="-98.73514333">
        <ele>2245.0</ele>
        <time>2019-10-12T14:47:01.898Z</time>
      </trkpt>
      <trkpt lat="20.22412333" lon="-98.73514667">
        <ele>2245.0</ele>
        <time>2019-10-12T14:47:02.905Z</time>
      </trkpt>
      <trkpt lat="20.224135" lon="-98.73514667">
        <ele>2245.0</ele>
        <time>2019-10-12T14:47:03.909Z</time>
      </trkpt>
      <trkpt lat="20.22414667" lon="-98.73514333">
        <ele>2244.0</ele>
        <time>2019-10-12T14:47:04.910Z</time>
      </trkpt>
      <trkpt lat="20.22415333" lon="-98.73514333">
        <ele>2243.0</ele>
        <time>2019-10-12T14:47:05.913Z</time>
      </trkpt>
      <trkpt lat="20.224165" lon="-98.73514167">
        <ele>2242.0</ele>
        <time>2019-10-12T14:47:06.921Z</time>
      </trkpt>
      <trkpt lat="20.224175" lon="-98.73514833">
        <ele>2242.0</ele>
        <time>2019-10-12T14:47:07.925Z</time>
      </trkpt>
      <trkpt lat="20.22418667" lon="-98.73516167">
        <ele>2241.0</ele>
        <time>2019-10-12T14:47:08.929Z</time>
      </trkpt>
      <trkpt lat="20.22420167" lon="-98.735175">
        <ele>2242.0</ele>
        <time>2019-10-12T14:47:09.935Z</time>
      </trkpt>
      <trkpt lat="20.22421833" lon="-98.735185">
        <ele>2243.0</ele>
        <time>2019-10-12T14:47:10.939Z</time>
      </trkpt>
      <trkpt lat="20.224235" lon="-98.73519333">
        <ele>2244.0</ele>
        <time>2019-10-12T14:47:11.945Z</time>
      </trkpt>
      <trkpt lat="20.22425833" lon="-98.73519833">
        <ele>2244.0</ele>
        <time>2019-10-12T14:47:12.952Z</time>
      </trkpt>
      <trkpt lat="20.22428333" lon="-98.73519833">
        <ele>2244.0</ele>
        <time>2019-10-12T14:47:13.833Z</time>
      </trkpt>
      <trkpt lat="20.22430833" lon="-98.73519667">
        <ele>2244.0</ele>
        <time>2019-10-12T14:47:14.838Z</time>
      </trkpt>
      <trkpt lat="20.22432833" lon="-98.73519">
        <ele>2244.0</ele>
        <time>2019-10-12T14:47:15.843Z</time>
      </trkpt>
      <trkpt lat="20.22434333" lon="-98.73518333">
        <ele>2244.0</ele>
        <time>2019-10-12T14:47:16.848Z</time>
      </trkpt>
      <trkpt lat="20.22436" lon="-98.73518167">
        <ele>2244.0</ele>
        <time>2019-10-12T14:47:17.854Z</time>
      </trkpt>
      <trkpt lat="20.22437833" lon="-98.735185">
        <ele>2244.0</ele>
        <time>2019-10-12T14:47:18.858Z</time>
      </trkpt>
      <trkpt lat="20.22439" lon="-98.73518333">
        <ele>2243.0</ele>
        <time>2019-10-12T14:47:19.859Z</time>
      </trkpt>
      <trkpt lat="20.2244" lon="-98.735185">
        <ele>2242.0</ele>
        <time>2019-10-12T14:47:20.859Z</time>
      </trkpt>
      <trkpt lat="20.224405" lon="-98.73519333">
        <ele>2242.0</ele>
        <time>2019-10-12T14:47:21.863Z</time>
      </trkpt>
      <trkpt lat="20.22440333" lon="-98.7352">
        <ele>2241.0</ele>
        <time>2019-10-12T14:47:22.870Z</time>
      </trkpt>
      <trkpt lat="20.22440167" lon="-98.73521">
        <ele>2241.0</ele>
        <time>2019-10-12T14:47:23.878Z</time>
      </trkpt>
      <trkpt lat="20.2244" lon="-98.73521833">
        <ele>2240.0</ele>
        <time>2019-10-12T14:47:24.881Z</time>
      </trkpt>
      <trkpt lat="20.2244" lon="-98.73522667">
        <ele>2240.0</ele>
        <time>2019-10-12T14:47:25.883Z</time>
      </trkpt>
      <trkpt lat="20.22439667" lon="-98.73523333">
        <ele>2238.0</ele>
        <time>2019-10-12T14:47:26.889Z</time>
      </trkpt>
      <trkpt lat="20.224395" lon="-98.73524">
        <ele>2237.0</ele>
        <time>2019-10-12T14:47:27.894Z</time>
      </trkpt>
      <trkpt lat="20.224395" lon="-98.73525167">
        <ele>2237.0</ele>
        <time>2019-10-12T14:47:28.901Z</time>
      </trkpt>
      <trkpt lat="20.22440167" lon="-98.73526167">
        <ele>2237.0</ele>
        <time>2019-10-12T14:47:29.908Z</time>
      </trkpt>
      <trkpt lat="20.22441" lon="-98.73527">
        <ele>2237.0</ele>
        <time>2019-10-12T14:47:30.914Z</time>
      </trkpt>
      <trkpt lat="20.22442167" lon="-98.73528">
        <ele>2237.0</ele>
        <time>2019-10-12T14:47:31.918Z</time>
      </trkpt>
      <trkpt lat="20.22443167" lon="-98.73528333">
        <ele>2236.0</ele>
        <time>2019-10-12T14:47:32.923Z</time>
      </trkpt>
      <trkpt lat="20.22444167" lon="-98.73528833">
        <ele>2235.0</ele>
        <time>2019-10-12T14:47:33.930Z</time>
      </trkpt>
      <trkpt lat="20.224455" lon="-98.73529167">
        <ele>2235.0</ele>
        <time>2019-10-12T14:47:34.933Z</time>
      </trkpt>
      <trkpt lat="20.22447" lon="-98.73529333">
        <ele>2235.0</ele>
        <time>2019-10-12T14:47:35.934Z</time>
      </trkpt>
      <trkpt lat="20.22448667" lon="-98.73529">
        <ele>2235.0</ele>
        <time>2019-10-12T14:47:36.935Z</time>
      </trkpt>
      <trkpt lat="20.22450167" lon="-98.735285">
        <ele>2235.0</ele>
        <time>2019-10-12T14:47:37.937Z</time>
      </trkpt>
      <trkpt lat="20.22451167" lon="-98.73528333">
        <ele>2235.0</ele>
        <time>2019-10-12T14:47:38.944Z</time>
      </trkpt>
      <trkpt lat="20.22452167" lon="-98.73528333">
        <ele>2235.0</ele>
        <time>2019-10-12T14:47:39.948Z</time>
      </trkpt>
      <trkpt lat="20.22453167" lon="-98.73527667">
        <ele>2234.0</ele>
        <time>2019-10-12T14:47:40.953Z</time>
      </trkpt>
      <trkpt lat="20.22454333" lon="-98.73527167">
        <ele>2232.0</ele>
        <time>2019-10-12T14:47:41.834Z</time>
      </trkpt>
      <trkpt lat="20.22455333" lon="-98.73527333">
        <ele>2232.0</ele>
        <time>2019-10-12T14:47:42.840Z</time>
      </trkpt>
      <trkpt lat="20.22456167" lon="-98.73527667">
        <ele>2232.0</ele>
        <time>2019-10-12T14:47:43.845Z</time>
      </trkpt>
      <trkpt lat="20.22457" lon="-98.73527833">
        <ele>2232.0</ele>
        <time>2019-10-12T14:47:44.852Z</time>
      </trkpt>
      <trkpt lat="20.22457833" lon="-98.73528167">
        <ele>2232.0</ele>
        <time>2019-10-12T14:47:45.859Z</time>
      </trkpt>
      <trkpt lat="20.22459" lon="-98.73528667">
        <ele>2233.0</ele>
        <time>2019-10-12T14:47:46.864Z</time>
      </trkpt>
      <trkpt lat="20.22459667" lon="-98.73528833">
        <ele>2232.0</ele>
        <time>2019-10-12T14:47:47.867Z</time>
      </trkpt>
      <trkpt lat="20.22461" lon="-98.73528833">
        <ele>2233.0</ele>
        <time>2019-10-12T14:47:48.872Z</time>
      </trkpt>
      <trkpt lat="20.22462333" lon="-98.73528667">
        <ele>2233.0</ele>
        <time>2019-10-12T14:47:49.877Z</time>
      </trkpt>
      <trkpt lat="20.22463667" lon="-98.73528333">
        <ele>2234.0</ele>
        <time>2019-10-12T14:47:50.883Z</time>
      </trkpt>
      <trkpt lat="20.22465" lon="-98.73527333">
        <ele>2233.0</ele>
        <time>2019-10-12T14:47:51.885Z</time>
      </trkpt>
      <trkpt lat="20.22466167" lon="-98.73527167">
        <ele>2233.0</ele>
        <time>2019-10-12T14:47:52.886Z</time>
      </trkpt>
      <trkpt lat="20.22466833" lon="-98.73527">
        <ele>2232.0</ele>
        <time>2019-10-12T14:47:53.887Z</time>
      </trkpt>
      <trkpt lat="20.22467167" lon="-98.73526667">
        <ele>2231.0</ele>
        <time>2019-10-12T14:47:54.887Z</time>
      </trkpt>
      <trkpt lat="20.22468" lon="-98.735265">
        <ele>2230.0</ele>
        <time>2019-10-12T14:47:55.894Z</time>
      </trkpt>
      <trkpt lat="20.22468667" lon="-98.735265">
        <ele>2229.0</ele>
        <time>2019-10-12T14:47:56.898Z</time>
      </trkpt>
      <trkpt lat="20.22468667" lon="-98.73526667">
        <ele>2228.0</ele>
        <time>2019-10-12T14:47:57.900Z</time>
      </trkpt>
      <trkpt lat="20.22468833" lon="-98.73526667">
        <ele>2227.0</ele>
        <time>2019-10-12T14:47:58.906Z</time>
      </trkpt>
      <trkpt lat="20.22469" lon="-98.73526667">
        <ele>2226.0</ele>
        <time>2019-10-12T14:47:59.912Z</time>
      </trkpt>
      <trkpt lat="20.22469167" lon="-98.735265">
        <ele>2224.0</ele>
        <time>2019-10-12T14:48:00.916Z</time>
      </trkpt>
      <trkpt lat="20.22469167" lon="-98.73526">
        <ele>2223.0</ele>
        <time>2019-10-12T14:48:01.922Z</time>
      </trkpt>
      <trkpt lat="20.224695" lon="-98.73526">
        <ele>2222.0</ele>
        <time>2019-10-12T14:48:02.929Z</time>
      </trkpt>
      <trkpt lat="20.224695" lon="-98.73526667">
        <ele>2221.0</ele>
        <time>2019-10-12T14:48:03.936Z</time>
      </trkpt>
      <trkpt lat="20.224695" lon="-98.73527">
        <ele>2221.0</ele>
        <time>2019-10-12T14:48:04.941Z</time>
      </trkpt>
      <trkpt lat="20.22469667" lon="-98.73527667">
        <ele>2220.0</ele>
        <time>2019-10-12T14:48:05.943Z</time>
      </trkpt>
      <trkpt lat="20.22469833" lon="-98.73529">
        <ele>2220.0</ele>
        <time>2019-10-12T14:48:06.946Z</time>
      </trkpt>
      <trkpt lat="20.224705" lon="-98.735305">
        <ele>2221.0</ele>
        <time>2019-10-12T14:48:07.953Z</time>
      </trkpt>
      <trkpt lat="20.22471833" lon="-98.73531167">
        <ele>2221.0</ele>
        <time>2019-10-12T14:48:08.834Z</time>
      </trkpt>
      <trkpt lat="20.22473" lon="-98.73531167">
        <ele>2220.0</ele>
        <time>2019-10-12T14:48:09.836Z</time>
      </trkpt>
      <trkpt lat="20.22474167" lon="-98.73530333">
        <ele>2219.0</ele>
        <time>2019-10-12T14:48:10.837Z</time>
      </trkpt>
      <trkpt lat="20.22475333" lon="-98.73529">
        <ele>2219.0</ele>
        <time>2019-10-12T14:48:11.838Z</time>
      </trkpt>
      <trkpt lat="20.22476167" lon="-98.735285">
        <ele>2219.0</ele>
        <time>2019-10-12T14:48:12.845Z</time>
      </trkpt>
      <trkpt lat="20.22477167" lon="-98.73528">
        <ele>2218.0</ele>
        <time>2019-10-12T14:48:13.852Z</time>
      </trkpt>
      <trkpt lat="20.22478" lon="-98.73528167">
        <ele>2217.0</ele>
        <time>2019-10-12T14:48:14.858Z</time>
      </trkpt>
      <trkpt lat="20.224785" lon="-98.73529333">
        <ele>2217.0</ele>
        <time>2019-10-12T14:48:15.863Z</time>
      </trkpt>
      <trkpt lat="20.22479" lon="-98.7353">
        <ele>2215.0</ele>
        <time>2019-10-12T14:48:16.867Z</time>
      </trkpt>
      <trkpt lat="20.22479833" lon="-98.73531167">
        <ele>2214.0</ele>
        <time>2019-10-12T14:48:17.873Z</time>
      </trkpt>
      <trkpt lat="20.224805" lon="-98.735325">
        <ele>2213.0</ele>
        <time>2019-10-12T14:48:18.880Z</time>
      </trkpt>
      <trkpt lat="20.22481333" lon="-98.73533333">
        <ele>2211.0</ele>
        <time>2019-10-12T14:48:19.885Z</time>
      </trkpt>
      <trkpt lat="20.22481667" lon="-98.73532167">
        <ele>2210.0</ele>
        <time>2019-10-12T14:48:20.889Z</time>
      </trkpt>
      <trkpt lat="20.22482" lon="-98.73530667">
        <ele>2209.0</ele>
        <time>2019-10-12T14:48:21.893Z</time>
      </trkpt>
      <trkpt lat="20.22482" lon="-98.73529333">
        <ele>2208.0</ele>
        <time>2019-10-12T14:48:22.899Z</time>
      </trkpt>
      <trkpt lat="20.22482167" lon="-98.73527667">
        <ele>2208.0</ele>
        <time>2019-10-12T14:48:23.905Z</time>
      </trkpt>
      <trkpt lat="20.22483167" lon="-98.73525">
        <ele>2208.0</ele>
        <time>2019-10-12T14:48:24.910Z</time>
      </trkpt>
      <trkpt lat="20.22484" lon="-98.73522333">
        <ele>2208.0</ele>
        <time>2019-10-12T14:48:25.911Z</time>
      </trkpt>
      <trkpt lat="20.22484167" lon="-98.7352">
        <ele>2208.0</ele>
        <time>2019-10-12T14:48:26.912Z</time>
      </trkpt>
      <trkpt lat="20.22483833" lon="-98.73517667">
        <ele>2207.0</ele>
        <time>2019-10-12T14:48:27.913Z</time>
      </trkpt>
      <trkpt lat="20.22484" lon="-98.73515667">
        <ele>2207.0</ele>
        <time>2019-10-12T14:48:28.917Z</time>
      </trkpt>
      <trkpt lat="20.224845" lon="-98.73514333">
        <ele>2207.0</ele>
        <time>2019-10-12T14:48:29.924Z</time>
      </trkpt>
      <trkpt lat="20.22484833" lon="-98.73514">
        <ele>2206.0</ele>
        <time>2019-10-12T14:48:30.928Z</time>
      </trkpt>
      <trkpt lat="20.22484333" lon="-98.73513">
        <ele>2206.0</ele>
        <time>2019-10-12T14:48:31.931Z</time>
      </trkpt>
      <trkpt lat="20.22485833" lon="-98.73510833">
        <ele>2208.0</ele>
        <time>2019-10-12T14:48:32.937Z</time>
      </trkpt>
      <trkpt lat="20.22486667" lon="-98.73510667">
        <ele>2208.0</ele>
        <time>2019-10-12T14:48:33.941Z</time>
      </trkpt>
      <trkpt lat="20.22487667" lon="-98.73511">
        <ele>2208.0</ele>
        <time>2019-10-12T14:48:34.948Z</time>
      </trkpt>
      <trkpt lat="20.22489167" lon="-98.735105">
        <ele>2208.0</ele>
        <time>2019-10-12T14:48:35.951Z</time>
      </trkpt>
      <trkpt lat="20.22490333" lon="-98.73510833">
        <ele>2209.0</ele>
        <time>2019-10-12T14:48:36.831Z</time>
      </trkpt>
      <trkpt lat="20.22491167" lon="-98.73511333">
        <ele>2209.0</ele>
        <time>2019-10-12T14:48:37.838Z</time>
      </trkpt>
      <trkpt lat="20.22491" lon="-98.73511667">
        <ele>2206.0</ele>
        <time>2019-10-12T14:48:38.843Z</time>
      </trkpt>
      <trkpt lat="20.224915" lon="-98.735135">
        <ele>2207.0</ele>
        <time>2019-10-12T14:48:39.849Z</time>
      </trkpt>
      <trkpt lat="20.224925" lon="-98.73513833">
        <ele>2208.0</ele>
        <time>2019-10-12T14:48:40.854Z</time>
      </trkpt>
      <trkpt lat="20.22494" lon="-98.73513167">
        <ele>2210.0</ele>
        <time>2019-10-12T14:48:41.860Z</time>
      </trkpt>
      <trkpt lat="20.22495833" lon="-98.73512667">
        <ele>2211.0</ele>
        <time>2019-10-12T14:48:42.862Z</time>
      </trkpt>
      <trkpt lat="20.22497833" lon="-98.73512">
        <ele>2212.0</ele>
        <time>2019-10-12T14:48:43.864Z</time>
      </trkpt>
      <trkpt lat="20.22499333" lon="-98.73511333">
        <ele>2213.0</ele>
        <time>2019-10-12T14:48:44.867Z</time>
      </trkpt>
      <trkpt lat="20.22500667" lon="-98.73510333">
        <ele>2213.0</ele>
        <time>2019-10-12T14:48:45.869Z</time>
      </trkpt>
      <trkpt lat="20.22502" lon="-98.73509833">
        <ele>2213.0</ele>
        <time>2019-10-12T14:48:46.874Z</time>
      </trkpt>
      <trkpt lat="20.22502833" lon="-98.73509">
        <ele>2213.0</ele>
        <time>2019-10-12T14:48:47.880Z</time>
      </trkpt>
      <trkpt lat="20.22503" lon="-98.73508">
        <ele>2213.0</ele>
        <time>2019-10-12T14:48:48.887Z</time>
      </trkpt>
      <trkpt lat="20.22503667" lon="-98.73508333">
        <ele>2212.0</ele>
        <time>2019-10-12T14:48:49.888Z</time>
      </trkpt>
      <trkpt lat="20.22505" lon="-98.735075">
        <ele>2213.0</ele>
        <time>2019-10-12T14:48:50.889Z</time>
      </trkpt>
      <trkpt lat="20.225065" lon="-98.73506667">
        <ele>2214.0</ele>
        <time>2019-10-12T14:48:51.891Z</time>
      </trkpt>
      <trkpt lat="20.225075" lon="-98.73504667">
        <ele>2214.0</ele>
        <time>2019-10-12T14:48:52.894Z</time>
      </trkpt>
      <trkpt lat="20.22508833" lon="-98.73503167">
        <ele>2215.0</ele>
        <time>2019-10-12T14:48:53.900Z</time>
      </trkpt>
      <trkpt lat="20.22509833" lon="-98.73501833">
        <ele>2214.0</ele>
        <time>2019-10-12T14:48:54.902Z</time>
      </trkpt>
      <trkpt lat="20.22510667" lon="-98.73501">
        <ele>2214.0</ele>
        <time>2019-10-12T14:48:55.904Z</time>
      </trkpt>
      <trkpt lat="20.22511167" lon="-98.73499667">
        <ele>2214.0</ele>
        <time>2019-10-12T14:48:56.908Z</time>
      </trkpt>
      <trkpt lat="20.22511833" lon="-98.734985">
        <ele>2213.0</ele>
        <time>2019-10-12T14:48:57.912Z</time>
      </trkpt>
      <trkpt lat="20.22512833" lon="-98.73497833">
        <ele>2213.0</ele>
        <time>2019-10-12T14:48:58.918Z</time>
      </trkpt>
      <trkpt lat="20.22513833" lon="-98.73497">
        <ele>2213.0</ele>
        <time>2019-10-12T14:48:59.921Z</time>
      </trkpt>
      <trkpt lat="20.22514333" lon="-98.734975">
        <ele>2212.0</ele>
        <time>2019-10-12T14:49:00.924Z</time>
      </trkpt>
      <trkpt lat="20.22514833" lon="-98.73497833">
        <ele>2212.0</ele>
        <time>2019-10-12T14:49:01.929Z</time>
      </trkpt>
      <trkpt lat="20.225145" lon="-98.73498167">
        <ele>2213.0</ele>
        <time>2019-10-12T14:49:02.934Z</time>
      </trkpt>
      <trkpt lat="20.22512833" lon="-98.734985">
        <ele>2213.0</ele>
        <time>2019-10-12T14:49:03.937Z</time>
      </trkpt>
      <trkpt lat="20.22510833" lon="-98.73499667">
        <ele>2213.0</ele>
        <time>2019-10-12T14:49:04.938Z</time>
      </trkpt>
      <trkpt lat="20.22510833" lon="-98.73501">
        <ele>2213.0</ele>
        <time>2019-10-12T14:49:05.946Z</time>
      </trkpt>
      <trkpt lat="20.22526667" lon="-98.73542333">
        <ele>2223.0</ele>
        <time>2019-10-12T14:49:07.830Z</time>
      </trkpt>
      <trkpt lat="20.225275" lon="-98.73542167">
        <ele>2222.0</ele>
        <time>2019-10-12T14:49:08.837Z</time>
      </trkpt>
      <trkpt lat="20.22527667" lon="-98.73542833">
        <ele>2222.0</ele>
        <time>2019-10-12T14:49:09.843Z</time>
      </trkpt>
      <trkpt lat="20.225275" lon="-98.73543167">
        <ele>2222.0</ele>
        <time>2019-10-12T14:49:10.848Z</time>
      </trkpt>
      <trkpt lat="20.22528" lon="-98.73543833">
        <ele>2221.0</ele>
        <time>2019-10-12T14:49:11.849Z</time>
      </trkpt>
      <trkpt lat="20.22529" lon="-98.73545333">
        <ele>2221.0</ele>
        <time>2019-10-12T14:49:12.855Z</time>
      </trkpt>
      <trkpt lat="20.22529833" lon="-98.73546667">
        <ele>2221.0</ele>
        <time>2019-10-12T14:49:13.862Z</time>
      </trkpt>
      <trkpt lat="20.22530333" lon="-98.73548167">
        <ele>2219.0</ele>
        <time>2019-10-12T14:49:14.867Z</time>
      </trkpt>
      <trkpt lat="20.22531667" lon="-98.73550167">
        <ele>2218.0</ele>
        <time>2019-10-12T14:49:15.873Z</time>
      </trkpt>
      <trkpt lat="20.22533333" lon="-98.73551167">
        <ele>2217.0</ele>
        <time>2019-10-12T14:49:16.875Z</time>
      </trkpt>
      <trkpt lat="20.22535" lon="-98.73552167">
        <ele>2217.0</ele>
        <time>2019-10-12T14:49:17.879Z</time>
      </trkpt>
      <trkpt lat="20.22536333" lon="-98.73553333">
        <ele>2216.0</ele>
        <time>2019-10-12T14:49:18.885Z</time>
      </trkpt>
      <trkpt lat="20.22538167" lon="-98.73555167">
        <ele>2216.0</ele>
        <time>2019-10-12T14:49:19.891Z</time>
      </trkpt>
      <trkpt lat="20.22539667" lon="-98.73556833">
        <ele>2215.0</ele>
        <time>2019-10-12T14:49:20.897Z</time>
      </trkpt>
      <trkpt lat="20.225415" lon="-98.73557167">
        <ele>2215.0</ele>
        <time>2019-10-12T14:49:21.898Z</time>
      </trkpt>
      <trkpt lat="20.22543333" lon="-98.73556667">
        <ele>2214.0</ele>
        <time>2019-10-12T14:49:22.899Z</time>
      </trkpt>
      <trkpt lat="20.22545167" lon="-98.73555833">
        <ele>2214.0</ele>
        <time>2019-10-12T14:49:23.905Z</time>
      </trkpt>
      <trkpt lat="20.225465" lon="-98.73554833">
        <ele>2214.0</ele>
        <time>2019-10-12T14:49:24.909Z</time>
      </trkpt>
      <trkpt lat="20.22547833" lon="-98.73554">
        <ele>2213.0</ele>
        <time>2019-10-12T14:49:25.911Z</time>
      </trkpt>
      <trkpt lat="20.22550167" lon="-98.73553167">
        <ele>2213.0</ele>
        <time>2019-10-12T14:49:26.917Z</time>
      </trkpt>
      <trkpt lat="20.22552333" lon="-98.73553167">
        <ele>2213.0</ele>
        <time>2019-10-12T14:49:27.922Z</time>
      </trkpt>
      <trkpt lat="20.225545" lon="-98.73553333">
        <ele>2213.0</ele>
        <time>2019-10-12T14:49:28.925Z</time>
      </trkpt>
      <trkpt lat="20.22555667" lon="-98.73553833">
        <ele>2213.0</ele>
        <time>2019-10-12T14:49:29.932Z</time>
      </trkpt>
      <trkpt lat="20.22556167" lon="-98.73554833">
        <ele>2213.0</ele>
        <time>2019-10-12T14:49:30.938Z</time>
      </trkpt>
      <trkpt lat="20.22556333" lon="-98.73556333">
        <ele>2212.0</ele>
        <time>2019-10-12T14:49:31.944Z</time>
      </trkpt>
      <trkpt lat="20.22556667" lon="-98.73558167">
        <ele>2212.0</ele>
        <time>2019-10-12T14:49:32.948Z</time>
      </trkpt>
      <trkpt lat="20.22557333" lon="-98.73559833">
        <ele>2212.0</ele>
        <time>2019-10-12T14:49:33.952Z</time>
      </trkpt>
      <trkpt lat="20.225585" lon="-98.73561333">
        <ele>2212.0</ele>
        <time>2019-10-12T14:49:34.832Z</time>
      </trkpt>
      <trkpt lat="20.22560333" lon="-98.73563167">
        <ele>2211.0</ele>
        <time>2019-10-12T14:49:35.836Z</time>
      </trkpt>
      <trkpt lat="20.22562167" lon="-98.735645">
        <ele>2210.0</ele>
        <time>2019-10-12T14:49:36.841Z</time>
      </trkpt>
      <trkpt lat="20.22564167" lon="-98.73565833">
        <ele>2210.0</ele>
        <time>2019-10-12T14:49:37.844Z</time>
      </trkpt>
      <trkpt lat="20.22566333" lon="-98.73567">
        <ele>2209.0</ele>
        <time>2019-10-12T14:49:38.845Z</time>
      </trkpt>
      <trkpt lat="20.22568333" lon="-98.73568333">
        <ele>2208.0</ele>
        <time>2019-10-12T14:49:39.845Z</time>
      </trkpt>
      <trkpt lat="20.22570333" lon="-98.73569833">
        <ele>2207.0</ele>
        <time>2019-10-12T14:49:40.845Z</time>
      </trkpt>
      <trkpt lat="20.22572167" lon="-98.73571667">
        <ele>2207.0</ele>
        <time>2019-10-12T14:49:41.845Z</time>
      </trkpt>
      <trkpt lat="20.22574" lon="-98.73573">
        <ele>2207.0</ele>
        <time>2019-10-12T14:49:42.846Z</time>
      </trkpt>
      <trkpt lat="20.22576167" lon="-98.73574167">
        <ele>2207.0</ele>
        <time>2019-10-12T14:49:43.851Z</time>
      </trkpt>
      <trkpt lat="20.22578667" lon="-98.73576333">
        <ele>2208.0</ele>
        <time>2019-10-12T14:49:44.858Z</time>
      </trkpt>
      <trkpt lat="20.22580667" lon="-98.73577333">
        <ele>2207.0</ele>
        <time>2019-10-12T14:49:45.862Z</time>
      </trkpt>
      <trkpt lat="20.225825" lon="-98.73579">
        <ele>2207.0</ele>
        <time>2019-10-12T14:49:46.866Z</time>
      </trkpt>
      <trkpt lat="20.22584667" lon="-98.73580333">
        <ele>2206.0</ele>
        <time>2019-10-12T14:49:47.871Z</time>
      </trkpt>
      <trkpt lat="20.22587" lon="-98.73581">
        <ele>2206.0</ele>
        <time>2019-10-12T14:49:48.878Z</time>
      </trkpt>
      <trkpt lat="20.22589667" lon="-98.735815">
        <ele>2206.0</ele>
        <time>2019-10-12T14:49:49.884Z</time>
      </trkpt>
      <trkpt lat="20.22592167" lon="-98.73582">
        <ele>2205.0</ele>
        <time>2019-10-12T14:49:50.890Z</time>
      </trkpt>
      <trkpt lat="20.22595" lon="-98.73582833">
        <ele>2206.0</ele>
        <time>2019-10-12T14:49:51.894Z</time>
      </trkpt>
      <trkpt lat="20.22597667" lon="-98.73583167">
        <ele>2206.0</ele>
        <time>2019-10-12T14:49:52.897Z</time>
      </trkpt>
      <trkpt lat="20.22600667" lon="-98.73583333">
        <ele>2206.0</ele>
        <time>2019-10-12T14:49:53.901Z</time>
      </trkpt>
      <trkpt lat="20.22603333" lon="-98.73583167">
        <ele>2207.0</ele>
        <time>2019-10-12T14:49:54.907Z</time>
      </trkpt>
      <trkpt lat="20.22605833" lon="-98.73583333">
        <ele>2207.0</ele>
        <time>2019-10-12T14:49:55.915Z</time>
      </trkpt>
      <trkpt lat="20.22608" lon="-98.73584167">
        <ele>2207.0</ele>
        <time>2019-10-12T14:49:56.916Z</time>
      </trkpt>
      <trkpt lat="20.22609333" lon="-98.73586">
        <ele>2208.0</ele>
        <time>2019-10-12T14:49:57.917Z</time>
      </trkpt>
      <trkpt lat="20.226115" lon="-98.735875">
        <ele>2208.0</ele>
        <time>2019-10-12T14:49:58.923Z</time>
      </trkpt>
      <trkpt lat="20.22613167" lon="-98.735885">
        <ele>2208.0</ele>
        <time>2019-10-12T14:49:59.931Z</time>
      </trkpt>
      <trkpt lat="20.22615" lon="-98.73588667">
        <ele>2208.0</ele>
        <time>2019-10-12T14:50:00.934Z</time>
      </trkpt>
      <trkpt lat="20.22617333" lon="-98.73589667">
        <ele>2210.0</ele>
        <time>2019-10-12T14:50:01.938Z</time>
      </trkpt>
      <trkpt lat="20.226205" lon="-98.73588833">
        <ele>2209.0</ele>
        <time>2019-10-12T14:50:02.943Z</time>
      </trkpt>
      <trkpt lat="20.22622833" lon="-98.73588">
        <ele>2209.0</ele>
        <time>2019-10-12T14:50:03.948Z</time>
      </trkpt>
      <trkpt lat="20.22624667" lon="-98.735875">
        <ele>2208.0</ele>
        <time>2019-10-12T14:50:04.953Z</time>
      </trkpt>
      <trkpt lat="20.22625833" lon="-98.73586167">
        <ele>2208.0</ele>
        <time>2019-10-12T14:50:05.831Z</time>
      </trkpt>
      <trkpt lat="20.22627667" lon="-98.73585333">
        <ele>2208.0</ele>
        <time>2019-10-12T14:50:06.837Z</time>
      </trkpt>
      <trkpt lat="20.22629667" lon="-98.73584833">
        <ele>2209.0</ele>
        <time>2019-10-12T14:50:07.843Z</time>
      </trkpt>
      <trkpt lat="20.22631667" lon="-98.73584833">
        <ele>2209.0</ele>
        <time>2019-10-12T14:50:08.847Z</time>
      </trkpt>
      <trkpt lat="20.22632833" lon="-98.73586">
        <ele>2208.0</ele>
        <time>2019-10-12T14:50:09.853Z</time>
      </trkpt>
      <trkpt lat="20.22633667" lon="-98.735875">
        <ele>2208.0</ele>
        <time>2019-10-12T14:50:10.860Z</time>
      </trkpt>
      <trkpt lat="20.226345" lon="-98.73589833">
        <ele>2208.0</ele>
        <time>2019-10-12T14:50:11.865Z</time>
      </trkpt>
      <trkpt lat="20.22636167" lon="-98.73591">
        <ele>2208.0</ele>
        <time>2019-10-12T14:50:12.866Z</time>
      </trkpt>
      <trkpt lat="20.22637833" lon="-98.735925">
        <ele>2208.0</ele>
        <time>2019-10-12T14:50:13.867Z</time>
      </trkpt>
      <trkpt lat="20.2264" lon="-98.73593833">
        <ele>2208.0</ele>
        <time>2019-10-12T14:50:14.868Z</time>
      </trkpt>
      <trkpt lat="20.22642167" lon="-98.735945">
        <ele>2207.0</ele>
        <time>2019-10-12T14:50:15.868Z</time>
      </trkpt>
      <trkpt lat="20.22644" lon="-98.73595333">
        <ele>2206.0</ele>
        <time>2019-10-12T14:50:16.869Z</time>
      </trkpt>
      <trkpt lat="20.226455" lon="-98.73596167">
        <ele>2203.0</ele>
        <time>2019-10-12T14:50:17.870Z</time>
      </trkpt>
      <trkpt lat="20.22646833" lon="-98.73597">
        <ele>2202.0</ele>
        <time>2019-10-12T14:50:18.871Z</time>
      </trkpt>
      <trkpt lat="20.22648167" lon="-98.73598333">
        <ele>2201.0</ele>
        <time>2019-10-12T14:50:19.872Z</time>
      </trkpt>
      <trkpt lat="20.22649167" lon="-98.73600333">
        <ele>2200.0</ele>
        <time>2019-10-12T14:50:20.873Z</time>
      </trkpt>
      <trkpt lat="20.226495" lon="-98.736025">
        <ele>2200.0</ele>
        <time>2019-10-12T14:50:21.873Z</time>
      </trkpt>
      <trkpt lat="20.226495" lon="-98.73604667">
        <ele>2200.0</ele>
        <time>2019-10-12T14:50:22.874Z</time>
      </trkpt>
      <trkpt lat="20.226495" lon="-98.73606833">
        <ele>2200.0</ele>
        <time>2019-10-12T14:50:23.875Z</time>
      </trkpt>
      <trkpt lat="20.22649167" lon="-98.73609167">
        <ele>2201.0</ele>
        <time>2019-10-12T14:50:24.876Z</time>
      </trkpt>
      <trkpt lat="20.226495" lon="-98.73611667">
        <ele>2201.0</ele>
        <time>2019-10-12T14:50:25.882Z</time>
      </trkpt>
      <trkpt lat="20.226505" lon="-98.73613833">
        <ele>2201.0</ele>
        <time>2019-10-12T14:50:26.890Z</time>
      </trkpt>
      <trkpt lat="20.22651" lon="-98.73616667">
        <ele>2202.0</ele>
        <time>2019-10-12T14:50:27.893Z</time>
      </trkpt>
      <trkpt lat="20.22651167" lon="-98.73619167">
        <ele>2202.0</ele>
        <time>2019-10-12T14:50:28.897Z</time>
      </trkpt>
      <trkpt lat="20.22651167" lon="-98.73622167">
        <ele>2202.0</ele>
        <time>2019-10-12T14:50:29.902Z</time>
      </trkpt>
      <trkpt lat="20.226515" lon="-98.736255">
        <ele>2203.0</ele>
        <time>2019-10-12T14:50:30.905Z</time>
      </trkpt>
      <trkpt lat="20.22651167" lon="-98.73628833">
        <ele>2204.0</ele>
        <time>2019-10-12T14:50:31.911Z</time>
      </trkpt>
      <trkpt lat="20.22650667" lon="-98.73631833">
        <ele>2204.0</ele>
        <time>2019-10-12T14:50:32.917Z</time>
      </trkpt>
      <trkpt lat="20.22650833" lon="-98.73635833">
        <ele>2205.0</ele>
        <time>2019-10-12T14:50:33.919Z</time>
      </trkpt>
      <trkpt lat="20.22651667" lon="-98.73639">
        <ele>2206.0</ele>
        <time>2019-10-12T14:50:34.923Z</time>
      </trkpt>
      <trkpt lat="20.22652833" lon="-98.73641167">
        <ele>2207.0</ele>
        <time>2019-10-12T14:50:35.929Z</time>
      </trkpt>
      <trkpt lat="20.22654333" lon="-98.73643">
        <ele>2208.0</ele>
        <time>2019-10-12T14:50:36.934Z</time>
      </trkpt>
      <trkpt lat="20.22654833" lon="-98.73645167">
        <ele>2209.0</ele>
        <time>2019-10-12T14:50:37.939Z</time>
      </trkpt>
      <trkpt lat="20.22654833" lon="-98.73647">
        <ele>2210.0</ele>
        <time>2019-10-12T14:50:38.946Z</time>
      </trkpt>
      <trkpt lat="20.22654167" lon="-98.73648667">
        <ele>2211.0</ele>
        <time>2019-10-12T14:50:39.950Z</time>
      </trkpt>
      <trkpt lat="20.22653167" lon="-98.73649833">
        <ele>2211.0</ele>
        <time>2019-10-12T14:50:40.951Z</time>
      </trkpt>
      <trkpt lat="20.22651667" lon="-98.73652667">
        <ele>2210.0</ele>
        <time>2019-10-12T14:50:41.831Z</time>
      </trkpt>
      <trkpt lat="20.22651167" lon="-98.73655167">
        <ele>2210.0</ele>
        <time>2019-10-12T14:50:42.836Z</time>
      </trkpt>
      <trkpt lat="20.22650833" lon="-98.73658167">
        <ele>2210.0</ele>
        <time>2019-10-12T14:50:43.839Z</time>
      </trkpt>
      <trkpt lat="20.22651" lon="-98.73660667">
        <ele>2210.0</ele>
        <time>2019-10-12T14:50:44.844Z</time>
      </trkpt>
      <trkpt lat="20.22651833" lon="-98.73663333">
        <ele>2211.0</ele>
        <time>2019-10-12T14:50:45.850Z</time>
      </trkpt>
      <trkpt lat="20.22653" lon="-98.736655">
        <ele>2211.0</ele>
        <time>2019-10-12T14:50:46.856Z</time>
      </trkpt>
      <trkpt lat="20.22654667" lon="-98.736675">
        <ele>2210.0</ele>
        <time>2019-10-12T14:50:47.863Z</time>
      </trkpt>
      <trkpt lat="20.226565" lon="-98.73668667">
        <ele>2209.0</ele>
        <time>2019-10-12T14:50:48.863Z</time>
      </trkpt>
      <trkpt lat="20.22658167" lon="-98.73669667">
        <ele>2209.0</ele>
        <time>2019-10-12T14:50:49.865Z</time>
      </trkpt>
      <trkpt lat="20.22660167" lon="-98.7367">
        <ele>2208.0</ele>
        <time>2019-10-12T14:50:50.869Z</time>
      </trkpt>
      <trkpt lat="20.22662333" lon="-98.73670667">
        <ele>2208.0</ele>
        <time>2019-10-12T14:50:51.873Z</time>
      </trkpt>
      <trkpt lat="20.22664" lon="-98.736715">
        <ele>2207.0</ele>
        <time>2019-10-12T14:50:52.879Z</time>
      </trkpt>
      <trkpt lat="20.22666333" lon="-98.73671167">
        <ele>2207.0</ele>
        <time>2019-10-12T14:50:53.885Z</time>
      </trkpt>
      <trkpt lat="20.22668833" lon="-98.7367">
        <ele>2205.0</ele>
        <time>2019-10-12T14:50:54.888Z</time>
      </trkpt>
      <trkpt lat="20.22671" lon="-98.73669167">
        <ele>2204.0</ele>
        <time>2019-10-12T14:50:55.896Z</time>
      </trkpt>
      <trkpt lat="20.22672833" lon="-98.73668333">
        <ele>2204.0</ele>
        <time>2019-10-12T14:50:56.901Z</time>
      </trkpt>
      <trkpt lat="20.22674833" lon="-98.73667167">
        <ele>2203.0</ele>
        <time>2019-10-12T14:50:57.902Z</time>
      </trkpt>
      <trkpt lat="20.22676833" lon="-98.73665">
        <ele>2203.0</ele>
        <time>2019-10-12T14:50:58.902Z</time>
      </trkpt>
      <trkpt lat="20.22678833" lon="-98.73663333">
        <ele>2202.0</ele>
        <time>2019-10-12T14:50:59.902Z</time>
      </trkpt>
      <trkpt lat="20.22681167" lon="-98.736625">
        <ele>2202.0</ele>
        <time>2019-10-12T14:51:00.902Z</time>
      </trkpt>
      <trkpt lat="20.22683667" lon="-98.73662833">
        <ele>2202.0</ele>
        <time>2019-10-12T14:51:01.902Z</time>
      </trkpt>
      <trkpt lat="20.22685833" lon="-98.73663167">
        <ele>2201.0</ele>
        <time>2019-10-12T14:51:02.904Z</time>
      </trkpt>
      <trkpt lat="20.22687333" lon="-98.736645">
        <ele>2201.0</ele>
        <time>2019-10-12T14:51:03.904Z</time>
      </trkpt>
      <trkpt lat="20.22689167" lon="-98.73666333">
        <ele>2200.0</ele>
        <time>2019-10-12T14:51:04.908Z</time>
      </trkpt>
      <trkpt lat="20.22691333" lon="-98.73668333">
        <ele>2200.0</ele>
        <time>2019-10-12T14:51:05.912Z</time>
      </trkpt>
      <trkpt lat="20.22693167" lon="-98.73670333">
        <ele>2200.0</ele>
        <time>2019-10-12T14:51:06.917Z</time>
      </trkpt>
      <trkpt lat="20.226945" lon="-98.73672">
        <ele>2199.0</ele>
        <time>2019-10-12T14:51:07.917Z</time>
      </trkpt>
      <trkpt lat="20.22695667" lon="-98.73674667">
        <ele>2199.0</ele>
        <time>2019-10-12T14:51:08.921Z</time>
      </trkpt>
      <trkpt lat="20.22697167" lon="-98.73677">
        <ele>2199.0</ele>
        <time>2019-10-12T14:51:09.927Z</time>
      </trkpt>
      <trkpt lat="20.22698667" lon="-98.736795">
        <ele>2200.0</ele>
        <time>2019-10-12T14:51:10.928Z</time>
      </trkpt>
      <trkpt lat="20.227" lon="-98.73681833">
        <ele>2200.0</ele>
        <time>2019-10-12T14:51:11.929Z</time>
      </trkpt>
      <trkpt lat="20.22700833" lon="-98.73684333">
        <ele>2199.0</ele>
        <time>2019-10-12T14:51:12.929Z</time>
      </trkpt>
      <trkpt lat="20.22701833" lon="-98.73686833">
        <ele>2198.0</ele>
        <time>2019-10-12T14:51:13.932Z</time>
      </trkpt>
      <trkpt lat="20.22702333" lon="-98.73689">
        <ele>2196.0</ele>
        <time>2019-10-12T14:51:14.935Z</time>
      </trkpt>
      <trkpt lat="20.22703667" lon="-98.73692167">
        <ele>2195.0</ele>
        <time>2019-10-12T14:51:15.940Z</time>
      </trkpt>
      <trkpt lat="20.22705333" lon="-98.73693833">
        <ele>2195.0</ele>
        <time>2019-10-12T14:51:16.943Z</time>
      </trkpt>
      <trkpt lat="20.22708167" lon="-98.73694833">
        <ele>2193.0</ele>
        <time>2019-10-12T14:51:17.946Z</time>
      </trkpt>
      <trkpt lat="20.22710333" lon="-98.73695833">
        <ele>2192.0</ele>
        <time>2019-10-12T14:51:18.952Z</time>
      </trkpt>
      <trkpt lat="20.227125" lon="-98.73697">
        <ele>2190.0</ele>
        <time>2019-10-12T14:51:19.832Z</time>
      </trkpt>
      <trkpt lat="20.227145" lon="-98.736985">
        <ele>2189.0</ele>
        <time>2019-10-12T14:51:20.837Z</time>
      </trkpt>
      <trkpt lat="20.22716667" lon="-98.73699333">
        <ele>2189.0</ele>
        <time>2019-10-12T14:51:21.844Z</time>
      </trkpt>
      <trkpt lat="20.227185" lon="-98.737">
        <ele>2188.0</ele>
        <time>2019-10-12T14:51:22.851Z</time>
      </trkpt>
      <trkpt lat="20.22720833" lon="-98.73701833">
        <ele>2188.0</ele>
        <time>2019-10-12T14:51:23.855Z</time>
      </trkpt>
      <trkpt lat="20.22722833" lon="-98.73704">
        <ele>2188.0</ele>
        <time>2019-10-12T14:51:24.860Z</time>
      </trkpt>
      <trkpt lat="20.22725" lon="-98.73705333">
        <ele>2187.0</ele>
        <time>2019-10-12T14:51:25.865Z</time>
      </trkpt>
      <trkpt lat="20.22726667" lon="-98.73707">
        <ele>2187.0</ele>
        <time>2019-10-12T14:51:26.871Z</time>
      </trkpt>
      <trkpt lat="20.22728333" lon="-98.737085">
        <ele>2186.0</ele>
        <time>2019-10-12T14:51:27.878Z</time>
      </trkpt>
      <trkpt lat="20.22729667" lon="-98.737105">
        <ele>2186.0</ele>
        <time>2019-10-12T14:51:28.884Z</time>
      </trkpt>
      <trkpt lat="20.22731" lon="-98.73712">
        <ele>2186.0</ele>
        <time>2019-10-12T14:51:29.890Z</time>
      </trkpt>
      <trkpt lat="20.22731833" lon="-98.73714">
        <ele>2185.0</ele>
        <time>2019-10-12T14:51:30.895Z</time>
      </trkpt>
      <trkpt lat="20.22733667" lon="-98.73716667">
        <ele>2185.0</ele>
        <time>2019-10-12T14:51:31.901Z</time>
      </trkpt>
      <trkpt lat="20.227355" lon="-98.73718667">
        <ele>2185.0</ele>
        <time>2019-10-12T14:51:32.905Z</time>
      </trkpt>
      <trkpt lat="20.22737" lon="-98.73719833">
        <ele>2185.0</ele>
        <time>2019-10-12T14:51:33.907Z</time>
      </trkpt>
      <trkpt lat="20.22738833" lon="-98.73721167">
        <ele>2185.0</ele>
        <time>2019-10-12T14:51:34.912Z</time>
      </trkpt>
      <trkpt lat="20.22741167" lon="-98.73723333">
        <ele>2185.0</ele>
        <time>2019-10-12T14:51:35.919Z</time>
      </trkpt>
      <trkpt lat="20.22742833" lon="-98.737245">
        <ele>2185.0</ele>
        <time>2019-10-12T14:51:36.926Z</time>
      </trkpt>
      <trkpt lat="20.227455" lon="-98.73725833">
        <ele>2186.0</ele>
        <time>2019-10-12T14:51:37.928Z</time>
      </trkpt>
      <trkpt lat="20.22747333" lon="-98.73726">
        <ele>2185.0</ele>
        <time>2019-10-12T14:51:38.929Z</time>
      </trkpt>
      <trkpt lat="20.22750333" lon="-98.73725667">
        <ele>2185.0</ele>
        <time>2019-10-12T14:51:39.930Z</time>
      </trkpt>
      <trkpt lat="20.227525" lon="-98.73725">
        <ele>2184.0</ele>
        <time>2019-10-12T14:51:40.931Z</time>
      </trkpt>
      <trkpt lat="20.22754667" lon="-98.73724833">
        <ele>2184.0</ele>
        <time>2019-10-12T14:51:41.931Z</time>
      </trkpt>
      <trkpt lat="20.22757" lon="-98.73724667">
        <ele>2184.0</ele>
        <time>2019-10-12T14:51:42.932Z</time>
      </trkpt>
      <trkpt lat="20.22759" lon="-98.73724">
        <ele>2184.0</ele>
        <time>2019-10-12T14:51:43.933Z</time>
      </trkpt>
      <trkpt lat="20.22760833" lon="-98.73722167">
        <ele>2183.0</ele>
        <time>2019-10-12T14:51:44.934Z</time>
      </trkpt>
      <trkpt lat="20.22763167" lon="-98.73720167">
        <ele>2183.0</ele>
        <time>2019-10-12T14:51:45.940Z</time>
      </trkpt>
      <trkpt lat="20.22765667" lon="-98.73718">
        <ele>2183.0</ele>
        <time>2019-10-12T14:51:46.946Z</time>
      </trkpt>
      <trkpt lat="20.22768167" lon="-98.737165">
        <ele>2183.0</ele>
        <time>2019-10-12T14:51:47.952Z</time>
      </trkpt>
      <trkpt lat="20.22770667" lon="-98.73715">
        <ele>2183.0</ele>
        <time>2019-10-12T14:51:48.833Z</time>
      </trkpt>
      <trkpt lat="20.22773333" lon="-98.73714167">
        <ele>2182.0</ele>
        <time>2019-10-12T14:51:49.835Z</time>
      </trkpt>
      <trkpt lat="20.22776333" lon="-98.73714167">
        <ele>2182.0</ele>
        <time>2019-10-12T14:51:50.839Z</time>
      </trkpt>
      <trkpt lat="20.22778667" lon="-98.73713667">
        <ele>2182.0</ele>
        <time>2019-10-12T14:51:51.844Z</time>
      </trkpt>
      <trkpt lat="20.22782" lon="-98.737125">
        <ele>2181.0</ele>
        <time>2019-10-12T14:51:52.846Z</time>
      </trkpt>
      <trkpt lat="20.227845" lon="-98.737115">
        <ele>2181.0</ele>
        <time>2019-10-12T14:51:53.849Z</time>
      </trkpt>
      <trkpt lat="20.227865" lon="-98.73709667">
        <ele>2182.0</ele>
        <time>2019-10-12T14:51:54.855Z</time>
      </trkpt>
      <trkpt lat="20.22788333" lon="-98.73707">
        <ele>2182.0</ele>
        <time>2019-10-12T14:51:55.861Z</time>
      </trkpt>
      <trkpt lat="20.22789667" lon="-98.73704333">
        <ele>2182.0</ele>
        <time>2019-10-12T14:51:56.865Z</time>
      </trkpt>
      <trkpt lat="20.22790833" lon="-98.73701833">
        <ele>2183.0</ele>
        <time>2019-10-12T14:51:57.871Z</time>
      </trkpt>
      <trkpt lat="20.22792" lon="-98.73699667">
        <ele>2184.0</ele>
        <time>2019-10-12T14:51:58.875Z</time>
      </trkpt>
      <trkpt lat="20.22793" lon="-98.73697667">
        <ele>2185.0</ele>
        <time>2019-10-12T14:51:59.878Z</time>
      </trkpt>
      <trkpt lat="20.22794167" lon="-98.73695333">
        <ele>2185.0</ele>
        <time>2019-10-12T14:52:00.883Z</time>
      </trkpt>
      <trkpt lat="20.22795167" lon="-98.736925">
        <ele>2185.0</ele>
        <time>2019-10-12T14:52:01.886Z</time>
      </trkpt>
      <trkpt lat="20.22795833" lon="-98.73689667">
        <ele>2185.0</ele>
        <time>2019-10-12T14:52:02.888Z</time>
      </trkpt>
      <trkpt lat="20.22796667" lon="-98.73687833">
        <ele>2185.0</ele>
        <time>2019-10-12T14:52:03.891Z</time>
      </trkpt>
      <trkpt lat="20.227975" lon="-98.736865">
        <ele>2185.0</ele>
        <time>2019-10-12T14:52:04.897Z</time>
      </trkpt>
      <trkpt lat="20.22797667" lon="-98.73684333">
        <ele>2185.0</ele>
        <time>2019-10-12T14:52:05.903Z</time>
      </trkpt>
      <trkpt lat="20.22797833" lon="-98.736815">
        <ele>2185.0</ele>
        <time>2019-10-12T14:52:06.908Z</time>
      </trkpt>
      <trkpt lat="20.22798667" lon="-98.736795">
        <ele>2185.0</ele>
        <time>2019-10-12T14:52:07.909Z</time>
      </trkpt>
      <trkpt lat="20.228" lon="-98.73677333">
        <ele>2187.0</ele>
        <time>2019-10-12T14:52:08.911Z</time>
      </trkpt>
      <trkpt lat="20.22801667" lon="-98.73675167">
        <ele>2188.0</ele>
        <time>2019-10-12T14:52:09.912Z</time>
      </trkpt>
      <trkpt lat="20.22802667" lon="-98.73673">
        <ele>2189.0</ele>
        <time>2019-10-12T14:52:10.916Z</time>
      </trkpt>
      <trkpt lat="20.22803333" lon="-98.73671">
        <ele>2190.0</ele>
        <time>2019-10-12T14:52:11.922Z</time>
      </trkpt>
      <trkpt lat="20.22803667" lon="-98.73669">
        <ele>2190.0</ele>
        <time>2019-10-12T14:52:12.929Z</time>
      </trkpt>
      <trkpt lat="20.22804" lon="-98.73666667">
        <ele>2190.0</ele>
        <time>2019-10-12T14:52:13.935Z</time>
      </trkpt>
      <trkpt lat="20.22804167" lon="-98.73664167">
        <ele>2190.0</ele>
        <time>2019-10-12T14:52:14.940Z</time>
      </trkpt>
      <trkpt lat="20.22804833" lon="-98.73661667">
        <ele>2190.0</ele>
        <time>2019-10-12T14:52:15.945Z</time>
      </trkpt>
      <trkpt lat="20.22805" lon="-98.73659833">
        <ele>2190.0</ele>
        <time>2019-10-12T14:52:16.952Z</time>
      </trkpt>
      <trkpt lat="20.22806" lon="-98.736585">
        <ele>2191.0</ele>
        <time>2019-10-12T14:52:17.833Z</time>
      </trkpt>
      <trkpt lat="20.22806833" lon="-98.73656833">
        <ele>2192.0</ele>
        <time>2019-10-12T14:52:18.834Z</time>
      </trkpt>
      <trkpt lat="20.22807333" lon="-98.73654667">
        <ele>2192.0</ele>
        <time>2019-10-12T14:52:19.834Z</time>
      </trkpt>
      <trkpt lat="20.22808333" lon="-98.73652667">
        <ele>2192.0</ele>
        <time>2019-10-12T14:52:20.836Z</time>
      </trkpt>
      <trkpt lat="20.22809" lon="-98.73651333">
        <ele>2193.0</ele>
        <time>2019-10-12T14:52:21.837Z</time>
      </trkpt>
      <trkpt lat="20.2281" lon="-98.736505">
        <ele>2193.0</ele>
        <time>2019-10-12T14:52:22.837Z</time>
      </trkpt>
      <trkpt lat="20.22810833" lon="-98.73650333">
        <ele>2194.0</ele>
        <time>2019-10-12T14:52:23.838Z</time>
      </trkpt>
      <trkpt lat="20.22811" lon="-98.736495">
        <ele>2194.0</ele>
        <time>2019-10-12T14:52:24.839Z</time>
      </trkpt>
      <trkpt lat="20.22810167" lon="-98.73648167">
        <ele>2193.0</ele>
        <time>2019-10-12T14:52:25.840Z</time>
      </trkpt>
      <trkpt lat="20.22809833" lon="-98.73647167">
        <ele>2193.0</ele>
        <time>2019-10-12T14:52:26.841Z</time>
      </trkpt>
      <trkpt lat="20.22809833" lon="-98.73645167">
        <ele>2193.0</ele>
        <time>2019-10-12T14:52:27.842Z</time>
      </trkpt>
      <trkpt lat="20.2281" lon="-98.73642833">
        <ele>2192.0</ele>
        <time>2019-10-12T14:52:28.842Z</time>
      </trkpt>
      <trkpt lat="20.22809667" lon="-98.73641167">
        <ele>2192.0</ele>
        <time>2019-10-12T14:52:29.843Z</time>
      </trkpt>
      <trkpt lat="20.22809667" lon="-98.736395">
        <ele>2191.0</ele>
        <time>2019-10-12T14:52:30.844Z</time>
      </trkpt>
      <trkpt lat="20.22809667" lon="-98.73638333">
        <ele>2191.0</ele>
        <time>2019-10-12T14:52:31.845Z</time>
      </trkpt>
      <trkpt lat="20.22809833" lon="-98.736365">
        <ele>2191.0</ele>
        <time>2019-10-12T14:52:32.846Z</time>
      </trkpt>
      <trkpt lat="20.228095" lon="-98.736345">
        <ele>2190.0</ele>
        <time>2019-10-12T14:52:33.853Z</time>
      </trkpt>
      <trkpt lat="20.22809333" lon="-98.73632833">
        <ele>2190.0</ele>
        <time>2019-10-12T14:52:34.858Z</time>
      </trkpt>
      <trkpt lat="20.22809333" lon="-98.736315">
        <ele>2191.0</ele>
        <time>2019-10-12T14:52:35.861Z</time>
      </trkpt>
      <trkpt lat="20.22809167" lon="-98.736305">
        <ele>2191.0</ele>
        <time>2019-10-12T14:52:36.864Z</time>
      </trkpt>
      <trkpt lat="20.228095" lon="-98.73628833">
        <ele>2191.0</ele>
        <time>2019-10-12T14:52:37.867Z</time>
      </trkpt>
      <trkpt lat="20.22809667" lon="-98.73627333">
        <ele>2192.0</ele>
        <time>2019-10-12T14:52:38.868Z</time>
      </trkpt>
      <trkpt lat="20.22809833" lon="-98.736255">
        <ele>2192.0</ele>
        <time>2019-10-12T14:52:39.868Z</time>
      </trkpt>
      <trkpt lat="20.2281" lon="-98.73623333">
        <ele>2192.0</ele>
        <time>2019-10-12T14:52:40.869Z</time>
      </trkpt>
      <trkpt lat="20.22809167" lon="-98.73621333">
        <ele>2192.0</ele>
        <time>2019-10-12T14:52:41.869Z</time>
      </trkpt>
      <trkpt lat="20.22808833" lon="-98.736195">
        <ele>2191.0</ele>
        <time>2019-10-12T14:52:42.870Z</time>
      </trkpt>
      <trkpt lat="20.22808667" lon="-98.73617333">
        <ele>2191.0</ele>
        <time>2019-10-12T14:52:43.871Z</time>
      </trkpt>
      <trkpt lat="20.22808667" lon="-98.73615167">
        <ele>2191.0</ele>
        <time>2019-10-12T14:52:44.874Z</time>
      </trkpt>
      <trkpt lat="20.22808667" lon="-98.73613">
        <ele>2191.0</ele>
        <time>2019-10-12T14:52:45.877Z</time>
      </trkpt>
      <trkpt lat="20.22809167" lon="-98.73611833">
        <ele>2192.0</ele>
        <time>2019-10-12T14:52:46.879Z</time>
      </trkpt>
      <trkpt lat="20.22809333" lon="-98.736105">
        <ele>2192.0</ele>
        <time>2019-10-12T14:52:47.884Z</time>
      </trkpt>
      <trkpt lat="20.22809667" lon="-98.73609">
        <ele>2192.0</ele>
        <time>2019-10-12T14:52:48.889Z</time>
      </trkpt>
      <trkpt lat="20.22810167" lon="-98.73607333">
        <ele>2192.0</ele>
        <time>2019-10-12T14:52:49.890Z</time>
      </trkpt>
      <trkpt lat="20.22810167" lon="-98.736055">
        <ele>2193.0</ele>
        <time>2019-10-12T14:52:50.891Z</time>
      </trkpt>
      <trkpt lat="20.22810833" lon="-98.73603833">
        <ele>2193.0</ele>
        <time>2019-10-12T14:52:51.894Z</time>
      </trkpt>
      <trkpt lat="20.22812333" lon="-98.73602167">
        <ele>2193.0</ele>
        <time>2019-10-12T14:52:52.899Z</time>
      </trkpt>
      <trkpt lat="20.22813667" lon="-98.73600833">
        <ele>2193.0</ele>
        <time>2019-10-12T14:52:53.900Z</time>
      </trkpt>
      <trkpt lat="20.22815" lon="-98.73598333">
        <ele>2194.0</ele>
        <time>2019-10-12T14:52:54.902Z</time>
      </trkpt>
      <trkpt lat="20.22816" lon="-98.73596">
        <ele>2194.0</ele>
        <time>2019-10-12T14:52:55.907Z</time>
      </trkpt>
      <trkpt lat="20.228175" lon="-98.735935">
        <ele>2194.0</ele>
        <time>2019-10-12T14:52:56.909Z</time>
      </trkpt>
      <trkpt lat="20.22818833" lon="-98.73591667">
        <ele>2195.0</ele>
        <time>2019-10-12T14:52:57.913Z</time>
      </trkpt>
      <trkpt lat="20.228195" lon="-98.73590167">
        <ele>2195.0</ele>
        <time>2019-10-12T14:52:58.918Z</time>
      </trkpt>
      <trkpt lat="20.228195" lon="-98.73588333">
        <ele>2196.0</ele>
        <time>2019-10-12T14:52:59.921Z</time>
      </trkpt>
      <trkpt lat="20.22819667" lon="-98.73586833">
        <ele>2196.0</ele>
        <time>2019-10-12T14:53:00.922Z</time>
      </trkpt>
      <trkpt lat="20.22819167" lon="-98.73585167">
        <ele>2195.0</ele>
        <time>2019-10-12T14:53:01.923Z</time>
      </trkpt>
      <trkpt lat="20.22819167" lon="-98.73583667">
        <ele>2194.0</ele>
        <time>2019-10-12T14:53:02.924Z</time>
      </trkpt>
      <trkpt lat="20.22819167" lon="-98.73581667">
        <ele>2194.0</ele>
        <time>2019-10-12T14:53:03.929Z</time>
      </trkpt>
      <trkpt lat="20.228195" lon="-98.73579333">
        <ele>2195.0</ele>
        <time>2019-10-12T14:53:04.935Z</time>
      </trkpt>
      <trkpt lat="20.22819833" lon="-98.73577833">
        <ele>2195.0</ele>
        <time>2019-10-12T14:53:05.939Z</time>
      </trkpt>
      <trkpt lat="20.2282" lon="-98.73577">
        <ele>2196.0</ele>
        <time>2019-10-12T14:53:06.944Z</time>
      </trkpt>
      <trkpt lat="20.22820333" lon="-98.73575333">
        <ele>2196.0</ele>
        <time>2019-10-12T14:53:07.951Z</time>
      </trkpt>
      <trkpt lat="20.228205" lon="-98.73573333">
        <ele>2197.0</ele>
        <time>2019-10-12T14:53:08.953Z</time>
      </trkpt>
      <trkpt lat="20.22821" lon="-98.73572">
        <ele>2197.0</ele>
        <time>2019-10-12T14:53:09.830Z</time>
      </trkpt>
      <trkpt lat="20.22821833" lon="-98.73570667">
        <ele>2198.0</ele>
        <time>2019-10-12T14:53:10.830Z</time>
      </trkpt>
      <trkpt lat="20.22823" lon="-98.73569667">
        <ele>2198.0</ele>
        <time>2019-10-12T14:53:11.831Z</time>
      </trkpt>
      <trkpt lat="20.228245" lon="-98.73568333">
        <ele>2198.0</ele>
        <time>2019-10-12T14:53:12.831Z</time>
      </trkpt>
      <trkpt lat="20.22826833" lon="-98.73567167">
        <ele>2198.0</ele>
        <time>2019-10-12T14:53:13.833Z</time>
      </trkpt>
      <trkpt lat="20.22829333" lon="-98.73566333">
        <ele>2198.0</ele>
        <time>2019-10-12T14:53:14.834Z</time>
      </trkpt>
      <trkpt lat="20.22831333" lon="-98.73564833">
        <ele>2198.0</ele>
        <time>2019-10-12T14:53:15.837Z</time>
      </trkpt>
      <trkpt lat="20.22833167" lon="-98.73563667">
        <ele>2199.0</ele>
        <time>2019-10-12T14:53:16.842Z</time>
      </trkpt>
      <trkpt lat="20.22835" lon="-98.73562333">
        <ele>2199.0</ele>
        <time>2019-10-12T14:53:17.848Z</time>
      </trkpt>
      <trkpt lat="20.22836333" lon="-98.73561167">
        <ele>2199.0</ele>
        <time>2019-10-12T14:53:18.854Z</time>
      </trkpt>
      <trkpt lat="20.22837667" lon="-98.73559667">
        <ele>2198.0</ele>
        <time>2019-10-12T14:53:19.860Z</time>
      </trkpt>
      <trkpt lat="20.22839" lon="-98.73558">
        <ele>2197.0</ele>
        <time>2019-10-12T14:53:20.864Z</time>
      </trkpt>
      <trkpt lat="20.228405" lon="-98.73556">
        <ele>2197.0</ele>
        <time>2019-10-12T14:53:21.869Z</time>
      </trkpt>
      <trkpt lat="20.22841833" lon="-98.73553833">
        <ele>2197.0</ele>
        <time>2019-10-12T14:53:22.873Z</time>
      </trkpt>
      <trkpt lat="20.22842833" lon="-98.73552167">
        <ele>2198.0</ele>
        <time>2019-10-12T14:53:23.873Z</time>
      </trkpt>
      <trkpt lat="20.22843667" lon="-98.73549833">
        <ele>2199.0</ele>
        <time>2019-10-12T14:53:24.874Z</time>
      </trkpt>
      <trkpt lat="20.22844833" lon="-98.73547333">
        <ele>2200.0</ele>
        <time>2019-10-12T14:53:25.875Z</time>
      </trkpt>
      <trkpt lat="20.22846167" lon="-98.73545333">
        <ele>2200.0</ele>
        <time>2019-10-12T14:53:26.876Z</time>
      </trkpt>
      <trkpt lat="20.22847" lon="-98.73543833">
        <ele>2201.0</ele>
        <time>2019-10-12T14:53:27.877Z</time>
      </trkpt>
      <trkpt lat="20.22848333" lon="-98.73541667">
        <ele>2201.0</ele>
        <time>2019-10-12T14:53:28.878Z</time>
      </trkpt>
      <trkpt lat="20.22849333" lon="-98.73538833">
        <ele>2200.0</ele>
        <time>2019-10-12T14:53:29.884Z</time>
      </trkpt>
      <trkpt lat="20.22850167" lon="-98.73536667">
        <ele>2201.0</ele>
        <time>2019-10-12T14:53:30.890Z</time>
      </trkpt>
      <trkpt lat="20.22850833" lon="-98.73534333">
        <ele>2201.0</ele>
        <time>2019-10-12T14:53:31.895Z</time>
      </trkpt>
      <trkpt lat="20.228515" lon="-98.73532333">
        <ele>2201.0</ele>
        <time>2019-10-12T14:53:32.900Z</time>
      </trkpt>
      <trkpt lat="20.22851667" lon="-98.73531167">
        <ele>2202.0</ele>
        <time>2019-10-12T14:53:33.907Z</time>
      </trkpt>
      <trkpt lat="20.228515" lon="-98.73529167">
        <ele>2202.0</ele>
        <time>2019-10-12T14:53:34.912Z</time>
      </trkpt>
      <trkpt lat="20.22851167" lon="-98.73528">
        <ele>2203.0</ele>
        <time>2019-10-12T14:53:35.916Z</time>
      </trkpt>
      <trkpt lat="20.22851" lon="-98.735265">
        <ele>2203.0</ele>
        <time>2019-10-12T14:53:36.923Z</time>
      </trkpt>
      <trkpt lat="20.22851333" lon="-98.73525667">
        <ele>2204.0</ele>
        <time>2019-10-12T14:53:37.930Z</time>
      </trkpt>
      <trkpt lat="20.22852333" lon="-98.73526">
        <ele>2205.0</ele>
        <time>2019-10-12T14:53:38.936Z</time>
      </trkpt>
      <trkpt lat="20.22852333" lon="-98.73526667">
        <ele>2205.0</ele>
        <time>2019-10-12T14:53:39.942Z</time>
      </trkpt>
      <trkpt lat="20.22853167" lon="-98.73528833">
        <ele>2206.0</ele>
        <time>2019-10-12T14:53:40.946Z</time>
      </trkpt>
      <trkpt lat="20.228545" lon="-98.73531167">
        <ele>2207.0</ele>
        <time>2019-10-12T14:53:41.947Z</time>
      </trkpt>
      <trkpt lat="20.228555" lon="-98.73533167">
        <ele>2208.0</ele>
        <time>2019-10-12T14:53:42.947Z</time>
      </trkpt>
      <trkpt lat="20.22857333" lon="-98.73535667">
        <ele>2208.0</ele>
        <time>2019-10-12T14:53:43.947Z</time>
      </trkpt>
      <trkpt lat="20.22859167" lon="-98.73538">
        <ele>2209.0</ele>
        <time>2019-10-12T14:53:44.948Z</time>
      </trkpt>
      <trkpt lat="20.228615" lon="-98.73538167">
        <ele>2210.0</ele>
        <time>2019-10-12T14:53:45.948Z</time>
      </trkpt>
      <trkpt lat="20.228635" lon="-98.73539">
        <ele>2211.0</ele>
        <time>2019-10-12T14:53:46.948Z</time>
      </trkpt>
      <trkpt lat="20.22865333" lon="-98.735395">
        <ele>2212.0</ele>
        <time>2019-10-12T14:53:47.948Z</time>
      </trkpt>
      <trkpt lat="20.22867333" lon="-98.7354">
        <ele>2213.0</ele>
        <time>2019-10-12T14:53:48.949Z</time>
      </trkpt>
      <trkpt lat="20.228685" lon="-98.73540333">
        <ele>2215.0</ele>
        <time>2019-10-12T14:53:49.949Z</time>
      </trkpt>
      <trkpt lat="20.22869333" lon="-98.73541333">
        <ele>2215.0</ele>
        <time>2019-10-12T14:53:50.949Z</time>
      </trkpt>
      <trkpt lat="20.22869667" lon="-98.735435">
        <ele>2217.0</ele>
        <time>2019-10-12T14:53:51.949Z</time>
      </trkpt>
      <trkpt lat="20.22869667" lon="-98.73545833">
        <ele>2218.0</ele>
        <time>2019-10-12T14:53:52.950Z</time>
      </trkpt>
      <trkpt lat="20.22869667" lon="-98.735485">
        <ele>2218.0</ele>
        <time>2019-10-12T14:53:53.950Z</time>
      </trkpt>
      <trkpt lat="20.228705" lon="-98.73551333">
        <ele>2219.0</ele>
        <time>2019-10-12T14:53:54.950Z</time>
      </trkpt>
      <trkpt lat="20.22871833" lon="-98.73553833">
        <ele>2219.0</ele>
        <time>2019-10-12T14:53:55.950Z</time>
      </trkpt>
      <trkpt lat="20.22872833" lon="-98.73556667">
        <ele>2220.0</ele>
        <time>2019-10-12T14:53:56.950Z</time>
      </trkpt>
      <trkpt lat="20.22874167" lon="-98.735585">
        <ele>2220.0</ele>
        <time>2019-10-12T14:53:57.951Z</time>
      </trkpt>
      <trkpt lat="20.22876167" lon="-98.73559333">
        <ele>2221.0</ele>
        <time>2019-10-12T14:53:58.951Z</time>
      </trkpt>
      <trkpt lat="20.22878167" lon="-98.735605">
        <ele>2221.0</ele>
        <time>2019-10-12T14:53:59.952Z</time>
      </trkpt>
      <trkpt lat="20.22879667" lon="-98.73561167">
        <ele>2221.0</ele>
        <time>2019-10-12T14:54:00.952Z</time>
      </trkpt>
      <trkpt lat="20.22881" lon="-98.735625">
        <ele>2222.0</ele>
        <time>2019-10-12T14:54:01.953Z</time>
      </trkpt>
      <trkpt lat="20.22881833" lon="-98.735635">
        <ele>2223.0</ele>
        <time>2019-10-12T14:54:02.954Z</time>
      </trkpt>
      <trkpt lat="20.228825" lon="-98.73564833">
        <ele>2223.0</ele>
        <time>2019-10-12T14:54:03.830Z</time>
      </trkpt>
      <trkpt lat="20.22882667" lon="-98.73566">
        <ele>2223.0</ele>
        <time>2019-10-12T14:54:04.831Z</time>
      </trkpt>
      <trkpt lat="20.228825" lon="-98.73566833">
        <ele>2224.0</ele>
        <time>2019-10-12T14:54:05.831Z</time>
      </trkpt>
      <trkpt lat="20.22882667" lon="-98.73568167">
        <ele>2224.0</ele>
        <time>2019-10-12T14:54:06.832Z</time>
      </trkpt>
      <trkpt lat="20.22882167" lon="-98.73569667">
        <ele>2224.0</ele>
        <time>2019-10-12T14:54:07.833Z</time>
      </trkpt>
      <trkpt lat="20.22881833" lon="-98.73571833">
        <ele>2224.0</ele>
        <time>2019-10-12T14:54:08.834Z</time>
      </trkpt>
      <trkpt lat="20.22882" lon="-98.73574167">
        <ele>2223.0</ele>
        <time>2019-10-12T14:54:09.835Z</time>
      </trkpt>
      <trkpt lat="20.22883" lon="-98.73576">
        <ele>2223.0</ele>
        <time>2019-10-12T14:54:10.835Z</time>
      </trkpt>
      <trkpt lat="20.228845" lon="-98.73578">
        <ele>2223.0</ele>
        <time>2019-10-12T14:54:11.836Z</time>
      </trkpt>
      <trkpt lat="20.22886333" lon="-98.73580333">
        <ele>2223.0</ele>
        <time>2019-10-12T14:54:12.837Z</time>
      </trkpt>
      <trkpt lat="20.22888333" lon="-98.73582167">
        <ele>2223.0</ele>
        <time>2019-10-12T14:54:13.837Z</time>
      </trkpt>
      <trkpt lat="20.22889667" lon="-98.73584167">
        <ele>2223.0</ele>
        <time>2019-10-12T14:54:14.839Z</time>
      </trkpt>
      <trkpt lat="20.22891833" lon="-98.73585167">
        <ele>2223.0</ele>
        <time>2019-10-12T14:54:15.840Z</time>
      </trkpt>
      <trkpt lat="20.22894167" lon="-98.73586167">
        <ele>2223.0</ele>
        <time>2019-10-12T14:54:16.840Z</time>
      </trkpt>
      <trkpt lat="20.22896167" lon="-98.735875">
        <ele>2223.0</ele>
        <time>2019-10-12T14:54:17.841Z</time>
      </trkpt>
      <trkpt lat="20.22898333" lon="-98.73588833">
        <ele>2224.0</ele>
        <time>2019-10-12T14:54:18.842Z</time>
      </trkpt>
      <trkpt lat="20.229005" lon="-98.735895">
        <ele>2223.0</ele>
        <time>2019-10-12T14:54:19.843Z</time>
      </trkpt>
      <trkpt lat="20.22902833" lon="-98.73590667">
        <ele>2224.0</ele>
        <time>2019-10-12T14:54:20.846Z</time>
      </trkpt>
      <trkpt lat="20.22905167" lon="-98.73592">
        <ele>2225.0</ele>
        <time>2019-10-12T14:54:21.852Z</time>
      </trkpt>
      <trkpt lat="20.22907667" lon="-98.735925">
        <ele>2225.0</ele>
        <time>2019-10-12T14:54:22.857Z</time>
      </trkpt>
      <trkpt lat="20.22909667" lon="-98.735935">
        <ele>2226.0</ele>
        <time>2019-10-12T14:54:23.860Z</time>
      </trkpt>
      <trkpt lat="20.22911833" lon="-98.73594167">
        <ele>2226.0</ele>
        <time>2019-10-12T14:54:24.864Z</time>
      </trkpt>
      <trkpt lat="20.22913" lon="-98.73595">
        <ele>2226.0</ele>
        <time>2019-10-12T14:54:25.869Z</time>
      </trkpt>
      <trkpt lat="20.229135" lon="-98.735955">
        <ele>2227.0</ele>
        <time>2019-10-12T14:54:26.872Z</time>
      </trkpt>
      <trkpt lat="20.22913167" lon="-98.73596333">
        <ele>2227.0</ele>
        <time>2019-10-12T14:54:27.873Z</time>
      </trkpt>
      <trkpt lat="20.22912833" lon="-98.73597333">
        <ele>2227.0</ele>
        <time>2019-10-12T14:54:28.874Z</time>
      </trkpt>
      <trkpt lat="20.229125" lon="-98.73598333">
        <ele>2227.0</ele>
        <time>2019-10-12T14:54:29.875Z</time>
      </trkpt>
      <trkpt lat="20.22912167" lon="-98.73599333">
        <ele>2227.0</ele>
        <time>2019-10-12T14:54:30.876Z</time>
      </trkpt>
      <trkpt lat="20.22911667" lon="-98.736005">
        <ele>2226.0</ele>
        <time>2019-10-12T14:54:31.878Z</time>
      </trkpt>
      <trkpt lat="20.22911667" lon="-98.73602333">
        <ele>2227.0</ele>
        <time>2019-10-12T14:54:32.881Z</time>
      </trkpt>
      <trkpt lat="20.22912" lon="-98.73604833">
        <ele>2227.0</ele>
        <time>2019-10-12T14:54:33.881Z</time>
      </trkpt>
      <trkpt lat="20.22912167" lon="-98.73607167">
        <ele>2227.0</ele>
        <time>2019-10-12T14:54:34.885Z</time>
      </trkpt>
      <trkpt lat="20.22911833" lon="-98.73609167">
        <ele>2227.0</ele>
        <time>2019-10-12T14:54:35.891Z</time>
      </trkpt>
      <trkpt lat="20.229115" lon="-98.73611167">
        <ele>2227.0</ele>
        <time>2019-10-12T14:54:36.895Z</time>
      </trkpt>
      <trkpt lat="20.22911333" lon="-98.73612667">
        <ele>2226.0</ele>
        <time>2019-10-12T14:54:37.899Z</time>
      </trkpt>
      <trkpt lat="20.22911667" lon="-98.73613667">
        <ele>2225.0</ele>
        <time>2019-10-12T14:54:38.902Z</time>
      </trkpt>
      <trkpt lat="20.22912167" lon="-98.73614167">
        <ele>2223.0</ele>
        <time>2019-10-12T14:54:39.906Z</time>
      </trkpt>
      <trkpt lat="20.22913" lon="-98.73614833">
        <ele>2222.0</ele>
        <time>2019-10-12T14:54:40.909Z</time>
      </trkpt>
      <trkpt lat="20.22914333" lon="-98.73615833">
        <ele>2221.0</ele>
        <time>2019-10-12T14:54:41.914Z</time>
      </trkpt>
      <trkpt lat="20.22915833" lon="-98.736165">
        <ele>2219.0</ele>
        <time>2019-10-12T14:54:42.918Z</time>
      </trkpt>
      <trkpt lat="20.22917" lon="-98.73617667">
        <ele>2218.0</ele>
        <time>2019-10-12T14:54:43.922Z</time>
      </trkpt>
      <trkpt lat="20.22917833" lon="-98.73619833">
        <ele>2218.0</ele>
        <time>2019-10-12T14:54:44.928Z</time>
      </trkpt>
      <trkpt lat="20.22918167" lon="-98.73622333">
        <ele>2218.0</ele>
        <time>2019-10-12T14:54:45.933Z</time>
      </trkpt>
      <trkpt lat="20.22918333" lon="-98.73624167">
        <ele>2218.0</ele>
        <time>2019-10-12T14:54:46.938Z</time>
      </trkpt>
      <trkpt lat="20.22917833" lon="-98.73626">
        <ele>2219.0</ele>
        <time>2019-10-12T14:54:47.943Z</time>
      </trkpt>
      <trkpt lat="20.229175" lon="-98.736275">
        <ele>2219.0</ele>
        <time>2019-10-12T14:54:48.946Z</time>
      </trkpt>
      <trkpt lat="20.22917333" lon="-98.73629667">
        <ele>2219.0</ele>
        <time>2019-10-12T14:54:49.952Z</time>
      </trkpt>
      <trkpt lat="20.22917" lon="-98.73632167">
        <ele>2220.0</ele>
        <time>2019-10-12T14:54:50.831Z</time>
      </trkpt>
      <trkpt lat="20.22917167" lon="-98.73635">
        <ele>2220.0</ele>
        <time>2019-10-12T14:54:51.835Z</time>
      </trkpt>
      <trkpt lat="20.22917833" lon="-98.736375">
        <ele>2220.0</ele>
        <time>2019-10-12T14:54:52.841Z</time>
      </trkpt>
      <trkpt lat="20.22918667" lon="-98.736395">
        <ele>2220.0</ele>
        <time>2019-10-12T14:54:53.847Z</time>
      </trkpt>
      <trkpt lat="20.22919333" lon="-98.73641333">
        <ele>2220.0</ele>
        <time>2019-10-12T14:54:54.851Z</time>
      </trkpt>
      <trkpt lat="20.2292" lon="-98.73642333">
        <ele>2220.0</ele>
        <time>2019-10-12T14:54:55.857Z</time>
      </trkpt>
      <trkpt lat="20.22920333" lon="-98.73643333">
        <ele>2220.0</ele>
        <time>2019-10-12T14:54:56.861Z</time>
      </trkpt>
      <trkpt lat="20.22920833" lon="-98.736445">
        <ele>2220.0</ele>
        <time>2019-10-12T14:54:57.861Z</time>
      </trkpt>
      <trkpt lat="20.22921167" lon="-98.736465">
        <ele>2220.0</ele>
        <time>2019-10-12T14:54:58.863Z</time>
      </trkpt>
      <trkpt lat="20.229215" lon="-98.73648333">
        <ele>2220.0</ele>
        <time>2019-10-12T14:54:59.867Z</time>
      </trkpt>
      <trkpt lat="20.22922" lon="-98.7365">
        <ele>2221.0</ele>
        <time>2019-10-12T14:55:00.872Z</time>
      </trkpt>
      <trkpt lat="20.229225" lon="-98.73651667">
        <ele>2221.0</ele>
        <time>2019-10-12T14:55:01.875Z</time>
      </trkpt>
      <trkpt lat="20.22923167" lon="-98.73653333">
        <ele>2221.0</ele>
        <time>2019-10-12T14:55:02.881Z</time>
      </trkpt>
      <trkpt lat="20.22924167" lon="-98.73654667">
        <ele>2221.0</ele>
        <time>2019-10-12T14:55:03.884Z</time>
      </trkpt>
      <trkpt lat="20.229255" lon="-98.73656">
        <ele>2221.0</ele>
        <time>2019-10-12T14:55:04.884Z</time>
      </trkpt>
      <trkpt lat="20.22926833" lon="-98.73657333">
        <ele>2220.0</ele>
        <time>2019-10-12T14:55:05.886Z</time>
      </trkpt>
      <trkpt lat="20.22928" lon="-98.73658667">
        <ele>2221.0</ele>
        <time>2019-10-12T14:55:06.889Z</time>
      </trkpt>
      <trkpt lat="20.229285" lon="-98.7366">
        <ele>2221.0</ele>
        <time>2019-10-12T14:55:07.896Z</time>
      </trkpt>
      <trkpt lat="20.22929" lon="-98.73661333">
        <ele>2222.0</ele>
        <time>2019-10-12T14:55:08.901Z</time>
      </trkpt>
      <trkpt lat="20.229295" lon="-98.73662">
        <ele>2223.0</ele>
        <time>2019-10-12T14:55:09.905Z</time>
      </trkpt>
      <trkpt lat="20.22929833" lon="-98.73663333">
        <ele>2223.0</ele>
        <time>2019-10-12T14:55:10.910Z</time>
      </trkpt>
      <trkpt lat="20.22930333" lon="-98.73665167">
        <ele>2224.0</ele>
        <time>2019-10-12T14:55:11.917Z</time>
      </trkpt>
      <trkpt lat="20.22931333" lon="-98.736665">
        <ele>2224.0</ele>
        <time>2019-10-12T14:55:12.920Z</time>
      </trkpt>
      <trkpt lat="20.22932333" lon="-98.73668167">
        <ele>2225.0</ele>
        <time>2019-10-12T14:55:13.922Z</time>
      </trkpt>
      <trkpt lat="20.22933333" lon="-98.73669667">
        <ele>2226.0</ele>
        <time>2019-10-12T14:55:14.925Z</time>
      </trkpt>
      <trkpt lat="20.229345" lon="-98.73670833">
        <ele>2226.0</ele>
        <time>2019-10-12T14:55:15.929Z</time>
      </trkpt>
      <trkpt lat="20.229355" lon="-98.73672167">
        <ele>2225.0</ele>
        <time>2019-10-12T14:55:16.929Z</time>
      </trkpt>
      <trkpt lat="20.229365" lon="-98.736735">
        <ele>2225.0</ele>
        <time>2019-10-12T14:55:17.929Z</time>
      </trkpt>
      <trkpt lat="20.229375" lon="-98.73675167">
        <ele>2224.0</ele>
        <time>2019-10-12T14:55:18.929Z</time>
      </trkpt>
      <trkpt lat="20.22938667" lon="-98.736765">
        <ele>2225.0</ele>
        <time>2019-10-12T14:55:19.930Z</time>
      </trkpt>
      <trkpt lat="20.2294" lon="-98.73677833">
        <ele>2225.0</ele>
        <time>2019-10-12T14:55:20.930Z</time>
      </trkpt>
      <trkpt lat="20.22941167" lon="-98.73679">
        <ele>2225.0</ele>
        <time>2019-10-12T14:55:21.930Z</time>
      </trkpt>
      <trkpt lat="20.22942167" lon="-98.73679833">
        <ele>2226.0</ele>
        <time>2019-10-12T14:55:22.931Z</time>
      </trkpt>
      <trkpt lat="20.22942667" lon="-98.73681167">
        <ele>2226.0</ele>
        <time>2019-10-12T14:55:23.931Z</time>
      </trkpt>
      <trkpt lat="20.22943167" lon="-98.73682667">
        <ele>2227.0</ele>
        <time>2019-10-12T14:55:24.931Z</time>
      </trkpt>
      <trkpt lat="20.22944" lon="-98.73684">
        <ele>2227.0</ele>
        <time>2019-10-12T14:55:25.932Z</time>
      </trkpt>
      <trkpt lat="20.22944833" lon="-98.73685333">
        <ele>2228.0</ele>
        <time>2019-10-12T14:55:26.932Z</time>
      </trkpt>
      <trkpt lat="20.22945333" lon="-98.73686833">
        <ele>2228.0</ele>
        <time>2019-10-12T14:55:27.932Z</time>
      </trkpt>
      <trkpt lat="20.22946" lon="-98.73688333">
        <ele>2229.0</ele>
        <time>2019-10-12T14:55:28.932Z</time>
      </trkpt>
      <trkpt lat="20.229465" lon="-98.7369">
        <ele>2229.0</ele>
        <time>2019-10-12T14:55:29.933Z</time>
      </trkpt>
      <trkpt lat="20.22947167" lon="-98.73692">
        <ele>2229.0</ele>
        <time>2019-10-12T14:55:30.934Z</time>
      </trkpt>
      <trkpt lat="20.22948" lon="-98.73693833">
        <ele>2228.0</ele>
        <time>2019-10-12T14:55:31.938Z</time>
      </trkpt>
      <trkpt lat="20.22948833" lon="-98.73695833">
        <ele>2229.0</ele>
        <time>2019-10-12T14:55:32.942Z</time>
      </trkpt>
      <trkpt lat="20.22949667" lon="-98.73697667">
        <ele>2228.0</ele>
        <time>2019-10-12T14:55:33.944Z</time>
      </trkpt>
      <trkpt lat="20.22950667" lon="-98.73699">
        <ele>2228.0</ele>
        <time>2019-10-12T14:55:34.946Z</time>
      </trkpt>
      <trkpt lat="20.229515" lon="-98.73700667">
        <ele>2228.0</ele>
        <time>2019-10-12T14:55:35.949Z</time>
      </trkpt>
      <trkpt lat="20.22952333" lon="-98.737025">
        <ele>2228.0</ele>
        <time>2019-10-12T14:55:36.955Z</time>
      </trkpt>
      <trkpt lat="20.22952667" lon="-98.737045">
        <ele>2229.0</ele>
        <time>2019-10-12T14:55:37.831Z</time>
      </trkpt>
      <trkpt lat="20.22953" lon="-98.73706333">
        <ele>2229.0</ele>
        <time>2019-10-12T14:55:38.840Z</time>
      </trkpt>
      <trkpt lat="20.22953333" lon="-98.73708333">
        <ele>2229.0</ele>
        <time>2019-10-12T14:55:39.842Z</time>
      </trkpt>
      <trkpt lat="20.22953833" lon="-98.7371">
        <ele>2229.0</ele>
        <time>2019-10-12T14:55:40.847Z</time>
      </trkpt>
      <trkpt lat="20.22954167" lon="-98.73711333">
        <ele>2229.0</ele>
        <time>2019-10-12T14:55:41.854Z</time>
      </trkpt>
      <trkpt lat="20.22955" lon="-98.73712833">
        <ele>2228.0</ele>
        <time>2019-10-12T14:55:42.861Z</time>
      </trkpt>
      <trkpt lat="20.22955833" lon="-98.737145">
        <ele>2228.0</ele>
        <time>2019-10-12T14:55:43.867Z</time>
      </trkpt>
      <trkpt lat="20.22956833" lon="-98.73715833">
        <ele>2227.0</ele>
        <time>2019-10-12T14:55:44.874Z</time>
      </trkpt>
      <trkpt lat="20.22957833" lon="-98.73717667">
        <ele>2226.0</ele>
        <time>2019-10-12T14:55:45.876Z</time>
      </trkpt>
      <trkpt lat="20.22959" lon="-98.737195">
        <ele>2226.0</ele>
        <time>2019-10-12T14:55:46.883Z</time>
      </trkpt>
      <trkpt lat="20.2296" lon="-98.73721">
        <ele>2225.0</ele>
        <time>2019-10-12T14:55:47.891Z</time>
      </trkpt>
      <trkpt lat="20.22961333" lon="-98.73722667">
        <ele>2225.0</ele>
        <time>2019-10-12T14:55:48.896Z</time>
      </trkpt>
      <trkpt lat="20.229625" lon="-98.737245">
        <ele>2224.0</ele>
        <time>2019-10-12T14:55:49.898Z</time>
      </trkpt>
      <trkpt lat="20.22963833" lon="-98.73725333">
        <ele>2224.0</ele>
        <time>2019-10-12T14:55:50.898Z</time>
      </trkpt>
      <trkpt lat="20.22965167" lon="-98.73726333">
        <ele>2224.0</ele>
        <time>2019-10-12T14:55:51.899Z</time>
      </trkpt>
      <trkpt lat="20.22966667" lon="-98.73727333">
        <ele>2224.0</ele>
        <time>2019-10-12T14:55:52.903Z</time>
      </trkpt>
      <trkpt lat="20.229685" lon="-98.73727667">
        <ele>2224.0</ele>
        <time>2019-10-12T14:55:53.905Z</time>
      </trkpt>
      <trkpt lat="20.229705" lon="-98.73727833">
        <ele>2224.0</ele>
        <time>2019-10-12T14:55:54.910Z</time>
      </trkpt>
      <trkpt lat="20.22972333" lon="-98.73727833">
        <ele>2224.0</ele>
        <time>2019-10-12T14:55:55.917Z</time>
      </trkpt>
      <trkpt lat="20.22974333" lon="-98.73727833">
        <ele>2225.0</ele>
        <time>2019-10-12T14:55:56.925Z</time>
      </trkpt>
      <trkpt lat="20.22976333" lon="-98.73727833">
        <ele>2225.0</ele>
        <time>2019-10-12T14:55:57.927Z</time>
      </trkpt>
      <trkpt lat="20.22978167" lon="-98.73727667">
        <ele>2225.0</ele>
        <time>2019-10-12T14:55:58.935Z</time>
      </trkpt>
      <trkpt lat="20.2298" lon="-98.73728167">
        <ele>2225.0</ele>
        <time>2019-10-12T14:55:59.942Z</time>
      </trkpt>
      <trkpt lat="20.22982" lon="-98.73728667">
        <ele>2225.0</ele>
        <time>2019-10-12T14:56:00.943Z</time>
      </trkpt>
      <trkpt lat="20.22984167" lon="-98.73729167">
        <ele>2225.0</ele>
        <time>2019-10-12T14:56:01.943Z</time>
      </trkpt>
      <trkpt lat="20.22985833" lon="-98.73729667">
        <ele>2225.0</ele>
        <time>2019-10-12T14:56:02.943Z</time>
      </trkpt>
      <trkpt lat="20.22987667" lon="-98.73730167">
        <ele>2226.0</ele>
        <time>2019-10-12T14:56:03.944Z</time>
      </trkpt>
      <trkpt lat="20.22989333" lon="-98.73730667">
        <ele>2226.0</ele>
        <time>2019-10-12T14:56:04.944Z</time>
      </trkpt>
      <trkpt lat="20.22990833" lon="-98.73731">
        <ele>2226.0</ele>
        <time>2019-10-12T14:56:05.944Z</time>
      </trkpt>
      <trkpt lat="20.22992" lon="-98.737305">
        <ele>2226.0</ele>
        <time>2019-10-12T14:56:06.945Z</time>
      </trkpt>
      <trkpt lat="20.229935" lon="-98.7373">
        <ele>2226.0</ele>
        <time>2019-10-12T14:56:07.945Z</time>
      </trkpt>
      <trkpt lat="20.22995" lon="-98.73729167">
        <ele>2225.0</ele>
        <time>2019-10-12T14:56:08.945Z</time>
      </trkpt>
      <trkpt lat="20.229965" lon="-98.73728333">
        <ele>2224.0</ele>
        <time>2019-10-12T14:56:09.946Z</time>
      </trkpt>
      <trkpt lat="20.22998" lon="-98.73728167">
        <ele>2223.0</ele>
        <time>2019-10-12T14:56:10.946Z</time>
      </trkpt>
      <trkpt lat="20.22999833" lon="-98.73728">
        <ele>2222.0</ele>
        <time>2019-10-12T14:56:11.946Z</time>
      </trkpt>
      <trkpt lat="20.23001833" lon="-98.73728">
        <ele>2222.0</ele>
        <time>2019-10-12T14:56:12.946Z</time>
      </trkpt>
      <trkpt lat="20.23003667" lon="-98.73727667">
        <ele>2222.0</ele>
        <time>2019-10-12T14:56:13.946Z</time>
      </trkpt>
      <trkpt lat="20.23005333" lon="-98.737275">
        <ele>2222.0</ele>
        <time>2019-10-12T14:56:14.946Z</time>
      </trkpt>
      <trkpt lat="20.23007167" lon="-98.73727167">
        <ele>2222.0</ele>
        <time>2019-10-12T14:56:15.947Z</time>
      </trkpt>
      <trkpt lat="20.23009167" lon="-98.73727333">
        <ele>2222.0</ele>
        <time>2019-10-12T14:56:16.947Z</time>
      </trkpt>
      <trkpt lat="20.23011" lon="-98.73727667">
        <ele>2222.0</ele>
        <time>2019-10-12T14:56:17.947Z</time>
      </trkpt>
      <trkpt lat="20.23012667" lon="-98.737285">
        <ele>2221.0</ele>
        <time>2019-10-12T14:56:18.948Z</time>
      </trkpt>
      <trkpt lat="20.230145" lon="-98.73729167">
        <ele>2220.0</ele>
        <time>2019-10-12T14:56:19.948Z</time>
      </trkpt>
      <trkpt lat="20.23016167" lon="-98.73730333">
        <ele>2220.0</ele>
        <time>2019-10-12T14:56:20.948Z</time>
      </trkpt>
      <trkpt lat="20.230175" lon="-98.73732167">
        <ele>2220.0</ele>
        <time>2019-10-12T14:56:21.949Z</time>
      </trkpt>
      <trkpt lat="20.23018833" lon="-98.73734667">
        <ele>2220.0</ele>
        <time>2019-10-12T14:56:22.949Z</time>
      </trkpt>
      <trkpt lat="20.23020167" lon="-98.73736833">
        <ele>2219.0</ele>
        <time>2019-10-12T14:56:23.949Z</time>
      </trkpt>
      <trkpt lat="20.23021667" lon="-98.73738833">
        <ele>2219.0</ele>
        <time>2019-10-12T14:56:24.950Z</time>
      </trkpt>
      <trkpt lat="20.230235" lon="-98.73740333">
        <ele>2220.0</ele>
        <time>2019-10-12T14:56:25.950Z</time>
      </trkpt>
      <trkpt lat="20.23025333" lon="-98.73741667">
        <ele>2220.0</ele>
        <time>2019-10-12T14:56:26.951Z</time>
      </trkpt>
      <trkpt lat="20.23027333" lon="-98.73743333">
        <ele>2221.0</ele>
        <time>2019-10-12T14:56:27.834Z</time>
      </trkpt>
      <trkpt lat="20.23029167" lon="-98.73744833">
        <ele>2221.0</ele>
        <time>2019-10-12T14:56:28.837Z</time>
      </trkpt>
      <trkpt lat="20.23031167" lon="-98.73746167">
        <ele>2222.0</ele>
        <time>2019-10-12T14:56:29.840Z</time>
      </trkpt>
      <trkpt lat="20.23033167" lon="-98.73746333">
        <ele>2222.0</ele>
        <time>2019-10-12T14:56:30.842Z</time>
      </trkpt>
      <trkpt lat="20.23035333" lon="-98.73746">
        <ele>2221.0</ele>
        <time>2019-10-12T14:56:31.847Z</time>
      </trkpt>
      <trkpt lat="20.23037833" lon="-98.73745333">
        <ele>2220.0</ele>
        <time>2019-10-12T14:56:32.851Z</time>
      </trkpt>
      <trkpt lat="20.23040167" lon="-98.73744333">
        <ele>2220.0</ele>
        <time>2019-10-12T14:56:33.852Z</time>
      </trkpt>
      <trkpt lat="20.23042833" lon="-98.73742833">
        <ele>2220.0</ele>
        <time>2019-10-12T14:56:34.854Z</time>
      </trkpt>
      <trkpt lat="20.23045333" lon="-98.737415">
        <ele>2220.0</ele>
        <time>2019-10-12T14:56:35.858Z</time>
      </trkpt>
      <trkpt lat="20.23047833" lon="-98.73739667">
        <ele>2219.0</ele>
        <time>2019-10-12T14:56:36.863Z</time>
      </trkpt>
      <trkpt lat="20.23049667" lon="-98.73737833">
        <ele>2219.0</ele>
        <time>2019-10-12T14:56:37.864Z</time>
      </trkpt>
      <trkpt lat="20.23051833" lon="-98.73736167">
        <ele>2219.0</ele>
        <time>2019-10-12T14:56:38.866Z</time>
      </trkpt>
      <trkpt lat="20.23053333" lon="-98.73734333">
        <ele>2218.0</ele>
        <time>2019-10-12T14:56:39.867Z</time>
      </trkpt>
      <trkpt lat="20.23055167" lon="-98.737325">
        <ele>2218.0</ele>
        <time>2019-10-12T14:56:40.869Z</time>
      </trkpt>
      <trkpt lat="20.23057" lon="-98.73731667">
        <ele>2217.0</ele>
        <time>2019-10-12T14:56:41.876Z</time>
      </trkpt>
      <trkpt lat="20.23058833" lon="-98.73731167">
        <ele>2217.0</ele>
        <time>2019-10-12T14:56:42.880Z</time>
      </trkpt>
      <trkpt lat="20.23061167" lon="-98.73731167">
        <ele>2217.0</ele>
        <time>2019-10-12T14:56:43.884Z</time>
      </trkpt>
      <trkpt lat="20.23063667" lon="-98.73730667">
        <ele>2217.0</ele>
        <time>2019-10-12T14:56:44.890Z</time>
      </trkpt>
      <trkpt lat="20.23066333" lon="-98.73730333">
        <ele>2217.0</ele>
        <time>2019-10-12T14:56:45.894Z</time>
      </trkpt>
      <trkpt lat="20.23069167" lon="-98.737295">
        <ele>2217.0</ele>
        <time>2019-10-12T14:56:46.894Z</time>
      </trkpt>
      <trkpt lat="20.23071667" lon="-98.73728333">
        <ele>2218.0</ele>
        <time>2019-10-12T14:56:47.895Z</time>
      </trkpt>
      <trkpt lat="20.23073833" lon="-98.73728">
        <ele>2217.0</ele>
        <time>2019-10-12T14:56:48.895Z</time>
      </trkpt>
      <trkpt lat="20.23076" lon="-98.73726667">
        <ele>2217.0</ele>
        <time>2019-10-12T14:56:49.895Z</time>
      </trkpt>
      <trkpt lat="20.23078167" lon="-98.73725167">
        <ele>2216.0</ele>
        <time>2019-10-12T14:56:50.896Z</time>
      </trkpt>
      <trkpt lat="20.23080333" lon="-98.73723833">
        <ele>2215.0</ele>
        <time>2019-10-12T14:56:51.896Z</time>
      </trkpt>
      <trkpt lat="20.23082333" lon="-98.73722667">
        <ele>2213.0</ele>
        <time>2019-10-12T14:56:52.896Z</time>
      </trkpt>
      <trkpt lat="20.23085333" lon="-98.73721167">
        <ele>2211.0</ele>
        <time>2019-10-12T14:56:53.897Z</time>
      </trkpt>
      <trkpt lat="20.23087667" lon="-98.73719667">
        <ele>2210.0</ele>
        <time>2019-10-12T14:56:54.897Z</time>
      </trkpt>
      <trkpt lat="20.2309" lon="-98.73717333">
        <ele>2209.0</ele>
        <time>2019-10-12T14:56:55.897Z</time>
      </trkpt>
      <trkpt lat="20.23092167" lon="-98.73716">
        <ele>2208.0</ele>
        <time>2019-10-12T14:56:56.898Z</time>
      </trkpt>
      <trkpt lat="20.230945" lon="-98.73714833">
        <ele>2207.0</ele>
        <time>2019-10-12T14:56:57.898Z</time>
      </trkpt>
      <trkpt lat="20.23096667" lon="-98.737135">
        <ele>2206.0</ele>
        <time>2019-10-12T14:56:58.898Z</time>
      </trkpt>
      <trkpt lat="20.23098333" lon="-98.73712167">
        <ele>2206.0</ele>
        <time>2019-10-12T14:56:59.899Z</time>
      </trkpt>
      <trkpt lat="20.23099833" lon="-98.73710833">
        <ele>2205.0</ele>
        <time>2019-10-12T14:57:00.899Z</time>
      </trkpt>
      <trkpt lat="20.231005" lon="-98.73709833">
        <ele>2205.0</ele>
        <time>2019-10-12T14:57:01.900Z</time>
      </trkpt>
      <trkpt lat="20.23100667" lon="-98.73708167">
        <ele>2205.0</ele>
        <time>2019-10-12T14:57:02.900Z</time>
      </trkpt>
      <trkpt lat="20.23101" lon="-98.73707667">
        <ele>2205.0</ele>
        <time>2019-10-12T14:57:03.900Z</time>
      </trkpt>
      <trkpt lat="20.23101667" lon="-98.73707333">
        <ele>2205.0</ele>
        <time>2019-10-12T14:57:04.901Z</time>
      </trkpt>
      <trkpt lat="20.23102667" lon="-98.73707167">
        <ele>2205.0</ele>
        <time>2019-10-12T14:57:05.901Z</time>
      </trkpt>
      <trkpt lat="20.231035" lon="-98.73706167">
        <ele>2204.0</ele>
        <time>2019-10-12T14:57:06.901Z</time>
      </trkpt>
      <trkpt lat="20.23104" lon="-98.73705167">
        <ele>2203.0</ele>
        <time>2019-10-12T14:57:07.902Z</time>
      </trkpt>
      <trkpt lat="20.23104667" lon="-98.737045">
        <ele>2204.0</ele>
        <time>2019-10-12T14:57:08.902Z</time>
      </trkpt>
      <trkpt lat="20.23105167" lon="-98.73704167">
        <ele>2204.0</ele>
        <time>2019-10-12T14:57:09.902Z</time>
      </trkpt>
      <trkpt lat="20.23105667" lon="-98.73704">
        <ele>2205.0</ele>
        <time>2019-10-12T14:57:10.902Z</time>
      </trkpt>
      <trkpt lat="20.23106167" lon="-98.73703833">
        <ele>2206.0</ele>
        <time>2019-10-12T14:57:11.903Z</time>
      </trkpt>
      <trkpt lat="20.23106333" lon="-98.73703667">
        <ele>2207.0</ele>
        <time>2019-10-12T14:57:12.903Z</time>
      </trkpt>
      <trkpt lat="20.23106833" lon="-98.73703667">
        <ele>2207.0</ele>
        <time>2019-10-12T14:57:13.903Z</time>
      </trkpt>
      <trkpt lat="20.23107333" lon="-98.73703667">
        <ele>2207.0</ele>
        <time>2019-10-12T14:57:14.904Z</time>
      </trkpt>
      <trkpt lat="20.23107667" lon="-98.73703833">
        <ele>2208.0</ele>
        <time>2019-10-12T14:57:15.904Z</time>
      </trkpt>
      <trkpt lat="20.23108333" lon="-98.73704">
        <ele>2209.0</ele>
        <time>2019-10-12T14:57:16.904Z</time>
      </trkpt>
      <trkpt lat="20.23109333" lon="-98.73704">
        <ele>2210.0</ele>
        <time>2019-10-12T14:57:17.905Z</time>
      </trkpt>
      <trkpt lat="20.23110333" lon="-98.73704">
        <ele>2211.0</ele>
        <time>2019-10-12T14:57:18.905Z</time>
      </trkpt>
      <trkpt lat="20.23111667" lon="-98.73704333">
        <ele>2211.0</ele>
        <time>2019-10-12T14:57:19.905Z</time>
      </trkpt>
      <trkpt lat="20.23112667" lon="-98.73705167">
        <ele>2211.0</ele>
        <time>2019-10-12T14:57:20.905Z</time>
      </trkpt>
      <trkpt lat="20.23113833" lon="-98.73706333">
        <ele>2211.0</ele>
        <time>2019-10-12T14:57:21.905Z</time>
      </trkpt>
      <trkpt lat="20.23115333" lon="-98.73707167">
        <ele>2211.0</ele>
        <time>2019-10-12T14:57:22.906Z</time>
      </trkpt>
      <trkpt lat="20.23117333" lon="-98.73708">
        <ele>2213.0</ele>
        <time>2019-10-12T14:57:23.906Z</time>
      </trkpt>
      <trkpt lat="20.23118833" lon="-98.73709667">
        <ele>2214.0</ele>
        <time>2019-10-12T14:57:24.906Z</time>
      </trkpt>
      <trkpt lat="20.231205" lon="-98.73711667">
        <ele>2216.0</ele>
        <time>2019-10-12T14:57:25.907Z</time>
      </trkpt>
      <trkpt lat="20.231225" lon="-98.73713167">
        <ele>2217.0</ele>
        <time>2019-10-12T14:57:26.909Z</time>
      </trkpt>
      <trkpt lat="20.23124833" lon="-98.73714333">
        <ele>2218.0</ele>
        <time>2019-10-12T14:57:27.909Z</time>
      </trkpt>
      <trkpt lat="20.23127" lon="-98.73715833">
        <ele>2218.0</ele>
        <time>2019-10-12T14:57:28.913Z</time>
      </trkpt>
      <trkpt lat="20.231285" lon="-98.73717">
        <ele>2219.0</ele>
        <time>2019-10-12T14:57:29.919Z</time>
      </trkpt>
      <trkpt lat="20.23130167" lon="-98.73718333">
        <ele>2220.0</ele>
        <time>2019-10-12T14:57:30.925Z</time>
      </trkpt>
      <trkpt lat="20.231315" lon="-98.73719167">
        <ele>2220.0</ele>
        <time>2019-10-12T14:57:31.930Z</time>
      </trkpt>
      <trkpt lat="20.23133333" lon="-98.73719667">
        <ele>2220.0</ele>
        <time>2019-10-12T14:57:32.931Z</time>
      </trkpt>
      <trkpt lat="20.23135833" lon="-98.73721333">
        <ele>2220.0</ele>
        <time>2019-10-12T14:57:33.935Z</time>
      </trkpt>
      <trkpt lat="20.23137833" lon="-98.73723">
        <ele>2220.0</ele>
        <time>2019-10-12T14:57:34.938Z</time>
      </trkpt>
      <trkpt lat="20.23140167" lon="-98.73724833">
        <ele>2219.0</ele>
        <time>2019-10-12T14:57:35.942Z</time>
      </trkpt>
      <trkpt lat="20.23142167" lon="-98.73726333">
        <ele>2219.0</ele>
        <time>2019-10-12T14:57:36.945Z</time>
      </trkpt>
      <trkpt lat="20.231445" lon="-98.73728">
        <ele>2219.0</ele>
        <time>2019-10-12T14:57:37.950Z</time>
      </trkpt>
      <trkpt lat="20.23146667" lon="-98.737295">
        <ele>2218.0</ele>
        <time>2019-10-12T14:57:38.954Z</time>
      </trkpt>
      <trkpt lat="20.23148833" lon="-98.73730167">
        <ele>2218.0</ele>
        <time>2019-10-12T14:57:39.834Z</time>
      </trkpt>
      <trkpt lat="20.23151" lon="-98.73730667">
        <ele>2217.0</ele>
        <time>2019-10-12T14:57:40.840Z</time>
      </trkpt>
      <trkpt lat="20.23152833" lon="-98.73731667">
        <ele>2215.0</ele>
        <time>2019-10-12T14:57:41.847Z</time>
      </trkpt>
      <trkpt lat="20.231545" lon="-98.73732333">
        <ele>2214.0</ele>
        <time>2019-10-12T14:57:42.850Z</time>
      </trkpt>
      <trkpt lat="20.23156167" lon="-98.73734">
        <ele>2214.0</ele>
        <time>2019-10-12T14:57:43.850Z</time>
      </trkpt>
      <trkpt lat="20.23157333" lon="-98.737365">
        <ele>2215.0</ele>
        <time>2019-10-12T14:57:44.850Z</time>
      </trkpt>
      <trkpt lat="20.23158" lon="-98.737385">
        <ele>2215.0</ele>
        <time>2019-10-12T14:57:45.851Z</time>
      </trkpt>
      <trkpt lat="20.23158667" lon="-98.73741167">
        <ele>2216.0</ele>
        <time>2019-10-12T14:57:46.851Z</time>
      </trkpt>
      <trkpt lat="20.23159333" lon="-98.73743667">
        <ele>2217.0</ele>
        <time>2019-10-12T14:57:47.851Z</time>
      </trkpt>
      <trkpt lat="20.2316" lon="-98.73746167">
        <ele>2218.0</ele>
        <time>2019-10-12T14:57:48.851Z</time>
      </trkpt>
      <trkpt lat="20.23161333" lon="-98.737495">
        <ele>2219.0</ele>
        <time>2019-10-12T14:57:49.851Z</time>
      </trkpt>
      <trkpt lat="20.23162667" lon="-98.73752333">
        <ele>2220.0</ele>
        <time>2019-10-12T14:57:50.852Z</time>
      </trkpt>
      <trkpt lat="20.23163667" lon="-98.737545">
        <ele>2220.0</ele>
        <time>2019-10-12T14:57:51.852Z</time>
      </trkpt>
      <trkpt lat="20.23164667" lon="-98.737565">
        <ele>2221.0</ele>
        <time>2019-10-12T14:57:52.852Z</time>
      </trkpt>
      <trkpt lat="20.23165167" lon="-98.73758333">
        <ele>2221.0</ele>
        <time>2019-10-12T14:57:53.852Z</time>
      </trkpt>
      <trkpt lat="20.23166" lon="-98.73760667">
        <ele>2222.0</ele>
        <time>2019-10-12T14:57:54.853Z</time>
      </trkpt>
      <trkpt lat="20.23167333" lon="-98.737625">
        <ele>2221.0</ele>
        <time>2019-10-12T14:57:55.858Z</time>
      </trkpt>
      <trkpt lat="20.23169" lon="-98.73764333">
        <ele>2220.0</ele>
        <time>2019-10-12T14:57:56.864Z</time>
      </trkpt>
      <trkpt lat="20.23171" lon="-98.737665">
        <ele>2219.0</ele>
        <time>2019-10-12T14:57:57.868Z</time>
      </trkpt>
      <trkpt lat="20.23173" lon="-98.73768333">
        <ele>2219.0</ele>
        <time>2019-10-12T14:57:58.873Z</time>
      </trkpt>
      <trkpt lat="20.23174667" lon="-98.73770333">
        <ele>2218.0</ele>
        <time>2019-10-12T14:57:59.877Z</time>
      </trkpt>
      <trkpt lat="20.23176333" lon="-98.73771667">
        <ele>2218.0</ele>
        <time>2019-10-12T14:58:00.880Z</time>
      </trkpt>
      <trkpt lat="20.23178" lon="-98.73773667">
        <ele>2219.0</ele>
        <time>2019-10-12T14:58:01.885Z</time>
      </trkpt>
      <trkpt lat="20.23179667" lon="-98.737755">
        <ele>2219.0</ele>
        <time>2019-10-12T14:58:02.892Z</time>
      </trkpt>
      <trkpt lat="20.23181167" lon="-98.737775">
        <ele>2219.0</ele>
        <time>2019-10-12T14:58:03.899Z</time>
      </trkpt>
      <trkpt lat="20.23183" lon="-98.73779333">
        <ele>2219.0</ele>
        <time>2019-10-12T14:58:04.905Z</time>
      </trkpt>
      <trkpt lat="20.23185167" lon="-98.73781">
        <ele>2219.0</ele>
        <time>2019-10-12T14:58:05.909Z</time>
      </trkpt>
      <trkpt lat="20.23187333" lon="-98.73782333">
        <ele>2219.0</ele>
        <time>2019-10-12T14:58:06.915Z</time>
      </trkpt>
      <trkpt lat="20.23189667" lon="-98.73783333">
        <ele>2219.0</ele>
        <time>2019-10-12T14:58:07.920Z</time>
      </trkpt>
      <trkpt lat="20.23192167" lon="-98.73784333">
        <ele>2219.0</ele>
        <time>2019-10-12T14:58:08.927Z</time>
      </trkpt>
      <trkpt lat="20.231945" lon="-98.73784667">
        <ele>2219.0</ele>
        <time>2019-10-12T14:58:09.935Z</time>
      </trkpt>
      <trkpt lat="20.231965" lon="-98.73785333">
        <ele>2219.0</ele>
        <time>2019-10-12T14:58:10.940Z</time>
      </trkpt>
      <trkpt lat="20.23198333" lon="-98.737865">
        <ele>2220.0</ele>
        <time>2019-10-12T14:58:11.940Z</time>
      </trkpt>
      <trkpt lat="20.23200167" lon="-98.73787833">
        <ele>2220.0</ele>
        <time>2019-10-12T14:58:12.941Z</time>
      </trkpt>
      <trkpt lat="20.23201833" lon="-98.73789333">
        <ele>2219.0</ele>
        <time>2019-10-12T14:58:13.945Z</time>
      </trkpt>
      <trkpt lat="20.23203167" lon="-98.73790667">
        <ele>2219.0</ele>
        <time>2019-10-12T14:58:14.951Z</time>
      </trkpt>
      <trkpt lat="20.23204667" lon="-98.737925">
        <ele>2219.0</ele>
        <time>2019-10-12T14:58:15.832Z</time>
      </trkpt>
      <trkpt lat="20.23206167" lon="-98.73793833">
        <ele>2218.0</ele>
        <time>2019-10-12T14:58:16.838Z</time>
      </trkpt>
      <trkpt lat="20.23207833" lon="-98.73794667">
        <ele>2217.0</ele>
        <time>2019-10-12T14:58:17.847Z</time>
      </trkpt>
      <trkpt lat="20.23209" lon="-98.73796333">
        <ele>2217.0</ele>
        <time>2019-10-12T14:58:18.852Z</time>
      </trkpt>
      <trkpt lat="20.23210333" lon="-98.73798">
        <ele>2217.0</ele>
        <time>2019-10-12T14:58:19.856Z</time>
      </trkpt>
      <trkpt lat="20.232115" lon="-98.738">
        <ele>2217.0</ele>
        <time>2019-10-12T14:58:20.858Z</time>
      </trkpt>
      <trkpt lat="20.23213" lon="-98.738015">
        <ele>2216.0</ele>
        <time>2019-10-12T14:58:21.859Z</time>
      </trkpt>
      <trkpt lat="20.23214667" lon="-98.73803167">
        <ele>2216.0</ele>
        <time>2019-10-12T14:58:22.859Z</time>
      </trkpt>
      <trkpt lat="20.23216333" lon="-98.738045">
        <ele>2216.0</ele>
        <time>2019-10-12T14:58:23.859Z</time>
      </trkpt>
      <trkpt lat="20.23217833" lon="-98.73806167">
        <ele>2216.0</ele>
        <time>2019-10-12T14:58:24.859Z</time>
      </trkpt>
      <trkpt lat="20.23219167" lon="-98.73808167">
        <ele>2215.0</ele>
        <time>2019-10-12T14:58:25.860Z</time>
      </trkpt>
      <trkpt lat="20.23220167" lon="-98.7381">
        <ele>2214.0</ele>
        <time>2019-10-12T14:58:26.860Z</time>
      </trkpt>
      <trkpt lat="20.232215" lon="-98.73811667">
        <ele>2214.0</ele>
        <time>2019-10-12T14:58:27.860Z</time>
      </trkpt>
      <trkpt lat="20.23223" lon="-98.73813167">
        <ele>2213.0</ele>
        <time>2019-10-12T14:58:28.860Z</time>
      </trkpt>
      <trkpt lat="20.23224833" lon="-98.73815">
        <ele>2213.0</ele>
        <time>2019-10-12T14:58:29.860Z</time>
      </trkpt>
      <trkpt lat="20.23226667" lon="-98.73816333">
        <ele>2213.0</ele>
        <time>2019-10-12T14:58:30.861Z</time>
      </trkpt>
      <trkpt lat="20.23228667" lon="-98.73817167">
        <ele>2212.0</ele>
        <time>2019-10-12T14:58:31.861Z</time>
      </trkpt>
      <trkpt lat="20.23230667" lon="-98.73817833">
        <ele>2211.0</ele>
        <time>2019-10-12T14:58:32.861Z</time>
      </trkpt>
      <trkpt lat="20.23232667" lon="-98.73819">
        <ele>2211.0</ele>
        <time>2019-10-12T14:58:33.861Z</time>
      </trkpt>
      <trkpt lat="20.23234667" lon="-98.73819833">
        <ele>2211.0</ele>
        <time>2019-10-12T14:58:34.861Z</time>
      </trkpt>
      <trkpt lat="20.23236667" lon="-98.73820667">
        <ele>2211.0</ele>
        <time>2019-10-12T14:58:35.862Z</time>
      </trkpt>
      <trkpt lat="20.23238333" lon="-98.73821167">
        <ele>2210.0</ele>
        <time>2019-10-12T14:58:36.862Z</time>
      </trkpt>
      <trkpt lat="20.23240333" lon="-98.738215">
        <ele>2210.0</ele>
        <time>2019-10-12T14:58:37.862Z</time>
      </trkpt>
      <trkpt lat="20.232425" lon="-98.738215">
        <ele>2210.0</ele>
        <time>2019-10-12T14:58:38.862Z</time>
      </trkpt>
      <trkpt lat="20.232445" lon="-98.73821">
        <ele>2211.0</ele>
        <time>2019-10-12T14:58:39.863Z</time>
      </trkpt>
      <trkpt lat="20.23246333" lon="-98.738205">
        <ele>2212.0</ele>
        <time>2019-10-12T14:58:40.863Z</time>
      </trkpt>
      <trkpt lat="20.23247667" lon="-98.7382">
        <ele>2212.0</ele>
        <time>2019-10-12T14:58:41.863Z</time>
      </trkpt>
      <trkpt lat="20.232485" lon="-98.73819833">
        <ele>2213.0</ele>
        <time>2019-10-12T14:58:42.863Z</time>
      </trkpt>
      <trkpt lat="20.23249333" lon="-98.73819667">
        <ele>2213.0</ele>
        <time>2019-10-12T14:58:43.863Z</time>
      </trkpt>
      <trkpt lat="20.23250167" lon="-98.73819167">
        <ele>2214.0</ele>
        <time>2019-10-12T14:58:44.866Z</time>
      </trkpt>
      <trkpt lat="20.23251167" lon="-98.738185">
        <ele>2214.0</ele>
        <time>2019-10-12T14:58:45.873Z</time>
      </trkpt>
      <trkpt lat="20.23252667" lon="-98.73817667">
        <ele>2214.0</ele>
        <time>2019-10-12T14:58:46.877Z</time>
      </trkpt>
      <trkpt lat="20.23254167" lon="-98.73816833">
        <ele>2214.0</ele>
        <time>2019-10-12T14:58:47.879Z</time>
      </trkpt>
      <trkpt lat="20.23255833" lon="-98.73816333">
        <ele>2214.0</ele>
        <time>2019-10-12T14:58:48.883Z</time>
      </trkpt>
      <trkpt lat="20.232575" lon="-98.73815667">
        <ele>2214.0</ele>
        <time>2019-10-12T14:58:49.887Z</time>
      </trkpt>
      <trkpt lat="20.23259167" lon="-98.738145">
        <ele>2213.0</ele>
        <time>2019-10-12T14:58:50.892Z</time>
      </trkpt>
      <trkpt lat="20.23260833" lon="-98.73814">
        <ele>2213.0</ele>
        <time>2019-10-12T14:58:51.896Z</time>
      </trkpt>
      <trkpt lat="20.23262833" lon="-98.738135">
        <ele>2214.0</ele>
        <time>2019-10-12T14:58:52.902Z</time>
      </trkpt>
      <trkpt lat="20.23264667" lon="-98.73813167">
        <ele>2213.0</ele>
        <time>2019-10-12T14:58:53.907Z</time>
      </trkpt>
      <trkpt lat="20.23267" lon="-98.73812667">
        <ele>2213.0</ele>
        <time>2019-10-12T14:58:54.913Z</time>
      </trkpt>
      <trkpt lat="20.23269333" lon="-98.73811167">
        <ele>2212.0</ele>
        <time>2019-10-12T14:58:55.917Z</time>
      </trkpt>
      <trkpt lat="20.232715" lon="-98.73809167">
        <ele>2212.0</ele>
        <time>2019-10-12T14:58:56.924Z</time>
      </trkpt>
      <trkpt lat="20.232735" lon="-98.73807333">
        <ele>2212.0</ele>
        <time>2019-10-12T14:58:57.931Z</time>
      </trkpt>
      <trkpt lat="20.23275333" lon="-98.73805333">
        <ele>2211.0</ele>
        <time>2019-10-12T14:58:58.937Z</time>
      </trkpt>
      <trkpt lat="20.23276833" lon="-98.73803667">
        <ele>2211.0</ele>
        <time>2019-10-12T14:58:59.945Z</time>
      </trkpt>
      <trkpt lat="20.23278333" lon="-98.738015">
        <ele>2210.0</ele>
        <time>2019-10-12T14:59:00.948Z</time>
      </trkpt>
      <trkpt lat="20.23280333" lon="-98.73799833">
        <ele>2210.0</ele>
        <time>2019-10-12T14:59:01.950Z</time>
      </trkpt>
      <trkpt lat="20.232825" lon="-98.73798">
        <ele>2211.0</ele>
        <time>2019-10-12T14:59:02.831Z</time>
      </trkpt>
      <trkpt lat="20.23285167" lon="-98.737965">
        <ele>2212.0</ele>
        <time>2019-10-12T14:59:03.837Z</time>
      </trkpt>
      <trkpt lat="20.23288" lon="-98.73795">
        <ele>2212.0</ele>
        <time>2019-10-12T14:59:04.839Z</time>
      </trkpt>
      <trkpt lat="20.23290667" lon="-98.73793833">
        <ele>2213.0</ele>
        <time>2019-10-12T14:59:05.844Z</time>
      </trkpt>
      <trkpt lat="20.232935" lon="-98.73793667">
        <ele>2214.0</ele>
        <time>2019-10-12T14:59:06.851Z</time>
      </trkpt>
      <trkpt lat="20.232965" lon="-98.73794667">
        <ele>2215.0</ele>
        <time>2019-10-12T14:59:07.857Z</time>
      </trkpt>
      <trkpt lat="20.23298833" lon="-98.73795833">
        <ele>2216.0</ele>
        <time>2019-10-12T14:59:08.861Z</time>
      </trkpt>
      <trkpt lat="20.23301" lon="-98.73797">
        <ele>2215.0</ele>
        <time>2019-10-12T14:59:09.865Z</time>
      </trkpt>
      <trkpt lat="20.233025" lon="-98.73797">
        <ele>2213.0</ele>
        <time>2019-10-12T14:59:10.868Z</time>
      </trkpt>
      <trkpt lat="20.233045" lon="-98.73797">
        <ele>2212.0</ele>
        <time>2019-10-12T14:59:11.869Z</time>
      </trkpt>
      <trkpt lat="20.23307167" lon="-98.73797167">
        <ele>2212.0</ele>
        <time>2019-10-12T14:59:12.869Z</time>
      </trkpt>
      <trkpt lat="20.2331" lon="-98.73797833">
        <ele>2213.0</ele>
        <time>2019-10-12T14:59:13.869Z</time>
      </trkpt>
      <trkpt lat="20.23312333" lon="-98.73797833">
        <ele>2214.0</ele>
        <time>2019-10-12T14:59:14.869Z</time>
      </trkpt>
      <trkpt lat="20.233145" lon="-98.73798167">
        <ele>2215.0</ele>
        <time>2019-10-12T14:59:15.870Z</time>
      </trkpt>
      <trkpt lat="20.23316667" lon="-98.737985">
        <ele>2216.0</ele>
        <time>2019-10-12T14:59:16.877Z</time>
      </trkpt>
      <trkpt lat="20.23318833" lon="-98.73798667">
        <ele>2216.0</ele>
        <time>2019-10-12T14:59:17.883Z</time>
      </trkpt>
      <trkpt lat="20.23321" lon="-98.73798833">
        <ele>2216.0</ele>
        <time>2019-10-12T14:59:18.886Z</time>
      </trkpt>
      <trkpt lat="20.23323333" lon="-98.73799333">
        <ele>2216.0</ele>
        <time>2019-10-12T14:59:19.886Z</time>
      </trkpt>
      <trkpt lat="20.23325667" lon="-98.737995">
        <ele>2217.0</ele>
        <time>2019-10-12T14:59:20.890Z</time>
      </trkpt>
      <trkpt lat="20.23327667" lon="-98.738">
        <ele>2216.0</ele>
        <time>2019-10-12T14:59:21.893Z</time>
      </trkpt>
      <trkpt lat="20.233295" lon="-98.73800667">
        <ele>2216.0</ele>
        <time>2019-10-12T14:59:22.893Z</time>
      </trkpt>
      <trkpt lat="20.23331" lon="-98.73801667">
        <ele>2215.0</ele>
        <time>2019-10-12T14:59:23.893Z</time>
      </trkpt>
      <trkpt lat="20.233335" lon="-98.73803667">
        <ele>2214.0</ele>
        <time>2019-10-12T14:59:24.895Z</time>
      </trkpt>
      <trkpt lat="20.23335833" lon="-98.73805667">
        <ele>2214.0</ele>
        <time>2019-10-12T14:59:25.896Z</time>
      </trkpt>
      <trkpt lat="20.23338333" lon="-98.73807667">
        <ele>2214.0</ele>
        <time>2019-10-12T14:59:26.899Z</time>
      </trkpt>
      <trkpt lat="20.23341167" lon="-98.73809">
        <ele>2214.0</ele>
        <time>2019-10-12T14:59:27.900Z</time>
      </trkpt>
      <trkpt lat="20.233435" lon="-98.73810333">
        <ele>2215.0</ele>
        <time>2019-10-12T14:59:28.901Z</time>
      </trkpt>
      <trkpt lat="20.233455" lon="-98.73811667">
        <ele>2216.0</ele>
        <time>2019-10-12T14:59:29.902Z</time>
      </trkpt>
      <trkpt lat="20.233475" lon="-98.73813167">
        <ele>2216.0</ele>
        <time>2019-10-12T14:59:30.904Z</time>
      </trkpt>
      <trkpt lat="20.23349667" lon="-98.738145">
        <ele>2217.0</ele>
        <time>2019-10-12T14:59:31.907Z</time>
      </trkpt>
      <trkpt lat="20.23352" lon="-98.73815">
        <ele>2216.0</ele>
        <time>2019-10-12T14:59:32.914Z</time>
      </trkpt>
      <trkpt lat="20.233545" lon="-98.73815667">
        <ele>2216.0</ele>
        <time>2019-10-12T14:59:33.918Z</time>
      </trkpt>
      <trkpt lat="20.23356833" lon="-98.73816167">
        <ele>2215.0</ele>
        <time>2019-10-12T14:59:34.921Z</time>
      </trkpt>
      <trkpt lat="20.23358833" lon="-98.73816667">
        <ele>2214.0</ele>
        <time>2019-10-12T14:59:35.925Z</time>
      </trkpt>
      <trkpt lat="20.23361167" lon="-98.738175">
        <ele>2214.0</ele>
        <time>2019-10-12T14:59:36.929Z</time>
      </trkpt>
      <trkpt lat="20.23363667" lon="-98.73818167">
        <ele>2214.0</ele>
        <time>2019-10-12T14:59:37.936Z</time>
      </trkpt>
      <trkpt lat="20.23366" lon="-98.73818667">
        <ele>2213.0</ele>
        <time>2019-10-12T14:59:38.938Z</time>
      </trkpt>
      <trkpt lat="20.23368167" lon="-98.73820333">
        <ele>2212.0</ele>
        <time>2019-10-12T14:59:39.938Z</time>
      </trkpt>
      <trkpt lat="20.23370167" lon="-98.73822667">
        <ele>2211.0</ele>
        <time>2019-10-12T14:59:40.938Z</time>
      </trkpt>
      <trkpt lat="20.23372" lon="-98.73824">
        <ele>2210.0</ele>
        <time>2019-10-12T14:59:41.938Z</time>
      </trkpt>
      <trkpt lat="20.23374333" lon="-98.738255">
        <ele>2209.0</ele>
        <time>2019-10-12T14:59:42.938Z</time>
      </trkpt>
      <trkpt lat="20.233765" lon="-98.73826333">
        <ele>2209.0</ele>
        <time>2019-10-12T14:59:43.939Z</time>
      </trkpt>
      <trkpt lat="20.23379" lon="-98.73826833">
        <ele>2209.0</ele>
        <time>2019-10-12T14:59:44.939Z</time>
      </trkpt>
      <trkpt lat="20.23381333" lon="-98.73828833">
        <ele>2209.0</ele>
        <time>2019-10-12T14:59:45.939Z</time>
      </trkpt>
      <trkpt lat="20.23383167" lon="-98.73829667">
        <ele>2208.0</ele>
        <time>2019-10-12T14:59:46.939Z</time>
      </trkpt>
      <trkpt lat="20.23384667" lon="-98.73830333">
        <ele>2207.0</ele>
        <time>2019-10-12T14:59:47.940Z</time>
      </trkpt>
      <trkpt lat="20.233865" lon="-98.73831333">
        <ele>2206.0</ele>
        <time>2019-10-12T14:59:48.940Z</time>
      </trkpt>
      <trkpt lat="20.233885" lon="-98.738325">
        <ele>2206.0</ele>
        <time>2019-10-12T14:59:49.940Z</time>
      </trkpt>
      <trkpt lat="20.23390333" lon="-98.73832833">
        <ele>2206.0</ele>
        <time>2019-10-12T14:59:50.940Z</time>
      </trkpt>
      <trkpt lat="20.23391833" lon="-98.73833667">
        <ele>2205.0</ele>
        <time>2019-10-12T14:59:51.940Z</time>
      </trkpt>
      <trkpt lat="20.23393333" lon="-98.73835">
        <ele>2205.0</ele>
        <time>2019-10-12T14:59:52.943Z</time>
      </trkpt>
      <trkpt lat="20.23394833" lon="-98.73836667">
        <ele>2204.0</ele>
        <time>2019-10-12T14:59:53.950Z</time>
      </trkpt>
      <trkpt lat="20.23396" lon="-98.73838167">
        <ele>2204.0</ele>
        <time>2019-10-12T14:59:54.831Z</time>
      </trkpt>
      <trkpt lat="20.23397667" lon="-98.73840333">
        <ele>2203.0</ele>
        <time>2019-10-12T14:59:55.835Z</time>
      </trkpt>
      <trkpt lat="20.23399" lon="-98.73841667">
        <ele>2202.0</ele>
        <time>2019-10-12T14:59:56.837Z</time>
      </trkpt>
      <trkpt lat="20.234005" lon="-98.73843">
        <ele>2203.0</ele>
        <time>2019-10-12T14:59:57.841Z</time>
      </trkpt>
      <trkpt lat="20.23401833" lon="-98.738435">
        <ele>2202.0</ele>
        <time>2019-10-12T14:59:58.845Z</time>
      </trkpt>
      <trkpt lat="20.234035" lon="-98.73843667">
        <ele>2201.0</ele>
        <time>2019-10-12T14:59:59.848Z</time>
      </trkpt>
      <trkpt lat="20.23405167" lon="-98.73843667">
        <ele>2201.0</ele>
        <time>2019-10-12T15:00:00.856Z</time>
      </trkpt>
      <trkpt lat="20.23406833" lon="-98.73844167">
        <ele>2201.0</ele>
        <time>2019-10-12T15:00:01.863Z</time>
      </trkpt>
      <trkpt lat="20.23408333" lon="-98.73845167">
        <ele>2200.0</ele>
        <time>2019-10-12T15:00:02.868Z</time>
      </trkpt>
      <trkpt lat="20.2341" lon="-98.738465">
        <ele>2200.0</ele>
        <time>2019-10-12T15:00:03.870Z</time>
      </trkpt>
      <trkpt lat="20.23412167" lon="-98.738475">
        <ele>2200.0</ele>
        <time>2019-10-12T15:00:04.872Z</time>
      </trkpt>
      <trkpt lat="20.23413833" lon="-98.738485">
        <ele>2201.0</ele>
        <time>2019-10-12T15:00:05.877Z</time>
      </trkpt>
      <trkpt lat="20.23415333" lon="-98.73849333">
        <ele>2201.0</ele>
        <time>2019-10-12T15:00:06.881Z</time>
      </trkpt>
      <trkpt lat="20.23417333" lon="-98.73850333">
        <ele>2201.0</ele>
        <time>2019-10-12T15:00:07.881Z</time>
      </trkpt>
      <trkpt lat="20.23419333" lon="-98.738505">
        <ele>2201.0</ele>
        <time>2019-10-12T15:00:08.881Z</time>
      </trkpt>
      <trkpt lat="20.234215" lon="-98.73850333">
        <ele>2201.0</ele>
        <time>2019-10-12T15:00:09.881Z</time>
      </trkpt>
      <trkpt lat="20.23423333" lon="-98.738495">
        <ele>2201.0</ele>
        <time>2019-10-12T15:00:10.883Z</time>
      </trkpt>
      <trkpt lat="20.23425" lon="-98.73848667">
        <ele>2201.0</ele>
        <time>2019-10-12T15:00:11.889Z</time>
      </trkpt>
      <trkpt lat="20.23426167" lon="-98.73848333">
        <ele>2201.0</ele>
        <time>2019-10-12T15:00:12.894Z</time>
      </trkpt>
      <trkpt lat="20.23427667" lon="-98.73847833">
        <ele>2202.0</ele>
        <time>2019-10-12T15:00:13.898Z</time>
      </trkpt>
      <trkpt lat="20.23428333" lon="-98.73847667">
        <ele>2202.0</ele>
        <time>2019-10-12T15:00:14.899Z</time>
      </trkpt>
      <trkpt lat="20.23428667" lon="-98.73847667">
        <ele>2202.0</ele>
        <time>2019-10-12T15:00:15.904Z</time>
      </trkpt>
      <trkpt lat="20.23428833" lon="-98.73847333">
        <ele>2202.0</ele>
        <time>2019-10-12T15:00:16.905Z</time>
      </trkpt>
      <trkpt lat="20.23428667" lon="-98.73847">
        <ele>2202.0</ele>
        <time>2019-10-12T15:00:17.905Z</time>
      </trkpt>
      <trkpt lat="20.23429167" lon="-98.738475">
        <ele>2203.0</ele>
        <time>2019-10-12T15:00:18.909Z</time>
      </trkpt>
      <trkpt lat="20.23430333" lon="-98.73848333">
        <ele>2203.0</ele>
        <time>2019-10-12T15:00:19.912Z</time>
      </trkpt>
      <trkpt lat="20.23431833" lon="-98.738485">
        <ele>2203.0</ele>
        <time>2019-10-12T15:00:20.919Z</time>
      </trkpt>
      <trkpt lat="20.23433833" lon="-98.73848333">
        <ele>2203.0</ele>
        <time>2019-10-12T15:00:21.922Z</time>
      </trkpt>
      <trkpt lat="20.23436" lon="-98.73848">
        <ele>2203.0</ele>
        <time>2019-10-12T15:00:22.928Z</time>
      </trkpt>
      <trkpt lat="20.23437833" lon="-98.73846833">
        <ele>2203.0</ele>
        <time>2019-10-12T15:00:23.934Z</time>
      </trkpt>
      <trkpt lat="20.23439667" lon="-98.73846">
        <ele>2203.0</ele>
        <time>2019-10-12T15:00:24.940Z</time>
      </trkpt>
      <trkpt lat="20.23441333" lon="-98.73844833">
        <ele>2203.0</ele>
        <time>2019-10-12T15:00:25.943Z</time>
      </trkpt>
      <trkpt lat="20.23443167" lon="-98.73843667">
        <ele>2202.0</ele>
        <time>2019-10-12T15:00:26.948Z</time>
      </trkpt>
      <trkpt lat="20.23445" lon="-98.73842833">
        <ele>2202.0</ele>
        <time>2019-10-12T15:00:27.948Z</time>
      </trkpt>
      <trkpt lat="20.23446667" lon="-98.738425">
        <ele>2201.0</ele>
        <time>2019-10-12T15:00:28.949Z</time>
      </trkpt>
      <trkpt lat="20.23448167" lon="-98.738415">
        <ele>2200.0</ele>
        <time>2019-10-12T15:00:29.949Z</time>
      </trkpt>
      <trkpt lat="20.23449667" lon="-98.7384">
        <ele>2199.0</ele>
        <time>2019-10-12T15:00:30.949Z</time>
      </trkpt>
      <trkpt lat="20.23451333" lon="-98.73838667">
        <ele>2199.0</ele>
        <time>2019-10-12T15:00:31.949Z</time>
      </trkpt>
      <trkpt lat="20.23452833" lon="-98.73836667">
        <ele>2198.0</ele>
        <time>2019-10-12T15:00:32.950Z</time>
      </trkpt>
      <trkpt lat="20.23454333" lon="-98.73834833">
        <ele>2197.0</ele>
        <time>2019-10-12T15:00:33.832Z</time>
      </trkpt>
      <trkpt lat="20.234555" lon="-98.73833333">
        <ele>2197.0</ele>
        <time>2019-10-12T15:00:34.840Z</time>
      </trkpt>
      <trkpt lat="20.23456333" lon="-98.73832167">
        <ele>2196.0</ele>
        <time>2019-10-12T15:00:35.847Z</time>
      </trkpt>
      <trkpt lat="20.23457333" lon="-98.73831333">
        <ele>2195.0</ele>
        <time>2019-10-12T15:00:36.851Z</time>
      </trkpt>
      <trkpt lat="20.23458667" lon="-98.73830833">
        <ele>2194.0</ele>
        <time>2019-10-12T15:00:37.858Z</time>
      </trkpt>
      <trkpt lat="20.23460333" lon="-98.73829833">
        <ele>2194.0</ele>
        <time>2019-10-12T15:00:38.863Z</time>
      </trkpt>
      <trkpt lat="20.23461667" lon="-98.73828">
        <ele>2193.0</ele>
        <time>2019-10-12T15:00:39.867Z</time>
      </trkpt>
      <trkpt lat="20.234625" lon="-98.73827">
        <ele>2193.0</ele>
        <time>2019-10-12T15:00:40.873Z</time>
      </trkpt>
      <trkpt lat="20.234635" lon="-98.738255">
        <ele>2192.0</ele>
        <time>2019-10-12T15:00:41.878Z</time>
      </trkpt>
      <trkpt lat="20.234645" lon="-98.73823167">
        <ele>2190.0</ele>
        <time>2019-10-12T15:00:42.882Z</time>
      </trkpt>
      <trkpt lat="20.23465167" lon="-98.738205">
        <ele>2189.0</ele>
        <time>2019-10-12T15:00:43.889Z</time>
      </trkpt>
      <trkpt lat="20.23465667" lon="-98.73818">
        <ele>2188.0</ele>
        <time>2019-10-12T15:00:44.892Z</time>
      </trkpt>
      <trkpt lat="20.23466333" lon="-98.73815667">
        <ele>2187.0</ele>
        <time>2019-10-12T15:00:45.892Z</time>
      </trkpt>
      <trkpt lat="20.23467333" lon="-98.73812833">
        <ele>2187.0</ele>
        <time>2019-10-12T15:00:46.893Z</time>
      </trkpt>
      <trkpt lat="20.23468833" lon="-98.73810667">
        <ele>2187.0</ele>
        <time>2019-10-12T15:00:47.893Z</time>
      </trkpt>
      <trkpt lat="20.23469833" lon="-98.73808667">
        <ele>2187.0</ele>
        <time>2019-10-12T15:00:48.893Z</time>
      </trkpt>
      <trkpt lat="20.23470833" lon="-98.73806">
        <ele>2188.0</ele>
        <time>2019-10-12T15:00:49.894Z</time>
      </trkpt>
      <trkpt lat="20.23471167" lon="-98.738035">
        <ele>2188.0</ele>
        <time>2019-10-12T15:00:50.894Z</time>
      </trkpt>
      <trkpt lat="20.23471333" lon="-98.73801333">
        <ele>2187.0</ele>
        <time>2019-10-12T15:00:51.894Z</time>
      </trkpt>
      <trkpt lat="20.23471833" lon="-98.73799">
        <ele>2187.0</ele>
        <time>2019-10-12T15:00:52.894Z</time>
      </trkpt>
      <trkpt lat="20.23471833" lon="-98.737965">
        <ele>2186.0</ele>
        <time>2019-10-12T15:00:53.895Z</time>
      </trkpt>
      <trkpt lat="20.234715" lon="-98.73793667">
        <ele>2184.0</ele>
        <time>2019-10-12T15:00:54.895Z</time>
      </trkpt>
      <trkpt lat="20.23471667" lon="-98.73791833">
        <ele>2183.0</ele>
        <time>2019-10-12T15:00:55.896Z</time>
      </trkpt>
      <trkpt lat="20.234715" lon="-98.73790333">
        <ele>2183.0</ele>
        <time>2019-10-12T15:00:56.896Z</time>
      </trkpt>
      <trkpt lat="20.23470333" lon="-98.7379">
        <ele>2183.0</ele>
        <time>2019-10-12T15:00:57.896Z</time>
      </trkpt>
      <trkpt lat="20.234695" lon="-98.73789167">
        <ele>2182.0</ele>
        <time>2019-10-12T15:00:58.897Z</time>
      </trkpt>
      <trkpt lat="20.23469167" lon="-98.73789">
        <ele>2182.0</ele>
        <time>2019-10-12T15:00:59.901Z</time>
      </trkpt>
      <trkpt lat="20.23469333" lon="-98.737885">
        <ele>2182.0</ele>
        <time>2019-10-12T15:01:00.904Z</time>
      </trkpt>
      <trkpt lat="20.23469167" lon="-98.73788667">
        <ele>2182.0</ele>
        <time>2019-10-12T15:01:01.910Z</time>
      </trkpt>
      <trkpt lat="20.23469833" lon="-98.73788833">
        <ele>2181.0</ele>
        <time>2019-10-12T15:01:02.914Z</time>
      </trkpt>
      <trkpt lat="20.23470167" lon="-98.737885">
        <ele>2180.0</ele>
        <time>2019-10-12T15:01:03.921Z</time>
      </trkpt>
      <trkpt lat="20.23470167" lon="-98.73788">
        <ele>2180.0</ele>
        <time>2019-10-12T15:01:04.924Z</time>
      </trkpt>
      <trkpt lat="20.23469833" lon="-98.73787167">
        <ele>2180.0</ele>
        <time>2019-10-12T15:01:05.930Z</time>
      </trkpt>
      <trkpt lat="20.23468833" lon="-98.737855">
        <ele>2180.0</ele>
        <time>2019-10-12T15:01:06.933Z</time>
      </trkpt>
      <trkpt lat="20.23468333" lon="-98.73784">
        <ele>2178.0</ele>
        <time>2019-10-12T15:01:07.938Z</time>
      </trkpt>
      <trkpt lat="20.23468333" lon="-98.737825">
        <ele>2178.0</ele>
        <time>2019-10-12T15:01:08.944Z</time>
      </trkpt>
      <trkpt lat="20.23468333" lon="-98.737815">
        <ele>2177.0</ele>
        <time>2019-10-12T15:01:09.949Z</time>
      </trkpt>
      <trkpt lat="20.234685" lon="-98.73780833">
        <ele>2176.0</ele>
        <time>2019-10-12T15:01:10.955Z</time>
      </trkpt>
      <trkpt lat="20.23468833" lon="-98.73780333">
        <ele>2176.0</ele>
        <time>2019-10-12T15:01:11.836Z</time>
      </trkpt>
      <trkpt lat="20.23469167" lon="-98.73779667">
        <ele>2175.0</ele>
        <time>2019-10-12T15:01:12.843Z</time>
      </trkpt>
      <trkpt lat="20.23469167" lon="-98.73779">
        <ele>2174.0</ele>
        <time>2019-10-12T15:01:13.844Z</time>
      </trkpt>
      <trkpt lat="20.23469167" lon="-98.73777667">
        <ele>2174.0</ele>
        <time>2019-10-12T15:01:14.845Z</time>
      </trkpt>
      <trkpt lat="20.23469" lon="-98.73777">
        <ele>2174.0</ele>
        <time>2019-10-12T15:01:15.846Z</time>
      </trkpt>
      <trkpt lat="20.23469" lon="-98.73776333">
        <ele>2173.0</ele>
        <time>2019-10-12T15:01:16.848Z</time>
      </trkpt>
      <trkpt lat="20.23468667" lon="-98.737755">
        <ele>2172.0</ele>
        <time>2019-10-12T15:01:17.852Z</time>
      </trkpt>
      <trkpt lat="20.23468833" lon="-98.737745">
        <ele>2172.0</ele>
        <time>2019-10-12T15:01:18.856Z</time>
      </trkpt>
      <trkpt lat="20.23469333" lon="-98.73773333">
        <ele>2171.0</ele>
        <time>2019-10-12T15:01:19.862Z</time>
      </trkpt>
      <trkpt lat="20.2347" lon="-98.73772167">
        <ele>2172.0</ele>
        <time>2019-10-12T15:01:20.864Z</time>
      </trkpt>
      <trkpt lat="20.23471333" lon="-98.73770833">
        <ele>2172.0</ele>
        <time>2019-10-12T15:01:21.870Z</time>
      </trkpt>
      <trkpt lat="20.23473" lon="-98.73769167">
        <ele>2173.0</ele>
        <time>2019-10-12T15:01:22.876Z</time>
      </trkpt>
      <trkpt lat="20.23474833" lon="-98.73768167">
        <ele>2173.0</ele>
        <time>2019-10-12T15:01:23.883Z</time>
      </trkpt>
      <trkpt lat="20.23476667" lon="-98.73767">
        <ele>2172.0</ele>
        <time>2019-10-12T15:01:24.888Z</time>
      </trkpt>
      <trkpt lat="20.23478167" lon="-98.73765667">
        <ele>2172.0</ele>
        <time>2019-10-12T15:01:25.893Z</time>
      </trkpt>
      <trkpt lat="20.2348" lon="-98.73763833">
        <ele>2172.0</ele>
        <time>2019-10-12T15:01:26.898Z</time>
      </trkpt>
      <trkpt lat="20.234815" lon="-98.73762167">
        <ele>2171.0</ele>
        <time>2019-10-12T15:01:27.904Z</time>
      </trkpt>
      <trkpt lat="20.23483167" lon="-98.737605">
        <ele>2171.0</ele>
        <time>2019-10-12T15:01:28.909Z</time>
      </trkpt>
      <trkpt lat="20.234845" lon="-98.73758333">
        <ele>2171.0</ele>
        <time>2019-10-12T15:01:29.914Z</time>
      </trkpt>
      <trkpt lat="20.23486167" lon="-98.73756333">
        <ele>2171.0</ele>
        <time>2019-10-12T15:01:30.917Z</time>
      </trkpt>
      <trkpt lat="20.23488" lon="-98.73754333">
        <ele>2171.0</ele>
        <time>2019-10-12T15:01:31.918Z</time>
      </trkpt>
      <trkpt lat="20.23489667" lon="-98.737535">
        <ele>2171.0</ele>
        <time>2019-10-12T15:01:32.919Z</time>
      </trkpt>
      <trkpt lat="20.23491833" lon="-98.73752">
        <ele>2171.0</ele>
        <time>2019-10-12T15:01:33.920Z</time>
      </trkpt>
      <trkpt lat="20.23494333" lon="-98.73750167">
        <ele>2171.0</ele>
        <time>2019-10-12T15:01:34.920Z</time>
      </trkpt>
      <trkpt lat="20.23496333" lon="-98.73748333">
        <ele>2172.0</ele>
        <time>2019-10-12T15:01:35.921Z</time>
      </trkpt>
      <trkpt lat="20.234985" lon="-98.73746667">
        <ele>2172.0</ele>
        <time>2019-10-12T15:01:36.922Z</time>
      </trkpt>
      <trkpt lat="20.23501333" lon="-98.73745833">
        <ele>2172.0</ele>
        <time>2019-10-12T15:01:37.928Z</time>
      </trkpt>
      <trkpt lat="20.23503667" lon="-98.73745">
        <ele>2171.0</ele>
        <time>2019-10-12T15:01:38.933Z</time>
      </trkpt>
      <trkpt lat="20.23506" lon="-98.73744833">
        <ele>2171.0</ele>
        <time>2019-10-12T15:01:39.935Z</time>
      </trkpt>
      <trkpt lat="20.235085" lon="-98.73743833">
        <ele>2171.0</ele>
        <time>2019-10-12T15:01:40.940Z</time>
      </trkpt>
      <trkpt lat="20.23511167" lon="-98.737425">
        <ele>2171.0</ele>
        <time>2019-10-12T15:01:41.946Z</time>
      </trkpt>
      <trkpt lat="20.23514" lon="-98.73740333">
        <ele>2172.0</ele>
        <time>2019-10-12T15:01:42.947Z</time>
      </trkpt>
      <trkpt lat="20.23516833" lon="-98.73739833">
        <ele>2172.0</ele>
        <time>2019-10-12T15:01:43.948Z</time>
      </trkpt>
      <trkpt lat="20.23519667" lon="-98.73739167">
        <ele>2171.0</ele>
        <time>2019-10-12T15:01:44.950Z</time>
      </trkpt>
      <trkpt lat="20.23521833" lon="-98.73739">
        <ele>2170.0</ele>
        <time>2019-10-12T15:01:45.952Z</time>
      </trkpt>
      <trkpt lat="20.235245" lon="-98.73738833">
        <ele>2169.0</ele>
        <time>2019-10-12T15:01:46.954Z</time>
      </trkpt>
      <trkpt lat="20.235265" lon="-98.73739">
        <ele>2168.0</ele>
        <time>2019-10-12T15:01:47.833Z</time>
      </trkpt>
      <trkpt lat="20.23528667" lon="-98.73738667">
        <ele>2166.0</ele>
        <time>2019-10-12T15:01:48.836Z</time>
      </trkpt>
      <trkpt lat="20.23530667" lon="-98.73737667">
        <ele>2165.0</ele>
        <time>2019-10-12T15:01:49.839Z</time>
      </trkpt>
      <trkpt lat="20.23533" lon="-98.73736333">
        <ele>2164.0</ele>
        <time>2019-10-12T15:01:50.846Z</time>
      </trkpt>
      <trkpt lat="20.23534833" lon="-98.73735">
        <ele>2164.0</ele>
        <time>2019-10-12T15:01:51.852Z</time>
      </trkpt>
      <trkpt lat="20.23536667" lon="-98.737335">
        <ele>2163.0</ele>
        <time>2019-10-12T15:01:52.857Z</time>
      </trkpt>
      <trkpt lat="20.23538333" lon="-98.73731667">
        <ele>2162.0</ele>
        <time>2019-10-12T15:01:53.861Z</time>
      </trkpt>
      <trkpt lat="20.23540167" lon="-98.73729833">
        <ele>2162.0</ele>
        <time>2019-10-12T15:01:54.863Z</time>
      </trkpt>
      <trkpt lat="20.23541667" lon="-98.73727833">
        <ele>2161.0</ele>
        <time>2019-10-12T15:01:55.866Z</time>
      </trkpt>
      <trkpt lat="20.23543167" lon="-98.73725833">
        <ele>2160.0</ele>
        <time>2019-10-12T15:01:56.868Z</time>
      </trkpt>
      <trkpt lat="20.235445" lon="-98.737235">
        <ele>2160.0</ele>
        <time>2019-10-12T15:01:57.869Z</time>
      </trkpt>
      <trkpt lat="20.235455" lon="-98.73720833">
        <ele>2159.0</ele>
        <time>2019-10-12T15:01:58.869Z</time>
      </trkpt>
      <trkpt lat="20.23546667" lon="-98.73718667">
        <ele>2159.0</ele>
        <time>2019-10-12T15:01:59.869Z</time>
      </trkpt>
      <trkpt lat="20.23548333" lon="-98.73716167">
        <ele>2159.0</ele>
        <time>2019-10-12T15:02:00.870Z</time>
      </trkpt>
      <trkpt lat="20.2355" lon="-98.73714">
        <ele>2159.0</ele>
        <time>2019-10-12T15:02:01.870Z</time>
      </trkpt>
      <trkpt lat="20.23551667" lon="-98.737125">
        <ele>2158.0</ele>
        <time>2019-10-12T15:02:02.874Z</time>
      </trkpt>
      <trkpt lat="20.23553167" lon="-98.73712">
        <ele>2158.0</ele>
        <time>2019-10-12T15:02:03.881Z</time>
      </trkpt>
      <trkpt lat="20.23554667" lon="-98.73712667">
        <ele>2158.0</ele>
        <time>2019-10-12T15:02:04.889Z</time>
      </trkpt>
      <trkpt lat="20.23556167" lon="-98.73714167">
        <ele>2157.0</ele>
        <time>2019-10-12T15:02:05.892Z</time>
      </trkpt>
      <trkpt lat="20.23557667" lon="-98.73716">
        <ele>2157.0</ele>
        <time>2019-10-12T15:02:06.892Z</time>
      </trkpt>
      <trkpt lat="20.235595" lon="-98.73718167">
        <ele>2156.0</ele>
        <time>2019-10-12T15:02:07.894Z</time>
      </trkpt>
      <trkpt lat="20.235615" lon="-98.73719833">
        <ele>2155.0</ele>
        <time>2019-10-12T15:02:08.896Z</time>
      </trkpt>
      <trkpt lat="20.23563333" lon="-98.73721167">
        <ele>2155.0</ele>
        <time>2019-10-12T15:02:09.900Z</time>
      </trkpt>
      <trkpt lat="20.23565167" lon="-98.73722333">
        <ele>2154.0</ele>
        <time>2019-10-12T15:02:10.903Z</time>
      </trkpt>
      <trkpt lat="20.23567" lon="-98.73724">
        <ele>2153.0</ele>
        <time>2019-10-12T15:02:11.908Z</time>
      </trkpt>
      <trkpt lat="20.23568833" lon="-98.73725833">
        <ele>2153.0</ele>
        <time>2019-10-12T15:02:12.914Z</time>
      </trkpt>
      <trkpt lat="20.23570833" lon="-98.737275">
        <ele>2152.0</ele>
        <time>2019-10-12T15:02:13.920Z</time>
      </trkpt>
      <trkpt lat="20.23572833" lon="-98.73728667">
        <ele>2152.0</ele>
        <time>2019-10-12T15:02:14.920Z</time>
      </trkpt>
      <trkpt lat="20.23574833" lon="-98.73729333">
        <ele>2150.0</ele>
        <time>2019-10-12T15:02:15.925Z</time>
      </trkpt>
      <trkpt lat="20.23577" lon="-98.73729167">
        <ele>2150.0</ele>
        <time>2019-10-12T15:02:16.931Z</time>
      </trkpt>
      <trkpt lat="20.235795" lon="-98.73729">
        <ele>2149.0</ele>
        <time>2019-10-12T15:02:17.938Z</time>
      </trkpt>
      <trkpt lat="20.23581667" lon="-98.737285">
        <ele>2149.0</ele>
        <time>2019-10-12T15:02:18.940Z</time>
      </trkpt>
      <trkpt lat="20.23583333" lon="-98.737275">
        <ele>2149.0</ele>
        <time>2019-10-12T15:02:19.941Z</time>
      </trkpt>
      <trkpt lat="20.23584833" lon="-98.73726333">
        <ele>2149.0</ele>
        <time>2019-10-12T15:02:20.941Z</time>
      </trkpt>
      <trkpt lat="20.23586" lon="-98.73725">
        <ele>2149.0</ele>
        <time>2019-10-12T15:02:21.942Z</time>
      </trkpt>
      <trkpt lat="20.23587" lon="-98.73724">
        <ele>2149.0</ele>
        <time>2019-10-12T15:02:22.943Z</time>
      </trkpt>
      <trkpt lat="20.23588" lon="-98.73722833">
        <ele>2149.0</ele>
        <time>2019-10-12T15:02:23.944Z</time>
      </trkpt>
      <trkpt lat="20.23588667" lon="-98.737215">
        <ele>2148.0</ele>
        <time>2019-10-12T15:02:24.945Z</time>
      </trkpt>
      <trkpt lat="20.235895" lon="-98.73720333">
        <ele>2148.0</ele>
        <time>2019-10-12T15:02:25.945Z</time>
      </trkpt>
      <trkpt lat="20.235905" lon="-98.73719333">
        <ele>2148.0</ele>
        <time>2019-10-12T15:02:26.946Z</time>
      </trkpt>
      <trkpt lat="20.23592" lon="-98.73718833">
        <ele>2148.0</ele>
        <time>2019-10-12T15:02:27.946Z</time>
      </trkpt>
      <trkpt lat="20.23593667" lon="-98.737185">
        <ele>2148.0</ele>
        <time>2019-10-12T15:02:28.947Z</time>
      </trkpt>
      <trkpt lat="20.235955" lon="-98.73718333">
        <ele>2147.0</ele>
        <time>2019-10-12T15:02:29.948Z</time>
      </trkpt>
      <trkpt lat="20.23597333" lon="-98.73718">
        <ele>2146.0</ele>
        <time>2019-10-12T15:02:30.949Z</time>
      </trkpt>
      <trkpt lat="20.23599167" lon="-98.737175">
        <ele>2146.0</ele>
        <time>2019-10-12T15:02:31.949Z</time>
      </trkpt>
      <trkpt lat="20.23601167" lon="-98.73716667">
        <ele>2146.0</ele>
        <time>2019-10-12T15:02:32.950Z</time>
      </trkpt>
      <trkpt lat="20.23603" lon="-98.73716333">
        <ele>2145.0</ele>
        <time>2019-10-12T15:02:33.950Z</time>
      </trkpt>
      <trkpt lat="20.23605" lon="-98.737155">
        <ele>2145.0</ele>
        <time>2019-10-12T15:02:34.951Z</time>
      </trkpt>
      <trkpt lat="20.23607167" lon="-98.73715167">
        <ele>2145.0</ele>
        <time>2019-10-12T15:02:35.952Z</time>
      </trkpt>
      <trkpt lat="20.23609" lon="-98.73714">
        <ele>2145.0</ele>
        <time>2019-10-12T15:02:36.953Z</time>
      </trkpt>
      <trkpt lat="20.23610667" lon="-98.73712833">
        <ele>2145.0</ele>
        <time>2019-10-12T15:02:37.953Z</time>
      </trkpt>
      <trkpt lat="20.23612" lon="-98.73711333">
        <ele>2145.0</ele>
        <time>2019-10-12T15:02:38.954Z</time>
      </trkpt>
      <trkpt lat="20.23612667" lon="-98.73709667">
        <ele>2145.0</ele>
        <time>2019-10-12T15:02:39.830Z</time>
      </trkpt>
      <trkpt lat="20.23613333" lon="-98.73708333">
        <ele>2144.0</ele>
        <time>2019-10-12T15:02:40.831Z</time>
      </trkpt>
      <trkpt lat="20.23614333" lon="-98.73707333">
        <ele>2143.0</ele>
        <time>2019-10-12T15:02:41.832Z</time>
      </trkpt>
      <trkpt lat="20.23615333" lon="-98.73706333">
        <ele>2142.0</ele>
        <time>2019-10-12T15:02:42.833Z</time>
      </trkpt>
      <trkpt lat="20.236165" lon="-98.73705333">
        <ele>2141.0</ele>
        <time>2019-10-12T15:02:43.833Z</time>
      </trkpt>
      <trkpt lat="20.23617667" lon="-98.737045">
        <ele>2141.0</ele>
        <time>2019-10-12T15:02:44.834Z</time>
      </trkpt>
      <trkpt lat="20.23619" lon="-98.73703667">
        <ele>2140.0</ele>
        <time>2019-10-12T15:02:45.835Z</time>
      </trkpt>
      <trkpt lat="20.2362" lon="-98.73702667">
        <ele>2139.0</ele>
        <time>2019-10-12T15:02:46.836Z</time>
      </trkpt>
      <trkpt lat="20.23621333" lon="-98.73701833">
        <ele>2138.0</ele>
        <time>2019-10-12T15:02:47.837Z</time>
      </trkpt>
      <trkpt lat="20.23622833" lon="-98.73701167">
        <ele>2137.0</ele>
        <time>2019-10-12T15:02:48.837Z</time>
      </trkpt>
      <trkpt lat="20.23624333" lon="-98.73700333">
        <ele>2136.0</ele>
        <time>2019-10-12T15:02:49.838Z</time>
      </trkpt>
      <trkpt lat="20.23625833" lon="-98.736995">
        <ele>2135.0</ele>
        <time>2019-10-12T15:02:50.839Z</time>
      </trkpt>
      <trkpt lat="20.23627667" lon="-98.736985">
        <ele>2135.0</ele>
        <time>2019-10-12T15:02:51.840Z</time>
      </trkpt>
      <trkpt lat="20.23629167" lon="-98.736975">
        <ele>2133.0</ele>
        <time>2019-10-12T15:02:52.841Z</time>
      </trkpt>
      <trkpt lat="20.23631" lon="-98.736965">
        <ele>2133.0</ele>
        <time>2019-10-12T15:02:53.842Z</time>
      </trkpt>
      <trkpt lat="20.23633" lon="-98.73695833">
        <ele>2132.0</ele>
        <time>2019-10-12T15:02:54.842Z</time>
      </trkpt>
      <trkpt lat="20.23635167" lon="-98.73695333">
        <ele>2131.0</ele>
        <time>2019-10-12T15:02:55.843Z</time>
      </trkpt>
      <trkpt lat="20.23637333" lon="-98.736945">
        <ele>2131.0</ele>
        <time>2019-10-12T15:02:56.844Z</time>
      </trkpt>
      <trkpt lat="20.23639167" lon="-98.73693333">
        <ele>2131.0</ele>
        <time>2019-10-12T15:02:57.844Z</time>
      </trkpt>
      <trkpt lat="20.23640833" lon="-98.73691667">
        <ele>2130.0</ele>
        <time>2019-10-12T15:02:58.846Z</time>
      </trkpt>
      <trkpt lat="20.23642" lon="-98.7369">
        <ele>2130.0</ele>
        <time>2019-10-12T15:02:59.847Z</time>
      </trkpt>
      <trkpt lat="20.23643333" lon="-98.73688833">
        <ele>2130.0</ele>
        <time>2019-10-12T15:03:00.850Z</time>
      </trkpt>
      <trkpt lat="20.23644833" lon="-98.73687667">
        <ele>2129.0</ele>
        <time>2019-10-12T15:03:01.857Z</time>
      </trkpt>
      <trkpt lat="20.23646333" lon="-98.73686667">
        <ele>2129.0</ele>
        <time>2019-10-12T15:03:02.863Z</time>
      </trkpt>
      <trkpt lat="20.23647" lon="-98.73686167">
        <ele>2129.0</ele>
        <time>2019-10-12T15:03:03.866Z</time>
      </trkpt>
      <trkpt lat="20.23648667" lon="-98.736855">
        <ele>2129.0</ele>
        <time>2019-10-12T15:03:04.868Z</time>
      </trkpt>
      <trkpt lat="20.23650333" lon="-98.73684833">
        <ele>2129.0</ele>
        <time>2019-10-12T15:03:05.872Z</time>
      </trkpt>
      <trkpt lat="20.23651667" lon="-98.73683833">
        <ele>2129.0</ele>
        <time>2019-10-12T15:03:06.874Z</time>
      </trkpt>
      <trkpt lat="20.23653" lon="-98.73683">
        <ele>2129.0</ele>
        <time>2019-10-12T15:03:07.876Z</time>
      </trkpt>
      <trkpt lat="20.23653833" lon="-98.73682167">
        <ele>2129.0</ele>
        <time>2019-10-12T15:03:08.878Z</time>
      </trkpt>
      <trkpt lat="20.236545" lon="-98.73682167">
        <ele>2130.0</ele>
        <time>2019-10-12T15:03:09.885Z</time>
      </trkpt>
      <trkpt lat="20.23655" lon="-98.73681667">
        <ele>2131.0</ele>
        <time>2019-10-12T15:03:10.888Z</time>
      </trkpt>
      <trkpt lat="20.23655167" lon="-98.73681">
        <ele>2131.0</ele>
        <time>2019-10-12T15:03:11.893Z</time>
      </trkpt>
      <trkpt lat="20.23655333" lon="-98.73679833">
        <ele>2130.0</ele>
        <time>2019-10-12T15:03:12.898Z</time>
      </trkpt>
      <trkpt lat="20.23655833" lon="-98.736785">
        <ele>2130.0</ele>
        <time>2019-10-12T15:03:13.904Z</time>
      </trkpt>
      <trkpt lat="20.23657167" lon="-98.73677167">
        <ele>2131.0</ele>
        <time>2019-10-12T15:03:14.908Z</time>
      </trkpt>
      <trkpt lat="20.23659" lon="-98.73676">
        <ele>2130.0</ele>
        <time>2019-10-12T15:03:15.914Z</time>
      </trkpt>
      <trkpt lat="20.23661" lon="-98.73675">
        <ele>2130.0</ele>
        <time>2019-10-12T15:03:16.916Z</time>
      </trkpt>
      <trkpt lat="20.23663333" lon="-98.73674333">
        <ele>2130.0</ele>
        <time>2019-10-12T15:03:17.921Z</time>
      </trkpt>
      <trkpt lat="20.236655" lon="-98.73673333">
        <ele>2130.0</ele>
        <time>2019-10-12T15:03:18.922Z</time>
      </trkpt>
      <trkpt lat="20.236675" lon="-98.73672333">
        <ele>2130.0</ele>
        <time>2019-10-12T15:03:19.923Z</time>
      </trkpt>
      <trkpt lat="20.236695" lon="-98.73670667">
        <ele>2130.0</ele>
        <time>2019-10-12T15:03:20.924Z</time>
      </trkpt>
      <trkpt lat="20.23670833" lon="-98.73669333">
        <ele>2130.0</ele>
        <time>2019-10-12T15:03:21.927Z</time>
      </trkpt>
      <trkpt lat="20.23672333" lon="-98.73667667">
        <ele>2129.0</ele>
        <time>2019-10-12T15:03:22.935Z</time>
      </trkpt>
      <trkpt lat="20.23673833" lon="-98.73666167">
        <ele>2129.0</ele>
        <time>2019-10-12T15:03:23.940Z</time>
      </trkpt>
      <trkpt lat="20.23675167" lon="-98.73665167">
        <ele>2129.0</ele>
        <time>2019-10-12T15:03:24.943Z</time>
      </trkpt>
      <trkpt lat="20.23676167" lon="-98.73664333">
        <ele>2128.0</ele>
        <time>2019-10-12T15:03:25.947Z</time>
      </trkpt>
      <trkpt lat="20.23677833" lon="-98.73663833">
        <ele>2127.0</ele>
        <time>2019-10-12T15:03:26.953Z</time>
      </trkpt>
      <trkpt lat="20.23679667" lon="-98.73663833">
        <ele>2126.0</ele>
        <time>2019-10-12T15:03:27.831Z</time>
      </trkpt>
      <trkpt lat="20.23682333" lon="-98.73664">
        <ele>2126.0</ele>
        <time>2019-10-12T15:03:28.836Z</time>
      </trkpt>
      <trkpt lat="20.23683833" lon="-98.73664">
        <ele>2126.0</ele>
        <time>2019-10-12T15:03:29.841Z</time>
      </trkpt>
      <trkpt lat="20.23685167" lon="-98.73664">
        <ele>2125.0</ele>
        <time>2019-10-12T15:03:30.848Z</time>
      </trkpt>
      <trkpt lat="20.23686" lon="-98.73664167">
        <ele>2125.0</ele>
        <time>2019-10-12T15:03:31.854Z</time>
      </trkpt>
      <trkpt lat="20.23686833" lon="-98.736635">
        <ele>2124.0</ele>
        <time>2019-10-12T15:03:32.856Z</time>
      </trkpt>
      <trkpt lat="20.23688167" lon="-98.73663167">
        <ele>2124.0</ele>
        <time>2019-10-12T15:03:33.860Z</time>
      </trkpt>
      <trkpt lat="20.23690167" lon="-98.73662667">
        <ele>2124.0</ele>
        <time>2019-10-12T15:03:34.864Z</time>
      </trkpt>
      <trkpt lat="20.23692167" lon="-98.73661333">
        <ele>2124.0</ele>
        <time>2019-10-12T15:03:35.870Z</time>
      </trkpt>
      <trkpt lat="20.236935" lon="-98.73660167">
        <ele>2124.0</ele>
        <time>2019-10-12T15:03:36.873Z</time>
      </trkpt>
      <trkpt lat="20.23694833" lon="-98.73659333">
        <ele>2123.0</ele>
        <time>2019-10-12T15:03:37.876Z</time>
      </trkpt>
      <trkpt lat="20.23696" lon="-98.73658667">
        <ele>2122.0</ele>
        <time>2019-10-12T15:03:38.877Z</time>
      </trkpt>
      <trkpt lat="20.23697667" lon="-98.736585">
        <ele>2121.0</ele>
        <time>2019-10-12T15:03:39.882Z</time>
      </trkpt>
      <trkpt lat="20.23699833" lon="-98.73658333">
        <ele>2121.0</ele>
        <time>2019-10-12T15:03:40.886Z</time>
      </trkpt>
      <trkpt lat="20.23701667" lon="-98.73658">
        <ele>2120.0</ele>
        <time>2019-10-12T15:03:41.892Z</time>
      </trkpt>
      <trkpt lat="20.23704333" lon="-98.73657667">
        <ele>2119.0</ele>
        <time>2019-10-12T15:03:42.898Z</time>
      </trkpt>
      <trkpt lat="20.23706167" lon="-98.73657667">
        <ele>2119.0</ele>
        <time>2019-10-12T15:03:43.900Z</time>
      </trkpt>
      <trkpt lat="20.23709167" lon="-98.73658">
        <ele>2118.0</ele>
        <time>2019-10-12T15:03:44.901Z</time>
      </trkpt>
      <trkpt lat="20.23711333" lon="-98.73658">
        <ele>2118.0</ele>
        <time>2019-10-12T15:03:45.905Z</time>
      </trkpt>
      <trkpt lat="20.23714" lon="-98.73657667">
        <ele>2117.0</ele>
        <time>2019-10-12T15:03:46.909Z</time>
      </trkpt>
      <trkpt lat="20.237175" lon="-98.73657833">
        <ele>2117.0</ele>
        <time>2019-10-12T15:03:47.910Z</time>
      </trkpt>
      <trkpt lat="20.23719667" lon="-98.73658167">
        <ele>2117.0</ele>
        <time>2019-10-12T15:03:48.917Z</time>
      </trkpt>
      <trkpt lat="20.23722833" lon="-98.73658333">
        <ele>2116.0</ele>
        <time>2019-10-12T15:03:49.921Z</time>
      </trkpt>
      <trkpt lat="20.237255" lon="-98.73658333">
        <ele>2115.0</ele>
        <time>2019-10-12T15:03:50.926Z</time>
      </trkpt>
      <trkpt lat="20.23728667" lon="-98.73658333">
        <ele>2115.0</ele>
        <time>2019-10-12T15:03:51.932Z</time>
      </trkpt>
      <trkpt lat="20.23730833" lon="-98.73658167">
        <ele>2115.0</ele>
        <time>2019-10-12T15:03:52.934Z</time>
      </trkpt>
      <trkpt lat="20.23734" lon="-98.73658">
        <ele>2114.0</ele>
        <time>2019-10-12T15:03:53.940Z</time>
      </trkpt>
      <trkpt lat="20.23736667" lon="-98.736575">
        <ele>2113.0</ele>
        <time>2019-10-12T15:03:54.946Z</time>
      </trkpt>
      <trkpt lat="20.23739167" lon="-98.736565">
        <ele>2112.0</ele>
        <time>2019-10-12T15:03:55.950Z</time>
      </trkpt>
      <trkpt lat="20.23742" lon="-98.736555">
        <ele>2111.0</ele>
        <time>2019-10-12T15:03:56.951Z</time>
      </trkpt>
      <trkpt lat="20.237445" lon="-98.73654667">
        <ele>2110.0</ele>
        <time>2019-10-12T15:03:57.952Z</time>
      </trkpt>
      <trkpt lat="20.23747" lon="-98.73653167">
        <ele>2109.0</ele>
        <time>2019-10-12T15:03:58.954Z</time>
      </trkpt>
      <trkpt lat="20.23749167" lon="-98.73652333">
        <ele>2108.0</ele>
        <time>2019-10-12T15:03:59.834Z</time>
      </trkpt>
      <trkpt lat="20.23751833" lon="-98.73651833">
        <ele>2108.0</ele>
        <time>2019-10-12T15:04:00.840Z</time>
      </trkpt>
      <trkpt lat="20.23754667" lon="-98.73650833">
        <ele>2107.0</ele>
        <time>2019-10-12T15:04:01.844Z</time>
      </trkpt>
      <trkpt lat="20.23757167" lon="-98.73649667">
        <ele>2106.0</ele>
        <time>2019-10-12T15:04:02.850Z</time>
      </trkpt>
      <trkpt lat="20.23759667" lon="-98.73648333">
        <ele>2105.0</ele>
        <time>2019-10-12T15:04:03.856Z</time>
      </trkpt>
      <trkpt lat="20.23762167" lon="-98.73647333">
        <ele>2105.0</ele>
        <time>2019-10-12T15:04:04.862Z</time>
      </trkpt>
      <trkpt lat="20.23764667" lon="-98.73646167">
        <ele>2104.0</ele>
        <time>2019-10-12T15:04:05.864Z</time>
      </trkpt>
      <trkpt lat="20.23767333" lon="-98.73645333">
        <ele>2104.0</ele>
        <time>2019-10-12T15:04:06.868Z</time>
      </trkpt>
      <trkpt lat="20.23769833" lon="-98.73644">
        <ele>2103.0</ele>
        <time>2019-10-12T15:04:07.873Z</time>
      </trkpt>
      <trkpt lat="20.237725" lon="-98.73642667">
        <ele>2103.0</ele>
        <time>2019-10-12T15:04:08.876Z</time>
      </trkpt>
      <trkpt lat="20.23774833" lon="-98.73641333">
        <ele>2102.0</ele>
        <time>2019-10-12T15:04:09.880Z</time>
      </trkpt>
      <trkpt lat="20.23777333" lon="-98.73639667">
        <ele>2101.0</ele>
        <time>2019-10-12T15:04:10.884Z</time>
      </trkpt>
      <trkpt lat="20.23779667" lon="-98.73638333">
        <ele>2100.0</ele>
        <time>2019-10-12T15:04:11.890Z</time>
      </trkpt>
      <trkpt lat="20.23782167" lon="-98.73636667">
        <ele>2100.0</ele>
        <time>2019-10-12T15:04:12.895Z</time>
      </trkpt>
      <trkpt lat="20.23784667" lon="-98.73634833">
        <ele>2100.0</ele>
        <time>2019-10-12T15:04:13.900Z</time>
      </trkpt>
      <trkpt lat="20.23787167" lon="-98.73633">
        <ele>2100.0</ele>
        <time>2019-10-12T15:04:14.904Z</time>
      </trkpt>
      <trkpt lat="20.23789333" lon="-98.73631">
        <ele>2099.0</ele>
        <time>2019-10-12T15:04:15.909Z</time>
      </trkpt>
      <trkpt lat="20.23791333" lon="-98.73628833">
        <ele>2098.0</ele>
        <time>2019-10-12T15:04:16.913Z</time>
      </trkpt>
      <trkpt lat="20.23793167" lon="-98.73626667">
        <ele>2098.0</ele>
        <time>2019-10-12T15:04:17.915Z</time>
      </trkpt>
      <trkpt lat="20.23794833" lon="-98.73624333">
        <ele>2098.0</ele>
        <time>2019-10-12T15:04:18.920Z</time>
      </trkpt>
      <trkpt lat="20.23796833" lon="-98.73621333">
        <ele>2097.0</ele>
        <time>2019-10-12T15:04:19.926Z</time>
      </trkpt>
      <trkpt lat="20.23797667" lon="-98.73619167">
        <ele>2097.0</ele>
        <time>2019-10-12T15:04:20.933Z</time>
      </trkpt>
      <trkpt lat="20.23799" lon="-98.73616333">
        <ele>2096.0</ele>
        <time>2019-10-12T15:04:21.939Z</time>
      </trkpt>
      <trkpt lat="20.23800333" lon="-98.73613">
        <ele>2095.0</ele>
        <time>2019-10-12T15:04:22.944Z</time>
      </trkpt>
      <trkpt lat="20.23801" lon="-98.73610833">
        <ele>2095.0</ele>
        <time>2019-10-12T15:04:23.948Z</time>
      </trkpt>
      <trkpt lat="20.23802" lon="-98.73608">
        <ele>2095.0</ele>
        <time>2019-10-12T15:04:24.951Z</time>
      </trkpt>
      <trkpt lat="20.23803167" lon="-98.73604667">
        <ele>2094.0</ele>
        <time>2019-10-12T15:04:25.831Z</time>
      </trkpt>
      <trkpt lat="20.23804" lon="-98.73602">
        <ele>2094.0</ele>
        <time>2019-10-12T15:04:26.838Z</time>
      </trkpt>
      <trkpt lat="20.23804667" lon="-98.735985">
        <ele>2094.0</ele>
        <time>2019-10-12T15:04:27.845Z</time>
      </trkpt>
      <trkpt lat="20.23805167" lon="-98.73596167">
        <ele>2093.0</ele>
        <time>2019-10-12T15:04:28.850Z</time>
      </trkpt>
      <trkpt lat="20.23805667" lon="-98.73593">
        <ele>2093.0</ele>
        <time>2019-10-12T15:04:29.853Z</time>
      </trkpt>
      <trkpt lat="20.23805667" lon="-98.73590167">
        <ele>2093.0</ele>
        <time>2019-10-12T15:04:30.854Z</time>
      </trkpt>
      <trkpt lat="20.23805333" lon="-98.73587333">
        <ele>2093.0</ele>
        <time>2019-10-12T15:04:31.859Z</time>
      </trkpt>
      <trkpt lat="20.23804667" lon="-98.73583667">
        <ele>2092.0</ele>
        <time>2019-10-12T15:04:32.864Z</time>
      </trkpt>
      <trkpt lat="20.23803833" lon="-98.73581333">
        <ele>2092.0</ele>
        <time>2019-10-12T15:04:33.868Z</time>
      </trkpt>
      <trkpt lat="20.23802833" lon="-98.73578333">
        <ele>2092.0</ele>
        <time>2019-10-12T15:04:34.873Z</time>
      </trkpt>
      <trkpt lat="20.23801667" lon="-98.735755">
        <ele>2092.0</ele>
        <time>2019-10-12T15:04:35.878Z</time>
      </trkpt>
      <trkpt lat="20.238005" lon="-98.735725">
        <ele>2091.0</ele>
        <time>2019-10-12T15:04:36.883Z</time>
      </trkpt>
      <trkpt lat="20.23799667" lon="-98.735695">
        <ele>2091.0</ele>
        <time>2019-10-12T15:04:37.890Z</time>
      </trkpt>
      <trkpt lat="20.237995" lon="-98.73566667">
        <ele>2090.0</ele>
        <time>2019-10-12T15:04:38.894Z</time>
      </trkpt>
      <trkpt lat="20.23799833" lon="-98.73564167">
        <ele>2090.0</ele>
        <time>2019-10-12T15:04:39.895Z</time>
      </trkpt>
      <trkpt lat="20.23800833" lon="-98.73562167">
        <ele>2089.0</ele>
        <time>2019-10-12T15:04:40.898Z</time>
      </trkpt>
      <trkpt lat="20.23802667" lon="-98.73560667">
        <ele>2088.0</ele>
        <time>2019-10-12T15:04:41.903Z</time>
      </trkpt>
      <trkpt lat="20.23804667" lon="-98.73559333">
        <ele>2087.0</ele>
        <time>2019-10-12T15:04:42.908Z</time>
      </trkpt>
      <trkpt lat="20.23807" lon="-98.735585">
        <ele>2086.0</ele>
        <time>2019-10-12T15:04:43.910Z</time>
      </trkpt>
      <trkpt lat="20.23809333" lon="-98.73557667">
        <ele>2084.0</ele>
        <time>2019-10-12T15:04:44.911Z</time>
      </trkpt>
      <trkpt lat="20.23812" lon="-98.73557">
        <ele>2083.0</ele>
        <time>2019-10-12T15:04:45.916Z</time>
      </trkpt>
      <trkpt lat="20.23815" lon="-98.73556667">
        <ele>2083.0</ele>
        <time>2019-10-12T15:04:46.922Z</time>
      </trkpt>
      <trkpt lat="20.23817833" lon="-98.73555833">
        <ele>2082.0</ele>
        <time>2019-10-12T15:04:47.929Z</time>
      </trkpt>
      <trkpt lat="20.23820667" lon="-98.73555">
        <ele>2081.0</ele>
        <time>2019-10-12T15:04:48.930Z</time>
      </trkpt>
      <trkpt lat="20.23823333" lon="-98.735535">
        <ele>2081.0</ele>
        <time>2019-10-12T15:04:49.931Z</time>
      </trkpt>
      <trkpt lat="20.23825667" lon="-98.73552167">
        <ele>2081.0</ele>
        <time>2019-10-12T15:04:50.932Z</time>
      </trkpt>
      <trkpt lat="20.23827833" lon="-98.73551167">
        <ele>2081.0</ele>
        <time>2019-10-12T15:04:51.933Z</time>
      </trkpt>
      <trkpt lat="20.2383" lon="-98.73549667">
        <ele>2081.0</ele>
        <time>2019-10-12T15:04:52.933Z</time>
      </trkpt>
      <trkpt lat="20.23832" lon="-98.73547667">
        <ele>2081.0</ele>
        <time>2019-10-12T15:04:53.934Z</time>
      </trkpt>
      <trkpt lat="20.23833833" lon="-98.73545667">
        <ele>2081.0</ele>
        <time>2019-10-12T15:04:54.935Z</time>
      </trkpt>
      <trkpt lat="20.23835667" lon="-98.73543667">
        <ele>2080.0</ele>
        <time>2019-10-12T15:04:55.935Z</time>
      </trkpt>
      <trkpt lat="20.23837333" lon="-98.735415">
        <ele>2081.0</ele>
        <time>2019-10-12T15:04:56.935Z</time>
      </trkpt>
      <trkpt lat="20.23838833" lon="-98.735395">
        <ele>2081.0</ele>
        <time>2019-10-12T15:04:57.937Z</time>
      </trkpt>
      <trkpt lat="20.23840167" lon="-98.73537333">
        <ele>2082.0</ele>
        <time>2019-10-12T15:04:58.937Z</time>
      </trkpt>
      <trkpt lat="20.238415" lon="-98.735355">
        <ele>2082.0</ele>
        <time>2019-10-12T15:04:59.938Z</time>
      </trkpt>
      <trkpt lat="20.23842667" lon="-98.73533333">
        <ele>2083.0</ele>
        <time>2019-10-12T15:05:00.939Z</time>
      </trkpt>
      <trkpt lat="20.23843833" lon="-98.73530667">
        <ele>2082.0</ele>
        <time>2019-10-12T15:05:01.943Z</time>
      </trkpt>
      <trkpt lat="20.23845" lon="-98.73528">
        <ele>2083.0</ele>
        <time>2019-10-12T15:05:02.949Z</time>
      </trkpt>
      <trkpt lat="20.23845833" lon="-98.73525167">
        <ele>2083.0</ele>
        <time>2019-10-12T15:05:03.954Z</time>
      </trkpt>
      <trkpt lat="20.23846167" lon="-98.73522167">
        <ele>2084.0</ele>
        <time>2019-10-12T15:05:04.954Z</time>
      </trkpt>
      <trkpt lat="20.23846167" lon="-98.73519167">
        <ele>2084.0</ele>
        <time>2019-10-12T15:05:05.831Z</time>
      </trkpt>
      <trkpt lat="20.23845667" lon="-98.735165">
        <ele>2084.0</ele>
        <time>2019-10-12T15:05:06.836Z</time>
      </trkpt>
      <trkpt lat="20.23843833" lon="-98.73514167">
        <ele>2084.0</ele>
        <time>2019-10-12T15:05:07.836Z</time>
      </trkpt>
      <trkpt lat="20.238415" lon="-98.73512">
        <ele>2084.0</ele>
        <time>2019-10-12T15:05:08.836Z</time>
      </trkpt>
      <trkpt lat="20.23838833" lon="-98.73510167">
        <ele>2084.0</ele>
        <time>2019-10-12T15:05:09.838Z</time>
      </trkpt>
      <trkpt lat="20.23836" lon="-98.73509167">
        <ele>2083.0</ele>
        <time>2019-10-12T15:05:10.844Z</time>
      </trkpt>
      <trkpt lat="20.23833167" lon="-98.73508833">
        <ele>2083.0</ele>
        <time>2019-10-12T15:05:11.846Z</time>
      </trkpt>
      <trkpt lat="20.238305" lon="-98.73508833">
        <ele>2081.0</ele>
        <time>2019-10-12T15:05:12.847Z</time>
      </trkpt>
      <trkpt lat="20.23827667" lon="-98.73509333">
        <ele>2080.0</ele>
        <time>2019-10-12T15:05:13.851Z</time>
      </trkpt>
      <trkpt lat="20.23825333" lon="-98.73509667">
        <ele>2079.0</ele>
        <time>2019-10-12T15:05:14.857Z</time>
      </trkpt>
      <trkpt lat="20.23822167" lon="-98.73510667">
        <ele>2079.0</ele>
        <time>2019-10-12T15:05:15.862Z</time>
      </trkpt>
      <trkpt lat="20.23819333" lon="-98.73511667">
        <ele>2079.0</ele>
        <time>2019-10-12T15:05:16.864Z</time>
      </trkpt>
      <trkpt lat="20.238165" lon="-98.73513167">
        <ele>2079.0</ele>
        <time>2019-10-12T15:05:17.871Z</time>
      </trkpt>
      <trkpt lat="20.238145" lon="-98.73515167">
        <ele>2079.0</ele>
        <time>2019-10-12T15:05:18.878Z</time>
      </trkpt>
      <trkpt lat="20.23813" lon="-98.735175">
        <ele>2079.0</ele>
        <time>2019-10-12T15:05:19.884Z</time>
      </trkpt>
      <trkpt lat="20.23811167" lon="-98.73520833">
        <ele>2078.0</ele>
        <time>2019-10-12T15:05:20.885Z</time>
      </trkpt>
      <trkpt lat="20.23809667" lon="-98.73523833">
        <ele>2078.0</ele>
        <time>2019-10-12T15:05:21.886Z</time>
      </trkpt>
      <trkpt lat="20.23808167" lon="-98.73527">
        <ele>2078.0</ele>
        <time>2019-10-12T15:05:22.888Z</time>
      </trkpt>
      <trkpt lat="20.23806833" lon="-98.7353">
        <ele>2077.0</ele>
        <time>2019-10-12T15:05:23.895Z</time>
      </trkpt>
      <trkpt lat="20.23805333" lon="-98.73532">
        <ele>2077.0</ele>
        <time>2019-10-12T15:05:24.897Z</time>
      </trkpt>
      <trkpt lat="20.23804" lon="-98.73533333">
        <ele>2077.0</ele>
        <time>2019-10-12T15:05:25.902Z</time>
      </trkpt>
      <trkpt lat="20.23802333" lon="-98.73533167">
        <ele>2076.0</ele>
        <time>2019-10-12T15:05:26.907Z</time>
      </trkpt>
      <trkpt lat="20.23800667" lon="-98.73532">
        <ele>2075.0</ele>
        <time>2019-10-12T15:05:27.911Z</time>
      </trkpt>
      <trkpt lat="20.23798833" lon="-98.73530333">
        <ele>2074.0</ele>
        <time>2019-10-12T15:05:28.912Z</time>
      </trkpt>
      <trkpt lat="20.23797" lon="-98.73528667">
        <ele>2074.0</ele>
        <time>2019-10-12T15:05:29.913Z</time>
      </trkpt>
      <trkpt lat="20.23794833" lon="-98.73527667">
        <ele>2074.0</ele>
        <time>2019-10-12T15:05:30.914Z</time>
      </trkpt>
      <trkpt lat="20.23792667" lon="-98.73527167">
        <ele>2074.0</ele>
        <time>2019-10-12T15:05:31.916Z</time>
      </trkpt>
      <trkpt lat="20.23790167" lon="-98.73526333">
        <ele>2074.0</ele>
        <time>2019-10-12T15:05:32.920Z</time>
      </trkpt>
      <trkpt lat="20.23787333" lon="-98.735255">
        <ele>2074.0</ele>
        <time>2019-10-12T15:05:33.926Z</time>
      </trkpt>
      <trkpt lat="20.23784667" lon="-98.73524667">
        <ele>2074.0</ele>
        <time>2019-10-12T15:05:34.931Z</time>
      </trkpt>
      <trkpt lat="20.23781667" lon="-98.735235">
        <ele>2074.0</ele>
        <time>2019-10-12T15:05:35.937Z</time>
      </trkpt>
      <trkpt lat="20.23779" lon="-98.73524">
        <ele>2073.0</ele>
        <time>2019-10-12T15:05:36.944Z</time>
      </trkpt>
      <trkpt lat="20.23776167" lon="-98.73523833">
        <ele>2073.0</ele>
        <time>2019-10-12T15:05:37.946Z</time>
      </trkpt>
      <trkpt lat="20.237735" lon="-98.73524">
        <ele>2073.0</ele>
        <time>2019-10-12T15:05:38.951Z</time>
      </trkpt>
      <trkpt lat="20.237715" lon="-98.73524667">
        <ele>2073.0</ele>
        <time>2019-10-12T15:05:39.832Z</time>
      </trkpt>
      <trkpt lat="20.23769667" lon="-98.735245">
        <ele>2072.0</ele>
        <time>2019-10-12T15:05:40.837Z</time>
      </trkpt>
      <trkpt lat="20.23767167" lon="-98.73524167">
        <ele>2070.0</ele>
        <time>2019-10-12T15:05:41.838Z</time>
      </trkpt>
      <trkpt lat="20.23765333" lon="-98.73523333">
        <ele>2069.0</ele>
        <time>2019-10-12T15:05:42.838Z</time>
      </trkpt>
      <trkpt lat="20.23763333" lon="-98.735215">
        <ele>2069.0</ele>
        <time>2019-10-12T15:05:43.839Z</time>
      </trkpt>
      <trkpt lat="20.23761667" lon="-98.735195">
        <ele>2068.0</ele>
        <time>2019-10-12T15:05:44.840Z</time>
      </trkpt>
      <trkpt lat="20.23760667" lon="-98.73517167">
        <ele>2067.0</ele>
        <time>2019-10-12T15:05:45.840Z</time>
      </trkpt>
      <trkpt lat="20.23759833" lon="-98.73514667">
        <ele>2066.0</ele>
        <time>2019-10-12T15:05:46.840Z</time>
      </trkpt>
      <trkpt lat="20.23759333" lon="-98.73512">
        <ele>2065.0</ele>
        <time>2019-10-12T15:05:47.841Z</time>
      </trkpt>
      <trkpt lat="20.23759167" lon="-98.73509">
        <ele>2065.0</ele>
        <time>2019-10-12T15:05:48.841Z</time>
      </trkpt>
      <trkpt lat="20.23759167" lon="-98.73506167">
        <ele>2065.0</ele>
        <time>2019-10-12T15:05:49.841Z</time>
      </trkpt>
      <trkpt lat="20.23759333" lon="-98.73503167">
        <ele>2065.0</ele>
        <time>2019-10-12T15:05:50.846Z</time>
      </trkpt>
      <trkpt lat="20.23759667" lon="-98.73500167">
        <ele>2065.0</ele>
        <time>2019-10-12T15:05:51.850Z</time>
      </trkpt>
      <trkpt lat="20.2376" lon="-98.734975">
        <ele>2065.0</ele>
        <time>2019-10-12T15:05:52.852Z</time>
      </trkpt>
      <trkpt lat="20.23760167" lon="-98.73494667">
        <ele>2065.0</ele>
        <time>2019-10-12T15:05:53.856Z</time>
      </trkpt>
      <trkpt lat="20.237605" lon="-98.73491833">
        <ele>2065.0</ele>
        <time>2019-10-12T15:05:54.863Z</time>
      </trkpt>
      <trkpt lat="20.23760667" lon="-98.73488667">
        <ele>2065.0</ele>
        <time>2019-10-12T15:05:55.867Z</time>
      </trkpt>
      <trkpt lat="20.23761" lon="-98.73485667">
        <ele>2065.0</ele>
        <time>2019-10-12T15:05:56.873Z</time>
      </trkpt>
      <trkpt lat="20.23761333" lon="-98.73483">
        <ele>2065.0</ele>
        <time>2019-10-12T15:05:57.875Z</time>
      </trkpt>
      <trkpt lat="20.237615" lon="-98.734805">
        <ele>2065.0</ele>
        <time>2019-10-12T15:05:58.880Z</time>
      </trkpt>
      <trkpt lat="20.23761833" lon="-98.73478167">
        <ele>2065.0</ele>
        <time>2019-10-12T15:05:59.882Z</time>
      </trkpt>
      <trkpt lat="20.23762" lon="-98.73475667">
        <ele>2065.0</ele>
        <time>2019-10-12T15:06:00.890Z</time>
      </trkpt>
      <trkpt lat="20.23761833" lon="-98.73473167">
        <ele>2064.0</ele>
        <time>2019-10-12T15:06:01.897Z</time>
      </trkpt>
      <trkpt lat="20.23761667" lon="-98.73470833">
        <ele>2065.0</ele>
        <time>2019-10-12T15:06:02.902Z</time>
      </trkpt>
      <trkpt lat="20.23761833" lon="-98.73468833">
        <ele>2066.0</ele>
        <time>2019-10-12T15:06:03.907Z</time>
      </trkpt>
      <trkpt lat="20.23761667" lon="-98.73466833">
        <ele>2067.0</ele>
        <time>2019-10-12T15:06:04.908Z</time>
      </trkpt>
      <trkpt lat="20.237615" lon="-98.73464833">
        <ele>2068.0</ele>
        <time>2019-10-12T15:06:05.913Z</time>
      </trkpt>
      <trkpt lat="20.237615" lon="-98.73462667">
        <ele>2068.0</ele>
        <time>2019-10-12T15:06:06.915Z</time>
      </trkpt>
      <trkpt lat="20.23761167" lon="-98.73460833">
        <ele>2068.0</ele>
        <time>2019-10-12T15:06:07.917Z</time>
      </trkpt>
      <trkpt lat="20.23761333" lon="-98.73459">
        <ele>2068.0</ele>
        <time>2019-10-12T15:06:08.922Z</time>
      </trkpt>
      <trkpt lat="20.237615" lon="-98.734575">
        <ele>2068.0</ele>
        <time>2019-10-12T15:06:09.929Z</time>
      </trkpt>
      <trkpt lat="20.23761167" lon="-98.73455833">
        <ele>2068.0</ele>
        <time>2019-10-12T15:06:10.935Z</time>
      </trkpt>
      <trkpt lat="20.23760833" lon="-98.73453833">
        <ele>2068.0</ele>
        <time>2019-10-12T15:06:11.941Z</time>
      </trkpt>
      <trkpt lat="20.23760833" lon="-98.73451833">
        <ele>2069.0</ele>
        <time>2019-10-12T15:06:12.946Z</time>
      </trkpt>
      <trkpt lat="20.23760833" lon="-98.73449667">
        <ele>2069.0</ele>
        <time>2019-10-12T15:06:13.951Z</time>
      </trkpt>
      <trkpt lat="20.23761" lon="-98.73447667">
        <ele>2069.0</ele>
        <time>2019-10-12T15:06:14.955Z</time>
      </trkpt>
      <trkpt lat="20.23760833" lon="-98.73445167">
        <ele>2070.0</ele>
        <time>2019-10-12T15:06:15.833Z</time>
      </trkpt>
      <trkpt lat="20.23760667" lon="-98.73442833">
        <ele>2069.0</ele>
        <time>2019-10-12T15:06:16.839Z</time>
      </trkpt>
      <trkpt lat="20.23760833" lon="-98.73441">
        <ele>2069.0</ele>
        <time>2019-10-12T15:06:17.845Z</time>
      </trkpt>
      <trkpt lat="20.23761333" lon="-98.734385">
        <ele>2069.0</ele>
        <time>2019-10-12T15:06:18.848Z</time>
      </trkpt>
      <trkpt lat="20.237615" lon="-98.73436833">
        <ele>2069.0</ele>
        <time>2019-10-12T15:06:19.854Z</time>
      </trkpt>
      <trkpt lat="20.23761667" lon="-98.73434833">
        <ele>2069.0</ele>
        <time>2019-10-12T15:06:20.858Z</time>
      </trkpt>
      <trkpt lat="20.23761833" lon="-98.73433">
        <ele>2069.0</ele>
        <time>2019-10-12T15:06:21.863Z</time>
      </trkpt>
      <trkpt lat="20.23762" lon="-98.73430833">
        <ele>2070.0</ele>
        <time>2019-10-12T15:06:22.864Z</time>
      </trkpt>
      <trkpt lat="20.23762333" lon="-98.734285">
        <ele>2070.0</ele>
        <time>2019-10-12T15:06:23.865Z</time>
      </trkpt>
      <trkpt lat="20.23762667" lon="-98.73426333">
        <ele>2070.0</ele>
        <time>2019-10-12T15:06:24.865Z</time>
      </trkpt>
      <trkpt lat="20.23763333" lon="-98.734245">
        <ele>2071.0</ele>
        <time>2019-10-12T15:06:25.871Z</time>
      </trkpt>
      <trkpt lat="20.23763833" lon="-98.73423">
        <ele>2071.0</ele>
        <time>2019-10-12T15:06:26.877Z</time>
      </trkpt>
      <trkpt lat="20.23764167" lon="-98.73421167">
        <ele>2072.0</ele>
        <time>2019-10-12T15:06:27.879Z</time>
      </trkpt>
      <trkpt lat="20.23764167" lon="-98.734205">
        <ele>2072.0</ele>
        <time>2019-10-12T15:06:28.887Z</time>
      </trkpt>
      <trkpt lat="20.23764167" lon="-98.73419667">
        <ele>2072.0</ele>
        <time>2019-10-12T15:06:29.893Z</time>
      </trkpt>
      <trkpt lat="20.23764667" lon="-98.73418333">
        <ele>2072.0</ele>
        <time>2019-10-12T15:06:30.901Z</time>
      </trkpt>
      <trkpt lat="20.23765333" lon="-98.73416667">
        <ele>2071.0</ele>
        <time>2019-10-12T15:06:31.906Z</time>
      </trkpt>
      <trkpt lat="20.23766167" lon="-98.73414833">
        <ele>2072.0</ele>
        <time>2019-10-12T15:06:32.912Z</time>
      </trkpt>
      <trkpt lat="20.23767167" lon="-98.73413167">
        <ele>2072.0</ele>
        <time>2019-10-12T15:06:33.917Z</time>
      </trkpt>
      <trkpt lat="20.23768" lon="-98.73411833">
        <ele>2072.0</ele>
        <time>2019-10-12T15:06:34.918Z</time>
      </trkpt>
      <trkpt lat="20.237685" lon="-98.73410667">
        <ele>2073.0</ele>
        <time>2019-10-12T15:06:35.923Z</time>
      </trkpt>
      <trkpt lat="20.23769333" lon="-98.73409333">
        <ele>2073.0</ele>
        <time>2019-10-12T15:06:36.930Z</time>
      </trkpt>
      <trkpt lat="20.23770167" lon="-98.73408333">
        <ele>2074.0</ele>
        <time>2019-10-12T15:06:37.936Z</time>
      </trkpt>
      <trkpt lat="20.23771" lon="-98.73406833">
        <ele>2074.0</ele>
        <time>2019-10-12T15:06:38.940Z</time>
      </trkpt>
      <trkpt lat="20.23771833" lon="-98.73405667">
        <ele>2074.0</ele>
        <time>2019-10-12T15:06:39.941Z</time>
      </trkpt>
      <trkpt lat="20.237725" lon="-98.73404">
        <ele>2075.0</ele>
        <time>2019-10-12T15:06:40.942Z</time>
      </trkpt>
      <trkpt lat="20.23773333" lon="-98.73402167">
        <ele>2075.0</ele>
        <time>2019-10-12T15:06:41.947Z</time>
      </trkpt>
      <trkpt lat="20.23773833" lon="-98.73400333">
        <ele>2075.0</ele>
        <time>2019-10-12T15:06:42.955Z</time>
      </trkpt>
      <trkpt lat="20.23774" lon="-98.73398667">
        <ele>2075.0</ele>
        <time>2019-10-12T15:06:43.835Z</time>
      </trkpt>
      <trkpt lat="20.23774167" lon="-98.73397">
        <ele>2075.0</ele>
        <time>2019-10-12T15:06:44.840Z</time>
      </trkpt>
      <trkpt lat="20.23774667" lon="-98.73395167">
        <ele>2076.0</ele>
        <time>2019-10-12T15:06:45.845Z</time>
      </trkpt>
      <trkpt lat="20.23774833" lon="-98.733935">
        <ele>2076.0</ele>
        <time>2019-10-12T15:06:46.852Z</time>
      </trkpt>
      <trkpt lat="20.23774667" lon="-98.733925">
        <ele>2077.0</ele>
        <time>2019-10-12T15:06:47.857Z</time>
      </trkpt>
      <trkpt lat="20.23774667" lon="-98.73390833">
        <ele>2077.0</ele>
        <time>2019-10-12T15:06:48.862Z</time>
      </trkpt>
      <trkpt lat="20.23774667" lon="-98.73389167">
        <ele>2077.0</ele>
        <time>2019-10-12T15:06:49.864Z</time>
      </trkpt>
      <trkpt lat="20.23774833" lon="-98.73387667">
        <ele>2078.0</ele>
        <time>2019-10-12T15:06:50.869Z</time>
      </trkpt>
      <trkpt lat="20.23774833" lon="-98.73386167">
        <ele>2078.0</ele>
        <time>2019-10-12T15:06:51.875Z</time>
      </trkpt>
      <trkpt lat="20.23774833" lon="-98.73384667">
        <ele>2078.0</ele>
        <time>2019-10-12T15:06:52.881Z</time>
      </trkpt>
      <trkpt lat="20.23774833" lon="-98.73383333">
        <ele>2078.0</ele>
        <time>2019-10-12T15:06:53.886Z</time>
      </trkpt>
      <trkpt lat="20.23775167" lon="-98.73382">
        <ele>2078.0</ele>
        <time>2019-10-12T15:06:54.889Z</time>
      </trkpt>
      <trkpt lat="20.237755" lon="-98.733805">
        <ele>2078.0</ele>
        <time>2019-10-12T15:06:55.891Z</time>
      </trkpt>
      <trkpt lat="20.23775833" lon="-98.73378833">
        <ele>2079.0</ele>
        <time>2019-10-12T15:06:56.891Z</time>
      </trkpt>
      <trkpt lat="20.23776" lon="-98.733775">
        <ele>2079.0</ele>
        <time>2019-10-12T15:06:57.898Z</time>
      </trkpt>
      <trkpt lat="20.23776" lon="-98.73376167">
        <ele>2079.0</ele>
        <time>2019-10-12T15:06:58.904Z</time>
      </trkpt>
      <trkpt lat="20.23776167" lon="-98.73374667">
        <ele>2079.0</ele>
        <time>2019-10-12T15:06:59.905Z</time>
      </trkpt>
      <trkpt lat="20.23776333" lon="-98.73373333">
        <ele>2080.0</ele>
        <time>2019-10-12T15:07:00.908Z</time>
      </trkpt>
      <trkpt lat="20.23777" lon="-98.73372">
        <ele>2080.0</ele>
        <time>2019-10-12T15:07:01.914Z</time>
      </trkpt>
      <trkpt lat="20.237775" lon="-98.733705">
        <ele>2080.0</ele>
        <time>2019-10-12T15:07:02.917Z</time>
      </trkpt>
      <trkpt lat="20.23778333" lon="-98.73369">
        <ele>2081.0</ele>
        <time>2019-10-12T15:07:03.918Z</time>
      </trkpt>
      <trkpt lat="20.23779" lon="-98.73367333">
        <ele>2081.0</ele>
        <time>2019-10-12T15:07:04.918Z</time>
      </trkpt>
      <trkpt lat="20.23779833" lon="-98.73366">
        <ele>2082.0</ele>
        <time>2019-10-12T15:07:05.922Z</time>
      </trkpt>
      <trkpt lat="20.237805" lon="-98.73364833">
        <ele>2082.0</ele>
        <time>2019-10-12T15:07:06.925Z</time>
      </trkpt>
      <trkpt lat="20.23781333" lon="-98.73363833">
        <ele>2083.0</ele>
        <time>2019-10-12T15:07:07.931Z</time>
      </trkpt>
      <trkpt lat="20.23782167" lon="-98.73362667">
        <ele>2083.0</ele>
        <time>2019-10-12T15:07:08.936Z</time>
      </trkpt>
      <trkpt lat="20.23783" lon="-98.733615">
        <ele>2083.0</ele>
        <time>2019-10-12T15:07:09.943Z</time>
      </trkpt>
      <trkpt lat="20.23783667" lon="-98.733605">
        <ele>2082.0</ele>
        <time>2019-10-12T15:07:10.948Z</time>
      </trkpt>
      <trkpt lat="20.23784833" lon="-98.7336">
        <ele>2082.0</ele>
        <time>2019-10-12T15:07:11.952Z</time>
      </trkpt>
      <trkpt lat="20.23786" lon="-98.73360333">
        <ele>2083.0</ele>
        <time>2019-10-12T15:07:12.833Z</time>
      </trkpt>
      <trkpt lat="20.23787167" lon="-98.73360667">
        <ele>2083.0</ele>
        <time>2019-10-12T15:07:13.839Z</time>
      </trkpt>
      <trkpt lat="20.237885" lon="-98.73361">
        <ele>2083.0</ele>
        <time>2019-10-12T15:07:14.843Z</time>
      </trkpt>
      <trkpt lat="20.237895" lon="-98.73361833">
        <ele>2082.0</ele>
        <time>2019-10-12T15:07:15.844Z</time>
      </trkpt>
      <trkpt lat="20.23790333" lon="-98.73362833">
        <ele>2082.0</ele>
        <time>2019-10-12T15:07:16.845Z</time>
      </trkpt>
      <trkpt lat="20.23791" lon="-98.73364333">
        <ele>2082.0</ele>
        <time>2019-10-12T15:07:17.846Z</time>
      </trkpt>
      <trkpt lat="20.23791667" lon="-98.73366">
        <ele>2082.0</ele>
        <time>2019-10-12T15:07:18.851Z</time>
      </trkpt>
      <trkpt lat="20.23792333" lon="-98.733675">
        <ele>2082.0</ele>
        <time>2019-10-12T15:07:19.857Z</time>
      </trkpt>
      <trkpt lat="20.23793" lon="-98.73369167">
        <ele>2081.0</ele>
        <time>2019-10-12T15:07:20.859Z</time>
      </trkpt>
      <trkpt lat="20.23793667" lon="-98.73370833">
        <ele>2081.0</ele>
        <time>2019-10-12T15:07:21.864Z</time>
      </trkpt>
      <trkpt lat="20.23794" lon="-98.73372333">
        <ele>2081.0</ele>
        <time>2019-10-12T15:07:22.870Z</time>
      </trkpt>
      <trkpt lat="20.237945" lon="-98.73374167">
        <ele>2081.0</ele>
        <time>2019-10-12T15:07:23.876Z</time>
      </trkpt>
      <trkpt lat="20.23794833" lon="-98.733755">
        <ele>2081.0</ele>
        <time>2019-10-12T15:07:24.882Z</time>
      </trkpt>
      <trkpt lat="20.23795833" lon="-98.73377667">
        <ele>2081.0</ele>
        <time>2019-10-12T15:07:25.886Z</time>
      </trkpt>
      <trkpt lat="20.23797167" lon="-98.73379333">
        <ele>2080.0</ele>
        <time>2019-10-12T15:07:26.889Z</time>
      </trkpt>
      <trkpt lat="20.23798167" lon="-98.73381167">
        <ele>2080.0</ele>
        <time>2019-10-12T15:07:27.892Z</time>
      </trkpt>
      <trkpt lat="20.23799333" lon="-98.73382333">
        <ele>2080.0</ele>
        <time>2019-10-12T15:07:28.897Z</time>
      </trkpt>
      <trkpt lat="20.23800167" lon="-98.73383667">
        <ele>2080.0</ele>
        <time>2019-10-12T15:07:29.902Z</time>
      </trkpt>
      <trkpt lat="20.238015" lon="-98.73385833">
        <ele>2081.0</ele>
        <time>2019-10-12T15:07:30.904Z</time>
      </trkpt>
      <trkpt lat="20.238025" lon="-98.73387333">
        <ele>2081.0</ele>
        <time>2019-10-12T15:07:31.908Z</time>
      </trkpt>
      <trkpt lat="20.238035" lon="-98.73389">
        <ele>2081.0</ele>
        <time>2019-10-12T15:07:32.909Z</time>
      </trkpt>
      <trkpt lat="20.23804333" lon="-98.73390167">
        <ele>2082.0</ele>
        <time>2019-10-12T15:07:33.915Z</time>
      </trkpt>
      <trkpt lat="20.23804833" lon="-98.733915">
        <ele>2081.0</ele>
        <time>2019-10-12T15:07:34.921Z</time>
      </trkpt>
      <trkpt lat="20.238055" lon="-98.733935">
        <ele>2081.0</ele>
        <time>2019-10-12T15:07:35.922Z</time>
      </trkpt>
      <trkpt lat="20.23806333" lon="-98.73395167">
        <ele>2081.0</ele>
        <time>2019-10-12T15:07:36.923Z</time>
      </trkpt>
      <trkpt lat="20.23807167" lon="-98.73397">
        <ele>2082.0</ele>
        <time>2019-10-12T15:07:37.924Z</time>
      </trkpt>
      <trkpt lat="20.23807833" lon="-98.733985">
        <ele>2082.0</ele>
        <time>2019-10-12T15:07:38.925Z</time>
      </trkpt>
      <trkpt lat="20.23809" lon="-98.73400333">
        <ele>2082.0</ele>
        <time>2019-10-12T15:07:39.925Z</time>
      </trkpt>
      <trkpt lat="20.23809833" lon="-98.73401333">
        <ele>2082.0</ele>
        <time>2019-10-12T15:07:40.926Z</time>
      </trkpt>
      <trkpt lat="20.23811167" lon="-98.734025">
        <ele>2082.0</ele>
        <time>2019-10-12T15:07:41.927Z</time>
      </trkpt>
      <trkpt lat="20.23812667" lon="-98.734035">
        <ele>2082.0</ele>
        <time>2019-10-12T15:07:42.932Z</time>
      </trkpt>
      <trkpt lat="20.23814167" lon="-98.73404333">
        <ele>2083.0</ele>
        <time>2019-10-12T15:07:43.940Z</time>
      </trkpt>
      <trkpt lat="20.23815833" lon="-98.73405167">
        <ele>2083.0</ele>
        <time>2019-10-12T15:07:44.944Z</time>
      </trkpt>
      <trkpt lat="20.23817667" lon="-98.73405833">
        <ele>2082.0</ele>
        <time>2019-10-12T15:07:45.946Z</time>
      </trkpt>
      <trkpt lat="20.23819667" lon="-98.73405667">
        <ele>2082.0</ele>
        <time>2019-10-12T15:07:46.950Z</time>
      </trkpt>
      <trkpt lat="20.23821" lon="-98.73405333">
        <ele>2082.0</ele>
        <time>2019-10-12T15:07:47.951Z</time>
      </trkpt>
      <trkpt lat="20.23823167" lon="-98.73404667">
        <ele>2082.0</ele>
        <time>2019-10-12T15:07:48.951Z</time>
      </trkpt>
      <trkpt lat="20.23825" lon="-98.73403833">
        <ele>2083.0</ele>
        <time>2019-10-12T15:07:49.954Z</time>
      </trkpt>
      <trkpt lat="20.238265" lon="-98.73403">
        <ele>2084.0</ele>
        <time>2019-10-12T15:07:50.832Z</time>
      </trkpt>
      <trkpt lat="20.23828333" lon="-98.73402">
        <ele>2084.0</ele>
        <time>2019-10-12T15:07:51.834Z</time>
      </trkpt>
      <trkpt lat="20.23830167" lon="-98.734005">
        <ele>2084.0</ele>
        <time>2019-10-12T15:07:52.839Z</time>
      </trkpt>
      <trkpt lat="20.23831833" lon="-98.73399167">
        <ele>2084.0</ele>
        <time>2019-10-12T15:07:53.846Z</time>
      </trkpt>
      <trkpt lat="20.23833333" lon="-98.73397667">
        <ele>2085.0</ele>
        <time>2019-10-12T15:07:54.848Z</time>
      </trkpt>
      <trkpt lat="20.23835" lon="-98.73396333">
        <ele>2085.0</ele>
        <time>2019-10-12T15:07:55.853Z</time>
      </trkpt>
      <trkpt lat="20.238365" lon="-98.73394833">
        <ele>2086.0</ele>
        <time>2019-10-12T15:07:56.861Z</time>
      </trkpt>
      <trkpt lat="20.23838" lon="-98.733935">
        <ele>2087.0</ele>
        <time>2019-10-12T15:07:57.866Z</time>
      </trkpt>
      <trkpt lat="20.23839667" lon="-98.73392">
        <ele>2087.0</ele>
        <time>2019-10-12T15:07:58.873Z</time>
      </trkpt>
      <trkpt lat="20.23841333" lon="-98.73390667">
        <ele>2088.0</ele>
        <time>2019-10-12T15:07:59.874Z</time>
      </trkpt>
      <trkpt lat="20.23843167" lon="-98.73389333">
        <ele>2088.0</ele>
        <time>2019-10-12T15:08:00.881Z</time>
      </trkpt>
      <trkpt lat="20.23844667" lon="-98.73388167">
        <ele>2089.0</ele>
        <time>2019-10-12T15:08:01.888Z</time>
      </trkpt>
      <trkpt lat="20.23846333" lon="-98.73386833">
        <ele>2089.0</ele>
        <time>2019-10-12T15:08:02.892Z</time>
      </trkpt>
      <trkpt lat="20.23848167" lon="-98.733855">
        <ele>2090.0</ele>
        <time>2019-10-12T15:08:03.896Z</time>
      </trkpt>
      <trkpt lat="20.23850333" lon="-98.73384667">
        <ele>2090.0</ele>
        <time>2019-10-12T15:08:04.899Z</time>
      </trkpt>
      <trkpt lat="20.23852167" lon="-98.73384167">
        <ele>2090.0</ele>
        <time>2019-10-12T15:08:05.905Z</time>
      </trkpt>
      <trkpt lat="20.23854" lon="-98.73383833">
        <ele>2090.0</ele>
        <time>2019-10-12T15:08:06.910Z</time>
      </trkpt>
      <trkpt lat="20.238565" lon="-98.733835">
        <ele>2091.0</ele>
        <time>2019-10-12T15:08:07.915Z</time>
      </trkpt>
      <trkpt lat="20.23858833" lon="-98.73382667">
        <ele>2091.0</ele>
        <time>2019-10-12T15:08:08.921Z</time>
      </trkpt>
      <trkpt lat="20.23861167" lon="-98.73382167">
        <ele>2091.0</ele>
        <time>2019-10-12T15:08:09.924Z</time>
      </trkpt>
      <trkpt lat="20.23862667" lon="-98.73381667">
        <ele>2091.0</ele>
        <time>2019-10-12T15:08:10.926Z</time>
      </trkpt>
      <trkpt lat="20.23864833" lon="-98.73381">
        <ele>2091.0</ele>
        <time>2019-10-12T15:08:11.933Z</time>
      </trkpt>
      <trkpt lat="20.23867167" lon="-98.73380667">
        <ele>2091.0</ele>
        <time>2019-10-12T15:08:12.939Z</time>
      </trkpt>
      <trkpt lat="20.23869833" lon="-98.73379833">
        <ele>2091.0</ele>
        <time>2019-10-12T15:08:13.945Z</time>
      </trkpt>
      <trkpt lat="20.23872" lon="-98.73379">
        <ele>2092.0</ele>
        <time>2019-10-12T15:08:14.948Z</time>
      </trkpt>
      <trkpt lat="20.23873667" lon="-98.73378167">
        <ele>2092.0</ele>
        <time>2019-10-12T15:08:15.949Z</time>
      </trkpt>
      <trkpt lat="20.23876" lon="-98.73376333">
        <ele>2092.0</ele>
        <time>2019-10-12T15:08:16.950Z</time>
      </trkpt>
      <trkpt lat="20.23877833" lon="-98.73374667">
        <ele>2092.0</ele>
        <time>2019-10-12T15:08:17.950Z</time>
      </trkpt>
      <trkpt lat="20.23879667" lon="-98.73373667">
        <ele>2093.0</ele>
        <time>2019-10-12T15:08:18.951Z</time>
      </trkpt>
      <trkpt lat="20.238815" lon="-98.73372833">
        <ele>2093.0</ele>
        <time>2019-10-12T15:08:19.951Z</time>
      </trkpt>
      <trkpt lat="20.23883" lon="-98.73372333">
        <ele>2093.0</ele>
        <time>2019-10-12T15:08:20.953Z</time>
      </trkpt>
      <trkpt lat="20.23885333" lon="-98.73371333">
        <ele>2094.0</ele>
        <time>2019-10-12T15:08:21.954Z</time>
      </trkpt>
      <trkpt lat="20.23887167" lon="-98.733705">
        <ele>2093.0</ele>
        <time>2019-10-12T15:08:22.954Z</time>
      </trkpt>
      <trkpt lat="20.23889" lon="-98.73369667">
        <ele>2094.0</ele>
        <time>2019-10-12T15:08:23.833Z</time>
      </trkpt>
      <trkpt lat="20.23890833" lon="-98.73368667">
        <ele>2094.0</ele>
        <time>2019-10-12T15:08:24.839Z</time>
      </trkpt>
      <trkpt lat="20.23892333" lon="-98.73367167">
        <ele>2094.0</ele>
        <time>2019-10-12T15:08:25.843Z</time>
      </trkpt>
      <trkpt lat="20.23893833" lon="-98.73365667">
        <ele>2094.0</ele>
        <time>2019-10-12T15:08:26.850Z</time>
      </trkpt>
      <trkpt lat="20.23895" lon="-98.73363833">
        <ele>2094.0</ele>
        <time>2019-10-12T15:08:27.857Z</time>
      </trkpt>
      <trkpt lat="20.23895833" lon="-98.73362333">
        <ele>2093.0</ele>
        <time>2019-10-12T15:08:28.863Z</time>
      </trkpt>
      <trkpt lat="20.23897" lon="-98.73360333">
        <ele>2093.0</ele>
        <time>2019-10-12T15:08:29.865Z</time>
      </trkpt>
      <trkpt lat="20.23898167" lon="-98.73358333">
        <ele>2093.0</ele>
        <time>2019-10-12T15:08:30.871Z</time>
      </trkpt>
      <trkpt lat="20.23899167" lon="-98.73356333">
        <ele>2092.0</ele>
        <time>2019-10-12T15:08:31.874Z</time>
      </trkpt>
      <trkpt lat="20.23900167" lon="-98.73354333">
        <ele>2092.0</ele>
        <time>2019-10-12T15:08:32.880Z</time>
      </trkpt>
      <trkpt lat="20.23901" lon="-98.73352667">
        <ele>2092.0</ele>
        <time>2019-10-12T15:08:33.887Z</time>
      </trkpt>
      <trkpt lat="20.239025" lon="-98.73350333">
        <ele>2092.0</ele>
        <time>2019-10-12T15:08:34.891Z</time>
      </trkpt>
      <trkpt lat="20.23903667" lon="-98.733485">
        <ele>2092.0</ele>
        <time>2019-10-12T15:08:35.893Z</time>
      </trkpt>
      <trkpt lat="20.23905167" lon="-98.73346833">
        <ele>2092.0</ele>
        <time>2019-10-12T15:08:36.899Z</time>
      </trkpt>
      <trkpt lat="20.239065" lon="-98.73345667">
        <ele>2092.0</ele>
        <time>2019-10-12T15:08:37.904Z</time>
      </trkpt>
      <trkpt lat="20.23908333" lon="-98.73343667">
        <ele>2093.0</ele>
        <time>2019-10-12T15:08:38.905Z</time>
      </trkpt>
      <trkpt lat="20.2391" lon="-98.73342">
        <ele>2093.0</ele>
        <time>2019-10-12T15:08:39.905Z</time>
      </trkpt>
      <trkpt lat="20.239115" lon="-98.733405">
        <ele>2093.0</ele>
        <time>2019-10-12T15:08:40.906Z</time>
      </trkpt>
      <trkpt lat="20.23913" lon="-98.73339">
        <ele>2093.0</ele>
        <time>2019-10-12T15:08:41.907Z</time>
      </trkpt>
      <trkpt lat="20.23914" lon="-98.73337667">
        <ele>2093.0</ele>
        <time>2019-10-12T15:08:42.907Z</time>
      </trkpt>
      <trkpt lat="20.23916" lon="-98.73335833">
        <ele>2093.0</ele>
        <time>2019-10-12T15:08:43.908Z</time>
      </trkpt>
      <trkpt lat="20.239175" lon="-98.73334833">
        <ele>2093.0</ele>
        <time>2019-10-12T15:08:44.909Z</time>
      </trkpt>
      <trkpt lat="20.239195" lon="-98.73333333">
        <ele>2093.0</ele>
        <time>2019-10-12T15:08:45.910Z</time>
      </trkpt>
      <trkpt lat="20.23921" lon="-98.733325">
        <ele>2092.0</ele>
        <time>2019-10-12T15:08:46.913Z</time>
      </trkpt>
      <trkpt lat="20.23923" lon="-98.73331833">
        <ele>2092.0</ele>
        <time>2019-10-12T15:08:47.918Z</time>
      </trkpt>
      <trkpt lat="20.239255" lon="-98.73330833">
        <ele>2092.0</ele>
        <time>2019-10-12T15:08:48.921Z</time>
      </trkpt>
      <trkpt lat="20.23927667" lon="-98.733305">
        <ele>2091.0</ele>
        <time>2019-10-12T15:08:49.927Z</time>
      </trkpt>
      <trkpt lat="20.23929833" lon="-98.73329833">
        <ele>2091.0</ele>
        <time>2019-10-12T15:08:50.934Z</time>
      </trkpt>
      <trkpt lat="20.23931667" lon="-98.73329667">
        <ele>2091.0</ele>
        <time>2019-10-12T15:08:51.938Z</time>
      </trkpt>
      <trkpt lat="20.23934167" lon="-98.73329">
        <ele>2091.0</ele>
        <time>2019-10-12T15:08:52.944Z</time>
      </trkpt>
      <trkpt lat="20.23935667" lon="-98.73328333">
        <ele>2090.0</ele>
        <time>2019-10-12T15:08:53.947Z</time>
      </trkpt>
      <trkpt lat="20.23938167" lon="-98.733275">
        <ele>2090.0</ele>
        <time>2019-10-12T15:08:54.950Z</time>
      </trkpt>
      <trkpt lat="20.23940167" lon="-98.733265">
        <ele>2090.0</ele>
        <time>2019-10-12T15:08:55.954Z</time>
      </trkpt>
      <trkpt lat="20.23941667" lon="-98.73326">
        <ele>2091.0</ele>
        <time>2019-10-12T15:08:56.834Z</time>
      </trkpt>
      <trkpt lat="20.23944167" lon="-98.73325">
        <ele>2092.0</ele>
        <time>2019-10-12T15:08:57.841Z</time>
      </trkpt>
      <trkpt lat="20.23945833" lon="-98.733235">
        <ele>2092.0</ele>
        <time>2019-10-12T15:08:58.848Z</time>
      </trkpt>
      <trkpt lat="20.23947167" lon="-98.733215">
        <ele>2091.0</ele>
        <time>2019-10-12T15:08:59.854Z</time>
      </trkpt>
      <trkpt lat="20.239485" lon="-98.7332">
        <ele>2091.0</ele>
        <time>2019-10-12T15:09:00.857Z</time>
      </trkpt>
      <trkpt lat="20.2395" lon="-98.73318167">
        <ele>2091.0</ele>
        <time>2019-10-12T15:09:01.859Z</time>
      </trkpt>
      <trkpt lat="20.23951333" lon="-98.73316167">
        <ele>2091.0</ele>
        <time>2019-10-12T15:09:02.864Z</time>
      </trkpt>
      <trkpt lat="20.23952833" lon="-98.73314167">
        <ele>2092.0</ele>
        <time>2019-10-12T15:09:03.872Z</time>
      </trkpt>
      <trkpt lat="20.23954167" lon="-98.73312">
        <ele>2092.0</ele>
        <time>2019-10-12T15:09:04.877Z</time>
      </trkpt>
      <trkpt lat="20.23955667" lon="-98.7331">
        <ele>2092.0</ele>
        <time>2019-10-12T15:09:05.879Z</time>
      </trkpt>
      <trkpt lat="20.23957167" lon="-98.73308">
        <ele>2093.0</ele>
        <time>2019-10-12T15:09:06.882Z</time>
      </trkpt>
      <trkpt lat="20.23958667" lon="-98.733055">
        <ele>2093.0</ele>
        <time>2019-10-12T15:09:07.888Z</time>
      </trkpt>
      <trkpt lat="20.23959833" lon="-98.73303333">
        <ele>2093.0</ele>
        <time>2019-10-12T15:09:08.895Z</time>
      </trkpt>
      <trkpt lat="20.23961" lon="-98.73300833">
        <ele>2093.0</ele>
        <time>2019-10-12T15:09:09.902Z</time>
      </trkpt>
      <trkpt lat="20.23962" lon="-98.73298667">
        <ele>2094.0</ele>
        <time>2019-10-12T15:09:10.905Z</time>
      </trkpt>
      <trkpt lat="20.23963" lon="-98.73296167">
        <ele>2093.0</ele>
        <time>2019-10-12T15:09:11.909Z</time>
      </trkpt>
      <trkpt lat="20.23964" lon="-98.73293667">
        <ele>2093.0</ele>
        <time>2019-10-12T15:09:12.915Z</time>
      </trkpt>
      <trkpt lat="20.23964833" lon="-98.73291167">
        <ele>2093.0</ele>
        <time>2019-10-12T15:09:13.921Z</time>
      </trkpt>
      <trkpt lat="20.239655" lon="-98.73288833">
        <ele>2093.0</ele>
        <time>2019-10-12T15:09:14.923Z</time>
      </trkpt>
      <trkpt lat="20.239665" lon="-98.73286167">
        <ele>2093.0</ele>
        <time>2019-10-12T15:09:15.926Z</time>
      </trkpt>
      <trkpt lat="20.23967667" lon="-98.73283833">
        <ele>2093.0</ele>
        <time>2019-10-12T15:09:16.926Z</time>
      </trkpt>
      <trkpt lat="20.23969167" lon="-98.73282">
        <ele>2092.0</ele>
        <time>2019-10-12T15:09:17.927Z</time>
      </trkpt>
      <trkpt lat="20.23970833" lon="-98.73281333">
        <ele>2092.0</ele>
        <time>2019-10-12T15:09:18.928Z</time>
      </trkpt>
      <trkpt lat="20.23972667" lon="-98.732815">
        <ele>2092.0</ele>
        <time>2019-10-12T15:09:19.929Z</time>
      </trkpt>
      <trkpt lat="20.23974167" lon="-98.73282333">
        <ele>2092.0</ele>
        <time>2019-10-12T15:09:20.934Z</time>
      </trkpt>
      <trkpt lat="20.23975167" lon="-98.73283333">
        <ele>2093.0</ele>
        <time>2019-10-12T15:09:21.941Z</time>
      </trkpt>
      <trkpt lat="20.23976" lon="-98.732845">
        <ele>2093.0</ele>
        <time>2019-10-12T15:09:22.944Z</time>
      </trkpt>
      <trkpt lat="20.23976833" lon="-98.732855">
        <ele>2094.0</ele>
        <time>2019-10-12T15:09:23.948Z</time>
      </trkpt>
      <trkpt lat="20.23977833" lon="-98.73287">
        <ele>2095.0</ele>
        <time>2019-10-12T15:09:24.955Z</time>
      </trkpt>
      <trkpt lat="20.23979" lon="-98.73288167">
        <ele>2095.0</ele>
        <time>2019-10-12T15:09:25.836Z</time>
      </trkpt>
      <trkpt lat="20.239805" lon="-98.73289667">
        <ele>2094.0</ele>
        <time>2019-10-12T15:09:26.844Z</time>
      </trkpt>
      <trkpt lat="20.23982167" lon="-98.732915">
        <ele>2094.0</ele>
        <time>2019-10-12T15:09:27.850Z</time>
      </trkpt>
      <trkpt lat="20.23983833" lon="-98.73293333">
        <ele>2093.0</ele>
        <time>2019-10-12T15:09:28.857Z</time>
      </trkpt>
      <trkpt lat="20.23986167" lon="-98.73294167">
        <ele>2092.0</ele>
        <time>2019-10-12T15:09:29.859Z</time>
      </trkpt>
      <trkpt lat="20.23988667" lon="-98.73295">
        <ele>2092.0</ele>
        <time>2019-10-12T15:09:30.864Z</time>
      </trkpt>
      <trkpt lat="20.23990333" lon="-98.73296333">
        <ele>2092.0</ele>
        <time>2019-10-12T15:09:31.871Z</time>
      </trkpt>
      <trkpt lat="20.239925" lon="-98.732985">
        <ele>2091.0</ele>
        <time>2019-10-12T15:09:32.875Z</time>
      </trkpt>
      <trkpt lat="20.23994167" lon="-98.733">
        <ele>2091.0</ele>
        <time>2019-10-12T15:09:33.876Z</time>
      </trkpt>
      <trkpt lat="20.23995833" lon="-98.73301833">
        <ele>2090.0</ele>
        <time>2019-10-12T15:09:34.877Z</time>
      </trkpt>
      <trkpt lat="20.23998" lon="-98.733045">
        <ele>2090.0</ele>
        <time>2019-10-12T15:09:35.878Z</time>
      </trkpt>
      <trkpt lat="20.23999667" lon="-98.733065">
        <ele>2090.0</ele>
        <time>2019-10-12T15:09:36.879Z</time>
      </trkpt>
      <trkpt lat="20.24001333" lon="-98.73308">
        <ele>2090.0</ele>
        <time>2019-10-12T15:09:37.880Z</time>
      </trkpt>
      <trkpt lat="20.240035" lon="-98.73309167">
        <ele>2090.0</ele>
        <time>2019-10-12T15:09:38.880Z</time>
      </trkpt>
      <trkpt lat="20.24005333" lon="-98.7331">
        <ele>2090.0</ele>
        <time>2019-10-12T15:09:39.881Z</time>
      </trkpt>
      <trkpt lat="20.240075" lon="-98.73310333">
        <ele>2090.0</ele>
        <time>2019-10-12T15:09:40.881Z</time>
      </trkpt>
      <trkpt lat="20.24009333" lon="-98.73310667">
        <ele>2090.0</ele>
        <time>2019-10-12T15:09:41.881Z</time>
      </trkpt>
      <trkpt lat="20.24011167" lon="-98.73310833">
        <ele>2090.0</ele>
        <time>2019-10-12T15:09:42.882Z</time>
      </trkpt>
      <trkpt lat="20.24014167" lon="-98.73311">
        <ele>2089.0</ele>
        <time>2019-10-12T15:09:43.882Z</time>
      </trkpt>
      <trkpt lat="20.240165" lon="-98.73311167">
        <ele>2088.0</ele>
        <time>2019-10-12T15:09:44.882Z</time>
      </trkpt>
      <trkpt lat="20.24019" lon="-98.73311167">
        <ele>2089.0</ele>
        <time>2019-10-12T15:09:45.882Z</time>
      </trkpt>
      <trkpt lat="20.24021333" lon="-98.73311">
        <ele>2089.0</ele>
        <time>2019-10-12T15:09:46.882Z</time>
      </trkpt>
      <trkpt lat="20.24023667" lon="-98.73311">
        <ele>2088.0</ele>
        <time>2019-10-12T15:09:47.883Z</time>
      </trkpt>
      <trkpt lat="20.24026167" lon="-98.73311833">
        <ele>2087.0</ele>
        <time>2019-10-12T15:09:48.883Z</time>
      </trkpt>
      <trkpt lat="20.24028167" lon="-98.73314167">
        <ele>2086.0</ele>
        <time>2019-10-12T15:09:49.883Z</time>
      </trkpt>
      <trkpt lat="20.2403" lon="-98.73317167">
        <ele>2085.0</ele>
        <time>2019-10-12T15:09:50.883Z</time>
      </trkpt>
      <trkpt lat="20.24030833" lon="-98.73318833">
        <ele>2085.0</ele>
        <time>2019-10-12T15:09:51.883Z</time>
      </trkpt>
      <trkpt lat="20.240325" lon="-98.73321333">
        <ele>2085.0</ele>
        <time>2019-10-12T15:09:52.884Z</time>
      </trkpt>
      <trkpt lat="20.24033667" lon="-98.73323667">
        <ele>2084.0</ele>
        <time>2019-10-12T15:09:53.884Z</time>
      </trkpt>
      <trkpt lat="20.24035333" lon="-98.73326333">
        <ele>2083.0</ele>
        <time>2019-10-12T15:09:54.886Z</time>
      </trkpt>
      <trkpt lat="20.24036667" lon="-98.73328833">
        <ele>2082.0</ele>
        <time>2019-10-12T15:09:55.891Z</time>
      </trkpt>
      <trkpt lat="20.24037167" lon="-98.73331333">
        <ele>2081.0</ele>
        <time>2019-10-12T15:09:56.896Z</time>
      </trkpt>
      <trkpt lat="20.240385" lon="-98.733345">
        <ele>2080.0</ele>
        <time>2019-10-12T15:09:57.901Z</time>
      </trkpt>
      <trkpt lat="20.24039667" lon="-98.733385">
        <ele>2079.0</ele>
        <time>2019-10-12T15:09:58.905Z</time>
      </trkpt>
      <trkpt lat="20.24041333" lon="-98.73341167">
        <ele>2078.0</ele>
        <time>2019-10-12T15:09:59.905Z</time>
      </trkpt>
      <trkpt lat="20.240435" lon="-98.73343667">
        <ele>2077.0</ele>
        <time>2019-10-12T15:10:00.907Z</time>
      </trkpt>
      <trkpt lat="20.240455" lon="-98.73345667">
        <ele>2077.0</ele>
        <time>2019-10-12T15:10:01.910Z</time>
      </trkpt>
      <trkpt lat="20.24048167" lon="-98.73347333">
        <ele>2077.0</ele>
        <time>2019-10-12T15:10:02.911Z</time>
      </trkpt>
      <trkpt lat="20.24051167" lon="-98.73349167">
        <ele>2076.0</ele>
        <time>2019-10-12T15:10:03.913Z</time>
      </trkpt>
      <trkpt lat="20.24053667" lon="-98.7335">
        <ele>2076.0</ele>
        <time>2019-10-12T15:10:04.915Z</time>
      </trkpt>
      <trkpt lat="20.240565" lon="-98.73351">
        <ele>2075.0</ele>
        <time>2019-10-12T15:10:05.919Z</time>
      </trkpt>
      <trkpt lat="20.24059" lon="-98.73352333">
        <ele>2074.0</ele>
        <time>2019-10-12T15:10:06.921Z</time>
      </trkpt>
      <trkpt lat="20.24061833" lon="-98.73353833">
        <ele>2074.0</ele>
        <time>2019-10-12T15:10:07.923Z</time>
      </trkpt>
      <trkpt lat="20.240645" lon="-98.733555">
        <ele>2073.0</ele>
        <time>2019-10-12T15:10:08.925Z</time>
      </trkpt>
      <trkpt lat="20.240665" lon="-98.73356667">
        <ele>2073.0</ele>
        <time>2019-10-12T15:10:09.927Z</time>
      </trkpt>
      <trkpt lat="20.24068833" lon="-98.73357833">
        <ele>2072.0</ele>
        <time>2019-10-12T15:10:10.935Z</time>
      </trkpt>
      <trkpt lat="20.24072167" lon="-98.73358167">
        <ele>2072.0</ele>
        <time>2019-10-12T15:10:11.938Z</time>
      </trkpt>
      <trkpt lat="20.24075" lon="-98.73358167">
        <ele>2072.0</ele>
        <time>2019-10-12T15:10:12.941Z</time>
      </trkpt>
      <trkpt lat="20.24077833" lon="-98.73357667">
        <ele>2071.0</ele>
        <time>2019-10-12T15:10:13.943Z</time>
      </trkpt>
      <trkpt lat="20.24080167" lon="-98.73357167">
        <ele>2071.0</ele>
        <time>2019-10-12T15:10:14.948Z</time>
      </trkpt>
      <trkpt lat="20.24083" lon="-98.73356333">
        <ele>2071.0</ele>
        <time>2019-10-12T15:10:15.954Z</time>
      </trkpt>
      <trkpt lat="20.24086167" lon="-98.73355333">
        <ele>2070.0</ele>
        <time>2019-10-12T15:10:16.830Z</time>
      </trkpt>
      <trkpt lat="20.24089" lon="-98.733545">
        <ele>2069.0</ele>
        <time>2019-10-12T15:10:17.831Z</time>
      </trkpt>
      <trkpt lat="20.24091833" lon="-98.733535">
        <ele>2069.0</ele>
        <time>2019-10-12T15:10:18.831Z</time>
      </trkpt>
      <trkpt lat="20.24094167" lon="-98.73352667">
        <ele>2068.0</ele>
        <time>2019-10-12T15:10:19.832Z</time>
      </trkpt>
      <trkpt lat="20.24096833" lon="-98.73352167">
        <ele>2068.0</ele>
        <time>2019-10-12T15:10:20.833Z</time>
      </trkpt>
      <trkpt lat="20.24100333" lon="-98.73351667">
        <ele>2067.0</ele>
        <time>2019-10-12T15:10:21.842Z</time>
      </trkpt>
      <trkpt lat="20.241035" lon="-98.73351833">
        <ele>2067.0</ele>
        <time>2019-10-12T15:10:22.846Z</time>
      </trkpt>
      <trkpt lat="20.241065" lon="-98.733515">
        <ele>2066.0</ele>
        <time>2019-10-12T15:10:23.850Z</time>
      </trkpt>
      <trkpt lat="20.24109" lon="-98.73350667">
        <ele>2066.0</ele>
        <time>2019-10-12T15:10:24.854Z</time>
      </trkpt>
      <trkpt lat="20.241125" lon="-98.733495">
        <ele>2066.0</ele>
        <time>2019-10-12T15:10:25.857Z</time>
      </trkpt>
      <trkpt lat="20.24114667" lon="-98.73348333">
        <ele>2066.0</ele>
        <time>2019-10-12T15:10:26.860Z</time>
      </trkpt>
      <trkpt lat="20.24117333" lon="-98.73347">
        <ele>2066.0</ele>
        <time>2019-10-12T15:10:27.865Z</time>
      </trkpt>
      <trkpt lat="20.24119833" lon="-98.73345">
        <ele>2067.0</ele>
        <time>2019-10-12T15:10:28.872Z</time>
      </trkpt>
      <trkpt lat="20.24122167" lon="-98.73342167">
        <ele>2066.0</ele>
        <time>2019-10-12T15:10:29.878Z</time>
      </trkpt>
      <trkpt lat="20.24124" lon="-98.73339833">
        <ele>2067.0</ele>
        <time>2019-10-12T15:10:30.884Z</time>
      </trkpt>
      <trkpt lat="20.24125" lon="-98.73336833">
        <ele>2067.0</ele>
        <time>2019-10-12T15:10:31.888Z</time>
      </trkpt>
      <trkpt lat="20.241255" lon="-98.73333333">
        <ele>2068.0</ele>
        <time>2019-10-12T15:10:32.893Z</time>
      </trkpt>
      <trkpt lat="20.24125833" lon="-98.7333">
        <ele>2068.0</ele>
        <time>2019-10-12T15:10:33.899Z</time>
      </trkpt>
      <trkpt lat="20.24126167" lon="-98.73327167">
        <ele>2068.0</ele>
        <time>2019-10-12T15:10:34.905Z</time>
      </trkpt>
      <trkpt lat="20.24126667" lon="-98.73325">
        <ele>2068.0</ele>
        <time>2019-10-12T15:10:35.906Z</time>
      </trkpt>
      <trkpt lat="20.24127667" lon="-98.733225">
        <ele>2067.0</ele>
        <time>2019-10-12T15:10:36.907Z</time>
      </trkpt>
      <trkpt lat="20.24129333" lon="-98.73320333">
        <ele>2068.0</ele>
        <time>2019-10-12T15:10:37.907Z</time>
      </trkpt>
      <trkpt lat="20.24131" lon="-98.73317333">
        <ele>2068.0</ele>
        <time>2019-10-12T15:10:38.908Z</time>
      </trkpt>
      <trkpt lat="20.24132667" lon="-98.73314833">
        <ele>2068.0</ele>
        <time>2019-10-12T15:10:39.909Z</time>
      </trkpt>
      <trkpt lat="20.24135167" lon="-98.733135">
        <ele>2067.0</ele>
        <time>2019-10-12T15:10:40.910Z</time>
      </trkpt>
      <trkpt lat="20.24138167" lon="-98.73312667">
        <ele>2067.0</ele>
        <time>2019-10-12T15:10:41.911Z</time>
      </trkpt>
      <trkpt lat="20.24141" lon="-98.733115">
        <ele>2067.0</ele>
        <time>2019-10-12T15:10:42.911Z</time>
      </trkpt>
      <trkpt lat="20.24143167" lon="-98.73310167">
        <ele>2066.0</ele>
        <time>2019-10-12T15:10:43.913Z</time>
      </trkpt>
      <trkpt lat="20.241455" lon="-98.73308667">
        <ele>2065.0</ele>
        <time>2019-10-12T15:10:44.917Z</time>
      </trkpt>
      <trkpt lat="20.24148167" lon="-98.73307">
        <ele>2065.0</ele>
        <time>2019-10-12T15:10:45.923Z</time>
      </trkpt>
      <trkpt lat="20.24150833" lon="-98.733055">
        <ele>2065.0</ele>
        <time>2019-10-12T15:10:46.925Z</time>
      </trkpt>
      <trkpt lat="20.24153167" lon="-98.73304167">
        <ele>2066.0</ele>
        <time>2019-10-12T15:10:47.931Z</time>
      </trkpt>
      <trkpt lat="20.24155333" lon="-98.733025">
        <ele>2066.0</ele>
        <time>2019-10-12T15:10:48.936Z</time>
      </trkpt>
      <trkpt lat="20.241575" lon="-98.73300833">
        <ele>2066.0</ele>
        <time>2019-10-12T15:10:49.943Z</time>
      </trkpt>
      <trkpt lat="20.2416" lon="-98.732995">
        <ele>2066.0</ele>
        <time>2019-10-12T15:10:50.948Z</time>
      </trkpt>
      <trkpt lat="20.24162333" lon="-98.73297833">
        <ele>2066.0</ele>
        <time>2019-10-12T15:10:51.950Z</time>
      </trkpt>
      <trkpt lat="20.241645" lon="-98.73296167">
        <ele>2065.0</ele>
        <time>2019-10-12T15:10:52.954Z</time>
      </trkpt>
      <trkpt lat="20.24166667" lon="-98.73294333">
        <ele>2065.0</ele>
        <time>2019-10-12T15:10:53.830Z</time>
      </trkpt>
      <trkpt lat="20.24169" lon="-98.73292833">
        <ele>2065.0</ele>
        <time>2019-10-12T15:10:54.836Z</time>
      </trkpt>
      <trkpt lat="20.24171" lon="-98.73291333">
        <ele>2065.0</ele>
        <time>2019-10-12T15:10:55.843Z</time>
      </trkpt>
      <trkpt lat="20.24173" lon="-98.7329">
        <ele>2065.0</ele>
        <time>2019-10-12T15:10:56.848Z</time>
      </trkpt>
      <trkpt lat="20.24174833" lon="-98.73288333">
        <ele>2064.0</ele>
        <time>2019-10-12T15:10:57.854Z</time>
      </trkpt>
      <trkpt lat="20.241765" lon="-98.73286333">
        <ele>2063.0</ele>
        <time>2019-10-12T15:10:58.856Z</time>
      </trkpt>
      <trkpt lat="20.24177833" lon="-98.73284">
        <ele>2063.0</ele>
        <time>2019-10-12T15:10:59.861Z</time>
      </trkpt>
      <trkpt lat="20.24178833" lon="-98.73281667">
        <ele>2062.0</ele>
        <time>2019-10-12T15:11:00.863Z</time>
      </trkpt>
      <trkpt lat="20.24179167" lon="-98.73279">
        <ele>2061.0</ele>
        <time>2019-10-12T15:11:01.864Z</time>
      </trkpt>
      <trkpt lat="20.24179667" lon="-98.73275833">
        <ele>2060.0</ele>
        <time>2019-10-12T15:11:02.865Z</time>
      </trkpt>
      <trkpt lat="20.2418" lon="-98.73272333">
        <ele>2060.0</ele>
        <time>2019-10-12T15:11:03.866Z</time>
      </trkpt>
      <trkpt lat="20.24180333" lon="-98.73268833">
        <ele>2059.0</ele>
        <time>2019-10-12T15:11:04.867Z</time>
      </trkpt>
      <trkpt lat="20.24180333" lon="-98.73265333">
        <ele>2058.0</ele>
        <time>2019-10-12T15:11:05.871Z</time>
      </trkpt>
      <trkpt lat="20.24179833" lon="-98.73261833">
        <ele>2058.0</ele>
        <time>2019-10-12T15:11:06.877Z</time>
      </trkpt>
      <trkpt lat="20.24179333" lon="-98.73258667">
        <ele>2057.0</ele>
        <time>2019-10-12T15:11:07.879Z</time>
      </trkpt>
      <trkpt lat="20.24178833" lon="-98.73255667">
        <ele>2056.0</ele>
        <time>2019-10-12T15:11:08.885Z</time>
      </trkpt>
      <trkpt lat="20.24178333" lon="-98.73252833">
        <ele>2055.0</ele>
        <time>2019-10-12T15:11:09.886Z</time>
      </trkpt>
      <trkpt lat="20.24178333" lon="-98.73250167">
        <ele>2054.0</ele>
        <time>2019-10-12T15:11:10.887Z</time>
      </trkpt>
      <trkpt lat="20.24179" lon="-98.732475">
        <ele>2054.0</ele>
        <time>2019-10-12T15:11:11.893Z</time>
      </trkpt>
      <trkpt lat="20.24179667" lon="-98.73244833">
        <ele>2053.0</ele>
        <time>2019-10-12T15:11:12.898Z</time>
      </trkpt>
      <trkpt lat="20.24180833" lon="-98.732435">
        <ele>2052.0</ele>
        <time>2019-10-12T15:11:13.903Z</time>
      </trkpt>
      <trkpt lat="20.241825" lon="-98.73243667">
        <ele>2051.0</ele>
        <time>2019-10-12T15:11:14.909Z</time>
      </trkpt>
      <trkpt lat="20.24184167" lon="-98.73244667">
        <ele>2052.0</ele>
        <time>2019-10-12T15:11:15.913Z</time>
      </trkpt>
      <trkpt lat="20.24185833" lon="-98.73245833">
        <ele>2052.0</ele>
        <time>2019-10-12T15:11:16.915Z</time>
      </trkpt>
      <trkpt lat="20.24187333" lon="-98.732475">
        <ele>2052.0</ele>
        <time>2019-10-12T15:11:17.917Z</time>
      </trkpt>
      <trkpt lat="20.24188833" lon="-98.73249333">
        <ele>2052.0</ele>
        <time>2019-10-12T15:11:18.925Z</time>
      </trkpt>
      <trkpt lat="20.24190333" lon="-98.73251667">
        <ele>2052.0</ele>
        <time>2019-10-12T15:11:19.931Z</time>
      </trkpt>
      <trkpt lat="20.24192" lon="-98.73254167">
        <ele>2052.0</ele>
        <time>2019-10-12T15:11:20.937Z</time>
      </trkpt>
      <trkpt lat="20.24193667" lon="-98.73256167">
        <ele>2052.0</ele>
        <time>2019-10-12T15:11:21.943Z</time>
      </trkpt>
      <trkpt lat="20.241955" lon="-98.73258833">
        <ele>2052.0</ele>
        <time>2019-10-12T15:11:22.943Z</time>
      </trkpt>
      <trkpt lat="20.24197" lon="-98.73261167">
        <ele>2052.0</ele>
        <time>2019-10-12T15:11:23.944Z</time>
      </trkpt>
      <trkpt lat="20.24198" lon="-98.73262667">
        <ele>2052.0</ele>
        <time>2019-10-12T15:11:24.948Z</time>
      </trkpt>
      <trkpt lat="20.24199167" lon="-98.73264167">
        <ele>2051.0</ele>
        <time>2019-10-12T15:11:25.830Z</time>
      </trkpt>
      <trkpt lat="20.24200667" lon="-98.73265667">
        <ele>2051.0</ele>
        <time>2019-10-12T15:11:26.836Z</time>
      </trkpt>
      <trkpt lat="20.242025" lon="-98.73268">
        <ele>2051.0</ele>
        <time>2019-10-12T15:11:27.842Z</time>
      </trkpt>
      <trkpt lat="20.242035" lon="-98.73271">
        <ele>2052.0</ele>
        <time>2019-10-12T15:11:28.848Z</time>
      </trkpt>
      <trkpt lat="20.24204667" lon="-98.73273333">
        <ele>2052.0</ele>
        <time>2019-10-12T15:11:29.852Z</time>
      </trkpt>
      <trkpt lat="20.24205667" lon="-98.73275833">
        <ele>2053.0</ele>
        <time>2019-10-12T15:11:30.857Z</time>
      </trkpt>
      <trkpt lat="20.24207" lon="-98.73278">
        <ele>2055.0</ele>
        <time>2019-10-12T15:11:31.859Z</time>
      </trkpt>
      <trkpt lat="20.242085" lon="-98.732795">
        <ele>2055.0</ele>
        <time>2019-10-12T15:11:32.861Z</time>
      </trkpt>
      <trkpt lat="20.24209833" lon="-98.73280833">
        <ele>2056.0</ele>
        <time>2019-10-12T15:11:33.866Z</time>
      </trkpt>
      <trkpt lat="20.24210833" lon="-98.73283167">
        <ele>2057.0</ele>
        <time>2019-10-12T15:11:34.872Z</time>
      </trkpt>
      <trkpt lat="20.24211667" lon="-98.73285833">
        <ele>2058.0</ele>
        <time>2019-10-12T15:11:35.879Z</time>
      </trkpt>
      <trkpt lat="20.24212833" lon="-98.73288">
        <ele>2059.0</ele>
        <time>2019-10-12T15:11:36.885Z</time>
      </trkpt>
      <trkpt lat="20.24213667" lon="-98.73289833">
        <ele>2058.0</ele>
        <time>2019-10-12T15:11:37.888Z</time>
      </trkpt>
      <trkpt lat="20.24214667" lon="-98.73292">
        <ele>2059.0</ele>
        <time>2019-10-12T15:11:38.891Z</time>
      </trkpt>
      <trkpt lat="20.24215833" lon="-98.73293833">
        <ele>2058.0</ele>
        <time>2019-10-12T15:11:39.892Z</time>
      </trkpt>
      <trkpt lat="20.24217333" lon="-98.73295333">
        <ele>2058.0</ele>
        <time>2019-10-12T15:11:40.892Z</time>
      </trkpt>
      <trkpt lat="20.24219" lon="-98.73296833">
        <ele>2058.0</ele>
        <time>2019-10-12T15:11:41.894Z</time>
      </trkpt>
      <trkpt lat="20.24220167" lon="-98.73298833">
        <ele>2059.0</ele>
        <time>2019-10-12T15:11:42.897Z</time>
      </trkpt>
      <trkpt lat="20.24221333" lon="-98.73300833">
        <ele>2060.0</ele>
        <time>2019-10-12T15:11:43.903Z</time>
      </trkpt>
      <trkpt lat="20.242225" lon="-98.73302833">
        <ele>2061.0</ele>
        <time>2019-10-12T15:11:44.909Z</time>
      </trkpt>
      <trkpt lat="20.24223667" lon="-98.73305">
        <ele>2061.0</ele>
        <time>2019-10-12T15:11:45.912Z</time>
      </trkpt>
      <trkpt lat="20.24225" lon="-98.73306667">
        <ele>2061.0</ele>
        <time>2019-10-12T15:11:46.916Z</time>
      </trkpt>
      <trkpt lat="20.24226333" lon="-98.73308667">
        <ele>2061.0</ele>
        <time>2019-10-12T15:11:47.922Z</time>
      </trkpt>
      <trkpt lat="20.24227833" lon="-98.73310333">
        <ele>2061.0</ele>
        <time>2019-10-12T15:11:48.930Z</time>
      </trkpt>
      <trkpt lat="20.24229333" lon="-98.73312">
        <ele>2061.0</ele>
        <time>2019-10-12T15:11:49.936Z</time>
      </trkpt>
      <trkpt lat="20.24230833" lon="-98.733135">
        <ele>2061.0</ele>
        <time>2019-10-12T15:11:50.942Z</time>
      </trkpt>
      <trkpt lat="20.242325" lon="-98.73314833">
        <ele>2061.0</ele>
        <time>2019-10-12T15:11:51.948Z</time>
      </trkpt>
      <trkpt lat="20.24234" lon="-98.73316333">
        <ele>2061.0</ele>
        <time>2019-10-12T15:11:52.950Z</time>
      </trkpt>
      <trkpt lat="20.24235667" lon="-98.73318">
        <ele>2060.0</ele>
        <time>2019-10-12T15:11:53.830Z</time>
      </trkpt>
      <trkpt lat="20.242375" lon="-98.73319333">
        <ele>2060.0</ele>
        <time>2019-10-12T15:11:54.837Z</time>
      </trkpt>
      <trkpt lat="20.242395" lon="-98.73320667">
        <ele>2060.0</ele>
        <time>2019-10-12T15:11:55.841Z</time>
      </trkpt>
      <trkpt lat="20.24241333" lon="-98.73322">
        <ele>2059.0</ele>
        <time>2019-10-12T15:11:56.842Z</time>
      </trkpt>
      <trkpt lat="20.24243" lon="-98.733235">
        <ele>2059.0</ele>
        <time>2019-10-12T15:11:57.842Z</time>
      </trkpt>
      <trkpt lat="20.24244667" lon="-98.73325">
        <ele>2059.0</ele>
        <time>2019-10-12T15:11:58.843Z</time>
      </trkpt>
      <trkpt lat="20.242465" lon="-98.73326667">
        <ele>2059.0</ele>
        <time>2019-10-12T15:11:59.847Z</time>
      </trkpt>
      <trkpt lat="20.242485" lon="-98.733285">
        <ele>2059.0</ele>
        <time>2019-10-12T15:12:00.854Z</time>
      </trkpt>
      <trkpt lat="20.24250333" lon="-98.7333">
        <ele>2060.0</ele>
        <time>2019-10-12T15:12:01.858Z</time>
      </trkpt>
      <trkpt lat="20.24252333" lon="-98.73331167">
        <ele>2060.0</ele>
        <time>2019-10-12T15:12:02.864Z</time>
      </trkpt>
      <trkpt lat="20.24254333" lon="-98.733325">
        <ele>2061.0</ele>
        <time>2019-10-12T15:12:03.868Z</time>
      </trkpt>
      <trkpt lat="20.24256667" lon="-98.73333333">
        <ele>2061.0</ele>
        <time>2019-10-12T15:12:04.871Z</time>
      </trkpt>
      <trkpt lat="20.242585" lon="-98.73334833">
        <ele>2062.0</ele>
        <time>2019-10-12T15:12:05.878Z</time>
      </trkpt>
      <trkpt lat="20.24260833" lon="-98.73335833">
        <ele>2063.0</ele>
        <time>2019-10-12T15:12:06.884Z</time>
      </trkpt>
      <trkpt lat="20.24263333" lon="-98.73336333">
        <ele>2063.0</ele>
        <time>2019-10-12T15:12:07.886Z</time>
      </trkpt>
      <trkpt lat="20.24265667" lon="-98.733365">
        <ele>2063.0</ele>
        <time>2019-10-12T15:12:08.890Z</time>
      </trkpt>
      <trkpt lat="20.24268167" lon="-98.73337">
        <ele>2063.0</ele>
        <time>2019-10-12T15:12:09.897Z</time>
      </trkpt>
      <trkpt lat="20.24270833" lon="-98.73337167">
        <ele>2063.0</ele>
        <time>2019-10-12T15:12:10.903Z</time>
      </trkpt>
      <trkpt lat="20.24273667" lon="-98.73336667">
        <ele>2064.0</ele>
        <time>2019-10-12T15:12:11.910Z</time>
      </trkpt>
      <trkpt lat="20.24275833" lon="-98.73335333">
        <ele>2064.0</ele>
        <time>2019-10-12T15:12:12.914Z</time>
      </trkpt>
      <trkpt lat="20.24277167" lon="-98.73333333">
        <ele>2065.0</ele>
        <time>2019-10-12T15:12:13.917Z</time>
      </trkpt>
      <trkpt lat="20.24278167" lon="-98.73331">
        <ele>2066.0</ele>
        <time>2019-10-12T15:12:14.918Z</time>
      </trkpt>
      <trkpt lat="20.24278833" lon="-98.733285">
        <ele>2066.0</ele>
        <time>2019-10-12T15:12:15.921Z</time>
      </trkpt>
      <trkpt lat="20.24279667" lon="-98.73325667">
        <ele>2066.0</ele>
        <time>2019-10-12T15:12:16.923Z</time>
      </trkpt>
      <trkpt lat="20.242805" lon="-98.73322667">
        <ele>2067.0</ele>
        <time>2019-10-12T15:12:17.930Z</time>
      </trkpt>
      <trkpt lat="20.24281333" lon="-98.7332">
        <ele>2067.0</ele>
        <time>2019-10-12T15:12:18.936Z</time>
      </trkpt>
      <trkpt lat="20.24282" lon="-98.733175">
        <ele>2067.0</ele>
        <time>2019-10-12T15:12:19.941Z</time>
      </trkpt>
      <trkpt lat="20.24282667" lon="-98.73315167">
        <ele>2068.0</ele>
        <time>2019-10-12T15:12:20.946Z</time>
      </trkpt>
      <trkpt lat="20.242835" lon="-98.733125">
        <ele>2069.0</ele>
        <time>2019-10-12T15:12:21.952Z</time>
      </trkpt>
      <trkpt lat="20.24284333" lon="-98.73310167">
        <ele>2069.0</ele>
        <time>2019-10-12T15:12:22.832Z</time>
      </trkpt>
      <trkpt lat="20.242855" lon="-98.73308">
        <ele>2070.0</ele>
        <time>2019-10-12T15:12:23.835Z</time>
      </trkpt>
      <trkpt lat="20.242865" lon="-98.733055">
        <ele>2071.0</ele>
        <time>2019-10-12T15:12:24.841Z</time>
      </trkpt>
      <trkpt lat="20.24287667" lon="-98.73303833">
        <ele>2072.0</ele>
        <time>2019-10-12T15:12:25.847Z</time>
      </trkpt>
      <trkpt lat="20.24289" lon="-98.73301333">
        <ele>2072.0</ele>
        <time>2019-10-12T15:12:26.848Z</time>
      </trkpt>
      <trkpt lat="20.24289833" lon="-98.73299667">
        <ele>2073.0</ele>
        <time>2019-10-12T15:12:27.853Z</time>
      </trkpt>
      <trkpt lat="20.24291" lon="-98.73297833">
        <ele>2073.0</ele>
        <time>2019-10-12T15:12:28.855Z</time>
      </trkpt>
      <trkpt lat="20.24292333" lon="-98.73296">
        <ele>2074.0</ele>
        <time>2019-10-12T15:12:29.861Z</time>
      </trkpt>
      <trkpt lat="20.242935" lon="-98.73293833">
        <ele>2074.0</ele>
        <time>2019-10-12T15:12:30.867Z</time>
      </trkpt>
      <trkpt lat="20.24294667" lon="-98.73292">
        <ele>2075.0</ele>
        <time>2019-10-12T15:12:31.867Z</time>
      </trkpt>
      <trkpt lat="20.24295667" lon="-98.73289833">
        <ele>2076.0</ele>
        <time>2019-10-12T15:12:32.868Z</time>
      </trkpt>
      <trkpt lat="20.24296833" lon="-98.73288">
        <ele>2077.0</ele>
        <time>2019-10-12T15:12:33.869Z</time>
      </trkpt>
      <trkpt lat="20.24298167" lon="-98.73286167">
        <ele>2077.0</ele>
        <time>2019-10-12T15:12:34.869Z</time>
      </trkpt>
      <trkpt lat="20.24299167" lon="-98.732845">
        <ele>2077.0</ele>
        <time>2019-10-12T15:12:35.870Z</time>
      </trkpt>
      <trkpt lat="20.243" lon="-98.732835">
        <ele>2077.0</ele>
        <time>2019-10-12T15:12:36.870Z</time>
      </trkpt>
      <trkpt lat="20.243015" lon="-98.73282">
        <ele>2078.0</ele>
        <time>2019-10-12T15:12:37.871Z</time>
      </trkpt>
      <trkpt lat="20.24303167" lon="-98.73280833">
        <ele>2078.0</ele>
        <time>2019-10-12T15:12:38.871Z</time>
      </trkpt>
      <trkpt lat="20.24304833" lon="-98.73279333">
        <ele>2078.0</ele>
        <time>2019-10-12T15:12:39.872Z</time>
      </trkpt>
      <trkpt lat="20.243065" lon="-98.73278">
        <ele>2077.0</ele>
        <time>2019-10-12T15:12:40.877Z</time>
      </trkpt>
      <trkpt lat="20.243085" lon="-98.73276833">
        <ele>2077.0</ele>
        <time>2019-10-12T15:12:41.882Z</time>
      </trkpt>
      <trkpt lat="20.24310667" lon="-98.73275667">
        <ele>2076.0</ele>
        <time>2019-10-12T15:12:42.884Z</time>
      </trkpt>
      <trkpt lat="20.24312833" lon="-98.73274833">
        <ele>2076.0</ele>
        <time>2019-10-12T15:12:43.888Z</time>
      </trkpt>
      <trkpt lat="20.243155" lon="-98.73273667">
        <ele>2076.0</ele>
        <time>2019-10-12T15:12:44.895Z</time>
      </trkpt>
      <trkpt lat="20.24318" lon="-98.73272333">
        <ele>2076.0</ele>
        <time>2019-10-12T15:12:45.896Z</time>
      </trkpt>
      <trkpt lat="20.24320167" lon="-98.73271">
        <ele>2075.0</ele>
        <time>2019-10-12T15:12:46.898Z</time>
      </trkpt>
      <trkpt lat="20.243225" lon="-98.73269667">
        <ele>2075.0</ele>
        <time>2019-10-12T15:12:47.905Z</time>
      </trkpt>
      <trkpt lat="20.24325" lon="-98.732685">
        <ele>2074.0</ele>
        <time>2019-10-12T15:12:48.911Z</time>
      </trkpt>
      <trkpt lat="20.24327333" lon="-98.732675">
        <ele>2073.0</ele>
        <time>2019-10-12T15:12:49.915Z</time>
      </trkpt>
      <trkpt lat="20.24329833" lon="-98.73266667">
        <ele>2072.0</ele>
        <time>2019-10-12T15:12:50.921Z</time>
      </trkpt>
      <trkpt lat="20.243325" lon="-98.73265833">
        <ele>2071.0</ele>
        <time>2019-10-12T15:12:51.924Z</time>
      </trkpt>
      <trkpt lat="20.24335" lon="-98.73265167">
        <ele>2070.0</ele>
        <time>2019-10-12T15:12:52.930Z</time>
      </trkpt>
      <trkpt lat="20.24337667" lon="-98.73264667">
        <ele>2069.0</ele>
        <time>2019-10-12T15:12:53.937Z</time>
      </trkpt>
      <trkpt lat="20.24340333" lon="-98.732645">
        <ele>2068.0</ele>
        <time>2019-10-12T15:12:54.943Z</time>
      </trkpt>
      <trkpt lat="20.24343167" lon="-98.73263833">
        <ele>2068.0</ele>
        <time>2019-10-12T15:12:55.944Z</time>
      </trkpt>
      <trkpt lat="20.24345667" lon="-98.73263">
        <ele>2067.0</ele>
        <time>2019-10-12T15:12:56.944Z</time>
      </trkpt>
      <trkpt lat="20.24348" lon="-98.73262">
        <ele>2067.0</ele>
        <time>2019-10-12T15:12:57.946Z</time>
      </trkpt>
      <trkpt lat="20.24350333" lon="-98.73261">
        <ele>2067.0</ele>
        <time>2019-10-12T15:12:58.950Z</time>
      </trkpt>
      <trkpt lat="20.24352333" lon="-98.73260167">
        <ele>2066.0</ele>
        <time>2019-10-12T15:12:59.830Z</time>
      </trkpt>
      <trkpt lat="20.24355" lon="-98.732595">
        <ele>2066.0</ele>
        <time>2019-10-12T15:13:00.838Z</time>
      </trkpt>
      <trkpt lat="20.24358333" lon="-98.73259">
        <ele>2067.0</ele>
        <time>2019-10-12T15:13:01.844Z</time>
      </trkpt>
      <trkpt lat="20.24361333" lon="-98.73258667">
        <ele>2067.0</ele>
        <time>2019-10-12T15:13:02.851Z</time>
      </trkpt>
      <trkpt lat="20.24364667" lon="-98.73257833">
        <ele>2068.0</ele>
        <time>2019-10-12T15:13:03.859Z</time>
      </trkpt>
      <trkpt lat="20.24367667" lon="-98.73256333">
        <ele>2067.0</ele>
        <time>2019-10-12T15:13:04.865Z</time>
      </trkpt>
      <trkpt lat="20.243705" lon="-98.73255">
        <ele>2066.0</ele>
        <time>2019-10-12T15:13:05.871Z</time>
      </trkpt>
      <trkpt lat="20.24372667" lon="-98.73254">
        <ele>2065.0</ele>
        <time>2019-10-12T15:13:06.874Z</time>
      </trkpt>
      <trkpt lat="20.24374833" lon="-98.73253667">
        <ele>2064.0</ele>
        <time>2019-10-12T15:13:07.881Z</time>
      </trkpt>
      <trkpt lat="20.24377667" lon="-98.73252833">
        <ele>2064.0</ele>
        <time>2019-10-12T15:13:08.887Z</time>
      </trkpt>
      <trkpt lat="20.24380167" lon="-98.73251167">
        <ele>2065.0</ele>
        <time>2019-10-12T15:13:09.890Z</time>
      </trkpt>
      <trkpt lat="20.243825" lon="-98.73250167">
        <ele>2065.0</ele>
        <time>2019-10-12T15:13:10.892Z</time>
      </trkpt>
      <trkpt lat="20.24385167" lon="-98.73249">
        <ele>2066.0</ele>
        <time>2019-10-12T15:13:11.892Z</time>
      </trkpt>
      <trkpt lat="20.24387833" lon="-98.732485">
        <ele>2066.0</ele>
        <time>2019-10-12T15:13:12.893Z</time>
      </trkpt>
      <trkpt lat="20.24390833" lon="-98.73248167">
        <ele>2066.0</ele>
        <time>2019-10-12T15:13:13.893Z</time>
      </trkpt>
      <trkpt lat="20.243935" lon="-98.73247">
        <ele>2067.0</ele>
        <time>2019-10-12T15:13:14.894Z</time>
      </trkpt>
      <trkpt lat="20.24395333" lon="-98.73246667">
        <ele>2067.0</ele>
        <time>2019-10-12T15:13:15.895Z</time>
      </trkpt>
      <trkpt lat="20.24396667" lon="-98.73246833">
        <ele>2067.0</ele>
        <time>2019-10-12T15:13:16.895Z</time>
      </trkpt>
      <trkpt lat="20.24398167" lon="-98.73247833">
        <ele>2067.0</ele>
        <time>2019-10-12T15:13:17.896Z</time>
      </trkpt>
      <trkpt lat="20.244" lon="-98.73249">
        <ele>2066.0</ele>
        <time>2019-10-12T15:13:18.897Z</time>
      </trkpt>
      <trkpt lat="20.24402" lon="-98.7325">
        <ele>2065.0</ele>
        <time>2019-10-12T15:13:19.898Z</time>
      </trkpt>
      <trkpt lat="20.24404" lon="-98.73251167">
        <ele>2064.0</ele>
        <time>2019-10-12T15:13:20.898Z</time>
      </trkpt>
      <trkpt lat="20.244065" lon="-98.73251667">
        <ele>2064.0</ele>
        <time>2019-10-12T15:13:21.899Z</time>
      </trkpt>
      <trkpt lat="20.244095" lon="-98.73251333">
        <ele>2062.0</ele>
        <time>2019-10-12T15:13:22.905Z</time>
      </trkpt>
      <trkpt lat="20.24412167" lon="-98.73251">
        <ele>2062.0</ele>
        <time>2019-10-12T15:13:23.911Z</time>
      </trkpt>
      <trkpt lat="20.24415167" lon="-98.73251333">
        <ele>2061.0</ele>
        <time>2019-10-12T15:13:24.916Z</time>
      </trkpt>
      <trkpt lat="20.24417333" lon="-98.73251667">
        <ele>2060.0</ele>
        <time>2019-10-12T15:13:25.922Z</time>
      </trkpt>
      <trkpt lat="20.2442" lon="-98.73251667">
        <ele>2059.0</ele>
        <time>2019-10-12T15:13:26.927Z</time>
      </trkpt>
      <trkpt lat="20.244225" lon="-98.73250667">
        <ele>2059.0</ele>
        <time>2019-10-12T15:13:27.933Z</time>
      </trkpt>
      <trkpt lat="20.24425333" lon="-98.73249333">
        <ele>2059.0</ele>
        <time>2019-10-12T15:13:28.939Z</time>
      </trkpt>
      <trkpt lat="20.24428" lon="-98.73249">
        <ele>2058.0</ele>
        <time>2019-10-12T15:13:29.941Z</time>
      </trkpt>
      <trkpt lat="20.24431" lon="-98.73248833">
        <ele>2057.0</ele>
        <time>2019-10-12T15:13:30.943Z</time>
      </trkpt>
      <trkpt lat="20.24434167" lon="-98.73248667">
        <ele>2058.0</ele>
        <time>2019-10-12T15:13:31.949Z</time>
      </trkpt>
      <trkpt lat="20.24436667" lon="-98.73249">
        <ele>2058.0</ele>
        <time>2019-10-12T15:13:32.953Z</time>
      </trkpt>
      <trkpt lat="20.24439333" lon="-98.73248333">
        <ele>2057.0</ele>
        <time>2019-10-12T15:13:33.835Z</time>
      </trkpt>
      <trkpt lat="20.24442333" lon="-98.73247667">
        <ele>2057.0</ele>
        <time>2019-10-12T15:13:34.839Z</time>
      </trkpt>
      <trkpt lat="20.24444833" lon="-98.73246167">
        <ele>2057.0</ele>
        <time>2019-10-12T15:13:35.842Z</time>
      </trkpt>
      <trkpt lat="20.24447167" lon="-98.73245667">
        <ele>2058.0</ele>
        <time>2019-10-12T15:13:36.846Z</time>
      </trkpt>
      <trkpt lat="20.24449167" lon="-98.73245667">
        <ele>2059.0</ele>
        <time>2019-10-12T15:13:37.847Z</time>
      </trkpt>
      <trkpt lat="20.24451333" lon="-98.73245833">
        <ele>2059.0</ele>
        <time>2019-10-12T15:13:38.847Z</time>
      </trkpt>
      <trkpt lat="20.24454333" lon="-98.73245333">
        <ele>2057.0</ele>
        <time>2019-10-12T15:13:39.848Z</time>
      </trkpt>
      <trkpt lat="20.24457" lon="-98.732445">
        <ele>2057.0</ele>
        <time>2019-10-12T15:13:40.849Z</time>
      </trkpt>
      <trkpt lat="20.24459333" lon="-98.73243333">
        <ele>2056.0</ele>
        <time>2019-10-12T15:13:41.850Z</time>
      </trkpt>
      <trkpt lat="20.24461833" lon="-98.73242">
        <ele>2054.0</ele>
        <time>2019-10-12T15:13:42.851Z</time>
      </trkpt>
      <trkpt lat="20.24464333" lon="-98.73240833">
        <ele>2053.0</ele>
        <time>2019-10-12T15:13:43.851Z</time>
      </trkpt>
      <trkpt lat="20.24466833" lon="-98.73239333">
        <ele>2052.0</ele>
        <time>2019-10-12T15:13:44.852Z</time>
      </trkpt>
      <trkpt lat="20.24468833" lon="-98.73237833">
        <ele>2051.0</ele>
        <time>2019-10-12T15:13:45.853Z</time>
      </trkpt>
      <trkpt lat="20.24470833" lon="-98.73235833">
        <ele>2050.0</ele>
        <time>2019-10-12T15:13:46.854Z</time>
      </trkpt>
      <trkpt lat="20.24472667" lon="-98.73234">
        <ele>2050.0</ele>
        <time>2019-10-12T15:13:47.855Z</time>
      </trkpt>
      <trkpt lat="20.24474167" lon="-98.732315">
        <ele>2050.0</ele>
        <time>2019-10-12T15:13:48.855Z</time>
      </trkpt>
      <trkpt lat="20.24476" lon="-98.73229">
        <ele>2049.0</ele>
        <time>2019-10-12T15:13:49.856Z</time>
      </trkpt>
      <trkpt lat="20.24478333" lon="-98.73226833">
        <ele>2049.0</ele>
        <time>2019-10-12T15:13:50.856Z</time>
      </trkpt>
      <trkpt lat="20.24480667" lon="-98.732255">
        <ele>2048.0</ele>
        <time>2019-10-12T15:13:51.857Z</time>
      </trkpt>
      <trkpt lat="20.24482333" lon="-98.73225">
        <ele>2047.0</ele>
        <time>2019-10-12T15:13:52.858Z</time>
      </trkpt>
      <trkpt lat="20.24484167" lon="-98.73225">
        <ele>2047.0</ele>
        <time>2019-10-12T15:13:53.859Z</time>
      </trkpt>
      <trkpt lat="20.24486167" lon="-98.73226167">
        <ele>2047.0</ele>
        <time>2019-10-12T15:13:54.860Z</time>
      </trkpt>
      <trkpt lat="20.24488167" lon="-98.73227833">
        <ele>2048.0</ele>
        <time>2019-10-12T15:13:55.860Z</time>
      </trkpt>
      <trkpt lat="20.24490167" lon="-98.73230167">
        <ele>2048.0</ele>
        <time>2019-10-12T15:13:56.861Z</time>
      </trkpt>
      <trkpt lat="20.24492333" lon="-98.73232167">
        <ele>2049.0</ele>
        <time>2019-10-12T15:13:57.862Z</time>
      </trkpt>
      <trkpt lat="20.24494833" lon="-98.73234333">
        <ele>2049.0</ele>
        <time>2019-10-12T15:13:58.863Z</time>
      </trkpt>
      <trkpt lat="20.244975" lon="-98.73236667">
        <ele>2050.0</ele>
        <time>2019-10-12T15:13:59.863Z</time>
      </trkpt>
      <trkpt lat="20.245" lon="-98.732385">
        <ele>2051.0</ele>
        <time>2019-10-12T15:14:00.864Z</time>
      </trkpt>
      <trkpt lat="20.24502333" lon="-98.73240333">
        <ele>2051.0</ele>
        <time>2019-10-12T15:14:01.866Z</time>
      </trkpt>
      <trkpt lat="20.24504833" lon="-98.73241333">
        <ele>2051.0</ele>
        <time>2019-10-12T15:14:02.871Z</time>
      </trkpt>
      <trkpt lat="20.245075" lon="-98.73242167">
        <ele>2051.0</ele>
        <time>2019-10-12T15:14:03.878Z</time>
      </trkpt>
      <trkpt lat="20.2451" lon="-98.732435">
        <ele>2051.0</ele>
        <time>2019-10-12T15:14:04.884Z</time>
      </trkpt>
      <trkpt lat="20.24512833" lon="-98.73244667">
        <ele>2050.0</ele>
        <time>2019-10-12T15:14:05.889Z</time>
      </trkpt>
      <trkpt lat="20.24515667" lon="-98.732455">
        <ele>2050.0</ele>
        <time>2019-10-12T15:14:06.893Z</time>
      </trkpt>
      <trkpt lat="20.24518667" lon="-98.73245833">
        <ele>2049.0</ele>
        <time>2019-10-12T15:14:07.899Z</time>
      </trkpt>
      <trkpt lat="20.24521833" lon="-98.73246333">
        <ele>2048.0</ele>
        <time>2019-10-12T15:14:08.901Z</time>
      </trkpt>
      <trkpt lat="20.24525333" lon="-98.73247333">
        <ele>2049.0</ele>
        <time>2019-10-12T15:14:09.905Z</time>
      </trkpt>
      <trkpt lat="20.24528167" lon="-98.73247833">
        <ele>2048.0</ele>
        <time>2019-10-12T15:14:10.912Z</time>
      </trkpt>
      <trkpt lat="20.24530833" lon="-98.73249167">
        <ele>2047.0</ele>
        <time>2019-10-12T15:14:11.919Z</time>
      </trkpt>
      <trkpt lat="20.24532833" lon="-98.73250667">
        <ele>2047.0</ele>
        <time>2019-10-12T15:14:12.921Z</time>
      </trkpt>
      <trkpt lat="20.245345" lon="-98.73253167">
        <ele>2045.0</ele>
        <time>2019-10-12T15:14:13.928Z</time>
      </trkpt>
      <trkpt lat="20.24536833" lon="-98.73256333">
        <ele>2045.0</ele>
        <time>2019-10-12T15:14:14.934Z</time>
      </trkpt>
      <trkpt lat="20.24539167" lon="-98.73258833">
        <ele>2045.0</ele>
        <time>2019-10-12T15:14:15.936Z</time>
      </trkpt>
      <trkpt lat="20.24541333" lon="-98.73261">
        <ele>2045.0</ele>
        <time>2019-10-12T15:14:16.942Z</time>
      </trkpt>
      <trkpt lat="20.24544167" lon="-98.73263833">
        <ele>2044.0</ele>
        <time>2019-10-12T15:14:17.949Z</time>
      </trkpt>
      <trkpt lat="20.24546833" lon="-98.73266">
        <ele>2043.0</ele>
        <time>2019-10-12T15:14:18.830Z</time>
      </trkpt>
      <trkpt lat="20.24549167" lon="-98.73268333">
        <ele>2042.0</ele>
        <time>2019-10-12T15:14:19.834Z</time>
      </trkpt>
      <trkpt lat="20.24552167" lon="-98.73270667">
        <ele>2041.0</ele>
        <time>2019-10-12T15:14:20.839Z</time>
      </trkpt>
      <trkpt lat="20.24554833" lon="-98.732725">
        <ele>2041.0</ele>
        <time>2019-10-12T15:14:21.845Z</time>
      </trkpt>
      <trkpt lat="20.24557833" lon="-98.73273833">
        <ele>2040.0</ele>
        <time>2019-10-12T15:14:22.847Z</time>
      </trkpt>
      <trkpt lat="20.24560833" lon="-98.73274167">
        <ele>2040.0</ele>
        <time>2019-10-12T15:14:23.853Z</time>
      </trkpt>
      <trkpt lat="20.24563833" lon="-98.73274667">
        <ele>2041.0</ele>
        <time>2019-10-12T15:14:24.860Z</time>
      </trkpt>
      <trkpt lat="20.24566" lon="-98.732755">
        <ele>2040.0</ele>
        <time>2019-10-12T15:14:25.866Z</time>
      </trkpt>
      <trkpt lat="20.24569" lon="-98.73276833">
        <ele>2040.0</ele>
        <time>2019-10-12T15:14:26.871Z</time>
      </trkpt>
      <trkpt lat="20.24571667" lon="-98.732775">
        <ele>2040.0</ele>
        <time>2019-10-12T15:14:27.878Z</time>
      </trkpt>
      <trkpt lat="20.245745" lon="-98.73278667">
        <ele>2041.0</ele>
        <time>2019-10-12T15:14:28.882Z</time>
      </trkpt>
      <trkpt lat="20.24577167" lon="-98.73280167">
        <ele>2041.0</ele>
        <time>2019-10-12T15:14:29.883Z</time>
      </trkpt>
      <trkpt lat="20.24579" lon="-98.73281667">
        <ele>2041.0</ele>
        <time>2019-10-12T15:14:30.884Z</time>
      </trkpt>
      <trkpt lat="20.24581167" lon="-98.73283833">
        <ele>2041.0</ele>
        <time>2019-10-12T15:14:31.890Z</time>
      </trkpt>
      <trkpt lat="20.24583667" lon="-98.73285167">
        <ele>2041.0</ele>
        <time>2019-10-12T15:14:32.898Z</time>
      </trkpt>
      <trkpt lat="20.24586" lon="-98.73286333">
        <ele>2041.0</ele>
        <time>2019-10-12T15:14:33.902Z</time>
      </trkpt>
      <trkpt lat="20.24588167" lon="-98.73287667">
        <ele>2041.0</ele>
        <time>2019-10-12T15:14:34.906Z</time>
      </trkpt>
      <trkpt lat="20.24590333" lon="-98.73288833">
        <ele>2041.0</ele>
        <time>2019-10-12T15:14:35.910Z</time>
      </trkpt>
      <trkpt lat="20.24591833" lon="-98.73290667">
        <ele>2040.0</ele>
        <time>2019-10-12T15:14:36.917Z</time>
      </trkpt>
      <trkpt lat="20.24593833" lon="-98.732925">
        <ele>2039.0</ele>
        <time>2019-10-12T15:14:37.920Z</time>
      </trkpt>
      <trkpt lat="20.245955" lon="-98.73293833">
        <ele>2038.0</ele>
        <time>2019-10-12T15:14:38.926Z</time>
      </trkpt>
      <trkpt lat="20.24598" lon="-98.73295">
        <ele>2037.0</ele>
        <time>2019-10-12T15:14:39.931Z</time>
      </trkpt>
      <trkpt lat="20.24600667" lon="-98.73296">
        <ele>2035.0</ele>
        <time>2019-10-12T15:14:40.937Z</time>
      </trkpt>
      <trkpt lat="20.246025" lon="-98.732965">
        <ele>2035.0</ele>
        <time>2019-10-12T15:14:41.943Z</time>
      </trkpt>
      <trkpt lat="20.246045" lon="-98.73296667">
        <ele>2035.0</ele>
        <time>2019-10-12T15:14:42.948Z</time>
      </trkpt>
      <trkpt lat="20.24606167" lon="-98.73297333">
        <ele>2035.0</ele>
        <time>2019-10-12T15:14:43.955Z</time>
      </trkpt>
      <trkpt lat="20.24608667" lon="-98.73298833">
        <ele>2034.0</ele>
        <time>2019-10-12T15:14:44.832Z</time>
      </trkpt>
      <trkpt lat="20.24610667" lon="-98.733">
        <ele>2034.0</ele>
        <time>2019-10-12T15:14:45.833Z</time>
      </trkpt>
      <trkpt lat="20.246135" lon="-98.73301">
        <ele>2033.0</ele>
        <time>2019-10-12T15:14:46.834Z</time>
      </trkpt>
      <trkpt lat="20.24615833" lon="-98.73301333">
        <ele>2032.0</ele>
        <time>2019-10-12T15:14:47.835Z</time>
      </trkpt>
      <trkpt lat="20.24618333" lon="-98.73301333">
        <ele>2032.0</ele>
        <time>2019-10-12T15:14:48.835Z</time>
      </trkpt>
      <trkpt lat="20.24621167" lon="-98.73300667">
        <ele>2032.0</ele>
        <time>2019-10-12T15:14:49.836Z</time>
      </trkpt>
      <trkpt lat="20.246235" lon="-98.73299833">
        <ele>2032.0</ele>
        <time>2019-10-12T15:14:50.837Z</time>
      </trkpt>
      <trkpt lat="20.24625667" lon="-98.73299667">
        <ele>2033.0</ele>
        <time>2019-10-12T15:14:51.838Z</time>
      </trkpt>
      <trkpt lat="20.24626833" lon="-98.733">
        <ele>2034.0</ele>
        <time>2019-10-12T15:14:52.839Z</time>
      </trkpt>
      <trkpt lat="20.246275" lon="-98.73301167">
        <ele>2037.0</ele>
        <time>2019-10-12T15:14:53.840Z</time>
      </trkpt>
      <trkpt lat="20.24627833" lon="-98.73302667">
        <ele>2038.0</ele>
        <time>2019-10-12T15:14:54.840Z</time>
      </trkpt>
      <trkpt lat="20.24628333" lon="-98.73304">
        <ele>2039.0</ele>
        <time>2019-10-12T15:14:55.841Z</time>
      </trkpt>
      <trkpt lat="20.24628167" lon="-98.73305">
        <ele>2040.0</ele>
        <time>2019-10-12T15:14:56.842Z</time>
      </trkpt>
      <trkpt lat="20.24628" lon="-98.73306">
        <ele>2041.0</ele>
        <time>2019-10-12T15:14:57.843Z</time>
      </trkpt>
      <trkpt lat="20.24628333" lon="-98.73306667">
        <ele>2041.0</ele>
        <time>2019-10-12T15:14:58.844Z</time>
      </trkpt>
      <trkpt lat="20.24629" lon="-98.73308333">
        <ele>2040.0</ele>
        <time>2019-10-12T15:14:59.844Z</time>
      </trkpt>
      <trkpt lat="20.24629667" lon="-98.73310333">
        <ele>2040.0</ele>
        <time>2019-10-12T15:15:00.845Z</time>
      </trkpt>
      <trkpt lat="20.24630333" lon="-98.733125">
        <ele>2041.0</ele>
        <time>2019-10-12T15:15:01.846Z</time>
      </trkpt>
      <trkpt lat="20.24630833" lon="-98.73314">
        <ele>2041.0</ele>
        <time>2019-10-12T15:15:02.847Z</time>
      </trkpt>
      <trkpt lat="20.246315" lon="-98.73315667">
        <ele>2041.0</ele>
        <time>2019-10-12T15:15:03.848Z</time>
      </trkpt>
      <trkpt lat="20.24631833" lon="-98.73316667">
        <ele>2041.0</ele>
        <time>2019-10-12T15:15:04.848Z</time>
      </trkpt>
      <trkpt lat="20.24631833" lon="-98.73317167">
        <ele>2041.0</ele>
        <time>2019-10-12T15:15:05.849Z</time>
      </trkpt>
      <trkpt lat="20.24631667" lon="-98.733175">
        <ele>2042.0</ele>
        <time>2019-10-12T15:15:06.850Z</time>
      </trkpt>
      <trkpt lat="20.246315" lon="-98.73318">
        <ele>2042.0</ele>
        <time>2019-10-12T15:15:07.851Z</time>
      </trkpt>
      <trkpt lat="20.24631167" lon="-98.73318833">
        <ele>2043.0</ele>
        <time>2019-10-12T15:15:08.852Z</time>
      </trkpt>
      <trkpt lat="20.24630667" lon="-98.73319667">
        <ele>2044.0</ele>
        <time>2019-10-12T15:15:09.853Z</time>
      </trkpt>
      <trkpt lat="20.24630167" lon="-98.73320167">
        <ele>2045.0</ele>
        <time>2019-10-12T15:15:10.853Z</time>
      </trkpt>
      <trkpt lat="20.24629833" lon="-98.73321167">
        <ele>2046.0</ele>
        <time>2019-10-12T15:15:11.854Z</time>
      </trkpt>
      <trkpt lat="20.24629833" lon="-98.73321833">
        <ele>2047.0</ele>
        <time>2019-10-12T15:15:12.855Z</time>
      </trkpt>
      <trkpt lat="20.24630167" lon="-98.73322">
        <ele>2048.0</ele>
        <time>2019-10-12T15:15:13.856Z</time>
      </trkpt>
      <trkpt lat="20.24630167" lon="-98.73322333">
        <ele>2049.0</ele>
        <time>2019-10-12T15:15:14.863Z</time>
      </trkpt>
      <trkpt lat="20.24630333" lon="-98.73323">
        <ele>2050.0</ele>
        <time>2019-10-12T15:15:15.869Z</time>
      </trkpt>
      <trkpt lat="20.2463" lon="-98.73324167">
        <ele>2051.0</ele>
        <time>2019-10-12T15:15:16.872Z</time>
      </trkpt>
      <trkpt lat="20.24629833" lon="-98.73324833">
        <ele>2052.0</ele>
        <time>2019-10-12T15:15:17.877Z</time>
      </trkpt>
      <trkpt lat="20.24630333" lon="-98.73326167">
        <ele>2052.0</ele>
        <time>2019-10-12T15:15:18.881Z</time>
      </trkpt>
      <trkpt lat="20.24631333" lon="-98.733275">
        <ele>2052.0</ele>
        <time>2019-10-12T15:15:19.887Z</time>
      </trkpt>
      <trkpt lat="20.24632667" lon="-98.73328667">
        <ele>2052.0</ele>
        <time>2019-10-12T15:15:20.894Z</time>
      </trkpt>
      <trkpt lat="20.24634333" lon="-98.733305">
        <ele>2053.0</ele>
        <time>2019-10-12T15:15:21.901Z</time>
      </trkpt>
      <trkpt lat="20.24635667" lon="-98.73331833">
        <ele>2053.0</ele>
        <time>2019-10-12T15:15:22.907Z</time>
      </trkpt>
      <trkpt lat="20.24637167" lon="-98.73333667">
        <ele>2053.0</ele>
        <time>2019-10-12T15:15:23.910Z</time>
      </trkpt>
      <trkpt lat="20.24638167" lon="-98.73335167">
        <ele>2052.0</ele>
        <time>2019-10-12T15:15:24.914Z</time>
      </trkpt>
      <trkpt lat="20.24639" lon="-98.73335833">
        <ele>2052.0</ele>
        <time>2019-10-12T15:15:25.920Z</time>
      </trkpt>
      <trkpt lat="20.24639167" lon="-98.73338">
        <ele>2052.0</ele>
        <time>2019-10-12T15:15:26.925Z</time>
      </trkpt>
      <trkpt lat="20.24639667" lon="-98.733405">
        <ele>2052.0</ele>
        <time>2019-10-12T15:15:27.929Z</time>
      </trkpt>
      <trkpt lat="20.2464" lon="-98.73343667">
        <ele>2052.0</ele>
        <time>2019-10-12T15:15:28.930Z</time>
      </trkpt>
      <trkpt lat="20.24640833" lon="-98.73347167">
        <ele>2052.0</ele>
        <time>2019-10-12T15:15:29.931Z</time>
      </trkpt>
      <trkpt lat="20.246425" lon="-98.73350167">
        <ele>2051.0</ele>
        <time>2019-10-12T15:15:30.931Z</time>
      </trkpt>
      <trkpt lat="20.246435" lon="-98.73352">
        <ele>2051.0</ele>
        <time>2019-10-12T15:15:31.932Z</time>
      </trkpt>
      <trkpt lat="20.24644333" lon="-98.733535">
        <ele>2052.0</ele>
        <time>2019-10-12T15:15:32.938Z</time>
      </trkpt>
      <trkpt lat="20.24646" lon="-98.73355">
        <ele>2052.0</ele>
        <time>2019-10-12T15:15:33.944Z</time>
      </trkpt>
      <trkpt lat="20.24647833" lon="-98.733565">
        <ele>2051.0</ele>
        <time>2019-10-12T15:15:34.949Z</time>
      </trkpt>
      <trkpt lat="20.24649833" lon="-98.73357667">
        <ele>2050.0</ele>
        <time>2019-10-12T15:15:35.953Z</time>
      </trkpt>
      <trkpt lat="20.246515" lon="-98.73358833">
        <ele>2049.0</ele>
        <time>2019-10-12T15:15:36.832Z</time>
      </trkpt>
      <trkpt lat="20.24654" lon="-98.73359667">
        <ele>2048.0</ele>
        <time>2019-10-12T15:15:37.837Z</time>
      </trkpt>
      <trkpt lat="20.24655667" lon="-98.73360833">
        <ele>2046.0</ele>
        <time>2019-10-12T15:15:38.843Z</time>
      </trkpt>
      <trkpt lat="20.24657167" lon="-98.73362167">
        <ele>2046.0</ele>
        <time>2019-10-12T15:15:39.850Z</time>
      </trkpt>
      <trkpt lat="20.246575" lon="-98.73363">
        <ele>2046.0</ele>
        <time>2019-10-12T15:15:40.857Z</time>
      </trkpt>
      <trkpt lat="20.24656833" lon="-98.733635">
        <ele>2046.0</ele>
        <time>2019-10-12T15:15:41.861Z</time>
      </trkpt>
      <trkpt lat="20.24655333" lon="-98.733645">
        <ele>2047.0</ele>
        <time>2019-10-12T15:15:42.866Z</time>
      </trkpt>
      <trkpt lat="20.24654" lon="-98.733655">
        <ele>2048.0</ele>
        <time>2019-10-12T15:15:43.874Z</time>
      </trkpt>
      <trkpt lat="20.246525" lon="-98.73367">
        <ele>2049.0</ele>
        <time>2019-10-12T15:15:44.879Z</time>
      </trkpt>
      <trkpt lat="20.24651167" lon="-98.73369">
        <ele>2048.0</ele>
        <time>2019-10-12T15:15:45.880Z</time>
      </trkpt>
      <trkpt lat="20.24650333" lon="-98.73371833">
        <ele>2048.0</ele>
        <time>2019-10-12T15:15:46.881Z</time>
      </trkpt>
      <trkpt lat="20.24650167" lon="-98.73374167">
        <ele>2047.0</ele>
        <time>2019-10-12T15:15:47.882Z</time>
      </trkpt>
      <trkpt lat="20.2465" lon="-98.73376167">
        <ele>2047.0</ele>
        <time>2019-10-12T15:15:48.883Z</time>
      </trkpt>
      <trkpt lat="20.24650333" lon="-98.73377667">
        <ele>2047.0</ele>
        <time>2019-10-12T15:15:49.884Z</time>
      </trkpt>
      <trkpt lat="20.24651" lon="-98.73379833">
        <ele>2046.0</ele>
        <time>2019-10-12T15:15:50.884Z</time>
      </trkpt>
      <trkpt lat="20.24651833" lon="-98.73381667">
        <ele>2045.0</ele>
        <time>2019-10-12T15:15:51.885Z</time>
      </trkpt>
      <trkpt lat="20.24653167" lon="-98.73384667">
        <ele>2044.0</ele>
        <time>2019-10-12T15:15:52.886Z</time>
      </trkpt>
      <trkpt lat="20.24655167" lon="-98.73387167">
        <ele>2043.0</ele>
        <time>2019-10-12T15:15:53.887Z</time>
      </trkpt>
      <trkpt lat="20.24656833" lon="-98.73389">
        <ele>2043.0</ele>
        <time>2019-10-12T15:15:54.888Z</time>
      </trkpt>
      <trkpt lat="20.24658833" lon="-98.733905">
        <ele>2043.0</ele>
        <time>2019-10-12T15:15:55.888Z</time>
      </trkpt>
      <trkpt lat="20.24660833" lon="-98.73391667">
        <ele>2043.0</ele>
        <time>2019-10-12T15:15:56.889Z</time>
      </trkpt>
      <trkpt lat="20.24662833" lon="-98.73392833">
        <ele>2044.0</ele>
        <time>2019-10-12T15:15:57.890Z</time>
      </trkpt>
      <trkpt lat="20.24665167" lon="-98.73394">
        <ele>2044.0</ele>
        <time>2019-10-12T15:15:58.891Z</time>
      </trkpt>
      <trkpt lat="20.24667833" lon="-98.73394833">
        <ele>2043.0</ele>
        <time>2019-10-12T15:15:59.892Z</time>
      </trkpt>
      <trkpt lat="20.24669667" lon="-98.73395333">
        <ele>2043.0</ele>
        <time>2019-10-12T15:16:00.892Z</time>
      </trkpt>
      <trkpt lat="20.24672167" lon="-98.73395667">
        <ele>2043.0</ele>
        <time>2019-10-12T15:16:01.893Z</time>
      </trkpt>
      <trkpt lat="20.246745" lon="-98.73395833">
        <ele>2042.0</ele>
        <time>2019-10-12T15:16:02.894Z</time>
      </trkpt>
      <trkpt lat="20.24676333" lon="-98.73396167">
        <ele>2041.0</ele>
        <time>2019-10-12T15:16:03.894Z</time>
      </trkpt>
      <trkpt lat="20.24677333" lon="-98.73397">
        <ele>2041.0</ele>
        <time>2019-10-12T15:16:04.896Z</time>
      </trkpt>
      <trkpt lat="20.24677667" lon="-98.73398">
        <ele>2041.0</ele>
        <time>2019-10-12T15:16:05.897Z</time>
      </trkpt>
      <trkpt lat="20.24677333" lon="-98.73399167">
        <ele>2042.0</ele>
        <time>2019-10-12T15:16:06.897Z</time>
      </trkpt>
      <trkpt lat="20.24677" lon="-98.734">
        <ele>2041.0</ele>
        <time>2019-10-12T15:16:07.898Z</time>
      </trkpt>
      <trkpt lat="20.24676333" lon="-98.73400667">
        <ele>2041.0</ele>
        <time>2019-10-12T15:16:08.899Z</time>
      </trkpt>
      <trkpt lat="20.24675333" lon="-98.73401667">
        <ele>2040.0</ele>
        <time>2019-10-12T15:16:09.900Z</time>
      </trkpt>
      <trkpt lat="20.24674333" lon="-98.734025">
        <ele>2040.0</ele>
        <time>2019-10-12T15:16:10.904Z</time>
      </trkpt>
      <trkpt lat="20.24672833" lon="-98.73404167">
        <ele>2040.0</ele>
        <time>2019-10-12T15:16:11.911Z</time>
      </trkpt>
      <trkpt lat="20.24671833" lon="-98.73406167">
        <ele>2041.0</ele>
        <time>2019-10-12T15:16:12.913Z</time>
      </trkpt>
      <trkpt lat="20.24671333" lon="-98.73408833">
        <ele>2041.0</ele>
        <time>2019-10-12T15:16:13.918Z</time>
      </trkpt>
      <trkpt lat="20.24671333" lon="-98.734115">
        <ele>2041.0</ele>
        <time>2019-10-12T15:16:14.925Z</time>
      </trkpt>
      <trkpt lat="20.24670833" lon="-98.73414833">
        <ele>2041.0</ele>
        <time>2019-10-12T15:16:15.929Z</time>
      </trkpt>
      <trkpt lat="20.24670167" lon="-98.734175">
        <ele>2041.0</ele>
        <time>2019-10-12T15:16:16.934Z</time>
      </trkpt>
      <trkpt lat="20.2467" lon="-98.73419667">
        <ele>2041.0</ele>
        <time>2019-10-12T15:16:17.937Z</time>
      </trkpt>
      <trkpt lat="20.24669667" lon="-98.73421833">
        <ele>2042.0</ele>
        <time>2019-10-12T15:16:18.940Z</time>
      </trkpt>
      <trkpt lat="20.24668833" lon="-98.73423667">
        <ele>2042.0</ele>
        <time>2019-10-12T15:16:19.946Z</time>
      </trkpt>
      <trkpt lat="20.24668" lon="-98.73426">
        <ele>2043.0</ele>
        <time>2019-10-12T15:16:20.951Z</time>
      </trkpt>
      <trkpt lat="20.24667833" lon="-98.734285">
        <ele>2044.0</ele>
        <time>2019-10-12T15:16:21.831Z</time>
      </trkpt>
      <trkpt lat="20.24667833" lon="-98.734305">
        <ele>2044.0</ele>
        <time>2019-10-12T15:16:22.838Z</time>
      </trkpt>
      <trkpt lat="20.24668167" lon="-98.73433833">
        <ele>2045.0</ele>
        <time>2019-10-12T15:16:23.843Z</time>
      </trkpt>
      <trkpt lat="20.24669667" lon="-98.73437333">
        <ele>2045.0</ele>
        <time>2019-10-12T15:16:24.849Z</time>
      </trkpt>
      <trkpt lat="20.24671333" lon="-98.73439333">
        <ele>2045.0</ele>
        <time>2019-10-12T15:16:25.850Z</time>
      </trkpt>
      <trkpt lat="20.24672833" lon="-98.73441167">
        <ele>2046.0</ele>
        <time>2019-10-12T15:16:26.850Z</time>
      </trkpt>
      <trkpt lat="20.24673833" lon="-98.73443333">
        <ele>2047.0</ele>
        <time>2019-10-12T15:16:27.855Z</time>
      </trkpt>
      <trkpt lat="20.24674667" lon="-98.73445333">
        <ele>2047.0</ele>
        <time>2019-10-12T15:16:28.860Z</time>
      </trkpt>
      <trkpt lat="20.24675833" lon="-98.73447333">
        <ele>2047.0</ele>
        <time>2019-10-12T15:16:29.866Z</time>
      </trkpt>
      <trkpt lat="20.246775" lon="-98.73450167">
        <ele>2047.0</ele>
        <time>2019-10-12T15:16:30.869Z</time>
      </trkpt>
      <trkpt lat="20.24679167" lon="-98.73452333">
        <ele>2047.0</ele>
        <time>2019-10-12T15:16:31.874Z</time>
      </trkpt>
      <trkpt lat="20.24680667" lon="-98.73454167">
        <ele>2047.0</ele>
        <time>2019-10-12T15:16:32.876Z</time>
      </trkpt>
      <trkpt lat="20.246825" lon="-98.73456">
        <ele>2047.0</ele>
        <time>2019-10-12T15:16:33.879Z</time>
      </trkpt>
      <trkpt lat="20.24683667" lon="-98.734575">
        <ele>2048.0</ele>
        <time>2019-10-12T15:16:34.883Z</time>
      </trkpt>
      <trkpt lat="20.24684333" lon="-98.73458667">
        <ele>2048.0</ele>
        <time>2019-10-12T15:16:35.888Z</time>
      </trkpt>
      <trkpt lat="20.24684833" lon="-98.73460667">
        <ele>2048.0</ele>
        <time>2019-10-12T15:16:36.895Z</time>
      </trkpt>
      <trkpt lat="20.246855" lon="-98.73462833">
        <ele>2049.0</ele>
        <time>2019-10-12T15:16:37.903Z</time>
      </trkpt>
      <trkpt lat="20.24687667" lon="-98.73465333">
        <ele>2048.0</ele>
        <time>2019-10-12T15:16:38.905Z</time>
      </trkpt>
      <trkpt lat="20.24688167" lon="-98.734665">
        <ele>2047.0</ele>
        <time>2019-10-12T15:16:39.908Z</time>
      </trkpt>
      <trkpt lat="20.24689167" lon="-98.73467833">
        <ele>2047.0</ele>
        <time>2019-10-12T15:16:40.912Z</time>
      </trkpt>
      <trkpt lat="20.24691" lon="-98.73470333">
        <ele>2046.0</ele>
        <time>2019-10-12T15:16:41.915Z</time>
      </trkpt>
      <trkpt lat="20.24693" lon="-98.73472333">
        <ele>2045.0</ele>
        <time>2019-10-12T15:16:42.922Z</time>
      </trkpt>
      <trkpt lat="20.24695333" lon="-98.734745">
        <ele>2044.0</ele>
        <time>2019-10-12T15:16:43.926Z</time>
      </trkpt>
      <trkpt lat="20.24698" lon="-98.73476333">
        <ele>2043.0</ele>
        <time>2019-10-12T15:16:44.927Z</time>
      </trkpt>
      <trkpt lat="20.24700333" lon="-98.734775">
        <ele>2042.0</ele>
        <time>2019-10-12T15:16:45.928Z</time>
      </trkpt>
      <trkpt lat="20.24702167" lon="-98.73478">
        <ele>2042.0</ele>
        <time>2019-10-12T15:16:46.928Z</time>
      </trkpt>
      <trkpt lat="20.24705" lon="-98.73478167">
        <ele>2041.0</ele>
        <time>2019-10-12T15:16:47.929Z</time>
      </trkpt>
      <trkpt lat="20.247075" lon="-98.73478">
        <ele>2041.0</ele>
        <time>2019-10-12T15:16:48.931Z</time>
      </trkpt>
      <trkpt lat="20.247095" lon="-98.73478833">
        <ele>2041.0</ele>
        <time>2019-10-12T15:16:49.931Z</time>
      </trkpt>
      <trkpt lat="20.24711333" lon="-98.73479667">
        <ele>2040.0</ele>
        <time>2019-10-12T15:16:50.932Z</time>
      </trkpt>
      <trkpt lat="20.24713667" lon="-98.73480167">
        <ele>2039.0</ele>
        <time>2019-10-12T15:16:51.938Z</time>
      </trkpt>
      <trkpt lat="20.24717" lon="-98.734805">
        <ele>2039.0</ele>
        <time>2019-10-12T15:16:52.946Z</time>
      </trkpt>
      <trkpt lat="20.247195" lon="-98.73480667">
        <ele>2038.0</ele>
        <time>2019-10-12T15:16:53.947Z</time>
      </trkpt>
      <trkpt lat="20.24722" lon="-98.734815">
        <ele>2038.0</ele>
        <time>2019-10-12T15:16:54.953Z</time>
      </trkpt>
      <trkpt lat="20.24724167" lon="-98.73481833">
        <ele>2038.0</ele>
        <time>2019-10-12T15:16:55.954Z</time>
      </trkpt>
      <trkpt lat="20.24726333" lon="-98.73481667">
        <ele>2037.0</ele>
        <time>2019-10-12T15:16:56.830Z</time>
      </trkpt>
      <trkpt lat="20.24728" lon="-98.734815">
        <ele>2037.0</ele>
        <time>2019-10-12T15:16:57.832Z</time>
      </trkpt>
      <trkpt lat="20.2473" lon="-98.73481">
        <ele>2039.0</ele>
        <time>2019-10-12T15:16:58.838Z</time>
      </trkpt>
      <trkpt lat="20.24732333" lon="-98.73480667">
        <ele>2040.0</ele>
        <time>2019-10-12T15:16:59.846Z</time>
      </trkpt>
      <trkpt lat="20.24734" lon="-98.734805">
        <ele>2041.0</ele>
        <time>2019-10-12T15:17:00.851Z</time>
      </trkpt>
      <trkpt lat="20.247365" lon="-98.73480167">
        <ele>2041.0</ele>
        <time>2019-10-12T15:17:01.857Z</time>
      </trkpt>
      <trkpt lat="20.24738167" lon="-98.73480333">
        <ele>2041.0</ele>
        <time>2019-10-12T15:17:02.861Z</time>
      </trkpt>
      <trkpt lat="20.24739667" lon="-98.73480833">
        <ele>2040.0</ele>
        <time>2019-10-12T15:17:03.866Z</time>
      </trkpt>
      <trkpt lat="20.24741167" lon="-98.73481833">
        <ele>2041.0</ele>
        <time>2019-10-12T15:17:04.873Z</time>
      </trkpt>
      <trkpt lat="20.24743333" lon="-98.73482833">
        <ele>2041.0</ele>
        <time>2019-10-12T15:17:05.879Z</time>
      </trkpt>
      <trkpt lat="20.247455" lon="-98.73484">
        <ele>2042.0</ele>
        <time>2019-10-12T15:17:06.884Z</time>
      </trkpt>
      <trkpt lat="20.24747667" lon="-98.73485">
        <ele>2042.0</ele>
        <time>2019-10-12T15:17:07.886Z</time>
      </trkpt>
      <trkpt lat="20.2475" lon="-98.73485333">
        <ele>2042.0</ele>
        <time>2019-10-12T15:17:08.890Z</time>
      </trkpt>
      <trkpt lat="20.24752667" lon="-98.73485167">
        <ele>2042.0</ele>
        <time>2019-10-12T15:17:09.897Z</time>
      </trkpt>
      <trkpt lat="20.24755" lon="-98.73484833">
        <ele>2042.0</ele>
        <time>2019-10-12T15:17:10.904Z</time>
      </trkpt>
      <trkpt lat="20.24757167" lon="-98.73484667">
        <ele>2042.0</ele>
        <time>2019-10-12T15:17:11.911Z</time>
      </trkpt>
      <trkpt lat="20.24759333" lon="-98.73484667">
        <ele>2042.0</ele>
        <time>2019-10-12T15:17:12.915Z</time>
      </trkpt>
      <trkpt lat="20.24760833" lon="-98.73484667">
        <ele>2043.0</ele>
        <time>2019-10-12T15:17:13.919Z</time>
      </trkpt>
      <trkpt lat="20.24762667" lon="-98.734855">
        <ele>2043.0</ele>
        <time>2019-10-12T15:17:14.923Z</time>
      </trkpt>
      <trkpt lat="20.24765333" lon="-98.734865">
        <ele>2043.0</ele>
        <time>2019-10-12T15:17:15.928Z</time>
      </trkpt>
      <trkpt lat="20.24768167" lon="-98.73487667">
        <ele>2043.0</ele>
        <time>2019-10-12T15:17:16.935Z</time>
      </trkpt>
      <trkpt lat="20.24770333" lon="-98.73487667">
        <ele>2044.0</ele>
        <time>2019-10-12T15:17:17.941Z</time>
      </trkpt>
      <trkpt lat="20.24772167" lon="-98.73487">
        <ele>2044.0</ele>
        <time>2019-10-12T15:17:18.947Z</time>
      </trkpt>
      <trkpt lat="20.24774333" lon="-98.734855">
        <ele>2045.0</ele>
        <time>2019-10-12T15:17:19.951Z</time>
      </trkpt>
      <trkpt lat="20.24776833" lon="-98.73484833">
        <ele>2044.0</ele>
        <time>2019-10-12T15:17:20.952Z</time>
      </trkpt>
      <trkpt lat="20.24779" lon="-98.73484333">
        <ele>2044.0</ele>
        <time>2019-10-12T15:17:21.952Z</time>
      </trkpt>
      <trkpt lat="20.24781167" lon="-98.73484167">
        <ele>2045.0</ele>
        <time>2019-10-12T15:17:22.952Z</time>
      </trkpt>
      <trkpt lat="20.24783" lon="-98.73484">
        <ele>2046.0</ele>
        <time>2019-10-12T15:17:23.953Z</time>
      </trkpt>
      <trkpt lat="20.24785" lon="-98.73484">
        <ele>2047.0</ele>
        <time>2019-10-12T15:17:24.953Z</time>
      </trkpt>
      <trkpt lat="20.24786833" lon="-98.73483667">
        <ele>2047.0</ele>
        <time>2019-10-12T15:17:25.953Z</time>
      </trkpt>
      <trkpt lat="20.247885" lon="-98.73482167">
        <ele>2047.0</ele>
        <time>2019-10-12T15:17:26.833Z</time>
      </trkpt>
      <trkpt lat="20.24789833" lon="-98.7348">
        <ele>2048.0</ele>
        <time>2019-10-12T15:17:27.839Z</time>
      </trkpt>
      <trkpt lat="20.24791" lon="-98.73477333">
        <ele>2048.0</ele>
        <time>2019-10-12T15:17:28.843Z</time>
      </trkpt>
      <trkpt lat="20.247915" lon="-98.73475667">
        <ele>2049.0</ele>
        <time>2019-10-12T15:17:29.845Z</time>
      </trkpt>
      <trkpt lat="20.24792333" lon="-98.73474">
        <ele>2050.0</ele>
        <time>2019-10-12T15:17:30.852Z</time>
      </trkpt>
      <trkpt lat="20.24793167" lon="-98.73472333">
        <ele>2051.0</ele>
        <time>2019-10-12T15:17:31.857Z</time>
      </trkpt>
      <trkpt lat="20.24794" lon="-98.7347">
        <ele>2051.0</ele>
        <time>2019-10-12T15:17:32.859Z</time>
      </trkpt>
      <trkpt lat="20.24795" lon="-98.73467833">
        <ele>2052.0</ele>
        <time>2019-10-12T15:17:33.863Z</time>
      </trkpt>
      <trkpt lat="20.247955" lon="-98.73465833">
        <ele>2052.0</ele>
        <time>2019-10-12T15:17:34.867Z</time>
      </trkpt>
      <trkpt lat="20.247965" lon="-98.734635">
        <ele>2053.0</ele>
        <time>2019-10-12T15:17:35.870Z</time>
      </trkpt>
      <trkpt lat="20.24798167" lon="-98.73462">
        <ele>2054.0</ele>
        <time>2019-10-12T15:17:36.876Z</time>
      </trkpt>
      <trkpt lat="20.24799667" lon="-98.73461">
        <ele>2054.0</ele>
        <time>2019-10-12T15:17:37.882Z</time>
      </trkpt>
      <trkpt lat="20.24801167" lon="-98.73460833">
        <ele>2053.0</ele>
        <time>2019-10-12T15:17:38.888Z</time>
      </trkpt>
      <trkpt lat="20.24801833" lon="-98.73461">
        <ele>2053.0</ele>
        <time>2019-10-12T15:17:39.889Z</time>
      </trkpt>
      <trkpt lat="20.248025" lon="-98.734615">
        <ele>2054.0</ele>
        <time>2019-10-12T15:17:40.891Z</time>
      </trkpt>
      <trkpt lat="20.24804" lon="-98.73461333">
        <ele>2053.0</ele>
        <time>2019-10-12T15:17:41.896Z</time>
      </trkpt>
      <trkpt lat="20.24806" lon="-98.734615">
        <ele>2051.0</ele>
        <time>2019-10-12T15:17:42.901Z</time>
      </trkpt>
      <trkpt lat="20.24808167" lon="-98.73461333">
        <ele>2050.0</ele>
        <time>2019-10-12T15:17:43.902Z</time>
      </trkpt>
      <trkpt lat="20.24810333" lon="-98.73461">
        <ele>2049.0</ele>
        <time>2019-10-12T15:17:44.903Z</time>
      </trkpt>
      <trkpt lat="20.24812" lon="-98.73459667">
        <ele>2050.0</ele>
        <time>2019-10-12T15:17:45.904Z</time>
      </trkpt>
      <trkpt lat="20.24813667" lon="-98.73458">
        <ele>2050.0</ele>
        <time>2019-10-12T15:17:46.909Z</time>
      </trkpt>
      <trkpt lat="20.24814667" lon="-98.734565">
        <ele>2051.0</ele>
        <time>2019-10-12T15:17:47.914Z</time>
      </trkpt>
      <trkpt lat="20.24816" lon="-98.73455667">
        <ele>2050.0</ele>
        <time>2019-10-12T15:17:48.918Z</time>
      </trkpt>
      <trkpt lat="20.248175" lon="-98.73455333">
        <ele>2050.0</ele>
        <time>2019-10-12T15:17:49.923Z</time>
      </trkpt>
      <trkpt lat="20.24819" lon="-98.73454833">
        <ele>2050.0</ele>
        <time>2019-10-12T15:17:50.927Z</time>
      </trkpt>
      <trkpt lat="20.24820833" lon="-98.73454333">
        <ele>2049.0</ele>
        <time>2019-10-12T15:17:51.931Z</time>
      </trkpt>
      <trkpt lat="20.24823833" lon="-98.73452833">
        <ele>2049.0</ele>
        <time>2019-10-12T15:17:52.938Z</time>
      </trkpt>
      <trkpt lat="20.24826" lon="-98.734505">
        <ele>2050.0</ele>
        <time>2019-10-12T15:17:53.944Z</time>
      </trkpt>
      <trkpt lat="20.248275" lon="-98.73448">
        <ele>2050.0</ele>
        <time>2019-10-12T15:17:54.947Z</time>
      </trkpt>
      <trkpt lat="20.248285" lon="-98.734455">
        <ele>2049.0</ele>
        <time>2019-10-12T15:17:55.952Z</time>
      </trkpt>
      <trkpt lat="20.2483" lon="-98.73442333">
        <ele>2049.0</ele>
        <time>2019-10-12T15:17:56.832Z</time>
      </trkpt>
      <trkpt lat="20.24831167" lon="-98.73439167">
        <ele>2048.0</ele>
        <time>2019-10-12T15:17:57.835Z</time>
      </trkpt>
      <trkpt lat="20.248315" lon="-98.73436333">
        <ele>2048.0</ele>
        <time>2019-10-12T15:17:58.842Z</time>
      </trkpt>
      <trkpt lat="20.24831833" lon="-98.73433833">
        <ele>2048.0</ele>
        <time>2019-10-12T15:17:59.849Z</time>
      </trkpt>
      <trkpt lat="20.24832" lon="-98.73431">
        <ele>2048.0</ele>
        <time>2019-10-12T15:18:00.853Z</time>
      </trkpt>
      <trkpt lat="20.248325" lon="-98.734285">
        <ele>2049.0</ele>
        <time>2019-10-12T15:18:01.854Z</time>
      </trkpt>
      <trkpt lat="20.24832667" lon="-98.73426167">
        <ele>2049.0</ele>
        <time>2019-10-12T15:18:02.854Z</time>
      </trkpt>
      <trkpt lat="20.24832833" lon="-98.73424333">
        <ele>2049.0</ele>
        <time>2019-10-12T15:18:03.855Z</time>
      </trkpt>
      <trkpt lat="20.24833667" lon="-98.73422833">
        <ele>2049.0</ele>
        <time>2019-10-12T15:18:04.856Z</time>
      </trkpt>
      <trkpt lat="20.24834833" lon="-98.73421167">
        <ele>2050.0</ele>
        <time>2019-10-12T15:18:05.856Z</time>
      </trkpt>
      <trkpt lat="20.24836" lon="-98.73421167">
        <ele>2050.0</ele>
        <time>2019-10-12T15:18:06.856Z</time>
      </trkpt>
      <trkpt lat="20.24837167" lon="-98.73421833">
        <ele>2050.0</ele>
        <time>2019-10-12T15:18:07.856Z</time>
      </trkpt>
      <trkpt lat="20.24838" lon="-98.73423833">
        <ele>2050.0</ele>
        <time>2019-10-12T15:18:08.857Z</time>
      </trkpt>
      <trkpt lat="20.24838833" lon="-98.73426667">
        <ele>2051.0</ele>
        <time>2019-10-12T15:18:09.857Z</time>
      </trkpt>
      <trkpt lat="20.24840333" lon="-98.734295">
        <ele>2051.0</ele>
        <time>2019-10-12T15:18:10.857Z</time>
      </trkpt>
      <trkpt lat="20.24841667" lon="-98.73431333">
        <ele>2051.0</ele>
        <time>2019-10-12T15:18:11.857Z</time>
      </trkpt>
      <trkpt lat="20.24843333" lon="-98.73432167">
        <ele>2052.0</ele>
        <time>2019-10-12T15:18:12.858Z</time>
      </trkpt>
      <trkpt lat="20.248455" lon="-98.73431667">
        <ele>2053.0</ele>
        <time>2019-10-12T15:18:13.858Z</time>
      </trkpt>
      <trkpt lat="20.24848167" lon="-98.73431">
        <ele>2054.0</ele>
        <time>2019-10-12T15:18:14.858Z</time>
      </trkpt>
      <trkpt lat="20.24850833" lon="-98.73430167">
        <ele>2054.0</ele>
        <time>2019-10-12T15:18:15.858Z</time>
      </trkpt>
      <trkpt lat="20.248525" lon="-98.734305">
        <ele>2055.0</ele>
        <time>2019-10-12T15:18:16.859Z</time>
      </trkpt>
      <trkpt lat="20.24853333" lon="-98.73432667">
        <ele>2055.0</ele>
        <time>2019-10-12T15:18:17.859Z</time>
      </trkpt>
      <trkpt lat="20.24853833" lon="-98.73434833">
        <ele>2055.0</ele>
        <time>2019-10-12T15:18:18.859Z</time>
      </trkpt>
      <trkpt lat="20.24855167" lon="-98.73438333">
        <ele>2055.0</ele>
        <time>2019-10-12T15:18:19.859Z</time>
      </trkpt>
      <trkpt lat="20.24856833" lon="-98.73440167">
        <ele>2054.0</ele>
        <time>2019-10-12T15:18:20.863Z</time>
      </trkpt>
      <trkpt lat="20.24859" lon="-98.734415">
        <ele>2054.0</ele>
        <time>2019-10-12T15:18:21.869Z</time>
      </trkpt>
      <trkpt lat="20.24861333" lon="-98.73442667">
        <ele>2052.0</ele>
        <time>2019-10-12T15:18:22.875Z</time>
      </trkpt>
      <trkpt lat="20.24863167" lon="-98.73443333">
        <ele>2051.0</ele>
        <time>2019-10-12T15:18:23.882Z</time>
      </trkpt>
      <trkpt lat="20.24865333" lon="-98.73444">
        <ele>2050.0</ele>
        <time>2019-10-12T15:18:24.882Z</time>
      </trkpt>
      <trkpt lat="20.24867" lon="-98.73444333">
        <ele>2049.0</ele>
        <time>2019-10-12T15:18:25.887Z</time>
      </trkpt>
      <trkpt lat="20.24868833" lon="-98.73444667">
        <ele>2049.0</ele>
        <time>2019-10-12T15:18:26.890Z</time>
      </trkpt>
      <trkpt lat="20.24870667" lon="-98.73444833">
        <ele>2049.0</ele>
        <time>2019-10-12T15:18:27.894Z</time>
      </trkpt>
      <trkpt lat="20.24872167" lon="-98.73444833">
        <ele>2049.0</ele>
        <time>2019-10-12T15:18:28.900Z</time>
      </trkpt>
      <trkpt lat="20.24873667" lon="-98.73444667">
        <ele>2049.0</ele>
        <time>2019-10-12T15:18:29.905Z</time>
      </trkpt>
      <trkpt lat="20.24875833" lon="-98.73444">
        <ele>2049.0</ele>
        <time>2019-10-12T15:18:30.911Z</time>
      </trkpt>
      <trkpt lat="20.24877333" lon="-98.73443">
        <ele>2050.0</ele>
        <time>2019-10-12T15:18:31.913Z</time>
      </trkpt>
      <trkpt lat="20.24879833" lon="-98.73442833">
        <ele>2051.0</ele>
        <time>2019-10-12T15:18:32.918Z</time>
      </trkpt>
      <trkpt lat="20.24881667" lon="-98.73443333">
        <ele>2051.0</ele>
        <time>2019-10-12T15:18:33.923Z</time>
      </trkpt>
      <trkpt lat="20.24883667" lon="-98.73444">
        <ele>2051.0</ele>
        <time>2019-10-12T15:18:34.929Z</time>
      </trkpt>
      <trkpt lat="20.24885167" lon="-98.73445333">
        <ele>2050.0</ele>
        <time>2019-10-12T15:18:35.933Z</time>
      </trkpt>
      <trkpt lat="20.248865" lon="-98.734465">
        <ele>2049.0</ele>
        <time>2019-10-12T15:18:36.934Z</time>
      </trkpt>
      <trkpt lat="20.24888" lon="-98.73447667">
        <ele>2049.0</ele>
        <time>2019-10-12T15:18:37.935Z</time>
      </trkpt>
      <trkpt lat="20.24889333" lon="-98.73448833">
        <ele>2049.0</ele>
        <time>2019-10-12T15:18:38.936Z</time>
      </trkpt>
      <trkpt lat="20.2489" lon="-98.73450167">
        <ele>2049.0</ele>
        <time>2019-10-12T15:18:39.936Z</time>
      </trkpt>
      <trkpt lat="20.24890333" lon="-98.73451833">
        <ele>2049.0</ele>
        <time>2019-10-12T15:18:40.937Z</time>
      </trkpt>
      <trkpt lat="20.24890833" lon="-98.73453833">
        <ele>2050.0</ele>
        <time>2019-10-12T15:18:41.938Z</time>
      </trkpt>
      <trkpt lat="20.248915" lon="-98.73455167">
        <ele>2051.0</ele>
        <time>2019-10-12T15:18:42.939Z</time>
      </trkpt>
      <trkpt lat="20.24893167" lon="-98.73457167">
        <ele>2052.0</ele>
        <time>2019-10-12T15:18:43.940Z</time>
      </trkpt>
      <trkpt lat="20.24894167" lon="-98.73458333">
        <ele>2053.0</ele>
        <time>2019-10-12T15:18:44.940Z</time>
      </trkpt>
      <trkpt lat="20.24895833" lon="-98.7346">
        <ele>2054.0</ele>
        <time>2019-10-12T15:18:45.941Z</time>
      </trkpt>
      <trkpt lat="20.248975" lon="-98.73461167">
        <ele>2054.0</ele>
        <time>2019-10-12T15:18:46.942Z</time>
      </trkpt>
      <trkpt lat="20.24899" lon="-98.73461667">
        <ele>2054.0</ele>
        <time>2019-10-12T15:18:47.943Z</time>
      </trkpt>
      <trkpt lat="20.24900333" lon="-98.734625">
        <ele>2054.0</ele>
        <time>2019-10-12T15:18:48.948Z</time>
      </trkpt>
      <trkpt lat="20.24901167" lon="-98.73464167">
        <ele>2054.0</ele>
        <time>2019-10-12T15:18:49.830Z</time>
      </trkpt>
      <trkpt lat="20.24902167" lon="-98.73465667">
        <ele>2054.0</ele>
        <time>2019-10-12T15:18:50.835Z</time>
      </trkpt>
      <trkpt lat="20.24902667" lon="-98.73468167">
        <ele>2054.0</ele>
        <time>2019-10-12T15:18:51.837Z</time>
      </trkpt>
      <trkpt lat="20.24903667" lon="-98.73470167">
        <ele>2054.0</ele>
        <time>2019-10-12T15:18:52.843Z</time>
      </trkpt>
      <trkpt lat="20.24905" lon="-98.73471667">
        <ele>2054.0</ele>
        <time>2019-10-12T15:18:53.849Z</time>
      </trkpt>
      <trkpt lat="20.24906667" lon="-98.73473">
        <ele>2054.0</ele>
        <time>2019-10-12T15:18:54.856Z</time>
      </trkpt>
      <trkpt lat="20.249085" lon="-98.73473833">
        <ele>2054.0</ele>
        <time>2019-10-12T15:18:55.862Z</time>
      </trkpt>
      <trkpt lat="20.24910333" lon="-98.734745">
        <ele>2055.0</ele>
        <time>2019-10-12T15:18:56.869Z</time>
      </trkpt>
      <trkpt lat="20.24912" lon="-98.73475167">
        <ele>2054.0</ele>
        <time>2019-10-12T15:18:57.874Z</time>
      </trkpt>
      <trkpt lat="20.24913333" lon="-98.73476167">
        <ele>2053.0</ele>
        <time>2019-10-12T15:18:58.878Z</time>
      </trkpt>
      <trkpt lat="20.24914667" lon="-98.734775">
        <ele>2053.0</ele>
        <time>2019-10-12T15:18:59.884Z</time>
      </trkpt>
      <trkpt lat="20.24916167" lon="-98.73478833">
        <ele>2053.0</ele>
        <time>2019-10-12T15:19:00.890Z</time>
      </trkpt>
      <trkpt lat="20.24917667" lon="-98.7348">
        <ele>2053.0</ele>
        <time>2019-10-12T15:19:01.891Z</time>
      </trkpt>
      <trkpt lat="20.24919333" lon="-98.734815">
        <ele>2053.0</ele>
        <time>2019-10-12T15:19:02.892Z</time>
      </trkpt>
      <trkpt lat="20.24920833" lon="-98.73482833">
        <ele>2053.0</ele>
        <time>2019-10-12T15:19:03.893Z</time>
      </trkpt>
      <trkpt lat="20.24922333" lon="-98.73484">
        <ele>2052.0</ele>
        <time>2019-10-12T15:19:04.894Z</time>
      </trkpt>
      <trkpt lat="20.24924333" lon="-98.73485333">
        <ele>2052.0</ele>
        <time>2019-10-12T15:19:05.899Z</time>
      </trkpt>
      <trkpt lat="20.24926" lon="-98.73486167">
        <ele>2052.0</ele>
        <time>2019-10-12T15:19:06.905Z</time>
      </trkpt>
      <trkpt lat="20.24927333" lon="-98.73487">
        <ele>2051.0</ele>
        <time>2019-10-12T15:19:07.909Z</time>
      </trkpt>
      <trkpt lat="20.24929167" lon="-98.73488333">
        <ele>2051.0</ele>
        <time>2019-10-12T15:19:08.913Z</time>
      </trkpt>
      <trkpt lat="20.24930667" lon="-98.73489333">
        <ele>2051.0</ele>
        <time>2019-10-12T15:19:09.920Z</time>
      </trkpt>
      <trkpt lat="20.249325" lon="-98.73490333">
        <ele>2051.0</ele>
        <time>2019-10-12T15:19:10.925Z</time>
      </trkpt>
      <trkpt lat="20.24933833" lon="-98.73491">
        <ele>2051.0</ele>
        <time>2019-10-12T15:19:11.930Z</time>
      </trkpt>
      <trkpt lat="20.24935833" lon="-98.73492333">
        <ele>2051.0</ele>
        <time>2019-10-12T15:19:12.933Z</time>
      </trkpt>
      <trkpt lat="20.24937167" lon="-98.73493167">
        <ele>2051.0</ele>
        <time>2019-10-12T15:19:13.937Z</time>
      </trkpt>
      <trkpt lat="20.24939167" lon="-98.73494">
        <ele>2051.0</ele>
        <time>2019-10-12T15:19:14.945Z</time>
      </trkpt>
      <trkpt lat="20.24940833" lon="-98.73494833">
        <ele>2051.0</ele>
        <time>2019-10-12T15:19:15.951Z</time>
      </trkpt>
      <trkpt lat="20.249425" lon="-98.73495833">
        <ele>2051.0</ele>
        <time>2019-10-12T15:19:16.830Z</time>
      </trkpt>
      <trkpt lat="20.24944167" lon="-98.73497">
        <ele>2051.0</ele>
        <time>2019-10-12T15:19:17.836Z</time>
      </trkpt>
      <trkpt lat="20.24945333" lon="-98.73497667">
        <ele>2051.0</ele>
        <time>2019-10-12T15:19:18.840Z</time>
      </trkpt>
      <trkpt lat="20.24947667" lon="-98.73498667">
        <ele>2051.0</ele>
        <time>2019-10-12T15:19:19.847Z</time>
      </trkpt>
      <trkpt lat="20.24949667" lon="-98.73499167">
        <ele>2050.0</ele>
        <time>2019-10-12T15:19:20.852Z</time>
      </trkpt>
      <trkpt lat="20.24951667" lon="-98.73499333">
        <ele>2049.0</ele>
        <time>2019-10-12T15:19:21.858Z</time>
      </trkpt>
      <trkpt lat="20.24953" lon="-98.734995">
        <ele>2049.0</ele>
        <time>2019-10-12T15:19:22.859Z</time>
      </trkpt>
      <trkpt lat="20.24955167" lon="-98.735">
        <ele>2049.0</ele>
        <time>2019-10-12T15:19:23.864Z</time>
      </trkpt>
      <trkpt lat="20.24957167" lon="-98.735005">
        <ele>2049.0</ele>
        <time>2019-10-12T15:19:24.867Z</time>
      </trkpt>
      <trkpt lat="20.24959" lon="-98.73500667">
        <ele>2048.0</ele>
        <time>2019-10-12T15:19:25.869Z</time>
      </trkpt>
      <trkpt lat="20.24961" lon="-98.73501167">
        <ele>2048.0</ele>
        <time>2019-10-12T15:19:26.870Z</time>
      </trkpt>
      <trkpt lat="20.24962833" lon="-98.735015">
        <ele>2047.0</ele>
        <time>2019-10-12T15:19:27.873Z</time>
      </trkpt>
      <trkpt lat="20.24964833" lon="-98.73501667">
        <ele>2047.0</ele>
        <time>2019-10-12T15:19:28.874Z</time>
      </trkpt>
      <trkpt lat="20.24967" lon="-98.73502">
        <ele>2048.0</ele>
        <time>2019-10-12T15:19:29.877Z</time>
      </trkpt>
      <trkpt lat="20.24968833" lon="-98.73502">
        <ele>2048.0</ele>
        <time>2019-10-12T15:19:30.879Z</time>
      </trkpt>
      <trkpt lat="20.24970833" lon="-98.735015">
        <ele>2048.0</ele>
        <time>2019-10-12T15:19:31.883Z</time>
      </trkpt>
      <trkpt lat="20.24972667" lon="-98.73500667">
        <ele>2048.0</ele>
        <time>2019-10-12T15:19:32.888Z</time>
      </trkpt>
      <trkpt lat="20.24975" lon="-98.734995">
        <ele>2048.0</ele>
        <time>2019-10-12T15:19:33.892Z</time>
      </trkpt>
      <trkpt lat="20.24977" lon="-98.73498167">
        <ele>2047.0</ele>
        <time>2019-10-12T15:19:34.897Z</time>
      </trkpt>
      <trkpt lat="20.24978833" lon="-98.73496833">
        <ele>2048.0</ele>
        <time>2019-10-12T15:19:35.904Z</time>
      </trkpt>
      <trkpt lat="20.249805" lon="-98.73495">
        <ele>2048.0</ele>
        <time>2019-10-12T15:19:36.909Z</time>
      </trkpt>
      <trkpt lat="20.24982167" lon="-98.73493167">
        <ele>2048.0</ele>
        <time>2019-10-12T15:19:37.913Z</time>
      </trkpt>
      <trkpt lat="20.24983667" lon="-98.73491167">
        <ele>2049.0</ele>
        <time>2019-10-12T15:19:38.915Z</time>
      </trkpt>
      <trkpt lat="20.24985333" lon="-98.73489333">
        <ele>2049.0</ele>
        <time>2019-10-12T15:19:39.920Z</time>
      </trkpt>
      <trkpt lat="20.24987333" lon="-98.73487333">
        <ele>2049.0</ele>
        <time>2019-10-12T15:19:40.925Z</time>
      </trkpt>
      <trkpt lat="20.24989333" lon="-98.734855">
        <ele>2050.0</ele>
        <time>2019-10-12T15:19:41.932Z</time>
      </trkpt>
      <trkpt lat="20.24991333" lon="-98.73483333">
        <ele>2049.0</ele>
        <time>2019-10-12T15:19:42.938Z</time>
      </trkpt>
      <trkpt lat="20.24993333" lon="-98.73481333">
        <ele>2048.0</ele>
        <time>2019-10-12T15:19:43.945Z</time>
      </trkpt>
      <trkpt lat="20.24995167" lon="-98.73480167">
        <ele>2048.0</ele>
        <time>2019-10-12T15:19:44.949Z</time>
      </trkpt>
      <trkpt lat="20.24997667" lon="-98.73478833">
        <ele>2047.0</ele>
        <time>2019-10-12T15:19:45.951Z</time>
      </trkpt>
      <trkpt lat="20.249995" lon="-98.734785">
        <ele>2048.0</ele>
        <time>2019-10-12T15:19:46.832Z</time>
      </trkpt>
      <trkpt lat="20.25000833" lon="-98.73478333">
        <ele>2048.0</ele>
        <time>2019-10-12T15:19:47.839Z</time>
      </trkpt>
      <trkpt lat="20.25001667" lon="-98.73479167">
        <ele>2047.0</ele>
        <time>2019-10-12T15:19:48.848Z</time>
      </trkpt>
      <trkpt lat="20.25002833" lon="-98.73480333">
        <ele>2047.0</ele>
        <time>2019-10-12T15:19:49.854Z</time>
      </trkpt>
      <trkpt lat="20.25004333" lon="-98.73481333">
        <ele>2046.0</ele>
        <time>2019-10-12T15:19:50.859Z</time>
      </trkpt>
      <trkpt lat="20.25006167" lon="-98.73482167">
        <ele>2046.0</ele>
        <time>2019-10-12T15:19:51.863Z</time>
      </trkpt>
      <trkpt lat="20.25008167" lon="-98.73483">
        <ele>2047.0</ele>
        <time>2019-10-12T15:19:52.864Z</time>
      </trkpt>
      <trkpt lat="20.25010167" lon="-98.73483833">
        <ele>2047.0</ele>
        <time>2019-10-12T15:19:53.864Z</time>
      </trkpt>
      <trkpt lat="20.250125" lon="-98.73484">
        <ele>2048.0</ele>
        <time>2019-10-12T15:19:54.865Z</time>
      </trkpt>
      <trkpt lat="20.25014833" lon="-98.73484833">
        <ele>2048.0</ele>
        <time>2019-10-12T15:19:55.866Z</time>
      </trkpt>
      <trkpt lat="20.25017667" lon="-98.73486">
        <ele>2048.0</ele>
        <time>2019-10-12T15:19:56.871Z</time>
      </trkpt>
      <trkpt lat="20.2502" lon="-98.73485667">
        <ele>2048.0</ele>
        <time>2019-10-12T15:19:57.879Z</time>
      </trkpt>
      <trkpt lat="20.250225" lon="-98.73485167">
        <ele>2049.0</ele>
        <time>2019-10-12T15:19:58.883Z</time>
      </trkpt>
      <trkpt lat="20.250245" lon="-98.73485">
        <ele>2049.0</ele>
        <time>2019-10-12T15:19:59.888Z</time>
      </trkpt>
      <trkpt lat="20.25026667" lon="-98.73485167">
        <ele>2049.0</ele>
        <time>2019-10-12T15:20:00.893Z</time>
      </trkpt>
      <trkpt lat="20.25028333" lon="-98.73485">
        <ele>2049.0</ele>
        <time>2019-10-12T15:20:01.897Z</time>
      </trkpt>
      <trkpt lat="20.25030167" lon="-98.73485333">
        <ele>2048.0</ele>
        <time>2019-10-12T15:20:02.902Z</time>
      </trkpt>
      <trkpt lat="20.25032167" lon="-98.73486333">
        <ele>2047.0</ele>
        <time>2019-10-12T15:20:03.908Z</time>
      </trkpt>
      <trkpt lat="20.25034333" lon="-98.73487167">
        <ele>2047.0</ele>
        <time>2019-10-12T15:20:04.915Z</time>
      </trkpt>
      <trkpt lat="20.25037333" lon="-98.73488667">
        <ele>2046.0</ele>
        <time>2019-10-12T15:20:05.918Z</time>
      </trkpt>
      <trkpt lat="20.250395" lon="-98.73489167">
        <ele>2045.0</ele>
        <time>2019-10-12T15:20:06.923Z</time>
      </trkpt>
      <trkpt lat="20.250425" lon="-98.73489667">
        <ele>2043.0</ele>
        <time>2019-10-12T15:20:07.930Z</time>
      </trkpt>
      <trkpt lat="20.25045833" lon="-98.734895">
        <ele>2043.0</ele>
        <time>2019-10-12T15:20:08.937Z</time>
      </trkpt>
      <trkpt lat="20.25049" lon="-98.73488667">
        <ele>2044.0</ele>
        <time>2019-10-12T15:20:09.940Z</time>
      </trkpt>
      <trkpt lat="20.25051167" lon="-98.734885">
        <ele>2044.0</ele>
        <time>2019-10-12T15:20:10.941Z</time>
      </trkpt>
      <trkpt lat="20.25053833" lon="-98.73489333">
        <ele>2044.0</ele>
        <time>2019-10-12T15:20:11.942Z</time>
      </trkpt>
      <trkpt lat="20.25057167" lon="-98.73489333">
        <ele>2043.0</ele>
        <time>2019-10-12T15:20:12.943Z</time>
      </trkpt>
      <trkpt lat="20.25060167" lon="-98.73489">
        <ele>2043.0</ele>
        <time>2019-10-12T15:20:13.943Z</time>
      </trkpt>
      <trkpt lat="20.25063" lon="-98.73488667">
        <ele>2042.0</ele>
        <time>2019-10-12T15:20:14.944Z</time>
      </trkpt>
      <trkpt lat="20.250655" lon="-98.73488">
        <ele>2040.0</ele>
        <time>2019-10-12T15:20:15.945Z</time>
      </trkpt>
      <trkpt lat="20.25067167" lon="-98.73485833">
        <ele>2039.0</ele>
        <time>2019-10-12T15:20:16.945Z</time>
      </trkpt>
      <trkpt lat="20.250685" lon="-98.73482667">
        <ele>2039.0</ele>
        <time>2019-10-12T15:20:17.946Z</time>
      </trkpt>
      <trkpt lat="20.25069833" lon="-98.73479833">
        <ele>2040.0</ele>
        <time>2019-10-12T15:20:18.952Z</time>
      </trkpt>
      <trkpt lat="20.25071333" lon="-98.73477667">
        <ele>2040.0</ele>
        <time>2019-10-12T15:20:19.832Z</time>
      </trkpt>
      <trkpt lat="20.25073333" lon="-98.73476333">
        <ele>2039.0</ele>
        <time>2019-10-12T15:20:20.837Z</time>
      </trkpt>
      <trkpt lat="20.250755" lon="-98.73475333">
        <ele>2038.0</ele>
        <time>2019-10-12T15:20:21.842Z</time>
      </trkpt>
      <trkpt lat="20.25077167" lon="-98.73474333">
        <ele>2038.0</ele>
        <time>2019-10-12T15:20:22.847Z</time>
      </trkpt>
      <trkpt lat="20.250785" lon="-98.73473667">
        <ele>2038.0</ele>
        <time>2019-10-12T15:20:23.850Z</time>
      </trkpt>
      <trkpt lat="20.25080167" lon="-98.734735">
        <ele>2038.0</ele>
        <time>2019-10-12T15:20:24.857Z</time>
      </trkpt>
      <trkpt lat="20.25081333" lon="-98.73473833">
        <ele>2037.0</ele>
        <time>2019-10-12T15:20:25.859Z</time>
      </trkpt>
      <trkpt lat="20.250825" lon="-98.734745">
        <ele>2036.0</ele>
        <time>2019-10-12T15:20:26.863Z</time>
      </trkpt>
      <trkpt lat="20.25084" lon="-98.73475">
        <ele>2036.0</ele>
        <time>2019-10-12T15:20:27.867Z</time>
      </trkpt>
      <trkpt lat="20.250855" lon="-98.73475">
        <ele>2035.0</ele>
        <time>2019-10-12T15:20:28.871Z</time>
      </trkpt>
      <trkpt lat="20.250865" lon="-98.73474833">
        <ele>2035.0</ele>
        <time>2019-10-12T15:20:29.879Z</time>
      </trkpt>
      <trkpt lat="20.25086833" lon="-98.73474">
        <ele>2035.0</ele>
        <time>2019-10-12T15:20:30.885Z</time>
      </trkpt>
      <trkpt lat="20.25087167" lon="-98.73473333">
        <ele>2035.0</ele>
        <time>2019-10-12T15:20:31.888Z</time>
      </trkpt>
      <trkpt lat="20.250875" lon="-98.73472333">
        <ele>2035.0</ele>
        <time>2019-10-12T15:20:32.891Z</time>
      </trkpt>
      <trkpt lat="20.25087667" lon="-98.73471333">
        <ele>2036.0</ele>
        <time>2019-10-12T15:20:33.895Z</time>
      </trkpt>
      <trkpt lat="20.250875" lon="-98.734705">
        <ele>2035.0</ele>
        <time>2019-10-12T15:20:34.895Z</time>
      </trkpt>
      <trkpt lat="20.250875" lon="-98.73469">
        <ele>2035.0</ele>
        <time>2019-10-12T15:20:35.898Z</time>
      </trkpt>
      <trkpt lat="20.25087667" lon="-98.73467167">
        <ele>2034.0</ele>
        <time>2019-10-12T15:20:36.903Z</time>
      </trkpt>
      <trkpt lat="20.250885" lon="-98.73465">
        <ele>2033.0</ele>
        <time>2019-10-12T15:20:37.905Z</time>
      </trkpt>
      <trkpt lat="20.25089333" lon="-98.734625">
        <ele>2033.0</ele>
        <time>2019-10-12T15:20:38.909Z</time>
      </trkpt>
      <trkpt lat="20.25089833" lon="-98.7346">
        <ele>2032.0</ele>
        <time>2019-10-12T15:20:39.914Z</time>
      </trkpt>
      <trkpt lat="20.2509" lon="-98.73457333">
        <ele>2032.0</ele>
        <time>2019-10-12T15:20:40.918Z</time>
      </trkpt>
      <trkpt lat="20.25089667" lon="-98.73454167">
        <ele>2032.0</ele>
        <time>2019-10-12T15:20:41.923Z</time>
      </trkpt>
      <trkpt lat="20.25088833" lon="-98.73451667">
        <ele>2032.0</ele>
        <time>2019-10-12T15:20:42.926Z</time>
      </trkpt>
      <trkpt lat="20.25088" lon="-98.73448833">
        <ele>2032.0</ele>
        <time>2019-10-12T15:20:43.930Z</time>
      </trkpt>
      <trkpt lat="20.25087333" lon="-98.73446833">
        <ele>2032.0</ele>
        <time>2019-10-12T15:20:44.936Z</time>
      </trkpt>
      <trkpt lat="20.25086833" lon="-98.73444167">
        <ele>2032.0</ele>
        <time>2019-10-12T15:20:45.942Z</time>
      </trkpt>
      <trkpt lat="20.250875" lon="-98.73443">
        <ele>2033.0</ele>
        <time>2019-10-12T15:20:46.947Z</time>
      </trkpt>
      <trkpt lat="20.250885" lon="-98.734415">
        <ele>2032.0</ele>
        <time>2019-10-12T15:20:47.948Z</time>
      </trkpt>
      <trkpt lat="20.25089833" lon="-98.73441167">
        <ele>2031.0</ele>
        <time>2019-10-12T15:20:48.949Z</time>
      </trkpt>
      <trkpt lat="20.25091833" lon="-98.73441167">
        <ele>2031.0</ele>
        <time>2019-10-12T15:20:49.953Z</time>
      </trkpt>
      <trkpt lat="20.25094667" lon="-98.73440833">
        <ele>2031.0</ele>
        <time>2019-10-12T15:20:50.834Z</time>
      </trkpt>
      <trkpt lat="20.25096667" lon="-98.73440333">
        <ele>2031.0</ele>
        <time>2019-10-12T15:20:51.841Z</time>
      </trkpt>
      <trkpt lat="20.25098167" lon="-98.73439833">
        <ele>2030.0</ele>
        <time>2019-10-12T15:20:52.843Z</time>
      </trkpt>
      <trkpt lat="20.25099833" lon="-98.73438833">
        <ele>2031.0</ele>
        <time>2019-10-12T15:20:53.844Z</time>
      </trkpt>
      <trkpt lat="20.25100833" lon="-98.73437167">
        <ele>2031.0</ele>
        <time>2019-10-12T15:20:54.845Z</time>
      </trkpt>
      <trkpt lat="20.25101333" lon="-98.73435167">
        <ele>2031.0</ele>
        <time>2019-10-12T15:20:55.850Z</time>
      </trkpt>
      <trkpt lat="20.25101333" lon="-98.73433">
        <ele>2031.0</ele>
        <time>2019-10-12T15:20:56.857Z</time>
      </trkpt>
      <trkpt lat="20.25100833" lon="-98.73430667">
        <ele>2031.0</ele>
        <time>2019-10-12T15:20:57.861Z</time>
      </trkpt>
      <trkpt lat="20.251" lon="-98.73428333">
        <ele>2031.0</ele>
        <time>2019-10-12T15:20:58.865Z</time>
      </trkpt>
      <trkpt lat="20.25099167" lon="-98.73426167">
        <ele>2031.0</ele>
        <time>2019-10-12T15:20:59.870Z</time>
      </trkpt>
      <trkpt lat="20.250985" lon="-98.73424">
        <ele>2032.0</ele>
        <time>2019-10-12T15:21:00.873Z</time>
      </trkpt>
      <trkpt lat="20.25097667" lon="-98.73421833">
        <ele>2032.0</ele>
        <time>2019-10-12T15:21:01.878Z</time>
      </trkpt>
      <trkpt lat="20.25096833" lon="-98.73419667">
        <ele>2032.0</ele>
        <time>2019-10-12T15:21:02.881Z</time>
      </trkpt>
      <trkpt lat="20.25096333" lon="-98.73417667">
        <ele>2032.0</ele>
        <time>2019-10-12T15:21:03.882Z</time>
      </trkpt>
      <trkpt lat="20.25096333" lon="-98.73416">
        <ele>2032.0</ele>
        <time>2019-10-12T15:21:04.888Z</time>
      </trkpt>
      <trkpt lat="20.250965" lon="-98.73414">
        <ele>2032.0</ele>
        <time>2019-10-12T15:21:05.894Z</time>
      </trkpt>
      <trkpt lat="20.25097" lon="-98.73412167">
        <ele>2031.0</ele>
        <time>2019-10-12T15:21:06.901Z</time>
      </trkpt>
      <trkpt lat="20.250975" lon="-98.73409833">
        <ele>2030.0</ele>
        <time>2019-10-12T15:21:07.905Z</time>
      </trkpt>
      <trkpt lat="20.25098" lon="-98.73407833">
        <ele>2029.0</ele>
        <time>2019-10-12T15:21:08.911Z</time>
      </trkpt>
      <trkpt lat="20.250985" lon="-98.73405667">
        <ele>2027.0</ele>
        <time>2019-10-12T15:21:09.917Z</time>
      </trkpt>
      <trkpt lat="20.25099333" lon="-98.734035">
        <ele>2027.0</ele>
        <time>2019-10-12T15:21:10.919Z</time>
      </trkpt>
      <trkpt lat="20.25099667" lon="-98.73401333">
        <ele>2026.0</ele>
        <time>2019-10-12T15:21:11.920Z</time>
      </trkpt>
      <trkpt lat="20.251" lon="-98.73399">
        <ele>2025.0</ele>
        <time>2019-10-12T15:21:12.921Z</time>
      </trkpt>
      <trkpt lat="20.25100667" lon="-98.73396667">
        <ele>2024.0</ele>
        <time>2019-10-12T15:21:13.921Z</time>
      </trkpt>
      <trkpt lat="20.25101667" lon="-98.733945">
        <ele>2023.0</ele>
        <time>2019-10-12T15:21:14.922Z</time>
      </trkpt>
      <trkpt lat="20.25102667" lon="-98.73392667">
        <ele>2022.0</ele>
        <time>2019-10-12T15:21:15.923Z</time>
      </trkpt>
      <trkpt lat="20.251035" lon="-98.73390333">
        <ele>2022.0</ele>
        <time>2019-10-12T15:21:16.924Z</time>
      </trkpt>
      <trkpt lat="20.25104333" lon="-98.73387833">
        <ele>2022.0</ele>
        <time>2019-10-12T15:21:17.925Z</time>
      </trkpt>
      <trkpt lat="20.251045" lon="-98.73385333">
        <ele>2023.0</ele>
        <time>2019-10-12T15:21:18.925Z</time>
      </trkpt>
      <trkpt lat="20.251045" lon="-98.73383">
        <ele>2023.0</ele>
        <time>2019-10-12T15:21:19.926Z</time>
      </trkpt>
      <trkpt lat="20.25105" lon="-98.73381">
        <ele>2023.0</ele>
        <time>2019-10-12T15:21:20.927Z</time>
      </trkpt>
      <trkpt lat="20.25105833" lon="-98.73379">
        <ele>2023.0</ele>
        <time>2019-10-12T15:21:21.928Z</time>
      </trkpt>
      <trkpt lat="20.25106" lon="-98.733765">
        <ele>2022.0</ele>
        <time>2019-10-12T15:21:22.934Z</time>
      </trkpt>
      <trkpt lat="20.25106667" lon="-98.73374167">
        <ele>2022.0</ele>
        <time>2019-10-12T15:21:23.941Z</time>
      </trkpt>
      <trkpt lat="20.25107667" lon="-98.73372167">
        <ele>2021.0</ele>
        <time>2019-10-12T15:21:24.946Z</time>
      </trkpt>
      <trkpt lat="20.25108667" lon="-98.7337">
        <ele>2021.0</ele>
        <time>2019-10-12T15:21:25.949Z</time>
      </trkpt>
      <trkpt lat="20.251095" lon="-98.73367667">
        <ele>2020.0</ele>
        <time>2019-10-12T15:21:26.954Z</time>
      </trkpt>
      <trkpt lat="20.25110333" lon="-98.733655">
        <ele>2020.0</ele>
        <time>2019-10-12T15:21:27.833Z</time>
      </trkpt>
      <trkpt lat="20.25111333" lon="-98.73363333">
        <ele>2018.0</ele>
        <time>2019-10-12T15:21:28.839Z</time>
      </trkpt>
      <trkpt lat="20.251125" lon="-98.73361333">
        <ele>2018.0</ele>
        <time>2019-10-12T15:21:29.840Z</time>
      </trkpt>
      <trkpt lat="20.25113833" lon="-98.73359167">
        <ele>2017.0</ele>
        <time>2019-10-12T15:21:30.842Z</time>
      </trkpt>
      <trkpt lat="20.25114833" lon="-98.73357">
        <ele>2017.0</ele>
        <time>2019-10-12T15:21:31.847Z</time>
      </trkpt>
      <trkpt lat="20.251155" lon="-98.73354833">
        <ele>2016.0</ele>
        <time>2019-10-12T15:21:32.850Z</time>
      </trkpt>
      <trkpt lat="20.25115667" lon="-98.73352667">
        <ele>2016.0</ele>
        <time>2019-10-12T15:21:33.855Z</time>
      </trkpt>
      <trkpt lat="20.25115667" lon="-98.733505">
        <ele>2016.0</ele>
        <time>2019-10-12T15:21:34.862Z</time>
      </trkpt>
      <trkpt lat="20.25115333" lon="-98.73348333">
        <ele>2015.0</ele>
        <time>2019-10-12T15:21:35.868Z</time>
      </trkpt>
      <trkpt lat="20.25115" lon="-98.73346333">
        <ele>2014.0</ele>
        <time>2019-10-12T15:21:36.874Z</time>
      </trkpt>
      <trkpt lat="20.25115167" lon="-98.73344167">
        <ele>2014.0</ele>
        <time>2019-10-12T15:21:37.877Z</time>
      </trkpt>
      <trkpt lat="20.251155" lon="-98.73341833">
        <ele>2013.0</ele>
        <time>2019-10-12T15:21:38.879Z</time>
      </trkpt>
      <trkpt lat="20.25116" lon="-98.73339833">
        <ele>2013.0</ele>
        <time>2019-10-12T15:21:39.879Z</time>
      </trkpt>
      <trkpt lat="20.25116167" lon="-98.73337667">
        <ele>2012.0</ele>
        <time>2019-10-12T15:21:40.880Z</time>
      </trkpt>
      <trkpt lat="20.251165" lon="-98.73335667">
        <ele>2012.0</ele>
        <time>2019-10-12T15:21:41.881Z</time>
      </trkpt>
      <trkpt lat="20.25117" lon="-98.73333833">
        <ele>2012.0</ele>
        <time>2019-10-12T15:21:42.882Z</time>
      </trkpt>
      <trkpt lat="20.25117" lon="-98.73332">
        <ele>2012.0</ele>
        <time>2019-10-12T15:21:43.883Z</time>
      </trkpt>
      <trkpt lat="20.25116333" lon="-98.733305">
        <ele>2011.0</ele>
        <time>2019-10-12T15:21:44.883Z</time>
      </trkpt>
      <trkpt lat="20.25115333" lon="-98.73329167">
        <ele>2011.0</ele>
        <time>2019-10-12T15:21:45.884Z</time>
      </trkpt>
      <trkpt lat="20.25114167" lon="-98.73327833">
        <ele>2011.0</ele>
        <time>2019-10-12T15:21:46.885Z</time>
      </trkpt>
      <trkpt lat="20.251135" lon="-98.73326333">
        <ele>2011.0</ele>
        <time>2019-10-12T15:21:47.886Z</time>
      </trkpt>
      <trkpt lat="20.25112833" lon="-98.73325">
        <ele>2010.0</ele>
        <time>2019-10-12T15:21:48.887Z</time>
      </trkpt>
      <trkpt lat="20.25112667" lon="-98.73323333">
        <ele>2010.0</ele>
        <time>2019-10-12T15:21:49.890Z</time>
      </trkpt>
      <trkpt lat="20.25113" lon="-98.73321667">
        <ele>2009.0</ele>
        <time>2019-10-12T15:21:50.896Z</time>
      </trkpt>
      <trkpt lat="20.25113333" lon="-98.7332">
        <ele>2009.0</ele>
        <time>2019-10-12T15:21:51.900Z</time>
      </trkpt>
      <trkpt lat="20.25113167" lon="-98.733185">
        <ele>2009.0</ele>
        <time>2019-10-12T15:21:52.904Z</time>
      </trkpt>
      <trkpt lat="20.25112667" lon="-98.733175">
        <ele>2008.0</ele>
        <time>2019-10-12T15:21:53.909Z</time>
      </trkpt>
      <trkpt lat="20.25112167" lon="-98.73316333">
        <ele>2008.0</ele>
        <time>2019-10-12T15:21:54.912Z</time>
      </trkpt>
      <trkpt lat="20.25111667" lon="-98.733155">
        <ele>2007.0</ele>
        <time>2019-10-12T15:21:55.913Z</time>
      </trkpt>
      <trkpt lat="20.251115" lon="-98.73314667">
        <ele>2007.0</ele>
        <time>2019-10-12T15:21:56.914Z</time>
      </trkpt>
      <trkpt lat="20.25111333" lon="-98.73313833">
        <ele>2007.0</ele>
        <time>2019-10-12T15:21:57.914Z</time>
      </trkpt>
      <trkpt lat="20.25111667" lon="-98.73312667">
        <ele>2008.0</ele>
        <time>2019-10-12T15:21:58.916Z</time>
      </trkpt>
      <trkpt lat="20.25112167" lon="-98.73311667">
        <ele>2008.0</ele>
        <time>2019-10-12T15:21:59.918Z</time>
      </trkpt>
      <trkpt lat="20.25112667" lon="-98.73311">
        <ele>2008.0</ele>
        <time>2019-10-12T15:22:00.924Z</time>
      </trkpt>
      <trkpt lat="20.25112833" lon="-98.7331">
        <ele>2008.0</ele>
        <time>2019-10-12T15:22:01.931Z</time>
      </trkpt>
      <trkpt lat="20.25112833" lon="-98.73309">
        <ele>2008.0</ele>
        <time>2019-10-12T15:22:02.936Z</time>
      </trkpt>
      <trkpt lat="20.25113167" lon="-98.73307667">
        <ele>2008.0</ele>
        <time>2019-10-12T15:22:03.941Z</time>
      </trkpt>
      <trkpt lat="20.25113" lon="-98.73306667">
        <ele>2007.0</ele>
        <time>2019-10-12T15:22:04.944Z</time>
      </trkpt>
      <trkpt lat="20.25112667" lon="-98.73305833">
        <ele>2006.0</ele>
        <time>2019-10-12T15:22:05.947Z</time>
      </trkpt>
      <trkpt lat="20.25112167" lon="-98.73305333">
        <ele>2005.0</ele>
        <time>2019-10-12T15:22:06.952Z</time>
      </trkpt>
      <trkpt lat="20.25111833" lon="-98.73304667">
        <ele>2005.0</ele>
        <time>2019-10-12T15:22:07.832Z</time>
      </trkpt>
      <trkpt lat="20.25111833" lon="-98.73304">
        <ele>2004.0</ele>
        <time>2019-10-12T15:22:08.838Z</time>
      </trkpt>
      <trkpt lat="20.251125" lon="-98.73303333">
        <ele>2004.0</ele>
        <time>2019-10-12T15:22:09.841Z</time>
      </trkpt>
      <trkpt lat="20.25113333" lon="-98.73302">
        <ele>2004.0</ele>
        <time>2019-10-12T15:22:10.841Z</time>
      </trkpt>
      <trkpt lat="20.25113667" lon="-98.73300167">
        <ele>2003.0</ele>
        <time>2019-10-12T15:22:11.842Z</time>
      </trkpt>
      <trkpt lat="20.25113167" lon="-98.732985">
        <ele>2002.0</ele>
        <time>2019-10-12T15:22:12.843Z</time>
      </trkpt>
      <trkpt lat="20.25112333" lon="-98.73296667">
        <ele>2002.0</ele>
        <time>2019-10-12T15:22:13.844Z</time>
      </trkpt>
      <trkpt lat="20.25111667" lon="-98.73295167">
        <ele>2001.0</ele>
        <time>2019-10-12T15:22:14.845Z</time>
      </trkpt>
      <trkpt lat="20.25111167" lon="-98.73293167">
        <ele>2000.0</ele>
        <time>2019-10-12T15:22:15.853Z</time>
      </trkpt>
      <trkpt lat="20.25110667" lon="-98.73291167">
        <ele>1999.0</ele>
        <time>2019-10-12T15:22:16.858Z</time>
      </trkpt>
      <trkpt lat="20.25110167" lon="-98.73289167">
        <ele>1999.0</ele>
        <time>2019-10-12T15:22:17.862Z</time>
      </trkpt>
      <trkpt lat="20.25109333" lon="-98.73287">
        <ele>1999.0</ele>
        <time>2019-10-12T15:22:18.868Z</time>
      </trkpt>
      <trkpt lat="20.25108667" lon="-98.73285167">
        <ele>1999.0</ele>
        <time>2019-10-12T15:22:19.873Z</time>
      </trkpt>
      <trkpt lat="20.25108167" lon="-98.73283333">
        <ele>1999.0</ele>
        <time>2019-10-12T15:22:20.880Z</time>
      </trkpt>
      <trkpt lat="20.25107667" lon="-98.73281">
        <ele>1999.0</ele>
        <time>2019-10-12T15:22:21.887Z</time>
      </trkpt>
      <trkpt lat="20.251075" lon="-98.73278667">
        <ele>2000.0</ele>
        <time>2019-10-12T15:22:22.893Z</time>
      </trkpt>
      <trkpt lat="20.25107" lon="-98.73276333">
        <ele>2000.0</ele>
        <time>2019-10-12T15:22:23.897Z</time>
      </trkpt>
      <trkpt lat="20.25106667" lon="-98.73274167">
        <ele>2001.0</ele>
        <time>2019-10-12T15:22:24.902Z</time>
      </trkpt>
      <trkpt lat="20.25106167" lon="-98.73272">
        <ele>2000.0</ele>
        <time>2019-10-12T15:22:25.908Z</time>
      </trkpt>
      <trkpt lat="20.25105167" lon="-98.73269833">
        <ele>2000.0</ele>
        <time>2019-10-12T15:22:26.914Z</time>
      </trkpt>
      <trkpt lat="20.251045" lon="-98.732675">
        <ele>2001.0</ele>
        <time>2019-10-12T15:22:27.917Z</time>
      </trkpt>
      <trkpt lat="20.25104" lon="-98.73264833">
        <ele>2002.0</ele>
        <time>2019-10-12T15:22:28.918Z</time>
      </trkpt>
      <trkpt lat="20.25103667" lon="-98.73262167">
        <ele>2003.0</ele>
        <time>2019-10-12T15:22:29.919Z</time>
      </trkpt>
      <trkpt lat="20.25103667" lon="-98.732595">
        <ele>2003.0</ele>
        <time>2019-10-12T15:22:30.920Z</time>
      </trkpt>
      <trkpt lat="20.251035" lon="-98.73257333">
        <ele>2003.0</ele>
        <time>2019-10-12T15:22:31.920Z</time>
      </trkpt>
      <trkpt lat="20.25104167" lon="-98.732555">
        <ele>2003.0</ele>
        <time>2019-10-12T15:22:32.921Z</time>
      </trkpt>
      <trkpt lat="20.251055" lon="-98.73254333">
        <ele>2004.0</ele>
        <time>2019-10-12T15:22:33.922Z</time>
      </trkpt>
      <trkpt lat="20.25107333" lon="-98.732535">
        <ele>2003.0</ele>
        <time>2019-10-12T15:22:34.923Z</time>
      </trkpt>
      <trkpt lat="20.251085" lon="-98.73252833">
        <ele>2001.0</ele>
        <time>2019-10-12T15:22:35.924Z</time>
      </trkpt>
      <trkpt lat="20.25109333" lon="-98.732525">
        <ele>2000.0</ele>
        <time>2019-10-12T15:22:36.925Z</time>
      </trkpt>
      <trkpt lat="20.25110833" lon="-98.73252667">
        <ele>1999.0</ele>
        <time>2019-10-12T15:22:37.925Z</time>
      </trkpt>
      <trkpt lat="20.25111833" lon="-98.73253333">
        <ele>1997.0</ele>
        <time>2019-10-12T15:22:38.926Z</time>
      </trkpt>
      <trkpt lat="20.25112667" lon="-98.73254167">
        <ele>1997.0</ele>
        <time>2019-10-12T15:22:39.927Z</time>
      </trkpt>
      <trkpt lat="20.25113667" lon="-98.73254833">
        <ele>1996.0</ele>
        <time>2019-10-12T15:22:40.928Z</time>
      </trkpt>
      <trkpt lat="20.25115" lon="-98.73255833">
        <ele>1995.0</ele>
        <time>2019-10-12T15:22:41.929Z</time>
      </trkpt>
      <trkpt lat="20.25115667" lon="-98.73256667">
        <ele>1994.0</ele>
        <time>2019-10-12T15:22:42.929Z</time>
      </trkpt>
      <trkpt lat="20.251165" lon="-98.73258">
        <ele>1992.0</ele>
        <time>2019-10-12T15:22:43.930Z</time>
      </trkpt>
      <trkpt lat="20.25117667" lon="-98.73259167">
        <ele>1992.0</ele>
        <time>2019-10-12T15:22:44.931Z</time>
      </trkpt>
      <trkpt lat="20.25118333" lon="-98.7326">
        <ele>1991.0</ele>
        <time>2019-10-12T15:22:45.932Z</time>
      </trkpt>
      <trkpt lat="20.25119167" lon="-98.732615">
        <ele>1989.0</ele>
        <time>2019-10-12T15:22:46.933Z</time>
      </trkpt>
      <trkpt lat="20.25120167" lon="-98.73263">
        <ele>1988.0</ele>
        <time>2019-10-12T15:22:47.933Z</time>
      </trkpt>
      <trkpt lat="20.25121" lon="-98.73264167">
        <ele>1986.0</ele>
        <time>2019-10-12T15:22:48.934Z</time>
      </trkpt>
      <trkpt lat="20.25121833" lon="-98.73265333">
        <ele>1985.0</ele>
        <time>2019-10-12T15:22:49.935Z</time>
      </trkpt>
      <trkpt lat="20.25123333" lon="-98.73265667">
        <ele>1984.0</ele>
        <time>2019-10-12T15:22:50.936Z</time>
      </trkpt>
      <trkpt lat="20.25125" lon="-98.73265667">
        <ele>1984.0</ele>
        <time>2019-10-12T15:22:51.937Z</time>
      </trkpt>
      <trkpt lat="20.25126333" lon="-98.73265333">
        <ele>1985.0</ele>
        <time>2019-10-12T15:22:52.938Z</time>
      </trkpt>
      <trkpt lat="20.251275" lon="-98.73265">
        <ele>1986.0</ele>
        <time>2019-10-12T15:22:53.938Z</time>
      </trkpt>
      <trkpt lat="20.25128833" lon="-98.73264167">
        <ele>1986.0</ele>
        <time>2019-10-12T15:22:54.939Z</time>
      </trkpt>
      <trkpt lat="20.25130333" lon="-98.73263667">
        <ele>1987.0</ele>
        <time>2019-10-12T15:22:55.940Z</time>
      </trkpt>
      <trkpt lat="20.25131833" lon="-98.73262833">
        <ele>1987.0</ele>
        <time>2019-10-12T15:22:56.941Z</time>
      </trkpt>
      <trkpt lat="20.25133167" lon="-98.73262">
        <ele>1987.0</ele>
        <time>2019-10-12T15:22:57.942Z</time>
      </trkpt>
      <trkpt lat="20.25134333" lon="-98.73261167">
        <ele>1987.0</ele>
        <time>2019-10-12T15:22:58.942Z</time>
      </trkpt>
      <trkpt lat="20.25135333" lon="-98.73260333">
        <ele>1987.0</ele>
        <time>2019-10-12T15:22:59.943Z</time>
      </trkpt>
      <trkpt lat="20.25136667" lon="-98.73259167">
        <ele>1987.0</ele>
        <time>2019-10-12T15:23:00.946Z</time>
      </trkpt>
      <trkpt lat="20.25137833" lon="-98.73258">
        <ele>1988.0</ele>
        <time>2019-10-12T15:23:01.950Z</time>
      </trkpt>
      <trkpt lat="20.25139167" lon="-98.73257">
        <ele>1989.0</ele>
        <time>2019-10-12T15:23:02.831Z</time>
      </trkpt>
      <trkpt lat="20.2514" lon="-98.73255833">
        <ele>1989.0</ele>
        <time>2019-10-12T15:23:03.835Z</time>
      </trkpt>
      <trkpt lat="20.25141" lon="-98.73254833">
        <ele>1989.0</ele>
        <time>2019-10-12T15:23:04.836Z</time>
      </trkpt>
      <trkpt lat="20.25142167" lon="-98.73253833">
        <ele>1989.0</ele>
        <time>2019-10-12T15:23:05.838Z</time>
      </trkpt>
      <trkpt lat="20.25143333" lon="-98.73253667">
        <ele>1989.0</ele>
        <time>2019-10-12T15:23:06.844Z</time>
      </trkpt>
      <trkpt lat="20.25144667" lon="-98.73253333">
        <ele>1989.0</ele>
        <time>2019-10-12T15:23:07.844Z</time>
      </trkpt>
      <trkpt lat="20.25145833" lon="-98.73253">
        <ele>1989.0</ele>
        <time>2019-10-12T15:23:08.851Z</time>
      </trkpt>
      <trkpt lat="20.25147167" lon="-98.732525">
        <ele>1990.0</ele>
        <time>2019-10-12T15:23:09.862Z</time>
      </trkpt>
      <trkpt lat="20.25148333" lon="-98.73252667">
        <ele>1990.0</ele>
        <time>2019-10-12T15:23:10.869Z</time>
      </trkpt>
      <trkpt lat="20.25149333" lon="-98.73253333">
        <ele>1991.0</ele>
        <time>2019-10-12T15:23:11.873Z</time>
      </trkpt>
      <trkpt lat="20.251505" lon="-98.73253833">
        <ele>1991.0</ele>
        <time>2019-10-12T15:23:12.877Z</time>
      </trkpt>
      <trkpt lat="20.25151833" lon="-98.73254167">
        <ele>1992.0</ele>
        <time>2019-10-12T15:23:13.885Z</time>
      </trkpt>
      <trkpt lat="20.25153167" lon="-98.73254333">
        <ele>1993.0</ele>
        <time>2019-10-12T15:23:14.891Z</time>
      </trkpt>
      <trkpt lat="20.25154667" lon="-98.73254333">
        <ele>1994.0</ele>
        <time>2019-10-12T15:23:15.892Z</time>
      </trkpt>
      <trkpt lat="20.25156" lon="-98.73254333">
        <ele>1995.0</ele>
        <time>2019-10-12T15:23:16.896Z</time>
      </trkpt>
      <trkpt lat="20.25157333" lon="-98.73254333">
        <ele>1996.0</ele>
        <time>2019-10-12T15:23:17.903Z</time>
      </trkpt>
      <trkpt lat="20.25159" lon="-98.73254">
        <ele>1997.0</ele>
        <time>2019-10-12T15:23:18.909Z</time>
      </trkpt>
      <trkpt lat="20.25160167" lon="-98.732545">
        <ele>1997.0</ele>
        <time>2019-10-12T15:23:19.911Z</time>
      </trkpt>
      <trkpt lat="20.25161167" lon="-98.73254833">
        <ele>1997.0</ele>
        <time>2019-10-12T15:23:20.915Z</time>
      </trkpt>
      <trkpt lat="20.25162333" lon="-98.73255167">
        <ele>1998.0</ele>
        <time>2019-10-12T15:23:21.918Z</time>
      </trkpt>
      <trkpt lat="20.251635" lon="-98.73255833">
        <ele>1998.0</ele>
        <time>2019-10-12T15:23:22.919Z</time>
      </trkpt>
      <trkpt lat="20.251645" lon="-98.73256667">
        <ele>1998.0</ele>
        <time>2019-10-12T15:23:23.924Z</time>
      </trkpt>
      <trkpt lat="20.251655" lon="-98.732575">
        <ele>1999.0</ele>
        <time>2019-10-12T15:23:24.930Z</time>
      </trkpt>
      <trkpt lat="20.25166667" lon="-98.73258333">
        <ele>1999.0</ele>
        <time>2019-10-12T15:23:25.938Z</time>
      </trkpt>
      <trkpt lat="20.251675" lon="-98.73259">
        <ele>2000.0</ele>
        <time>2019-10-12T15:23:26.944Z</time>
      </trkpt>
      <trkpt lat="20.25168167" lon="-98.73259333">
        <ele>2000.0</ele>
        <time>2019-10-12T15:23:27.948Z</time>
      </trkpt>
      <trkpt lat="20.25169" lon="-98.73260333">
        <ele>2000.0</ele>
        <time>2019-10-12T15:23:28.830Z</time>
      </trkpt>
      <trkpt lat="20.25169667" lon="-98.73261">
        <ele>2000.0</ele>
        <time>2019-10-12T15:23:29.835Z</time>
      </trkpt>
      <trkpt lat="20.25170333" lon="-98.73261667">
        <ele>2001.0</ele>
        <time>2019-10-12T15:23:30.840Z</time>
      </trkpt>
      <trkpt lat="20.25171167" lon="-98.73263">
        <ele>2001.0</ele>
        <time>2019-10-12T15:23:31.841Z</time>
      </trkpt>
      <trkpt lat="20.25172" lon="-98.73264167">
        <ele>2001.0</ele>
        <time>2019-10-12T15:23:32.841Z</time>
      </trkpt>
      <trkpt lat="20.25172833" lon="-98.73265333">
        <ele>2001.0</ele>
        <time>2019-10-12T15:23:33.841Z</time>
      </trkpt>
      <trkpt lat="20.25173667" lon="-98.73265833">
        <ele>2002.0</ele>
        <time>2019-10-12T15:23:34.842Z</time>
      </trkpt>
      <trkpt lat="20.25174833" lon="-98.73266167">
        <ele>2002.0</ele>
        <time>2019-10-12T15:23:35.842Z</time>
      </trkpt>
      <trkpt lat="20.25175833" lon="-98.73266667">
        <ele>2003.0</ele>
        <time>2019-10-12T15:23:36.842Z</time>
      </trkpt>
      <trkpt lat="20.25176833" lon="-98.732675">
        <ele>2003.0</ele>
        <time>2019-10-12T15:23:37.843Z</time>
      </trkpt>
      <trkpt lat="20.25178" lon="-98.732685">
        <ele>2004.0</ele>
        <time>2019-10-12T15:23:38.843Z</time>
      </trkpt>
      <trkpt lat="20.25179167" lon="-98.7327">
        <ele>2004.0</ele>
        <time>2019-10-12T15:23:39.843Z</time>
      </trkpt>
      <trkpt lat="20.25180333" lon="-98.73270833">
        <ele>2004.0</ele>
        <time>2019-10-12T15:23:40.844Z</time>
      </trkpt>
      <trkpt lat="20.25181667" lon="-98.73272">
        <ele>2004.0</ele>
        <time>2019-10-12T15:23:41.844Z</time>
      </trkpt>
      <trkpt lat="20.251825" lon="-98.73272833">
        <ele>2004.0</ele>
        <time>2019-10-12T15:23:42.844Z</time>
      </trkpt>
      <trkpt lat="20.25183667" lon="-98.73273833">
        <ele>2004.0</ele>
        <time>2019-10-12T15:23:43.844Z</time>
      </trkpt>
      <trkpt lat="20.25185167" lon="-98.73274833">
        <ele>2003.0</ele>
        <time>2019-10-12T15:23:44.850Z</time>
      </trkpt>
      <trkpt lat="20.25186667" lon="-98.73276">
        <ele>2003.0</ele>
        <time>2019-10-12T15:23:45.857Z</time>
      </trkpt>
      <trkpt lat="20.25188167" lon="-98.73277333">
        <ele>2003.0</ele>
        <time>2019-10-12T15:23:46.862Z</time>
      </trkpt>
      <trkpt lat="20.25189667" lon="-98.73278667">
        <ele>2003.0</ele>
        <time>2019-10-12T15:23:47.864Z</time>
      </trkpt>
      <trkpt lat="20.25191333" lon="-98.7328">
        <ele>2004.0</ele>
        <time>2019-10-12T15:23:48.870Z</time>
      </trkpt>
      <trkpt lat="20.25193167" lon="-98.73281333">
        <ele>2004.0</ele>
        <time>2019-10-12T15:23:49.874Z</time>
      </trkpt>
      <trkpt lat="20.25194667" lon="-98.732825">
        <ele>2004.0</ele>
        <time>2019-10-12T15:23:50.876Z</time>
      </trkpt>
      <trkpt lat="20.25196333" lon="-98.73284">
        <ele>2004.0</ele>
        <time>2019-10-12T15:23:51.878Z</time>
      </trkpt>
      <trkpt lat="20.251975" lon="-98.73285667">
        <ele>2003.0</ele>
        <time>2019-10-12T15:23:52.882Z</time>
      </trkpt>
      <trkpt lat="20.25198667" lon="-98.732875">
        <ele>2003.0</ele>
        <time>2019-10-12T15:23:53.886Z</time>
      </trkpt>
      <trkpt lat="20.25199667" lon="-98.732895">
        <ele>2003.0</ele>
        <time>2019-10-12T15:23:54.894Z</time>
      </trkpt>
      <trkpt lat="20.25201167" lon="-98.73291167">
        <ele>2002.0</ele>
        <time>2019-10-12T15:23:55.902Z</time>
      </trkpt>
      <trkpt lat="20.25202667" lon="-98.73292667">
        <ele>2002.0</ele>
        <time>2019-10-12T15:23:56.909Z</time>
      </trkpt>
      <trkpt lat="20.25204333" lon="-98.73294">
        <ele>2002.0</ele>
        <time>2019-10-12T15:23:57.914Z</time>
      </trkpt>
      <trkpt lat="20.25205833" lon="-98.732955">
        <ele>2002.0</ele>
        <time>2019-10-12T15:23:58.915Z</time>
      </trkpt>
      <trkpt lat="20.252075" lon="-98.73296833">
        <ele>2002.0</ele>
        <time>2019-10-12T15:23:59.917Z</time>
      </trkpt>
      <trkpt lat="20.25209167" lon="-98.73298333">
        <ele>2001.0</ele>
        <time>2019-10-12T15:24:00.925Z</time>
      </trkpt>
      <trkpt lat="20.25210833" lon="-98.73299667">
        <ele>2001.0</ele>
        <time>2019-10-12T15:24:01.930Z</time>
      </trkpt>
      <trkpt lat="20.252125" lon="-98.73301">
        <ele>2002.0</ele>
        <time>2019-10-12T15:24:02.937Z</time>
      </trkpt>
      <trkpt lat="20.25213833" lon="-98.73301833">
        <ele>2002.0</ele>
        <time>2019-10-12T15:24:03.941Z</time>
      </trkpt>
      <trkpt lat="20.25215667" lon="-98.73302667">
        <ele>2003.0</ele>
        <time>2019-10-12T15:24:04.946Z</time>
      </trkpt>
      <trkpt lat="20.252175" lon="-98.73303167">
        <ele>2003.0</ele>
        <time>2019-10-12T15:24:05.951Z</time>
      </trkpt>
      <trkpt lat="20.25219333" lon="-98.73304167">
        <ele>2003.0</ele>
        <time>2019-10-12T15:24:06.831Z</time>
      </trkpt>
      <trkpt lat="20.25220833" lon="-98.73304833">
        <ele>2002.0</ele>
        <time>2019-10-12T15:24:07.838Z</time>
      </trkpt>
      <trkpt lat="20.25222333" lon="-98.73305167">
        <ele>2002.0</ele>
        <time>2019-10-12T15:24:08.842Z</time>
      </trkpt>
      <trkpt lat="20.25223333" lon="-98.733055">
        <ele>2002.0</ele>
        <time>2019-10-12T15:24:09.850Z</time>
      </trkpt>
      <trkpt lat="20.25224167" lon="-98.733055">
        <ele>2002.0</ele>
        <time>2019-10-12T15:24:10.856Z</time>
      </trkpt>
      <trkpt lat="20.25224667" lon="-98.733055">
        <ele>2002.0</ele>
        <time>2019-10-12T15:24:11.859Z</time>
      </trkpt>
      <trkpt lat="20.25225" lon="-98.73305167">
        <ele>2002.0</ele>
        <time>2019-10-12T15:24:12.860Z</time>
      </trkpt>
      <trkpt lat="20.25225333" lon="-98.73304833">
        <ele>2002.0</ele>
        <time>2019-10-12T15:24:13.860Z</time>
      </trkpt>
      <trkpt lat="20.252255" lon="-98.73304833">
        <ele>2003.0</ele>
        <time>2019-10-12T15:24:14.860Z</time>
      </trkpt>
      <trkpt lat="20.25225667" lon="-98.73304667">
        <ele>2004.0</ele>
        <time>2019-10-12T15:24:15.861Z</time>
      </trkpt>
      <trkpt lat="20.25225833" lon="-98.733045">
        <ele>2005.0</ele>
        <time>2019-10-12T15:24:16.861Z</time>
      </trkpt>
      <trkpt lat="20.25226" lon="-98.73304333">
        <ele>2006.0</ele>
        <time>2019-10-12T15:24:17.862Z</time>
      </trkpt>
      <trkpt lat="20.25226167" lon="-98.73304333">
        <ele>2007.0</ele>
        <time>2019-10-12T15:24:18.862Z</time>
      </trkpt>
      <trkpt lat="20.25226333" lon="-98.73304333">
        <ele>2008.0</ele>
        <time>2019-10-12T15:24:19.862Z</time>
      </trkpt>
      <trkpt lat="20.25226667" lon="-98.73304333">
        <ele>2008.0</ele>
        <time>2019-10-12T15:24:20.863Z</time>
      </trkpt>
      <trkpt lat="20.25227167" lon="-98.73303833">
        <ele>2008.0</ele>
        <time>2019-10-12T15:24:21.863Z</time>
      </trkpt>
      <trkpt lat="20.25228" lon="-98.73303167">
        <ele>2008.0</ele>
        <time>2019-10-12T15:24:22.863Z</time>
      </trkpt>
      <trkpt lat="20.25229333" lon="-98.73302833">
        <ele>2008.0</ele>
        <time>2019-10-12T15:24:23.863Z</time>
      </trkpt>
      <trkpt lat="20.25231167" lon="-98.733025">
        <ele>2008.0</ele>
        <time>2019-10-12T15:24:24.863Z</time>
      </trkpt>
      <trkpt lat="20.25233333" lon="-98.73302">
        <ele>2008.0</ele>
        <time>2019-10-12T15:24:25.863Z</time>
      </trkpt>
      <trkpt lat="20.25235333" lon="-98.733015">
        <ele>2008.0</ele>
        <time>2019-10-12T15:24:26.864Z</time>
      </trkpt>
      <trkpt lat="20.252375" lon="-98.733005">
        <ele>2008.0</ele>
        <time>2019-10-12T15:24:27.864Z</time>
      </trkpt>
      <trkpt lat="20.25239667" lon="-98.73299667">
        <ele>2008.0</ele>
        <time>2019-10-12T15:24:28.864Z</time>
      </trkpt>
      <trkpt lat="20.25241667" lon="-98.73298667">
        <ele>2008.0</ele>
        <time>2019-10-12T15:24:29.865Z</time>
      </trkpt>
      <trkpt lat="20.25243667" lon="-98.73297333">
        <ele>2007.0</ele>
        <time>2019-10-12T15:24:30.865Z</time>
      </trkpt>
      <trkpt lat="20.252455" lon="-98.73296333">
        <ele>2007.0</ele>
        <time>2019-10-12T15:24:31.865Z</time>
      </trkpt>
      <trkpt lat="20.25247667" lon="-98.73295">
        <ele>2007.0</ele>
        <time>2019-10-12T15:24:32.866Z</time>
      </trkpt>
      <trkpt lat="20.25249667" lon="-98.73293833">
        <ele>2007.0</ele>
        <time>2019-10-12T15:24:33.866Z</time>
      </trkpt>
      <trkpt lat="20.25251833" lon="-98.73292833">
        <ele>2007.0</ele>
        <time>2019-10-12T15:24:34.866Z</time>
      </trkpt>
      <trkpt lat="20.25254167" lon="-98.732925">
        <ele>2007.0</ele>
        <time>2019-10-12T15:24:35.867Z</time>
      </trkpt>
      <trkpt lat="20.25255833" lon="-98.73293">
        <ele>2007.0</ele>
        <time>2019-10-12T15:24:36.867Z</time>
      </trkpt>
      <trkpt lat="20.25258167" lon="-98.73293833">
        <ele>2007.0</ele>
        <time>2019-10-12T15:24:37.867Z</time>
      </trkpt>
      <trkpt lat="20.25260667" lon="-98.732945">
        <ele>2006.0</ele>
        <time>2019-10-12T15:24:38.868Z</time>
      </trkpt>
      <trkpt lat="20.25263167" lon="-98.73295333">
        <ele>2006.0</ele>
        <time>2019-10-12T15:24:39.868Z</time>
      </trkpt>
      <trkpt lat="20.25265833" lon="-98.73295667">
        <ele>2005.0</ele>
        <time>2019-10-12T15:24:40.868Z</time>
      </trkpt>
      <trkpt lat="20.25268167" lon="-98.73296167">
        <ele>2005.0</ele>
        <time>2019-10-12T15:24:41.869Z</time>
      </trkpt>
      <trkpt lat="20.252705" lon="-98.73296">
        <ele>2005.0</ele>
        <time>2019-10-12T15:24:42.869Z</time>
      </trkpt>
      <trkpt lat="20.25272667" lon="-98.73295667">
        <ele>2005.0</ele>
        <time>2019-10-12T15:24:43.869Z</time>
      </trkpt>
      <trkpt lat="20.25274667" lon="-98.732955">
        <ele>2005.0</ele>
        <time>2019-10-12T15:24:44.870Z</time>
      </trkpt>
      <trkpt lat="20.25276667" lon="-98.73295333">
        <ele>2005.0</ele>
        <time>2019-10-12T15:24:45.870Z</time>
      </trkpt>
      <trkpt lat="20.25278333" lon="-98.73295167">
        <ele>2005.0</ele>
        <time>2019-10-12T15:24:46.870Z</time>
      </trkpt>
      <trkpt lat="20.25280333" lon="-98.73295">
        <ele>2004.0</ele>
        <time>2019-10-12T15:24:47.871Z</time>
      </trkpt>
      <trkpt lat="20.25281833" lon="-98.73295167">
        <ele>2004.0</ele>
        <time>2019-10-12T15:24:48.871Z</time>
      </trkpt>
      <trkpt lat="20.25283667" lon="-98.73295167">
        <ele>2004.0</ele>
        <time>2019-10-12T15:24:49.871Z</time>
      </trkpt>
      <trkpt lat="20.25285333" lon="-98.73295167">
        <ele>2004.0</ele>
        <time>2019-10-12T15:24:50.872Z</time>
      </trkpt>
      <trkpt lat="20.25286833" lon="-98.73295">
        <ele>2004.0</ele>
        <time>2019-10-12T15:24:51.872Z</time>
      </trkpt>
      <trkpt lat="20.252885" lon="-98.73294667">
        <ele>2004.0</ele>
        <time>2019-10-12T15:24:52.872Z</time>
      </trkpt>
      <trkpt lat="20.25290167" lon="-98.732945">
        <ele>2004.0</ele>
        <time>2019-10-12T15:24:53.873Z</time>
      </trkpt>
      <trkpt lat="20.25291833" lon="-98.73295167">
        <ele>2004.0</ele>
        <time>2019-10-12T15:24:54.873Z</time>
      </trkpt>
      <trkpt lat="20.25293333" lon="-98.732965">
        <ele>2004.0</ele>
        <time>2019-10-12T15:24:55.873Z</time>
      </trkpt>
      <trkpt lat="20.25294833" lon="-98.73298">
        <ele>2003.0</ele>
        <time>2019-10-12T15:24:56.874Z</time>
      </trkpt>
      <trkpt lat="20.25296167" lon="-98.73299833">
        <ele>2003.0</ele>
        <time>2019-10-12T15:24:57.874Z</time>
      </trkpt>
      <trkpt lat="20.252975" lon="-98.73301833">
        <ele>2003.0</ele>
        <time>2019-10-12T15:24:58.874Z</time>
      </trkpt>
      <trkpt lat="20.25299" lon="-98.733035">
        <ele>2003.0</ele>
        <time>2019-10-12T15:24:59.875Z</time>
      </trkpt>
      <trkpt lat="20.25300333" lon="-98.73305667">
        <ele>2002.0</ele>
        <time>2019-10-12T15:25:00.875Z</time>
      </trkpt>
      <trkpt lat="20.25301833" lon="-98.73307833">
        <ele>2001.0</ele>
        <time>2019-10-12T15:25:01.875Z</time>
      </trkpt>
      <trkpt lat="20.25303333" lon="-98.73309667">
        <ele>2001.0</ele>
        <time>2019-10-12T15:25:02.876Z</time>
      </trkpt>
      <trkpt lat="20.25304833" lon="-98.733115">
        <ele>2001.0</ele>
        <time>2019-10-12T15:25:03.876Z</time>
      </trkpt>
      <trkpt lat="20.253065" lon="-98.73313">
        <ele>2001.0</ele>
        <time>2019-10-12T15:25:04.876Z</time>
      </trkpt>
      <trkpt lat="20.25308333" lon="-98.73314167">
        <ele>2000.0</ele>
        <time>2019-10-12T15:25:05.877Z</time>
      </trkpt>
      <trkpt lat="20.25310167" lon="-98.73315333">
        <ele>2000.0</ele>
        <time>2019-10-12T15:25:06.877Z</time>
      </trkpt>
      <trkpt lat="20.25312167" lon="-98.73316833">
        <ele>2000.0</ele>
        <time>2019-10-12T15:25:07.877Z</time>
      </trkpt>
      <trkpt lat="20.25314167" lon="-98.73318667">
        <ele>2001.0</ele>
        <time>2019-10-12T15:25:08.878Z</time>
      </trkpt>
      <trkpt lat="20.253165" lon="-98.73320333">
        <ele>2001.0</ele>
        <time>2019-10-12T15:25:09.878Z</time>
      </trkpt>
      <trkpt lat="20.25319" lon="-98.73322333">
        <ele>2001.0</ele>
        <time>2019-10-12T15:25:10.878Z</time>
      </trkpt>
      <trkpt lat="20.25320667" lon="-98.73323">
        <ele>2001.0</ele>
        <time>2019-10-12T15:25:11.879Z</time>
      </trkpt>
      <trkpt lat="20.25322833" lon="-98.73324">
        <ele>2001.0</ele>
        <time>2019-10-12T15:25:12.879Z</time>
      </trkpt>
      <trkpt lat="20.25325333" lon="-98.73324833">
        <ele>2001.0</ele>
        <time>2019-10-12T15:25:13.879Z</time>
      </trkpt>
      <trkpt lat="20.25326833" lon="-98.733255">
        <ele>2001.0</ele>
        <time>2019-10-12T15:25:14.880Z</time>
      </trkpt>
      <trkpt lat="20.25329" lon="-98.73326333">
        <ele>2001.0</ele>
        <time>2019-10-12T15:25:15.880Z</time>
      </trkpt>
      <trkpt lat="20.25330333" lon="-98.73326833">
        <ele>2000.0</ele>
        <time>2019-10-12T15:25:16.880Z</time>
      </trkpt>
      <trkpt lat="20.25332333" lon="-98.73327667">
        <ele>2000.0</ele>
        <time>2019-10-12T15:25:17.881Z</time>
      </trkpt>
      <trkpt lat="20.25333833" lon="-98.73328">
        <ele>1999.0</ele>
        <time>2019-10-12T15:25:18.881Z</time>
      </trkpt>
      <trkpt lat="20.25335833" lon="-98.733285">
        <ele>1999.0</ele>
        <time>2019-10-12T15:25:19.881Z</time>
      </trkpt>
      <trkpt lat="20.25338333" lon="-98.73328667">
        <ele>1998.0</ele>
        <time>2019-10-12T15:25:20.882Z</time>
      </trkpt>
      <trkpt lat="20.25340333" lon="-98.73328667">
        <ele>1998.0</ele>
        <time>2019-10-12T15:25:21.882Z</time>
      </trkpt>
      <trkpt lat="20.25342" lon="-98.733285">
        <ele>1998.0</ele>
        <time>2019-10-12T15:25:22.882Z</time>
      </trkpt>
      <trkpt lat="20.25344167" lon="-98.73327667">
        <ele>1998.0</ele>
        <time>2019-10-12T15:25:23.883Z</time>
      </trkpt>
      <trkpt lat="20.25346" lon="-98.733265">
        <ele>1997.0</ele>
        <time>2019-10-12T15:25:24.883Z</time>
      </trkpt>
      <trkpt lat="20.25347833" lon="-98.733255">
        <ele>1997.0</ele>
        <time>2019-10-12T15:25:25.883Z</time>
      </trkpt>
      <trkpt lat="20.253495" lon="-98.73324167">
        <ele>1997.0</ele>
        <time>2019-10-12T15:25:26.884Z</time>
      </trkpt>
      <trkpt lat="20.25351333" lon="-98.73322833">
        <ele>1997.0</ele>
        <time>2019-10-12T15:25:27.884Z</time>
      </trkpt>
      <trkpt lat="20.25352833" lon="-98.73321667">
        <ele>1997.0</ele>
        <time>2019-10-12T15:25:28.884Z</time>
      </trkpt>
      <trkpt lat="20.25355" lon="-98.73320167">
        <ele>1996.0</ele>
        <time>2019-10-12T15:25:29.885Z</time>
      </trkpt>
      <trkpt lat="20.25357" lon="-98.73319">
        <ele>1995.0</ele>
        <time>2019-10-12T15:25:30.885Z</time>
      </trkpt>
      <trkpt lat="20.253585" lon="-98.733175">
        <ele>1995.0</ele>
        <time>2019-10-12T15:25:31.885Z</time>
      </trkpt>
      <trkpt lat="20.25359667" lon="-98.733155">
        <ele>1994.0</ele>
        <time>2019-10-12T15:25:32.886Z</time>
      </trkpt>
      <trkpt lat="20.25360833" lon="-98.73314">
        <ele>1993.0</ele>
        <time>2019-10-12T15:25:33.886Z</time>
      </trkpt>
      <trkpt lat="20.25362333" lon="-98.73312833">
        <ele>1992.0</ele>
        <time>2019-10-12T15:25:34.886Z</time>
      </trkpt>
      <trkpt lat="20.25364167" lon="-98.733115">
        <ele>1992.0</ele>
        <time>2019-10-12T15:25:35.887Z</time>
      </trkpt>
      <trkpt lat="20.25366167" lon="-98.7331">
        <ele>1991.0</ele>
        <time>2019-10-12T15:25:36.887Z</time>
      </trkpt>
      <trkpt lat="20.25368167" lon="-98.733085">
        <ele>1991.0</ele>
        <time>2019-10-12T15:25:37.887Z</time>
      </trkpt>
      <trkpt lat="20.2537" lon="-98.73306833">
        <ele>1991.0</ele>
        <time>2019-10-12T15:25:38.887Z</time>
      </trkpt>
      <trkpt lat="20.253715" lon="-98.73305">
        <ele>1990.0</ele>
        <time>2019-10-12T15:25:39.887Z</time>
      </trkpt>
      <trkpt lat="20.25373333" lon="-98.73303167">
        <ele>1990.0</ele>
        <time>2019-10-12T15:25:40.888Z</time>
      </trkpt>
      <trkpt lat="20.253745" lon="-98.73302167">
        <ele>1990.0</ele>
        <time>2019-10-12T15:25:41.888Z</time>
      </trkpt>
      <trkpt lat="20.25376167" lon="-98.73300167">
        <ele>1988.0</ele>
        <time>2019-10-12T15:25:42.889Z</time>
      </trkpt>
      <trkpt lat="20.253775" lon="-98.73298333">
        <ele>1986.0</ele>
        <time>2019-10-12T15:25:43.889Z</time>
      </trkpt>
      <trkpt lat="20.25378333" lon="-98.732965">
        <ele>1985.0</ele>
        <time>2019-10-12T15:25:44.890Z</time>
      </trkpt>
      <trkpt lat="20.2538" lon="-98.73294667">
        <ele>1984.0</ele>
        <time>2019-10-12T15:25:45.890Z</time>
      </trkpt>
      <trkpt lat="20.25380833" lon="-98.73292667">
        <ele>1983.0</ele>
        <time>2019-10-12T15:25:46.890Z</time>
      </trkpt>
      <trkpt lat="20.25381167" lon="-98.73290833">
        <ele>1982.0</ele>
        <time>2019-10-12T15:25:47.890Z</time>
      </trkpt>
      <trkpt lat="20.25381167" lon="-98.73289667">
        <ele>1982.0</ele>
        <time>2019-10-12T15:25:48.891Z</time>
      </trkpt>
      <trkpt lat="20.25381833" lon="-98.73289667">
        <ele>1982.0</ele>
        <time>2019-10-12T15:25:49.891Z</time>
      </trkpt>
      <trkpt lat="20.25382667" lon="-98.73290333">
        <ele>1983.0</ele>
        <time>2019-10-12T15:25:50.891Z</time>
      </trkpt>
      <trkpt lat="20.25383333" lon="-98.73291333">
        <ele>1983.0</ele>
        <time>2019-10-12T15:25:51.892Z</time>
      </trkpt>
      <trkpt lat="20.25384" lon="-98.73292667">
        <ele>1982.0</ele>
        <time>2019-10-12T15:25:52.892Z</time>
      </trkpt>
      <trkpt lat="20.253845" lon="-98.73294">
        <ele>1982.0</ele>
        <time>2019-10-12T15:25:53.892Z</time>
      </trkpt>
      <trkpt lat="20.25384833" lon="-98.73295333">
        <ele>1983.0</ele>
        <time>2019-10-12T15:25:54.893Z</time>
      </trkpt>
      <trkpt lat="20.25385333" lon="-98.73296333">
        <ele>1983.0</ele>
        <time>2019-10-12T15:25:55.893Z</time>
      </trkpt>
      <trkpt lat="20.25385667" lon="-98.73297667">
        <ele>1983.0</ele>
        <time>2019-10-12T15:25:56.893Z</time>
      </trkpt>
      <trkpt lat="20.25386" lon="-98.73299667">
        <ele>1983.0</ele>
        <time>2019-10-12T15:25:57.894Z</time>
      </trkpt>
      <trkpt lat="20.25386667" lon="-98.73301667">
        <ele>1983.0</ele>
        <time>2019-10-12T15:25:58.894Z</time>
      </trkpt>
      <trkpt lat="20.25387167" lon="-98.733025">
        <ele>1984.0</ele>
        <time>2019-10-12T15:25:59.894Z</time>
      </trkpt>
      <trkpt lat="20.25388" lon="-98.73302833">
        <ele>1984.0</ele>
        <time>2019-10-12T15:26:00.895Z</time>
      </trkpt>
      <trkpt lat="20.253885" lon="-98.73302333">
        <ele>1984.0</ele>
        <time>2019-10-12T15:26:01.895Z</time>
      </trkpt>
      <trkpt lat="20.25389167" lon="-98.73301667">
        <ele>1985.0</ele>
        <time>2019-10-12T15:26:02.895Z</time>
      </trkpt>
      <trkpt lat="20.25389833" lon="-98.73301167">
        <ele>1984.0</ele>
        <time>2019-10-12T15:26:03.896Z</time>
      </trkpt>
      <trkpt lat="20.2539" lon="-98.733005">
        <ele>1984.0</ele>
        <time>2019-10-12T15:26:04.899Z</time>
      </trkpt>
      <trkpt lat="20.25390833" lon="-98.73299833">
        <ele>1984.0</ele>
        <time>2019-10-12T15:26:05.905Z</time>
      </trkpt>
      <trkpt lat="20.253915" lon="-98.73299833">
        <ele>1983.0</ele>
        <time>2019-10-12T15:26:06.910Z</time>
      </trkpt>
      <trkpt lat="20.25391833" lon="-98.733">
        <ele>1983.0</ele>
        <time>2019-10-12T15:26:07.915Z</time>
      </trkpt>
      <trkpt lat="20.253925" lon="-98.73301">
        <ele>1983.0</ele>
        <time>2019-10-12T15:26:08.918Z</time>
      </trkpt>
      <trkpt lat="20.25393167" lon="-98.73302167">
        <ele>1982.0</ele>
        <time>2019-10-12T15:26:09.919Z</time>
      </trkpt>
      <trkpt lat="20.25393833" lon="-98.733035">
        <ele>1982.0</ele>
        <time>2019-10-12T15:26:10.922Z</time>
      </trkpt>
      <trkpt lat="20.253945" lon="-98.73304833">
        <ele>1982.0</ele>
        <time>2019-10-12T15:26:11.927Z</time>
      </trkpt>
      <trkpt lat="20.25395167" lon="-98.73306167">
        <ele>1982.0</ele>
        <time>2019-10-12T15:26:12.932Z</time>
      </trkpt>
      <trkpt lat="20.25395333" lon="-98.73307667">
        <ele>1982.0</ele>
        <time>2019-10-12T15:26:13.939Z</time>
      </trkpt>
      <trkpt lat="20.253955" lon="-98.73309667">
        <ele>1981.0</ele>
        <time>2019-10-12T15:26:14.945Z</time>
      </trkpt>
      <trkpt lat="20.25395833" lon="-98.73312167">
        <ele>1981.0</ele>
        <time>2019-10-12T15:26:15.948Z</time>
      </trkpt>
      <trkpt lat="20.25396667" lon="-98.73314167">
        <ele>1981.0</ele>
        <time>2019-10-12T15:26:16.953Z</time>
      </trkpt>
      <trkpt lat="20.25398" lon="-98.73315">
        <ele>1981.0</ele>
        <time>2019-10-12T15:26:17.833Z</time>
      </trkpt>
      <trkpt lat="20.25399833" lon="-98.73315333">
        <ele>1980.0</ele>
        <time>2019-10-12T15:26:18.838Z</time>
      </trkpt>
      <trkpt lat="20.25402167" lon="-98.733155">
        <ele>1980.0</ele>
        <time>2019-10-12T15:26:19.838Z</time>
      </trkpt>
      <trkpt lat="20.25403833" lon="-98.73315">
        <ele>1980.0</ele>
        <time>2019-10-12T15:26:20.838Z</time>
      </trkpt>
      <trkpt lat="20.25405333" lon="-98.73313167">
        <ele>1979.0</ele>
        <time>2019-10-12T15:26:21.839Z</time>
      </trkpt>
      <trkpt lat="20.254065" lon="-98.733115">
        <ele>1978.0</ele>
        <time>2019-10-12T15:26:22.839Z</time>
      </trkpt>
      <trkpt lat="20.25407333" lon="-98.73310833">
        <ele>1978.0</ele>
        <time>2019-10-12T15:26:23.839Z</time>
      </trkpt>
      <trkpt lat="20.25408167" lon="-98.73311">
        <ele>1979.0</ele>
        <time>2019-10-12T15:26:24.841Z</time>
      </trkpt>
      <trkpt lat="20.254085" lon="-98.73312">
        <ele>1979.0</ele>
        <time>2019-10-12T15:26:25.847Z</time>
      </trkpt>
      <trkpt lat="20.25408667" lon="-98.73312833">
        <ele>1979.0</ele>
        <time>2019-10-12T15:26:26.851Z</time>
      </trkpt>
      <trkpt lat="20.25408833" lon="-98.73314167">
        <ele>1979.0</ele>
        <time>2019-10-12T15:26:27.856Z</time>
      </trkpt>
      <trkpt lat="20.25409" lon="-98.733155">
        <ele>1979.0</ele>
        <time>2019-10-12T15:26:28.862Z</time>
      </trkpt>
      <trkpt lat="20.25409" lon="-98.73316167">
        <ele>1978.0</ele>
        <time>2019-10-12T15:26:29.864Z</time>
      </trkpt>
      <trkpt lat="20.25408667" lon="-98.73317667">
        <ele>1978.0</ele>
        <time>2019-10-12T15:26:30.870Z</time>
      </trkpt>
      <trkpt lat="20.25408" lon="-98.73319">
        <ele>1977.0</ele>
        <time>2019-10-12T15:26:31.875Z</time>
      </trkpt>
      <trkpt lat="20.25407333" lon="-98.73320333">
        <ele>1975.0</ele>
        <time>2019-10-12T15:26:32.878Z</time>
      </trkpt>
      <trkpt lat="20.25406333" lon="-98.73322">
        <ele>1974.0</ele>
        <time>2019-10-12T15:26:33.885Z</time>
      </trkpt>
      <trkpt lat="20.25406167" lon="-98.73323833">
        <ele>1974.0</ele>
        <time>2019-10-12T15:26:34.890Z</time>
      </trkpt>
      <trkpt lat="20.25406833" lon="-98.733255">
        <ele>1974.0</ele>
        <time>2019-10-12T15:26:35.890Z</time>
      </trkpt>
      <trkpt lat="20.25408" lon="-98.73327">
        <ele>1974.0</ele>
        <time>2019-10-12T15:26:36.894Z</time>
      </trkpt>
      <trkpt lat="20.254095" lon="-98.73328167">
        <ele>1974.0</ele>
        <time>2019-10-12T15:26:37.899Z</time>
      </trkpt>
      <trkpt lat="20.254115" lon="-98.73329">
        <ele>1974.0</ele>
        <time>2019-10-12T15:26:38.903Z</time>
      </trkpt>
      <trkpt lat="20.25413333" lon="-98.733295">
        <ele>1973.0</ele>
        <time>2019-10-12T15:26:39.907Z</time>
      </trkpt>
      <trkpt lat="20.25414833" lon="-98.733305">
        <ele>1972.0</ele>
        <time>2019-10-12T15:26:40.907Z</time>
      </trkpt>
      <trkpt lat="20.25416667" lon="-98.73332">
        <ele>1971.0</ele>
        <time>2019-10-12T15:26:41.907Z</time>
      </trkpt>
      <trkpt lat="20.25419" lon="-98.73333333">
        <ele>1971.0</ele>
        <time>2019-10-12T15:26:42.908Z</time>
      </trkpt>
      <trkpt lat="20.25421667" lon="-98.73335">
        <ele>1970.0</ele>
        <time>2019-10-12T15:26:43.908Z</time>
      </trkpt>
      <trkpt lat="20.25423833" lon="-98.733365">
        <ele>1969.0</ele>
        <time>2019-10-12T15:26:44.908Z</time>
      </trkpt>
      <trkpt lat="20.254255" lon="-98.73337333">
        <ele>1967.0</ele>
        <time>2019-10-12T15:26:45.909Z</time>
      </trkpt>
      <trkpt lat="20.254275" lon="-98.73338">
        <ele>1967.0</ele>
        <time>2019-10-12T15:26:46.909Z</time>
      </trkpt>
      <trkpt lat="20.25429667" lon="-98.73338333">
        <ele>1966.0</ele>
        <time>2019-10-12T15:26:47.909Z</time>
      </trkpt>
      <trkpt lat="20.25432" lon="-98.73338667">
        <ele>1966.0</ele>
        <time>2019-10-12T15:26:48.909Z</time>
      </trkpt>
      <trkpt lat="20.25434333" lon="-98.733395">
        <ele>1966.0</ele>
        <time>2019-10-12T15:26:49.910Z</time>
      </trkpt>
      <trkpt lat="20.25437167" lon="-98.733405">
        <ele>1966.0</ele>
        <time>2019-10-12T15:26:50.910Z</time>
      </trkpt>
      <trkpt lat="20.254395" lon="-98.73340833">
        <ele>1966.0</ele>
        <time>2019-10-12T15:26:51.910Z</time>
      </trkpt>
      <trkpt lat="20.254415" lon="-98.733405">
        <ele>1966.0</ele>
        <time>2019-10-12T15:26:52.910Z</time>
      </trkpt>
      <trkpt lat="20.25442667" lon="-98.73339833">
        <ele>1966.0</ele>
        <time>2019-10-12T15:26:53.911Z</time>
      </trkpt>
      <trkpt lat="20.25443333" lon="-98.73339167">
        <ele>1965.0</ele>
        <time>2019-10-12T15:26:54.916Z</time>
      </trkpt>
      <trkpt lat="20.254445" lon="-98.73338667">
        <ele>1964.0</ele>
        <time>2019-10-12T15:26:55.921Z</time>
      </trkpt>
      <trkpt lat="20.25445833" lon="-98.733385">
        <ele>1964.0</ele>
        <time>2019-10-12T15:26:56.927Z</time>
      </trkpt>
      <trkpt lat="20.25447667" lon="-98.733385">
        <ele>1964.0</ele>
        <time>2019-10-12T15:26:57.931Z</time>
      </trkpt>
      <trkpt lat="20.25448833" lon="-98.73338333">
        <ele>1963.0</ele>
        <time>2019-10-12T15:26:58.936Z</time>
      </trkpt>
      <trkpt lat="20.2545" lon="-98.73338">
        <ele>1963.0</ele>
        <time>2019-10-12T15:26:59.941Z</time>
      </trkpt>
      <trkpt lat="20.25451" lon="-98.73337">
        <ele>1962.0</ele>
        <time>2019-10-12T15:27:00.944Z</time>
      </trkpt>
      <trkpt lat="20.25452" lon="-98.73335167">
        <ele>1961.0</ele>
        <time>2019-10-12T15:27:01.949Z</time>
      </trkpt>
      <trkpt lat="20.25453" lon="-98.73333167">
        <ele>1960.0</ele>
        <time>2019-10-12T15:27:02.830Z</time>
      </trkpt>
      <trkpt lat="20.25454" lon="-98.733315">
        <ele>1960.0</ele>
        <time>2019-10-12T15:27:03.837Z</time>
      </trkpt>
      <trkpt lat="20.25455" lon="-98.73330167">
        <ele>1960.0</ele>
        <time>2019-10-12T15:27:04.844Z</time>
      </trkpt>
      <trkpt lat="20.25455" lon="-98.73327833">
        <ele>1959.0</ele>
        <time>2019-10-12T15:27:05.850Z</time>
      </trkpt>
      <trkpt lat="20.25454667" lon="-98.733255">
        <ele>1960.0</ele>
        <time>2019-10-12T15:27:06.851Z</time>
      </trkpt>
      <trkpt lat="20.25454667" lon="-98.73323167">
        <ele>1961.0</ele>
        <time>2019-10-12T15:27:07.852Z</time>
      </trkpt>
      <trkpt lat="20.25454667" lon="-98.73321167">
        <ele>1962.0</ele>
        <time>2019-10-12T15:27:08.852Z</time>
      </trkpt>
      <trkpt lat="20.254545" lon="-98.73319167">
        <ele>1961.0</ele>
        <time>2019-10-12T15:27:09.852Z</time>
      </trkpt>
      <trkpt lat="20.254545" lon="-98.73318">
        <ele>1962.0</ele>
        <time>2019-10-12T15:27:10.852Z</time>
      </trkpt>
      <trkpt lat="20.25454667" lon="-98.73317167">
        <ele>1961.0</ele>
        <time>2019-10-12T15:27:11.852Z</time>
      </trkpt>
      <trkpt lat="20.25455167" lon="-98.73317333">
        <ele>1960.0</ele>
        <time>2019-10-12T15:27:12.852Z</time>
      </trkpt>
      <trkpt lat="20.25456333" lon="-98.73318167">
        <ele>1958.0</ele>
        <time>2019-10-12T15:27:13.852Z</time>
      </trkpt>
      <trkpt lat="20.25457167" lon="-98.73317167">
        <ele>1957.0</ele>
        <time>2019-10-12T15:27:14.853Z</time>
      </trkpt>
      <trkpt lat="20.25457167" lon="-98.733165">
        <ele>1957.0</ele>
        <time>2019-10-12T15:27:15.853Z</time>
      </trkpt>
      <trkpt lat="20.25457333" lon="-98.73315667">
        <ele>1956.0</ele>
        <time>2019-10-12T15:27:16.854Z</time>
      </trkpt>
      <trkpt lat="20.25457667" lon="-98.733145">
        <ele>1955.0</ele>
        <time>2019-10-12T15:27:17.859Z</time>
      </trkpt>
      <trkpt lat="20.25457333" lon="-98.73313167">
        <ele>1954.0</ele>
        <time>2019-10-12T15:27:18.861Z</time>
      </trkpt>
      <trkpt lat="20.25457167" lon="-98.73311667">
        <ele>1953.0</ele>
        <time>2019-10-12T15:27:19.863Z</time>
      </trkpt>
      <trkpt lat="20.25457167" lon="-98.73309667">
        <ele>1953.0</ele>
        <time>2019-10-12T15:27:20.867Z</time>
      </trkpt>
      <trkpt lat="20.25457" lon="-98.73307833">
        <ele>1953.0</ele>
        <time>2019-10-12T15:27:21.872Z</time>
      </trkpt>
      <trkpt lat="20.25457" lon="-98.73305833">
        <ele>1953.0</ele>
        <time>2019-10-12T15:27:22.878Z</time>
      </trkpt>
      <trkpt lat="20.25456833" lon="-98.73302833">
        <ele>1953.0</ele>
        <time>2019-10-12T15:27:23.883Z</time>
      </trkpt>
      <trkpt lat="20.25456667" lon="-98.73300333">
        <ele>1953.0</ele>
        <time>2019-10-12T15:27:24.890Z</time>
      </trkpt>
      <trkpt lat="20.254565" lon="-98.73298">
        <ele>1953.0</ele>
        <time>2019-10-12T15:27:25.896Z</time>
      </trkpt>
      <trkpt lat="20.25456333" lon="-98.732955">
        <ele>1952.0</ele>
        <time>2019-10-12T15:27:26.902Z</time>
      </trkpt>
      <trkpt lat="20.25456333" lon="-98.732935">
        <ele>1952.0</ele>
        <time>2019-10-12T15:27:27.905Z</time>
      </trkpt>
      <trkpt lat="20.25456167" lon="-98.73290833">
        <ele>1951.0</ele>
        <time>2019-10-12T15:27:28.909Z</time>
      </trkpt>
      <trkpt lat="20.25456333" lon="-98.732885">
        <ele>1951.0</ele>
        <time>2019-10-12T15:27:29.915Z</time>
      </trkpt>
      <trkpt lat="20.254565" lon="-98.73286667">
        <ele>1950.0</ele>
        <time>2019-10-12T15:27:30.921Z</time>
      </trkpt>
      <trkpt lat="20.25456833" lon="-98.732855">
        <ele>1949.0</ele>
        <time>2019-10-12T15:27:31.929Z</time>
      </trkpt>
      <trkpt lat="20.25457" lon="-98.732835">
        <ele>1948.0</ele>
        <time>2019-10-12T15:27:32.936Z</time>
      </trkpt>
      <trkpt lat="20.25456833" lon="-98.73282">
        <ele>1946.0</ele>
        <time>2019-10-12T15:27:33.943Z</time>
      </trkpt>
      <trkpt lat="20.25456667" lon="-98.73280333">
        <ele>1945.0</ele>
        <time>2019-10-12T15:27:34.949Z</time>
      </trkpt>
      <trkpt lat="20.25456667" lon="-98.73278333">
        <ele>1944.0</ele>
        <time>2019-10-12T15:27:35.955Z</time>
      </trkpt>
      <trkpt lat="20.25456167" lon="-98.73276667">
        <ele>1944.0</ele>
        <time>2019-10-12T15:27:36.835Z</time>
      </trkpt>
      <trkpt lat="20.25455833" lon="-98.73274833">
        <ele>1943.0</ele>
        <time>2019-10-12T15:27:37.840Z</time>
      </trkpt>
      <trkpt lat="20.254555" lon="-98.73272333">
        <ele>1942.0</ele>
        <time>2019-10-12T15:27:38.848Z</time>
      </trkpt>
      <trkpt lat="20.25455667" lon="-98.732705">
        <ele>1943.0</ele>
        <time>2019-10-12T15:27:39.853Z</time>
      </trkpt>
      <trkpt lat="20.25455333" lon="-98.73268167">
        <ele>1942.0</ele>
        <time>2019-10-12T15:27:40.859Z</time>
      </trkpt>
      <trkpt lat="20.25454833" lon="-98.732655">
        <ele>1941.0</ele>
        <time>2019-10-12T15:27:41.859Z</time>
      </trkpt>
      <trkpt lat="20.25454667" lon="-98.73262333">
        <ele>1940.0</ele>
        <time>2019-10-12T15:27:42.859Z</time>
      </trkpt>
      <trkpt lat="20.254545" lon="-98.73259833">
        <ele>1940.0</ele>
        <time>2019-10-12T15:27:43.859Z</time>
      </trkpt>
      <trkpt lat="20.25454667" lon="-98.73257">
        <ele>1940.0</ele>
        <time>2019-10-12T15:27:44.860Z</time>
      </trkpt>
      <trkpt lat="20.25455167" lon="-98.73253167">
        <ele>1938.0</ele>
        <time>2019-10-12T15:27:45.860Z</time>
      </trkpt>
      <trkpt lat="20.25456" lon="-98.73250333">
        <ele>1937.0</ele>
        <time>2019-10-12T15:27:46.860Z</time>
      </trkpt>
      <trkpt lat="20.25456333" lon="-98.73247">
        <ele>1936.0</ele>
        <time>2019-10-12T15:27:47.861Z</time>
      </trkpt>
      <trkpt lat="20.254575" lon="-98.73244167">
        <ele>1936.0</ele>
        <time>2019-10-12T15:27:48.864Z</time>
      </trkpt>
      <trkpt lat="20.25458667" lon="-98.73241">
        <ele>1936.0</ele>
        <time>2019-10-12T15:27:49.872Z</time>
      </trkpt>
      <trkpt lat="20.2546" lon="-98.73237833">
        <ele>1935.0</ele>
        <time>2019-10-12T15:27:50.878Z</time>
      </trkpt>
      <trkpt lat="20.25461167" lon="-98.73234833">
        <ele>1934.0</ele>
        <time>2019-10-12T15:27:51.885Z</time>
      </trkpt>
      <trkpt lat="20.25461667" lon="-98.732325">
        <ele>1935.0</ele>
        <time>2019-10-12T15:27:52.892Z</time>
      </trkpt>
      <trkpt lat="20.25461833" lon="-98.7323">
        <ele>1934.0</ele>
        <time>2019-10-12T15:27:53.898Z</time>
      </trkpt>
      <trkpt lat="20.25462167" lon="-98.73227167">
        <ele>1933.0</ele>
        <time>2019-10-12T15:27:54.904Z</time>
      </trkpt>
      <trkpt lat="20.25462167" lon="-98.73224833">
        <ele>1932.0</ele>
        <time>2019-10-12T15:27:55.907Z</time>
      </trkpt>
      <trkpt lat="20.25462333" lon="-98.73222167">
        <ele>1931.0</ele>
        <time>2019-10-12T15:27:56.912Z</time>
      </trkpt>
      <trkpt lat="20.25462833" lon="-98.73219667">
        <ele>1931.0</ele>
        <time>2019-10-12T15:27:57.917Z</time>
      </trkpt>
      <trkpt lat="20.25463167" lon="-98.73217667">
        <ele>1931.0</ele>
        <time>2019-10-12T15:27:58.923Z</time>
      </trkpt>
      <trkpt lat="20.25464333" lon="-98.73214833">
        <ele>1931.0</ele>
        <time>2019-10-12T15:27:59.925Z</time>
      </trkpt>
      <trkpt lat="20.254645" lon="-98.73212167">
        <ele>1931.0</ele>
        <time>2019-10-12T15:28:00.925Z</time>
      </trkpt>
      <trkpt lat="20.254645" lon="-98.7321">
        <ele>1931.0</ele>
        <time>2019-10-12T15:28:01.925Z</time>
      </trkpt>
      <trkpt lat="20.25464833" lon="-98.73208">
        <ele>1931.0</ele>
        <time>2019-10-12T15:28:02.926Z</time>
      </trkpt>
      <trkpt lat="20.254655" lon="-98.73206167">
        <ele>1931.0</ele>
        <time>2019-10-12T15:28:03.926Z</time>
      </trkpt>
      <trkpt lat="20.25466333" lon="-98.73203833">
        <ele>1930.0</ele>
        <time>2019-10-12T15:28:04.926Z</time>
      </trkpt>
      <trkpt lat="20.25466833" lon="-98.73201833">
        <ele>1930.0</ele>
        <time>2019-10-12T15:28:05.926Z</time>
      </trkpt>
      <trkpt lat="20.25467333" lon="-98.732">
        <ele>1930.0</ele>
        <time>2019-10-12T15:28:06.927Z</time>
      </trkpt>
      <trkpt lat="20.25468167" lon="-98.73198167">
        <ele>1930.0</ele>
        <time>2019-10-12T15:28:07.932Z</time>
      </trkpt>
      <trkpt lat="20.25469333" lon="-98.73195667">
        <ele>1929.0</ele>
        <time>2019-10-12T15:28:08.934Z</time>
      </trkpt>
      <trkpt lat="20.254705" lon="-98.73193333">
        <ele>1929.0</ele>
        <time>2019-10-12T15:28:09.940Z</time>
      </trkpt>
      <trkpt lat="20.25472" lon="-98.73191333">
        <ele>1929.0</ele>
        <time>2019-10-12T15:28:10.943Z</time>
      </trkpt>
      <trkpt lat="20.25474" lon="-98.73189">
        <ele>1928.0</ele>
        <time>2019-10-12T15:28:11.947Z</time>
      </trkpt>
      <trkpt lat="20.25475833" lon="-98.731875">
        <ele>1929.0</ele>
        <time>2019-10-12T15:28:12.950Z</time>
      </trkpt>
      <trkpt lat="20.25478" lon="-98.73185167">
        <ele>1929.0</ele>
        <time>2019-10-12T15:28:13.954Z</time>
      </trkpt>
      <trkpt lat="20.2548" lon="-98.73183333">
        <ele>1929.0</ele>
        <time>2019-10-12T15:28:14.834Z</time>
      </trkpt>
      <trkpt lat="20.25481667" lon="-98.73181333">
        <ele>1927.0</ele>
        <time>2019-10-12T15:28:15.837Z</time>
      </trkpt>
      <trkpt lat="20.25483667" lon="-98.731795">
        <ele>1925.0</ele>
        <time>2019-10-12T15:28:16.841Z</time>
      </trkpt>
      <trkpt lat="20.25485667" lon="-98.73177667">
        <ele>1924.0</ele>
        <time>2019-10-12T15:28:17.846Z</time>
      </trkpt>
      <trkpt lat="20.254875" lon="-98.73175833">
        <ele>1922.0</ele>
        <time>2019-10-12T15:28:18.851Z</time>
      </trkpt>
      <trkpt lat="20.254895" lon="-98.73174333">
        <ele>1921.0</ele>
        <time>2019-10-12T15:28:19.854Z</time>
      </trkpt>
      <trkpt lat="20.25491667" lon="-98.73172833">
        <ele>1920.0</ele>
        <time>2019-10-12T15:28:20.862Z</time>
      </trkpt>
      <trkpt lat="20.254935" lon="-98.73171833">
        <ele>1919.0</ele>
        <time>2019-10-12T15:28:21.867Z</time>
      </trkpt>
      <trkpt lat="20.25496167" lon="-98.7317">
        <ele>1918.0</ele>
        <time>2019-10-12T15:28:22.867Z</time>
      </trkpt>
      <trkpt lat="20.25498" lon="-98.73168667">
        <ele>1918.0</ele>
        <time>2019-10-12T15:28:23.867Z</time>
      </trkpt>
      <trkpt lat="20.25500167" lon="-98.73166333">
        <ele>1917.0</ele>
        <time>2019-10-12T15:28:24.867Z</time>
      </trkpt>
      <trkpt lat="20.25501833" lon="-98.73163833">
        <ele>1917.0</ele>
        <time>2019-10-12T15:28:25.868Z</time>
      </trkpt>
      <trkpt lat="20.25503" lon="-98.73161667">
        <ele>1917.0</ele>
        <time>2019-10-12T15:28:26.868Z</time>
      </trkpt>
      <trkpt lat="20.25505" lon="-98.73158667">
        <ele>1916.0</ele>
        <time>2019-10-12T15:28:27.868Z</time>
      </trkpt>
      <trkpt lat="20.25506333" lon="-98.73155833">
        <ele>1916.0</ele>
        <time>2019-10-12T15:28:28.868Z</time>
      </trkpt>
      <trkpt lat="20.25507667" lon="-98.73153">
        <ele>1916.0</ele>
        <time>2019-10-12T15:28:29.869Z</time>
      </trkpt>
      <trkpt lat="20.25508833" lon="-98.73150333">
        <ele>1916.0</ele>
        <time>2019-10-12T15:28:30.869Z</time>
      </trkpt>
      <trkpt lat="20.2551" lon="-98.73147833">
        <ele>1916.0</ele>
        <time>2019-10-12T15:28:31.869Z</time>
      </trkpt>
      <trkpt lat="20.25510333" lon="-98.73145333">
        <ele>1916.0</ele>
        <time>2019-10-12T15:28:32.869Z</time>
      </trkpt>
      <trkpt lat="20.25511" lon="-98.73142667">
        <ele>1915.0</ele>
        <time>2019-10-12T15:28:33.870Z</time>
      </trkpt>
      <trkpt lat="20.25512167" lon="-98.7314">
        <ele>1916.0</ele>
        <time>2019-10-12T15:28:34.870Z</time>
      </trkpt>
      <trkpt lat="20.25512667" lon="-98.73137333">
        <ele>1916.0</ele>
        <time>2019-10-12T15:28:35.870Z</time>
      </trkpt>
      <trkpt lat="20.255135" lon="-98.73134833">
        <ele>1916.0</ele>
        <time>2019-10-12T15:28:36.870Z</time>
      </trkpt>
      <trkpt lat="20.255145" lon="-98.73132333">
        <ele>1916.0</ele>
        <time>2019-10-12T15:28:37.870Z</time>
      </trkpt>
      <trkpt lat="20.25515333" lon="-98.7313">
        <ele>1916.0</ele>
        <time>2019-10-12T15:28:38.871Z</time>
      </trkpt>
      <trkpt lat="20.25516167" lon="-98.73127667">
        <ele>1916.0</ele>
        <time>2019-10-12T15:28:39.871Z</time>
      </trkpt>
      <trkpt lat="20.25517167" lon="-98.73125333">
        <ele>1915.0</ele>
        <time>2019-10-12T15:28:40.871Z</time>
      </trkpt>
      <trkpt lat="20.25518" lon="-98.73123">
        <ele>1916.0</ele>
        <time>2019-10-12T15:28:41.871Z</time>
      </trkpt>
      <trkpt lat="20.25518667" lon="-98.73120667">
        <ele>1916.0</ele>
        <time>2019-10-12T15:28:42.871Z</time>
      </trkpt>
      <trkpt lat="20.25519333" lon="-98.73118">
        <ele>1916.0</ele>
        <time>2019-10-12T15:28:43.872Z</time>
      </trkpt>
      <trkpt lat="20.25519833" lon="-98.731155">
        <ele>1916.0</ele>
        <time>2019-10-12T15:28:44.876Z</time>
      </trkpt>
      <trkpt lat="20.25520167" lon="-98.73113333">
        <ele>1916.0</ele>
        <time>2019-10-12T15:28:45.883Z</time>
      </trkpt>
      <trkpt lat="20.25520833" lon="-98.73110167">
        <ele>1917.0</ele>
        <time>2019-10-12T15:28:46.891Z</time>
      </trkpt>
      <trkpt lat="20.25521333" lon="-98.731075">
        <ele>1916.0</ele>
        <time>2019-10-12T15:28:47.897Z</time>
      </trkpt>
      <trkpt lat="20.255215" lon="-98.73105333">
        <ele>1916.0</ele>
        <time>2019-10-12T15:28:48.903Z</time>
      </trkpt>
      <trkpt lat="20.25521667" lon="-98.73102167">
        <ele>1916.0</ele>
        <time>2019-10-12T15:28:49.906Z</time>
      </trkpt>
      <trkpt lat="20.25521833" lon="-98.730995">
        <ele>1915.0</ele>
        <time>2019-10-12T15:28:50.913Z</time>
      </trkpt>
      <trkpt lat="20.25522333" lon="-98.73096667">
        <ele>1915.0</ele>
        <time>2019-10-12T15:28:51.918Z</time>
      </trkpt>
      <trkpt lat="20.25522667" lon="-98.730945">
        <ele>1915.0</ele>
        <time>2019-10-12T15:28:52.923Z</time>
      </trkpt>
      <trkpt lat="20.255235" lon="-98.730915">
        <ele>1915.0</ele>
        <time>2019-10-12T15:28:53.929Z</time>
      </trkpt>
      <trkpt lat="20.25523833" lon="-98.73088833">
        <ele>1915.0</ele>
        <time>2019-10-12T15:28:54.933Z</time>
      </trkpt>
      <trkpt lat="20.25524" lon="-98.730865">
        <ele>1915.0</ele>
        <time>2019-10-12T15:28:55.937Z</time>
      </trkpt>
      <trkpt lat="20.25524167" lon="-98.73084167">
        <ele>1915.0</ele>
        <time>2019-10-12T15:28:56.939Z</time>
      </trkpt>
      <trkpt lat="20.25524333" lon="-98.73082333">
        <ele>1915.0</ele>
        <time>2019-10-12T15:28:57.942Z</time>
      </trkpt>
      <trkpt lat="20.25524333" lon="-98.73079333">
        <ele>1915.0</ele>
        <time>2019-10-12T15:28:58.943Z</time>
      </trkpt>
      <trkpt lat="20.25524333" lon="-98.730765">
        <ele>1915.0</ele>
        <time>2019-10-12T15:28:59.946Z</time>
      </trkpt>
      <trkpt lat="20.25524167" lon="-98.73074">
        <ele>1913.0</ele>
        <time>2019-10-12T15:29:00.954Z</time>
      </trkpt>
      <trkpt lat="20.25524" lon="-98.730715">
        <ele>1913.0</ele>
        <time>2019-10-12T15:29:01.832Z</time>
      </trkpt>
      <trkpt lat="20.25523833" lon="-98.730695">
        <ele>1913.0</ele>
        <time>2019-10-12T15:29:02.834Z</time>
      </trkpt>
      <trkpt lat="20.25524333" lon="-98.730675">
        <ele>1913.0</ele>
        <time>2019-10-12T15:29:03.837Z</time>
      </trkpt>
      <trkpt lat="20.25524667" lon="-98.73065">
        <ele>1913.0</ele>
        <time>2019-10-12T15:29:04.838Z</time>
      </trkpt>
      <trkpt lat="20.255245" lon="-98.73062833">
        <ele>1912.0</ele>
        <time>2019-10-12T15:29:05.840Z</time>
      </trkpt>
      <trkpt lat="20.255235" lon="-98.73061">
        <ele>1911.0</ele>
        <time>2019-10-12T15:29:06.843Z</time>
      </trkpt>
      <trkpt lat="20.255225" lon="-98.73058833">
        <ele>1910.0</ele>
        <time>2019-10-12T15:29:07.845Z</time>
      </trkpt>
      <trkpt lat="20.25521333" lon="-98.73056333">
        <ele>1911.0</ele>
        <time>2019-10-12T15:29:08.849Z</time>
      </trkpt>
      <trkpt lat="20.25519833" lon="-98.73053833">
        <ele>1912.0</ele>
        <time>2019-10-12T15:29:09.852Z</time>
      </trkpt>
      <trkpt lat="20.25518" lon="-98.73051167">
        <ele>1912.0</ele>
        <time>2019-10-12T15:29:10.856Z</time>
      </trkpt>
      <trkpt lat="20.255165" lon="-98.73048833">
        <ele>1912.0</ele>
        <time>2019-10-12T15:29:11.862Z</time>
      </trkpt>
      <trkpt lat="20.255145" lon="-98.73046833">
        <ele>1912.0</ele>
        <time>2019-10-12T15:29:12.864Z</time>
      </trkpt>
      <trkpt lat="20.25511667" lon="-98.73045333">
        <ele>1912.0</ele>
        <time>2019-10-12T15:29:13.871Z</time>
      </trkpt>
      <trkpt lat="20.255095" lon="-98.73044">
        <ele>1912.0</ele>
        <time>2019-10-12T15:29:14.877Z</time>
      </trkpt>
      <trkpt lat="20.255075" lon="-98.73043">
        <ele>1912.0</ele>
        <time>2019-10-12T15:29:15.883Z</time>
      </trkpt>
      <trkpt lat="20.255055" lon="-98.73042">
        <ele>1911.0</ele>
        <time>2019-10-12T15:29:16.885Z</time>
      </trkpt>
      <trkpt lat="20.25503333" lon="-98.73040833">
        <ele>1911.0</ele>
        <time>2019-10-12T15:29:17.885Z</time>
      </trkpt>
      <trkpt lat="20.25502" lon="-98.73039">
        <ele>1911.0</ele>
        <time>2019-10-12T15:29:18.885Z</time>
      </trkpt>
      <trkpt lat="20.25501833" lon="-98.73036667">
        <ele>1910.0</ele>
        <time>2019-10-12T15:29:19.888Z</time>
      </trkpt>
      <trkpt lat="20.25502333" lon="-98.730345">
        <ele>1909.0</ele>
        <time>2019-10-12T15:29:20.896Z</time>
      </trkpt>
      <trkpt lat="20.25503167" lon="-98.73033">
        <ele>1908.0</ele>
        <time>2019-10-12T15:29:21.902Z</time>
      </trkpt>
      <trkpt lat="20.25503833" lon="-98.73031333">
        <ele>1909.0</ele>
        <time>2019-10-12T15:29:22.905Z</time>
      </trkpt>
      <trkpt lat="20.25504" lon="-98.73029167">
        <ele>1909.0</ele>
        <time>2019-10-12T15:29:23.907Z</time>
      </trkpt>
      <trkpt lat="20.25505" lon="-98.73027">
        <ele>1909.0</ele>
        <time>2019-10-12T15:29:24.911Z</time>
      </trkpt>
      <trkpt lat="20.25506333" lon="-98.73025">
        <ele>1910.0</ele>
        <time>2019-10-12T15:29:25.916Z</time>
      </trkpt>
      <trkpt lat="20.25507167" lon="-98.73023">
        <ele>1909.0</ele>
        <time>2019-10-12T15:29:26.922Z</time>
      </trkpt>
      <trkpt lat="20.25508333" lon="-98.73021333">
        <ele>1910.0</ele>
        <time>2019-10-12T15:29:27.929Z</time>
      </trkpt>
      <trkpt lat="20.25509667" lon="-98.730195">
        <ele>1909.0</ele>
        <time>2019-10-12T15:29:28.934Z</time>
      </trkpt>
      <trkpt lat="20.25511333" lon="-98.730175">
        <ele>1909.0</ele>
        <time>2019-10-12T15:29:29.939Z</time>
      </trkpt>
      <trkpt lat="20.25513" lon="-98.73015">
        <ele>1909.0</ele>
        <time>2019-10-12T15:29:30.945Z</time>
      </trkpt>
      <trkpt lat="20.25513667" lon="-98.730125">
        <ele>1908.0</ele>
        <time>2019-10-12T15:29:31.950Z</time>
      </trkpt>
      <trkpt lat="20.25514167" lon="-98.7301">
        <ele>1908.0</ele>
        <time>2019-10-12T15:29:32.951Z</time>
      </trkpt>
      <trkpt lat="20.25514833" lon="-98.73007667">
        <ele>1907.0</ele>
        <time>2019-10-12T15:29:33.952Z</time>
      </trkpt>
      <trkpt lat="20.25515333" lon="-98.73005333">
        <ele>1908.0</ele>
        <time>2019-10-12T15:29:34.952Z</time>
      </trkpt>
      <trkpt lat="20.25515833" lon="-98.73003167">
        <ele>1908.0</ele>
        <time>2019-10-12T15:29:35.952Z</time>
      </trkpt>
      <trkpt lat="20.25516333" lon="-98.73000833">
        <ele>1907.0</ele>
        <time>2019-10-12T15:29:36.954Z</time>
      </trkpt>
      <trkpt lat="20.25517333" lon="-98.72998833">
        <ele>1907.0</ele>
        <time>2019-10-12T15:29:37.835Z</time>
      </trkpt>
      <trkpt lat="20.25518667" lon="-98.729975">
        <ele>1906.0</ele>
        <time>2019-10-12T15:29:38.841Z</time>
      </trkpt>
      <trkpt lat="20.25520333" lon="-98.72996167">
        <ele>1905.0</ele>
        <time>2019-10-12T15:29:39.847Z</time>
      </trkpt>
      <trkpt lat="20.25521833" lon="-98.729945">
        <ele>1905.0</ele>
        <time>2019-10-12T15:29:40.851Z</time>
      </trkpt>
      <trkpt lat="20.25522833" lon="-98.729925">
        <ele>1905.0</ele>
        <time>2019-10-12T15:29:41.853Z</time>
      </trkpt>
      <trkpt lat="20.25523667" lon="-98.72990333">
        <ele>1904.0</ele>
        <time>2019-10-12T15:29:42.860Z</time>
      </trkpt>
      <trkpt lat="20.25523833" lon="-98.72987833">
        <ele>1904.0</ele>
        <time>2019-10-12T15:29:43.864Z</time>
      </trkpt>
      <trkpt lat="20.25523833" lon="-98.72985667">
        <ele>1903.0</ele>
        <time>2019-10-12T15:29:44.869Z</time>
      </trkpt>
      <trkpt lat="20.25524" lon="-98.72983333">
        <ele>1903.0</ele>
        <time>2019-10-12T15:29:45.876Z</time>
      </trkpt>
      <trkpt lat="20.25524" lon="-98.72981">
        <ele>1901.0</ele>
        <time>2019-10-12T15:29:46.883Z</time>
      </trkpt>
      <trkpt lat="20.25524333" lon="-98.72978833">
        <ele>1901.0</ele>
        <time>2019-10-12T15:29:47.888Z</time>
      </trkpt>
      <trkpt lat="20.25524333" lon="-98.72975833">
        <ele>1899.0</ele>
        <time>2019-10-12T15:29:48.894Z</time>
      </trkpt>
      <trkpt lat="20.25524333" lon="-98.72973167">
        <ele>1898.0</ele>
        <time>2019-10-12T15:29:49.898Z</time>
      </trkpt>
      <trkpt lat="20.255245" lon="-98.72970333">
        <ele>1897.0</ele>
        <time>2019-10-12T15:29:50.899Z</time>
      </trkpt>
      <trkpt lat="20.25525" lon="-98.72967667">
        <ele>1897.0</ele>
        <time>2019-10-12T15:29:51.900Z</time>
      </trkpt>
      <trkpt lat="20.25525" lon="-98.72965167">
        <ele>1896.0</ele>
        <time>2019-10-12T15:29:52.901Z</time>
      </trkpt>
      <trkpt lat="20.25525" lon="-98.72962333">
        <ele>1895.0</ele>
        <time>2019-10-12T15:29:53.902Z</time>
      </trkpt>
      <trkpt lat="20.25524667" lon="-98.729595">
        <ele>1894.0</ele>
        <time>2019-10-12T15:29:54.905Z</time>
      </trkpt>
      <trkpt lat="20.255245" lon="-98.72957">
        <ele>1894.0</ele>
        <time>2019-10-12T15:29:55.907Z</time>
      </trkpt>
      <trkpt lat="20.25524167" lon="-98.72954">
        <ele>1893.0</ele>
        <time>2019-10-12T15:29:56.911Z</time>
      </trkpt>
      <trkpt lat="20.25524167" lon="-98.72950667">
        <ele>1893.0</ele>
        <time>2019-10-12T15:29:57.914Z</time>
      </trkpt>
      <trkpt lat="20.25524333" lon="-98.72948167">
        <ele>1893.0</ele>
        <time>2019-10-12T15:29:58.917Z</time>
      </trkpt>
      <trkpt lat="20.25524833" lon="-98.72945833">
        <ele>1891.0</ele>
        <time>2019-10-12T15:29:59.921Z</time>
      </trkpt>
      <trkpt lat="20.25525833" lon="-98.72944167">
        <ele>1891.0</ele>
        <time>2019-10-12T15:30:00.926Z</time>
      </trkpt>
      <trkpt lat="20.25527167" lon="-98.72941167">
        <ele>1890.0</ele>
        <time>2019-10-12T15:30:01.931Z</time>
      </trkpt>
      <trkpt lat="20.25528167" lon="-98.72939">
        <ele>1890.0</ele>
        <time>2019-10-12T15:30:02.938Z</time>
      </trkpt>
      <trkpt lat="20.25529167" lon="-98.72936667">
        <ele>1890.0</ele>
        <time>2019-10-12T15:30:03.945Z</time>
      </trkpt>
      <trkpt lat="20.2553" lon="-98.72934333">
        <ele>1891.0</ele>
        <time>2019-10-12T15:30:04.949Z</time>
      </trkpt>
      <trkpt lat="20.255305" lon="-98.72932667">
        <ele>1891.0</ele>
        <time>2019-10-12T15:30:05.954Z</time>
      </trkpt>
      <trkpt lat="20.25530833" lon="-98.72930333">
        <ele>1891.0</ele>
        <time>2019-10-12T15:30:06.831Z</time>
      </trkpt>
      <trkpt lat="20.255305" lon="-98.72928">
        <ele>1891.0</ele>
        <time>2019-10-12T15:30:07.833Z</time>
      </trkpt>
      <trkpt lat="20.25531" lon="-98.72925833">
        <ele>1892.0</ele>
        <time>2019-10-12T15:30:08.838Z</time>
      </trkpt>
      <trkpt lat="20.25532167" lon="-98.729245">
        <ele>1891.0</ele>
        <time>2019-10-12T15:30:09.844Z</time>
      </trkpt>
      <trkpt lat="20.25534" lon="-98.72924">
        <ele>1891.0</ele>
        <time>2019-10-12T15:30:10.850Z</time>
      </trkpt>
      <trkpt lat="20.255355" lon="-98.72923833">
        <ele>1891.0</ele>
        <time>2019-10-12T15:30:11.851Z</time>
      </trkpt>
      <trkpt lat="20.25536667" lon="-98.72924">
        <ele>1891.0</ele>
        <time>2019-10-12T15:30:12.852Z</time>
      </trkpt>
      <trkpt lat="20.25538167" lon="-98.72924">
        <ele>1891.0</ele>
        <time>2019-10-12T15:30:13.853Z</time>
      </trkpt>
      <trkpt lat="20.25539167" lon="-98.72924333">
        <ele>1891.0</ele>
        <time>2019-10-12T15:30:14.854Z</time>
      </trkpt>
      <trkpt lat="20.25540333" lon="-98.72925167">
        <ele>1891.0</ele>
        <time>2019-10-12T15:30:15.854Z</time>
      </trkpt>
      <trkpt lat="20.25541667" lon="-98.72926167">
        <ele>1892.0</ele>
        <time>2019-10-12T15:30:16.856Z</time>
      </trkpt>
      <trkpt lat="20.25542167" lon="-98.72927">
        <ele>1892.0</ele>
        <time>2019-10-12T15:30:17.856Z</time>
      </trkpt>
      <trkpt lat="20.255425" lon="-98.72928333">
        <ele>1892.0</ele>
        <time>2019-10-12T15:30:18.856Z</time>
      </trkpt>
      <trkpt lat="20.255425" lon="-98.72930167">
        <ele>1892.0</ele>
        <time>2019-10-12T15:30:19.857Z</time>
      </trkpt>
      <trkpt lat="20.25542667" lon="-98.72932167">
        <ele>1893.0</ele>
        <time>2019-10-12T15:30:20.858Z</time>
      </trkpt>
      <trkpt lat="20.25543" lon="-98.72934333">
        <ele>1893.0</ele>
        <time>2019-10-12T15:30:21.859Z</time>
      </trkpt>
      <trkpt lat="20.25543167" lon="-98.72936">
        <ele>1894.0</ele>
        <time>2019-10-12T15:30:22.860Z</time>
      </trkpt>
      <trkpt lat="20.25543333" lon="-98.729375">
        <ele>1894.0</ele>
        <time>2019-10-12T15:30:23.861Z</time>
      </trkpt>
      <trkpt lat="20.25543833" lon="-98.729395">
        <ele>1894.0</ele>
        <time>2019-10-12T15:30:24.861Z</time>
      </trkpt>
      <trkpt lat="20.25544167" lon="-98.729415">
        <ele>1894.0</ele>
        <time>2019-10-12T15:30:25.862Z</time>
      </trkpt>
      <trkpt lat="20.25544833" lon="-98.72943333">
        <ele>1894.0</ele>
        <time>2019-10-12T15:30:26.863Z</time>
      </trkpt>
      <trkpt lat="20.255455" lon="-98.72945167">
        <ele>1894.0</ele>
        <time>2019-10-12T15:30:27.863Z</time>
      </trkpt>
      <trkpt lat="20.25547" lon="-98.72947">
        <ele>1894.0</ele>
        <time>2019-10-12T15:30:28.864Z</time>
      </trkpt>
      <trkpt lat="20.255485" lon="-98.72947833">
        <ele>1895.0</ele>
        <time>2019-10-12T15:30:29.864Z</time>
      </trkpt>
      <trkpt lat="20.25550167" lon="-98.72947667">
        <ele>1895.0</ele>
        <time>2019-10-12T15:30:30.865Z</time>
      </trkpt>
      <trkpt lat="20.25551" lon="-98.729465">
        <ele>1895.0</ele>
        <time>2019-10-12T15:30:31.866Z</time>
      </trkpt>
      <trkpt lat="20.255515" lon="-98.729455">
        <ele>1895.0</ele>
        <time>2019-10-12T15:30:32.866Z</time>
      </trkpt>
      <trkpt lat="20.25552667" lon="-98.72944167">
        <ele>1895.0</ele>
        <time>2019-10-12T15:30:33.867Z</time>
      </trkpt>
      <trkpt lat="20.25553833" lon="-98.72943167">
        <ele>1895.0</ele>
        <time>2019-10-12T15:30:34.868Z</time>
      </trkpt>
      <trkpt lat="20.25555" lon="-98.72942">
        <ele>1895.0</ele>
        <time>2019-10-12T15:30:35.869Z</time>
      </trkpt>
      <trkpt lat="20.25556167" lon="-98.72941">
        <ele>1895.0</ele>
        <time>2019-10-12T15:30:36.870Z</time>
      </trkpt>
      <trkpt lat="20.255575" lon="-98.72940667">
        <ele>1895.0</ele>
        <time>2019-10-12T15:30:37.870Z</time>
      </trkpt>
      <trkpt lat="20.25559" lon="-98.72940667">
        <ele>1894.0</ele>
        <time>2019-10-12T15:30:38.871Z</time>
      </trkpt>
      <trkpt lat="20.255595" lon="-98.729415">
        <ele>1894.0</ele>
        <time>2019-10-12T15:30:39.872Z</time>
      </trkpt>
      <trkpt lat="20.2556" lon="-98.72941833">
        <ele>1895.0</ele>
        <time>2019-10-12T15:30:40.872Z</time>
      </trkpt>
      <trkpt lat="20.25560667" lon="-98.72942167">
        <ele>1895.0</ele>
        <time>2019-10-12T15:30:41.873Z</time>
      </trkpt>
      <trkpt lat="20.25561167" lon="-98.72942667">
        <ele>1896.0</ele>
        <time>2019-10-12T15:30:42.874Z</time>
      </trkpt>
      <trkpt lat="20.255615" lon="-98.72943667">
        <ele>1897.0</ele>
        <time>2019-10-12T15:30:43.875Z</time>
      </trkpt>
      <trkpt lat="20.255615" lon="-98.72945167">
        <ele>1899.0</ele>
        <time>2019-10-12T15:30:44.875Z</time>
      </trkpt>
      <trkpt lat="20.25561667" lon="-98.72947167">
        <ele>1899.0</ele>
        <time>2019-10-12T15:30:45.876Z</time>
      </trkpt>
      <trkpt lat="20.25562167" lon="-98.72949167">
        <ele>1899.0</ele>
        <time>2019-10-12T15:30:46.877Z</time>
      </trkpt>
      <trkpt lat="20.25562667" lon="-98.729515">
        <ele>1899.0</ele>
        <time>2019-10-12T15:30:47.878Z</time>
      </trkpt>
      <trkpt lat="20.25563" lon="-98.729535">
        <ele>1899.0</ele>
        <time>2019-10-12T15:30:48.879Z</time>
      </trkpt>
      <trkpt lat="20.255635" lon="-98.72955333">
        <ele>1900.0</ele>
        <time>2019-10-12T15:30:49.879Z</time>
      </trkpt>
      <trkpt lat="20.25563833" lon="-98.729575">
        <ele>1900.0</ele>
        <time>2019-10-12T15:30:50.880Z</time>
      </trkpt>
      <trkpt lat="20.25564333" lon="-98.729595">
        <ele>1900.0</ele>
        <time>2019-10-12T15:30:51.881Z</time>
      </trkpt>
      <trkpt lat="20.25564833" lon="-98.729615">
        <ele>1901.0</ele>
        <time>2019-10-12T15:30:52.882Z</time>
      </trkpt>
      <trkpt lat="20.255655" lon="-98.729635">
        <ele>1900.0</ele>
        <time>2019-10-12T15:30:53.883Z</time>
      </trkpt>
      <trkpt lat="20.25566" lon="-98.72965333">
        <ele>1901.0</ele>
        <time>2019-10-12T15:30:54.884Z</time>
      </trkpt>
      <trkpt lat="20.25566833" lon="-98.72967">
        <ele>1901.0</ele>
        <time>2019-10-12T15:30:55.885Z</time>
      </trkpt>
      <trkpt lat="20.25567667" lon="-98.729685">
        <ele>1900.0</ele>
        <time>2019-10-12T15:30:56.889Z</time>
      </trkpt>
      <trkpt lat="20.25569" lon="-98.72970333">
        <ele>1900.0</ele>
        <time>2019-10-12T15:30:57.892Z</time>
      </trkpt>
      <trkpt lat="20.25569667" lon="-98.72971333">
        <ele>1900.0</ele>
        <time>2019-10-12T15:30:58.898Z</time>
      </trkpt>
      <trkpt lat="20.25571167" lon="-98.72972833">
        <ele>1899.0</ele>
        <time>2019-10-12T15:30:59.905Z</time>
      </trkpt>
      <trkpt lat="20.25572833" lon="-98.72974167">
        <ele>1899.0</ele>
        <time>2019-10-12T15:31:00.909Z</time>
      </trkpt>
      <trkpt lat="20.25574" lon="-98.72975167">
        <ele>1899.0</ele>
        <time>2019-10-12T15:31:01.912Z</time>
      </trkpt>
      <trkpt lat="20.25574667" lon="-98.72977">
        <ele>1899.0</ele>
        <time>2019-10-12T15:31:02.917Z</time>
      </trkpt>
      <trkpt lat="20.25575" lon="-98.72978833">
        <ele>1899.0</ele>
        <time>2019-10-12T15:31:03.924Z</time>
      </trkpt>
      <trkpt lat="20.25575" lon="-98.72981">
        <ele>1899.0</ele>
        <time>2019-10-12T15:31:04.930Z</time>
      </trkpt>
      <trkpt lat="20.25575" lon="-98.72983333">
        <ele>1898.0</ele>
        <time>2019-10-12T15:31:05.936Z</time>
      </trkpt>
      <trkpt lat="20.25574833" lon="-98.72985667">
        <ele>1898.0</ele>
        <time>2019-10-12T15:31:06.941Z</time>
      </trkpt>
      <trkpt lat="20.25575167" lon="-98.72988167">
        <ele>1898.0</ele>
        <time>2019-10-12T15:31:07.944Z</time>
      </trkpt>
      <trkpt lat="20.25575667" lon="-98.72990667">
        <ele>1898.0</ele>
        <time>2019-10-12T15:31:08.946Z</time>
      </trkpt>
      <trkpt lat="20.25576167" lon="-98.72993167">
        <ele>1898.0</ele>
        <time>2019-10-12T15:31:09.950Z</time>
      </trkpt>
      <trkpt lat="20.25576667" lon="-98.72995333">
        <ele>1898.0</ele>
        <time>2019-10-12T15:31:10.832Z</time>
      </trkpt>
      <trkpt lat="20.25577167" lon="-98.72997333">
        <ele>1899.0</ele>
        <time>2019-10-12T15:31:11.834Z</time>
      </trkpt>
      <trkpt lat="20.255775" lon="-98.72998833">
        <ele>1899.0</ele>
        <time>2019-10-12T15:31:12.835Z</time>
      </trkpt>
      <trkpt lat="20.25577833" lon="-98.73000667">
        <ele>1899.0</ele>
        <time>2019-10-12T15:31:13.835Z</time>
      </trkpt>
      <trkpt lat="20.25578167" lon="-98.73002833">
        <ele>1900.0</ele>
        <time>2019-10-12T15:31:14.836Z</time>
      </trkpt>
      <trkpt lat="20.25578333" lon="-98.73005333">
        <ele>1900.0</ele>
        <time>2019-10-12T15:31:15.837Z</time>
      </trkpt>
      <trkpt lat="20.25578333" lon="-98.73007">
        <ele>1900.0</ele>
        <time>2019-10-12T15:31:16.838Z</time>
      </trkpt>
      <trkpt lat="20.25578833" lon="-98.73009167">
        <ele>1900.0</ele>
        <time>2019-10-12T15:31:17.839Z</time>
      </trkpt>
      <trkpt lat="20.25579333" lon="-98.73011">
        <ele>1901.0</ele>
        <time>2019-10-12T15:31:18.839Z</time>
      </trkpt>
      <trkpt lat="20.25579667" lon="-98.73013167">
        <ele>1901.0</ele>
        <time>2019-10-12T15:31:19.840Z</time>
      </trkpt>
      <trkpt lat="20.25580833" lon="-98.73015167">
        <ele>1901.0</ele>
        <time>2019-10-12T15:31:20.841Z</time>
      </trkpt>
      <trkpt lat="20.25582667" lon="-98.73016333">
        <ele>1901.0</ele>
        <time>2019-10-12T15:31:21.841Z</time>
      </trkpt>
      <trkpt lat="20.25584333" lon="-98.730175">
        <ele>1900.0</ele>
        <time>2019-10-12T15:31:22.842Z</time>
      </trkpt>
      <trkpt lat="20.25586167" lon="-98.73018">
        <ele>1899.0</ele>
        <time>2019-10-12T15:31:23.843Z</time>
      </trkpt>
      <trkpt lat="20.25588333" lon="-98.730185">
        <ele>1898.0</ele>
        <time>2019-10-12T15:31:24.844Z</time>
      </trkpt>
      <trkpt lat="20.255905" lon="-98.73018667">
        <ele>1898.0</ele>
        <time>2019-10-12T15:31:25.845Z</time>
      </trkpt>
      <trkpt lat="20.25592833" lon="-98.73019167">
        <ele>1897.0</ele>
        <time>2019-10-12T15:31:26.845Z</time>
      </trkpt>
      <trkpt lat="20.25594667" lon="-98.73020167">
        <ele>1897.0</ele>
        <time>2019-10-12T15:31:27.846Z</time>
      </trkpt>
      <trkpt lat="20.255965" lon="-98.73021167">
        <ele>1897.0</ele>
        <time>2019-10-12T15:31:28.847Z</time>
      </trkpt>
      <trkpt lat="20.255985" lon="-98.73022667">
        <ele>1896.0</ele>
        <time>2019-10-12T15:31:29.848Z</time>
      </trkpt>
      <trkpt lat="20.25600167" lon="-98.73024333">
        <ele>1895.0</ele>
        <time>2019-10-12T15:31:30.850Z</time>
      </trkpt>
      <trkpt lat="20.256015" lon="-98.73025667">
        <ele>1895.0</ele>
        <time>2019-10-12T15:31:31.856Z</time>
      </trkpt>
      <trkpt lat="20.25602667" lon="-98.730275">
        <ele>1894.0</ele>
        <time>2019-10-12T15:31:32.859Z</time>
      </trkpt>
      <trkpt lat="20.256045" lon="-98.730295">
        <ele>1894.0</ele>
        <time>2019-10-12T15:31:33.863Z</time>
      </trkpt>
      <trkpt lat="20.25606167" lon="-98.73030833">
        <ele>1893.0</ele>
        <time>2019-10-12T15:31:34.870Z</time>
      </trkpt>
      <trkpt lat="20.256075" lon="-98.73032333">
        <ele>1892.0</ele>
        <time>2019-10-12T15:31:35.874Z</time>
      </trkpt>
      <trkpt lat="20.25609667" lon="-98.73033833">
        <ele>1891.0</ele>
        <time>2019-10-12T15:31:36.881Z</time>
      </trkpt>
      <trkpt lat="20.25611333" lon="-98.73034167">
        <ele>1891.0</ele>
        <time>2019-10-12T15:31:37.888Z</time>
      </trkpt>
      <trkpt lat="20.256135" lon="-98.73034167">
        <ele>1890.0</ele>
        <time>2019-10-12T15:31:38.894Z</time>
      </trkpt>
      <trkpt lat="20.25615" lon="-98.73034167">
        <ele>1890.0</ele>
        <time>2019-10-12T15:31:39.899Z</time>
      </trkpt>
      <trkpt lat="20.25616667" lon="-98.73035">
        <ele>1889.0</ele>
        <time>2019-10-12T15:31:40.904Z</time>
      </trkpt>
      <trkpt lat="20.25618167" lon="-98.730365">
        <ele>1889.0</ele>
        <time>2019-10-12T15:31:41.912Z</time>
      </trkpt>
      <trkpt lat="20.25618833" lon="-98.73037333">
        <ele>1889.0</ele>
        <time>2019-10-12T15:31:42.918Z</time>
      </trkpt>
      <trkpt lat="20.25619667" lon="-98.73038833">
        <ele>1889.0</ele>
        <time>2019-10-12T15:31:43.921Z</time>
      </trkpt>
      <trkpt lat="20.25621" lon="-98.73040167">
        <ele>1888.0</ele>
        <time>2019-10-12T15:31:44.922Z</time>
      </trkpt>
      <trkpt lat="20.25622167" lon="-98.73042">
        <ele>1887.0</ele>
        <time>2019-10-12T15:31:45.923Z</time>
      </trkpt>
      <trkpt lat="20.256235" lon="-98.73043833">
        <ele>1886.0</ele>
        <time>2019-10-12T15:31:46.924Z</time>
      </trkpt>
      <trkpt lat="20.25624833" lon="-98.730455">
        <ele>1885.0</ele>
        <time>2019-10-12T15:31:47.929Z</time>
      </trkpt>
      <trkpt lat="20.25626167" lon="-98.73047167">
        <ele>1885.0</ele>
        <time>2019-10-12T15:31:48.935Z</time>
      </trkpt>
      <trkpt lat="20.25627" lon="-98.73048833">
        <ele>1885.0</ele>
        <time>2019-10-12T15:31:49.937Z</time>
      </trkpt>
      <trkpt lat="20.25628" lon="-98.73050167">
        <ele>1884.0</ele>
        <time>2019-10-12T15:31:50.944Z</time>
      </trkpt>
      <trkpt lat="20.25629167" lon="-98.73052">
        <ele>1884.0</ele>
        <time>2019-10-12T15:31:51.948Z</time>
      </trkpt>
      <trkpt lat="20.25630333" lon="-98.73053">
        <ele>1883.0</ele>
        <time>2019-10-12T15:31:52.949Z</time>
      </trkpt>
      <trkpt lat="20.25632" lon="-98.73053833">
        <ele>1882.0</ele>
        <time>2019-10-12T15:31:53.951Z</time>
      </trkpt>
      <trkpt lat="20.25634167" lon="-98.730545">
        <ele>1881.0</ele>
        <time>2019-10-12T15:31:54.832Z</time>
      </trkpt>
      <trkpt lat="20.25636167" lon="-98.73055">
        <ele>1881.0</ele>
        <time>2019-10-12T15:31:55.837Z</time>
      </trkpt>
      <trkpt lat="20.25638" lon="-98.73055">
        <ele>1880.0</ele>
        <time>2019-10-12T15:31:56.842Z</time>
      </trkpt>
      <trkpt lat="20.2564" lon="-98.73055">
        <ele>1881.0</ele>
        <time>2019-10-12T15:31:57.847Z</time>
      </trkpt>
      <trkpt lat="20.256415" lon="-98.73054833">
        <ele>1881.0</ele>
        <time>2019-10-12T15:31:58.851Z</time>
      </trkpt>
      <trkpt lat="20.25643167" lon="-98.730545">
        <ele>1881.0</ele>
        <time>2019-10-12T15:31:59.855Z</time>
      </trkpt>
      <trkpt lat="20.25645" lon="-98.73054">
        <ele>1881.0</ele>
        <time>2019-10-12T15:32:00.860Z</time>
      </trkpt>
      <trkpt lat="20.256465" lon="-98.73053833">
        <ele>1881.0</ele>
        <time>2019-10-12T15:32:01.866Z</time>
      </trkpt>
      <trkpt lat="20.25647833" lon="-98.73054">
        <ele>1881.0</ele>
        <time>2019-10-12T15:32:02.871Z</time>
      </trkpt>
      <trkpt lat="20.25648833" lon="-98.73054667">
        <ele>1881.0</ele>
        <time>2019-10-12T15:32:03.874Z</time>
      </trkpt>
      <trkpt lat="20.25649667" lon="-98.73056">
        <ele>1881.0</ele>
        <time>2019-10-12T15:32:04.875Z</time>
      </trkpt>
      <trkpt lat="20.25650167" lon="-98.73057333">
        <ele>1881.0</ele>
        <time>2019-10-12T15:32:05.881Z</time>
      </trkpt>
      <trkpt lat="20.25651167" lon="-98.73058667">
        <ele>1881.0</ele>
        <time>2019-10-12T15:32:06.888Z</time>
      </trkpt>
      <trkpt lat="20.25651833" lon="-98.73060333">
        <ele>1881.0</ele>
        <time>2019-10-12T15:32:07.893Z</time>
      </trkpt>
      <trkpt lat="20.25652333" lon="-98.73062333">
        <ele>1881.0</ele>
        <time>2019-10-12T15:32:08.899Z</time>
      </trkpt>
      <trkpt lat="20.25652667" lon="-98.73064333">
        <ele>1881.0</ele>
        <time>2019-10-12T15:32:09.905Z</time>
      </trkpt>
      <trkpt lat="20.25653167" lon="-98.73066333">
        <ele>1882.0</ele>
        <time>2019-10-12T15:32:10.910Z</time>
      </trkpt>
      <trkpt lat="20.25653833" lon="-98.73068">
        <ele>1882.0</ele>
        <time>2019-10-12T15:32:11.916Z</time>
      </trkpt>
      <trkpt lat="20.25654833" lon="-98.73069167">
        <ele>1883.0</ele>
        <time>2019-10-12T15:32:12.921Z</time>
      </trkpt>
      <trkpt lat="20.25656" lon="-98.730705">
        <ele>1883.0</ele>
        <time>2019-10-12T15:32:13.926Z</time>
      </trkpt>
      <trkpt lat="20.25657" lon="-98.73072">
        <ele>1883.0</ele>
        <time>2019-10-12T15:32:14.929Z</time>
      </trkpt>
      <trkpt lat="20.25657833" lon="-98.73073833">
        <ele>1883.0</ele>
        <time>2019-10-12T15:32:15.935Z</time>
      </trkpt>
      <trkpt lat="20.25659" lon="-98.730755">
        <ele>1883.0</ele>
        <time>2019-10-12T15:32:16.942Z</time>
      </trkpt>
      <trkpt lat="20.25660333" lon="-98.73077333">
        <ele>1883.0</ele>
        <time>2019-10-12T15:32:17.947Z</time>
      </trkpt>
      <trkpt lat="20.25661333" lon="-98.73079667">
        <ele>1883.0</ele>
        <time>2019-10-12T15:32:18.948Z</time>
      </trkpt>
      <trkpt lat="20.256625" lon="-98.73082">
        <ele>1882.0</ele>
        <time>2019-10-12T15:32:19.949Z</time>
      </trkpt>
      <trkpt lat="20.25663833" lon="-98.73084">
        <ele>1882.0</ele>
        <time>2019-10-12T15:32:20.949Z</time>
      </trkpt>
      <trkpt lat="20.25665333" lon="-98.730855">
        <ele>1882.0</ele>
        <time>2019-10-12T15:32:21.950Z</time>
      </trkpt>
      <trkpt lat="20.25667" lon="-98.73086667">
        <ele>1882.0</ele>
        <time>2019-10-12T15:32:22.951Z</time>
      </trkpt>
      <trkpt lat="20.25668833" lon="-98.73087167">
        <ele>1882.0</ele>
        <time>2019-10-12T15:32:23.952Z</time>
      </trkpt>
      <trkpt lat="20.25670667" lon="-98.73087667">
        <ele>1882.0</ele>
        <time>2019-10-12T15:32:24.952Z</time>
      </trkpt>
      <trkpt lat="20.25672667" lon="-98.73088167">
        <ele>1882.0</ele>
        <time>2019-10-12T15:32:25.953Z</time>
      </trkpt>
      <trkpt lat="20.25674" lon="-98.73088167">
        <ele>1882.0</ele>
        <time>2019-10-12T15:32:26.954Z</time>
      </trkpt>
      <trkpt lat="20.25675833" lon="-98.73087333">
        <ele>1882.0</ele>
        <time>2019-10-12T15:32:27.830Z</time>
      </trkpt>
      <trkpt lat="20.25677333" lon="-98.73086333">
        <ele>1883.0</ele>
        <time>2019-10-12T15:32:28.830Z</time>
      </trkpt>
      <trkpt lat="20.25678833" lon="-98.73085333">
        <ele>1884.0</ele>
        <time>2019-10-12T15:32:29.831Z</time>
      </trkpt>
      <trkpt lat="20.25679833" lon="-98.73085">
        <ele>1884.0</ele>
        <time>2019-10-12T15:32:30.832Z</time>
      </trkpt>
      <trkpt lat="20.25681833" lon="-98.73084">
        <ele>1885.0</ele>
        <time>2019-10-12T15:32:31.833Z</time>
      </trkpt>
      <trkpt lat="20.25683" lon="-98.73082833">
        <ele>1885.0</ele>
        <time>2019-10-12T15:32:32.834Z</time>
      </trkpt>
      <trkpt lat="20.25684333" lon="-98.730815">
        <ele>1886.0</ele>
        <time>2019-10-12T15:32:33.835Z</time>
      </trkpt>
      <trkpt lat="20.25685667" lon="-98.73080833">
        <ele>1886.0</ele>
        <time>2019-10-12T15:32:34.835Z</time>
      </trkpt>
      <trkpt lat="20.25687" lon="-98.73080833">
        <ele>1886.0</ele>
        <time>2019-10-12T15:32:35.836Z</time>
      </trkpt>
      <trkpt lat="20.25688333" lon="-98.73081167">
        <ele>1886.0</ele>
        <time>2019-10-12T15:32:36.837Z</time>
      </trkpt>
      <trkpt lat="20.25689167" lon="-98.73082333">
        <ele>1888.0</ele>
        <time>2019-10-12T15:32:37.838Z</time>
      </trkpt>
      <trkpt lat="20.25689333" lon="-98.73084167">
        <ele>1888.0</ele>
        <time>2019-10-12T15:32:38.839Z</time>
      </trkpt>
      <trkpt lat="20.25689" lon="-98.73085667">
        <ele>1889.0</ele>
        <time>2019-10-12T15:32:39.839Z</time>
      </trkpt>
      <trkpt lat="20.25688833" lon="-98.73088">
        <ele>1890.0</ele>
        <time>2019-10-12T15:32:40.847Z</time>
      </trkpt>
      <trkpt lat="20.25688833" lon="-98.73089833">
        <ele>1890.0</ele>
        <time>2019-10-12T15:32:41.855Z</time>
      </trkpt>
      <trkpt lat="20.256885" lon="-98.73091833">
        <ele>1890.0</ele>
        <time>2019-10-12T15:32:42.858Z</time>
      </trkpt>
      <trkpt lat="20.25688" lon="-98.730935">
        <ele>1890.0</ele>
        <time>2019-10-12T15:32:43.863Z</time>
      </trkpt>
      <trkpt lat="20.25687" lon="-98.73094667">
        <ele>1890.0</ele>
        <time>2019-10-12T15:32:44.866Z</time>
      </trkpt>
      <trkpt lat="20.25686167" lon="-98.730965">
        <ele>1891.0</ele>
        <time>2019-10-12T15:32:45.872Z</time>
      </trkpt>
      <trkpt lat="20.25685667" lon="-98.73098833">
        <ele>1891.0</ele>
        <time>2019-10-12T15:32:46.878Z</time>
      </trkpt>
      <trkpt lat="20.25685833" lon="-98.731015">
        <ele>1892.0</ele>
        <time>2019-10-12T15:32:47.884Z</time>
      </trkpt>
      <trkpt lat="20.25686333" lon="-98.73104167">
        <ele>1893.0</ele>
        <time>2019-10-12T15:32:48.889Z</time>
      </trkpt>
      <trkpt lat="20.25687167" lon="-98.73106333">
        <ele>1893.0</ele>
        <time>2019-10-12T15:32:49.891Z</time>
      </trkpt>
      <trkpt lat="20.25688167" lon="-98.73108">
        <ele>1893.0</ele>
        <time>2019-10-12T15:32:50.897Z</time>
      </trkpt>
      <trkpt lat="20.25689167" lon="-98.731095">
        <ele>1894.0</ele>
        <time>2019-10-12T15:32:51.903Z</time>
      </trkpt>
      <trkpt lat="20.25690333" lon="-98.73110833">
        <ele>1894.0</ele>
        <time>2019-10-12T15:32:52.907Z</time>
      </trkpt>
      <trkpt lat="20.25691667" lon="-98.73112333">
        <ele>1894.0</ele>
        <time>2019-10-12T15:32:53.911Z</time>
      </trkpt>
      <trkpt lat="20.25693" lon="-98.73114167">
        <ele>1894.0</ele>
        <time>2019-10-12T15:32:54.914Z</time>
      </trkpt>
      <trkpt lat="20.25694167" lon="-98.73115833">
        <ele>1895.0</ele>
        <time>2019-10-12T15:32:55.915Z</time>
      </trkpt>
      <trkpt lat="20.25694667" lon="-98.731175">
        <ele>1895.0</ele>
        <time>2019-10-12T15:32:56.919Z</time>
      </trkpt>
      <trkpt lat="20.256945" lon="-98.731185">
        <ele>1894.0</ele>
        <time>2019-10-12T15:32:57.926Z</time>
      </trkpt>
      <trkpt lat="20.25690333" lon="-98.73128667">
        <ele>1898.0</ele>
        <time>2019-10-12T15:32:59.935Z</time>
      </trkpt>
      <trkpt lat="20.25691" lon="-98.73129833">
        <ele>1898.0</ele>
        <time>2019-10-12T15:33:00.939Z</time>
      </trkpt>
      <trkpt lat="20.25691333" lon="-98.73130333">
        <ele>1898.0</ele>
        <time>2019-10-12T15:33:01.946Z</time>
      </trkpt>
      <trkpt lat="20.25691833" lon="-98.73131333">
        <ele>1898.0</ele>
        <time>2019-10-12T15:33:02.950Z</time>
      </trkpt>
      <trkpt lat="20.25692333" lon="-98.731325">
        <ele>1899.0</ele>
        <time>2019-10-12T15:33:03.831Z</time>
      </trkpt>
      <trkpt lat="20.25692833" lon="-98.73133">
        <ele>1899.0</ele>
        <time>2019-10-12T15:33:04.837Z</time>
      </trkpt>
      <trkpt lat="20.25693167" lon="-98.73134">
        <ele>1900.0</ele>
        <time>2019-10-12T15:33:05.839Z</time>
      </trkpt>
      <trkpt lat="20.25693333" lon="-98.73135167">
        <ele>1900.0</ele>
        <time>2019-10-12T15:33:06.842Z</time>
      </trkpt>
      <trkpt lat="20.25693333" lon="-98.73136333">
        <ele>1900.0</ele>
        <time>2019-10-12T15:33:07.847Z</time>
      </trkpt>
      <trkpt lat="20.25693333" lon="-98.73137667">
        <ele>1900.0</ele>
        <time>2019-10-12T15:33:08.854Z</time>
      </trkpt>
      <trkpt lat="20.256935" lon="-98.73139">
        <ele>1900.0</ele>
        <time>2019-10-12T15:33:09.862Z</time>
      </trkpt>
      <trkpt lat="20.256935" lon="-98.73140667">
        <ele>1900.0</ele>
        <time>2019-10-12T15:33:10.865Z</time>
      </trkpt>
      <trkpt lat="20.25693333" lon="-98.731425">
        <ele>1900.0</ele>
        <time>2019-10-12T15:33:11.866Z</time>
      </trkpt>
      <trkpt lat="20.25693167" lon="-98.731445">
        <ele>1900.0</ele>
        <time>2019-10-12T15:33:12.867Z</time>
      </trkpt>
      <trkpt lat="20.25693333" lon="-98.73146333">
        <ele>1900.0</ele>
        <time>2019-10-12T15:33:13.867Z</time>
      </trkpt>
      <trkpt lat="20.25693833" lon="-98.73148667">
        <ele>1900.0</ele>
        <time>2019-10-12T15:33:14.873Z</time>
      </trkpt>
      <trkpt lat="20.25694833" lon="-98.73150833">
        <ele>1900.0</ele>
        <time>2019-10-12T15:33:15.877Z</time>
      </trkpt>
      <trkpt lat="20.25696" lon="-98.73152833">
        <ele>1900.0</ele>
        <time>2019-10-12T15:33:16.882Z</time>
      </trkpt>
      <trkpt lat="20.25697167" lon="-98.73154333">
        <ele>1900.0</ele>
        <time>2019-10-12T15:33:17.887Z</time>
      </trkpt>
      <trkpt lat="20.25698333" lon="-98.731555">
        <ele>1900.0</ele>
        <time>2019-10-12T15:33:18.893Z</time>
      </trkpt>
      <trkpt lat="20.25700333" lon="-98.731565">
        <ele>1900.0</ele>
        <time>2019-10-12T15:33:19.897Z</time>
      </trkpt>
      <trkpt lat="20.25702167" lon="-98.73157">
        <ele>1899.0</ele>
        <time>2019-10-12T15:33:20.898Z</time>
      </trkpt>
      <trkpt lat="20.257035" lon="-98.73157333">
        <ele>1899.0</ele>
        <time>2019-10-12T15:33:21.899Z</time>
      </trkpt>
      <trkpt lat="20.25705167" lon="-98.73158">
        <ele>1899.0</ele>
        <time>2019-10-12T15:33:22.903Z</time>
      </trkpt>
      <trkpt lat="20.25707" lon="-98.73158333">
        <ele>1899.0</ele>
        <time>2019-10-12T15:33:23.908Z</time>
      </trkpt>
      <trkpt lat="20.25709" lon="-98.73158667">
        <ele>1899.0</ele>
        <time>2019-10-12T15:33:24.915Z</time>
      </trkpt>
      <trkpt lat="20.25710833" lon="-98.73159333">
        <ele>1899.0</ele>
        <time>2019-10-12T15:33:25.917Z</time>
      </trkpt>
      <trkpt lat="20.25712667" lon="-98.73159833">
        <ele>1900.0</ele>
        <time>2019-10-12T15:33:26.917Z</time>
      </trkpt>
      <trkpt lat="20.25714167" lon="-98.73160333">
        <ele>1900.0</ele>
        <time>2019-10-12T15:33:27.918Z</time>
      </trkpt>
      <trkpt lat="20.257165" lon="-98.73161167">
        <ele>1900.0</ele>
        <time>2019-10-12T15:33:28.919Z</time>
      </trkpt>
      <trkpt lat="20.25718167" lon="-98.73161667">
        <ele>1900.0</ele>
        <time>2019-10-12T15:33:29.920Z</time>
      </trkpt>
      <trkpt lat="20.25720167" lon="-98.73161833">
        <ele>1899.0</ele>
        <time>2019-10-12T15:33:30.921Z</time>
      </trkpt>
      <trkpt lat="20.25722167" lon="-98.73162167">
        <ele>1898.0</ele>
        <time>2019-10-12T15:33:31.926Z</time>
      </trkpt>
      <trkpt lat="20.25723833" lon="-98.731625">
        <ele>1898.0</ele>
        <time>2019-10-12T15:33:32.933Z</time>
      </trkpt>
      <trkpt lat="20.25725333" lon="-98.73164">
        <ele>1898.0</ele>
        <time>2019-10-12T15:33:33.937Z</time>
      </trkpt>
      <trkpt lat="20.25726" lon="-98.73165833">
        <ele>1898.0</ele>
        <time>2019-10-12T15:33:34.939Z</time>
      </trkpt>
      <trkpt lat="20.25726" lon="-98.731675">
        <ele>1898.0</ele>
        <time>2019-10-12T15:33:35.946Z</time>
      </trkpt>
      <trkpt lat="20.25725667" lon="-98.731695">
        <ele>1899.0</ele>
        <time>2019-10-12T15:33:36.952Z</time>
      </trkpt>
      <trkpt lat="20.257255" lon="-98.731715">
        <ele>1900.0</ele>
        <time>2019-10-12T15:33:37.832Z</time>
      </trkpt>
      <trkpt lat="20.25725667" lon="-98.731735">
        <ele>1900.0</ele>
        <time>2019-10-12T15:33:38.837Z</time>
      </trkpt>
      <trkpt lat="20.25726333" lon="-98.73175167">
        <ele>1900.0</ele>
        <time>2019-10-12T15:33:39.843Z</time>
      </trkpt>
      <trkpt lat="20.25727" lon="-98.73176833">
        <ele>1900.0</ele>
        <time>2019-10-12T15:33:40.851Z</time>
      </trkpt>
      <trkpt lat="20.25727333" lon="-98.73178667">
        <ele>1900.0</ele>
        <time>2019-10-12T15:33:41.853Z</time>
      </trkpt>
      <trkpt lat="20.25727833" lon="-98.73180833">
        <ele>1900.0</ele>
        <time>2019-10-12T15:33:42.860Z</time>
      </trkpt>
      <trkpt lat="20.25728333" lon="-98.73182833">
        <ele>1901.0</ele>
        <time>2019-10-12T15:33:43.867Z</time>
      </trkpt>
      <trkpt lat="20.25729" lon="-98.73185">
        <ele>1901.0</ele>
        <time>2019-10-12T15:33:44.870Z</time>
      </trkpt>
      <trkpt lat="20.25729833" lon="-98.73186">
        <ele>1900.0</ele>
        <time>2019-10-12T15:33:45.871Z</time>
      </trkpt>
      <trkpt lat="20.25730833" lon="-98.73188">
        <ele>1901.0</ele>
        <time>2019-10-12T15:33:46.872Z</time>
      </trkpt>
      <trkpt lat="20.25731667" lon="-98.73189667">
        <ele>1901.0</ele>
        <time>2019-10-12T15:33:47.876Z</time>
      </trkpt>
      <trkpt lat="20.25732" lon="-98.73191667">
        <ele>1901.0</ele>
        <time>2019-10-12T15:33:48.880Z</time>
      </trkpt>
      <trkpt lat="20.25732833" lon="-98.731935">
        <ele>1901.0</ele>
        <time>2019-10-12T15:33:49.886Z</time>
      </trkpt>
      <trkpt lat="20.25733333" lon="-98.73195">
        <ele>1902.0</ele>
        <time>2019-10-12T15:33:50.893Z</time>
      </trkpt>
      <trkpt lat="20.25734167" lon="-98.73197167">
        <ele>1902.0</ele>
        <time>2019-10-12T15:33:51.896Z</time>
      </trkpt>
      <trkpt lat="20.25735167" lon="-98.73199">
        <ele>1902.0</ele>
        <time>2019-10-12T15:33:52.903Z</time>
      </trkpt>
      <trkpt lat="20.25736" lon="-98.73200333">
        <ele>1903.0</ele>
        <time>2019-10-12T15:33:53.908Z</time>
      </trkpt>
      <trkpt lat="20.25737" lon="-98.73201">
        <ele>1903.0</ele>
        <time>2019-10-12T15:33:54.915Z</time>
      </trkpt>
      <trkpt lat="20.25738333" lon="-98.73201833">
        <ele>1903.0</ele>
        <time>2019-10-12T15:33:55.920Z</time>
      </trkpt>
      <trkpt lat="20.25739833" lon="-98.73203">
        <ele>1903.0</ele>
        <time>2019-10-12T15:33:56.926Z</time>
      </trkpt>
      <trkpt lat="20.25740833" lon="-98.73204167">
        <ele>1903.0</ele>
        <time>2019-10-12T15:33:57.933Z</time>
      </trkpt>
      <trkpt lat="20.25741667" lon="-98.732055">
        <ele>1904.0</ele>
        <time>2019-10-12T15:33:58.941Z</time>
      </trkpt>
      <trkpt lat="20.25742167" lon="-98.73207">
        <ele>1904.0</ele>
        <time>2019-10-12T15:33:59.944Z</time>
      </trkpt>
      <trkpt lat="20.25742667" lon="-98.73208333">
        <ele>1904.0</ele>
        <time>2019-10-12T15:34:00.945Z</time>
      </trkpt>
      <trkpt lat="20.25742833" lon="-98.7321">
        <ele>1904.0</ele>
        <time>2019-10-12T15:34:01.946Z</time>
      </trkpt>
      <trkpt lat="20.25743" lon="-98.73211833">
        <ele>1905.0</ele>
        <time>2019-10-12T15:34:02.947Z</time>
      </trkpt>
      <trkpt lat="20.25743167" lon="-98.73213833">
        <ele>1905.0</ele>
        <time>2019-10-12T15:34:03.947Z</time>
      </trkpt>
      <trkpt lat="20.25743167" lon="-98.732155">
        <ele>1905.0</ele>
        <time>2019-10-12T15:34:04.948Z</time>
      </trkpt>
      <trkpt lat="20.25743333" lon="-98.73216667">
        <ele>1905.0</ele>
        <time>2019-10-12T15:34:05.949Z</time>
      </trkpt>
      <trkpt lat="20.25743833" lon="-98.73217833">
        <ele>1905.0</ele>
        <time>2019-10-12T15:34:06.950Z</time>
      </trkpt>
      <trkpt lat="20.25744833" lon="-98.73219167">
        <ele>1905.0</ele>
        <time>2019-10-12T15:34:07.951Z</time>
      </trkpt>
      <trkpt lat="20.25746" lon="-98.73220167">
        <ele>1904.0</ele>
        <time>2019-10-12T15:34:08.951Z</time>
      </trkpt>
      <trkpt lat="20.257475" lon="-98.73221167">
        <ele>1904.0</ele>
        <time>2019-10-12T15:34:09.951Z</time>
      </trkpt>
      <trkpt lat="20.25748667" lon="-98.732215">
        <ele>1904.0</ele>
        <time>2019-10-12T15:34:10.952Z</time>
      </trkpt>
      <trkpt lat="20.257505" lon="-98.73222">
        <ele>1904.0</ele>
        <time>2019-10-12T15:34:11.952Z</time>
      </trkpt>
      <trkpt lat="20.25752333" lon="-98.732225">
        <ele>1903.0</ele>
        <time>2019-10-12T15:34:12.952Z</time>
      </trkpt>
      <trkpt lat="20.25754" lon="-98.73222833">
        <ele>1904.0</ele>
        <time>2019-10-12T15:34:13.953Z</time>
      </trkpt>
      <trkpt lat="20.25756167" lon="-98.73222667">
        <ele>1903.0</ele>
        <time>2019-10-12T15:34:14.953Z</time>
      </trkpt>
      <trkpt lat="20.25757667" lon="-98.73222167">
        <ele>1903.0</ele>
        <time>2019-10-12T15:34:15.953Z</time>
      </trkpt>
      <trkpt lat="20.25759333" lon="-98.732215">
        <ele>1902.0</ele>
        <time>2019-10-12T15:34:16.954Z</time>
      </trkpt>
      <trkpt lat="20.25761167" lon="-98.73220833">
        <ele>1901.0</ele>
        <time>2019-10-12T15:34:17.954Z</time>
      </trkpt>
      <trkpt lat="20.25762667" lon="-98.73220667">
        <ele>1900.0</ele>
        <time>2019-10-12T15:34:18.954Z</time>
      </trkpt>
      <trkpt lat="20.25764333" lon="-98.73221167">
        <ele>1900.0</ele>
        <time>2019-10-12T15:34:19.954Z</time>
      </trkpt>
      <trkpt lat="20.257665" lon="-98.73222167">
        <ele>1900.0</ele>
        <time>2019-10-12T15:34:20.830Z</time>
      </trkpt>
      <trkpt lat="20.25767833" lon="-98.73223167">
        <ele>1900.0</ele>
        <time>2019-10-12T15:34:21.830Z</time>
      </trkpt>
      <trkpt lat="20.25769167" lon="-98.732245">
        <ele>1900.0</ele>
        <time>2019-10-12T15:34:22.830Z</time>
      </trkpt>
      <trkpt lat="20.25770833" lon="-98.73226167">
        <ele>1901.0</ele>
        <time>2019-10-12T15:34:23.830Z</time>
      </trkpt>
      <trkpt lat="20.25771833" lon="-98.73227167">
        <ele>1901.0</ele>
        <time>2019-10-12T15:34:24.830Z</time>
      </trkpt>
      <trkpt lat="20.25773167" lon="-98.732285">
        <ele>1901.0</ele>
        <time>2019-10-12T15:34:25.831Z</time>
      </trkpt>
      <trkpt lat="20.257745" lon="-98.73229333">
        <ele>1901.0</ele>
        <time>2019-10-12T15:34:26.831Z</time>
      </trkpt>
      <trkpt lat="20.25776333" lon="-98.732305">
        <ele>1902.0</ele>
        <time>2019-10-12T15:34:27.831Z</time>
      </trkpt>
      <trkpt lat="20.25777833" lon="-98.732315">
        <ele>1903.0</ele>
        <time>2019-10-12T15:34:28.831Z</time>
      </trkpt>
      <trkpt lat="20.25779333" lon="-98.73232167">
        <ele>1903.0</ele>
        <time>2019-10-12T15:34:29.832Z</time>
      </trkpt>
      <trkpt lat="20.25780333" lon="-98.73233">
        <ele>1904.0</ele>
        <time>2019-10-12T15:34:30.833Z</time>
      </trkpt>
      <trkpt lat="20.25781833" lon="-98.73233833">
        <ele>1905.0</ele>
        <time>2019-10-12T15:34:31.833Z</time>
      </trkpt>
      <trkpt lat="20.25783167" lon="-98.73234333">
        <ele>1906.0</ele>
        <time>2019-10-12T15:34:32.834Z</time>
      </trkpt>
      <trkpt lat="20.257845" lon="-98.73234833">
        <ele>1907.0</ele>
        <time>2019-10-12T15:34:33.835Z</time>
      </trkpt>
      <trkpt lat="20.25786" lon="-98.73235667">
        <ele>1908.0</ele>
        <time>2019-10-12T15:34:34.835Z</time>
      </trkpt>
      <trkpt lat="20.25787333" lon="-98.73236333">
        <ele>1908.0</ele>
        <time>2019-10-12T15:34:35.837Z</time>
      </trkpt>
      <trkpt lat="20.257885" lon="-98.73236833">
        <ele>1908.0</ele>
        <time>2019-10-12T15:34:36.838Z</time>
      </trkpt>
      <trkpt lat="20.25789833" lon="-98.73237333">
        <ele>1909.0</ele>
        <time>2019-10-12T15:34:37.838Z</time>
      </trkpt>
      <trkpt lat="20.25791333" lon="-98.73238">
        <ele>1909.0</ele>
        <time>2019-10-12T15:34:38.839Z</time>
      </trkpt>
      <trkpt lat="20.25792667" lon="-98.73238833">
        <ele>1910.0</ele>
        <time>2019-10-12T15:34:39.839Z</time>
      </trkpt>
      <trkpt lat="20.25794" lon="-98.73239333">
        <ele>1910.0</ele>
        <time>2019-10-12T15:34:40.841Z</time>
      </trkpt>
      <trkpt lat="20.25795167" lon="-98.73239667">
        <ele>1910.0</ele>
        <time>2019-10-12T15:34:41.842Z</time>
      </trkpt>
      <trkpt lat="20.257965" lon="-98.73239833">
        <ele>1911.0</ele>
        <time>2019-10-12T15:34:42.842Z</time>
      </trkpt>
      <trkpt lat="20.25798" lon="-98.73240167">
        <ele>1911.0</ele>
        <time>2019-10-12T15:34:43.843Z</time>
      </trkpt>
      <trkpt lat="20.25798833" lon="-98.73239667">
        <ele>1912.0</ele>
        <time>2019-10-12T15:34:44.844Z</time>
      </trkpt>
      <trkpt lat="20.25799333" lon="-98.73239167">
        <ele>1912.0</ele>
        <time>2019-10-12T15:34:45.845Z</time>
      </trkpt>
      <trkpt lat="20.25799667" lon="-98.73238667">
        <ele>1912.0</ele>
        <time>2019-10-12T15:34:46.846Z</time>
      </trkpt>
      <trkpt lat="20.25800167" lon="-98.73238667">
        <ele>1912.0</ele>
        <time>2019-10-12T15:34:47.846Z</time>
      </trkpt>
      <trkpt lat="20.25800667" lon="-98.73238333">
        <ele>1912.0</ele>
        <time>2019-10-12T15:34:48.847Z</time>
      </trkpt>
      <trkpt lat="20.25803167" lon="-98.73237333">
        <ele>1921.0</ele>
        <time>2019-10-12T15:34:50.852Z</time>
      </trkpt>
      <trkpt lat="20.25804833" lon="-98.73237833">
        <ele>1921.0</ele>
        <time>2019-10-12T15:34:51.857Z</time>
      </trkpt>
      <trkpt lat="20.258065" lon="-98.73238333">
        <ele>1922.0</ele>
        <time>2019-10-12T15:34:52.860Z</time>
      </trkpt>
      <trkpt lat="20.25808167" lon="-98.73238833">
        <ele>1922.0</ele>
        <time>2019-10-12T15:34:53.864Z</time>
      </trkpt>
      <trkpt lat="20.25809833" lon="-98.73239333">
        <ele>1923.0</ele>
        <time>2019-10-12T15:34:54.871Z</time>
      </trkpt>
      <trkpt lat="20.258115" lon="-98.732395">
        <ele>1923.0</ele>
        <time>2019-10-12T15:34:55.875Z</time>
      </trkpt>
      <trkpt lat="20.25813333" lon="-98.73239667">
        <ele>1923.0</ele>
        <time>2019-10-12T15:34:56.876Z</time>
      </trkpt>
      <trkpt lat="20.25815167" lon="-98.73239333">
        <ele>1923.0</ele>
        <time>2019-10-12T15:34:57.877Z</time>
      </trkpt>
      <trkpt lat="20.25816667" lon="-98.732385">
        <ele>1923.0</ele>
        <time>2019-10-12T15:34:58.878Z</time>
      </trkpt>
      <trkpt lat="20.25818333" lon="-98.732375">
        <ele>1922.0</ele>
        <time>2019-10-12T15:34:59.879Z</time>
      </trkpt>
      <trkpt lat="20.25819333" lon="-98.732365">
        <ele>1923.0</ele>
        <time>2019-10-12T15:35:00.879Z</time>
      </trkpt>
      <trkpt lat="20.25820333" lon="-98.73235667">
        <ele>1923.0</ele>
        <time>2019-10-12T15:35:01.880Z</time>
      </trkpt>
      <trkpt lat="20.25821167" lon="-98.73234667">
        <ele>1923.0</ele>
        <time>2019-10-12T15:35:02.880Z</time>
      </trkpt>
      <trkpt lat="20.25822" lon="-98.73233667">
        <ele>1923.0</ele>
        <time>2019-10-12T15:35:03.880Z</time>
      </trkpt>
      <trkpt lat="20.25822667" lon="-98.732325">
        <ele>1924.0</ele>
        <time>2019-10-12T15:35:04.883Z</time>
      </trkpt>
      <trkpt lat="20.258235" lon="-98.73231167">
        <ele>1924.0</ele>
        <time>2019-10-12T15:35:05.886Z</time>
      </trkpt>
      <trkpt lat="20.25824333" lon="-98.73229833">
        <ele>1923.0</ele>
        <time>2019-10-12T15:35:06.888Z</time>
      </trkpt>
      <trkpt lat="20.25825" lon="-98.732285">
        <ele>1923.0</ele>
        <time>2019-10-12T15:35:07.892Z</time>
      </trkpt>
      <trkpt lat="20.25825333" lon="-98.73227333">
        <ele>1923.0</ele>
        <time>2019-10-12T15:35:08.895Z</time>
      </trkpt>
      <trkpt lat="20.25825333" lon="-98.73226">
        <ele>1924.0</ele>
        <time>2019-10-12T15:35:09.900Z</time>
      </trkpt>
      <trkpt lat="20.25825167" lon="-98.732245">
        <ele>1924.0</ele>
        <time>2019-10-12T15:35:10.908Z</time>
      </trkpt>
      <trkpt lat="20.25825" lon="-98.73222833">
        <ele>1925.0</ele>
        <time>2019-10-12T15:35:11.910Z</time>
      </trkpt>
      <trkpt lat="20.25824833" lon="-98.73221">
        <ele>1926.0</ele>
        <time>2019-10-12T15:35:12.913Z</time>
      </trkpt>
      <trkpt lat="20.25825167" lon="-98.73219167">
        <ele>1927.0</ele>
        <time>2019-10-12T15:35:13.914Z</time>
      </trkpt>
      <trkpt lat="20.258255" lon="-98.732175">
        <ele>1927.0</ele>
        <time>2019-10-12T15:35:14.916Z</time>
      </trkpt>
      <trkpt lat="20.258255" lon="-98.73215833">
        <ele>1928.0</ele>
        <time>2019-10-12T15:35:15.920Z</time>
      </trkpt>
      <trkpt lat="20.25825333" lon="-98.732145">
        <ele>1929.0</ele>
        <time>2019-10-12T15:35:16.923Z</time>
      </trkpt>
      <trkpt lat="20.258255" lon="-98.73213667">
        <ele>1930.0</ele>
        <time>2019-10-12T15:35:17.926Z</time>
      </trkpt>
      <trkpt lat="20.25826" lon="-98.732125">
        <ele>1930.0</ele>
        <time>2019-10-12T15:35:18.928Z</time>
      </trkpt>
      <trkpt lat="20.25826667" lon="-98.73211167">
        <ele>1930.0</ele>
        <time>2019-10-12T15:35:19.934Z</time>
      </trkpt>
      <trkpt lat="20.25827667" lon="-98.73210167">
        <ele>1930.0</ele>
        <time>2019-10-12T15:35:20.941Z</time>
      </trkpt>
      <trkpt lat="20.258295" lon="-98.73209167">
        <ele>1929.0</ele>
        <time>2019-10-12T15:35:21.946Z</time>
      </trkpt>
      <trkpt lat="20.25831167" lon="-98.732085">
        <ele>1929.0</ele>
        <time>2019-10-12T15:35:22.949Z</time>
      </trkpt>
      <trkpt lat="20.25833" lon="-98.73207667">
        <ele>1929.0</ele>
        <time>2019-10-12T15:35:23.954Z</time>
      </trkpt>
      <trkpt lat="20.25834667" lon="-98.73207">
        <ele>1929.0</ele>
        <time>2019-10-12T15:35:24.835Z</time>
      </trkpt>
      <trkpt lat="20.25836333" lon="-98.73206167">
        <ele>1929.0</ele>
        <time>2019-10-12T15:35:25.841Z</time>
      </trkpt>
      <trkpt lat="20.25838167" lon="-98.732055">
        <ele>1929.0</ele>
        <time>2019-10-12T15:35:26.845Z</time>
      </trkpt>
      <trkpt lat="20.25839667" lon="-98.73205">
        <ele>1928.0</ele>
        <time>2019-10-12T15:35:27.852Z</time>
      </trkpt>
      <trkpt lat="20.258415" lon="-98.73204833">
        <ele>1928.0</ele>
        <time>2019-10-12T15:35:28.854Z</time>
      </trkpt>
      <trkpt lat="20.258435" lon="-98.73205">
        <ele>1927.0</ele>
        <time>2019-10-12T15:35:29.859Z</time>
      </trkpt>
      <trkpt lat="20.25845833" lon="-98.73204667">
        <ele>1927.0</ele>
        <time>2019-10-12T15:35:30.866Z</time>
      </trkpt>
      <trkpt lat="20.25848167" lon="-98.73204333">
        <ele>1927.0</ele>
        <time>2019-10-12T15:35:31.872Z</time>
      </trkpt>
      <trkpt lat="20.25850167" lon="-98.73203667">
        <ele>1927.0</ele>
        <time>2019-10-12T15:35:32.876Z</time>
      </trkpt>
      <trkpt lat="20.25852" lon="-98.73202833">
        <ele>1926.0</ele>
        <time>2019-10-12T15:35:33.882Z</time>
      </trkpt>
      <trkpt lat="20.25854" lon="-98.73202">
        <ele>1926.0</ele>
        <time>2019-10-12T15:35:34.888Z</time>
      </trkpt>
      <trkpt lat="20.25856" lon="-98.73200833">
        <ele>1926.0</ele>
        <time>2019-10-12T15:35:35.895Z</time>
      </trkpt>
      <trkpt lat="20.25858" lon="-98.731995">
        <ele>1925.0</ele>
        <time>2019-10-12T15:35:36.900Z</time>
      </trkpt>
      <trkpt lat="20.25859833" lon="-98.73198167">
        <ele>1924.0</ele>
        <time>2019-10-12T15:35:37.900Z</time>
      </trkpt>
      <trkpt lat="20.25861833" lon="-98.73197667">
        <ele>1923.0</ele>
        <time>2019-10-12T15:35:38.901Z</time>
      </trkpt>
      <trkpt lat="20.258635" lon="-98.73198">
        <ele>1923.0</ele>
        <time>2019-10-12T15:35:39.902Z</time>
      </trkpt>
      <trkpt lat="20.258655" lon="-98.73199">
        <ele>1923.0</ele>
        <time>2019-10-12T15:35:40.903Z</time>
      </trkpt>
      <trkpt lat="20.25867333" lon="-98.73199333">
        <ele>1923.0</ele>
        <time>2019-10-12T15:35:41.907Z</time>
      </trkpt>
      <trkpt lat="20.25869333" lon="-98.731995">
        <ele>1922.0</ele>
        <time>2019-10-12T15:35:42.909Z</time>
      </trkpt>
      <trkpt lat="20.25871333" lon="-98.731995">
        <ele>1921.0</ele>
        <time>2019-10-12T15:35:43.914Z</time>
      </trkpt>
      <trkpt lat="20.25873333" lon="-98.73199667">
        <ele>1921.0</ele>
        <time>2019-10-12T15:35:44.920Z</time>
      </trkpt>
      <trkpt lat="20.25875333" lon="-98.73200333">
        <ele>1921.0</ele>
        <time>2019-10-12T15:35:45.926Z</time>
      </trkpt>
      <trkpt lat="20.25877333" lon="-98.73200667">
        <ele>1920.0</ele>
        <time>2019-10-12T15:35:46.929Z</time>
      </trkpt>
      <trkpt lat="20.25879333" lon="-98.73200833">
        <ele>1920.0</ele>
        <time>2019-10-12T15:35:47.930Z</time>
      </trkpt>
      <trkpt lat="20.25881333" lon="-98.73200667">
        <ele>1919.0</ele>
        <time>2019-10-12T15:35:48.933Z</time>
      </trkpt>
      <trkpt lat="20.25883167" lon="-98.73200833">
        <ele>1919.0</ele>
        <time>2019-10-12T15:35:49.935Z</time>
      </trkpt>
      <trkpt lat="20.258855" lon="-98.73201167">
        <ele>1918.0</ele>
        <time>2019-10-12T15:35:50.941Z</time>
      </trkpt>
      <trkpt lat="20.25887667" lon="-98.73201833">
        <ele>1918.0</ele>
        <time>2019-10-12T15:35:51.947Z</time>
      </trkpt>
      <trkpt lat="20.25889833" lon="-98.73202667">
        <ele>1918.0</ele>
        <time>2019-10-12T15:35:52.952Z</time>
      </trkpt>
      <trkpt lat="20.25892333" lon="-98.73203333">
        <ele>1918.0</ele>
        <time>2019-10-12T15:35:53.833Z</time>
      </trkpt>
      <trkpt lat="20.25894667" lon="-98.73204">
        <ele>1917.0</ele>
        <time>2019-10-12T15:35:54.835Z</time>
      </trkpt>
      <trkpt lat="20.25897" lon="-98.73204667">
        <ele>1917.0</ele>
        <time>2019-10-12T15:35:55.841Z</time>
      </trkpt>
      <trkpt lat="20.25899333" lon="-98.73205667">
        <ele>1917.0</ele>
        <time>2019-10-12T15:35:56.848Z</time>
      </trkpt>
      <trkpt lat="20.25901667" lon="-98.73206667">
        <ele>1916.0</ele>
        <time>2019-10-12T15:35:57.853Z</time>
      </trkpt>
      <trkpt lat="20.25904167" lon="-98.73208">
        <ele>1916.0</ele>
        <time>2019-10-12T15:35:58.854Z</time>
      </trkpt>
      <trkpt lat="20.259065" lon="-98.732095">
        <ele>1916.0</ele>
        <time>2019-10-12T15:35:59.855Z</time>
      </trkpt>
      <trkpt lat="20.25909" lon="-98.73211">
        <ele>1916.0</ele>
        <time>2019-10-12T15:36:00.855Z</time>
      </trkpt>
      <trkpt lat="20.25911167" lon="-98.73212833">
        <ele>1915.0</ele>
        <time>2019-10-12T15:36:01.856Z</time>
      </trkpt>
      <trkpt lat="20.259135" lon="-98.732145">
        <ele>1915.0</ele>
        <time>2019-10-12T15:36:02.856Z</time>
      </trkpt>
      <trkpt lat="20.25916" lon="-98.73216">
        <ele>1914.0</ele>
        <time>2019-10-12T15:36:03.856Z</time>
      </trkpt>
      <trkpt lat="20.25918667" lon="-98.73217">
        <ele>1914.0</ele>
        <time>2019-10-12T15:36:04.857Z</time>
      </trkpt>
      <trkpt lat="20.25921167" lon="-98.73217667">
        <ele>1913.0</ele>
        <time>2019-10-12T15:36:05.857Z</time>
      </trkpt>
      <trkpt lat="20.25923667" lon="-98.73218333">
        <ele>1913.0</ele>
        <time>2019-10-12T15:36:06.857Z</time>
      </trkpt>
      <trkpt lat="20.25926667" lon="-98.73218833">
        <ele>1912.0</ele>
        <time>2019-10-12T15:36:07.858Z</time>
      </trkpt>
      <trkpt lat="20.259295" lon="-98.73219333">
        <ele>1911.0</ele>
        <time>2019-10-12T15:36:08.858Z</time>
      </trkpt>
      <trkpt lat="20.259325" lon="-98.73219667">
        <ele>1911.0</ele>
        <time>2019-10-12T15:36:09.859Z</time>
      </trkpt>
      <trkpt lat="20.25935333" lon="-98.73220167">
        <ele>1911.0</ele>
        <time>2019-10-12T15:36:10.860Z</time>
      </trkpt>
      <trkpt lat="20.25938333" lon="-98.73220833">
        <ele>1910.0</ele>
        <time>2019-10-12T15:36:11.860Z</time>
      </trkpt>
      <trkpt lat="20.259415" lon="-98.732215">
        <ele>1910.0</ele>
        <time>2019-10-12T15:36:12.861Z</time>
      </trkpt>
      <trkpt lat="20.25944167" lon="-98.73221833">
        <ele>1909.0</ele>
        <time>2019-10-12T15:36:13.862Z</time>
      </trkpt>
      <trkpt lat="20.25946833" lon="-98.73222333">
        <ele>1908.0</ele>
        <time>2019-10-12T15:36:14.863Z</time>
      </trkpt>
      <trkpt lat="20.25949667" lon="-98.73222667">
        <ele>1908.0</ele>
        <time>2019-10-12T15:36:15.864Z</time>
      </trkpt>
      <trkpt lat="20.259525" lon="-98.73223">
        <ele>1907.0</ele>
        <time>2019-10-12T15:36:16.864Z</time>
      </trkpt>
      <trkpt lat="20.259555" lon="-98.73223333">
        <ele>1907.0</ele>
        <time>2019-10-12T15:36:17.865Z</time>
      </trkpt>
      <trkpt lat="20.25958333" lon="-98.73224">
        <ele>1906.0</ele>
        <time>2019-10-12T15:36:18.866Z</time>
      </trkpt>
      <trkpt lat="20.25961" lon="-98.732245">
        <ele>1905.0</ele>
        <time>2019-10-12T15:36:19.867Z</time>
      </trkpt>
      <trkpt lat="20.25963333" lon="-98.73224667">
        <ele>1905.0</ele>
        <time>2019-10-12T15:36:20.868Z</time>
      </trkpt>
      <trkpt lat="20.259655" lon="-98.73225">
        <ele>1904.0</ele>
        <time>2019-10-12T15:36:21.868Z</time>
      </trkpt>
      <trkpt lat="20.25967333" lon="-98.732255">
        <ele>1904.0</ele>
        <time>2019-10-12T15:36:22.869Z</time>
      </trkpt>
      <trkpt lat="20.25968833" lon="-98.73226">
        <ele>1903.0</ele>
        <time>2019-10-12T15:36:23.870Z</time>
      </trkpt>
      <trkpt lat="20.25969833" lon="-98.73226333">
        <ele>1902.0</ele>
        <time>2019-10-12T15:36:24.871Z</time>
      </trkpt>
      <trkpt lat="20.259705" lon="-98.73227333">
        <ele>1902.0</ele>
        <time>2019-10-12T15:36:25.872Z</time>
      </trkpt>
      <trkpt lat="20.25971333" lon="-98.732285">
        <ele>1901.0</ele>
        <time>2019-10-12T15:36:26.876Z</time>
      </trkpt>
      <trkpt lat="20.25972" lon="-98.73229667">
        <ele>1900.0</ele>
        <time>2019-10-12T15:36:27.881Z</time>
      </trkpt>
      <trkpt lat="20.25973" lon="-98.73230667">
        <ele>1899.0</ele>
        <time>2019-10-12T15:36:28.888Z</time>
      </trkpt>
      <trkpt lat="20.25974333" lon="-98.73231">
        <ele>1899.0</ele>
        <time>2019-10-12T15:36:29.893Z</time>
      </trkpt>
      <trkpt lat="20.25975667" lon="-98.73231333">
        <ele>1899.0</ele>
        <time>2019-10-12T15:36:30.896Z</time>
      </trkpt>
      <trkpt lat="20.259765" lon="-98.73231833">
        <ele>1899.0</ele>
        <time>2019-10-12T15:36:31.900Z</time>
      </trkpt>
      <trkpt lat="20.259775" lon="-98.73232833">
        <ele>1898.0</ele>
        <time>2019-10-12T15:36:32.906Z</time>
      </trkpt>
      <trkpt lat="20.259785" lon="-98.73234167">
        <ele>1898.0</ele>
        <time>2019-10-12T15:36:33.913Z</time>
      </trkpt>
      <trkpt lat="20.259795" lon="-98.732355">
        <ele>1898.0</ele>
        <time>2019-10-12T15:36:34.919Z</time>
      </trkpt>
      <trkpt lat="20.25981" lon="-98.73236667">
        <ele>1897.0</ele>
        <time>2019-10-12T15:36:35.922Z</time>
      </trkpt>
      <trkpt lat="20.259825" lon="-98.73238167">
        <ele>1897.0</ele>
        <time>2019-10-12T15:36:36.925Z</time>
      </trkpt>
      <trkpt lat="20.25984" lon="-98.73239833">
        <ele>1897.0</ele>
        <time>2019-10-12T15:36:37.932Z</time>
      </trkpt>
      <trkpt lat="20.25985667" lon="-98.73241667">
        <ele>1896.0</ele>
        <time>2019-10-12T15:36:38.939Z</time>
      </trkpt>
      <trkpt lat="20.25987333" lon="-98.73244">
        <ele>1896.0</ele>
        <time>2019-10-12T15:36:39.944Z</time>
      </trkpt>
      <trkpt lat="20.25989" lon="-98.732465">
        <ele>1896.0</ele>
        <time>2019-10-12T15:36:40.945Z</time>
      </trkpt>
      <trkpt lat="20.259905" lon="-98.732485">
        <ele>1896.0</ele>
        <time>2019-10-12T15:36:41.946Z</time>
      </trkpt>
      <trkpt lat="20.25992667" lon="-98.732515">
        <ele>1895.0</ele>
        <time>2019-10-12T15:36:42.948Z</time>
      </trkpt>
      <trkpt lat="20.25994667" lon="-98.73254">
        <ele>1896.0</ele>
        <time>2019-10-12T15:36:43.952Z</time>
      </trkpt>
      <trkpt lat="20.259965" lon="-98.73256333">
        <ele>1896.0</ele>
        <time>2019-10-12T15:36:44.830Z</time>
      </trkpt>
      <trkpt lat="20.259985" lon="-98.73258333">
        <ele>1896.0</ele>
        <time>2019-10-12T15:36:45.836Z</time>
      </trkpt>
      <trkpt lat="20.26000333" lon="-98.73260167">
        <ele>1896.0</ele>
        <time>2019-10-12T15:36:46.841Z</time>
      </trkpt>
      <trkpt lat="20.26002" lon="-98.73261833">
        <ele>1896.0</ele>
        <time>2019-10-12T15:36:47.847Z</time>
      </trkpt>
      <trkpt lat="20.260035" lon="-98.73264">
        <ele>1895.0</ele>
        <time>2019-10-12T15:36:48.848Z</time>
      </trkpt>
      <trkpt lat="20.26005167" lon="-98.73266">
        <ele>1895.0</ele>
        <time>2019-10-12T15:36:49.852Z</time>
      </trkpt>
      <trkpt lat="20.26006833" lon="-98.73268167">
        <ele>1894.0</ele>
        <time>2019-10-12T15:36:50.857Z</time>
      </trkpt>
      <trkpt lat="20.26008833" lon="-98.73270167">
        <ele>1894.0</ele>
        <time>2019-10-12T15:36:51.860Z</time>
      </trkpt>
      <trkpt lat="20.26011" lon="-98.73272333">
        <ele>1894.0</ele>
        <time>2019-10-12T15:36:52.865Z</time>
      </trkpt>
      <trkpt lat="20.26013167" lon="-98.732745">
        <ele>1893.0</ele>
        <time>2019-10-12T15:36:53.871Z</time>
      </trkpt>
      <trkpt lat="20.26015333" lon="-98.73276667">
        <ele>1893.0</ele>
        <time>2019-10-12T15:36:54.878Z</time>
      </trkpt>
      <trkpt lat="20.26017333" lon="-98.73278833">
        <ele>1893.0</ele>
        <time>2019-10-12T15:36:55.881Z</time>
      </trkpt>
      <trkpt lat="20.26019167" lon="-98.73281">
        <ele>1892.0</ele>
        <time>2019-10-12T15:36:56.883Z</time>
      </trkpt>
      <trkpt lat="20.26020833" lon="-98.73283333">
        <ele>1892.0</ele>
        <time>2019-10-12T15:36:57.886Z</time>
      </trkpt>
      <trkpt lat="20.26022167" lon="-98.732855">
        <ele>1891.0</ele>
        <time>2019-10-12T15:36:58.891Z</time>
      </trkpt>
      <trkpt lat="20.26023833" lon="-98.73287833">
        <ele>1891.0</ele>
        <time>2019-10-12T15:36:59.897Z</time>
      </trkpt>
      <trkpt lat="20.26025333" lon="-98.7329">
        <ele>1891.0</ele>
        <time>2019-10-12T15:37:00.899Z</time>
      </trkpt>
      <trkpt lat="20.26027167" lon="-98.73292167">
        <ele>1890.0</ele>
        <time>2019-10-12T15:37:01.900Z</time>
      </trkpt>
      <trkpt lat="20.26029167" lon="-98.73294167">
        <ele>1889.0</ele>
        <time>2019-10-12T15:37:02.900Z</time>
      </trkpt>
      <trkpt lat="20.26031" lon="-98.73296333">
        <ele>1889.0</ele>
        <time>2019-10-12T15:37:03.904Z</time>
      </trkpt>
      <trkpt lat="20.26032833" lon="-98.73298333">
        <ele>1888.0</ele>
        <time>2019-10-12T15:37:04.908Z</time>
      </trkpt>
      <trkpt lat="20.26035" lon="-98.73300167">
        <ele>1888.0</ele>
        <time>2019-10-12T15:37:05.915Z</time>
      </trkpt>
      <trkpt lat="20.26037333" lon="-98.733015">
        <ele>1887.0</ele>
        <time>2019-10-12T15:37:06.918Z</time>
      </trkpt>
      <trkpt lat="20.26039667" lon="-98.73303">
        <ele>1886.0</ele>
        <time>2019-10-12T15:37:07.921Z</time>
      </trkpt>
      <trkpt lat="20.260415" lon="-98.73304833">
        <ele>1886.0</ele>
        <time>2019-10-12T15:37:08.925Z</time>
      </trkpt>
      <trkpt lat="20.26043" lon="-98.73307">
        <ele>1886.0</ele>
        <time>2019-10-12T15:37:09.928Z</time>
      </trkpt>
      <trkpt lat="20.26044167" lon="-98.73309167">
        <ele>1886.0</ele>
        <time>2019-10-12T15:37:10.932Z</time>
      </trkpt>
      <trkpt lat="20.26045333" lon="-98.73311333">
        <ele>1886.0</ele>
        <time>2019-10-12T15:37:11.939Z</time>
      </trkpt>
      <trkpt lat="20.26046833" lon="-98.73313333">
        <ele>1885.0</ele>
        <time>2019-10-12T15:37:12.945Z</time>
      </trkpt>
      <trkpt lat="20.26048667" lon="-98.73315167">
        <ele>1885.0</ele>
        <time>2019-10-12T15:37:13.950Z</time>
      </trkpt>
      <trkpt lat="20.260505" lon="-98.73316833">
        <ele>1884.0</ele>
        <time>2019-10-12T15:37:14.954Z</time>
      </trkpt>
      <trkpt lat="20.26051667" lon="-98.73319">
        <ele>1884.0</ele>
        <time>2019-10-12T15:37:15.832Z</time>
      </trkpt>
      <trkpt lat="20.260525" lon="-98.73321333">
        <ele>1884.0</ele>
        <time>2019-10-12T15:37:16.838Z</time>
      </trkpt>
      <trkpt lat="20.26053" lon="-98.73323667">
        <ele>1884.0</ele>
        <time>2019-10-12T15:37:17.844Z</time>
      </trkpt>
      <trkpt lat="20.26053167" lon="-98.73326167">
        <ele>1884.0</ele>
        <time>2019-10-12T15:37:18.849Z</time>
      </trkpt>
      <trkpt lat="20.26052667" lon="-98.733285">
        <ele>1885.0</ele>
        <time>2019-10-12T15:37:19.851Z</time>
      </trkpt>
      <trkpt lat="20.26051667" lon="-98.73330833">
        <ele>1885.0</ele>
        <time>2019-10-12T15:37:20.852Z</time>
      </trkpt>
      <trkpt lat="20.26050167" lon="-98.73333167">
        <ele>1886.0</ele>
        <time>2019-10-12T15:37:21.853Z</time>
      </trkpt>
      <trkpt lat="20.260485" lon="-98.73335167">
        <ele>1886.0</ele>
        <time>2019-10-12T15:37:22.858Z</time>
      </trkpt>
      <trkpt lat="20.26047" lon="-98.73337667">
        <ele>1886.0</ele>
        <time>2019-10-12T15:37:23.862Z</time>
      </trkpt>
      <trkpt lat="20.26045667" lon="-98.7334">
        <ele>1886.0</ele>
        <time>2019-10-12T15:37:24.865Z</time>
      </trkpt>
      <trkpt lat="20.26044" lon="-98.73342333">
        <ele>1886.0</ele>
        <time>2019-10-12T15:37:25.870Z</time>
      </trkpt>
      <trkpt lat="20.26042" lon="-98.73344333">
        <ele>1886.0</ele>
        <time>2019-10-12T15:37:26.876Z</time>
      </trkpt>
      <trkpt lat="20.26040333" lon="-98.73346333">
        <ele>1886.0</ele>
        <time>2019-10-12T15:37:27.880Z</time>
      </trkpt>
      <trkpt lat="20.26039667" lon="-98.73348667">
        <ele>1885.0</ele>
        <time>2019-10-12T15:37:28.886Z</time>
      </trkpt>
      <trkpt lat="20.260395" lon="-98.73351167">
        <ele>1885.0</ele>
        <time>2019-10-12T15:37:29.891Z</time>
      </trkpt>
      <trkpt lat="20.26039167" lon="-98.73354">
        <ele>1884.0</ele>
        <time>2019-10-12T15:37:30.895Z</time>
      </trkpt>
      <trkpt lat="20.26038833" lon="-98.73356833">
        <ele>1884.0</ele>
        <time>2019-10-12T15:37:31.899Z</time>
      </trkpt>
      <trkpt lat="20.26038667" lon="-98.73359833">
        <ele>1883.0</ele>
        <time>2019-10-12T15:37:32.903Z</time>
      </trkpt>
      <trkpt lat="20.26038667" lon="-98.73362833">
        <ele>1883.0</ele>
        <time>2019-10-12T15:37:33.910Z</time>
      </trkpt>
      <trkpt lat="20.26038833" lon="-98.73365833">
        <ele>1883.0</ele>
        <time>2019-10-12T15:37:34.916Z</time>
      </trkpt>
      <trkpt lat="20.26039333" lon="-98.733685">
        <ele>1883.0</ele>
        <time>2019-10-12T15:37:35.919Z</time>
      </trkpt>
      <trkpt lat="20.26039833" lon="-98.73371333">
        <ele>1882.0</ele>
        <time>2019-10-12T15:37:36.923Z</time>
      </trkpt>
      <trkpt lat="20.260405" lon="-98.73374167">
        <ele>1882.0</ele>
        <time>2019-10-12T15:37:37.927Z</time>
      </trkpt>
      <trkpt lat="20.260415" lon="-98.73376833">
        <ele>1882.0</ele>
        <time>2019-10-12T15:37:38.928Z</time>
      </trkpt>
      <trkpt lat="20.260425" lon="-98.73379333">
        <ele>1881.0</ele>
        <time>2019-10-12T15:37:39.929Z</time>
      </trkpt>
      <trkpt lat="20.26043833" lon="-98.73382">
        <ele>1881.0</ele>
        <time>2019-10-12T15:37:40.930Z</time>
      </trkpt>
      <trkpt lat="20.26045" lon="-98.73384167">
        <ele>1880.0</ele>
        <time>2019-10-12T15:37:41.931Z</time>
      </trkpt>
      <trkpt lat="20.26046333" lon="-98.73386167">
        <ele>1880.0</ele>
        <time>2019-10-12T15:37:42.932Z</time>
      </trkpt>
      <trkpt lat="20.26048" lon="-98.73387667">
        <ele>1880.0</ele>
        <time>2019-10-12T15:37:43.932Z</time>
      </trkpt>
      <trkpt lat="20.26050167" lon="-98.73388333">
        <ele>1879.0</ele>
        <time>2019-10-12T15:37:44.933Z</time>
      </trkpt>
      <trkpt lat="20.26052167" lon="-98.73388167">
        <ele>1878.0</ele>
        <time>2019-10-12T15:37:45.934Z</time>
      </trkpt>
      <trkpt lat="20.26054" lon="-98.733875">
        <ele>1878.0</ele>
        <time>2019-10-12T15:37:46.935Z</time>
      </trkpt>
      <trkpt lat="20.26055667" lon="-98.73386333">
        <ele>1878.0</ele>
        <time>2019-10-12T15:37:47.936Z</time>
      </trkpt>
      <trkpt lat="20.26057167" lon="-98.73384667">
        <ele>1878.0</ele>
        <time>2019-10-12T15:37:48.937Z</time>
      </trkpt>
      <trkpt lat="20.26058667" lon="-98.73383167">
        <ele>1877.0</ele>
        <time>2019-10-12T15:37:49.944Z</time>
      </trkpt>
      <trkpt lat="20.26059667" lon="-98.73381333">
        <ele>1877.0</ele>
        <time>2019-10-12T15:37:50.947Z</time>
      </trkpt>
      <trkpt lat="20.26060667" lon="-98.73379167">
        <ele>1876.0</ele>
        <time>2019-10-12T15:37:51.951Z</time>
      </trkpt>
      <trkpt lat="20.260615" lon="-98.73377167">
        <ele>1876.0</ele>
        <time>2019-10-12T15:37:52.830Z</time>
      </trkpt>
      <trkpt lat="20.260625" lon="-98.73374833">
        <ele>1876.0</ele>
        <time>2019-10-12T15:37:53.834Z</time>
      </trkpt>
      <trkpt lat="20.26063167" lon="-98.73372167">
        <ele>1877.0</ele>
        <time>2019-10-12T15:37:54.837Z</time>
      </trkpt>
      <trkpt lat="20.260635" lon="-98.73369167">
        <ele>1877.0</ele>
        <time>2019-10-12T15:37:55.838Z</time>
      </trkpt>
      <trkpt lat="20.260635" lon="-98.73366167">
        <ele>1878.0</ele>
        <time>2019-10-12T15:37:56.839Z</time>
      </trkpt>
      <trkpt lat="20.26063833" lon="-98.73364">
        <ele>1878.0</ele>
        <time>2019-10-12T15:37:57.845Z</time>
      </trkpt>
      <trkpt lat="20.26064333" lon="-98.73362667">
        <ele>1878.0</ele>
        <time>2019-10-12T15:37:58.850Z</time>
      </trkpt>
      <trkpt lat="20.260655" lon="-98.73362167">
        <ele>1877.0</ele>
        <time>2019-10-12T15:37:59.857Z</time>
      </trkpt>
      <trkpt lat="20.26066833" lon="-98.73362667">
        <ele>1876.0</ele>
        <time>2019-10-12T15:38:00.863Z</time>
      </trkpt>
      <trkpt lat="20.26068" lon="-98.73363667">
        <ele>1876.0</ele>
        <time>2019-10-12T15:38:01.868Z</time>
      </trkpt>
      <trkpt lat="20.26069" lon="-98.73365167">
        <ele>1876.0</ele>
        <time>2019-10-12T15:38:02.870Z</time>
      </trkpt>
      <trkpt lat="20.26069833" lon="-98.73367167">
        <ele>1876.0</ele>
        <time>2019-10-12T15:38:03.873Z</time>
      </trkpt>
      <trkpt lat="20.260705" lon="-98.73369333">
        <ele>1876.0</ele>
        <time>2019-10-12T15:38:04.880Z</time>
      </trkpt>
      <trkpt lat="20.26071167" lon="-98.73371333">
        <ele>1875.0</ele>
        <time>2019-10-12T15:38:05.885Z</time>
      </trkpt>
      <trkpt lat="20.26072167" lon="-98.73373333">
        <ele>1875.0</ele>
        <time>2019-10-12T15:38:06.888Z</time>
      </trkpt>
      <trkpt lat="20.26073" lon="-98.73375333">
        <ele>1874.0</ele>
        <time>2019-10-12T15:38:07.893Z</time>
      </trkpt>
      <trkpt lat="20.26073667" lon="-98.73377667">
        <ele>1872.0</ele>
        <time>2019-10-12T15:38:08.899Z</time>
      </trkpt>
      <trkpt lat="20.26074333" lon="-98.733805">
        <ele>1870.0</ele>
        <time>2019-10-12T15:38:09.905Z</time>
      </trkpt>
      <trkpt lat="20.26075" lon="-98.73383333">
        <ele>1869.0</ele>
        <time>2019-10-12T15:38:10.911Z</time>
      </trkpt>
      <trkpt lat="20.26075667" lon="-98.73385833">
        <ele>1868.0</ele>
        <time>2019-10-12T15:38:11.912Z</time>
      </trkpt>
      <trkpt lat="20.26076333" lon="-98.73388167">
        <ele>1867.0</ele>
        <time>2019-10-12T15:38:12.913Z</time>
      </trkpt>
      <trkpt lat="20.26077" lon="-98.73390667">
        <ele>1867.0</ele>
        <time>2019-10-12T15:38:13.915Z</time>
      </trkpt>
      <trkpt lat="20.260775" lon="-98.73393">
        <ele>1867.0</ele>
        <time>2019-10-12T15:38:14.920Z</time>
      </trkpt>
      <trkpt lat="20.26078" lon="-98.73395833">
        <ele>1867.0</ele>
        <time>2019-10-12T15:38:15.926Z</time>
      </trkpt>
      <trkpt lat="20.26077833" lon="-98.73397833">
        <ele>1868.0</ele>
        <time>2019-10-12T15:38:16.930Z</time>
      </trkpt>
      <trkpt lat="20.260775" lon="-98.73400167">
        <ele>1868.0</ele>
        <time>2019-10-12T15:38:17.936Z</time>
      </trkpt>
      <trkpt lat="20.26076667" lon="-98.73402667">
        <ele>1867.0</ele>
        <time>2019-10-12T15:38:18.941Z</time>
      </trkpt>
      <trkpt lat="20.26075667" lon="-98.73405167">
        <ele>1867.0</ele>
        <time>2019-10-12T15:38:19.944Z</time>
      </trkpt>
      <trkpt lat="20.26075833" lon="-98.73407167">
        <ele>1866.0</ele>
        <time>2019-10-12T15:38:20.948Z</time>
      </trkpt>
      <trkpt lat="20.26077167" lon="-98.73408167">
        <ele>1867.0</ele>
        <time>2019-10-12T15:38:21.953Z</time>
      </trkpt>
      <trkpt lat="20.26079333" lon="-98.73408">
        <ele>1867.0</ele>
        <time>2019-10-12T15:38:22.832Z</time>
      </trkpt>
      <trkpt lat="20.26081667" lon="-98.73407">
        <ele>1868.0</ele>
        <time>2019-10-12T15:38:23.833Z</time>
      </trkpt>
      <trkpt lat="20.260835" lon="-98.734055">
        <ele>1868.0</ele>
        <time>2019-10-12T15:38:24.834Z</time>
      </trkpt>
      <trkpt lat="20.26085333" lon="-98.73403">
        <ele>1868.0</ele>
        <time>2019-10-12T15:38:25.834Z</time>
      </trkpt>
      <trkpt lat="20.26086333" lon="-98.73401167">
        <ele>1867.0</ele>
        <time>2019-10-12T15:38:26.834Z</time>
      </trkpt>
      <trkpt lat="20.260875" lon="-98.73398833">
        <ele>1867.0</ele>
        <time>2019-10-12T15:38:27.834Z</time>
      </trkpt>
      <trkpt lat="20.26088667" lon="-98.733965">
        <ele>1867.0</ele>
        <time>2019-10-12T15:38:28.835Z</time>
      </trkpt>
      <trkpt lat="20.26089833" lon="-98.73394">
        <ele>1866.0</ele>
        <time>2019-10-12T15:38:29.835Z</time>
      </trkpt>
      <trkpt lat="20.26090833" lon="-98.733915">
        <ele>1865.0</ele>
        <time>2019-10-12T15:38:30.835Z</time>
      </trkpt>
      <trkpt lat="20.26092" lon="-98.73389167">
        <ele>1864.0</ele>
        <time>2019-10-12T15:38:31.835Z</time>
      </trkpt>
      <trkpt lat="20.26093833" lon="-98.733865">
        <ele>1863.0</ele>
        <time>2019-10-12T15:38:32.836Z</time>
      </trkpt>
      <trkpt lat="20.26095167" lon="-98.73384">
        <ele>1864.0</ele>
        <time>2019-10-12T15:38:33.836Z</time>
      </trkpt>
      <trkpt lat="20.26096333" lon="-98.73381833">
        <ele>1863.0</ele>
        <time>2019-10-12T15:38:34.836Z</time>
      </trkpt>
      <trkpt lat="20.26097333" lon="-98.73380167">
        <ele>1863.0</ele>
        <time>2019-10-12T15:38:35.836Z</time>
      </trkpt>
      <trkpt lat="20.26099" lon="-98.73378333">
        <ele>1862.0</ele>
        <time>2019-10-12T15:38:36.836Z</time>
      </trkpt>
      <trkpt lat="20.26100333" lon="-98.733765">
        <ele>1862.0</ele>
        <time>2019-10-12T15:38:37.837Z</time>
      </trkpt>
      <trkpt lat="20.26101667" lon="-98.73374333">
        <ele>1861.0</ele>
        <time>2019-10-12T15:38:38.837Z</time>
      </trkpt>
      <trkpt lat="20.261025" lon="-98.73372667">
        <ele>1861.0</ele>
        <time>2019-10-12T15:38:39.837Z</time>
      </trkpt>
      <trkpt lat="20.26103333" lon="-98.73370833">
        <ele>1860.0</ele>
        <time>2019-10-12T15:38:40.838Z</time>
      </trkpt>
      <trkpt lat="20.261045" lon="-98.73369333">
        <ele>1860.0</ele>
        <time>2019-10-12T15:38:41.839Z</time>
      </trkpt>
      <trkpt lat="20.26105333" lon="-98.733695">
        <ele>1860.0</ele>
        <time>2019-10-12T15:38:42.840Z</time>
      </trkpt>
      <trkpt lat="20.26106333" lon="-98.7337">
        <ele>1860.0</ele>
        <time>2019-10-12T15:38:43.840Z</time>
      </trkpt>
      <trkpt lat="20.26107333" lon="-98.73370667">
        <ele>1860.0</ele>
        <time>2019-10-12T15:38:44.841Z</time>
      </trkpt>
      <trkpt lat="20.26108833" lon="-98.733715">
        <ele>1860.0</ele>
        <time>2019-10-12T15:38:45.842Z</time>
      </trkpt>
      <trkpt lat="20.26110333" lon="-98.73372333">
        <ele>1860.0</ele>
        <time>2019-10-12T15:38:46.848Z</time>
      </trkpt>
      <trkpt lat="20.26111833" lon="-98.73373667">
        <ele>1858.0</ele>
        <time>2019-10-12T15:38:47.854Z</time>
      </trkpt>
      <trkpt lat="20.26113" lon="-98.73375">
        <ele>1857.0</ele>
        <time>2019-10-12T15:38:48.859Z</time>
      </trkpt>
      <trkpt lat="20.26114333" lon="-98.733765">
        <ele>1856.0</ele>
        <time>2019-10-12T15:38:49.862Z</time>
      </trkpt>
      <trkpt lat="20.26116" lon="-98.73377833">
        <ele>1855.0</ele>
        <time>2019-10-12T15:38:50.867Z</time>
      </trkpt>
      <trkpt lat="20.26117667" lon="-98.73378833">
        <ele>1855.0</ele>
        <time>2019-10-12T15:38:51.868Z</time>
      </trkpt>
      <trkpt lat="20.26119167" lon="-98.73379667">
        <ele>1855.0</ele>
        <time>2019-10-12T15:38:52.868Z</time>
      </trkpt>
      <trkpt lat="20.261205" lon="-98.73380667">
        <ele>1854.0</ele>
        <time>2019-10-12T15:38:53.873Z</time>
      </trkpt>
      <trkpt lat="20.261215" lon="-98.73382333">
        <ele>1852.0</ele>
        <time>2019-10-12T15:38:54.880Z</time>
      </trkpt>
      <trkpt lat="20.261225" lon="-98.73383667">
        <ele>1851.0</ele>
        <time>2019-10-12T15:38:55.881Z</time>
      </trkpt>
      <trkpt lat="20.26124333" lon="-98.73385">
        <ele>1850.0</ele>
        <time>2019-10-12T15:38:56.882Z</time>
      </trkpt>
      <trkpt lat="20.26125833" lon="-98.73385333">
        <ele>1849.0</ele>
        <time>2019-10-12T15:38:57.888Z</time>
      </trkpt>
      <trkpt lat="20.26127167" lon="-98.73384667">
        <ele>1849.0</ele>
        <time>2019-10-12T15:38:58.894Z</time>
      </trkpt>
      <trkpt lat="20.26128333" lon="-98.73383333">
        <ele>1849.0</ele>
        <time>2019-10-12T15:38:59.900Z</time>
      </trkpt>
      <trkpt lat="20.26129" lon="-98.73381667">
        <ele>1848.0</ele>
        <time>2019-10-12T15:39:00.900Z</time>
      </trkpt>
      <trkpt lat="20.26129167" lon="-98.733795">
        <ele>1848.0</ele>
        <time>2019-10-12T15:39:01.904Z</time>
      </trkpt>
      <trkpt lat="20.26129833" lon="-98.733775">
        <ele>1848.0</ele>
        <time>2019-10-12T15:39:02.911Z</time>
      </trkpt>
      <trkpt lat="20.26130333" lon="-98.73376667">
        <ele>1848.0</ele>
        <time>2019-10-12T15:39:03.917Z</time>
      </trkpt>
      <trkpt lat="20.26131333" lon="-98.73375667">
        <ele>1848.0</ele>
        <time>2019-10-12T15:39:04.919Z</time>
      </trkpt>
      <trkpt lat="20.26132667" lon="-98.733745">
        <ele>1848.0</ele>
        <time>2019-10-12T15:39:05.920Z</time>
      </trkpt>
      <trkpt lat="20.26133833" lon="-98.733735">
        <ele>1848.0</ele>
        <time>2019-10-12T15:39:06.920Z</time>
      </trkpt>
      <trkpt lat="20.26134833" lon="-98.73372333">
        <ele>1848.0</ele>
        <time>2019-10-12T15:39:07.921Z</time>
      </trkpt>
      <trkpt lat="20.26135833" lon="-98.73371">
        <ele>1848.0</ele>
        <time>2019-10-12T15:39:08.922Z</time>
      </trkpt>
      <trkpt lat="20.26136833" lon="-98.73369667">
        <ele>1847.0</ele>
        <time>2019-10-12T15:39:09.923Z</time>
      </trkpt>
      <trkpt lat="20.26137833" lon="-98.733685">
        <ele>1847.0</ele>
        <time>2019-10-12T15:39:10.927Z</time>
      </trkpt>
      <trkpt lat="20.26139167" lon="-98.73367">
        <ele>1846.0</ele>
        <time>2019-10-12T15:39:11.935Z</time>
      </trkpt>
      <trkpt lat="20.261405" lon="-98.73366333">
        <ele>1845.0</ele>
        <time>2019-10-12T15:39:12.941Z</time>
      </trkpt>
      <trkpt lat="20.261415" lon="-98.733655">
        <ele>1845.0</ele>
        <time>2019-10-12T15:39:13.944Z</time>
      </trkpt>
      <trkpt lat="20.26143" lon="-98.73364167">
        <ele>1845.0</ele>
        <time>2019-10-12T15:39:14.950Z</time>
      </trkpt>
      <trkpt lat="20.26144" lon="-98.73362833">
        <ele>1844.0</ele>
        <time>2019-10-12T15:39:15.953Z</time>
      </trkpt>
      <trkpt lat="20.261455" lon="-98.73361333">
        <ele>1843.0</ele>
        <time>2019-10-12T15:39:16.833Z</time>
      </trkpt>
      <trkpt lat="20.26146833" lon="-98.73359667">
        <ele>1841.0</ele>
        <time>2019-10-12T15:39:17.840Z</time>
      </trkpt>
      <trkpt lat="20.26147833" lon="-98.73358667">
        <ele>1841.0</ele>
        <time>2019-10-12T15:39:18.847Z</time>
      </trkpt>
      <trkpt lat="20.26149167" lon="-98.73358">
        <ele>1840.0</ele>
        <time>2019-10-12T15:39:19.852Z</time>
      </trkpt>
      <trkpt lat="20.26150167" lon="-98.73358">
        <ele>1840.0</ele>
        <time>2019-10-12T15:39:20.857Z</time>
      </trkpt>
      <trkpt lat="20.26151333" lon="-98.73358333">
        <ele>1839.0</ele>
        <time>2019-10-12T15:39:21.861Z</time>
      </trkpt>
      <trkpt lat="20.26152167" lon="-98.73359167">
        <ele>1838.0</ele>
        <time>2019-10-12T15:39:22.867Z</time>
      </trkpt>
      <trkpt lat="20.261525" lon="-98.73360333">
        <ele>1837.0</ele>
        <time>2019-10-12T15:39:23.871Z</time>
      </trkpt>
      <trkpt lat="20.26153167" lon="-98.73361667">
        <ele>1836.0</ele>
        <time>2019-10-12T15:39:24.872Z</time>
      </trkpt>
      <trkpt lat="20.26153833" lon="-98.73362333">
        <ele>1835.0</ele>
        <time>2019-10-12T15:39:25.873Z</time>
      </trkpt>
      <trkpt lat="20.26154667" lon="-98.73362">
        <ele>1834.0</ele>
        <time>2019-10-12T15:39:26.874Z</time>
      </trkpt>
      <trkpt lat="20.26156" lon="-98.733615">
        <ele>1832.0</ele>
        <time>2019-10-12T15:39:27.878Z</time>
      </trkpt>
      <trkpt lat="20.26156833" lon="-98.73360333">
        <ele>1833.0</ele>
        <time>2019-10-12T15:39:28.885Z</time>
      </trkpt>
      <trkpt lat="20.26157833" lon="-98.73358667">
        <ele>1834.0</ele>
        <time>2019-10-12T15:39:29.889Z</time>
      </trkpt>
      <trkpt lat="20.26158333" lon="-98.73357833">
        <ele>1833.0</ele>
        <time>2019-10-12T15:39:30.891Z</time>
      </trkpt>
      <trkpt lat="20.26159" lon="-98.73357833">
        <ele>1832.0</ele>
        <time>2019-10-12T15:39:31.897Z</time>
      </trkpt>
      <trkpt lat="20.26159667" lon="-98.73358167">
        <ele>1830.0</ele>
        <time>2019-10-12T15:39:32.902Z</time>
      </trkpt>
      <trkpt lat="20.26159833" lon="-98.73359833">
        <ele>1828.0</ele>
        <time>2019-10-12T15:39:33.908Z</time>
      </trkpt>
      <trkpt lat="20.2616" lon="-98.73361167">
        <ele>1827.0</ele>
        <time>2019-10-12T15:39:34.911Z</time>
      </trkpt>
      <trkpt lat="20.261605" lon="-98.73362833">
        <ele>1826.0</ele>
        <time>2019-10-12T15:39:35.912Z</time>
      </trkpt>
      <trkpt lat="20.26161" lon="-98.73364333">
        <ele>1825.0</ele>
        <time>2019-10-12T15:39:36.914Z</time>
      </trkpt>
      <trkpt lat="20.261615" lon="-98.73366">
        <ele>1825.0</ele>
        <time>2019-10-12T15:39:37.919Z</time>
      </trkpt>
      <trkpt lat="20.261625" lon="-98.733675">
        <ele>1823.0</ele>
        <time>2019-10-12T15:39:38.924Z</time>
      </trkpt>
      <trkpt lat="20.26163333" lon="-98.73367833">
        <ele>1823.0</ele>
        <time>2019-10-12T15:39:39.930Z</time>
      </trkpt>
      <trkpt lat="20.26164333" lon="-98.73367667">
        <ele>1824.0</ele>
        <time>2019-10-12T15:39:40.933Z</time>
      </trkpt>
      <trkpt lat="20.26165167" lon="-98.733665">
        <ele>1824.0</ele>
        <time>2019-10-12T15:39:41.937Z</time>
      </trkpt>
      <trkpt lat="20.26166" lon="-98.73365333">
        <ele>1825.0</ele>
        <time>2019-10-12T15:39:42.942Z</time>
      </trkpt>
      <trkpt lat="20.26166667" lon="-98.733645">
        <ele>1825.0</ele>
        <time>2019-10-12T15:39:43.949Z</time>
      </trkpt>
      <trkpt lat="20.26167333" lon="-98.73363667">
        <ele>1825.0</ele>
        <time>2019-10-12T15:39:44.950Z</time>
      </trkpt>
      <trkpt lat="20.26168167" lon="-98.73362833">
        <ele>1825.0</ele>
        <time>2019-10-12T15:39:45.951Z</time>
      </trkpt>
      <trkpt lat="20.26168333" lon="-98.73362667">
        <ele>1824.0</ele>
        <time>2019-10-12T15:39:46.830Z</time>
      </trkpt>
      <trkpt lat="20.26168667" lon="-98.733625">
        <ele>1824.0</ele>
        <time>2019-10-12T15:39:47.838Z</time>
      </trkpt>
      <trkpt lat="20.26168833" lon="-98.73362333">
        <ele>1824.0</ele>
        <time>2019-10-12T15:39:48.844Z</time>
      </trkpt>
      <trkpt lat="20.26168833" lon="-98.73362333">
        <ele>1824.0</ele>
        <time>2019-10-12T15:39:49.845Z</time>
      </trkpt>
      <trkpt lat="20.26169667" lon="-98.73362333">
        <ele>1824.0</ele>
        <time>2019-10-12T15:39:50.851Z</time>
      </trkpt>
      <trkpt lat="20.26170167" lon="-98.73362333">
        <ele>1823.0</ele>
        <time>2019-10-12T15:39:51.856Z</time>
      </trkpt>
      <trkpt lat="20.26170833" lon="-98.733615">
        <ele>1824.0</ele>
        <time>2019-10-12T15:39:52.861Z</time>
      </trkpt>
      <trkpt lat="20.261715" lon="-98.733605">
        <ele>1824.0</ele>
        <time>2019-10-12T15:39:53.867Z</time>
      </trkpt>
      <trkpt lat="20.26171667" lon="-98.733595">
        <ele>1824.0</ele>
        <time>2019-10-12T15:39:54.874Z</time>
      </trkpt>
      <trkpt lat="20.26172167" lon="-98.73359167">
        <ele>1824.0</ele>
        <time>2019-10-12T15:39:55.879Z</time>
      </trkpt>
      <trkpt lat="20.26172667" lon="-98.73359167">
        <ele>1824.0</ele>
        <time>2019-10-12T15:39:56.882Z</time>
      </trkpt>
      <trkpt lat="20.26173" lon="-98.73359333">
        <ele>1826.0</ele>
        <time>2019-10-12T15:39:57.888Z</time>
      </trkpt>
      <trkpt lat="20.261735" lon="-98.73359833">
        <ele>1828.0</ele>
        <time>2019-10-12T15:39:58.895Z</time>
      </trkpt>
      <trkpt lat="20.26173667" lon="-98.73360833">
        <ele>1829.0</ele>
        <time>2019-10-12T15:39:59.900Z</time>
      </trkpt>
      <trkpt lat="20.26174" lon="-98.73362">
        <ele>1830.0</ele>
        <time>2019-10-12T15:40:00.900Z</time>
      </trkpt>
      <trkpt lat="20.261745" lon="-98.73363333">
        <ele>1829.0</ele>
        <time>2019-10-12T15:40:01.901Z</time>
      </trkpt>
      <trkpt lat="20.26174833" lon="-98.73364667">
        <ele>1831.0</ele>
        <time>2019-10-12T15:40:02.902Z</time>
      </trkpt>
      <trkpt lat="20.26175167" lon="-98.73365833">
        <ele>1832.0</ele>
        <time>2019-10-12T15:40:03.906Z</time>
      </trkpt>
      <trkpt lat="20.26175833" lon="-98.733665">
        <ele>1832.0</ele>
        <time>2019-10-12T15:40:04.913Z</time>
      </trkpt>
      <trkpt lat="20.26176333" lon="-98.73366667">
        <ele>1832.0</ele>
        <time>2019-10-12T15:40:05.918Z</time>
      </trkpt>
      <trkpt lat="20.26176833" lon="-98.73366333">
        <ele>1832.0</ele>
        <time>2019-10-12T15:40:06.922Z</time>
      </trkpt>
      <trkpt lat="20.261775" lon="-98.73365333">
        <ele>1831.0</ele>
        <time>2019-10-12T15:40:07.928Z</time>
      </trkpt>
      <trkpt lat="20.26178" lon="-98.73364333">
        <ele>1831.0</ele>
        <time>2019-10-12T15:40:08.934Z</time>
      </trkpt>
      <trkpt lat="20.261785" lon="-98.733635">
        <ele>1830.0</ele>
        <time>2019-10-12T15:40:09.939Z</time>
      </trkpt>
      <trkpt lat="20.26179167" lon="-98.733635">
        <ele>1831.0</ele>
        <time>2019-10-12T15:40:10.946Z</time>
      </trkpt>
      <trkpt lat="20.26179333" lon="-98.73363667">
        <ele>1832.0</ele>
        <time>2019-10-12T15:40:11.952Z</time>
      </trkpt>
      <trkpt lat="20.26179667" lon="-98.73364">
        <ele>1832.0</ele>
        <time>2019-10-12T15:40:12.833Z</time>
      </trkpt>
      <trkpt lat="20.26179833" lon="-98.73365">
        <ele>1832.0</ele>
        <time>2019-10-12T15:40:13.839Z</time>
      </trkpt>
      <trkpt lat="20.26180333" lon="-98.73366">
        <ele>1831.0</ele>
        <time>2019-10-12T15:40:14.847Z</time>
      </trkpt>
      <trkpt lat="20.26181167" lon="-98.73366667">
        <ele>1830.0</ele>
        <time>2019-10-12T15:40:15.850Z</time>
      </trkpt>
      <trkpt lat="20.26182667" lon="-98.73366833">
        <ele>1828.0</ele>
        <time>2019-10-12T15:40:16.851Z</time>
      </trkpt>
      <trkpt lat="20.26184167" lon="-98.73366833">
        <ele>1826.0</ele>
        <time>2019-10-12T15:40:17.852Z</time>
      </trkpt>
      <trkpt lat="20.26185667" lon="-98.73366167">
        <ele>1825.0</ele>
        <time>2019-10-12T15:40:18.853Z</time>
      </trkpt>
      <trkpt lat="20.26186667" lon="-98.73365833">
        <ele>1824.0</ele>
        <time>2019-10-12T15:40:19.853Z</time>
      </trkpt>
      <trkpt lat="20.26187167" lon="-98.73365667">
        <ele>1823.0</ele>
        <time>2019-10-12T15:40:20.854Z</time>
      </trkpt>
      <trkpt lat="20.261875" lon="-98.73365667">
        <ele>1823.0</ele>
        <time>2019-10-12T15:40:21.855Z</time>
      </trkpt>
      <trkpt lat="20.26187167" lon="-98.73366167">
        <ele>1822.0</ele>
        <time>2019-10-12T15:40:22.856Z</time>
      </trkpt>
      <trkpt lat="20.26187" lon="-98.73367">
        <ele>1822.0</ele>
        <time>2019-10-12T15:40:23.857Z</time>
      </trkpt>
      <trkpt lat="20.26187" lon="-98.73367833">
        <ele>1820.0</ele>
        <time>2019-10-12T15:40:24.859Z</time>
      </trkpt>
      <trkpt lat="20.26187" lon="-98.733685">
        <ele>1819.0</ele>
        <time>2019-10-12T15:40:25.866Z</time>
      </trkpt>
      <trkpt lat="20.261865" lon="-98.73369167">
        <ele>1818.0</ele>
        <time>2019-10-12T15:40:26.871Z</time>
      </trkpt>
      <trkpt lat="20.26186833" lon="-98.733705">
        <ele>1817.0</ele>
        <time>2019-10-12T15:40:27.875Z</time>
      </trkpt>
      <trkpt lat="20.26187667" lon="-98.73371333">
        <ele>1816.0</ele>
        <time>2019-10-12T15:40:28.882Z</time>
      </trkpt>
      <trkpt lat="20.26188833" lon="-98.73371667">
        <ele>1815.0</ele>
        <time>2019-10-12T15:40:29.889Z</time>
      </trkpt>
      <trkpt lat="20.2619" lon="-98.73371167">
        <ele>1814.0</ele>
        <time>2019-10-12T15:40:30.893Z</time>
      </trkpt>
      <trkpt lat="20.26191667" lon="-98.73370167">
        <ele>1812.0</ele>
        <time>2019-10-12T15:40:31.895Z</time>
      </trkpt>
      <trkpt lat="20.26192833" lon="-98.73369667">
        <ele>1812.0</ele>
        <time>2019-10-12T15:40:32.900Z</time>
      </trkpt>
      <trkpt lat="20.26194" lon="-98.733685">
        <ele>1811.0</ele>
        <time>2019-10-12T15:40:33.901Z</time>
      </trkpt>
      <trkpt lat="20.26195" lon="-98.73367">
        <ele>1811.0</ele>
        <time>2019-10-12T15:40:34.905Z</time>
      </trkpt>
      <trkpt lat="20.26196" lon="-98.73366167">
        <ele>1810.0</ele>
        <time>2019-10-12T15:40:35.911Z</time>
      </trkpt>
      <trkpt lat="20.261965" lon="-98.73365667">
        <ele>1810.0</ele>
        <time>2019-10-12T15:40:36.914Z</time>
      </trkpt>
      <trkpt lat="20.261965" lon="-98.73365333">
        <ele>1810.0</ele>
        <time>2019-10-12T15:40:37.920Z</time>
      </trkpt>
      <trkpt lat="20.26196333" lon="-98.73365667">
        <ele>1810.0</ele>
        <time>2019-10-12T15:40:38.926Z</time>
      </trkpt>
      <trkpt lat="20.261965" lon="-98.73366833">
        <ele>1810.0</ele>
        <time>2019-10-12T15:40:39.929Z</time>
      </trkpt>
      <trkpt lat="20.261965" lon="-98.73367833">
        <ele>1810.0</ele>
        <time>2019-10-12T15:40:40.933Z</time>
      </trkpt>
      <trkpt lat="20.26196167" lon="-98.73369">
        <ele>1809.0</ele>
        <time>2019-10-12T15:40:41.933Z</time>
      </trkpt>
      <trkpt lat="20.26196" lon="-98.73369667">
        <ele>1809.0</ele>
        <time>2019-10-12T15:40:42.934Z</time>
      </trkpt>
      <trkpt lat="20.26196167" lon="-98.733705">
        <ele>1810.0</ele>
        <time>2019-10-12T15:40:43.935Z</time>
      </trkpt>
      <trkpt lat="20.26196833" lon="-98.73371333">
        <ele>1811.0</ele>
        <time>2019-10-12T15:40:44.936Z</time>
      </trkpt>
      <trkpt lat="20.261975" lon="-98.73371833">
        <ele>1811.0</ele>
        <time>2019-10-12T15:40:45.937Z</time>
      </trkpt>
      <trkpt lat="20.26198333" lon="-98.73372">
        <ele>1812.0</ele>
        <time>2019-10-12T15:40:46.937Z</time>
      </trkpt>
      <trkpt lat="20.26199167" lon="-98.73372167">
        <ele>1812.0</ele>
        <time>2019-10-12T15:40:47.938Z</time>
      </trkpt>
      <trkpt lat="20.261995" lon="-98.73372667">
        <ele>1812.0</ele>
        <time>2019-10-12T15:40:48.939Z</time>
      </trkpt>
      <trkpt lat="20.26199667" lon="-98.73373">
        <ele>1811.0</ele>
        <time>2019-10-12T15:40:49.939Z</time>
      </trkpt>
      <trkpt lat="20.26199833" lon="-98.733735">
        <ele>1810.0</ele>
        <time>2019-10-12T15:40:50.941Z</time>
      </trkpt>
      <trkpt lat="20.262" lon="-98.733735">
        <ele>1810.0</ele>
        <time>2019-10-12T15:40:51.942Z</time>
      </trkpt>
      <trkpt lat="20.26199833" lon="-98.733735">
        <ele>1810.0</ele>
        <time>2019-10-12T15:40:52.948Z</time>
      </trkpt>
      <trkpt lat="20.26199833" lon="-98.73373667">
        <ele>1810.0</ele>
        <time>2019-10-12T15:40:53.950Z</time>
      </trkpt>
      <trkpt lat="20.261995" lon="-98.73374">
        <ele>1810.0</ele>
        <time>2019-10-12T15:40:54.953Z</time>
      </trkpt>
      <trkpt lat="20.26198833" lon="-98.73374">
        <ele>1810.0</ele>
        <time>2019-10-12T15:40:55.835Z</time>
      </trkpt>
      <trkpt lat="20.26198667" lon="-98.73374167">
        <ele>1810.0</ele>
        <time>2019-10-12T15:40:56.841Z</time>
      </trkpt>
      <trkpt lat="20.26198667" lon="-98.73374333">
        <ele>1811.0</ele>
        <time>2019-10-12T15:40:57.842Z</time>
      </trkpt>
      <trkpt lat="20.261985" lon="-98.73374167">
        <ele>1812.0</ele>
        <time>2019-10-12T15:40:58.843Z</time>
      </trkpt>
      <trkpt lat="20.26198667" lon="-98.73374">
        <ele>1812.0</ele>
        <time>2019-10-12T15:40:59.844Z</time>
      </trkpt>
      <trkpt lat="20.26198833" lon="-98.73373667">
        <ele>1812.0</ele>
        <time>2019-10-12T15:41:00.845Z</time>
      </trkpt>
      <trkpt lat="20.26199167" lon="-98.73373667">
        <ele>1811.0</ele>
        <time>2019-10-12T15:41:01.849Z</time>
      </trkpt>
      <trkpt lat="20.26199333" lon="-98.733735">
        <ele>1811.0</ele>
        <time>2019-10-12T15:41:02.853Z</time>
      </trkpt>
      <trkpt lat="20.26199333" lon="-98.733735">
        <ele>1811.0</ele>
        <time>2019-10-12T15:41:03.856Z</time>
      </trkpt>
      <trkpt lat="20.26199333" lon="-98.733735">
        <ele>1811.0</ele>
        <time>2019-10-12T15:41:04.858Z</time>
      </trkpt>
      <trkpt lat="20.26199333" lon="-98.733735">
        <ele>1811.0</ele>
        <time>2019-10-12T15:41:05.863Z</time>
      </trkpt>
      <trkpt lat="20.26199333" lon="-98.733735">
        <ele>1811.0</ele>
        <time>2019-10-12T15:41:06.865Z</time>
      </trkpt>
      <trkpt lat="20.26199333" lon="-98.733735">
        <ele>1811.0</ele>
        <time>2019-10-12T15:41:07.872Z</time>
      </trkpt>
      <trkpt lat="20.26199333" lon="-98.733735">
        <ele>1811.0</ele>
        <time>2019-10-12T15:41:08.878Z</time>
      </trkpt>
      <trkpt lat="20.26214167" lon="-98.733705">
        <ele>1803.0</ele>
        <time>2019-10-12T15:41:10.889Z</time>
      </trkpt>
      <trkpt lat="20.26214833" lon="-98.733705">
        <ele>1803.0</ele>
        <time>2019-10-12T15:41:11.896Z</time>
      </trkpt>
      <trkpt lat="20.26215333" lon="-98.733705">
        <ele>1803.0</ele>
        <time>2019-10-12T15:41:12.901Z</time>
      </trkpt>
      <trkpt lat="20.26215833" lon="-98.733705">
        <ele>1803.0</ele>
        <time>2019-10-12T15:41:13.907Z</time>
      </trkpt>
      <trkpt lat="20.26216" lon="-98.733705">
        <ele>1802.0</ele>
        <time>2019-10-12T15:41:14.913Z</time>
      </trkpt>
      <trkpt lat="20.26216333" lon="-98.73370333">
        <ele>1802.0</ele>
        <time>2019-10-12T15:41:15.917Z</time>
      </trkpt>
      <trkpt lat="20.262165" lon="-98.73370333">
        <ele>1801.0</ele>
        <time>2019-10-12T15:41:16.920Z</time>
      </trkpt>
      <trkpt lat="20.26216667" lon="-98.73370333">
        <ele>1801.0</ele>
        <time>2019-10-12T15:41:17.927Z</time>
      </trkpt>
      <trkpt lat="20.26216833" lon="-98.7337">
        <ele>1801.0</ele>
        <time>2019-10-12T15:41:18.931Z</time>
      </trkpt>
      <trkpt lat="20.26216833" lon="-98.7337">
        <ele>1801.0</ele>
        <time>2019-10-12T15:41:19.934Z</time>
      </trkpt>
      <trkpt lat="20.262165" lon="-98.73369667">
        <ele>1802.0</ele>
        <time>2019-10-12T15:41:20.938Z</time>
      </trkpt>
      <trkpt lat="20.262155" lon="-98.73369167">
        <ele>1805.0</ele>
        <time>2019-10-12T15:41:21.944Z</time>
      </trkpt>
      <trkpt lat="20.26214667" lon="-98.73368667">
        <ele>1805.0</ele>
        <time>2019-10-12T15:41:22.950Z</time>
      </trkpt>
      <trkpt lat="20.26214167" lon="-98.73367833">
        <ele>1806.0</ele>
        <time>2019-10-12T15:41:23.830Z</time>
      </trkpt>
      <trkpt lat="20.26214333" lon="-98.73367333">
        <ele>1806.0</ele>
        <time>2019-10-12T15:41:24.833Z</time>
      </trkpt>
      <trkpt lat="20.26214333" lon="-98.733675">
        <ele>1806.0</ele>
        <time>2019-10-12T15:41:25.837Z</time>
      </trkpt>
      <trkpt lat="20.26214667" lon="-98.73367333">
        <ele>1806.0</ele>
        <time>2019-10-12T15:41:26.838Z</time>
      </trkpt>
      <trkpt lat="20.26214667" lon="-98.73367167">
        <ele>1807.0</ele>
        <time>2019-10-12T15:41:27.838Z</time>
      </trkpt>
      <trkpt lat="20.262145" lon="-98.73367167">
        <ele>1807.0</ele>
        <time>2019-10-12T15:41:28.838Z</time>
      </trkpt>
      <trkpt lat="20.26214833" lon="-98.733675">
        <ele>1805.0</ele>
        <time>2019-10-12T15:41:29.838Z</time>
      </trkpt>
      <trkpt lat="20.26214833" lon="-98.733675">
        <ele>1805.0</ele>
        <time>2019-10-12T15:41:30.841Z</time>
      </trkpt>
      <trkpt lat="20.26215333" lon="-98.73367833">
        <ele>1805.0</ele>
        <time>2019-10-12T15:41:31.846Z</time>
      </trkpt>
      <trkpt lat="20.26215667" lon="-98.73368167">
        <ele>1804.0</ele>
        <time>2019-10-12T15:41:32.852Z</time>
      </trkpt>
      <trkpt lat="20.26216333" lon="-98.73368333">
        <ele>1803.0</ele>
        <time>2019-10-12T15:41:33.858Z</time>
      </trkpt>
      <trkpt lat="20.26217333" lon="-98.73368833">
        <ele>1802.0</ele>
        <time>2019-10-12T15:41:34.862Z</time>
      </trkpt>
      <trkpt lat="20.26218" lon="-98.73369167">
        <ele>1801.0</ele>
        <time>2019-10-12T15:41:35.870Z</time>
      </trkpt>
      <trkpt lat="20.26218667" lon="-98.73369333">
        <ele>1800.0</ele>
        <time>2019-10-12T15:41:36.876Z</time>
      </trkpt>
      <trkpt lat="20.26219667" lon="-98.73369333">
        <ele>1800.0</ele>
        <time>2019-10-12T15:41:37.883Z</time>
      </trkpt>
      <trkpt lat="20.262205" lon="-98.73369667">
        <ele>1799.0</ele>
        <time>2019-10-12T15:41:38.891Z</time>
      </trkpt>
      <trkpt lat="20.262215" lon="-98.733695">
        <ele>1799.0</ele>
        <time>2019-10-12T15:41:39.897Z</time>
      </trkpt>
      <trkpt lat="20.26222333" lon="-98.733695">
        <ele>1798.0</ele>
        <time>2019-10-12T15:41:40.900Z</time>
      </trkpt>
      <trkpt lat="20.26223" lon="-98.73369333">
        <ele>1798.0</ele>
        <time>2019-10-12T15:41:41.904Z</time>
      </trkpt>
      <trkpt lat="20.26223833" lon="-98.73369167">
        <ele>1797.0</ele>
        <time>2019-10-12T15:41:42.908Z</time>
      </trkpt>
      <trkpt lat="20.26224667" lon="-98.73369167">
        <ele>1797.0</ele>
        <time>2019-10-12T15:41:43.910Z</time>
      </trkpt>
      <trkpt lat="20.262255" lon="-98.733695">
        <ele>1797.0</ele>
        <time>2019-10-12T15:41:44.917Z</time>
      </trkpt>
      <trkpt lat="20.26226333" lon="-98.73370333">
        <ele>1797.0</ele>
        <time>2019-10-12T15:41:45.922Z</time>
      </trkpt>
      <trkpt lat="20.26227" lon="-98.73370833">
        <ele>1797.0</ele>
        <time>2019-10-12T15:41:46.923Z</time>
      </trkpt>
      <trkpt lat="20.26227333" lon="-98.73371667">
        <ele>1797.0</ele>
        <time>2019-10-12T15:41:47.929Z</time>
      </trkpt>
      <trkpt lat="20.26227833" lon="-98.73372333">
        <ele>1797.0</ele>
        <time>2019-10-12T15:41:48.934Z</time>
      </trkpt>
      <trkpt lat="20.262285" lon="-98.73373167">
        <ele>1796.0</ele>
        <time>2019-10-12T15:41:49.936Z</time>
      </trkpt>
      <trkpt lat="20.262295" lon="-98.73373833">
        <ele>1796.0</ele>
        <time>2019-10-12T15:41:50.940Z</time>
      </trkpt>
      <trkpt lat="20.26230667" lon="-98.73374667">
        <ele>1795.0</ele>
        <time>2019-10-12T15:41:51.945Z</time>
      </trkpt>
      <trkpt lat="20.262315" lon="-98.733755">
        <ele>1795.0</ele>
        <time>2019-10-12T15:41:52.946Z</time>
      </trkpt>
      <trkpt lat="20.26232333" lon="-98.73376167">
        <ele>1794.0</ele>
        <time>2019-10-12T15:41:53.949Z</time>
      </trkpt>
      <trkpt lat="20.26233167" lon="-98.73376667">
        <ele>1793.0</ele>
        <time>2019-10-12T15:41:54.830Z</time>
      </trkpt>
      <trkpt lat="20.26233667" lon="-98.733775">
        <ele>1793.0</ele>
        <time>2019-10-12T15:41:55.836Z</time>
      </trkpt>
      <trkpt lat="20.26234" lon="-98.73377833">
        <ele>1794.0</ele>
        <time>2019-10-12T15:41:56.841Z</time>
      </trkpt>
      <trkpt lat="20.26234667" lon="-98.73378333">
        <ele>1794.0</ele>
        <time>2019-10-12T15:41:57.847Z</time>
      </trkpt>
      <trkpt lat="20.26235333" lon="-98.73379667">
        <ele>1794.0</ele>
        <time>2019-10-12T15:41:58.853Z</time>
      </trkpt>
      <trkpt lat="20.26235833" lon="-98.73381">
        <ele>1794.0</ele>
        <time>2019-10-12T15:41:59.858Z</time>
      </trkpt>
      <trkpt lat="20.26235833" lon="-98.73382167">
        <ele>1794.0</ele>
        <time>2019-10-12T15:42:00.859Z</time>
      </trkpt>
      <trkpt lat="20.26235667" lon="-98.73383">
        <ele>1794.0</ele>
        <time>2019-10-12T15:42:01.860Z</time>
      </trkpt>
      <trkpt lat="20.26235167" lon="-98.73383333">
        <ele>1794.0</ele>
        <time>2019-10-12T15:42:02.860Z</time>
      </trkpt>
      <trkpt lat="20.26235" lon="-98.733835">
        <ele>1794.0</ele>
        <time>2019-10-12T15:42:03.861Z</time>
      </trkpt>
      <trkpt lat="20.26234333" lon="-98.73383833">
        <ele>1793.0</ele>
        <time>2019-10-12T15:42:04.862Z</time>
      </trkpt>
      <trkpt lat="20.26233333" lon="-98.73383667">
        <ele>1793.0</ele>
        <time>2019-10-12T15:42:05.863Z</time>
      </trkpt>
      <trkpt lat="20.26232167" lon="-98.733835">
        <ele>1793.0</ele>
        <time>2019-10-12T15:42:06.865Z</time>
      </trkpt>
      <trkpt lat="20.26230333" lon="-98.73382833">
        <ele>1794.0</ele>
        <time>2019-10-12T15:42:07.871Z</time>
      </trkpt>
      <trkpt lat="20.26229" lon="-98.73382333">
        <ele>1793.0</ele>
        <time>2019-10-12T15:42:08.879Z</time>
      </trkpt>
      <trkpt lat="20.26227667" lon="-98.733825">
        <ele>1793.0</ele>
        <time>2019-10-12T15:42:09.882Z</time>
      </trkpt>
      <trkpt lat="20.26226167" lon="-98.73382667">
        <ele>1792.0</ele>
        <time>2019-10-12T15:42:10.884Z</time>
      </trkpt>
      <trkpt lat="20.26224833" lon="-98.73383">
        <ele>1792.0</ele>
        <time>2019-10-12T15:42:11.890Z</time>
      </trkpt>
      <trkpt lat="20.26223667" lon="-98.733835">
        <ele>1792.0</ele>
        <time>2019-10-12T15:42:12.895Z</time>
      </trkpt>
      <trkpt lat="20.26222333" lon="-98.73384">
        <ele>1792.0</ele>
        <time>2019-10-12T15:42:13.902Z</time>
      </trkpt>
      <trkpt lat="20.26220833" lon="-98.73384667">
        <ele>1792.0</ele>
        <time>2019-10-12T15:42:14.907Z</time>
      </trkpt>
      <trkpt lat="20.262195" lon="-98.733855">
        <ele>1792.0</ele>
        <time>2019-10-12T15:42:15.912Z</time>
      </trkpt>
      <trkpt lat="20.26218333" lon="-98.73386333">
        <ele>1791.0</ele>
        <time>2019-10-12T15:42:16.918Z</time>
      </trkpt>
      <trkpt lat="20.26217333" lon="-98.73387167">
        <ele>1791.0</ele>
        <time>2019-10-12T15:42:17.921Z</time>
      </trkpt>
      <trkpt lat="20.26216" lon="-98.73388833">
        <ele>1791.0</ele>
        <time>2019-10-12T15:42:18.927Z</time>
      </trkpt>
      <trkpt lat="20.26215" lon="-98.7339">
        <ele>1791.0</ele>
        <time>2019-10-12T15:42:19.933Z</time>
      </trkpt>
      <trkpt lat="20.26213333" lon="-98.73391333">
        <ele>1790.0</ele>
        <time>2019-10-12T15:42:20.938Z</time>
      </trkpt>
      <trkpt lat="20.26212" lon="-98.73392333">
        <ele>1790.0</ele>
        <time>2019-10-12T15:42:21.938Z</time>
      </trkpt>
      <trkpt lat="20.26211333" lon="-98.73393167">
        <ele>1790.0</ele>
        <time>2019-10-12T15:42:22.942Z</time>
      </trkpt>
      <trkpt lat="20.26210667" lon="-98.73394167">
        <ele>1789.0</ele>
        <time>2019-10-12T15:42:23.947Z</time>
      </trkpt>
      <trkpt lat="20.26209833" lon="-98.73395333">
        <ele>1788.0</ele>
        <time>2019-10-12T15:42:24.953Z</time>
      </trkpt>
      <trkpt lat="20.26209167" lon="-98.73396667">
        <ele>1788.0</ele>
        <time>2019-10-12T15:42:25.832Z</time>
      </trkpt>
      <trkpt lat="20.26208333" lon="-98.73398">
        <ele>1788.0</ele>
        <time>2019-10-12T15:42:26.839Z</time>
      </trkpt>
      <trkpt lat="20.26207667" lon="-98.73398333">
        <ele>1788.0</ele>
        <time>2019-10-12T15:42:27.842Z</time>
      </trkpt>
      <trkpt lat="20.26207333" lon="-98.73398167">
        <ele>1787.0</ele>
        <time>2019-10-12T15:42:28.848Z</time>
      </trkpt>
      <trkpt lat="20.26207" lon="-98.73398">
        <ele>1786.0</ele>
        <time>2019-10-12T15:42:29.855Z</time>
      </trkpt>
      <trkpt lat="20.26206833" lon="-98.73398667">
        <ele>1785.0</ele>
        <time>2019-10-12T15:42:30.861Z</time>
      </trkpt>
      <trkpt lat="20.26206333" lon="-98.73398333">
        <ele>1786.0</ele>
        <time>2019-10-12T15:42:31.865Z</time>
      </trkpt>
      <trkpt lat="20.26205833" lon="-98.73398333">
        <ele>1787.0</ele>
        <time>2019-10-12T15:42:32.868Z</time>
      </trkpt>
      <trkpt lat="20.26205" lon="-98.73398833">
        <ele>1788.0</ele>
        <time>2019-10-12T15:42:33.871Z</time>
      </trkpt>
      <trkpt lat="20.26204833" lon="-98.73399333">
        <ele>1789.0</ele>
        <time>2019-10-12T15:42:34.873Z</time>
      </trkpt>
      <trkpt lat="20.262045" lon="-98.73399833">
        <ele>1791.0</ele>
        <time>2019-10-12T15:42:35.879Z</time>
      </trkpt>
      <trkpt lat="20.262045" lon="-98.734">
        <ele>1791.0</ele>
        <time>2019-10-12T15:42:36.885Z</time>
      </trkpt>
      <trkpt lat="20.26204167" lon="-98.73400167">
        <ele>1791.0</ele>
        <time>2019-10-12T15:42:37.888Z</time>
      </trkpt>
      <trkpt lat="20.262035" lon="-98.73401">
        <ele>1791.0</ele>
        <time>2019-10-12T15:42:38.889Z</time>
      </trkpt>
      <trkpt lat="20.26202833" lon="-98.73401833">
        <ele>1792.0</ele>
        <time>2019-10-12T15:42:39.890Z</time>
      </trkpt>
      <trkpt lat="20.26202167" lon="-98.73402333">
        <ele>1792.0</ele>
        <time>2019-10-12T15:42:40.890Z</time>
      </trkpt>
      <trkpt lat="20.26201333" lon="-98.73403333">
        <ele>1792.0</ele>
        <time>2019-10-12T15:42:41.890Z</time>
      </trkpt>
      <trkpt lat="20.26200333" lon="-98.734045">
        <ele>1792.0</ele>
        <time>2019-10-12T15:42:42.891Z</time>
      </trkpt>
      <trkpt lat="20.261995" lon="-98.734055">
        <ele>1792.0</ele>
        <time>2019-10-12T15:42:43.892Z</time>
      </trkpt>
      <trkpt lat="20.26198333" lon="-98.734065">
        <ele>1793.0</ele>
        <time>2019-10-12T15:42:44.893Z</time>
      </trkpt>
      <trkpt lat="20.26197" lon="-98.73407667">
        <ele>1793.0</ele>
        <time>2019-10-12T15:42:45.894Z</time>
      </trkpt>
      <trkpt lat="20.26195833" lon="-98.73408667">
        <ele>1794.0</ele>
        <time>2019-10-12T15:42:46.895Z</time>
      </trkpt>
      <trkpt lat="20.261945" lon="-98.73410167">
        <ele>1794.0</ele>
        <time>2019-10-12T15:42:47.895Z</time>
      </trkpt>
      <trkpt lat="20.26193333" lon="-98.73411333">
        <ele>1795.0</ele>
        <time>2019-10-12T15:42:48.896Z</time>
      </trkpt>
      <trkpt lat="20.26192167" lon="-98.734125">
        <ele>1796.0</ele>
        <time>2019-10-12T15:42:49.896Z</time>
      </trkpt>
      <trkpt lat="20.26191167" lon="-98.73414">
        <ele>1797.0</ele>
        <time>2019-10-12T15:42:50.898Z</time>
      </trkpt>
      <trkpt lat="20.26190167" lon="-98.73415667">
        <ele>1797.0</ele>
        <time>2019-10-12T15:42:51.899Z</time>
      </trkpt>
      <trkpt lat="20.261895" lon="-98.73416833">
        <ele>1797.0</ele>
        <time>2019-10-12T15:42:52.901Z</time>
      </trkpt>
      <trkpt lat="20.26188" lon="-98.734185">
        <ele>1799.0</ele>
        <time>2019-10-12T15:42:53.907Z</time>
      </trkpt>
      <trkpt lat="20.26186333" lon="-98.734195">
        <ele>1800.0</ele>
        <time>2019-10-12T15:42:54.912Z</time>
      </trkpt>
      <trkpt lat="20.26185" lon="-98.73420667">
        <ele>1801.0</ele>
        <time>2019-10-12T15:42:55.913Z</time>
      </trkpt>
      <trkpt lat="20.261835" lon="-98.73422">
        <ele>1802.0</ele>
        <time>2019-10-12T15:42:56.917Z</time>
      </trkpt>
      <trkpt lat="20.26181833" lon="-98.73423667">
        <ele>1803.0</ele>
        <time>2019-10-12T15:42:57.924Z</time>
      </trkpt>
      <trkpt lat="20.261805" lon="-98.73424667">
        <ele>1803.0</ele>
        <time>2019-10-12T15:42:58.925Z</time>
      </trkpt>
      <trkpt lat="20.26178833" lon="-98.73426">
        <ele>1804.0</ele>
        <time>2019-10-12T15:42:59.926Z</time>
      </trkpt>
      <trkpt lat="20.26177167" lon="-98.73427167">
        <ele>1804.0</ele>
        <time>2019-10-12T15:43:00.926Z</time>
      </trkpt>
      <trkpt lat="20.26175667" lon="-98.73428833">
        <ele>1803.0</ele>
        <time>2019-10-12T15:43:01.930Z</time>
      </trkpt>
      <trkpt lat="20.26173833" lon="-98.73430333">
        <ele>1803.0</ele>
        <time>2019-10-12T15:43:02.932Z</time>
      </trkpt>
      <trkpt lat="20.26172" lon="-98.73431667">
        <ele>1803.0</ele>
        <time>2019-10-12T15:43:03.939Z</time>
      </trkpt>
      <trkpt lat="20.2617" lon="-98.73432667">
        <ele>1803.0</ele>
        <time>2019-10-12T15:43:04.943Z</time>
      </trkpt>
      <trkpt lat="20.26168167" lon="-98.73433333">
        <ele>1803.0</ele>
        <time>2019-10-12T15:43:05.949Z</time>
      </trkpt>
      <trkpt lat="20.261665" lon="-98.73434833">
        <ele>1803.0</ele>
        <time>2019-10-12T15:43:06.953Z</time>
      </trkpt>
      <trkpt lat="20.26165" lon="-98.734365">
        <ele>1803.0</ele>
        <time>2019-10-12T15:43:07.831Z</time>
      </trkpt>
      <trkpt lat="20.26164" lon="-98.73437667">
        <ele>1803.0</ele>
        <time>2019-10-12T15:43:08.838Z</time>
      </trkpt>
      <trkpt lat="20.26162833" lon="-98.734395">
        <ele>1803.0</ele>
        <time>2019-10-12T15:43:09.843Z</time>
      </trkpt>
      <trkpt lat="20.26162" lon="-98.73441667">
        <ele>1804.0</ele>
        <time>2019-10-12T15:43:10.850Z</time>
      </trkpt>
      <trkpt lat="20.26161" lon="-98.73443667">
        <ele>1803.0</ele>
        <time>2019-10-12T15:43:11.851Z</time>
      </trkpt>
      <trkpt lat="20.2616" lon="-98.73446">
        <ele>1802.0</ele>
        <time>2019-10-12T15:43:12.852Z</time>
      </trkpt>
      <trkpt lat="20.26159333" lon="-98.73448167">
        <ele>1801.0</ele>
        <time>2019-10-12T15:43:13.853Z</time>
      </trkpt>
      <trkpt lat="20.26158333" lon="-98.734495">
        <ele>1801.0</ele>
        <time>2019-10-12T15:43:14.854Z</time>
      </trkpt>
      <trkpt lat="20.26157667" lon="-98.73451333">
        <ele>1800.0</ele>
        <time>2019-10-12T15:43:15.856Z</time>
      </trkpt>
      <trkpt lat="20.26156333" lon="-98.73453167">
        <ele>1801.0</ele>
        <time>2019-10-12T15:43:16.862Z</time>
      </trkpt>
      <trkpt lat="20.26154833" lon="-98.73455">
        <ele>1801.0</ele>
        <time>2019-10-12T15:43:17.868Z</time>
      </trkpt>
      <trkpt lat="20.26153667" lon="-98.73457">
        <ele>1802.0</ele>
        <time>2019-10-12T15:43:18.873Z</time>
      </trkpt>
      <trkpt lat="20.26153167" lon="-98.73459167">
        <ele>1803.0</ele>
        <time>2019-10-12T15:43:19.879Z</time>
      </trkpt>
      <trkpt lat="20.261525" lon="-98.73461333">
        <ele>1803.0</ele>
        <time>2019-10-12T15:43:20.881Z</time>
      </trkpt>
      <trkpt lat="20.26151667" lon="-98.73463167">
        <ele>1802.0</ele>
        <time>2019-10-12T15:43:21.888Z</time>
      </trkpt>
      <trkpt lat="20.26150833" lon="-98.73465167">
        <ele>1801.0</ele>
        <time>2019-10-12T15:43:22.895Z</time>
      </trkpt>
      <trkpt lat="20.26149833" lon="-98.73467333">
        <ele>1801.0</ele>
        <time>2019-10-12T15:43:23.900Z</time>
      </trkpt>
      <trkpt lat="20.26148667" lon="-98.73469167">
        <ele>1801.0</ele>
        <time>2019-10-12T15:43:24.904Z</time>
      </trkpt>
      <trkpt lat="20.26147333" lon="-98.73470333">
        <ele>1801.0</ele>
        <time>2019-10-12T15:43:25.908Z</time>
      </trkpt>
      <trkpt lat="20.26146333" lon="-98.734715">
        <ele>1802.0</ele>
        <time>2019-10-12T15:43:26.915Z</time>
      </trkpt>
      <trkpt lat="20.26145333" lon="-98.73473">
        <ele>1803.0</ele>
        <time>2019-10-12T15:43:27.922Z</time>
      </trkpt>
      <trkpt lat="20.26144167" lon="-98.734745">
        <ele>1804.0</ele>
        <time>2019-10-12T15:43:28.926Z</time>
      </trkpt>
      <trkpt lat="20.26142667" lon="-98.73475833">
        <ele>1804.0</ele>
        <time>2019-10-12T15:43:29.927Z</time>
      </trkpt>
      <trkpt lat="20.26141167" lon="-98.73477">
        <ele>1804.0</ele>
        <time>2019-10-12T15:43:30.928Z</time>
      </trkpt>
      <trkpt lat="20.26139667" lon="-98.73478">
        <ele>1804.0</ele>
        <time>2019-10-12T15:43:31.928Z</time>
      </trkpt>
      <trkpt lat="20.26138167" lon="-98.73479167">
        <ele>1803.0</ele>
        <time>2019-10-12T15:43:32.929Z</time>
      </trkpt>
      <trkpt lat="20.26136833" lon="-98.73480333">
        <ele>1803.0</ele>
        <time>2019-10-12T15:43:33.930Z</time>
      </trkpt>
      <trkpt lat="20.26135333" lon="-98.73481">
        <ele>1803.0</ele>
        <time>2019-10-12T15:43:34.930Z</time>
      </trkpt>
      <trkpt lat="20.26133833" lon="-98.73481833">
        <ele>1803.0</ele>
        <time>2019-10-12T15:43:35.931Z</time>
      </trkpt>
      <trkpt lat="20.26132333" lon="-98.73482667">
        <ele>1804.0</ele>
        <time>2019-10-12T15:43:36.931Z</time>
      </trkpt>
      <trkpt lat="20.26130833" lon="-98.73483333">
        <ele>1804.0</ele>
        <time>2019-10-12T15:43:37.933Z</time>
      </trkpt>
      <trkpt lat="20.26129333" lon="-98.73484">
        <ele>1805.0</ele>
        <time>2019-10-12T15:43:38.934Z</time>
      </trkpt>
      <trkpt lat="20.26127833" lon="-98.73484667">
        <ele>1806.0</ele>
        <time>2019-10-12T15:43:39.934Z</time>
      </trkpt>
      <trkpt lat="20.261265" lon="-98.734855">
        <ele>1806.0</ele>
        <time>2019-10-12T15:43:40.935Z</time>
      </trkpt>
      <trkpt lat="20.26124833" lon="-98.734865">
        <ele>1806.0</ele>
        <time>2019-10-12T15:43:41.936Z</time>
      </trkpt>
      <trkpt lat="20.261235" lon="-98.73487">
        <ele>1806.0</ele>
        <time>2019-10-12T15:43:42.936Z</time>
      </trkpt>
      <trkpt lat="20.261215" lon="-98.73488">
        <ele>1807.0</ele>
        <time>2019-10-12T15:43:43.938Z</time>
      </trkpt>
      <trkpt lat="20.26119667" lon="-98.73488667">
        <ele>1808.0</ele>
        <time>2019-10-12T15:43:44.938Z</time>
      </trkpt>
      <trkpt lat="20.26118167" lon="-98.734895">
        <ele>1808.0</ele>
        <time>2019-10-12T15:43:45.939Z</time>
      </trkpt>
      <trkpt lat="20.26116667" lon="-98.73490333">
        <ele>1808.0</ele>
        <time>2019-10-12T15:43:46.940Z</time>
      </trkpt>
      <trkpt lat="20.26115167" lon="-98.73491167">
        <ele>1808.0</ele>
        <time>2019-10-12T15:43:47.940Z</time>
      </trkpt>
      <trkpt lat="20.26113667" lon="-98.73491667">
        <ele>1808.0</ele>
        <time>2019-10-12T15:43:48.941Z</time>
      </trkpt>
      <trkpt lat="20.261115" lon="-98.73493">
        <ele>1808.0</ele>
        <time>2019-10-12T15:43:49.941Z</time>
      </trkpt>
      <trkpt lat="20.26109167" lon="-98.73494167">
        <ele>1807.0</ele>
        <time>2019-10-12T15:43:50.942Z</time>
      </trkpt>
      <trkpt lat="20.26107333" lon="-98.73495">
        <ele>1806.0</ele>
        <time>2019-10-12T15:43:51.943Z</time>
      </trkpt>
      <trkpt lat="20.26105" lon="-98.73496333">
        <ele>1806.0</ele>
        <time>2019-10-12T15:43:52.943Z</time>
      </trkpt>
      <trkpt lat="20.26103" lon="-98.734975">
        <ele>1805.0</ele>
        <time>2019-10-12T15:43:53.944Z</time>
      </trkpt>
      <trkpt lat="20.26100667" lon="-98.73498333">
        <ele>1805.0</ele>
        <time>2019-10-12T15:43:54.944Z</time>
      </trkpt>
      <trkpt lat="20.26098833" lon="-98.73499167">
        <ele>1805.0</ele>
        <time>2019-10-12T15:43:55.946Z</time>
      </trkpt>
      <trkpt lat="20.26096833" lon="-98.73500167">
        <ele>1804.0</ele>
        <time>2019-10-12T15:43:56.947Z</time>
      </trkpt>
      <trkpt lat="20.26095167" lon="-98.73501">
        <ele>1804.0</ele>
        <time>2019-10-12T15:43:57.947Z</time>
      </trkpt>
      <trkpt lat="20.26093" lon="-98.735015">
        <ele>1804.0</ele>
        <time>2019-10-12T15:43:58.948Z</time>
      </trkpt>
      <trkpt lat="20.26090667" lon="-98.73501667">
        <ele>1804.0</ele>
        <time>2019-10-12T15:43:59.948Z</time>
      </trkpt>
      <trkpt lat="20.26088333" lon="-98.73502">
        <ele>1804.0</ele>
        <time>2019-10-12T15:44:00.950Z</time>
      </trkpt>
      <trkpt lat="20.26086333" lon="-98.735025">
        <ele>1804.0</ele>
        <time>2019-10-12T15:44:01.951Z</time>
      </trkpt>
      <trkpt lat="20.260845" lon="-98.73502833">
        <ele>1804.0</ele>
        <time>2019-10-12T15:44:02.952Z</time>
      </trkpt>
      <trkpt lat="20.26082167" lon="-98.735035">
        <ele>1805.0</ele>
        <time>2019-10-12T15:44:03.952Z</time>
      </trkpt>
      <trkpt lat="20.2608" lon="-98.73503833">
        <ele>1804.0</ele>
        <time>2019-10-12T15:44:04.953Z</time>
      </trkpt>
      <trkpt lat="20.26077833" lon="-98.73504">
        <ele>1804.0</ele>
        <time>2019-10-12T15:44:05.953Z</time>
      </trkpt>
      <trkpt lat="20.26074667" lon="-98.73504167">
        <ele>1804.0</ele>
        <time>2019-10-12T15:44:06.830Z</time>
      </trkpt>
      <trkpt lat="20.26072167" lon="-98.73504">
        <ele>1803.0</ele>
        <time>2019-10-12T15:44:07.831Z</time>
      </trkpt>
      <trkpt lat="20.26069333" lon="-98.73503333">
        <ele>1802.0</ele>
        <time>2019-10-12T15:44:08.831Z</time>
      </trkpt>
      <trkpt lat="20.260675" lon="-98.73502833">
        <ele>1801.0</ele>
        <time>2019-10-12T15:44:09.831Z</time>
      </trkpt>
      <trkpt lat="20.26065667" lon="-98.735025">
        <ele>1800.0</ele>
        <time>2019-10-12T15:44:10.831Z</time>
      </trkpt>
      <trkpt lat="20.26063333" lon="-98.73502">
        <ele>1801.0</ele>
        <time>2019-10-12T15:44:11.831Z</time>
      </trkpt>
      <trkpt lat="20.26061333" lon="-98.73501167">
        <ele>1801.0</ele>
        <time>2019-10-12T15:44:12.832Z</time>
      </trkpt>
      <trkpt lat="20.26059833" lon="-98.73500667">
        <ele>1802.0</ele>
        <time>2019-10-12T15:44:13.832Z</time>
      </trkpt>
      <trkpt lat="20.26058167" lon="-98.73499167">
        <ele>1802.0</ele>
        <time>2019-10-12T15:44:14.832Z</time>
      </trkpt>
      <trkpt lat="20.26056833" lon="-98.734985">
        <ele>1802.0</ele>
        <time>2019-10-12T15:44:15.833Z</time>
      </trkpt>
      <trkpt lat="20.260555" lon="-98.73497833">
        <ele>1803.0</ele>
        <time>2019-10-12T15:44:16.833Z</time>
      </trkpt>
      <trkpt lat="20.260535" lon="-98.73497833">
        <ele>1803.0</ele>
        <time>2019-10-12T15:44:17.834Z</time>
      </trkpt>
      <trkpt lat="20.26051667" lon="-98.73497667">
        <ele>1804.0</ele>
        <time>2019-10-12T15:44:18.835Z</time>
      </trkpt>
      <trkpt lat="20.26049833" lon="-98.73497167">
        <ele>1804.0</ele>
        <time>2019-10-12T15:44:19.835Z</time>
      </trkpt>
      <trkpt lat="20.26048333" lon="-98.73496667">
        <ele>1804.0</ele>
        <time>2019-10-12T15:44:20.837Z</time>
      </trkpt>
      <trkpt lat="20.26047167" lon="-98.73496167">
        <ele>1805.0</ele>
        <time>2019-10-12T15:44:21.838Z</time>
      </trkpt>
      <trkpt lat="20.26045167" lon="-98.73495333">
        <ele>1806.0</ele>
        <time>2019-10-12T15:44:22.843Z</time>
      </trkpt>
      <trkpt lat="20.26043833" lon="-98.73494833">
        <ele>1808.0</ele>
        <time>2019-10-12T15:44:23.849Z</time>
      </trkpt>
      <trkpt lat="20.26042833" lon="-98.73493667">
        <ele>1809.0</ele>
        <time>2019-10-12T15:44:24.852Z</time>
      </trkpt>
      <trkpt lat="20.26042167" lon="-98.73492833">
        <ele>1810.0</ele>
        <time>2019-10-12T15:44:25.858Z</time>
      </trkpt>
      <trkpt lat="20.26040833" lon="-98.73491667">
        <ele>1812.0</ele>
        <time>2019-10-12T15:44:26.862Z</time>
      </trkpt>
      <trkpt lat="20.260395" lon="-98.73490667">
        <ele>1814.0</ele>
        <time>2019-10-12T15:44:27.863Z</time>
      </trkpt>
      <trkpt lat="20.260375" lon="-98.73490167">
        <ele>1815.0</ele>
        <time>2019-10-12T15:44:28.864Z</time>
      </trkpt>
      <trkpt lat="20.26035667" lon="-98.734895">
        <ele>1817.0</ele>
        <time>2019-10-12T15:44:29.865Z</time>
      </trkpt>
      <trkpt lat="20.26033833" lon="-98.73489333">
        <ele>1819.0</ele>
        <time>2019-10-12T15:44:30.866Z</time>
      </trkpt>
      <trkpt lat="20.26032" lon="-98.73489333">
        <ele>1820.0</ele>
        <time>2019-10-12T15:44:31.870Z</time>
      </trkpt>
      <trkpt lat="20.26030167" lon="-98.73489167">
        <ele>1822.0</ele>
        <time>2019-10-12T15:44:32.876Z</time>
      </trkpt>
      <trkpt lat="20.26028333" lon="-98.73488833">
        <ele>1823.0</ele>
        <time>2019-10-12T15:44:33.883Z</time>
      </trkpt>
      <trkpt lat="20.26026833" lon="-98.73487833">
        <ele>1824.0</ele>
        <time>2019-10-12T15:44:34.891Z</time>
      </trkpt>
      <trkpt lat="20.26025167" lon="-98.73486667">
        <ele>1825.0</ele>
        <time>2019-10-12T15:44:35.896Z</time>
      </trkpt>
      <trkpt lat="20.26023667" lon="-98.734855">
        <ele>1825.0</ele>
        <time>2019-10-12T15:44:36.900Z</time>
      </trkpt>
      <trkpt lat="20.26021667" lon="-98.73483833">
        <ele>1827.0</ele>
        <time>2019-10-12T15:44:37.904Z</time>
      </trkpt>
      <trkpt lat="20.26020333" lon="-98.73482833">
        <ele>1827.0</ele>
        <time>2019-10-12T15:44:38.911Z</time>
      </trkpt>
      <trkpt lat="20.26019333" lon="-98.73481667">
        <ele>1828.0</ele>
        <time>2019-10-12T15:44:39.912Z</time>
      </trkpt>
      <trkpt lat="20.26018167" lon="-98.73480667">
        <ele>1829.0</ele>
        <time>2019-10-12T15:44:40.912Z</time>
      </trkpt>
      <trkpt lat="20.26016333" lon="-98.73479667">
        <ele>1830.0</ele>
        <time>2019-10-12T15:44:41.913Z</time>
      </trkpt>
      <trkpt lat="20.260145" lon="-98.73478833">
        <ele>1832.0</ele>
        <time>2019-10-12T15:44:42.913Z</time>
      </trkpt>
      <trkpt lat="20.26012833" lon="-98.73478167">
        <ele>1834.0</ele>
        <time>2019-10-12T15:44:43.913Z</time>
      </trkpt>
      <trkpt lat="20.26011167" lon="-98.734775">
        <ele>1837.0</ele>
        <time>2019-10-12T15:44:44.913Z</time>
      </trkpt>
      <trkpt lat="20.26009833" lon="-98.73476833">
        <ele>1840.0</ele>
        <time>2019-10-12T15:44:45.913Z</time>
      </trkpt>
      <trkpt lat="20.26008333" lon="-98.73475667">
        <ele>1843.0</ele>
        <time>2019-10-12T15:44:46.914Z</time>
      </trkpt>
      <trkpt lat="20.26007" lon="-98.73474667">
        <ele>1846.0</ele>
        <time>2019-10-12T15:44:47.914Z</time>
      </trkpt>
      <trkpt lat="20.26005833" lon="-98.73473333">
        <ele>1848.0</ele>
        <time>2019-10-12T15:44:48.914Z</time>
      </trkpt>
      <trkpt lat="20.260045" lon="-98.73472333">
        <ele>1850.0</ele>
        <time>2019-10-12T15:44:49.915Z</time>
      </trkpt>
      <trkpt lat="20.26003167" lon="-98.73471167">
        <ele>1852.0</ele>
        <time>2019-10-12T15:44:50.915Z</time>
      </trkpt>
      <trkpt lat="20.26002" lon="-98.73469667">
        <ele>1854.0</ele>
        <time>2019-10-12T15:44:51.915Z</time>
      </trkpt>
      <trkpt lat="20.26000833" lon="-98.73468333">
        <ele>1855.0</ele>
        <time>2019-10-12T15:44:52.915Z</time>
      </trkpt>
      <trkpt lat="20.25999667" lon="-98.73467">
        <ele>1857.0</ele>
        <time>2019-10-12T15:44:53.915Z</time>
      </trkpt>
      <trkpt lat="20.259985" lon="-98.73465667">
        <ele>1858.0</ele>
        <time>2019-10-12T15:44:54.916Z</time>
      </trkpt>
      <trkpt lat="20.259975" lon="-98.73464333">
        <ele>1859.0</ele>
        <time>2019-10-12T15:44:55.916Z</time>
      </trkpt>
      <trkpt lat="20.25996167" lon="-98.734635">
        <ele>1861.0</ele>
        <time>2019-10-12T15:44:56.916Z</time>
      </trkpt>
      <trkpt lat="20.25995" lon="-98.73462833">
        <ele>1864.0</ele>
        <time>2019-10-12T15:44:57.916Z</time>
      </trkpt>
      <trkpt lat="20.259935" lon="-98.73461833">
        <ele>1865.0</ele>
        <time>2019-10-12T15:44:58.917Z</time>
      </trkpt>
      <trkpt lat="20.25991667" lon="-98.73460667">
        <ele>1867.0</ele>
        <time>2019-10-12T15:44:59.917Z</time>
      </trkpt>
      <trkpt lat="20.25990167" lon="-98.73459">
        <ele>1868.0</ele>
        <time>2019-10-12T15:45:00.918Z</time>
      </trkpt>
      <trkpt lat="20.25988667" lon="-98.73458">
        <ele>1868.0</ele>
        <time>2019-10-12T15:45:01.919Z</time>
      </trkpt>
      <trkpt lat="20.25987" lon="-98.734565">
        <ele>1869.0</ele>
        <time>2019-10-12T15:45:02.920Z</time>
      </trkpt>
      <trkpt lat="20.25985333" lon="-98.73455333">
        <ele>1869.0</ele>
        <time>2019-10-12T15:45:03.921Z</time>
      </trkpt>
      <trkpt lat="20.25983667" lon="-98.73454333">
        <ele>1871.0</ele>
        <time>2019-10-12T15:45:04.921Z</time>
      </trkpt>
      <trkpt lat="20.25982" lon="-98.734535">
        <ele>1873.0</ele>
        <time>2019-10-12T15:45:05.922Z</time>
      </trkpt>
      <trkpt lat="20.25980667" lon="-98.73452833">
        <ele>1874.0</ele>
        <time>2019-10-12T15:45:06.923Z</time>
      </trkpt>
      <trkpt lat="20.25979" lon="-98.73452167">
        <ele>1876.0</ele>
        <time>2019-10-12T15:45:07.924Z</time>
      </trkpt>
      <trkpt lat="20.259775" lon="-98.73451167">
        <ele>1878.0</ele>
        <time>2019-10-12T15:45:08.925Z</time>
      </trkpt>
      <trkpt lat="20.25976" lon="-98.73450333">
        <ele>1880.0</ele>
        <time>2019-10-12T15:45:09.925Z</time>
      </trkpt>
      <trkpt lat="20.259745" lon="-98.734495">
        <ele>1882.0</ele>
        <time>2019-10-12T15:45:10.926Z</time>
      </trkpt>
      <trkpt lat="20.25972833" lon="-98.734485">
        <ele>1883.0</ele>
        <time>2019-10-12T15:45:11.927Z</time>
      </trkpt>
      <trkpt lat="20.25971167" lon="-98.73447333">
        <ele>1884.0</ele>
        <time>2019-10-12T15:45:12.927Z</time>
      </trkpt>
      <trkpt lat="20.259695" lon="-98.73446667">
        <ele>1885.0</ele>
        <time>2019-10-12T15:45:13.928Z</time>
      </trkpt>
      <trkpt lat="20.25968333" lon="-98.73445667">
        <ele>1886.0</ele>
        <time>2019-10-12T15:45:14.929Z</time>
      </trkpt>
      <trkpt lat="20.25966667" lon="-98.73445667">
        <ele>1887.0</ele>
        <time>2019-10-12T15:45:15.930Z</time>
      </trkpt>
      <trkpt lat="20.25965167" lon="-98.73445833">
        <ele>1888.0</ele>
        <time>2019-10-12T15:45:16.931Z</time>
      </trkpt>
      <trkpt lat="20.25963667" lon="-98.73445">
        <ele>1888.0</ele>
        <time>2019-10-12T15:45:17.931Z</time>
      </trkpt>
      <trkpt lat="20.25962" lon="-98.734445">
        <ele>1889.0</ele>
        <time>2019-10-12T15:45:18.932Z</time>
      </trkpt>
      <trkpt lat="20.2596" lon="-98.73443667">
        <ele>1890.0</ele>
        <time>2019-10-12T15:45:19.932Z</time>
      </trkpt>
      <trkpt lat="20.259585" lon="-98.73443167">
        <ele>1890.0</ele>
        <time>2019-10-12T15:45:20.932Z</time>
      </trkpt>
      <trkpt lat="20.25957" lon="-98.73442667">
        <ele>1891.0</ele>
        <time>2019-10-12T15:45:21.933Z</time>
      </trkpt>
      <trkpt lat="20.25955167" lon="-98.73442167">
        <ele>1892.0</ele>
        <time>2019-10-12T15:45:22.933Z</time>
      </trkpt>
      <trkpt lat="20.259535" lon="-98.734415">
        <ele>1892.0</ele>
        <time>2019-10-12T15:45:23.933Z</time>
      </trkpt>
      <trkpt lat="20.25952333" lon="-98.73441167">
        <ele>1893.0</ele>
        <time>2019-10-12T15:45:24.934Z</time>
      </trkpt>
      <trkpt lat="20.25951333" lon="-98.7344">
        <ele>1894.0</ele>
        <time>2019-10-12T15:45:25.934Z</time>
      </trkpt>
      <trkpt lat="20.25951167" lon="-98.734385">
        <ele>1894.0</ele>
        <time>2019-10-12T15:45:26.934Z</time>
      </trkpt>
      <trkpt lat="20.25950167" lon="-98.73437167">
        <ele>1893.0</ele>
        <time>2019-10-12T15:45:27.935Z</time>
      </trkpt>
      <trkpt lat="20.25949167" lon="-98.73435833">
        <ele>1893.0</ele>
        <time>2019-10-12T15:45:28.935Z</time>
      </trkpt>
      <trkpt lat="20.25947833" lon="-98.73435">
        <ele>1892.0</ele>
        <time>2019-10-12T15:45:29.936Z</time>
      </trkpt>
      <trkpt lat="20.25946833" lon="-98.73433833">
        <ele>1892.0</ele>
        <time>2019-10-12T15:45:30.939Z</time>
      </trkpt>
      <trkpt lat="20.25945833" lon="-98.73431833">
        <ele>1891.0</ele>
        <time>2019-10-12T15:45:31.944Z</time>
      </trkpt>
      <trkpt lat="20.25945167" lon="-98.73429667">
        <ele>1890.0</ele>
        <time>2019-10-12T15:45:32.950Z</time>
      </trkpt>
      <trkpt lat="20.259445" lon="-98.73428">
        <ele>1888.0</ele>
        <time>2019-10-12T15:45:33.953Z</time>
      </trkpt>
      <trkpt lat="20.25942667" lon="-98.73426833">
        <ele>1886.0</ele>
        <time>2019-10-12T15:45:34.832Z</time>
      </trkpt>
      <trkpt lat="20.25940833" lon="-98.73426333">
        <ele>1884.0</ele>
        <time>2019-10-12T15:45:35.833Z</time>
      </trkpt>
      <trkpt lat="20.259395" lon="-98.73425333">
        <ele>1883.0</ele>
        <time>2019-10-12T15:45:36.834Z</time>
      </trkpt>
      <trkpt lat="20.259385" lon="-98.734245">
        <ele>1882.0</ele>
        <time>2019-10-12T15:45:37.836Z</time>
      </trkpt>
      <trkpt lat="20.25937167" lon="-98.734235">
        <ele>1879.0</ele>
        <time>2019-10-12T15:45:38.842Z</time>
      </trkpt>
      <trkpt lat="20.25936167" lon="-98.73422333">
        <ele>1878.0</ele>
        <time>2019-10-12T15:45:39.846Z</time>
      </trkpt>
      <trkpt lat="20.25935167" lon="-98.73420667">
        <ele>1877.0</ele>
        <time>2019-10-12T15:45:40.852Z</time>
      </trkpt>
      <trkpt lat="20.25934" lon="-98.73418833">
        <ele>1876.0</ele>
        <time>2019-10-12T15:45:41.858Z</time>
      </trkpt>
      <trkpt lat="20.25933333" lon="-98.73416667">
        <ele>1875.0</ele>
        <time>2019-10-12T15:45:42.861Z</time>
      </trkpt>
      <trkpt lat="20.25932667" lon="-98.73414833">
        <ele>1875.0</ele>
        <time>2019-10-12T15:45:43.868Z</time>
      </trkpt>
      <trkpt lat="20.25931833" lon="-98.73413">
        <ele>1875.0</ele>
        <time>2019-10-12T15:45:44.872Z</time>
      </trkpt>
      <trkpt lat="20.25930833" lon="-98.734115">
        <ele>1874.0</ele>
        <time>2019-10-12T15:45:45.878Z</time>
      </trkpt>
      <trkpt lat="20.259295" lon="-98.73409833">
        <ele>1874.0</ele>
        <time>2019-10-12T15:45:46.878Z</time>
      </trkpt>
      <trkpt lat="20.25928833" lon="-98.73409333">
        <ele>1874.0</ele>
        <time>2019-10-12T15:45:47.878Z</time>
      </trkpt>
      <trkpt lat="20.25927333" lon="-98.73408833">
        <ele>1873.0</ele>
        <time>2019-10-12T15:45:48.879Z</time>
      </trkpt>
      <trkpt lat="20.25925833" lon="-98.73408333">
        <ele>1871.0</ele>
        <time>2019-10-12T15:45:49.879Z</time>
      </trkpt>
      <trkpt lat="20.25924167" lon="-98.734075">
        <ele>1869.0</ele>
        <time>2019-10-12T15:45:50.879Z</time>
      </trkpt>
      <trkpt lat="20.25922667" lon="-98.73406833">
        <ele>1868.0</ele>
        <time>2019-10-12T15:45:51.882Z</time>
      </trkpt>
      <trkpt lat="20.259215" lon="-98.73406333">
        <ele>1868.0</ele>
        <time>2019-10-12T15:45:52.887Z</time>
      </trkpt>
      <trkpt lat="20.2592" lon="-98.73405667">
        <ele>1868.0</ele>
        <time>2019-10-12T15:45:53.890Z</time>
      </trkpt>
      <trkpt lat="20.25918333" lon="-98.73404667">
        <ele>1868.0</ele>
        <time>2019-10-12T15:45:54.898Z</time>
      </trkpt>
      <trkpt lat="20.25917167" lon="-98.73403667">
        <ele>1867.0</ele>
        <time>2019-10-12T15:45:55.902Z</time>
      </trkpt>
      <trkpt lat="20.25916167" lon="-98.734025">
        <ele>1866.0</ele>
        <time>2019-10-12T15:45:56.907Z</time>
      </trkpt>
      <trkpt lat="20.25915" lon="-98.73401333">
        <ele>1866.0</ele>
        <time>2019-10-12T15:45:57.912Z</time>
      </trkpt>
      <trkpt lat="20.25913667" lon="-98.73399833">
        <ele>1866.0</ele>
        <time>2019-10-12T15:45:58.918Z</time>
      </trkpt>
      <trkpt lat="20.25912333" lon="-98.73398333">
        <ele>1866.0</ele>
        <time>2019-10-12T15:45:59.925Z</time>
      </trkpt>
      <trkpt lat="20.259115" lon="-98.73397">
        <ele>1865.0</ele>
        <time>2019-10-12T15:46:00.930Z</time>
      </trkpt>
      <trkpt lat="20.25911" lon="-98.73395833">
        <ele>1864.0</ele>
        <time>2019-10-12T15:46:01.934Z</time>
      </trkpt>
      <trkpt lat="20.25910833" lon="-98.733945">
        <ele>1863.0</ele>
        <time>2019-10-12T15:46:02.940Z</time>
      </trkpt>
      <trkpt lat="20.25911" lon="-98.73392833">
        <ele>1862.0</ele>
        <time>2019-10-12T15:46:03.943Z</time>
      </trkpt>
      <trkpt lat="20.25911" lon="-98.73391333">
        <ele>1861.0</ele>
        <time>2019-10-12T15:46:04.946Z</time>
      </trkpt>
      <trkpt lat="20.25911" lon="-98.733895">
        <ele>1860.0</ele>
        <time>2019-10-12T15:46:05.946Z</time>
      </trkpt>
      <trkpt lat="20.25911" lon="-98.733875">
        <ele>1858.0</ele>
        <time>2019-10-12T15:46:06.947Z</time>
      </trkpt>
      <trkpt lat="20.25911167" lon="-98.73385833">
        <ele>1857.0</ele>
        <time>2019-10-12T15:46:07.947Z</time>
      </trkpt>
      <trkpt lat="20.25911" lon="-98.73384333">
        <ele>1856.0</ele>
        <time>2019-10-12T15:46:08.948Z</time>
      </trkpt>
      <trkpt lat="20.25910833" lon="-98.73382667">
        <ele>1855.0</ele>
        <time>2019-10-12T15:46:09.948Z</time>
      </trkpt>
      <trkpt lat="20.259105" lon="-98.73381167">
        <ele>1854.0</ele>
        <time>2019-10-12T15:46:10.948Z</time>
      </trkpt>
      <trkpt lat="20.25910167" lon="-98.73379833">
        <ele>1853.0</ele>
        <time>2019-10-12T15:46:11.948Z</time>
      </trkpt>
      <trkpt lat="20.259095" lon="-98.73379">
        <ele>1852.0</ele>
        <time>2019-10-12T15:46:12.949Z</time>
      </trkpt>
      <trkpt lat="20.25909167" lon="-98.73377333">
        <ele>1851.0</ele>
        <time>2019-10-12T15:46:13.949Z</time>
      </trkpt>
      <trkpt lat="20.25908833" lon="-98.73375333">
        <ele>1851.0</ele>
        <time>2019-10-12T15:46:14.949Z</time>
      </trkpt>
      <trkpt lat="20.25908167" lon="-98.73373667">
        <ele>1851.0</ele>
        <time>2019-10-12T15:46:15.949Z</time>
      </trkpt>
      <trkpt lat="20.25907167" lon="-98.73372333">
        <ele>1850.0</ele>
        <time>2019-10-12T15:46:16.950Z</time>
      </trkpt>
      <trkpt lat="20.25906167" lon="-98.73370667">
        <ele>1849.0</ele>
        <time>2019-10-12T15:46:17.950Z</time>
      </trkpt>
      <trkpt lat="20.25904667" lon="-98.73369">
        <ele>1849.0</ele>
        <time>2019-10-12T15:46:18.950Z</time>
      </trkpt>
      <trkpt lat="20.25903333" lon="-98.73368167">
        <ele>1848.0</ele>
        <time>2019-10-12T15:46:19.951Z</time>
      </trkpt>
      <trkpt lat="20.25901333" lon="-98.733675">
        <ele>1848.0</ele>
        <time>2019-10-12T15:46:20.951Z</time>
      </trkpt>
      <trkpt lat="20.25899833" lon="-98.73367333">
        <ele>1847.0</ele>
        <time>2019-10-12T15:46:21.951Z</time>
      </trkpt>
      <trkpt lat="20.25898" lon="-98.73367167">
        <ele>1847.0</ele>
        <time>2019-10-12T15:46:22.952Z</time>
      </trkpt>
      <trkpt lat="20.25895833" lon="-98.73367333">
        <ele>1848.0</ele>
        <time>2019-10-12T15:46:23.952Z</time>
      </trkpt>
      <trkpt lat="20.25893833" lon="-98.73367667">
        <ele>1848.0</ele>
        <time>2019-10-12T15:46:24.952Z</time>
      </trkpt>
      <trkpt lat="20.25892167" lon="-98.73367833">
        <ele>1847.0</ele>
        <time>2019-10-12T15:46:25.953Z</time>
      </trkpt>
      <trkpt lat="20.258905" lon="-98.73368333">
        <ele>1846.0</ele>
        <time>2019-10-12T15:46:26.953Z</time>
      </trkpt>
      <trkpt lat="20.25888667" lon="-98.73369333">
        <ele>1845.0</ele>
        <time>2019-10-12T15:46:27.953Z</time>
      </trkpt>
      <trkpt lat="20.258875" lon="-98.7337">
        <ele>1845.0</ele>
        <time>2019-10-12T15:46:28.954Z</time>
      </trkpt>
      <trkpt lat="20.25886333" lon="-98.73370667">
        <ele>1844.0</ele>
        <time>2019-10-12T15:46:29.954Z</time>
      </trkpt>
      <trkpt lat="20.25885" lon="-98.73370833">
        <ele>1843.0</ele>
        <time>2019-10-12T15:46:30.831Z</time>
      </trkpt>
      <trkpt lat="20.25883333" lon="-98.73371667">
        <ele>1842.0</ele>
        <time>2019-10-12T15:46:31.837Z</time>
      </trkpt>
      <trkpt lat="20.25882" lon="-98.73372667">
        <ele>1840.0</ele>
        <time>2019-10-12T15:46:32.841Z</time>
      </trkpt>
      <trkpt lat="20.25880833" lon="-98.73373833">
        <ele>1838.0</ele>
        <time>2019-10-12T15:46:33.844Z</time>
      </trkpt>
      <trkpt lat="20.258795" lon="-98.73375">
        <ele>1837.0</ele>
        <time>2019-10-12T15:46:34.850Z</time>
      </trkpt>
      <trkpt lat="20.25878333" lon="-98.73376167">
        <ele>1836.0</ele>
        <time>2019-10-12T15:46:35.854Z</time>
      </trkpt>
      <trkpt lat="20.25877333" lon="-98.73377167">
        <ele>1836.0</ele>
        <time>2019-10-12T15:46:36.859Z</time>
      </trkpt>
      <trkpt lat="20.25876167" lon="-98.733785">
        <ele>1835.0</ele>
        <time>2019-10-12T15:46:37.865Z</time>
      </trkpt>
      <trkpt lat="20.25875" lon="-98.73379833">
        <ele>1834.0</ele>
        <time>2019-10-12T15:46:38.867Z</time>
      </trkpt>
      <trkpt lat="20.25874167" lon="-98.73381333">
        <ele>1834.0</ele>
        <time>2019-10-12T15:46:39.874Z</time>
      </trkpt>
      <trkpt lat="20.25873" lon="-98.73383">
        <ele>1833.0</ele>
        <time>2019-10-12T15:46:40.880Z</time>
      </trkpt>
      <trkpt lat="20.25871667" lon="-98.73384333">
        <ele>1833.0</ele>
        <time>2019-10-12T15:46:41.883Z</time>
      </trkpt>
      <trkpt lat="20.258705" lon="-98.73386333">
        <ele>1832.0</ele>
        <time>2019-10-12T15:46:42.890Z</time>
      </trkpt>
      <trkpt lat="20.258695" lon="-98.73388167">
        <ele>1832.0</ele>
        <time>2019-10-12T15:46:43.896Z</time>
      </trkpt>
      <trkpt lat="20.25868667" lon="-98.73389667">
        <ele>1832.0</ele>
        <time>2019-10-12T15:46:44.897Z</time>
      </trkpt>
      <trkpt lat="20.25867833" lon="-98.73391167">
        <ele>1831.0</ele>
        <time>2019-10-12T15:46:45.898Z</time>
      </trkpt>
      <trkpt lat="20.25867" lon="-98.73393167">
        <ele>1831.0</ele>
        <time>2019-10-12T15:46:46.898Z</time>
      </trkpt>
      <trkpt lat="20.258665" lon="-98.73394667">
        <ele>1831.0</ele>
        <time>2019-10-12T15:46:47.898Z</time>
      </trkpt>
      <trkpt lat="20.25865833" lon="-98.73396167">
        <ele>1831.0</ele>
        <time>2019-10-12T15:46:48.899Z</time>
      </trkpt>
      <trkpt lat="20.25865" lon="-98.73397833">
        <ele>1832.0</ele>
        <time>2019-10-12T15:46:49.899Z</time>
      </trkpt>
      <trkpt lat="20.25864167" lon="-98.73399">
        <ele>1832.0</ele>
        <time>2019-10-12T15:46:50.899Z</time>
      </trkpt>
      <trkpt lat="20.25863333" lon="-98.734005">
        <ele>1832.0</ele>
        <time>2019-10-12T15:46:51.899Z</time>
      </trkpt>
      <trkpt lat="20.25862833" lon="-98.73402">
        <ele>1832.0</ele>
        <time>2019-10-12T15:46:52.900Z</time>
      </trkpt>
      <trkpt lat="20.258625" lon="-98.73403667">
        <ele>1832.0</ele>
        <time>2019-10-12T15:46:53.900Z</time>
      </trkpt>
      <trkpt lat="20.25862" lon="-98.73405167">
        <ele>1832.0</ele>
        <time>2019-10-12T15:46:54.900Z</time>
      </trkpt>
      <trkpt lat="20.258615" lon="-98.734065">
        <ele>1831.0</ele>
        <time>2019-10-12T15:46:55.901Z</time>
      </trkpt>
      <trkpt lat="20.25861" lon="-98.73408">
        <ele>1832.0</ele>
        <time>2019-10-12T15:46:56.901Z</time>
      </trkpt>
      <trkpt lat="20.25860167" lon="-98.734095">
        <ele>1832.0</ele>
        <time>2019-10-12T15:46:57.901Z</time>
      </trkpt>
      <trkpt lat="20.258595" lon="-98.73410667">
        <ele>1832.0</ele>
        <time>2019-10-12T15:46:58.902Z</time>
      </trkpt>
      <trkpt lat="20.25859167" lon="-98.73411833">
        <ele>1831.0</ele>
        <time>2019-10-12T15:46:59.902Z</time>
      </trkpt>
      <trkpt lat="20.25859" lon="-98.73413">
        <ele>1831.0</ele>
        <time>2019-10-12T15:47:00.902Z</time>
      </trkpt>
      <trkpt lat="20.25858833" lon="-98.73414333">
        <ele>1831.0</ele>
        <time>2019-10-12T15:47:01.903Z</time>
      </trkpt>
      <trkpt lat="20.258585" lon="-98.73415667">
        <ele>1830.0</ele>
        <time>2019-10-12T15:47:02.903Z</time>
      </trkpt>
      <trkpt lat="20.25858333" lon="-98.73417167">
        <ele>1830.0</ele>
        <time>2019-10-12T15:47:03.903Z</time>
      </trkpt>
      <trkpt lat="20.25858" lon="-98.734185">
        <ele>1831.0</ele>
        <time>2019-10-12T15:47:04.904Z</time>
      </trkpt>
      <trkpt lat="20.258575" lon="-98.7342">
        <ele>1831.0</ele>
        <time>2019-10-12T15:47:05.904Z</time>
      </trkpt>
      <trkpt lat="20.25857167" lon="-98.734215">
        <ele>1831.0</ele>
        <time>2019-10-12T15:47:06.904Z</time>
      </trkpt>
      <trkpt lat="20.25856833" lon="-98.73422833">
        <ele>1831.0</ele>
        <time>2019-10-12T15:47:07.904Z</time>
      </trkpt>
      <trkpt lat="20.25856333" lon="-98.73424333">
        <ele>1832.0</ele>
        <time>2019-10-12T15:47:08.905Z</time>
      </trkpt>
      <trkpt lat="20.25856167" lon="-98.73426">
        <ele>1832.0</ele>
        <time>2019-10-12T15:47:09.905Z</time>
      </trkpt>
      <trkpt lat="20.25855833" lon="-98.73427667">
        <ele>1832.0</ele>
        <time>2019-10-12T15:47:10.905Z</time>
      </trkpt>
      <trkpt lat="20.258555" lon="-98.73428833">
        <ele>1832.0</ele>
        <time>2019-10-12T15:47:11.906Z</time>
      </trkpt>
      <trkpt lat="20.25854667" lon="-98.73430167">
        <ele>1832.0</ele>
        <time>2019-10-12T15:47:12.906Z</time>
      </trkpt>
      <trkpt lat="20.25853833" lon="-98.734315">
        <ele>1832.0</ele>
        <time>2019-10-12T15:47:13.906Z</time>
      </trkpt>
      <trkpt lat="20.25853167" lon="-98.73433167">
        <ele>1832.0</ele>
        <time>2019-10-12T15:47:14.907Z</time>
      </trkpt>
      <trkpt lat="20.25852167" lon="-98.73434667">
        <ele>1833.0</ele>
        <time>2019-10-12T15:47:15.907Z</time>
      </trkpt>
      <trkpt lat="20.25851333" lon="-98.73436167">
        <ele>1833.0</ele>
        <time>2019-10-12T15:47:16.907Z</time>
      </trkpt>
      <trkpt lat="20.258505" lon="-98.73437667">
        <ele>1833.0</ele>
        <time>2019-10-12T15:47:17.908Z</time>
      </trkpt>
      <trkpt lat="20.258495" lon="-98.73439333">
        <ele>1833.0</ele>
        <time>2019-10-12T15:47:18.908Z</time>
      </trkpt>
      <trkpt lat="20.25848667" lon="-98.73440833">
        <ele>1833.0</ele>
        <time>2019-10-12T15:47:19.908Z</time>
      </trkpt>
      <trkpt lat="20.25847833" lon="-98.734425">
        <ele>1833.0</ele>
        <time>2019-10-12T15:47:20.909Z</time>
      </trkpt>
      <trkpt lat="20.25847" lon="-98.73444167">
        <ele>1833.0</ele>
        <time>2019-10-12T15:47:21.909Z</time>
      </trkpt>
      <trkpt lat="20.25846333" lon="-98.73446">
        <ele>1833.0</ele>
        <time>2019-10-12T15:47:22.909Z</time>
      </trkpt>
      <trkpt lat="20.25845833" lon="-98.73447833">
        <ele>1832.0</ele>
        <time>2019-10-12T15:47:23.914Z</time>
      </trkpt>
      <trkpt lat="20.25845333" lon="-98.73449833">
        <ele>1832.0</ele>
        <time>2019-10-12T15:47:24.920Z</time>
      </trkpt>
      <trkpt lat="20.258445" lon="-98.73451667">
        <ele>1833.0</ele>
        <time>2019-10-12T15:47:25.926Z</time>
      </trkpt>
      <trkpt lat="20.258435" lon="-98.73453333">
        <ele>1834.0</ele>
        <time>2019-10-12T15:47:26.932Z</time>
      </trkpt>
      <trkpt lat="20.25842333" lon="-98.73454667">
        <ele>1834.0</ele>
        <time>2019-10-12T15:47:27.936Z</time>
      </trkpt>
      <trkpt lat="20.25840833" lon="-98.73455667">
        <ele>1835.0</ele>
        <time>2019-10-12T15:47:28.943Z</time>
      </trkpt>
      <trkpt lat="20.25839167" lon="-98.73456333">
        <ele>1835.0</ele>
        <time>2019-10-12T15:47:29.948Z</time>
      </trkpt>
      <trkpt lat="20.25837667" lon="-98.734565">
        <ele>1836.0</ele>
        <time>2019-10-12T15:47:30.950Z</time>
      </trkpt>
      <trkpt lat="20.25836167" lon="-98.73456333">
        <ele>1838.0</ele>
        <time>2019-10-12T15:47:31.955Z</time>
      </trkpt>
      <trkpt lat="20.25834667" lon="-98.73456333">
        <ele>1840.0</ele>
        <time>2019-10-12T15:47:32.834Z</time>
      </trkpt>
      <trkpt lat="20.25833167" lon="-98.73456167">
        <ele>1841.0</ele>
        <time>2019-10-12T15:47:33.841Z</time>
      </trkpt>
      <trkpt lat="20.258315" lon="-98.73456167">
        <ele>1843.0</ele>
        <time>2019-10-12T15:47:34.848Z</time>
      </trkpt>
      <trkpt lat="20.25829833" lon="-98.73456">
        <ele>1843.0</ele>
        <time>2019-10-12T15:47:35.852Z</time>
      </trkpt>
      <trkpt lat="20.25828167" lon="-98.73456167">
        <ele>1843.0</ele>
        <time>2019-10-12T15:47:36.852Z</time>
      </trkpt>
      <trkpt lat="20.25826333" lon="-98.73456333">
        <ele>1844.0</ele>
        <time>2019-10-12T15:47:37.852Z</time>
      </trkpt>
      <trkpt lat="20.25824833" lon="-98.73456667">
        <ele>1844.0</ele>
        <time>2019-10-12T15:47:38.853Z</time>
      </trkpt>
      <trkpt lat="20.258235" lon="-98.73457">
        <ele>1844.0</ele>
        <time>2019-10-12T15:47:39.853Z</time>
      </trkpt>
      <trkpt lat="20.25821833" lon="-98.73457333">
        <ele>1844.0</ele>
        <time>2019-10-12T15:47:40.853Z</time>
      </trkpt>
      <trkpt lat="20.25820333" lon="-98.734575">
        <ele>1844.0</ele>
        <time>2019-10-12T15:47:41.854Z</time>
      </trkpt>
      <trkpt lat="20.258185" lon="-98.73458">
        <ele>1844.0</ele>
        <time>2019-10-12T15:47:42.861Z</time>
      </trkpt>
      <trkpt lat="20.25817167" lon="-98.734585">
        <ele>1843.0</ele>
        <time>2019-10-12T15:47:43.866Z</time>
      </trkpt>
      <trkpt lat="20.25816167" lon="-98.73459">
        <ele>1843.0</ele>
        <time>2019-10-12T15:47:44.871Z</time>
      </trkpt>
      <trkpt lat="20.25814667" lon="-98.734595">
        <ele>1843.0</ele>
        <time>2019-10-12T15:47:45.878Z</time>
      </trkpt>
      <trkpt lat="20.25813333" lon="-98.73460167">
        <ele>1843.0</ele>
        <time>2019-10-12T15:47:46.886Z</time>
      </trkpt>
      <trkpt lat="20.25811667" lon="-98.73461">
        <ele>1843.0</ele>
        <time>2019-10-12T15:47:47.892Z</time>
      </trkpt>
      <trkpt lat="20.25810667" lon="-98.734615">
        <ele>1843.0</ele>
        <time>2019-10-12T15:47:48.897Z</time>
      </trkpt>
      <trkpt lat="20.25809167" lon="-98.73462333">
        <ele>1843.0</ele>
        <time>2019-10-12T15:47:49.902Z</time>
      </trkpt>
      <trkpt lat="20.25807667" lon="-98.73463167">
        <ele>1843.0</ele>
        <time>2019-10-12T15:47:50.907Z</time>
      </trkpt>
      <trkpt lat="20.25806" lon="-98.73463667">
        <ele>1842.0</ele>
        <time>2019-10-12T15:47:51.913Z</time>
      </trkpt>
      <trkpt lat="20.25804667" lon="-98.73464333">
        <ele>1842.0</ele>
        <time>2019-10-12T15:47:52.919Z</time>
      </trkpt>
      <trkpt lat="20.25803167" lon="-98.73465">
        <ele>1842.0</ele>
        <time>2019-10-12T15:47:53.919Z</time>
      </trkpt>
      <trkpt lat="20.25801667" lon="-98.73465833">
        <ele>1842.0</ele>
        <time>2019-10-12T15:47:54.919Z</time>
      </trkpt>
      <trkpt lat="20.25800333" lon="-98.734665">
        <ele>1843.0</ele>
        <time>2019-10-12T15:47:55.920Z</time>
      </trkpt>
      <trkpt lat="20.25799333" lon="-98.73467">
        <ele>1842.0</ele>
        <time>2019-10-12T15:47:56.920Z</time>
      </trkpt>
      <trkpt lat="20.25798167" lon="-98.73467667">
        <ele>1843.0</ele>
        <time>2019-10-12T15:47:57.920Z</time>
      </trkpt>
      <trkpt lat="20.25797" lon="-98.73468167">
        <ele>1842.0</ele>
        <time>2019-10-12T15:47:58.920Z</time>
      </trkpt>
      <trkpt lat="20.25795833" lon="-98.73468833">
        <ele>1842.0</ele>
        <time>2019-10-12T15:47:59.920Z</time>
      </trkpt>
      <trkpt lat="20.25794833" lon="-98.73469333">
        <ele>1842.0</ele>
        <time>2019-10-12T15:48:00.925Z</time>
      </trkpt>
      <trkpt lat="20.257935" lon="-98.73469667">
        <ele>1842.0</ele>
        <time>2019-10-12T15:48:01.932Z</time>
      </trkpt>
      <trkpt lat="20.25792167" lon="-98.73469833">
        <ele>1842.0</ele>
        <time>2019-10-12T15:48:02.937Z</time>
      </trkpt>
      <trkpt lat="20.25790667" lon="-98.73470333">
        <ele>1842.0</ele>
        <time>2019-10-12T15:48:03.941Z</time>
      </trkpt>
      <trkpt lat="20.25789333" lon="-98.73470833">
        <ele>1843.0</ele>
        <time>2019-10-12T15:48:04.945Z</time>
      </trkpt>
      <trkpt lat="20.25788" lon="-98.734715">
        <ele>1843.0</ele>
        <time>2019-10-12T15:48:05.952Z</time>
      </trkpt>
      <trkpt lat="20.25786667" lon="-98.734725">
        <ele>1843.0</ele>
        <time>2019-10-12T15:48:06.831Z</time>
      </trkpt>
      <trkpt lat="20.25785667" lon="-98.73473667">
        <ele>1844.0</ele>
        <time>2019-10-12T15:48:07.838Z</time>
      </trkpt>
      <trkpt lat="20.25784667" lon="-98.73475">
        <ele>1845.0</ele>
        <time>2019-10-12T15:48:08.844Z</time>
      </trkpt>
      <trkpt lat="20.25783833" lon="-98.734765">
        <ele>1845.0</ele>
        <time>2019-10-12T15:48:09.849Z</time>
      </trkpt>
      <trkpt lat="20.25783" lon="-98.73478">
        <ele>1846.0</ele>
        <time>2019-10-12T15:48:10.853Z</time>
      </trkpt>
      <trkpt lat="20.25782" lon="-98.734795">
        <ele>1846.0</ele>
        <time>2019-10-12T15:48:11.858Z</time>
      </trkpt>
      <trkpt lat="20.25781333" lon="-98.73481">
        <ele>1847.0</ele>
        <time>2019-10-12T15:48:12.861Z</time>
      </trkpt>
      <trkpt lat="20.25780667" lon="-98.734825">
        <ele>1847.0</ele>
        <time>2019-10-12T15:48:13.861Z</time>
      </trkpt>
      <trkpt lat="20.257805" lon="-98.73484">
        <ele>1848.0</ele>
        <time>2019-10-12T15:48:14.861Z</time>
      </trkpt>
      <trkpt lat="20.25780333" lon="-98.734855">
        <ele>1848.0</ele>
        <time>2019-10-12T15:48:15.861Z</time>
      </trkpt>
      <trkpt lat="20.25780167" lon="-98.73487">
        <ele>1848.0</ele>
        <time>2019-10-12T15:48:16.861Z</time>
      </trkpt>
      <trkpt lat="20.25780167" lon="-98.734885">
        <ele>1848.0</ele>
        <time>2019-10-12T15:48:17.862Z</time>
      </trkpt>
      <trkpt lat="20.25780333" lon="-98.73489667">
        <ele>1848.0</ele>
        <time>2019-10-12T15:48:18.865Z</time>
      </trkpt>
      <trkpt lat="20.25780333" lon="-98.73491333">
        <ele>1848.0</ele>
        <time>2019-10-12T15:48:19.873Z</time>
      </trkpt>
      <trkpt lat="20.257805" lon="-98.73492833">
        <ele>1848.0</ele>
        <time>2019-10-12T15:48:20.877Z</time>
      </trkpt>
      <trkpt lat="20.257805" lon="-98.73494167">
        <ele>1848.0</ele>
        <time>2019-10-12T15:48:21.883Z</time>
      </trkpt>
      <trkpt lat="20.25780333" lon="-98.73495833">
        <ele>1848.0</ele>
        <time>2019-10-12T15:48:22.885Z</time>
      </trkpt>
      <trkpt lat="20.25779833" lon="-98.73497333">
        <ele>1849.0</ele>
        <time>2019-10-12T15:48:23.890Z</time>
      </trkpt>
      <trkpt lat="20.25779333" lon="-98.73498667">
        <ele>1849.0</ele>
        <time>2019-10-12T15:48:24.892Z</time>
      </trkpt>
      <trkpt lat="20.25778833" lon="-98.73500167">
        <ele>1849.0</ele>
        <time>2019-10-12T15:48:25.899Z</time>
      </trkpt>
      <trkpt lat="20.257785" lon="-98.73501833">
        <ele>1849.0</ele>
        <time>2019-10-12T15:48:26.906Z</time>
      </trkpt>
      <trkpt lat="20.25777833" lon="-98.73503333">
        <ele>1850.0</ele>
        <time>2019-10-12T15:48:27.911Z</time>
      </trkpt>
      <trkpt lat="20.257775" lon="-98.73505167">
        <ele>1850.0</ele>
        <time>2019-10-12T15:48:28.914Z</time>
      </trkpt>
      <trkpt lat="20.25777167" lon="-98.73507">
        <ele>1850.0</ele>
        <time>2019-10-12T15:48:29.920Z</time>
      </trkpt>
      <trkpt lat="20.25777" lon="-98.73508833">
        <ele>1850.0</ele>
        <time>2019-10-12T15:48:30.926Z</time>
      </trkpt>
      <trkpt lat="20.25776833" lon="-98.73510667">
        <ele>1851.0</ele>
        <time>2019-10-12T15:48:31.928Z</time>
      </trkpt>
      <trkpt lat="20.25776333" lon="-98.735125">
        <ele>1851.0</ele>
        <time>2019-10-12T15:48:32.928Z</time>
      </trkpt>
      <trkpt lat="20.25776167" lon="-98.735145">
        <ele>1851.0</ele>
        <time>2019-10-12T15:48:33.928Z</time>
      </trkpt>
      <trkpt lat="20.25776167" lon="-98.735165">
        <ele>1851.0</ele>
        <time>2019-10-12T15:48:34.928Z</time>
      </trkpt>
      <trkpt lat="20.25776" lon="-98.73518333">
        <ele>1852.0</ele>
        <time>2019-10-12T15:48:35.933Z</time>
      </trkpt>
      <trkpt lat="20.25775667" lon="-98.73520333">
        <ele>1852.0</ele>
        <time>2019-10-12T15:48:36.941Z</time>
      </trkpt>
      <trkpt lat="20.257755" lon="-98.73522">
        <ele>1852.0</ele>
        <time>2019-10-12T15:48:37.944Z</time>
      </trkpt>
      <trkpt lat="20.25775167" lon="-98.73524167">
        <ele>1852.0</ele>
        <time>2019-10-12T15:48:38.944Z</time>
      </trkpt>
      <trkpt lat="20.25774667" lon="-98.735255">
        <ele>1852.0</ele>
        <time>2019-10-12T15:48:39.948Z</time>
      </trkpt>
      <trkpt lat="20.25774167" lon="-98.73527">
        <ele>1852.0</ele>
        <time>2019-10-12T15:48:40.953Z</time>
      </trkpt>
      <trkpt lat="20.25773667" lon="-98.735285">
        <ele>1851.0</ele>
        <time>2019-10-12T15:48:41.835Z</time>
      </trkpt>
      <trkpt lat="20.25773167" lon="-98.73530167">
        <ele>1851.0</ele>
        <time>2019-10-12T15:48:42.838Z</time>
      </trkpt>
      <trkpt lat="20.25772833" lon="-98.73531333">
        <ele>1850.0</ele>
        <time>2019-10-12T15:48:43.845Z</time>
      </trkpt>
      <trkpt lat="20.257725" lon="-98.73532833">
        <ele>1850.0</ele>
        <time>2019-10-12T15:48:44.850Z</time>
      </trkpt>
      <trkpt lat="20.25772" lon="-98.735345">
        <ele>1850.0</ele>
        <time>2019-10-12T15:48:45.858Z</time>
      </trkpt>
      <trkpt lat="20.257715" lon="-98.735365">
        <ele>1851.0</ele>
        <time>2019-10-12T15:48:46.862Z</time>
      </trkpt>
      <trkpt lat="20.25770833" lon="-98.73537833">
        <ele>1852.0</ele>
        <time>2019-10-12T15:48:47.868Z</time>
      </trkpt>
      <trkpt lat="20.25770333" lon="-98.735395">
        <ele>1852.0</ele>
        <time>2019-10-12T15:48:48.869Z</time>
      </trkpt>
      <trkpt lat="20.257695" lon="-98.73541">
        <ele>1852.0</ele>
        <time>2019-10-12T15:48:49.873Z</time>
      </trkpt>
      <trkpt lat="20.25768833" lon="-98.735425">
        <ele>1852.0</ele>
        <time>2019-10-12T15:48:50.879Z</time>
      </trkpt>
      <trkpt lat="20.25768" lon="-98.73543833">
        <ele>1852.0</ele>
        <time>2019-10-12T15:48:51.886Z</time>
      </trkpt>
      <trkpt lat="20.25767333" lon="-98.73545333">
        <ele>1852.0</ele>
        <time>2019-10-12T15:48:52.891Z</time>
      </trkpt>
      <trkpt lat="20.25766667" lon="-98.73546333">
        <ele>1852.0</ele>
        <time>2019-10-12T15:48:53.896Z</time>
      </trkpt>
      <trkpt lat="20.257655" lon="-98.735475">
        <ele>1852.0</ele>
        <time>2019-10-12T15:48:54.903Z</time>
      </trkpt>
      <trkpt lat="20.25764333" lon="-98.73548833">
        <ele>1852.0</ele>
        <time>2019-10-12T15:48:55.907Z</time>
      </trkpt>
      <trkpt lat="20.25763167" lon="-98.73550167">
        <ele>1852.0</ele>
        <time>2019-10-12T15:48:56.912Z</time>
      </trkpt>
      <trkpt lat="20.25762333" lon="-98.73551333">
        <ele>1852.0</ele>
        <time>2019-10-12T15:48:57.917Z</time>
      </trkpt>
      <trkpt lat="20.25761333" lon="-98.735525">
        <ele>1851.0</ele>
        <time>2019-10-12T15:48:58.923Z</time>
      </trkpt>
      <trkpt lat="20.25760667" lon="-98.73553833">
        <ele>1852.0</ele>
        <time>2019-10-12T15:48:59.929Z</time>
      </trkpt>
      <trkpt lat="20.25760167" lon="-98.73555333">
        <ele>1852.0</ele>
        <time>2019-10-12T15:49:00.934Z</time>
      </trkpt>
      <trkpt lat="20.25759333" lon="-98.73556667">
        <ele>1852.0</ele>
        <time>2019-10-12T15:49:01.934Z</time>
      </trkpt>
      <trkpt lat="20.25758833" lon="-98.73558167">
        <ele>1852.0</ele>
        <time>2019-10-12T15:49:02.935Z</time>
      </trkpt>
      <trkpt lat="20.25758667" lon="-98.73559667">
        <ele>1852.0</ele>
        <time>2019-10-12T15:49:03.935Z</time>
      </trkpt>
      <trkpt lat="20.25758333" lon="-98.73561333">
        <ele>1853.0</ele>
        <time>2019-10-12T15:49:04.935Z</time>
      </trkpt>
      <trkpt lat="20.25758167" lon="-98.73562833">
        <ele>1853.0</ele>
        <time>2019-10-12T15:49:05.935Z</time>
      </trkpt>
      <trkpt lat="20.25757667" lon="-98.73564333">
        <ele>1853.0</ele>
        <time>2019-10-12T15:49:06.936Z</time>
      </trkpt>
      <trkpt lat="20.25756833" lon="-98.73565667">
        <ele>1853.0</ele>
        <time>2019-10-12T15:49:07.936Z</time>
      </trkpt>
      <trkpt lat="20.25755833" lon="-98.73567">
        <ele>1854.0</ele>
        <time>2019-10-12T15:49:08.936Z</time>
      </trkpt>
      <trkpt lat="20.25754667" lon="-98.73568333">
        <ele>1855.0</ele>
        <time>2019-10-12T15:49:09.936Z</time>
      </trkpt>
      <trkpt lat="20.25753833" lon="-98.7357">
        <ele>1855.0</ele>
        <time>2019-10-12T15:49:10.939Z</time>
      </trkpt>
      <trkpt lat="20.25752833" lon="-98.73571333">
        <ele>1854.0</ele>
        <time>2019-10-12T15:49:11.945Z</time>
      </trkpt>
      <trkpt lat="20.25752" lon="-98.73573">
        <ele>1854.0</ele>
        <time>2019-10-12T15:49:12.950Z</time>
      </trkpt>
      <trkpt lat="20.25750833" lon="-98.73574333">
        <ele>1854.0</ele>
        <time>2019-10-12T15:49:13.830Z</time>
      </trkpt>
      <trkpt lat="20.25749833" lon="-98.73575833">
        <ele>1854.0</ele>
        <time>2019-10-12T15:49:14.837Z</time>
      </trkpt>
      <trkpt lat="20.25748833" lon="-98.73577333">
        <ele>1854.0</ele>
        <time>2019-10-12T15:49:15.842Z</time>
      </trkpt>
      <trkpt lat="20.25748167" lon="-98.73579">
        <ele>1854.0</ele>
        <time>2019-10-12T15:49:16.849Z</time>
      </trkpt>
      <trkpt lat="20.257475" lon="-98.73580833">
        <ele>1855.0</ele>
        <time>2019-10-12T15:49:17.850Z</time>
      </trkpt>
      <trkpt lat="20.25746667" lon="-98.73582833">
        <ele>1855.0</ele>
        <time>2019-10-12T15:49:18.856Z</time>
      </trkpt>
      <trkpt lat="20.25745667" lon="-98.735845">
        <ele>1855.0</ele>
        <time>2019-10-12T15:49:19.861Z</time>
      </trkpt>
      <trkpt lat="20.25745" lon="-98.73586167">
        <ele>1855.0</ele>
        <time>2019-10-12T15:49:20.865Z</time>
      </trkpt>
      <trkpt lat="20.25744167" lon="-98.73587667">
        <ele>1855.0</ele>
        <time>2019-10-12T15:49:21.866Z</time>
      </trkpt>
      <trkpt lat="20.257435" lon="-98.73589167">
        <ele>1855.0</ele>
        <time>2019-10-12T15:49:22.871Z</time>
      </trkpt>
      <trkpt lat="20.25742833" lon="-98.735905">
        <ele>1855.0</ele>
        <time>2019-10-12T15:49:23.876Z</time>
      </trkpt>
      <trkpt lat="20.25742" lon="-98.73592">
        <ele>1855.0</ele>
        <time>2019-10-12T15:49:24.881Z</time>
      </trkpt>
      <trkpt lat="20.25741" lon="-98.73593">
        <ele>1855.0</ele>
        <time>2019-10-12T15:49:25.887Z</time>
      </trkpt>
      <trkpt lat="20.2574" lon="-98.73594">
        <ele>1856.0</ele>
        <time>2019-10-12T15:49:26.894Z</time>
      </trkpt>
      <trkpt lat="20.25739" lon="-98.73595">
        <ele>1856.0</ele>
        <time>2019-10-12T15:49:27.899Z</time>
      </trkpt>
      <trkpt lat="20.25738167" lon="-98.73596167">
        <ele>1857.0</ele>
        <time>2019-10-12T15:49:28.900Z</time>
      </trkpt>
      <trkpt lat="20.25737167" lon="-98.73597167">
        <ele>1857.0</ele>
        <time>2019-10-12T15:49:29.908Z</time>
      </trkpt>
      <trkpt lat="20.25736333" lon="-98.73598333">
        <ele>1858.0</ele>
        <time>2019-10-12T15:49:30.916Z</time>
      </trkpt>
      <trkpt lat="20.25735333" lon="-98.73599667">
        <ele>1858.0</ele>
        <time>2019-10-12T15:49:31.917Z</time>
      </trkpt>
      <trkpt lat="20.25734667" lon="-98.73601167">
        <ele>1859.0</ele>
        <time>2019-10-12T15:49:32.919Z</time>
      </trkpt>
      <trkpt lat="20.25733833" lon="-98.73602333">
        <ele>1859.0</ele>
        <time>2019-10-12T15:49:33.920Z</time>
      </trkpt>
      <trkpt lat="20.25732833" lon="-98.73603333">
        <ele>1859.0</ele>
        <time>2019-10-12T15:49:34.920Z</time>
      </trkpt>
      <trkpt lat="20.25732" lon="-98.73604667">
        <ele>1859.0</ele>
        <time>2019-10-12T15:49:35.923Z</time>
      </trkpt>
      <trkpt lat="20.25731333" lon="-98.73605833">
        <ele>1859.0</ele>
        <time>2019-10-12T15:49:36.928Z</time>
      </trkpt>
      <trkpt lat="20.257305" lon="-98.73606833">
        <ele>1859.0</ele>
        <time>2019-10-12T15:49:37.935Z</time>
      </trkpt>
      <trkpt lat="20.25729667" lon="-98.73607833">
        <ele>1858.0</ele>
        <time>2019-10-12T15:49:38.939Z</time>
      </trkpt>
      <trkpt lat="20.25729" lon="-98.73609">
        <ele>1858.0</ele>
        <time>2019-10-12T15:49:39.942Z</time>
      </trkpt>
      <trkpt lat="20.25728167" lon="-98.7361">
        <ele>1858.0</ele>
        <time>2019-10-12T15:49:40.943Z</time>
      </trkpt>
      <trkpt lat="20.25727167" lon="-98.736115">
        <ele>1858.0</ele>
        <time>2019-10-12T15:49:41.943Z</time>
      </trkpt>
      <trkpt lat="20.25726333" lon="-98.73612667">
        <ele>1859.0</ele>
        <time>2019-10-12T15:49:42.944Z</time>
      </trkpt>
      <trkpt lat="20.25725333" lon="-98.73614333">
        <ele>1859.0</ele>
        <time>2019-10-12T15:49:43.944Z</time>
      </trkpt>
      <trkpt lat="20.257245" lon="-98.73615667">
        <ele>1859.0</ele>
        <time>2019-10-12T15:49:44.945Z</time>
      </trkpt>
      <trkpt lat="20.257235" lon="-98.73617">
        <ele>1860.0</ele>
        <time>2019-10-12T15:49:45.948Z</time>
      </trkpt>
      <trkpt lat="20.25722667" lon="-98.73618333">
        <ele>1859.0</ele>
        <time>2019-10-12T15:49:46.955Z</time>
      </trkpt>
      <trkpt lat="20.25722" lon="-98.73619667">
        <ele>1859.0</ele>
        <time>2019-10-12T15:49:47.836Z</time>
      </trkpt>
      <trkpt lat="20.25721167" lon="-98.73621">
        <ele>1858.0</ele>
        <time>2019-10-12T15:49:48.839Z</time>
      </trkpt>
      <trkpt lat="20.25720333" lon="-98.73622">
        <ele>1858.0</ele>
        <time>2019-10-12T15:49:49.841Z</time>
      </trkpt>
      <trkpt lat="20.257195" lon="-98.73623167">
        <ele>1858.0</ele>
        <time>2019-10-12T15:49:50.845Z</time>
      </trkpt>
      <trkpt lat="20.25718833" lon="-98.736245">
        <ele>1858.0</ele>
        <time>2019-10-12T15:49:51.852Z</time>
      </trkpt>
      <trkpt lat="20.25718167" lon="-98.73625833">
        <ele>1858.0</ele>
        <time>2019-10-12T15:49:52.855Z</time>
      </trkpt>
      <trkpt lat="20.25717333" lon="-98.73626833">
        <ele>1858.0</ele>
        <time>2019-10-12T15:49:53.861Z</time>
      </trkpt>
      <trkpt lat="20.257165" lon="-98.73628">
        <ele>1858.0</ele>
        <time>2019-10-12T15:49:54.866Z</time>
      </trkpt>
      <trkpt lat="20.25715667" lon="-98.736295">
        <ele>1858.0</ele>
        <time>2019-10-12T15:49:55.874Z</time>
      </trkpt>
      <trkpt lat="20.25714667" lon="-98.73630833">
        <ele>1859.0</ele>
        <time>2019-10-12T15:49:56.878Z</time>
      </trkpt>
      <trkpt lat="20.25713667" lon="-98.73632333">
        <ele>1859.0</ele>
        <time>2019-10-12T15:49:57.885Z</time>
      </trkpt>
      <trkpt lat="20.25712667" lon="-98.73633667">
        <ele>1859.0</ele>
        <time>2019-10-12T15:49:58.888Z</time>
      </trkpt>
      <trkpt lat="20.25711333" lon="-98.73634667">
        <ele>1860.0</ele>
        <time>2019-10-12T15:49:59.888Z</time>
      </trkpt>
      <trkpt lat="20.2571" lon="-98.736355">
        <ele>1860.0</ele>
        <time>2019-10-12T15:50:00.888Z</time>
      </trkpt>
      <trkpt lat="20.257085" lon="-98.73636333">
        <ele>1860.0</ele>
        <time>2019-10-12T15:50:01.888Z</time>
      </trkpt>
      <trkpt lat="20.25707" lon="-98.73637167">
        <ele>1860.0</ele>
        <time>2019-10-12T15:50:02.888Z</time>
      </trkpt>
      <trkpt lat="20.257055" lon="-98.73638333">
        <ele>1860.0</ele>
        <time>2019-10-12T15:50:03.889Z</time>
      </trkpt>
      <trkpt lat="20.25704333" lon="-98.73639667">
        <ele>1860.0</ele>
        <time>2019-10-12T15:50:04.897Z</time>
      </trkpt>
      <trkpt lat="20.25703333" lon="-98.73641167">
        <ele>1861.0</ele>
        <time>2019-10-12T15:50:05.903Z</time>
      </trkpt>
      <trkpt lat="20.25702333" lon="-98.73642333">
        <ele>1861.0</ele>
        <time>2019-10-12T15:50:06.908Z</time>
      </trkpt>
      <trkpt lat="20.25701167" lon="-98.73643333">
        <ele>1861.0</ele>
        <time>2019-10-12T15:50:07.910Z</time>
      </trkpt>
      <trkpt lat="20.257" lon="-98.73644333">
        <ele>1862.0</ele>
        <time>2019-10-12T15:50:08.913Z</time>
      </trkpt>
      <trkpt lat="20.25699" lon="-98.73645667">
        <ele>1862.0</ele>
        <time>2019-10-12T15:50:09.919Z</time>
      </trkpt>
      <trkpt lat="20.25697667" lon="-98.736465">
        <ele>1863.0</ele>
        <time>2019-10-12T15:50:10.921Z</time>
      </trkpt>
      <trkpt lat="20.25696667" lon="-98.736475">
        <ele>1864.0</ele>
        <time>2019-10-12T15:50:11.925Z</time>
      </trkpt>
      <trkpt lat="20.256955" lon="-98.73649">
        <ele>1865.0</ele>
        <time>2019-10-12T15:50:12.930Z</time>
      </trkpt>
      <trkpt lat="20.25694667" lon="-98.73649833">
        <ele>1865.0</ele>
        <time>2019-10-12T15:50:13.936Z</time>
      </trkpt>
      <trkpt lat="20.25693333" lon="-98.73651">
        <ele>1866.0</ele>
        <time>2019-10-12T15:50:14.941Z</time>
      </trkpt>
      <trkpt lat="20.25692" lon="-98.73651833">
        <ele>1866.0</ele>
        <time>2019-10-12T15:50:15.946Z</time>
      </trkpt>
      <trkpt lat="20.256905" lon="-98.73652167">
        <ele>1868.0</ele>
        <time>2019-10-12T15:50:16.952Z</time>
      </trkpt>
      <trkpt lat="20.25689" lon="-98.73652">
        <ele>1869.0</ele>
        <time>2019-10-12T15:50:17.954Z</time>
      </trkpt>
      <trkpt lat="20.25687667" lon="-98.73651333">
        <ele>1870.0</ele>
        <time>2019-10-12T15:50:18.954Z</time>
      </trkpt>
      <trkpt lat="20.25686333" lon="-98.73650167">
        <ele>1870.0</ele>
        <time>2019-10-12T15:50:19.954Z</time>
      </trkpt>
      <trkpt lat="20.25685" lon="-98.73648833">
        <ele>1871.0</ele>
        <time>2019-10-12T15:50:20.830Z</time>
      </trkpt>
      <trkpt lat="20.256835" lon="-98.73647167">
        <ele>1871.0</ele>
        <time>2019-10-12T15:50:21.833Z</time>
      </trkpt>
      <trkpt lat="20.25682167" lon="-98.73645833">
        <ele>1871.0</ele>
        <time>2019-10-12T15:50:22.840Z</time>
      </trkpt>
      <trkpt lat="20.25680667" lon="-98.73644333">
        <ele>1872.0</ele>
        <time>2019-10-12T15:50:23.846Z</time>
      </trkpt>
      <trkpt lat="20.25679167" lon="-98.73642833">
        <ele>1872.0</ele>
        <time>2019-10-12T15:50:24.853Z</time>
      </trkpt>
      <trkpt lat="20.25677333" lon="-98.73641833">
        <ele>1873.0</ele>
        <time>2019-10-12T15:50:25.859Z</time>
      </trkpt>
      <trkpt lat="20.25675667" lon="-98.736405">
        <ele>1874.0</ele>
        <time>2019-10-12T15:50:26.864Z</time>
      </trkpt>
      <trkpt lat="20.25674" lon="-98.736395">
        <ele>1875.0</ele>
        <time>2019-10-12T15:50:27.870Z</time>
      </trkpt>
      <trkpt lat="20.25672167" lon="-98.73638333">
        <ele>1876.0</ele>
        <time>2019-10-12T15:50:28.871Z</time>
      </trkpt>
      <trkpt lat="20.25670667" lon="-98.73637167">
        <ele>1877.0</ele>
        <time>2019-10-12T15:50:29.879Z</time>
      </trkpt>
      <trkpt lat="20.25669" lon="-98.73636">
        <ele>1877.0</ele>
        <time>2019-10-12T15:50:30.887Z</time>
      </trkpt>
      <trkpt lat="20.25667167" lon="-98.73634833">
        <ele>1878.0</ele>
        <time>2019-10-12T15:50:31.890Z</time>
      </trkpt>
      <trkpt lat="20.25665667" lon="-98.73633667">
        <ele>1878.0</ele>
        <time>2019-10-12T15:50:32.896Z</time>
      </trkpt>
      <trkpt lat="20.25665333" lon="-98.73632">
        <ele>1879.0</ele>
        <time>2019-10-12T15:50:33.898Z</time>
      </trkpt>
      <trkpt lat="20.256655" lon="-98.73630333">
        <ele>1879.0</ele>
        <time>2019-10-12T15:50:34.898Z</time>
      </trkpt>
      <trkpt lat="20.25665667" lon="-98.73628667">
        <ele>1880.0</ele>
        <time>2019-10-12T15:50:35.899Z</time>
      </trkpt>
      <trkpt lat="20.256665" lon="-98.73627">
        <ele>1880.0</ele>
        <time>2019-10-12T15:50:36.899Z</time>
      </trkpt>
      <trkpt lat="20.256675" lon="-98.73625667">
        <ele>1880.0</ele>
        <time>2019-10-12T15:50:37.900Z</time>
      </trkpt>
      <trkpt lat="20.25668833" lon="-98.736245">
        <ele>1880.0</ele>
        <time>2019-10-12T15:50:38.901Z</time>
      </trkpt>
      <trkpt lat="20.25670333" lon="-98.73623667">
        <ele>1881.0</ele>
        <time>2019-10-12T15:50:39.901Z</time>
      </trkpt>
      <trkpt lat="20.25671833" lon="-98.73623167">
        <ele>1882.0</ele>
        <time>2019-10-12T15:50:40.902Z</time>
      </trkpt>
      <trkpt lat="20.256735" lon="-98.73623167">
        <ele>1883.0</ele>
        <time>2019-10-12T15:50:41.903Z</time>
      </trkpt>
      <trkpt lat="20.25675667" lon="-98.73622833">
        <ele>1884.0</ele>
        <time>2019-10-12T15:50:42.904Z</time>
      </trkpt>
      <trkpt lat="20.256775" lon="-98.73622167">
        <ele>1884.0</ele>
        <time>2019-10-12T15:50:43.905Z</time>
      </trkpt>
      <trkpt lat="20.25679167" lon="-98.73620833">
        <ele>1885.0</ele>
        <time>2019-10-12T15:50:44.906Z</time>
      </trkpt>
      <trkpt lat="20.25681" lon="-98.73619833">
        <ele>1885.0</ele>
        <time>2019-10-12T15:50:45.906Z</time>
      </trkpt>
      <trkpt lat="20.25682333" lon="-98.73618667">
        <ele>1884.0</ele>
        <time>2019-10-12T15:50:46.907Z</time>
      </trkpt>
      <trkpt lat="20.25683833" lon="-98.73617167">
        <ele>1883.0</ele>
        <time>2019-10-12T15:50:47.908Z</time>
      </trkpt>
      <trkpt lat="20.25686" lon="-98.73615833">
        <ele>1883.0</ele>
        <time>2019-10-12T15:50:48.913Z</time>
      </trkpt>
      <trkpt lat="20.25688333" lon="-98.736145">
        <ele>1883.0</ele>
        <time>2019-10-12T15:50:49.921Z</time>
      </trkpt>
      <trkpt lat="20.25690833" lon="-98.73613667">
        <ele>1882.0</ele>
        <time>2019-10-12T15:50:50.927Z</time>
      </trkpt>
      <trkpt lat="20.25693333" lon="-98.73612667">
        <ele>1881.0</ele>
        <time>2019-10-12T15:50:51.932Z</time>
      </trkpt>
      <trkpt lat="20.25695167" lon="-98.73611">
        <ele>1881.0</ele>
        <time>2019-10-12T15:50:52.933Z</time>
      </trkpt>
      <trkpt lat="20.256965" lon="-98.736095">
        <ele>1881.0</ele>
        <time>2019-10-12T15:50:53.934Z</time>
      </trkpt>
      <trkpt lat="20.25697" lon="-98.73607667">
        <ele>1882.0</ele>
        <time>2019-10-12T15:50:54.934Z</time>
      </trkpt>
      <trkpt lat="20.25697167" lon="-98.736055">
        <ele>1883.0</ele>
        <time>2019-10-12T15:50:55.935Z</time>
      </trkpt>
      <trkpt lat="20.25698" lon="-98.73604">
        <ele>1882.0</ele>
        <time>2019-10-12T15:50:56.936Z</time>
      </trkpt>
      <trkpt lat="20.25698333" lon="-98.736025">
        <ele>1883.0</ele>
        <time>2019-10-12T15:50:57.937Z</time>
      </trkpt>
      <trkpt lat="20.256985" lon="-98.73600833">
        <ele>1883.0</ele>
        <time>2019-10-12T15:50:58.940Z</time>
      </trkpt>
      <trkpt lat="20.256995" lon="-98.73599">
        <ele>1883.0</ele>
        <time>2019-10-12T15:50:59.945Z</time>
      </trkpt>
      <trkpt lat="20.25700333" lon="-98.73597333">
        <ele>1883.0</ele>
        <time>2019-10-12T15:51:00.953Z</time>
      </trkpt>
      <trkpt lat="20.25701167" lon="-98.73595667">
        <ele>1884.0</ele>
        <time>2019-10-12T15:51:01.833Z</time>
      </trkpt>
      <trkpt lat="20.25702" lon="-98.73594167">
        <ele>1885.0</ele>
        <time>2019-10-12T15:51:02.839Z</time>
      </trkpt>
      <trkpt lat="20.25702667" lon="-98.73592333">
        <ele>1885.0</ele>
        <time>2019-10-12T15:51:03.842Z</time>
      </trkpt>
      <trkpt lat="20.25703167" lon="-98.73590667">
        <ele>1886.0</ele>
        <time>2019-10-12T15:51:04.847Z</time>
      </trkpt>
      <trkpt lat="20.25703167" lon="-98.735895">
        <ele>1887.0</ele>
        <time>2019-10-12T15:51:05.855Z</time>
      </trkpt>
      <trkpt lat="20.25702667" lon="-98.735875">
        <ele>1888.0</ele>
        <time>2019-10-12T15:51:06.859Z</time>
      </trkpt>
      <trkpt lat="20.25702333" lon="-98.73585667">
        <ele>1889.0</ele>
        <time>2019-10-12T15:51:07.860Z</time>
      </trkpt>
      <trkpt lat="20.25702167" lon="-98.73584167">
        <ele>1889.0</ele>
        <time>2019-10-12T15:51:08.861Z</time>
      </trkpt>
      <trkpt lat="20.25701667" lon="-98.73582833">
        <ele>1889.0</ele>
        <time>2019-10-12T15:51:09.862Z</time>
      </trkpt>
      <trkpt lat="20.25701" lon="-98.73581333">
        <ele>1890.0</ele>
        <time>2019-10-12T15:51:10.862Z</time>
      </trkpt>
      <trkpt lat="20.25700333" lon="-98.73579833">
        <ele>1890.0</ele>
        <time>2019-10-12T15:51:11.863Z</time>
      </trkpt>
      <trkpt lat="20.25699167" lon="-98.73578667">
        <ele>1890.0</ele>
        <time>2019-10-12T15:51:12.864Z</time>
      </trkpt>
      <trkpt lat="20.25698" lon="-98.73577833">
        <ele>1890.0</ele>
        <time>2019-10-12T15:51:13.865Z</time>
      </trkpt>
      <trkpt lat="20.25696667" lon="-98.73577">
        <ele>1890.0</ele>
        <time>2019-10-12T15:51:14.866Z</time>
      </trkpt>
      <trkpt lat="20.25695333" lon="-98.735765">
        <ele>1890.0</ele>
        <time>2019-10-12T15:51:15.866Z</time>
      </trkpt>
      <trkpt lat="20.25693833" lon="-98.73576167">
        <ele>1890.0</ele>
        <time>2019-10-12T15:51:16.867Z</time>
      </trkpt>
      <trkpt lat="20.25692333" lon="-98.73575833">
        <ele>1890.0</ele>
        <time>2019-10-12T15:51:17.868Z</time>
      </trkpt>
      <trkpt lat="20.25690833" lon="-98.73575667">
        <ele>1890.0</ele>
        <time>2019-10-12T15:51:18.869Z</time>
      </trkpt>
      <trkpt lat="20.256895" lon="-98.73575667">
        <ele>1889.0</ele>
        <time>2019-10-12T15:51:19.870Z</time>
      </trkpt>
      <trkpt lat="20.25688" lon="-98.73576">
        <ele>1889.0</ele>
        <time>2019-10-12T15:51:20.871Z</time>
      </trkpt>
      <trkpt lat="20.256865" lon="-98.73576333">
        <ele>1889.0</ele>
        <time>2019-10-12T15:51:21.871Z</time>
      </trkpt>
      <trkpt lat="20.25685" lon="-98.73576667">
        <ele>1889.0</ele>
        <time>2019-10-12T15:51:22.872Z</time>
      </trkpt>
      <trkpt lat="20.25683667" lon="-98.73576833">
        <ele>1889.0</ele>
        <time>2019-10-12T15:51:23.873Z</time>
      </trkpt>
      <trkpt lat="20.25682167" lon="-98.73577">
        <ele>1888.0</ele>
        <time>2019-10-12T15:51:24.874Z</time>
      </trkpt>
      <trkpt lat="20.25680833" lon="-98.73577167">
        <ele>1888.0</ele>
        <time>2019-10-12T15:51:25.875Z</time>
      </trkpt>
      <trkpt lat="20.256795" lon="-98.735775">
        <ele>1888.0</ele>
        <time>2019-10-12T15:51:26.875Z</time>
      </trkpt>
      <trkpt lat="20.25678167" lon="-98.73577667">
        <ele>1888.0</ele>
        <time>2019-10-12T15:51:27.876Z</time>
      </trkpt>
      <trkpt lat="20.25676833" lon="-98.73578167">
        <ele>1888.0</ele>
        <time>2019-10-12T15:51:28.877Z</time>
      </trkpt>
      <trkpt lat="20.256755" lon="-98.73578833">
        <ele>1889.0</ele>
        <time>2019-10-12T15:51:29.877Z</time>
      </trkpt>
      <trkpt lat="20.25674167" lon="-98.73579333">
        <ele>1889.0</ele>
        <time>2019-10-12T15:51:30.879Z</time>
      </trkpt>
      <trkpt lat="20.25672667" lon="-98.73579667">
        <ele>1889.0</ele>
        <time>2019-10-12T15:51:31.879Z</time>
      </trkpt>
      <trkpt lat="20.25671333" lon="-98.73580333">
        <ele>1889.0</ele>
        <time>2019-10-12T15:51:32.888Z</time>
      </trkpt>
      <trkpt lat="20.25670167" lon="-98.73581">
        <ele>1889.0</ele>
        <time>2019-10-12T15:51:33.895Z</time>
      </trkpt>
      <trkpt lat="20.25668833" lon="-98.735815">
        <ele>1889.0</ele>
        <time>2019-10-12T15:51:34.896Z</time>
      </trkpt>
      <trkpt lat="20.25667333" lon="-98.73582333">
        <ele>1889.0</ele>
        <time>2019-10-12T15:51:35.903Z</time>
      </trkpt>
      <trkpt lat="20.25665833" lon="-98.73582833">
        <ele>1888.0</ele>
        <time>2019-10-12T15:51:36.906Z</time>
      </trkpt>
      <trkpt lat="20.25664667" lon="-98.73583667">
        <ele>1887.0</ele>
        <time>2019-10-12T15:51:37.914Z</time>
      </trkpt>
      <trkpt lat="20.25663667" lon="-98.735845">
        <ele>1887.0</ele>
        <time>2019-10-12T15:51:38.918Z</time>
      </trkpt>
      <trkpt lat="20.256625" lon="-98.73585333">
        <ele>1886.0</ele>
        <time>2019-10-12T15:51:39.923Z</time>
      </trkpt>
      <trkpt lat="20.25661167" lon="-98.73585833">
        <ele>1886.0</ele>
        <time>2019-10-12T15:51:40.931Z</time>
      </trkpt>
      <trkpt lat="20.2566" lon="-98.735865">
        <ele>1886.0</ele>
        <time>2019-10-12T15:51:41.932Z</time>
      </trkpt>
      <trkpt lat="20.25659" lon="-98.73587333">
        <ele>1886.0</ele>
        <time>2019-10-12T15:51:42.940Z</time>
      </trkpt>
      <trkpt lat="20.25657667" lon="-98.73588">
        <ele>1887.0</ele>
        <time>2019-10-12T15:51:43.947Z</time>
      </trkpt>
      <trkpt lat="20.256565" lon="-98.73588667">
        <ele>1887.0</ele>
        <time>2019-10-12T15:51:44.951Z</time>
      </trkpt>
      <trkpt lat="20.25655333" lon="-98.73589167">
        <ele>1888.0</ele>
        <time>2019-10-12T15:51:45.953Z</time>
      </trkpt>
      <trkpt lat="20.25654167" lon="-98.735895">
        <ele>1888.0</ele>
        <time>2019-10-12T15:51:46.954Z</time>
      </trkpt>
      <trkpt lat="20.25653167" lon="-98.7359">
        <ele>1888.0</ele>
        <time>2019-10-12T15:51:47.830Z</time>
      </trkpt>
      <trkpt lat="20.25652" lon="-98.73590333">
        <ele>1889.0</ele>
        <time>2019-10-12T15:51:48.835Z</time>
      </trkpt>
      <trkpt lat="20.25651" lon="-98.73590833">
        <ele>1889.0</ele>
        <time>2019-10-12T15:51:49.842Z</time>
      </trkpt>
      <trkpt lat="20.25650167" lon="-98.73591167">
        <ele>1889.0</ele>
        <time>2019-10-12T15:51:50.848Z</time>
      </trkpt>
      <trkpt lat="20.25649167" lon="-98.73591667">
        <ele>1889.0</ele>
        <time>2019-10-12T15:51:51.854Z</time>
      </trkpt>
      <trkpt lat="20.25648167" lon="-98.73592">
        <ele>1890.0</ele>
        <time>2019-10-12T15:51:52.855Z</time>
      </trkpt>
      <trkpt lat="20.25647333" lon="-98.73592333">
        <ele>1890.0</ele>
        <time>2019-10-12T15:51:53.856Z</time>
      </trkpt>
      <trkpt lat="20.25646333" lon="-98.73592667">
        <ele>1890.0</ele>
        <time>2019-10-12T15:51:54.857Z</time>
      </trkpt>
      <trkpt lat="20.25645333" lon="-98.73592833">
        <ele>1891.0</ele>
        <time>2019-10-12T15:51:55.858Z</time>
      </trkpt>
      <trkpt lat="20.25644333" lon="-98.73592667">
        <ele>1891.0</ele>
        <time>2019-10-12T15:51:56.859Z</time>
      </trkpt>
      <trkpt lat="20.25643333" lon="-98.73592667">
        <ele>1891.0</ele>
        <time>2019-10-12T15:51:57.865Z</time>
      </trkpt>
      <trkpt lat="20.25642167" lon="-98.735925">
        <ele>1892.0</ele>
        <time>2019-10-12T15:51:58.873Z</time>
      </trkpt>
      <trkpt lat="20.25640833" lon="-98.735925">
        <ele>1892.0</ele>
        <time>2019-10-12T15:51:59.881Z</time>
      </trkpt>
      <trkpt lat="20.256395" lon="-98.73592833">
        <ele>1893.0</ele>
        <time>2019-10-12T15:52:00.884Z</time>
      </trkpt>
      <trkpt lat="20.25638167" lon="-98.73593">
        <ele>1894.0</ele>
        <time>2019-10-12T15:52:01.888Z</time>
      </trkpt>
      <trkpt lat="20.25637" lon="-98.73593167">
        <ele>1895.0</ele>
        <time>2019-10-12T15:52:02.890Z</time>
      </trkpt>
      <trkpt lat="20.25635833" lon="-98.73593167">
        <ele>1895.0</ele>
        <time>2019-10-12T15:52:03.895Z</time>
      </trkpt>
      <trkpt lat="20.25634833" lon="-98.73593167">
        <ele>1895.0</ele>
        <time>2019-10-12T15:52:04.899Z</time>
      </trkpt>
      <trkpt lat="20.25633833" lon="-98.73593167">
        <ele>1894.0</ele>
        <time>2019-10-12T15:52:05.906Z</time>
      </trkpt>
      <trkpt lat="20.25632667" lon="-98.73593167">
        <ele>1894.0</ele>
        <time>2019-10-12T15:52:06.907Z</time>
      </trkpt>
      <trkpt lat="20.256315" lon="-98.73592833">
        <ele>1894.0</ele>
        <time>2019-10-12T15:52:07.908Z</time>
      </trkpt>
      <trkpt lat="20.256305" lon="-98.735925">
        <ele>1894.0</ele>
        <time>2019-10-12T15:52:08.909Z</time>
      </trkpt>
      <trkpt lat="20.25629333" lon="-98.73592333">
        <ele>1894.0</ele>
        <time>2019-10-12T15:52:09.909Z</time>
      </trkpt>
      <trkpt lat="20.25628167" lon="-98.73592167">
        <ele>1894.0</ele>
        <time>2019-10-12T15:52:10.910Z</time>
      </trkpt>
      <trkpt lat="20.25626833" lon="-98.73592167">
        <ele>1894.0</ele>
        <time>2019-10-12T15:52:11.911Z</time>
      </trkpt>
      <trkpt lat="20.25625667" lon="-98.73592">
        <ele>1894.0</ele>
        <time>2019-10-12T15:52:12.912Z</time>
      </trkpt>
      <trkpt lat="20.25624333" lon="-98.73592333">
        <ele>1894.0</ele>
        <time>2019-10-12T15:52:13.913Z</time>
      </trkpt>
      <trkpt lat="20.25623167" lon="-98.735925">
        <ele>1894.0</ele>
        <time>2019-10-12T15:52:14.913Z</time>
      </trkpt>
      <trkpt lat="20.25622167" lon="-98.73592667">
        <ele>1894.0</ele>
        <time>2019-10-12T15:52:15.914Z</time>
      </trkpt>
      <trkpt lat="20.25621" lon="-98.73593167">
        <ele>1894.0</ele>
        <time>2019-10-12T15:52:16.915Z</time>
      </trkpt>
      <trkpt lat="20.2562" lon="-98.73593667">
        <ele>1894.0</ele>
        <time>2019-10-12T15:52:17.919Z</time>
      </trkpt>
      <trkpt lat="20.25619" lon="-98.73594333">
        <ele>1895.0</ele>
        <time>2019-10-12T15:52:18.925Z</time>
      </trkpt>
      <trkpt lat="20.25617833" lon="-98.73595">
        <ele>1895.0</ele>
        <time>2019-10-12T15:52:19.927Z</time>
      </trkpt>
      <trkpt lat="20.25616667" lon="-98.73595667">
        <ele>1895.0</ele>
        <time>2019-10-12T15:52:20.932Z</time>
      </trkpt>
      <trkpt lat="20.256155" lon="-98.73596">
        <ele>1895.0</ele>
        <time>2019-10-12T15:52:21.938Z</time>
      </trkpt>
      <trkpt lat="20.25614167" lon="-98.73596333">
        <ele>1895.0</ele>
        <time>2019-10-12T15:52:22.941Z</time>
      </trkpt>
      <trkpt lat="20.25613167" lon="-98.73597167">
        <ele>1895.0</ele>
        <time>2019-10-12T15:52:23.944Z</time>
      </trkpt>
      <trkpt lat="20.25612167" lon="-98.73598167">
        <ele>1895.0</ele>
        <time>2019-10-12T15:52:24.950Z</time>
      </trkpt>
      <trkpt lat="20.256115" lon="-98.73599167">
        <ele>1895.0</ele>
        <time>2019-10-12T15:52:25.953Z</time>
      </trkpt>
      <trkpt lat="20.25610833" lon="-98.73600333">
        <ele>1895.0</ele>
        <time>2019-10-12T15:52:26.954Z</time>
      </trkpt>
      <trkpt lat="20.25610167" lon="-98.736015">
        <ele>1895.0</ele>
        <time>2019-10-12T15:52:27.835Z</time>
      </trkpt>
      <trkpt lat="20.256095" lon="-98.73602833">
        <ele>1896.0</ele>
        <time>2019-10-12T15:52:28.842Z</time>
      </trkpt>
      <trkpt lat="20.25608833" lon="-98.73604">
        <ele>1896.0</ele>
        <time>2019-10-12T15:52:29.848Z</time>
      </trkpt>
      <trkpt lat="20.25608333" lon="-98.73605333">
        <ele>1896.0</ele>
        <time>2019-10-12T15:52:30.853Z</time>
      </trkpt>
      <trkpt lat="20.25607833" lon="-98.73606667">
        <ele>1897.0</ele>
        <time>2019-10-12T15:52:31.858Z</time>
      </trkpt>
      <trkpt lat="20.25607333" lon="-98.73608">
        <ele>1897.0</ele>
        <time>2019-10-12T15:52:32.859Z</time>
      </trkpt>
      <trkpt lat="20.25607" lon="-98.73609333">
        <ele>1898.0</ele>
        <time>2019-10-12T15:52:33.866Z</time>
      </trkpt>
      <trkpt lat="20.25606667" lon="-98.73610833">
        <ele>1898.0</ele>
        <time>2019-10-12T15:52:34.869Z</time>
      </trkpt>
      <trkpt lat="20.25606167" lon="-98.73611833">
        <ele>1898.0</ele>
        <time>2019-10-12T15:52:35.872Z</time>
      </trkpt>
      <trkpt lat="20.256055" lon="-98.73613167">
        <ele>1898.0</ele>
        <time>2019-10-12T15:52:36.879Z</time>
      </trkpt>
      <trkpt lat="20.25605" lon="-98.736145">
        <ele>1898.0</ele>
        <time>2019-10-12T15:52:37.882Z</time>
      </trkpt>
      <trkpt lat="20.25604833" lon="-98.73616">
        <ele>1898.0</ele>
        <time>2019-10-12T15:52:38.883Z</time>
      </trkpt>
      <trkpt lat="20.25604167" lon="-98.73617667">
        <ele>1898.0</ele>
        <time>2019-10-12T15:52:39.887Z</time>
      </trkpt>
      <trkpt lat="20.25603833" lon="-98.73618667">
        <ele>1898.0</ele>
        <time>2019-10-12T15:52:40.889Z</time>
      </trkpt>
      <trkpt lat="20.25603333" lon="-98.73619833">
        <ele>1898.0</ele>
        <time>2019-10-12T15:52:41.890Z</time>
      </trkpt>
      <trkpt lat="20.25602667" lon="-98.73620667">
        <ele>1898.0</ele>
        <time>2019-10-12T15:52:42.890Z</time>
      </trkpt>
      <trkpt lat="20.25601667" lon="-98.736215">
        <ele>1898.0</ele>
        <time>2019-10-12T15:52:43.895Z</time>
      </trkpt>
      <trkpt lat="20.25600667" lon="-98.73622167">
        <ele>1898.0</ele>
        <time>2019-10-12T15:52:44.899Z</time>
      </trkpt>
      <trkpt lat="20.255995" lon="-98.73622833">
        <ele>1898.0</ele>
        <time>2019-10-12T15:52:45.905Z</time>
      </trkpt>
      <trkpt lat="20.25598667" lon="-98.73623833">
        <ele>1898.0</ele>
        <time>2019-10-12T15:52:46.913Z</time>
      </trkpt>
      <trkpt lat="20.255975" lon="-98.736245">
        <ele>1898.0</ele>
        <time>2019-10-12T15:52:47.918Z</time>
      </trkpt>
      <trkpt lat="20.25596333" lon="-98.73625">
        <ele>1899.0</ele>
        <time>2019-10-12T15:52:48.922Z</time>
      </trkpt>
      <trkpt lat="20.25595167" lon="-98.73625667">
        <ele>1899.0</ele>
        <time>2019-10-12T15:52:49.925Z</time>
      </trkpt>
      <trkpt lat="20.25593833" lon="-98.73626">
        <ele>1899.0</ele>
        <time>2019-10-12T15:52:50.932Z</time>
      </trkpt>
      <trkpt lat="20.255925" lon="-98.736265">
        <ele>1900.0</ele>
        <time>2019-10-12T15:52:51.939Z</time>
      </trkpt>
      <trkpt lat="20.25591167" lon="-98.73627">
        <ele>1900.0</ele>
        <time>2019-10-12T15:52:52.940Z</time>
      </trkpt>
      <trkpt lat="20.25589833" lon="-98.736275">
        <ele>1901.0</ele>
        <time>2019-10-12T15:52:53.941Z</time>
      </trkpt>
      <trkpt lat="20.255885" lon="-98.73627833">
        <ele>1902.0</ele>
        <time>2019-10-12T15:52:54.941Z</time>
      </trkpt>
      <trkpt lat="20.25587" lon="-98.73628167">
        <ele>1902.0</ele>
        <time>2019-10-12T15:52:55.941Z</time>
      </trkpt>
      <trkpt lat="20.25585667" lon="-98.73628667">
        <ele>1903.0</ele>
        <time>2019-10-12T15:52:56.943Z</time>
      </trkpt>
      <trkpt lat="20.255845" lon="-98.73629167">
        <ele>1903.0</ele>
        <time>2019-10-12T15:52:57.943Z</time>
      </trkpt>
      <trkpt lat="20.25583333" lon="-98.73629667">
        <ele>1903.0</ele>
        <time>2019-10-12T15:52:58.944Z</time>
      </trkpt>
      <trkpt lat="20.25582167" lon="-98.736305">
        <ele>1904.0</ele>
        <time>2019-10-12T15:52:59.945Z</time>
      </trkpt>
      <trkpt lat="20.25581" lon="-98.736315">
        <ele>1904.0</ele>
        <time>2019-10-12T15:53:00.946Z</time>
      </trkpt>
      <trkpt lat="20.2558" lon="-98.736325">
        <ele>1905.0</ele>
        <time>2019-10-12T15:53:01.947Z</time>
      </trkpt>
      <trkpt lat="20.25579167" lon="-98.73633833">
        <ele>1905.0</ele>
        <time>2019-10-12T15:53:02.947Z</time>
      </trkpt>
      <trkpt lat="20.25578" lon="-98.73635">
        <ele>1905.0</ele>
        <time>2019-10-12T15:53:03.948Z</time>
      </trkpt>
      <trkpt lat="20.25577167" lon="-98.73636167">
        <ele>1905.0</ele>
        <time>2019-10-12T15:53:04.949Z</time>
      </trkpt>
      <trkpt lat="20.255765" lon="-98.73637667">
        <ele>1906.0</ele>
        <time>2019-10-12T15:53:05.950Z</time>
      </trkpt>
      <trkpt lat="20.255765" lon="-98.73639167">
        <ele>1906.0</ele>
        <time>2019-10-12T15:53:06.951Z</time>
      </trkpt>
      <trkpt lat="20.25576667" lon="-98.73641">
        <ele>1906.0</ele>
        <time>2019-10-12T15:53:07.951Z</time>
      </trkpt>
      <trkpt lat="20.255775" lon="-98.73642333">
        <ele>1906.0</ele>
        <time>2019-10-12T15:53:08.952Z</time>
      </trkpt>
      <trkpt lat="20.25579" lon="-98.736435">
        <ele>1907.0</ele>
        <time>2019-10-12T15:53:09.953Z</time>
      </trkpt>
      <trkpt lat="20.25580667" lon="-98.73644167">
        <ele>1907.0</ele>
        <time>2019-10-12T15:53:10.954Z</time>
      </trkpt>
      <trkpt lat="20.25582333" lon="-98.736445">
        <ele>1907.0</ele>
        <time>2019-10-12T15:53:11.954Z</time>
      </trkpt>
      <trkpt lat="20.25584" lon="-98.736445">
        <ele>1907.0</ele>
        <time>2019-10-12T15:53:12.954Z</time>
      </trkpt>
      <trkpt lat="20.255855" lon="-98.73644333">
        <ele>1908.0</ele>
        <time>2019-10-12T15:53:13.954Z</time>
      </trkpt>
      <trkpt lat="20.25587" lon="-98.736435">
        <ele>1909.0</ele>
        <time>2019-10-12T15:53:14.830Z</time>
      </trkpt>
      <trkpt lat="20.255885" lon="-98.736425">
        <ele>1910.0</ele>
        <time>2019-10-12T15:53:15.834Z</time>
      </trkpt>
      <trkpt lat="20.25589833" lon="-98.73641333">
        <ele>1910.0</ele>
        <time>2019-10-12T15:53:16.837Z</time>
      </trkpt>
      <trkpt lat="20.25591" lon="-98.73640333">
        <ele>1910.0</ele>
        <time>2019-10-12T15:53:17.839Z</time>
      </trkpt>
      <trkpt lat="20.25592333" lon="-98.73639333">
        <ele>1909.0</ele>
        <time>2019-10-12T15:53:18.847Z</time>
      </trkpt>
      <trkpt lat="20.25593833" lon="-98.73638833">
        <ele>1908.0</ele>
        <time>2019-10-12T15:53:19.847Z</time>
      </trkpt>
      <trkpt lat="20.255955" lon="-98.73638333">
        <ele>1907.0</ele>
        <time>2019-10-12T15:53:20.854Z</time>
      </trkpt>
      <trkpt lat="20.25597" lon="-98.73637667">
        <ele>1907.0</ele>
        <time>2019-10-12T15:53:21.857Z</time>
      </trkpt>
      <trkpt lat="20.25598333" lon="-98.73637333">
        <ele>1907.0</ele>
        <time>2019-10-12T15:53:22.863Z</time>
      </trkpt>
      <trkpt lat="20.25599833" lon="-98.73637">
        <ele>1907.0</ele>
        <time>2019-10-12T15:53:23.868Z</time>
      </trkpt>
      <trkpt lat="20.25601333" lon="-98.73636667">
        <ele>1908.0</ele>
        <time>2019-10-12T15:53:24.873Z</time>
      </trkpt>
      <trkpt lat="20.25602833" lon="-98.73635833">
        <ele>1909.0</ele>
        <time>2019-10-12T15:53:25.876Z</time>
      </trkpt>
      <trkpt lat="20.25604" lon="-98.73636167">
        <ele>1909.0</ele>
        <time>2019-10-12T15:53:26.876Z</time>
      </trkpt>
      <trkpt lat="20.25605667" lon="-98.736365">
        <ele>1910.0</ele>
        <time>2019-10-12T15:53:27.883Z</time>
      </trkpt>
      <trkpt lat="20.25607" lon="-98.73636833">
        <ele>1910.0</ele>
        <time>2019-10-12T15:53:28.891Z</time>
      </trkpt>
      <trkpt lat="20.25608167" lon="-98.73637167">
        <ele>1911.0</ele>
        <time>2019-10-12T15:53:29.899Z</time>
      </trkpt>
      <trkpt lat="20.25609667" lon="-98.73637833">
        <ele>1912.0</ele>
        <time>2019-10-12T15:53:30.904Z</time>
      </trkpt>
      <trkpt lat="20.25610333" lon="-98.73638667">
        <ele>1912.0</ele>
        <time>2019-10-12T15:53:31.905Z</time>
      </trkpt>
      <trkpt lat="20.25611" lon="-98.7364">
        <ele>1912.0</ele>
        <time>2019-10-12T15:53:32.906Z</time>
      </trkpt>
      <trkpt lat="20.25611167" lon="-98.736415">
        <ele>1911.0</ele>
        <time>2019-10-12T15:53:33.906Z</time>
      </trkpt>
      <trkpt lat="20.25611167" lon="-98.73643">
        <ele>1911.0</ele>
        <time>2019-10-12T15:53:34.907Z</time>
      </trkpt>
      <trkpt lat="20.25611" lon="-98.73644167">
        <ele>1911.0</ele>
        <time>2019-10-12T15:53:35.908Z</time>
      </trkpt>
      <trkpt lat="20.25610667" lon="-98.73645667">
        <ele>1911.0</ele>
        <time>2019-10-12T15:53:36.909Z</time>
      </trkpt>
      <trkpt lat="20.25610167" lon="-98.73647">
        <ele>1911.0</ele>
        <time>2019-10-12T15:53:37.909Z</time>
      </trkpt>
      <trkpt lat="20.25609667" lon="-98.73648333">
        <ele>1912.0</ele>
        <time>2019-10-12T15:53:38.911Z</time>
      </trkpt>
      <trkpt lat="20.25609167" lon="-98.73649667">
        <ele>1912.0</ele>
        <time>2019-10-12T15:53:39.911Z</time>
      </trkpt>
      <trkpt lat="20.256085" lon="-98.73650833">
        <ele>1913.0</ele>
        <time>2019-10-12T15:53:40.912Z</time>
      </trkpt>
      <trkpt lat="20.25607833" lon="-98.73652">
        <ele>1913.0</ele>
        <time>2019-10-12T15:53:41.913Z</time>
      </trkpt>
      <trkpt lat="20.25607333" lon="-98.73653167">
        <ele>1914.0</ele>
        <time>2019-10-12T15:53:42.914Z</time>
      </trkpt>
      <trkpt lat="20.25606667" lon="-98.73654">
        <ele>1913.0</ele>
        <time>2019-10-12T15:53:43.914Z</time>
      </trkpt>
      <trkpt lat="20.25606167" lon="-98.73655167">
        <ele>1914.0</ele>
        <time>2019-10-12T15:53:44.915Z</time>
      </trkpt>
      <trkpt lat="20.256055" lon="-98.73656167">
        <ele>1914.0</ele>
        <time>2019-10-12T15:53:45.918Z</time>
      </trkpt>
      <trkpt lat="20.256045" lon="-98.73657">
        <ele>1915.0</ele>
        <time>2019-10-12T15:53:46.925Z</time>
      </trkpt>
      <trkpt lat="20.256035" lon="-98.73657667">
        <ele>1915.0</ele>
        <time>2019-10-12T15:53:47.932Z</time>
      </trkpt>
      <trkpt lat="20.256025" lon="-98.73658667">
        <ele>1916.0</ele>
        <time>2019-10-12T15:53:48.939Z</time>
      </trkpt>
      <trkpt lat="20.25601333" lon="-98.736595">
        <ele>1916.0</ele>
        <time>2019-10-12T15:53:49.941Z</time>
      </trkpt>
      <trkpt lat="20.25600333" lon="-98.73660333">
        <ele>1916.0</ele>
        <time>2019-10-12T15:53:50.941Z</time>
      </trkpt>
      <trkpt lat="20.25599833" lon="-98.73661333">
        <ele>1916.0</ele>
        <time>2019-10-12T15:53:51.942Z</time>
      </trkpt>
      <trkpt lat="20.25599" lon="-98.73662167">
        <ele>1916.0</ele>
        <time>2019-10-12T15:53:52.944Z</time>
      </trkpt>
      <trkpt lat="20.25597833" lon="-98.73662667">
        <ele>1916.0</ele>
        <time>2019-10-12T15:53:53.951Z</time>
      </trkpt>
      <trkpt lat="20.25597" lon="-98.73662833">
        <ele>1916.0</ele>
        <time>2019-10-12T15:53:54.832Z</time>
      </trkpt>
      <trkpt lat="20.25596" lon="-98.73663333">
        <ele>1916.0</ele>
        <time>2019-10-12T15:53:55.839Z</time>
      </trkpt>
      <trkpt lat="20.25594833" lon="-98.73664">
        <ele>1915.0</ele>
        <time>2019-10-12T15:53:56.847Z</time>
      </trkpt>
      <trkpt lat="20.25593667" lon="-98.73664833">
        <ele>1916.0</ele>
        <time>2019-10-12T15:53:57.854Z</time>
      </trkpt>
      <trkpt lat="20.25592833" lon="-98.736655">
        <ele>1916.0</ele>
        <time>2019-10-12T15:53:58.858Z</time>
      </trkpt>
      <trkpt lat="20.25591667" lon="-98.73666667">
        <ele>1917.0</ele>
        <time>2019-10-12T15:53:59.860Z</time>
      </trkpt>
      <trkpt lat="20.255905" lon="-98.736675">
        <ele>1917.0</ele>
        <time>2019-10-12T15:54:00.865Z</time>
      </trkpt>
      <trkpt lat="20.25589333" lon="-98.73668333">
        <ele>1918.0</ele>
        <time>2019-10-12T15:54:01.869Z</time>
      </trkpt>
      <trkpt lat="20.25588167" lon="-98.73669667">
        <ele>1919.0</ele>
        <time>2019-10-12T15:54:02.875Z</time>
      </trkpt>
      <trkpt lat="20.25587167" lon="-98.73670667">
        <ele>1919.0</ele>
        <time>2019-10-12T15:54:03.882Z</time>
      </trkpt>
      <trkpt lat="20.25586167" lon="-98.736715">
        <ele>1919.0</ele>
        <time>2019-10-12T15:54:04.884Z</time>
      </trkpt>
      <trkpt lat="20.25585167" lon="-98.736725">
        <ele>1920.0</ele>
        <time>2019-10-12T15:54:05.891Z</time>
      </trkpt>
      <trkpt lat="20.25584333" lon="-98.73673667">
        <ele>1921.0</ele>
        <time>2019-10-12T15:54:06.895Z</time>
      </trkpt>
      <trkpt lat="20.25583333" lon="-98.73674667">
        <ele>1921.0</ele>
        <time>2019-10-12T15:54:07.901Z</time>
      </trkpt>
      <trkpt lat="20.25582833" lon="-98.73675667">
        <ele>1922.0</ele>
        <time>2019-10-12T15:54:08.905Z</time>
      </trkpt>
      <trkpt lat="20.25582" lon="-98.73676667">
        <ele>1922.0</ele>
        <time>2019-10-12T15:54:09.907Z</time>
      </trkpt>
      <trkpt lat="20.25581167" lon="-98.736775">
        <ele>1922.0</ele>
        <time>2019-10-12T15:54:10.915Z</time>
      </trkpt>
      <trkpt lat="20.25580333" lon="-98.73678333">
        <ele>1922.0</ele>
        <time>2019-10-12T15:54:11.921Z</time>
      </trkpt>
      <trkpt lat="20.255795" lon="-98.73679167">
        <ele>1921.0</ele>
        <time>2019-10-12T15:54:12.928Z</time>
      </trkpt>
      <trkpt lat="20.255785" lon="-98.7368">
        <ele>1921.0</ele>
        <time>2019-10-12T15:54:13.935Z</time>
      </trkpt>
      <trkpt lat="20.255775" lon="-98.73681">
        <ele>1922.0</ele>
        <time>2019-10-12T15:54:14.935Z</time>
      </trkpt>
      <trkpt lat="20.25577" lon="-98.73682">
        <ele>1922.0</ele>
        <time>2019-10-12T15:54:15.942Z</time>
      </trkpt>
      <trkpt lat="20.255765" lon="-98.73683167">
        <ele>1922.0</ele>
        <time>2019-10-12T15:54:16.949Z</time>
      </trkpt>
      <trkpt lat="20.25576" lon="-98.73684167">
        <ele>1922.0</ele>
        <time>2019-10-12T15:54:17.953Z</time>
      </trkpt>
      <trkpt lat="20.25575667" lon="-98.736855">
        <ele>1922.0</ele>
        <time>2019-10-12T15:54:18.835Z</time>
      </trkpt>
      <trkpt lat="20.25575167" lon="-98.736865">
        <ele>1922.0</ele>
        <time>2019-10-12T15:54:19.838Z</time>
      </trkpt>
      <trkpt lat="20.255745" lon="-98.73688">
        <ele>1923.0</ele>
        <time>2019-10-12T15:54:20.846Z</time>
      </trkpt>
      <trkpt lat="20.25574" lon="-98.73688667">
        <ele>1923.0</ele>
        <time>2019-10-12T15:54:21.853Z</time>
      </trkpt>
      <trkpt lat="20.25573667" lon="-98.73689833">
        <ele>1923.0</ele>
        <time>2019-10-12T15:54:22.860Z</time>
      </trkpt>
      <trkpt lat="20.25573167" lon="-98.73691">
        <ele>1924.0</ele>
        <time>2019-10-12T15:54:23.866Z</time>
      </trkpt>
      <trkpt lat="20.255725" lon="-98.73692333">
        <ele>1924.0</ele>
        <time>2019-10-12T15:54:24.868Z</time>
      </trkpt>
      <trkpt lat="20.25572" lon="-98.73693333">
        <ele>1924.0</ele>
        <time>2019-10-12T15:54:25.874Z</time>
      </trkpt>
      <trkpt lat="20.25571667" lon="-98.736945">
        <ele>1924.0</ele>
        <time>2019-10-12T15:54:26.882Z</time>
      </trkpt>
      <trkpt lat="20.25571167" lon="-98.73695667">
        <ele>1924.0</ele>
        <time>2019-10-12T15:54:27.886Z</time>
      </trkpt>
      <trkpt lat="20.255705" lon="-98.736965">
        <ele>1924.0</ele>
        <time>2019-10-12T15:54:28.886Z</time>
      </trkpt>
      <trkpt lat="20.2557" lon="-98.736975">
        <ele>1925.0</ele>
        <time>2019-10-12T15:54:29.888Z</time>
      </trkpt>
      <trkpt lat="20.25569833" lon="-98.736985">
        <ele>1925.0</ele>
        <time>2019-10-12T15:54:30.889Z</time>
      </trkpt>
      <trkpt lat="20.25569667" lon="-98.73699333">
        <ele>1925.0</ele>
        <time>2019-10-12T15:54:31.892Z</time>
      </trkpt>
      <trkpt lat="20.25569167" lon="-98.73700333">
        <ele>1926.0</ele>
        <time>2019-10-12T15:54:32.899Z</time>
      </trkpt>
      <trkpt lat="20.25568833" lon="-98.73701">
        <ele>1926.0</ele>
        <time>2019-10-12T15:54:33.907Z</time>
      </trkpt>
      <trkpt lat="20.255685" lon="-98.73702">
        <ele>1926.0</ele>
        <time>2019-10-12T15:54:34.912Z</time>
      </trkpt>
      <trkpt lat="20.25567833" lon="-98.73702833">
        <ele>1925.0</ele>
        <time>2019-10-12T15:54:35.920Z</time>
      </trkpt>
      <trkpt lat="20.25567167" lon="-98.73703667">
        <ele>1925.0</ele>
        <time>2019-10-12T15:54:36.925Z</time>
      </trkpt>
      <trkpt lat="20.25566667" lon="-98.73704333">
        <ele>1925.0</ele>
        <time>2019-10-12T15:54:37.933Z</time>
      </trkpt>
      <trkpt lat="20.25566167" lon="-98.73705333">
        <ele>1925.0</ele>
        <time>2019-10-12T15:54:38.941Z</time>
      </trkpt>
      <trkpt lat="20.255655" lon="-98.73706333">
        <ele>1926.0</ele>
        <time>2019-10-12T15:54:39.946Z</time>
      </trkpt>
      <trkpt lat="20.25565" lon="-98.73707333">
        <ele>1926.0</ele>
        <time>2019-10-12T15:54:40.952Z</time>
      </trkpt>
      <trkpt lat="20.25564333" lon="-98.73708167">
        <ele>1926.0</ele>
        <time>2019-10-12T15:54:41.832Z</time>
      </trkpt>
      <trkpt lat="20.255635" lon="-98.73709">
        <ele>1926.0</ele>
        <time>2019-10-12T15:54:42.833Z</time>
      </trkpt>
      <trkpt lat="20.25562833" lon="-98.737095">
        <ele>1926.0</ele>
        <time>2019-10-12T15:54:43.836Z</time>
      </trkpt>
      <trkpt lat="20.25562333" lon="-98.73710333">
        <ele>1927.0</ele>
        <time>2019-10-12T15:54:44.843Z</time>
      </trkpt>
      <trkpt lat="20.25561833" lon="-98.73711">
        <ele>1927.0</ele>
        <time>2019-10-12T15:54:45.843Z</time>
      </trkpt>
      <trkpt lat="20.25561333" lon="-98.73711833">
        <ele>1927.0</ele>
        <time>2019-10-12T15:54:46.849Z</time>
      </trkpt>
      <trkpt lat="20.25560833" lon="-98.73712833">
        <ele>1927.0</ele>
        <time>2019-10-12T15:54:47.857Z</time>
      </trkpt>
      <trkpt lat="20.2556" lon="-98.73713833">
        <ele>1928.0</ele>
        <time>2019-10-12T15:54:48.863Z</time>
      </trkpt>
      <trkpt lat="20.255595" lon="-98.73714667">
        <ele>1929.0</ele>
        <time>2019-10-12T15:54:49.869Z</time>
      </trkpt>
      <trkpt lat="20.25559333" lon="-98.73715667">
        <ele>1930.0</ele>
        <time>2019-10-12T15:54:50.873Z</time>
      </trkpt>
      <trkpt lat="20.25559" lon="-98.73717167">
        <ele>1930.0</ele>
        <time>2019-10-12T15:54:51.876Z</time>
      </trkpt>
      <trkpt lat="20.255585" lon="-98.73718333">
        <ele>1931.0</ele>
        <time>2019-10-12T15:54:52.879Z</time>
      </trkpt>
      <trkpt lat="20.25558167" lon="-98.73719167">
        <ele>1931.0</ele>
        <time>2019-10-12T15:54:53.885Z</time>
      </trkpt>
      <trkpt lat="20.25557833" lon="-98.7372">
        <ele>1932.0</ele>
        <time>2019-10-12T15:54:54.892Z</time>
      </trkpt>
      <trkpt lat="20.255575" lon="-98.73721333">
        <ele>1932.0</ele>
        <time>2019-10-12T15:54:55.899Z</time>
      </trkpt>
      <trkpt lat="20.25556667" lon="-98.73722333">
        <ele>1932.0</ele>
        <time>2019-10-12T15:54:56.907Z</time>
      </trkpt>
      <trkpt lat="20.25555833" lon="-98.737235">
        <ele>1931.0</ele>
        <time>2019-10-12T15:54:57.908Z</time>
      </trkpt>
      <trkpt lat="20.25555667" lon="-98.73725">
        <ele>1930.0</ele>
        <time>2019-10-12T15:54:58.909Z</time>
      </trkpt>
      <trkpt lat="20.25555833" lon="-98.73726333">
        <ele>1930.0</ele>
        <time>2019-10-12T15:54:59.909Z</time>
      </trkpt>
      <trkpt lat="20.25555833" lon="-98.73727667">
        <ele>1930.0</ele>
        <time>2019-10-12T15:55:00.910Z</time>
      </trkpt>
      <trkpt lat="20.255555" lon="-98.73729">
        <ele>1930.0</ele>
        <time>2019-10-12T15:55:01.911Z</time>
      </trkpt>
      <trkpt lat="20.25555667" lon="-98.73730167">
        <ele>1931.0</ele>
        <time>2019-10-12T15:55:02.911Z</time>
      </trkpt>
      <trkpt lat="20.25556" lon="-98.73731667">
        <ele>1931.0</ele>
        <time>2019-10-12T15:55:03.913Z</time>
      </trkpt>
      <trkpt lat="20.25556" lon="-98.737325">
        <ele>1931.0</ele>
        <time>2019-10-12T15:55:04.913Z</time>
      </trkpt>
      <trkpt lat="20.25555833" lon="-98.73733167">
        <ele>1931.0</ele>
        <time>2019-10-12T15:55:05.914Z</time>
      </trkpt>
      <trkpt lat="20.25556" lon="-98.73734167">
        <ele>1931.0</ele>
        <time>2019-10-12T15:55:06.915Z</time>
      </trkpt>
      <trkpt lat="20.25556" lon="-98.73735167">
        <ele>1930.0</ele>
        <time>2019-10-12T15:55:07.915Z</time>
      </trkpt>
      <trkpt lat="20.25556167" lon="-98.73736333">
        <ele>1930.0</ele>
        <time>2019-10-12T15:55:08.919Z</time>
      </trkpt>
      <trkpt lat="20.25556167" lon="-98.737375">
        <ele>1930.0</ele>
        <time>2019-10-12T15:55:09.919Z</time>
      </trkpt>
      <trkpt lat="20.25556333" lon="-98.737385">
        <ele>1930.0</ele>
        <time>2019-10-12T15:55:10.926Z</time>
      </trkpt>
      <trkpt lat="20.25556333" lon="-98.737395">
        <ele>1929.0</ele>
        <time>2019-10-12T15:55:11.933Z</time>
      </trkpt>
      <trkpt lat="20.25556333" lon="-98.737405">
        <ele>1929.0</ele>
        <time>2019-10-12T15:55:12.940Z</time>
      </trkpt>
      <trkpt lat="20.25556333" lon="-98.73741667">
        <ele>1929.0</ele>
        <time>2019-10-12T15:55:13.941Z</time>
      </trkpt>
      <trkpt lat="20.25556333" lon="-98.73742167">
        <ele>1929.0</ele>
        <time>2019-10-12T15:55:14.946Z</time>
      </trkpt>
      <trkpt lat="20.25556333" lon="-98.737435">
        <ele>1929.0</ele>
        <time>2019-10-12T15:55:15.950Z</time>
      </trkpt>
      <trkpt lat="20.25556667" lon="-98.73744667">
        <ele>1929.0</ele>
        <time>2019-10-12T15:55:16.951Z</time>
      </trkpt>
      <trkpt lat="20.25557" lon="-98.73746">
        <ele>1929.0</ele>
        <time>2019-10-12T15:55:17.833Z</time>
      </trkpt>
      <trkpt lat="20.25557333" lon="-98.73746667">
        <ele>1930.0</ele>
        <time>2019-10-12T15:55:18.841Z</time>
      </trkpt>
      <trkpt lat="20.25557667" lon="-98.737475">
        <ele>1931.0</ele>
        <time>2019-10-12T15:55:19.847Z</time>
      </trkpt>
      <trkpt lat="20.25558" lon="-98.73747833">
        <ele>1931.0</ele>
        <time>2019-10-12T15:55:20.853Z</time>
      </trkpt>
      <trkpt lat="20.25558333" lon="-98.737485">
        <ele>1932.0</ele>
        <time>2019-10-12T15:55:21.856Z</time>
      </trkpt>
      <trkpt lat="20.25558833" lon="-98.73749833">
        <ele>1932.0</ele>
        <time>2019-10-12T15:55:22.862Z</time>
      </trkpt>
      <trkpt lat="20.25559167" lon="-98.73750833">
        <ele>1933.0</ele>
        <time>2019-10-12T15:55:23.869Z</time>
      </trkpt>
      <trkpt lat="20.25559833" lon="-98.73751833">
        <ele>1933.0</ele>
        <time>2019-10-12T15:55:24.869Z</time>
      </trkpt>
      <trkpt lat="20.255605" lon="-98.73752833">
        <ele>1934.0</ele>
        <time>2019-10-12T15:55:25.873Z</time>
      </trkpt>
      <trkpt lat="20.25561" lon="-98.73753667">
        <ele>1935.0</ele>
        <time>2019-10-12T15:55:26.880Z</time>
      </trkpt>
      <trkpt lat="20.25561833" lon="-98.73754667">
        <ele>1935.0</ele>
        <time>2019-10-12T15:55:27.886Z</time>
      </trkpt>
      <trkpt lat="20.25562167" lon="-98.737555">
        <ele>1936.0</ele>
        <time>2019-10-12T15:55:28.891Z</time>
      </trkpt>
      <trkpt lat="20.255625" lon="-98.737565">
        <ele>1937.0</ele>
        <time>2019-10-12T15:55:29.891Z</time>
      </trkpt>
      <trkpt lat="20.25562667" lon="-98.73757333">
        <ele>1937.0</ele>
        <time>2019-10-12T15:55:30.898Z</time>
      </trkpt>
      <trkpt lat="20.25563" lon="-98.73758167">
        <ele>1937.0</ele>
        <time>2019-10-12T15:55:31.899Z</time>
      </trkpt>
      <trkpt lat="20.25563167" lon="-98.73759333">
        <ele>1937.0</ele>
        <time>2019-10-12T15:55:32.905Z</time>
      </trkpt>
      <trkpt lat="20.255635" lon="-98.73760333">
        <ele>1937.0</ele>
        <time>2019-10-12T15:55:33.913Z</time>
      </trkpt>
      <trkpt lat="20.25563833" lon="-98.73761667">
        <ele>1937.0</ele>
        <time>2019-10-12T15:55:34.921Z</time>
      </trkpt>
      <trkpt lat="20.25564167" lon="-98.73762833">
        <ele>1937.0</ele>
        <time>2019-10-12T15:55:35.922Z</time>
      </trkpt>
      <trkpt lat="20.25564833" lon="-98.73764">
        <ele>1938.0</ele>
        <time>2019-10-12T15:55:36.925Z</time>
      </trkpt>
      <trkpt lat="20.25565333" lon="-98.73765167">
        <ele>1939.0</ele>
        <time>2019-10-12T15:55:37.926Z</time>
      </trkpt>
      <trkpt lat="20.255655" lon="-98.73766167">
        <ele>1940.0</ele>
        <time>2019-10-12T15:55:38.934Z</time>
      </trkpt>
      <trkpt lat="20.255655" lon="-98.73767167">
        <ele>1940.0</ele>
        <time>2019-10-12T15:55:39.941Z</time>
      </trkpt>
      <trkpt lat="20.255655" lon="-98.73768167">
        <ele>1940.0</ele>
        <time>2019-10-12T15:55:40.941Z</time>
      </trkpt>
      <trkpt lat="20.255655" lon="-98.73769333">
        <ele>1940.0</ele>
        <time>2019-10-12T15:55:41.941Z</time>
      </trkpt>
      <trkpt lat="20.25565667" lon="-98.737705">
        <ele>1940.0</ele>
        <time>2019-10-12T15:55:42.946Z</time>
      </trkpt>
      <trkpt lat="20.255655" lon="-98.73771833">
        <ele>1941.0</ele>
        <time>2019-10-12T15:55:43.952Z</time>
      </trkpt>
      <trkpt lat="20.255655" lon="-98.73773">
        <ele>1941.0</ele>
        <time>2019-10-12T15:55:44.833Z</time>
      </trkpt>
      <trkpt lat="20.255655" lon="-98.73774333">
        <ele>1942.0</ele>
        <time>2019-10-12T15:55:45.837Z</time>
      </trkpt>
      <trkpt lat="20.25565167" lon="-98.73776167">
        <ele>1943.0</ele>
        <time>2019-10-12T15:55:46.841Z</time>
      </trkpt>
      <trkpt lat="20.25565" lon="-98.73777167">
        <ele>1943.0</ele>
        <time>2019-10-12T15:55:47.843Z</time>
      </trkpt>
      <trkpt lat="20.25565" lon="-98.73778333">
        <ele>1943.0</ele>
        <time>2019-10-12T15:55:48.850Z</time>
      </trkpt>
      <trkpt lat="20.25565" lon="-98.73779833">
        <ele>1943.0</ele>
        <time>2019-10-12T15:55:49.852Z</time>
      </trkpt>
      <trkpt lat="20.25564667" lon="-98.73781167">
        <ele>1943.0</ele>
        <time>2019-10-12T15:55:50.861Z</time>
      </trkpt>
      <trkpt lat="20.255645" lon="-98.737825">
        <ele>1943.0</ele>
        <time>2019-10-12T15:55:51.864Z</time>
      </trkpt>
      <trkpt lat="20.25564333" lon="-98.73784167">
        <ele>1943.0</ele>
        <time>2019-10-12T15:55:52.870Z</time>
      </trkpt>
      <trkpt lat="20.25564167" lon="-98.73785167">
        <ele>1944.0</ele>
        <time>2019-10-12T15:55:53.878Z</time>
      </trkpt>
      <trkpt lat="20.25563667" lon="-98.73786667">
        <ele>1944.0</ele>
        <time>2019-10-12T15:55:54.885Z</time>
      </trkpt>
      <trkpt lat="20.25563167" lon="-98.73787667">
        <ele>1945.0</ele>
        <time>2019-10-12T15:55:55.889Z</time>
      </trkpt>
      <trkpt lat="20.255625" lon="-98.73788667">
        <ele>1945.0</ele>
        <time>2019-10-12T15:55:56.890Z</time>
      </trkpt>
      <trkpt lat="20.25561667" lon="-98.73790167">
        <ele>1945.0</ele>
        <time>2019-10-12T15:55:57.890Z</time>
      </trkpt>
      <trkpt lat="20.25560833" lon="-98.73791167">
        <ele>1945.0</ele>
        <time>2019-10-12T15:55:58.895Z</time>
      </trkpt>
      <trkpt lat="20.25559667" lon="-98.73792">
        <ele>1945.0</ele>
        <time>2019-10-12T15:55:59.901Z</time>
      </trkpt>
      <trkpt lat="20.255585" lon="-98.73792667">
        <ele>1946.0</ele>
        <time>2019-10-12T15:56:00.902Z</time>
      </trkpt>
      <trkpt lat="20.25557167" lon="-98.737925">
        <ele>1947.0</ele>
        <time>2019-10-12T15:56:01.909Z</time>
      </trkpt>
      <trkpt lat="20.25555833" lon="-98.73792167">
        <ele>1947.0</ele>
        <time>2019-10-12T15:56:02.916Z</time>
      </trkpt>
      <trkpt lat="20.25554667" lon="-98.73791833">
        <ele>1948.0</ele>
        <time>2019-10-12T15:56:03.924Z</time>
      </trkpt>
      <trkpt lat="20.25553667" lon="-98.73791">
        <ele>1949.0</ele>
        <time>2019-10-12T15:56:04.930Z</time>
      </trkpt>
      <trkpt lat="20.25552833" lon="-98.73789833">
        <ele>1950.0</ele>
        <time>2019-10-12T15:56:05.936Z</time>
      </trkpt>
      <trkpt lat="20.25552167" lon="-98.73788667">
        <ele>1950.0</ele>
        <time>2019-10-12T15:56:06.941Z</time>
      </trkpt>
      <trkpt lat="20.25551333" lon="-98.737875">
        <ele>1951.0</ele>
        <time>2019-10-12T15:56:07.942Z</time>
      </trkpt>
      <trkpt lat="20.25550833" lon="-98.73786333">
        <ele>1952.0</ele>
        <time>2019-10-12T15:56:08.948Z</time>
      </trkpt>
      <trkpt lat="20.255505" lon="-98.73785167">
        <ele>1953.0</ele>
        <time>2019-10-12T15:56:09.831Z</time>
      </trkpt>
      <trkpt lat="20.255505" lon="-98.73783833">
        <ele>1954.0</ele>
        <time>2019-10-12T15:56:10.836Z</time>
      </trkpt>
      <trkpt lat="20.255505" lon="-98.73782167">
        <ele>1955.0</ele>
        <time>2019-10-12T15:56:11.837Z</time>
      </trkpt>
      <trkpt lat="20.2555" lon="-98.737805">
        <ele>1956.0</ele>
        <time>2019-10-12T15:56:12.837Z</time>
      </trkpt>
      <trkpt lat="20.25549833" lon="-98.73779">
        <ele>1958.0</ele>
        <time>2019-10-12T15:56:13.838Z</time>
      </trkpt>
      <trkpt lat="20.25549667" lon="-98.737775">
        <ele>1959.0</ele>
        <time>2019-10-12T15:56:14.838Z</time>
      </trkpt>
      <trkpt lat="20.255495" lon="-98.73775833">
        <ele>1960.0</ele>
        <time>2019-10-12T15:56:15.840Z</time>
      </trkpt>
      <trkpt lat="20.255495" lon="-98.73774167">
        <ele>1961.0</ele>
        <time>2019-10-12T15:56:16.843Z</time>
      </trkpt>
      <trkpt lat="20.25549167" lon="-98.73772667">
        <ele>1962.0</ele>
        <time>2019-10-12T15:56:17.851Z</time>
      </trkpt>
      <trkpt lat="20.25548833" lon="-98.73771167">
        <ele>1963.0</ele>
        <time>2019-10-12T15:56:18.852Z</time>
      </trkpt>
      <trkpt lat="20.25548667" lon="-98.73769667">
        <ele>1964.0</ele>
        <time>2019-10-12T15:56:19.858Z</time>
      </trkpt>
      <trkpt lat="20.25548333" lon="-98.73768">
        <ele>1965.0</ele>
        <time>2019-10-12T15:56:20.858Z</time>
      </trkpt>
      <trkpt lat="20.25548" lon="-98.73766333">
        <ele>1966.0</ele>
        <time>2019-10-12T15:56:21.858Z</time>
      </trkpt>
      <trkpt lat="20.25547667" lon="-98.73764667">
        <ele>1967.0</ele>
        <time>2019-10-12T15:56:22.860Z</time>
      </trkpt>
      <trkpt lat="20.25547333" lon="-98.737635">
        <ele>1968.0</ele>
        <time>2019-10-12T15:56:23.868Z</time>
      </trkpt>
      <trkpt lat="20.25547" lon="-98.73762167">
        <ele>1969.0</ele>
        <time>2019-10-12T15:56:24.873Z</time>
      </trkpt>
      <trkpt lat="20.255465" lon="-98.73760333">
        <ele>1970.0</ele>
        <time>2019-10-12T15:56:25.876Z</time>
      </trkpt>
      <trkpt lat="20.25546167" lon="-98.73758833">
        <ele>1970.0</ele>
        <time>2019-10-12T15:56:26.877Z</time>
      </trkpt>
      <trkpt lat="20.25545833" lon="-98.73757333">
        <ele>1970.0</ele>
        <time>2019-10-12T15:56:27.880Z</time>
      </trkpt>
      <trkpt lat="20.25545" lon="-98.73756333">
        <ele>1971.0</ele>
        <time>2019-10-12T15:56:28.882Z</time>
      </trkpt>
      <trkpt lat="20.25544333" lon="-98.73755">
        <ele>1971.0</ele>
        <time>2019-10-12T15:56:29.888Z</time>
      </trkpt>
      <trkpt lat="20.25543667" lon="-98.73754">
        <ele>1971.0</ele>
        <time>2019-10-12T15:56:30.891Z</time>
      </trkpt>
      <trkpt lat="20.25543" lon="-98.73753">
        <ele>1971.0</ele>
        <time>2019-10-12T15:56:31.896Z</time>
      </trkpt>
      <trkpt lat="20.25542333" lon="-98.73751667">
        <ele>1972.0</ele>
        <time>2019-10-12T15:56:32.901Z</time>
      </trkpt>
      <trkpt lat="20.25541333" lon="-98.73750667">
        <ele>1972.0</ele>
        <time>2019-10-12T15:56:33.908Z</time>
      </trkpt>
      <trkpt lat="20.25540167" lon="-98.73749667">
        <ele>1972.0</ele>
        <time>2019-10-12T15:56:34.914Z</time>
      </trkpt>
      <trkpt lat="20.25539167" lon="-98.73748667">
        <ele>1972.0</ele>
        <time>2019-10-12T15:56:35.914Z</time>
      </trkpt>
      <trkpt lat="20.25538167" lon="-98.73747667">
        <ele>1972.0</ele>
        <time>2019-10-12T15:56:36.915Z</time>
      </trkpt>
      <trkpt lat="20.25537" lon="-98.73746833">
        <ele>1971.0</ele>
        <time>2019-10-12T15:56:37.916Z</time>
      </trkpt>
      <trkpt lat="20.25535833" lon="-98.73745833">
        <ele>1971.0</ele>
        <time>2019-10-12T15:56:38.917Z</time>
      </trkpt>
      <trkpt lat="20.255345" lon="-98.73745167">
        <ele>1971.0</ele>
        <time>2019-10-12T15:56:39.918Z</time>
      </trkpt>
      <trkpt lat="20.25533167" lon="-98.73744667">
        <ele>1971.0</ele>
        <time>2019-10-12T15:56:40.918Z</time>
      </trkpt>
      <trkpt lat="20.25531833" lon="-98.73743833">
        <ele>1970.0</ele>
        <time>2019-10-12T15:56:41.919Z</time>
      </trkpt>
      <trkpt lat="20.25530667" lon="-98.73743333">
        <ele>1970.0</ele>
        <time>2019-10-12T15:56:42.920Z</time>
      </trkpt>
      <trkpt lat="20.25529333" lon="-98.73742833">
        <ele>1970.0</ele>
        <time>2019-10-12T15:56:43.924Z</time>
      </trkpt>
      <trkpt lat="20.25528" lon="-98.73742333">
        <ele>1971.0</ele>
        <time>2019-10-12T15:56:44.926Z</time>
      </trkpt>
      <trkpt lat="20.255265" lon="-98.73741833">
        <ele>1970.0</ele>
        <time>2019-10-12T15:56:45.933Z</time>
      </trkpt>
      <trkpt lat="20.25525167" lon="-98.737415">
        <ele>1970.0</ele>
        <time>2019-10-12T15:56:46.940Z</time>
      </trkpt>
      <trkpt lat="20.25523833" lon="-98.73741667">
        <ele>1969.0</ele>
        <time>2019-10-12T15:56:47.946Z</time>
      </trkpt>
      <trkpt lat="20.25522667" lon="-98.73741833">
        <ele>1969.0</ele>
        <time>2019-10-12T15:56:48.953Z</time>
      </trkpt>
      <trkpt lat="20.255215" lon="-98.73742">
        <ele>1969.0</ele>
        <time>2019-10-12T15:56:49.831Z</time>
      </trkpt>
      <trkpt lat="20.25520167" lon="-98.73742333">
        <ele>1969.0</ele>
        <time>2019-10-12T15:56:50.832Z</time>
      </trkpt>
      <trkpt lat="20.25518667" lon="-98.73742667">
        <ele>1968.0</ele>
        <time>2019-10-12T15:56:51.833Z</time>
      </trkpt>
      <trkpt lat="20.25517" lon="-98.73742833">
        <ele>1968.0</ele>
        <time>2019-10-12T15:56:52.840Z</time>
      </trkpt>
      <trkpt lat="20.255155" lon="-98.73743333">
        <ele>1967.0</ele>
        <time>2019-10-12T15:56:53.847Z</time>
      </trkpt>
      <trkpt lat="20.25514" lon="-98.73743667">
        <ele>1967.0</ele>
        <time>2019-10-12T15:56:54.851Z</time>
      </trkpt>
      <trkpt lat="20.25512167" lon="-98.73744">
        <ele>1967.0</ele>
        <time>2019-10-12T15:56:55.852Z</time>
      </trkpt>
      <trkpt lat="20.25510667" lon="-98.73744167">
        <ele>1968.0</ele>
        <time>2019-10-12T15:56:56.854Z</time>
      </trkpt>
      <trkpt lat="20.25508833" lon="-98.73744333">
        <ele>1967.0</ele>
        <time>2019-10-12T15:56:57.858Z</time>
      </trkpt>
      <trkpt lat="20.25507167" lon="-98.737445">
        <ele>1967.0</ele>
        <time>2019-10-12T15:56:58.862Z</time>
      </trkpt>
      <trkpt lat="20.255055" lon="-98.73744833">
        <ele>1967.0</ele>
        <time>2019-10-12T15:56:59.863Z</time>
      </trkpt>
      <trkpt lat="20.25503833" lon="-98.73745333">
        <ele>1967.0</ele>
        <time>2019-10-12T15:57:00.869Z</time>
      </trkpt>
      <trkpt lat="20.25501667" lon="-98.73745667">
        <ele>1967.0</ele>
        <time>2019-10-12T15:57:01.870Z</time>
      </trkpt>
      <trkpt lat="20.25499833" lon="-98.73745667">
        <ele>1967.0</ele>
        <time>2019-10-12T15:57:02.872Z</time>
      </trkpt>
      <trkpt lat="20.25497833" lon="-98.73746">
        <ele>1968.0</ele>
        <time>2019-10-12T15:57:03.872Z</time>
      </trkpt>
      <trkpt lat="20.25496" lon="-98.73746167">
        <ele>1968.0</ele>
        <time>2019-10-12T15:57:04.872Z</time>
      </trkpt>
      <trkpt lat="20.25494333" lon="-98.73746667">
        <ele>1968.0</ele>
        <time>2019-10-12T15:57:05.873Z</time>
      </trkpt>
      <trkpt lat="20.25492833" lon="-98.73747">
        <ele>1968.0</ele>
        <time>2019-10-12T15:57:06.874Z</time>
      </trkpt>
      <trkpt lat="20.25491167" lon="-98.737475">
        <ele>1968.0</ele>
        <time>2019-10-12T15:57:07.875Z</time>
      </trkpt>
      <trkpt lat="20.254895" lon="-98.73748">
        <ele>1968.0</ele>
        <time>2019-10-12T15:57:08.881Z</time>
      </trkpt>
      <trkpt lat="20.25488167" lon="-98.73748667">
        <ele>1968.0</ele>
        <time>2019-10-12T15:57:09.884Z</time>
      </trkpt>
      <trkpt lat="20.254865" lon="-98.73749167">
        <ele>1969.0</ele>
        <time>2019-10-12T15:57:10.892Z</time>
      </trkpt>
      <trkpt lat="20.25485" lon="-98.7375">
        <ele>1969.0</ele>
        <time>2019-10-12T15:57:11.893Z</time>
      </trkpt>
      <trkpt lat="20.254835" lon="-98.73750667">
        <ele>1969.0</ele>
        <time>2019-10-12T15:57:12.899Z</time>
      </trkpt>
      <trkpt lat="20.25482167" lon="-98.73751667">
        <ele>1969.0</ele>
        <time>2019-10-12T15:57:13.904Z</time>
      </trkpt>
      <trkpt lat="20.25480667" lon="-98.73752833">
        <ele>1968.0</ele>
        <time>2019-10-12T15:57:14.911Z</time>
      </trkpt>
      <trkpt lat="20.254795" lon="-98.73754">
        <ele>1969.0</ele>
        <time>2019-10-12T15:57:15.914Z</time>
      </trkpt>
      <trkpt lat="20.25478333" lon="-98.73755167">
        <ele>1969.0</ele>
        <time>2019-10-12T15:57:16.917Z</time>
      </trkpt>
      <trkpt lat="20.25477" lon="-98.73756333">
        <ele>1969.0</ele>
        <time>2019-10-12T15:57:17.924Z</time>
      </trkpt>
      <trkpt lat="20.25475833" lon="-98.73757667">
        <ele>1969.0</ele>
        <time>2019-10-12T15:57:18.929Z</time>
      </trkpt>
      <trkpt lat="20.254745" lon="-98.73758667">
        <ele>1970.0</ele>
        <time>2019-10-12T15:57:19.936Z</time>
      </trkpt>
      <trkpt lat="20.25471333" lon="-98.737645">
        <ele>1970.0</ele>
        <time>2019-10-12T15:57:21.944Z</time>
      </trkpt>
      <trkpt lat="20.25471333" lon="-98.737645">
        <ele>1970.0</ele>
        <time>2019-10-12T15:57:22.950Z</time>
      </trkpt>
      <trkpt lat="20.25471333" lon="-98.737645">
        <ele>1970.0</ele>
        <time>2019-10-12T15:57:23.954Z</time>
      </trkpt>
      <trkpt lat="20.25471333" lon="-98.737645">
        <ele>1969.0</ele>
        <time>2019-10-12T15:57:24.835Z</time>
      </trkpt>
      <trkpt lat="20.254715" lon="-98.73764667">
        <ele>1969.0</ele>
        <time>2019-10-12T15:57:25.840Z</time>
      </trkpt>
      <trkpt lat="20.25471333" lon="-98.73765">
        <ele>1969.0</ele>
        <time>2019-10-12T15:57:26.846Z</time>
      </trkpt>
      <trkpt lat="20.25470333" lon="-98.73767333">
        <ele>1969.0</ele>
        <time>2019-10-12T15:57:27.848Z</time>
      </trkpt>
      <trkpt lat="20.25469167" lon="-98.73769333">
        <ele>1969.0</ele>
        <time>2019-10-12T15:57:28.848Z</time>
      </trkpt>
      <trkpt lat="20.25467833" lon="-98.737715">
        <ele>1969.0</ele>
        <time>2019-10-12T15:57:29.849Z</time>
      </trkpt>
      <trkpt lat="20.25466833" lon="-98.73773667">
        <ele>1969.0</ele>
        <time>2019-10-12T15:57:30.850Z</time>
      </trkpt>
      <trkpt lat="20.25465667" lon="-98.737755">
        <ele>1969.0</ele>
        <time>2019-10-12T15:57:31.851Z</time>
      </trkpt>
      <trkpt lat="20.254645" lon="-98.737775">
        <ele>1970.0</ele>
        <time>2019-10-12T15:57:32.854Z</time>
      </trkpt>
      <trkpt lat="20.254635" lon="-98.73779333">
        <ele>1970.0</ele>
        <time>2019-10-12T15:57:33.861Z</time>
      </trkpt>
      <trkpt lat="20.25462667" lon="-98.73781167">
        <ele>1969.0</ele>
        <time>2019-10-12T15:57:34.863Z</time>
      </trkpt>
      <trkpt lat="20.25462" lon="-98.73783167">
        <ele>1970.0</ele>
        <time>2019-10-12T15:57:35.868Z</time>
      </trkpt>
      <trkpt lat="20.25461333" lon="-98.737845">
        <ele>1970.0</ele>
        <time>2019-10-12T15:57:36.876Z</time>
      </trkpt>
      <trkpt lat="20.25460667" lon="-98.73785833">
        <ele>1970.0</ele>
        <time>2019-10-12T15:57:37.882Z</time>
      </trkpt>
      <trkpt lat="20.2546" lon="-98.73787333">
        <ele>1970.0</ele>
        <time>2019-10-12T15:57:38.887Z</time>
      </trkpt>
      <trkpt lat="20.254595" lon="-98.73789">
        <ele>1970.0</ele>
        <time>2019-10-12T15:57:39.891Z</time>
      </trkpt>
      <trkpt lat="20.25459" lon="-98.73790833">
        <ele>1969.0</ele>
        <time>2019-10-12T15:57:40.897Z</time>
      </trkpt>
      <trkpt lat="20.254585" lon="-98.737925">
        <ele>1969.0</ele>
        <time>2019-10-12T15:57:41.900Z</time>
      </trkpt>
      <trkpt lat="20.25458" lon="-98.73794167">
        <ele>1969.0</ele>
        <time>2019-10-12T15:57:42.906Z</time>
      </trkpt>
      <trkpt lat="20.254575" lon="-98.73796">
        <ele>1969.0</ele>
        <time>2019-10-12T15:57:43.908Z</time>
      </trkpt>
      <trkpt lat="20.25457167" lon="-98.737975">
        <ele>1969.0</ele>
        <time>2019-10-12T15:57:44.913Z</time>
      </trkpt>
      <trkpt lat="20.25457" lon="-98.73798833">
        <ele>1968.0</ele>
        <time>2019-10-12T15:57:45.916Z</time>
      </trkpt>
      <trkpt lat="20.25456667" lon="-98.738">
        <ele>1968.0</ele>
        <time>2019-10-12T15:57:46.922Z</time>
      </trkpt>
      <trkpt lat="20.254565" lon="-98.73800667">
        <ele>1967.0</ele>
        <time>2019-10-12T15:57:47.925Z</time>
      </trkpt>
      <trkpt lat="20.25456333" lon="-98.73801">
        <ele>1967.0</ele>
        <time>2019-10-12T15:57:48.925Z</time>
      </trkpt>
      <trkpt lat="20.25456333" lon="-98.73801333">
        <ele>1967.0</ele>
        <time>2019-10-12T15:57:49.926Z</time>
      </trkpt>
      <trkpt lat="20.25456333" lon="-98.73801333">
        <ele>1967.0</ele>
        <time>2019-10-12T15:57:50.926Z</time>
      </trkpt>
      <trkpt lat="20.25456" lon="-98.73801333">
        <ele>1968.0</ele>
        <time>2019-10-12T15:57:51.927Z</time>
      </trkpt>
      <trkpt lat="20.25456" lon="-98.73801333">
        <ele>1968.0</ele>
        <time>2019-10-12T15:57:52.928Z</time>
      </trkpt>
      <trkpt lat="20.25456" lon="-98.73801167">
        <ele>1969.0</ele>
        <time>2019-10-12T15:57:53.928Z</time>
      </trkpt>
      <trkpt lat="20.25456" lon="-98.73801167">
        <ele>1970.0</ele>
        <time>2019-10-12T15:57:54.929Z</time>
      </trkpt>
      <trkpt lat="20.25456" lon="-98.73801">
        <ele>1969.0</ele>
        <time>2019-10-12T15:57:55.929Z</time>
      </trkpt>
      <trkpt lat="20.25456" lon="-98.73800833">
        <ele>1969.0</ele>
        <time>2019-10-12T15:57:56.930Z</time>
      </trkpt>
      <trkpt lat="20.25456" lon="-98.73801">
        <ele>1968.0</ele>
        <time>2019-10-12T15:57:57.931Z</time>
      </trkpt>
      <trkpt lat="20.25456" lon="-98.73800833">
        <ele>1967.0</ele>
        <time>2019-10-12T15:57:58.932Z</time>
      </trkpt>
      <trkpt lat="20.25456" lon="-98.73800833">
        <ele>1967.0</ele>
        <time>2019-10-12T15:57:59.933Z</time>
      </trkpt>
      <trkpt lat="20.25456167" lon="-98.73800833">
        <ele>1967.0</ele>
        <time>2019-10-12T15:58:00.933Z</time>
      </trkpt>
      <trkpt lat="20.25456167" lon="-98.73800833">
        <ele>1967.0</ele>
        <time>2019-10-12T15:58:01.934Z</time>
      </trkpt>
      <trkpt lat="20.25456167" lon="-98.73800833">
        <ele>1967.0</ele>
        <time>2019-10-12T15:58:02.935Z</time>
      </trkpt>
      <trkpt lat="20.25456167" lon="-98.73800833">
        <ele>1967.0</ele>
        <time>2019-10-12T15:58:03.935Z</time>
      </trkpt>
      <trkpt lat="20.25456167" lon="-98.73800833">
        <ele>1967.0</ele>
        <time>2019-10-12T15:58:04.935Z</time>
      </trkpt>
      <trkpt lat="20.25456167" lon="-98.73800833">
        <ele>1967.0</ele>
        <time>2019-10-12T15:58:05.935Z</time>
      </trkpt>
      <trkpt lat="20.25456167" lon="-98.73800833">
        <ele>1967.0</ele>
        <time>2019-10-12T15:58:06.936Z</time>
      </trkpt>
      <trkpt lat="20.25456167" lon="-98.73800833">
        <ele>1967.0</ele>
        <time>2019-10-12T15:58:07.936Z</time>
      </trkpt>
      <trkpt lat="20.25456167" lon="-98.73800833">
        <ele>1967.0</ele>
        <time>2019-10-12T15:58:08.937Z</time>
      </trkpt>
      <trkpt lat="20.25456167" lon="-98.73800833">
        <ele>1967.0</ele>
        <time>2019-10-12T15:58:09.938Z</time>
      </trkpt>
      <trkpt lat="20.25456167" lon="-98.73800833">
        <ele>1968.0</ele>
        <time>2019-10-12T15:58:10.939Z</time>
      </trkpt>
      <trkpt lat="20.25456167" lon="-98.73801">
        <ele>1968.0</ele>
        <time>2019-10-12T15:58:11.940Z</time>
      </trkpt>
      <trkpt lat="20.25456167" lon="-98.73801">
        <ele>1968.0</ele>
        <time>2019-10-12T15:58:12.940Z</time>
      </trkpt>
      <trkpt lat="20.25456167" lon="-98.73801">
        <ele>1968.0</ele>
        <time>2019-10-12T15:58:13.941Z</time>
      </trkpt>
      <trkpt lat="20.25456167" lon="-98.73801">
        <ele>1968.0</ele>
        <time>2019-10-12T15:58:14.941Z</time>
      </trkpt>
      <trkpt lat="20.25456167" lon="-98.73801">
        <ele>1969.0</ele>
        <time>2019-10-12T15:58:15.942Z</time>
      </trkpt>
      <trkpt lat="20.25456167" lon="-98.73801">
        <ele>1969.0</ele>
        <time>2019-10-12T15:58:16.943Z</time>
      </trkpt>
      <trkpt lat="20.25456333" lon="-98.73801">
        <ele>1969.0</ele>
        <time>2019-10-12T15:58:17.943Z</time>
      </trkpt>
      <trkpt lat="20.25456333" lon="-98.73801">
        <ele>1969.0</ele>
        <time>2019-10-12T15:58:18.944Z</time>
      </trkpt>
      <trkpt lat="20.25456333" lon="-98.73801">
        <ele>1969.0</ele>
        <time>2019-10-12T15:58:19.945Z</time>
      </trkpt>
      <trkpt lat="20.25456333" lon="-98.73801">
        <ele>1969.0</ele>
        <time>2019-10-12T15:58:20.946Z</time>
      </trkpt>
      <trkpt lat="20.25456333" lon="-98.73801">
        <ele>1969.0</ele>
        <time>2019-10-12T15:58:21.947Z</time>
      </trkpt>
      <trkpt lat="20.25456333" lon="-98.73801">
        <ele>1969.0</ele>
        <time>2019-10-12T15:58:22.947Z</time>
      </trkpt>
      <trkpt lat="20.25456167" lon="-98.73801333">
        <ele>1969.0</ele>
        <time>2019-10-12T15:58:23.948Z</time>
      </trkpt>
      <trkpt lat="20.254555" lon="-98.73803333">
        <ele>1970.0</ele>
        <time>2019-10-12T15:58:24.949Z</time>
      </trkpt>
      <trkpt lat="20.25454833" lon="-98.73805167">
        <ele>1970.0</ele>
        <time>2019-10-12T15:58:25.950Z</time>
      </trkpt>
      <trkpt lat="20.25454" lon="-98.73807">
        <ele>1970.0</ele>
        <time>2019-10-12T15:58:26.951Z</time>
      </trkpt>
      <trkpt lat="20.25453167" lon="-98.73809167">
        <ele>1970.0</ele>
        <time>2019-10-12T15:58:27.951Z</time>
      </trkpt>
      <trkpt lat="20.25452333" lon="-98.738115">
        <ele>1971.0</ele>
        <time>2019-10-12T15:58:28.952Z</time>
      </trkpt>
      <trkpt lat="20.254515" lon="-98.73813667">
        <ele>1971.0</ele>
        <time>2019-10-12T15:58:29.952Z</time>
      </trkpt>
      <trkpt lat="20.254505" lon="-98.73815833">
        <ele>1972.0</ele>
        <time>2019-10-12T15:58:30.953Z</time>
      </trkpt>
      <trkpt lat="20.254495" lon="-98.73817667">
        <ele>1972.0</ele>
        <time>2019-10-12T15:58:31.953Z</time>
      </trkpt>
      <trkpt lat="20.25448667" lon="-98.73819667">
        <ele>1973.0</ele>
        <time>2019-10-12T15:58:32.954Z</time>
      </trkpt>
      <trkpt lat="20.25448" lon="-98.73821333">
        <ele>1973.0</ele>
        <time>2019-10-12T15:58:33.954Z</time>
      </trkpt>
      <trkpt lat="20.25447333" lon="-98.73822667">
        <ele>1973.0</ele>
        <time>2019-10-12T15:58:34.954Z</time>
      </trkpt>
      <trkpt lat="20.25446333" lon="-98.73824333">
        <ele>1974.0</ele>
        <time>2019-10-12T15:58:35.954Z</time>
      </trkpt>
      <trkpt lat="20.254455" lon="-98.738255">
        <ele>1973.0</ele>
        <time>2019-10-12T15:58:36.830Z</time>
      </trkpt>
      <trkpt lat="20.25444667" lon="-98.73827">
        <ele>1974.0</ele>
        <time>2019-10-12T15:58:37.830Z</time>
      </trkpt>
      <trkpt lat="20.25443667" lon="-98.73828333">
        <ele>1974.0</ele>
        <time>2019-10-12T15:58:38.832Z</time>
      </trkpt>
      <trkpt lat="20.25443" lon="-98.7383">
        <ele>1974.0</ele>
        <time>2019-10-12T15:58:39.832Z</time>
      </trkpt>
      <trkpt lat="20.25442333" lon="-98.73831667">
        <ele>1974.0</ele>
        <time>2019-10-12T15:58:40.833Z</time>
      </trkpt>
      <trkpt lat="20.25441667" lon="-98.738335">
        <ele>1975.0</ele>
        <time>2019-10-12T15:58:41.834Z</time>
      </trkpt>
      <trkpt lat="20.25441" lon="-98.73835">
        <ele>1975.0</ele>
        <time>2019-10-12T15:58:42.834Z</time>
      </trkpt>
      <trkpt lat="20.2544" lon="-98.73836667">
        <ele>1975.0</ele>
        <time>2019-10-12T15:58:43.835Z</time>
      </trkpt>
      <trkpt lat="20.25439" lon="-98.73838">
        <ele>1975.0</ele>
        <time>2019-10-12T15:58:44.836Z</time>
      </trkpt>
      <trkpt lat="20.25438167" lon="-98.738395">
        <ele>1975.0</ele>
        <time>2019-10-12T15:58:45.837Z</time>
      </trkpt>
      <trkpt lat="20.25437167" lon="-98.73841">
        <ele>1975.0</ele>
        <time>2019-10-12T15:58:46.838Z</time>
      </trkpt>
      <trkpt lat="20.25436333" lon="-98.73842333">
        <ele>1975.0</ele>
        <time>2019-10-12T15:58:47.841Z</time>
      </trkpt>
      <trkpt lat="20.254355" lon="-98.73843833">
        <ele>1975.0</ele>
        <time>2019-10-12T15:58:48.848Z</time>
      </trkpt>
      <trkpt lat="20.25434833" lon="-98.73845333">
        <ele>1975.0</ele>
        <time>2019-10-12T15:58:49.849Z</time>
      </trkpt>
      <trkpt lat="20.25434167" lon="-98.73846667">
        <ele>1975.0</ele>
        <time>2019-10-12T15:58:50.851Z</time>
      </trkpt>
      <trkpt lat="20.25433333" lon="-98.73848167">
        <ele>1975.0</ele>
        <time>2019-10-12T15:58:51.856Z</time>
      </trkpt>
      <trkpt lat="20.25432667" lon="-98.738495">
        <ele>1975.0</ele>
        <time>2019-10-12T15:58:52.863Z</time>
      </trkpt>
      <trkpt lat="20.25432" lon="-98.73851">
        <ele>1975.0</ele>
        <time>2019-10-12T15:58:53.867Z</time>
      </trkpt>
      <trkpt lat="20.25431167" lon="-98.73852333">
        <ele>1975.0</ele>
        <time>2019-10-12T15:58:54.874Z</time>
      </trkpt>
      <trkpt lat="20.254305" lon="-98.73853833">
        <ele>1975.0</ele>
        <time>2019-10-12T15:58:55.882Z</time>
      </trkpt>
      <trkpt lat="20.2543" lon="-98.73855167">
        <ele>1975.0</ele>
        <time>2019-10-12T15:58:56.888Z</time>
      </trkpt>
      <trkpt lat="20.25429333" lon="-98.73856667">
        <ele>1975.0</ele>
        <time>2019-10-12T15:58:57.893Z</time>
      </trkpt>
      <trkpt lat="20.25428667" lon="-98.73858">
        <ele>1975.0</ele>
        <time>2019-10-12T15:58:58.899Z</time>
      </trkpt>
      <trkpt lat="20.25427833" lon="-98.73859167">
        <ele>1975.0</ele>
        <time>2019-10-12T15:58:59.901Z</time>
      </trkpt>
      <trkpt lat="20.25427" lon="-98.738605">
        <ele>1975.0</ele>
        <time>2019-10-12T15:59:00.907Z</time>
      </trkpt>
      <trkpt lat="20.25426167" lon="-98.73862">
        <ele>1975.0</ele>
        <time>2019-10-12T15:59:01.912Z</time>
      </trkpt>
      <trkpt lat="20.25425" lon="-98.73863">
        <ele>1976.0</ele>
        <time>2019-10-12T15:59:02.912Z</time>
      </trkpt>
      <trkpt lat="20.25424" lon="-98.73864167">
        <ele>1976.0</ele>
        <time>2019-10-12T15:59:03.913Z</time>
      </trkpt>
      <trkpt lat="20.25422833" lon="-98.73865167">
        <ele>1976.0</ele>
        <time>2019-10-12T15:59:04.914Z</time>
      </trkpt>
      <trkpt lat="20.25421667" lon="-98.73866167">
        <ele>1976.0</ele>
        <time>2019-10-12T15:59:05.915Z</time>
      </trkpt>
      <trkpt lat="20.254205" lon="-98.73867">
        <ele>1977.0</ele>
        <time>2019-10-12T15:59:06.916Z</time>
      </trkpt>
      <trkpt lat="20.25419167" lon="-98.73867833">
        <ele>1977.0</ele>
        <time>2019-10-12T15:59:07.917Z</time>
      </trkpt>
      <trkpt lat="20.25417833" lon="-98.73868667">
        <ele>1977.0</ele>
        <time>2019-10-12T15:59:08.917Z</time>
      </trkpt>
      <trkpt lat="20.254165" lon="-98.738695">
        <ele>1977.0</ele>
        <time>2019-10-12T15:59:09.918Z</time>
      </trkpt>
      <trkpt lat="20.25415333" lon="-98.738705">
        <ele>1977.0</ele>
        <time>2019-10-12T15:59:10.919Z</time>
      </trkpt>
      <trkpt lat="20.25414333" lon="-98.738715">
        <ele>1977.0</ele>
        <time>2019-10-12T15:59:11.920Z</time>
      </trkpt>
      <trkpt lat="20.25413333" lon="-98.738725">
        <ele>1978.0</ele>
        <time>2019-10-12T15:59:12.921Z</time>
      </trkpt>
      <trkpt lat="20.25412" lon="-98.73873333">
        <ele>1978.0</ele>
        <time>2019-10-12T15:59:13.921Z</time>
      </trkpt>
      <trkpt lat="20.25410667" lon="-98.73874167">
        <ele>1979.0</ele>
        <time>2019-10-12T15:59:14.922Z</time>
      </trkpt>
      <trkpt lat="20.25409333" lon="-98.73875">
        <ele>1979.0</ele>
        <time>2019-10-12T15:59:15.923Z</time>
      </trkpt>
      <trkpt lat="20.25408333" lon="-98.73876">
        <ele>1979.0</ele>
        <time>2019-10-12T15:59:16.924Z</time>
      </trkpt>
      <trkpt lat="20.25407333" lon="-98.73877333">
        <ele>1979.0</ele>
        <time>2019-10-12T15:59:17.925Z</time>
      </trkpt>
      <trkpt lat="20.25406167" lon="-98.73878333">
        <ele>1979.0</ele>
        <time>2019-10-12T15:59:18.925Z</time>
      </trkpt>
      <trkpt lat="20.25404833" lon="-98.73879667">
        <ele>1979.0</ele>
        <time>2019-10-12T15:59:19.926Z</time>
      </trkpt>
      <trkpt lat="20.254035" lon="-98.73880667">
        <ele>1979.0</ele>
        <time>2019-10-12T15:59:20.927Z</time>
      </trkpt>
      <trkpt lat="20.254025" lon="-98.73881833">
        <ele>1979.0</ele>
        <time>2019-10-12T15:59:21.928Z</time>
      </trkpt>
      <trkpt lat="20.254015" lon="-98.73882667">
        <ele>1978.0</ele>
        <time>2019-10-12T15:59:22.929Z</time>
      </trkpt>
      <trkpt lat="20.254005" lon="-98.738835">
        <ele>1978.0</ele>
        <time>2019-10-12T15:59:23.929Z</time>
      </trkpt>
      <trkpt lat="20.253995" lon="-98.738845">
        <ele>1978.0</ele>
        <time>2019-10-12T15:59:24.930Z</time>
      </trkpt>
      <trkpt lat="20.253985" lon="-98.73885667">
        <ele>1978.0</ele>
        <time>2019-10-12T15:59:25.930Z</time>
      </trkpt>
      <trkpt lat="20.25397333" lon="-98.73886833">
        <ele>1978.0</ele>
        <time>2019-10-12T15:59:26.935Z</time>
      </trkpt>
      <trkpt lat="20.25396333" lon="-98.73887833">
        <ele>1978.0</ele>
        <time>2019-10-12T15:59:27.941Z</time>
      </trkpt>
      <trkpt lat="20.25395167" lon="-98.73889">
        <ele>1978.0</ele>
        <time>2019-10-12T15:59:28.948Z</time>
      </trkpt>
      <trkpt lat="20.25394" lon="-98.73890667">
        <ele>1978.0</ele>
        <time>2019-10-12T15:59:29.954Z</time>
      </trkpt>
      <trkpt lat="20.25392667" lon="-98.73892333">
        <ele>1979.0</ele>
        <time>2019-10-12T15:59:30.833Z</time>
      </trkpt>
      <trkpt lat="20.253915" lon="-98.73893667">
        <ele>1979.0</ele>
        <time>2019-10-12T15:59:31.840Z</time>
      </trkpt>
      <trkpt lat="20.25390333" lon="-98.73895167">
        <ele>1979.0</ele>
        <time>2019-10-12T15:59:32.842Z</time>
      </trkpt>
      <trkpt lat="20.25389167" lon="-98.73896833">
        <ele>1979.0</ele>
        <time>2019-10-12T15:59:33.847Z</time>
      </trkpt>
      <trkpt lat="20.25388333" lon="-98.73898667">
        <ele>1979.0</ele>
        <time>2019-10-12T15:59:34.853Z</time>
      </trkpt>
      <trkpt lat="20.25387667" lon="-98.739005">
        <ele>1980.0</ele>
        <time>2019-10-12T15:59:35.859Z</time>
      </trkpt>
      <trkpt lat="20.25387333" lon="-98.73902">
        <ele>1979.0</ele>
        <time>2019-10-12T15:59:36.867Z</time>
      </trkpt>
      <trkpt lat="20.25386833" lon="-98.739035">
        <ele>1980.0</ele>
        <time>2019-10-12T15:59:37.872Z</time>
      </trkpt>
      <trkpt lat="20.25386167" lon="-98.73905167">
        <ele>1980.0</ele>
        <time>2019-10-12T15:59:38.874Z</time>
      </trkpt>
      <trkpt lat="20.25385667" lon="-98.73906833">
        <ele>1981.0</ele>
        <time>2019-10-12T15:59:39.879Z</time>
      </trkpt>
      <trkpt lat="20.25385167" lon="-98.739085">
        <ele>1981.0</ele>
        <time>2019-10-12T15:59:40.880Z</time>
      </trkpt>
      <trkpt lat="20.25384833" lon="-98.73910333">
        <ele>1981.0</ele>
        <time>2019-10-12T15:59:41.880Z</time>
      </trkpt>
      <trkpt lat="20.25385167" lon="-98.73912">
        <ele>1981.0</ele>
        <time>2019-10-12T15:59:42.881Z</time>
      </trkpt>
      <trkpt lat="20.25385667" lon="-98.73913833">
        <ele>1981.0</ele>
        <time>2019-10-12T15:59:43.882Z</time>
      </trkpt>
      <trkpt lat="20.25386" lon="-98.73915667">
        <ele>1982.0</ele>
        <time>2019-10-12T15:59:44.883Z</time>
      </trkpt>
      <trkpt lat="20.25386167" lon="-98.73917667">
        <ele>1982.0</ele>
        <time>2019-10-12T15:59:45.884Z</time>
      </trkpt>
      <trkpt lat="20.25387" lon="-98.73919167">
        <ele>1982.0</ele>
        <time>2019-10-12T15:59:46.884Z</time>
      </trkpt>
      <trkpt lat="20.253875" lon="-98.73920833">
        <ele>1982.0</ele>
        <time>2019-10-12T15:59:47.885Z</time>
      </trkpt>
      <trkpt lat="20.25388" lon="-98.73922667">
        <ele>1982.0</ele>
        <time>2019-10-12T15:59:48.885Z</time>
      </trkpt>
      <trkpt lat="20.253885" lon="-98.73924167">
        <ele>1983.0</ele>
        <time>2019-10-12T15:59:49.886Z</time>
      </trkpt>
      <trkpt lat="20.25388833" lon="-98.73925333">
        <ele>1983.0</ele>
        <time>2019-10-12T15:59:50.887Z</time>
      </trkpt>
      <trkpt lat="20.25389333" lon="-98.739265">
        <ele>1984.0</ele>
        <time>2019-10-12T15:59:51.887Z</time>
      </trkpt>
      <trkpt lat="20.25389833" lon="-98.73928">
        <ele>1984.0</ele>
        <time>2019-10-12T15:59:52.889Z</time>
      </trkpt>
      <trkpt lat="20.25389833" lon="-98.73929667">
        <ele>1984.0</ele>
        <time>2019-10-12T15:59:53.890Z</time>
      </trkpt>
      <trkpt lat="20.25389833" lon="-98.73931333">
        <ele>1984.0</ele>
        <time>2019-10-12T15:59:54.890Z</time>
      </trkpt>
      <trkpt lat="20.25389667" lon="-98.73933">
        <ele>1985.0</ele>
        <time>2019-10-12T15:59:55.891Z</time>
      </trkpt>
      <trkpt lat="20.25389167" lon="-98.73934667">
        <ele>1985.0</ele>
        <time>2019-10-12T15:59:56.892Z</time>
      </trkpt>
      <trkpt lat="20.25388333" lon="-98.73936167">
        <ele>1985.0</ele>
        <time>2019-10-12T15:59:57.893Z</time>
      </trkpt>
      <trkpt lat="20.25387167" lon="-98.73937167">
        <ele>1985.0</ele>
        <time>2019-10-12T15:59:58.896Z</time>
      </trkpt>
      <trkpt lat="20.25385833" lon="-98.73938167">
        <ele>1985.0</ele>
        <time>2019-10-12T15:59:59.904Z</time>
      </trkpt>
      <trkpt lat="20.25384333" lon="-98.73938833">
        <ele>1985.0</ele>
        <time>2019-10-12T16:00:00.909Z</time>
      </trkpt>
      <trkpt lat="20.25382667" lon="-98.739395">
        <ele>1985.0</ele>
        <time>2019-10-12T16:00:01.915Z</time>
      </trkpt>
      <trkpt lat="20.25381" lon="-98.7394">
        <ele>1984.0</ele>
        <time>2019-10-12T16:00:02.918Z</time>
      </trkpt>
      <trkpt lat="20.25379333" lon="-98.73940667">
        <ele>1984.0</ele>
        <time>2019-10-12T16:00:03.925Z</time>
      </trkpt>
      <trkpt lat="20.253775" lon="-98.73941333">
        <ele>1984.0</ele>
        <time>2019-10-12T16:00:04.932Z</time>
      </trkpt>
      <trkpt lat="20.25375667" lon="-98.73942">
        <ele>1984.0</ele>
        <time>2019-10-12T16:00:05.937Z</time>
      </trkpt>
      <trkpt lat="20.25374" lon="-98.73943">
        <ele>1984.0</ele>
        <time>2019-10-12T16:00:06.943Z</time>
      </trkpt>
      <trkpt lat="20.25372167" lon="-98.73943667">
        <ele>1984.0</ele>
        <time>2019-10-12T16:00:07.945Z</time>
      </trkpt>
      <trkpt lat="20.25370333" lon="-98.73944667">
        <ele>1984.0</ele>
        <time>2019-10-12T16:00:08.951Z</time>
      </trkpt>
      <trkpt lat="20.25368333" lon="-98.73945667">
        <ele>1984.0</ele>
        <time>2019-10-12T16:00:09.833Z</time>
      </trkpt>
      <trkpt lat="20.253665" lon="-98.73947">
        <ele>1984.0</ele>
        <time>2019-10-12T16:00:10.839Z</time>
      </trkpt>
      <trkpt lat="20.25364667" lon="-98.73948167">
        <ele>1983.0</ele>
        <time>2019-10-12T16:00:11.841Z</time>
      </trkpt>
      <trkpt lat="20.25363167" lon="-98.73949667">
        <ele>1983.0</ele>
        <time>2019-10-12T16:00:12.842Z</time>
      </trkpt>
      <trkpt lat="20.25361667" lon="-98.739515">
        <ele>1984.0</ele>
        <time>2019-10-12T16:00:13.843Z</time>
      </trkpt>
      <trkpt lat="20.25360167" lon="-98.73953167">
        <ele>1984.0</ele>
        <time>2019-10-12T16:00:14.847Z</time>
      </trkpt>
      <trkpt lat="20.25358333" lon="-98.73954333">
        <ele>1984.0</ele>
        <time>2019-10-12T16:00:15.853Z</time>
      </trkpt>
      <trkpt lat="20.25356333" lon="-98.73955167">
        <ele>1984.0</ele>
        <time>2019-10-12T16:00:16.857Z</time>
      </trkpt>
      <trkpt lat="20.25354333" lon="-98.73955333">
        <ele>1983.0</ele>
        <time>2019-10-12T16:00:17.863Z</time>
      </trkpt>
      <trkpt lat="20.25352167" lon="-98.73955333">
        <ele>1984.0</ele>
        <time>2019-10-12T16:00:18.868Z</time>
      </trkpt>
      <trkpt lat="20.25350167" lon="-98.73955167">
        <ele>1984.0</ele>
        <time>2019-10-12T16:00:19.873Z</time>
      </trkpt>
      <trkpt lat="20.25348333" lon="-98.73955">
        <ele>1984.0</ele>
        <time>2019-10-12T16:00:20.879Z</time>
      </trkpt>
      <trkpt lat="20.25346333" lon="-98.73954667">
        <ele>1984.0</ele>
        <time>2019-10-12T16:00:21.880Z</time>
      </trkpt>
      <trkpt lat="20.25344667" lon="-98.73954333">
        <ele>1984.0</ele>
        <time>2019-10-12T16:00:22.881Z</time>
      </trkpt>
      <trkpt lat="20.25342833" lon="-98.73954167">
        <ele>1984.0</ele>
        <time>2019-10-12T16:00:23.882Z</time>
      </trkpt>
      <trkpt lat="20.25340833" lon="-98.73953833">
        <ele>1984.0</ele>
        <time>2019-10-12T16:00:24.882Z</time>
      </trkpt>
      <trkpt lat="20.25339167" lon="-98.739535">
        <ele>1984.0</ele>
        <time>2019-10-12T16:00:25.884Z</time>
      </trkpt>
      <trkpt lat="20.25337167" lon="-98.73953333">
        <ele>1984.0</ele>
        <time>2019-10-12T16:00:26.886Z</time>
      </trkpt>
      <trkpt lat="20.25335167" lon="-98.73953">
        <ele>1984.0</ele>
        <time>2019-10-12T16:00:27.892Z</time>
      </trkpt>
      <trkpt lat="20.25333167" lon="-98.73952833">
        <ele>1984.0</ele>
        <time>2019-10-12T16:00:28.893Z</time>
      </trkpt>
      <trkpt lat="20.25331167" lon="-98.73952667">
        <ele>1984.0</ele>
        <time>2019-10-12T16:00:29.893Z</time>
      </trkpt>
      <trkpt lat="20.25329167" lon="-98.73952333">
        <ele>1985.0</ele>
        <time>2019-10-12T16:00:30.898Z</time>
      </trkpt>
      <trkpt lat="20.25327333" lon="-98.73952667">
        <ele>1985.0</ele>
        <time>2019-10-12T16:00:31.905Z</time>
      </trkpt>
      <trkpt lat="20.25325333" lon="-98.73953">
        <ele>1985.0</ele>
        <time>2019-10-12T16:00:32.912Z</time>
      </trkpt>
      <trkpt lat="20.25323167" lon="-98.73953333">
        <ele>1986.0</ele>
        <time>2019-10-12T16:00:33.917Z</time>
      </trkpt>
      <trkpt lat="20.253215" lon="-98.73954">
        <ele>1986.0</ele>
        <time>2019-10-12T16:00:34.918Z</time>
      </trkpt>
      <trkpt lat="20.25319833" lon="-98.73954667">
        <ele>1986.0</ele>
        <time>2019-10-12T16:00:35.919Z</time>
      </trkpt>
      <trkpt lat="20.25317833" lon="-98.739555">
        <ele>1986.0</ele>
        <time>2019-10-12T16:00:36.920Z</time>
      </trkpt>
      <trkpt lat="20.25316167" lon="-98.73956333">
        <ele>1986.0</ele>
        <time>2019-10-12T16:00:37.920Z</time>
      </trkpt>
      <trkpt lat="20.253145" lon="-98.73957333">
        <ele>1986.0</ele>
        <time>2019-10-12T16:00:38.921Z</time>
      </trkpt>
      <trkpt lat="20.25312667" lon="-98.73958333">
        <ele>1986.0</ele>
        <time>2019-10-12T16:00:39.922Z</time>
      </trkpt>
      <trkpt lat="20.25311333" lon="-98.739595">
        <ele>1986.0</ele>
        <time>2019-10-12T16:00:40.923Z</time>
      </trkpt>
      <trkpt lat="20.25309833" lon="-98.73961">
        <ele>1986.0</ele>
        <time>2019-10-12T16:00:41.924Z</time>
      </trkpt>
      <trkpt lat="20.25308667" lon="-98.739625">
        <ele>1986.0</ele>
        <time>2019-10-12T16:00:42.924Z</time>
      </trkpt>
      <trkpt lat="20.253075" lon="-98.73964167">
        <ele>1987.0</ele>
        <time>2019-10-12T16:00:43.925Z</time>
      </trkpt>
      <trkpt lat="20.25306167" lon="-98.73965833">
        <ele>1987.0</ele>
        <time>2019-10-12T16:00:44.926Z</time>
      </trkpt>
      <trkpt lat="20.25305167" lon="-98.73967667">
        <ele>1988.0</ele>
        <time>2019-10-12T16:00:45.927Z</time>
      </trkpt>
      <trkpt lat="20.25304" lon="-98.73969333">
        <ele>1988.0</ele>
        <time>2019-10-12T16:00:46.928Z</time>
      </trkpt>
      <trkpt lat="20.25303167" lon="-98.73971">
        <ele>1989.0</ele>
        <time>2019-10-12T16:00:47.929Z</time>
      </trkpt>
      <trkpt lat="20.253025" lon="-98.73972667">
        <ele>1989.0</ele>
        <time>2019-10-12T16:00:48.929Z</time>
      </trkpt>
      <trkpt lat="20.25301833" lon="-98.73974333">
        <ele>1989.0</ele>
        <time>2019-10-12T16:00:49.930Z</time>
      </trkpt>
      <trkpt lat="20.25301167" lon="-98.73976">
        <ele>1990.0</ele>
        <time>2019-10-12T16:00:50.931Z</time>
      </trkpt>
      <trkpt lat="20.25300167" lon="-98.739775">
        <ele>1990.0</ele>
        <time>2019-10-12T16:00:51.938Z</time>
      </trkpt>
      <trkpt lat="20.25299167" lon="-98.73979">
        <ele>1991.0</ele>
        <time>2019-10-12T16:00:52.945Z</time>
      </trkpt>
      <trkpt lat="20.25298333" lon="-98.739805">
        <ele>1992.0</ele>
        <time>2019-10-12T16:00:53.952Z</time>
      </trkpt>
      <trkpt lat="20.25297833" lon="-98.73982333">
        <ele>1992.0</ele>
        <time>2019-10-12T16:00:54.833Z</time>
      </trkpt>
      <trkpt lat="20.25297167" lon="-98.73983833">
        <ele>1992.0</ele>
        <time>2019-10-12T16:00:55.840Z</time>
      </trkpt>
      <trkpt lat="20.252965" lon="-98.73985833">
        <ele>1993.0</ele>
        <time>2019-10-12T16:00:56.843Z</time>
      </trkpt>
      <trkpt lat="20.25295667" lon="-98.73987667">
        <ele>1993.0</ele>
        <time>2019-10-12T16:00:57.847Z</time>
      </trkpt>
      <trkpt lat="20.25295333" lon="-98.739895">
        <ele>1993.0</ele>
        <time>2019-10-12T16:00:58.854Z</time>
      </trkpt>
      <trkpt lat="20.25294833" lon="-98.73991">
        <ele>1993.0</ele>
        <time>2019-10-12T16:00:59.861Z</time>
      </trkpt>
      <trkpt lat="20.25294333" lon="-98.73992833">
        <ele>1993.0</ele>
        <time>2019-10-12T16:01:00.867Z</time>
      </trkpt>
      <trkpt lat="20.25293833" lon="-98.73994667">
        <ele>1993.0</ele>
        <time>2019-10-12T16:01:01.871Z</time>
      </trkpt>
      <trkpt lat="20.252935" lon="-98.739965">
        <ele>1993.0</ele>
        <time>2019-10-12T16:01:02.876Z</time>
      </trkpt>
      <trkpt lat="20.25293" lon="-98.73998333">
        <ele>1993.0</ele>
        <time>2019-10-12T16:01:03.879Z</time>
      </trkpt>
      <trkpt lat="20.25292833" lon="-98.74000333">
        <ele>1993.0</ele>
        <time>2019-10-12T16:01:04.880Z</time>
      </trkpt>
      <trkpt lat="20.252925" lon="-98.74002167">
        <ele>1993.0</ele>
        <time>2019-10-12T16:01:05.886Z</time>
      </trkpt>
      <trkpt lat="20.25292333" lon="-98.74004167">
        <ele>1993.0</ele>
        <time>2019-10-12T16:01:06.893Z</time>
      </trkpt>
      <trkpt lat="20.25292333" lon="-98.74006167">
        <ele>1993.0</ele>
        <time>2019-10-12T16:01:07.899Z</time>
      </trkpt>
      <trkpt lat="20.25292167" lon="-98.74008">
        <ele>1993.0</ele>
        <time>2019-10-12T16:01:08.903Z</time>
      </trkpt>
      <trkpt lat="20.25292333" lon="-98.7401">
        <ele>1993.0</ele>
        <time>2019-10-12T16:01:09.904Z</time>
      </trkpt>
      <trkpt lat="20.252925" lon="-98.74012">
        <ele>1993.0</ele>
        <time>2019-10-12T16:01:10.905Z</time>
      </trkpt>
      <trkpt lat="20.252925" lon="-98.74013833">
        <ele>1993.0</ele>
        <time>2019-10-12T16:01:11.907Z</time>
      </trkpt>
      <trkpt lat="20.252925" lon="-98.74015833">
        <ele>1992.0</ele>
        <time>2019-10-12T16:01:12.915Z</time>
      </trkpt>
      <trkpt lat="20.252925" lon="-98.740175">
        <ele>1992.0</ele>
        <time>2019-10-12T16:01:13.919Z</time>
      </trkpt>
      <trkpt lat="20.25292333" lon="-98.74019667">
        <ele>1992.0</ele>
        <time>2019-10-12T16:01:14.922Z</time>
      </trkpt>
      <trkpt lat="20.25292167" lon="-98.74021667">
        <ele>1992.0</ele>
        <time>2019-10-12T16:01:15.929Z</time>
      </trkpt>
      <trkpt lat="20.25292" lon="-98.74023333">
        <ele>1992.0</ele>
        <time>2019-10-12T16:01:16.932Z</time>
      </trkpt>
      <trkpt lat="20.25291667" lon="-98.74025">
        <ele>1991.0</ele>
        <time>2019-10-12T16:01:17.936Z</time>
      </trkpt>
      <trkpt lat="20.25291333" lon="-98.74026833">
        <ele>1991.0</ele>
        <time>2019-10-12T16:01:18.943Z</time>
      </trkpt>
      <trkpt lat="20.25291167" lon="-98.74028667">
        <ele>1991.0</ele>
        <time>2019-10-12T16:01:19.948Z</time>
      </trkpt>
      <trkpt lat="20.25290833" lon="-98.740305">
        <ele>1991.0</ele>
        <time>2019-10-12T16:01:20.953Z</time>
      </trkpt>
      <trkpt lat="20.25290167" lon="-98.74032167">
        <ele>1992.0</ele>
        <time>2019-10-12T16:01:21.954Z</time>
      </trkpt>
      <trkpt lat="20.25289667" lon="-98.74034">
        <ele>1992.0</ele>
        <time>2019-10-12T16:01:22.954Z</time>
      </trkpt>
      <trkpt lat="20.25288833" lon="-98.74035833">
        <ele>1992.0</ele>
        <time>2019-10-12T16:01:23.830Z</time>
      </trkpt>
      <trkpt lat="20.25287833" lon="-98.74037333">
        <ele>1992.0</ele>
        <time>2019-10-12T16:01:24.830Z</time>
      </trkpt>
      <trkpt lat="20.25286667" lon="-98.74038667">
        <ele>1991.0</ele>
        <time>2019-10-12T16:01:25.831Z</time>
      </trkpt>
      <trkpt lat="20.25285667" lon="-98.7404">
        <ele>1991.0</ele>
        <time>2019-10-12T16:01:26.831Z</time>
      </trkpt>
      <trkpt lat="20.252845" lon="-98.740415">
        <ele>1992.0</ele>
        <time>2019-10-12T16:01:27.832Z</time>
      </trkpt>
      <trkpt lat="20.25283333" lon="-98.74042833">
        <ele>1992.0</ele>
        <time>2019-10-12T16:01:28.832Z</time>
      </trkpt>
      <trkpt lat="20.25282" lon="-98.74044">
        <ele>1992.0</ele>
        <time>2019-10-12T16:01:29.833Z</time>
      </trkpt>
      <trkpt lat="20.252805" lon="-98.74045">
        <ele>1991.0</ele>
        <time>2019-10-12T16:01:30.833Z</time>
      </trkpt>
      <trkpt lat="20.25278667" lon="-98.74046">
        <ele>1991.0</ele>
        <time>2019-10-12T16:01:31.834Z</time>
      </trkpt>
      <trkpt lat="20.25277333" lon="-98.74047333">
        <ele>1991.0</ele>
        <time>2019-10-12T16:01:32.834Z</time>
      </trkpt>
      <trkpt lat="20.25275833" lon="-98.74048833">
        <ele>1990.0</ele>
        <time>2019-10-12T16:01:33.834Z</time>
      </trkpt>
      <trkpt lat="20.25274333" lon="-98.74050167">
        <ele>1990.0</ele>
        <time>2019-10-12T16:01:34.835Z</time>
      </trkpt>
      <trkpt lat="20.25272833" lon="-98.74051667">
        <ele>1989.0</ele>
        <time>2019-10-12T16:01:35.836Z</time>
      </trkpt>
      <trkpt lat="20.25271333" lon="-98.74052833">
        <ele>1989.0</ele>
        <time>2019-10-12T16:01:36.836Z</time>
      </trkpt>
      <trkpt lat="20.25269667" lon="-98.740545">
        <ele>1989.0</ele>
        <time>2019-10-12T16:01:37.836Z</time>
      </trkpt>
      <trkpt lat="20.25268333" lon="-98.74056167">
        <ele>1989.0</ele>
        <time>2019-10-12T16:01:38.840Z</time>
      </trkpt>
      <trkpt lat="20.25266833" lon="-98.74057833">
        <ele>1989.0</ele>
        <time>2019-10-12T16:01:39.847Z</time>
      </trkpt>
      <trkpt lat="20.25265333" lon="-98.74059667">
        <ele>1989.0</ele>
        <time>2019-10-12T16:01:40.852Z</time>
      </trkpt>
      <trkpt lat="20.25263833" lon="-98.74061167">
        <ele>1989.0</ele>
        <time>2019-10-12T16:01:41.856Z</time>
      </trkpt>
      <trkpt lat="20.25262333" lon="-98.74062833">
        <ele>1989.0</ele>
        <time>2019-10-12T16:01:42.858Z</time>
      </trkpt>
      <trkpt lat="20.25260833" lon="-98.74064833">
        <ele>1989.0</ele>
        <time>2019-10-12T16:01:43.862Z</time>
      </trkpt>
      <trkpt lat="20.25259333" lon="-98.740665">
        <ele>1988.0</ele>
        <time>2019-10-12T16:01:44.864Z</time>
      </trkpt>
      <trkpt lat="20.25257833" lon="-98.74068167">
        <ele>1989.0</ele>
        <time>2019-10-12T16:01:45.867Z</time>
      </trkpt>
      <trkpt lat="20.25256667" lon="-98.74070167">
        <ele>1989.0</ele>
        <time>2019-10-12T16:01:46.869Z</time>
      </trkpt>
      <trkpt lat="20.25255167" lon="-98.74071833">
        <ele>1989.0</ele>
        <time>2019-10-12T16:01:47.873Z</time>
      </trkpt>
      <trkpt lat="20.25254" lon="-98.74073333">
        <ele>1989.0</ele>
        <time>2019-10-12T16:01:48.881Z</time>
      </trkpt>
      <trkpt lat="20.25252667" lon="-98.74075">
        <ele>1989.0</ele>
        <time>2019-10-12T16:01:49.887Z</time>
      </trkpt>
      <trkpt lat="20.25251167" lon="-98.74076667">
        <ele>1988.0</ele>
        <time>2019-10-12T16:01:50.893Z</time>
      </trkpt>
      <trkpt lat="20.25249833" lon="-98.74078333">
        <ele>1988.0</ele>
        <time>2019-10-12T16:01:51.896Z</time>
      </trkpt>
      <trkpt lat="20.252485" lon="-98.74080333">
        <ele>1989.0</ele>
        <time>2019-10-12T16:01:52.901Z</time>
      </trkpt>
      <trkpt lat="20.25247167" lon="-98.74082333">
        <ele>1988.0</ele>
        <time>2019-10-12T16:01:53.906Z</time>
      </trkpt>
      <trkpt lat="20.25246167" lon="-98.74084333">
        <ele>1988.0</ele>
        <time>2019-10-12T16:01:54.906Z</time>
      </trkpt>
      <trkpt lat="20.252455" lon="-98.74086667">
        <ele>1988.0</ele>
        <time>2019-10-12T16:01:55.907Z</time>
      </trkpt>
      <trkpt lat="20.25245" lon="-98.74089">
        <ele>1988.0</ele>
        <time>2019-10-12T16:01:56.908Z</time>
      </trkpt>
      <trkpt lat="20.25244667" lon="-98.74091333">
        <ele>1988.0</ele>
        <time>2019-10-12T16:01:57.909Z</time>
      </trkpt>
      <trkpt lat="20.25244167" lon="-98.74093667">
        <ele>1988.0</ele>
        <time>2019-10-12T16:01:58.910Z</time>
      </trkpt>
      <trkpt lat="20.25243667" lon="-98.74096333">
        <ele>1988.0</ele>
        <time>2019-10-12T16:01:59.910Z</time>
      </trkpt>
      <trkpt lat="20.25243333" lon="-98.74099">
        <ele>1988.0</ele>
        <time>2019-10-12T16:02:00.911Z</time>
      </trkpt>
      <trkpt lat="20.252435" lon="-98.741015">
        <ele>1988.0</ele>
        <time>2019-10-12T16:02:01.912Z</time>
      </trkpt>
      <trkpt lat="20.25243833" lon="-98.74103833">
        <ele>1988.0</ele>
        <time>2019-10-12T16:02:02.913Z</time>
      </trkpt>
      <trkpt lat="20.25244167" lon="-98.74106167">
        <ele>1988.0</ele>
        <time>2019-10-12T16:02:03.914Z</time>
      </trkpt>
      <trkpt lat="20.25245" lon="-98.74108667">
        <ele>1989.0</ele>
        <time>2019-10-12T16:02:04.914Z</time>
      </trkpt>
      <trkpt lat="20.25246" lon="-98.74110833">
        <ele>1989.0</ele>
        <time>2019-10-12T16:02:05.915Z</time>
      </trkpt>
      <trkpt lat="20.25247167" lon="-98.74113">
        <ele>1989.0</ele>
        <time>2019-10-12T16:02:06.916Z</time>
      </trkpt>
      <trkpt lat="20.25248167" lon="-98.74115">
        <ele>1988.0</ele>
        <time>2019-10-12T16:02:07.917Z</time>
      </trkpt>
      <trkpt lat="20.25248667" lon="-98.74116833">
        <ele>1988.0</ele>
        <time>2019-10-12T16:02:08.923Z</time>
      </trkpt>
      <trkpt lat="20.25248833" lon="-98.74118833">
        <ele>1988.0</ele>
        <time>2019-10-12T16:02:09.930Z</time>
      </trkpt>
      <trkpt lat="20.25248833" lon="-98.74121">
        <ele>1987.0</ele>
        <time>2019-10-12T16:02:10.936Z</time>
      </trkpt>
      <trkpt lat="20.25248167" lon="-98.74123167">
        <ele>1987.0</ele>
        <time>2019-10-12T16:02:11.940Z</time>
      </trkpt>
      <trkpt lat="20.25247333" lon="-98.74124833">
        <ele>1987.0</ele>
        <time>2019-10-12T16:02:12.944Z</time>
      </trkpt>
      <trkpt lat="20.25246167" lon="-98.74126167">
        <ele>1987.0</ele>
        <time>2019-10-12T16:02:13.951Z</time>
      </trkpt>
      <trkpt lat="20.252445" lon="-98.74126833">
        <ele>1987.0</ele>
        <time>2019-10-12T16:02:14.954Z</time>
      </trkpt>
      <trkpt lat="20.25242667" lon="-98.74127">
        <ele>1987.0</ele>
        <time>2019-10-12T16:02:15.833Z</time>
      </trkpt>
      <trkpt lat="20.252405" lon="-98.74127">
        <ele>1987.0</ele>
        <time>2019-10-12T16:02:16.839Z</time>
      </trkpt>
      <trkpt lat="20.25238667" lon="-98.74126667">
        <ele>1987.0</ele>
        <time>2019-10-12T16:02:17.843Z</time>
      </trkpt>
      <trkpt lat="20.25236667" lon="-98.74126">
        <ele>1987.0</ele>
        <time>2019-10-12T16:02:18.849Z</time>
      </trkpt>
      <trkpt lat="20.25234833" lon="-98.74125667">
        <ele>1987.0</ele>
        <time>2019-10-12T16:02:19.855Z</time>
      </trkpt>
      <trkpt lat="20.25232833" lon="-98.74125167">
        <ele>1988.0</ele>
        <time>2019-10-12T16:02:20.858Z</time>
      </trkpt>
      <trkpt lat="20.25230667" lon="-98.741245">
        <ele>1988.0</ele>
        <time>2019-10-12T16:02:21.862Z</time>
      </trkpt>
      <trkpt lat="20.25228167" lon="-98.74124">
        <ele>1988.0</ele>
        <time>2019-10-12T16:02:22.868Z</time>
      </trkpt>
      <trkpt lat="20.25225833" lon="-98.74123667">
        <ele>1988.0</ele>
        <time>2019-10-12T16:02:23.875Z</time>
      </trkpt>
      <trkpt lat="20.25223333" lon="-98.74123333">
        <ele>1988.0</ele>
        <time>2019-10-12T16:02:24.882Z</time>
      </trkpt>
      <trkpt lat="20.25220833" lon="-98.74123167">
        <ele>1988.0</ele>
        <time>2019-10-12T16:02:25.887Z</time>
      </trkpt>
      <trkpt lat="20.25218333" lon="-98.74123333">
        <ele>1988.0</ele>
        <time>2019-10-12T16:02:26.888Z</time>
      </trkpt>
      <trkpt lat="20.25215833" lon="-98.74123167">
        <ele>1988.0</ele>
        <time>2019-10-12T16:02:27.892Z</time>
      </trkpt>
      <trkpt lat="20.25213667" lon="-98.74123">
        <ele>1989.0</ele>
        <time>2019-10-12T16:02:28.898Z</time>
      </trkpt>
      <trkpt lat="20.25211333" lon="-98.74122833">
        <ele>1989.0</ele>
        <time>2019-10-12T16:02:29.902Z</time>
      </trkpt>
      <trkpt lat="20.25209" lon="-98.74123">
        <ele>1989.0</ele>
        <time>2019-10-12T16:02:30.906Z</time>
      </trkpt>
      <trkpt lat="20.252065" lon="-98.74123333">
        <ele>1988.0</ele>
        <time>2019-10-12T16:02:31.909Z</time>
      </trkpt>
      <trkpt lat="20.25204167" lon="-98.74123667">
        <ele>1988.0</ele>
        <time>2019-10-12T16:02:32.910Z</time>
      </trkpt>
      <trkpt lat="20.25201833" lon="-98.74124">
        <ele>1988.0</ele>
        <time>2019-10-12T16:02:33.910Z</time>
      </trkpt>
      <trkpt lat="20.251995" lon="-98.74124667">
        <ele>1988.0</ele>
        <time>2019-10-12T16:02:34.916Z</time>
      </trkpt>
      <trkpt lat="20.25197333" lon="-98.74125333">
        <ele>1988.0</ele>
        <time>2019-10-12T16:02:35.922Z</time>
      </trkpt>
      <trkpt lat="20.25195167" lon="-98.74126167">
        <ele>1988.0</ele>
        <time>2019-10-12T16:02:36.929Z</time>
      </trkpt>
      <trkpt lat="20.25193333" lon="-98.74127">
        <ele>1989.0</ele>
        <time>2019-10-12T16:02:37.929Z</time>
      </trkpt>
      <trkpt lat="20.25191333" lon="-98.74127333">
        <ele>1989.0</ele>
        <time>2019-10-12T16:02:38.932Z</time>
      </trkpt>
      <trkpt lat="20.25189167" lon="-98.74127167">
        <ele>1989.0</ele>
        <time>2019-10-12T16:02:39.936Z</time>
      </trkpt>
      <trkpt lat="20.25187333" lon="-98.74127167">
        <ele>1989.0</ele>
        <time>2019-10-12T16:02:40.941Z</time>
      </trkpt>
      <trkpt lat="20.251855" lon="-98.74126667">
        <ele>1990.0</ele>
        <time>2019-10-12T16:02:41.948Z</time>
      </trkpt>
      <trkpt lat="20.25184" lon="-98.74125833">
        <ele>1991.0</ele>
        <time>2019-10-12T16:02:42.953Z</time>
      </trkpt>
      <trkpt lat="20.25182667" lon="-98.74124667">
        <ele>1992.0</ele>
        <time>2019-10-12T16:02:43.831Z</time>
      </trkpt>
      <trkpt lat="20.25181667" lon="-98.74123167">
        <ele>1993.0</ele>
        <time>2019-10-12T16:02:44.838Z</time>
      </trkpt>
      <trkpt lat="20.25180667" lon="-98.74121667">
        <ele>1993.0</ele>
        <time>2019-10-12T16:02:45.842Z</time>
      </trkpt>
      <trkpt lat="20.2518" lon="-98.74120167">
        <ele>1994.0</ele>
        <time>2019-10-12T16:02:46.847Z</time>
      </trkpt>
      <trkpt lat="20.25179333" lon="-98.74118667">
        <ele>1994.0</ele>
        <time>2019-10-12T16:02:47.852Z</time>
      </trkpt>
      <trkpt lat="20.25178833" lon="-98.74117">
        <ele>1995.0</ele>
        <time>2019-10-12T16:02:48.857Z</time>
      </trkpt>
      <trkpt lat="20.25178167" lon="-98.74115667">
        <ele>1996.0</ele>
        <time>2019-10-12T16:02:49.860Z</time>
      </trkpt>
      <trkpt lat="20.25177333" lon="-98.74114667">
        <ele>1997.0</ele>
        <time>2019-10-12T16:02:50.863Z</time>
      </trkpt>
      <trkpt lat="20.25176" lon="-98.74113833">
        <ele>1997.0</ele>
        <time>2019-10-12T16:02:51.867Z</time>
      </trkpt>
      <trkpt lat="20.25174833" lon="-98.74112667">
        <ele>1998.0</ele>
        <time>2019-10-12T16:02:52.873Z</time>
      </trkpt>
      <trkpt lat="20.251735" lon="-98.741115">
        <ele>1998.0</ele>
        <time>2019-10-12T16:02:53.877Z</time>
      </trkpt>
      <trkpt lat="20.25172167" lon="-98.74110333">
        <ele>1999.0</ele>
        <time>2019-10-12T16:02:54.878Z</time>
      </trkpt>
      <trkpt lat="20.25170833" lon="-98.74109167">
        <ele>1999.0</ele>
        <time>2019-10-12T16:02:55.879Z</time>
      </trkpt>
      <trkpt lat="20.251695" lon="-98.74108333">
        <ele>2000.0</ele>
        <time>2019-10-12T16:02:56.880Z</time>
      </trkpt>
      <trkpt lat="20.25168" lon="-98.74107667">
        <ele>2000.0</ele>
        <time>2019-10-12T16:02:57.881Z</time>
      </trkpt>
      <trkpt lat="20.25166333" lon="-98.74106833">
        <ele>2000.0</ele>
        <time>2019-10-12T16:02:58.885Z</time>
      </trkpt>
      <trkpt lat="20.25164667" lon="-98.74106333">
        <ele>1999.0</ele>
        <time>2019-10-12T16:02:59.891Z</time>
      </trkpt>
      <trkpt lat="20.25163" lon="-98.74106">
        <ele>1999.0</ele>
        <time>2019-10-12T16:03:00.896Z</time>
      </trkpt>
      <trkpt lat="20.25161333" lon="-98.74105833">
        <ele>1999.0</ele>
        <time>2019-10-12T16:03:01.902Z</time>
      </trkpt>
      <trkpt lat="20.251595" lon="-98.74105667">
        <ele>1999.0</ele>
        <time>2019-10-12T16:03:02.907Z</time>
      </trkpt>
      <trkpt lat="20.251575" lon="-98.74105667">
        <ele>2000.0</ele>
        <time>2019-10-12T16:03:03.912Z</time>
      </trkpt>
      <trkpt lat="20.25155667" lon="-98.74106">
        <ele>2000.0</ele>
        <time>2019-10-12T16:03:04.917Z</time>
      </trkpt>
      <trkpt lat="20.25154167" lon="-98.741065">
        <ele>1999.0</ele>
        <time>2019-10-12T16:03:05.924Z</time>
      </trkpt>
      <trkpt lat="20.25152833" lon="-98.74107333">
        <ele>1999.0</ele>
        <time>2019-10-12T16:03:06.929Z</time>
      </trkpt>
      <trkpt lat="20.25151333" lon="-98.74108333">
        <ele>1999.0</ele>
        <time>2019-10-12T16:03:07.932Z</time>
      </trkpt>
      <trkpt lat="20.25149667" lon="-98.74109167">
        <ele>1999.0</ele>
        <time>2019-10-12T16:03:08.936Z</time>
      </trkpt>
      <trkpt lat="20.251485" lon="-98.741105">
        <ele>1999.0</ele>
        <time>2019-10-12T16:03:09.944Z</time>
      </trkpt>
      <trkpt lat="20.251475" lon="-98.74111833">
        <ele>1998.0</ele>
        <time>2019-10-12T16:03:10.951Z</time>
      </trkpt>
      <trkpt lat="20.251465" lon="-98.74113167">
        <ele>1998.0</ele>
        <time>2019-10-12T16:03:11.954Z</time>
      </trkpt>
      <trkpt lat="20.251455" lon="-98.741145">
        <ele>1997.0</ele>
        <time>2019-10-12T16:03:12.830Z</time>
      </trkpt>
      <trkpt lat="20.251445" lon="-98.74116">
        <ele>1997.0</ele>
        <time>2019-10-12T16:03:13.831Z</time>
      </trkpt>
      <trkpt lat="20.251435" lon="-98.74117167">
        <ele>1996.0</ele>
        <time>2019-10-12T16:03:14.836Z</time>
      </trkpt>
      <trkpt lat="20.25142333" lon="-98.74118167">
        <ele>1996.0</ele>
        <time>2019-10-12T16:03:15.843Z</time>
      </trkpt>
      <trkpt lat="20.25141167" lon="-98.74119167">
        <ele>1996.0</ele>
        <time>2019-10-12T16:03:16.850Z</time>
      </trkpt>
      <trkpt lat="20.25139833" lon="-98.74120167">
        <ele>1996.0</ele>
        <time>2019-10-12T16:03:17.855Z</time>
      </trkpt>
      <trkpt lat="20.251385" lon="-98.74121167">
        <ele>1996.0</ele>
        <time>2019-10-12T16:03:18.859Z</time>
      </trkpt>
      <trkpt lat="20.25137" lon="-98.74122167">
        <ele>1997.0</ele>
        <time>2019-10-12T16:03:19.864Z</time>
      </trkpt>
      <trkpt lat="20.251355" lon="-98.74122833">
        <ele>1997.0</ele>
        <time>2019-10-12T16:03:20.868Z</time>
      </trkpt>
      <trkpt lat="20.25133667" lon="-98.741235">
        <ele>1997.0</ele>
        <time>2019-10-12T16:03:21.875Z</time>
      </trkpt>
      <trkpt lat="20.25131667" lon="-98.74123833">
        <ele>1996.0</ele>
        <time>2019-10-12T16:03:22.879Z</time>
      </trkpt>
      <trkpt lat="20.251295" lon="-98.74124">
        <ele>1996.0</ele>
        <time>2019-10-12T16:03:23.883Z</time>
      </trkpt>
      <trkpt lat="20.25127333" lon="-98.74124167">
        <ele>1996.0</ele>
        <time>2019-10-12T16:03:24.888Z</time>
      </trkpt>
      <trkpt lat="20.25125333" lon="-98.74124333">
        <ele>1997.0</ele>
        <time>2019-10-12T16:03:25.892Z</time>
      </trkpt>
      <trkpt lat="20.25123667" lon="-98.74124667">
        <ele>1997.0</ele>
        <time>2019-10-12T16:03:26.895Z</time>
      </trkpt>
      <trkpt lat="20.25121833" lon="-98.74125333">
        <ele>1997.0</ele>
        <time>2019-10-12T16:03:27.901Z</time>
      </trkpt>
      <trkpt lat="20.2512" lon="-98.74125833">
        <ele>1997.0</ele>
        <time>2019-10-12T16:03:28.904Z</time>
      </trkpt>
      <trkpt lat="20.25118" lon="-98.74126167">
        <ele>1998.0</ele>
        <time>2019-10-12T16:03:29.905Z</time>
      </trkpt>
      <trkpt lat="20.25116167" lon="-98.74127167">
        <ele>1998.0</ele>
        <time>2019-10-12T16:03:30.906Z</time>
      </trkpt>
      <trkpt lat="20.251145" lon="-98.74128333">
        <ele>1998.0</ele>
        <time>2019-10-12T16:03:31.907Z</time>
      </trkpt>
      <trkpt lat="20.25113167" lon="-98.741295">
        <ele>1998.0</ele>
        <time>2019-10-12T16:03:32.908Z</time>
      </trkpt>
      <trkpt lat="20.25111833" lon="-98.74131">
        <ele>1998.0</ele>
        <time>2019-10-12T16:03:33.913Z</time>
      </trkpt>
      <trkpt lat="20.25110667" lon="-98.74132667">
        <ele>1999.0</ele>
        <time>2019-10-12T16:03:34.919Z</time>
      </trkpt>
      <trkpt lat="20.251095" lon="-98.74133833">
        <ele>1999.0</ele>
        <time>2019-10-12T16:03:35.925Z</time>
      </trkpt>
      <trkpt lat="20.251085" lon="-98.74135167">
        <ele>1999.0</ele>
        <time>2019-10-12T16:03:36.931Z</time>
      </trkpt>
      <trkpt lat="20.25107667" lon="-98.741365">
        <ele>1999.0</ele>
        <time>2019-10-12T16:03:37.935Z</time>
      </trkpt>
      <trkpt lat="20.25107" lon="-98.74138167">
        <ele>1999.0</ele>
        <time>2019-10-12T16:03:38.938Z</time>
      </trkpt>
      <trkpt lat="20.251065" lon="-98.7414">
        <ele>1999.0</ele>
        <time>2019-10-12T16:03:39.944Z</time>
      </trkpt>
      <trkpt lat="20.25106" lon="-98.74141667">
        <ele>1999.0</ele>
        <time>2019-10-12T16:03:40.950Z</time>
      </trkpt>
      <trkpt lat="20.25105667" lon="-98.74143333">
        <ele>2000.0</ele>
        <time>2019-10-12T16:03:41.955Z</time>
      </trkpt>
      <trkpt lat="20.25105167" lon="-98.74145">
        <ele>2000.0</ele>
        <time>2019-10-12T16:03:42.833Z</time>
      </trkpt>
      <trkpt lat="20.251045" lon="-98.74146333">
        <ele>2000.0</ele>
        <time>2019-10-12T16:03:43.837Z</time>
      </trkpt>
      <trkpt lat="20.25103833" lon="-98.74148">
        <ele>2001.0</ele>
        <time>2019-10-12T16:03:44.842Z</time>
      </trkpt>
      <trkpt lat="20.25103167" lon="-98.74149167">
        <ele>2001.0</ele>
        <time>2019-10-12T16:03:45.848Z</time>
      </trkpt>
      <trkpt lat="20.251025" lon="-98.74150333">
        <ele>2001.0</ele>
        <time>2019-10-12T16:03:46.854Z</time>
      </trkpt>
      <trkpt lat="20.25101667" lon="-98.741515">
        <ele>2001.0</ele>
        <time>2019-10-12T16:03:47.857Z</time>
      </trkpt>
      <trkpt lat="20.25100833" lon="-98.74152333">
        <ele>2001.0</ele>
        <time>2019-10-12T16:03:48.861Z</time>
      </trkpt>
      <trkpt lat="20.251" lon="-98.74153833">
        <ele>2002.0</ele>
        <time>2019-10-12T16:03:49.865Z</time>
      </trkpt>
      <trkpt lat="20.250995" lon="-98.74155">
        <ele>2002.0</ele>
        <time>2019-10-12T16:03:50.870Z</time>
      </trkpt>
      <trkpt lat="20.25099" lon="-98.741565">
        <ele>2002.0</ele>
        <time>2019-10-12T16:03:51.873Z</time>
      </trkpt>
      <trkpt lat="20.250985" lon="-98.74157667">
        <ele>2002.0</ele>
        <time>2019-10-12T16:03:52.880Z</time>
      </trkpt>
      <trkpt lat="20.250975" lon="-98.74158833">
        <ele>2003.0</ele>
        <time>2019-10-12T16:03:53.883Z</time>
      </trkpt>
      <trkpt lat="20.250965" lon="-98.74160167">
        <ele>2004.0</ele>
        <time>2019-10-12T16:03:54.884Z</time>
      </trkpt>
      <trkpt lat="20.25095667" lon="-98.74161333">
        <ele>2004.0</ele>
        <time>2019-10-12T16:03:55.885Z</time>
      </trkpt>
      <trkpt lat="20.25094833" lon="-98.74162">
        <ele>2004.0</ele>
        <time>2019-10-12T16:03:56.885Z</time>
      </trkpt>
      <trkpt lat="20.25094167" lon="-98.74162833">
        <ele>2004.0</ele>
        <time>2019-10-12T16:03:57.886Z</time>
      </trkpt>
      <trkpt lat="20.25093333" lon="-98.74163667">
        <ele>2004.0</ele>
        <time>2019-10-12T16:03:58.890Z</time>
      </trkpt>
      <trkpt lat="20.250925" lon="-98.74164667">
        <ele>2005.0</ele>
        <time>2019-10-12T16:03:59.897Z</time>
      </trkpt>
      <trkpt lat="20.25091333" lon="-98.741655">
        <ele>2005.0</ele>
        <time>2019-10-12T16:04:00.901Z</time>
      </trkpt>
      <trkpt lat="20.2509" lon="-98.74166333">
        <ele>2006.0</ele>
        <time>2019-10-12T16:04:01.910Z</time>
      </trkpt>
      <trkpt lat="20.250885" lon="-98.74167">
        <ele>2006.0</ele>
        <time>2019-10-12T16:04:02.917Z</time>
      </trkpt>
      <trkpt lat="20.25087167" lon="-98.74167833">
        <ele>2006.0</ele>
        <time>2019-10-12T16:04:03.923Z</time>
      </trkpt>
      <trkpt lat="20.25086167" lon="-98.74168833">
        <ele>2006.0</ele>
        <time>2019-10-12T16:04:04.925Z</time>
      </trkpt>
      <trkpt lat="20.25085" lon="-98.7417">
        <ele>2007.0</ele>
        <time>2019-10-12T16:04:05.932Z</time>
      </trkpt>
      <trkpt lat="20.25083833" lon="-98.74171">
        <ele>2007.0</ele>
        <time>2019-10-12T16:04:06.932Z</time>
      </trkpt>
      <trkpt lat="20.25082667" lon="-98.74172167">
        <ele>2007.0</ele>
        <time>2019-10-12T16:04:07.933Z</time>
      </trkpt>
      <trkpt lat="20.250815" lon="-98.74173167">
        <ele>2008.0</ele>
        <time>2019-10-12T16:04:08.934Z</time>
      </trkpt>
      <trkpt lat="20.250805" lon="-98.741745">
        <ele>2008.0</ele>
        <time>2019-10-12T16:04:09.935Z</time>
      </trkpt>
      <trkpt lat="20.25079667" lon="-98.74176">
        <ele>2008.0</ele>
        <time>2019-10-12T16:04:10.939Z</time>
      </trkpt>
      <trkpt lat="20.25079" lon="-98.74177167">
        <ele>2008.0</ele>
        <time>2019-10-12T16:04:11.947Z</time>
      </trkpt>
      <trkpt lat="20.250785" lon="-98.741785">
        <ele>2008.0</ele>
        <time>2019-10-12T16:04:12.952Z</time>
      </trkpt>
      <trkpt lat="20.25078" lon="-98.74179833">
        <ele>2008.0</ele>
        <time>2019-10-12T16:04:13.831Z</time>
      </trkpt>
      <trkpt lat="20.250775" lon="-98.74181333">
        <ele>2008.0</ele>
        <time>2019-10-12T16:04:14.835Z</time>
      </trkpt>
      <trkpt lat="20.25076833" lon="-98.741825">
        <ele>2009.0</ele>
        <time>2019-10-12T16:04:15.837Z</time>
      </trkpt>
      <trkpt lat="20.25076167" lon="-98.74184">
        <ele>2009.0</ele>
        <time>2019-10-12T16:04:16.840Z</time>
      </trkpt>
      <trkpt lat="20.25075333" lon="-98.741855">
        <ele>2009.0</ele>
        <time>2019-10-12T16:04:17.847Z</time>
      </trkpt>
      <trkpt lat="20.25074833" lon="-98.74187">
        <ele>2009.0</ele>
        <time>2019-10-12T16:04:18.848Z</time>
      </trkpt>
      <trkpt lat="20.25074333" lon="-98.74188667">
        <ele>2009.0</ele>
        <time>2019-10-12T16:04:19.852Z</time>
      </trkpt>
      <trkpt lat="20.25073667" lon="-98.74190333">
        <ele>2010.0</ele>
        <time>2019-10-12T16:04:20.852Z</time>
      </trkpt>
      <trkpt lat="20.25072667" lon="-98.74191833">
        <ele>2011.0</ele>
        <time>2019-10-12T16:04:21.857Z</time>
      </trkpt>
      <trkpt lat="20.250715" lon="-98.74193333">
        <ele>2011.0</ele>
        <time>2019-10-12T16:04:22.864Z</time>
      </trkpt>
      <trkpt lat="20.25070667" lon="-98.74194833">
        <ele>2012.0</ele>
        <time>2019-10-12T16:04:23.867Z</time>
      </trkpt>
      <trkpt lat="20.2507" lon="-98.74196333">
        <ele>2012.0</ele>
        <time>2019-10-12T16:04:24.869Z</time>
      </trkpt>
      <trkpt lat="20.25069333" lon="-98.74197667">
        <ele>2013.0</ele>
        <time>2019-10-12T16:04:25.870Z</time>
      </trkpt>
      <trkpt lat="20.25068833" lon="-98.74199667">
        <ele>2013.0</ele>
        <time>2019-10-12T16:04:26.874Z</time>
      </trkpt>
      <trkpt lat="20.250685" lon="-98.74201333">
        <ele>2014.0</ele>
        <time>2019-10-12T16:04:27.882Z</time>
      </trkpt>
      <trkpt lat="20.25068333" lon="-98.74202833">
        <ele>2013.0</ele>
        <time>2019-10-12T16:04:28.887Z</time>
      </trkpt>
      <trkpt lat="20.25068167" lon="-98.74204333">
        <ele>2013.0</ele>
        <time>2019-10-12T16:04:29.888Z</time>
      </trkpt>
      <trkpt lat="20.25068333" lon="-98.74206">
        <ele>2013.0</ele>
        <time>2019-10-12T16:04:30.889Z</time>
      </trkpt>
      <trkpt lat="20.250685" lon="-98.74208">
        <ele>2013.0</ele>
        <time>2019-10-12T16:04:31.890Z</time>
      </trkpt>
      <trkpt lat="20.250685" lon="-98.74209333">
        <ele>2012.0</ele>
        <time>2019-10-12T16:04:32.893Z</time>
      </trkpt>
      <trkpt lat="20.25068667" lon="-98.742105">
        <ele>2013.0</ele>
        <time>2019-10-12T16:04:33.895Z</time>
      </trkpt>
      <trkpt lat="20.25068667" lon="-98.74212">
        <ele>2013.0</ele>
        <time>2019-10-12T16:04:34.900Z</time>
      </trkpt>
      <trkpt lat="20.250685" lon="-98.742135">
        <ele>2013.0</ele>
        <time>2019-10-12T16:04:35.907Z</time>
      </trkpt>
      <trkpt lat="20.25068333" lon="-98.74215167">
        <ele>2013.0</ele>
        <time>2019-10-12T16:04:36.914Z</time>
      </trkpt>
      <trkpt lat="20.25068" lon="-98.74216667">
        <ele>2014.0</ele>
        <time>2019-10-12T16:04:37.915Z</time>
      </trkpt>
      <trkpt lat="20.250675" lon="-98.74218167">
        <ele>2015.0</ele>
        <time>2019-10-12T16:04:38.916Z</time>
      </trkpt>
      <trkpt lat="20.25066667" lon="-98.74219833">
        <ele>2016.0</ele>
        <time>2019-10-12T16:04:39.917Z</time>
      </trkpt>
      <trkpt lat="20.25066" lon="-98.74221333">
        <ele>2017.0</ele>
        <time>2019-10-12T16:04:40.918Z</time>
      </trkpt>
      <trkpt lat="20.250655" lon="-98.74222667">
        <ele>2017.0</ele>
        <time>2019-10-12T16:04:41.923Z</time>
      </trkpt>
      <trkpt lat="20.25065" lon="-98.74224167">
        <ele>2017.0</ele>
        <time>2019-10-12T16:04:42.929Z</time>
      </trkpt>
      <trkpt lat="20.25064833" lon="-98.742255">
        <ele>2018.0</ele>
        <time>2019-10-12T16:04:43.936Z</time>
      </trkpt>
      <trkpt lat="20.25064833" lon="-98.74227">
        <ele>2018.0</ele>
        <time>2019-10-12T16:04:44.943Z</time>
      </trkpt>
      <trkpt lat="20.250645" lon="-98.74228333">
        <ele>2018.0</ele>
        <time>2019-10-12T16:04:45.947Z</time>
      </trkpt>
      <trkpt lat="20.25064333" lon="-98.74229667">
        <ele>2018.0</ele>
        <time>2019-10-12T16:04:46.948Z</time>
      </trkpt>
      <trkpt lat="20.25064667" lon="-98.74231">
        <ele>2019.0</ele>
        <time>2019-10-12T16:04:47.830Z</time>
      </trkpt>
      <trkpt lat="20.25065833" lon="-98.742325">
        <ele>2018.0</ele>
        <time>2019-10-12T16:04:48.836Z</time>
      </trkpt>
      <trkpt lat="20.25066667" lon="-98.74233833">
        <ele>2017.0</ele>
        <time>2019-10-12T16:04:49.841Z</time>
      </trkpt>
      <trkpt lat="20.25067" lon="-98.74235167">
        <ele>2018.0</ele>
        <time>2019-10-12T16:04:50.842Z</time>
      </trkpt>
      <trkpt lat="20.25067167" lon="-98.742365">
        <ele>2019.0</ele>
        <time>2019-10-12T16:04:51.843Z</time>
      </trkpt>
      <trkpt lat="20.25066833" lon="-98.74237833">
        <ele>2020.0</ele>
        <time>2019-10-12T16:04:52.844Z</time>
      </trkpt>
      <trkpt lat="20.25066167" lon="-98.74238833">
        <ele>2020.0</ele>
        <time>2019-10-12T16:04:53.845Z</time>
      </trkpt>
      <trkpt lat="20.25065667" lon="-98.74239833">
        <ele>2021.0</ele>
        <time>2019-10-12T16:04:54.845Z</time>
      </trkpt>
      <trkpt lat="20.25064667" lon="-98.74241167">
        <ele>2022.0</ele>
        <time>2019-10-12T16:04:55.846Z</time>
      </trkpt>
      <trkpt lat="20.25063667" lon="-98.742425">
        <ele>2021.0</ele>
        <time>2019-10-12T16:04:56.847Z</time>
      </trkpt>
      <trkpt lat="20.25063" lon="-98.74244167">
        <ele>2021.0</ele>
        <time>2019-10-12T16:04:57.848Z</time>
      </trkpt>
      <trkpt lat="20.25062167" lon="-98.74245333">
        <ele>2021.0</ele>
        <time>2019-10-12T16:04:58.849Z</time>
      </trkpt>
      <trkpt lat="20.25060833" lon="-98.74245667">
        <ele>2020.0</ele>
        <time>2019-10-12T16:04:59.849Z</time>
      </trkpt>
      <trkpt lat="20.25059167" lon="-98.74245833">
        <ele>2020.0</ele>
        <time>2019-10-12T16:05:00.850Z</time>
      </trkpt>
      <trkpt lat="20.25057833" lon="-98.74245833">
        <ele>2021.0</ele>
        <time>2019-10-12T16:05:01.851Z</time>
      </trkpt>
      <trkpt lat="20.25056333" lon="-98.74245667">
        <ele>2021.0</ele>
        <time>2019-10-12T16:05:02.852Z</time>
      </trkpt>
      <trkpt lat="20.25054833" lon="-98.74245333">
        <ele>2022.0</ele>
        <time>2019-10-12T16:05:03.852Z</time>
      </trkpt>
      <trkpt lat="20.250535" lon="-98.742445">
        <ele>2022.0</ele>
        <time>2019-10-12T16:05:04.852Z</time>
      </trkpt>
      <trkpt lat="20.25052" lon="-98.74243667">
        <ele>2022.0</ele>
        <time>2019-10-12T16:05:05.853Z</time>
      </trkpt>
      <trkpt lat="20.25050667" lon="-98.74242667">
        <ele>2023.0</ele>
        <time>2019-10-12T16:05:06.854Z</time>
      </trkpt>
      <trkpt lat="20.25049333" lon="-98.74241667">
        <ele>2023.0</ele>
        <time>2019-10-12T16:05:07.855Z</time>
      </trkpt>
      <trkpt lat="20.25048" lon="-98.74240833">
        <ele>2023.0</ele>
        <time>2019-10-12T16:05:08.856Z</time>
      </trkpt>
      <trkpt lat="20.25046333" lon="-98.74239833">
        <ele>2022.0</ele>
        <time>2019-10-12T16:05:09.857Z</time>
      </trkpt>
      <trkpt lat="20.25044667" lon="-98.74239">
        <ele>2022.0</ele>
        <time>2019-10-12T16:05:10.858Z</time>
      </trkpt>
      <trkpt lat="20.25043" lon="-98.742385">
        <ele>2022.0</ele>
        <time>2019-10-12T16:05:11.859Z</time>
      </trkpt>
      <trkpt lat="20.25041333" lon="-98.74238">
        <ele>2022.0</ele>
        <time>2019-10-12T16:05:12.859Z</time>
      </trkpt>
      <trkpt lat="20.25039667" lon="-98.74237667">
        <ele>2022.0</ele>
        <time>2019-10-12T16:05:13.860Z</time>
      </trkpt>
      <trkpt lat="20.25037833" lon="-98.74237333">
        <ele>2023.0</ele>
        <time>2019-10-12T16:05:14.864Z</time>
      </trkpt>
      <trkpt lat="20.25036167" lon="-98.74237333">
        <ele>2023.0</ele>
        <time>2019-10-12T16:05:15.867Z</time>
      </trkpt>
      <trkpt lat="20.25034333" lon="-98.74237">
        <ele>2023.0</ele>
        <time>2019-10-12T16:05:16.871Z</time>
      </trkpt>
      <trkpt lat="20.25032667" lon="-98.74237333">
        <ele>2023.0</ele>
        <time>2019-10-12T16:05:17.874Z</time>
      </trkpt>
      <trkpt lat="20.25031" lon="-98.74237667">
        <ele>2023.0</ele>
        <time>2019-10-12T16:05:18.879Z</time>
      </trkpt>
      <trkpt lat="20.25029333" lon="-98.74238167">
        <ele>2023.0</ele>
        <time>2019-10-12T16:05:19.886Z</time>
      </trkpt>
      <trkpt lat="20.25027667" lon="-98.74239">
        <ele>2023.0</ele>
        <time>2019-10-12T16:05:20.887Z</time>
      </trkpt>
      <trkpt lat="20.25026" lon="-98.74239667">
        <ele>2023.0</ele>
        <time>2019-10-12T16:05:21.891Z</time>
      </trkpt>
      <trkpt lat="20.250245" lon="-98.74240667">
        <ele>2023.0</ele>
        <time>2019-10-12T16:05:22.898Z</time>
      </trkpt>
      <trkpt lat="20.25023" lon="-98.74241667">
        <ele>2023.0</ele>
        <time>2019-10-12T16:05:23.900Z</time>
      </trkpt>
      <trkpt lat="20.250215" lon="-98.74242833">
        <ele>2023.0</ele>
        <time>2019-10-12T16:05:24.904Z</time>
      </trkpt>
      <trkpt lat="20.25020167" lon="-98.74244">
        <ele>2023.0</ele>
        <time>2019-10-12T16:05:25.912Z</time>
      </trkpt>
      <trkpt lat="20.25018667" lon="-98.74245333">
        <ele>2023.0</ele>
        <time>2019-10-12T16:05:26.917Z</time>
      </trkpt>
      <trkpt lat="20.25017333" lon="-98.742465">
        <ele>2023.0</ele>
        <time>2019-10-12T16:05:27.923Z</time>
      </trkpt>
      <trkpt lat="20.25016" lon="-98.74247667">
        <ele>2023.0</ele>
        <time>2019-10-12T16:05:28.929Z</time>
      </trkpt>
      <trkpt lat="20.25014667" lon="-98.74248833">
        <ele>2023.0</ele>
        <time>2019-10-12T16:05:29.935Z</time>
      </trkpt>
      <trkpt lat="20.25013" lon="-98.74250167">
        <ele>2024.0</ele>
        <time>2019-10-12T16:05:30.938Z</time>
      </trkpt>
      <trkpt lat="20.250115" lon="-98.74251333">
        <ele>2024.0</ele>
        <time>2019-10-12T16:05:31.943Z</time>
      </trkpt>
      <trkpt lat="20.25009667" lon="-98.742525">
        <ele>2024.0</ele>
        <time>2019-10-12T16:05:32.946Z</time>
      </trkpt>
      <trkpt lat="20.25008167" lon="-98.74254">
        <ele>2024.0</ele>
        <time>2019-10-12T16:05:33.951Z</time>
      </trkpt>
      <trkpt lat="20.25006833" lon="-98.74255167">
        <ele>2024.0</ele>
        <time>2019-10-12T16:05:34.832Z</time>
      </trkpt>
      <trkpt lat="20.25005333" lon="-98.74256833">
        <ele>2024.0</ele>
        <time>2019-10-12T16:05:35.839Z</time>
      </trkpt>
      <trkpt lat="20.25004" lon="-98.74258333">
        <ele>2024.0</ele>
        <time>2019-10-12T16:05:36.845Z</time>
      </trkpt>
      <trkpt lat="20.25002833" lon="-98.74259833">
        <ele>2023.0</ele>
        <time>2019-10-12T16:05:37.848Z</time>
      </trkpt>
      <trkpt lat="20.25001667" lon="-98.74261667">
        <ele>2023.0</ele>
        <time>2019-10-12T16:05:38.849Z</time>
      </trkpt>
      <trkpt lat="20.250005" lon="-98.74263667">
        <ele>2023.0</ele>
        <time>2019-10-12T16:05:39.849Z</time>
      </trkpt>
      <trkpt lat="20.24999333" lon="-98.74266">
        <ele>2023.0</ele>
        <time>2019-10-12T16:05:40.852Z</time>
      </trkpt>
      <trkpt lat="20.24998167" lon="-98.74268">
        <ele>2023.0</ele>
        <time>2019-10-12T16:05:41.859Z</time>
      </trkpt>
      <trkpt lat="20.24997" lon="-98.74269667">
        <ele>2022.0</ele>
        <time>2019-10-12T16:05:42.866Z</time>
      </trkpt>
      <trkpt lat="20.24995333" lon="-98.74270833">
        <ele>2022.0</ele>
        <time>2019-10-12T16:05:43.868Z</time>
      </trkpt>
      <trkpt lat="20.24993833" lon="-98.74271667">
        <ele>2021.0</ele>
        <time>2019-10-12T16:05:44.869Z</time>
      </trkpt>
      <trkpt lat="20.24991667" lon="-98.742725">
        <ele>2022.0</ele>
        <time>2019-10-12T16:05:45.872Z</time>
      </trkpt>
      <trkpt lat="20.249895" lon="-98.74272833">
        <ele>2022.0</ele>
        <time>2019-10-12T16:05:46.880Z</time>
      </trkpt>
      <trkpt lat="20.24987333" lon="-98.74273333">
        <ele>2022.0</ele>
        <time>2019-10-12T16:05:47.886Z</time>
      </trkpt>
      <trkpt lat="20.24985" lon="-98.74273667">
        <ele>2022.0</ele>
        <time>2019-10-12T16:05:48.888Z</time>
      </trkpt>
      <trkpt lat="20.24982833" lon="-98.74273833">
        <ele>2022.0</ele>
        <time>2019-10-12T16:05:49.889Z</time>
      </trkpt>
      <trkpt lat="20.24980833" lon="-98.74274167">
        <ele>2022.0</ele>
        <time>2019-10-12T16:05:50.889Z</time>
      </trkpt>
      <trkpt lat="20.24978833" lon="-98.74274667">
        <ele>2023.0</ele>
        <time>2019-10-12T16:05:51.889Z</time>
      </trkpt>
      <trkpt lat="20.24976833" lon="-98.742755">
        <ele>2023.0</ele>
        <time>2019-10-12T16:05:52.890Z</time>
      </trkpt>
      <trkpt lat="20.24975333" lon="-98.74276833">
        <ele>2023.0</ele>
        <time>2019-10-12T16:05:53.891Z</time>
      </trkpt>
      <trkpt lat="20.249735" lon="-98.74278167">
        <ele>2023.0</ele>
        <time>2019-10-12T16:05:54.891Z</time>
      </trkpt>
      <trkpt lat="20.24971833" lon="-98.74279833">
        <ele>2023.0</ele>
        <time>2019-10-12T16:05:55.891Z</time>
      </trkpt>
      <trkpt lat="20.24970333" lon="-98.74281667">
        <ele>2023.0</ele>
        <time>2019-10-12T16:05:56.892Z</time>
      </trkpt>
      <trkpt lat="20.24969167" lon="-98.742835">
        <ele>2023.0</ele>
        <time>2019-10-12T16:05:57.892Z</time>
      </trkpt>
      <trkpt lat="20.24967833" lon="-98.742855">
        <ele>2023.0</ele>
        <time>2019-10-12T16:05:58.893Z</time>
      </trkpt>
      <trkpt lat="20.24967" lon="-98.74287333">
        <ele>2023.0</ele>
        <time>2019-10-12T16:05:59.900Z</time>
      </trkpt>
      <trkpt lat="20.24966167" lon="-98.74289333">
        <ele>2023.0</ele>
        <time>2019-10-12T16:06:00.905Z</time>
      </trkpt>
      <trkpt lat="20.24965333" lon="-98.74291333">
        <ele>2023.0</ele>
        <time>2019-10-12T16:06:01.908Z</time>
      </trkpt>
      <trkpt lat="20.24964333" lon="-98.74293167">
        <ele>2023.0</ele>
        <time>2019-10-12T16:06:02.916Z</time>
      </trkpt>
      <trkpt lat="20.249635" lon="-98.74295167">
        <ele>2022.0</ele>
        <time>2019-10-12T16:06:03.920Z</time>
      </trkpt>
      <trkpt lat="20.24962833" lon="-98.74297333">
        <ele>2022.0</ele>
        <time>2019-10-12T16:06:04.927Z</time>
      </trkpt>
      <trkpt lat="20.24961833" lon="-98.74299333">
        <ele>2022.0</ele>
        <time>2019-10-12T16:06:05.934Z</time>
      </trkpt>
      <trkpt lat="20.24960833" lon="-98.74301333">
        <ele>2022.0</ele>
        <time>2019-10-12T16:06:06.937Z</time>
      </trkpt>
      <trkpt lat="20.24959833" lon="-98.74303167">
        <ele>2022.0</ele>
        <time>2019-10-12T16:06:07.941Z</time>
      </trkpt>
      <trkpt lat="20.24959" lon="-98.74305333">
        <ele>2021.0</ele>
        <time>2019-10-12T16:06:08.945Z</time>
      </trkpt>
      <trkpt lat="20.24958" lon="-98.74307333">
        <ele>2021.0</ele>
        <time>2019-10-12T16:06:09.953Z</time>
      </trkpt>
      <trkpt lat="20.24957" lon="-98.743095">
        <ele>2021.0</ele>
        <time>2019-10-12T16:06:10.835Z</time>
      </trkpt>
      <trkpt lat="20.24956" lon="-98.74311667">
        <ele>2021.0</ele>
        <time>2019-10-12T16:06:11.838Z</time>
      </trkpt>
      <trkpt lat="20.24955333" lon="-98.74314">
        <ele>2021.0</ele>
        <time>2019-10-12T16:06:12.839Z</time>
      </trkpt>
      <trkpt lat="20.24955167" lon="-98.74316333">
        <ele>2021.0</ele>
        <time>2019-10-12T16:06:13.840Z</time>
      </trkpt>
      <trkpt lat="20.24954833" lon="-98.74318667">
        <ele>2020.0</ele>
        <time>2019-10-12T16:06:14.843Z</time>
      </trkpt>
      <trkpt lat="20.24954667" lon="-98.74321167">
        <ele>2021.0</ele>
        <time>2019-10-12T16:06:15.851Z</time>
      </trkpt>
      <trkpt lat="20.24954667" lon="-98.743235">
        <ele>2021.0</ele>
        <time>2019-10-12T16:06:16.857Z</time>
      </trkpt>
      <trkpt lat="20.24954667" lon="-98.74325833">
        <ele>2021.0</ele>
        <time>2019-10-12T16:06:17.863Z</time>
      </trkpt>
      <trkpt lat="20.24954667" lon="-98.74328333">
        <ele>2021.0</ele>
        <time>2019-10-12T16:06:18.863Z</time>
      </trkpt>
      <trkpt lat="20.24954833" lon="-98.74330667">
        <ele>2022.0</ele>
        <time>2019-10-12T16:06:19.865Z</time>
      </trkpt>
      <trkpt lat="20.24955" lon="-98.74333167">
        <ele>2022.0</ele>
        <time>2019-10-12T16:06:20.866Z</time>
      </trkpt>
      <trkpt lat="20.24955333" lon="-98.74335667">
        <ele>2023.0</ele>
        <time>2019-10-12T16:06:21.867Z</time>
      </trkpt>
      <trkpt lat="20.24956167" lon="-98.74338">
        <ele>2023.0</ele>
        <time>2019-10-12T16:06:22.873Z</time>
      </trkpt>
      <trkpt lat="20.24956833" lon="-98.74340167">
        <ele>2023.0</ele>
        <time>2019-10-12T16:06:23.878Z</time>
      </trkpt>
      <trkpt lat="20.249575" lon="-98.74342667">
        <ele>2023.0</ele>
        <time>2019-10-12T16:06:24.884Z</time>
      </trkpt>
      <trkpt lat="20.24958167" lon="-98.74344833">
        <ele>2023.0</ele>
        <time>2019-10-12T16:06:25.889Z</time>
      </trkpt>
      <trkpt lat="20.24958833" lon="-98.74347">
        <ele>2023.0</ele>
        <time>2019-10-12T16:06:26.891Z</time>
      </trkpt>
      <trkpt lat="20.24959167" lon="-98.74349667">
        <ele>2023.0</ele>
        <time>2019-10-12T16:06:27.898Z</time>
      </trkpt>
      <trkpt lat="20.24959333" lon="-98.74352">
        <ele>2023.0</ele>
        <time>2019-10-12T16:06:28.906Z</time>
      </trkpt>
      <trkpt lat="20.24959" lon="-98.743545">
        <ele>2023.0</ele>
        <time>2019-10-12T16:06:29.914Z</time>
      </trkpt>
      <trkpt lat="20.24958333" lon="-98.74356667">
        <ele>2023.0</ele>
        <time>2019-10-12T16:06:30.915Z</time>
      </trkpt>
      <trkpt lat="20.24957" lon="-98.74358333">
        <ele>2023.0</ele>
        <time>2019-10-12T16:06:31.916Z</time>
      </trkpt>
      <trkpt lat="20.24956" lon="-98.74359667">
        <ele>2023.0</ele>
        <time>2019-10-12T16:06:32.917Z</time>
      </trkpt>
      <trkpt lat="20.249545" lon="-98.74361">
        <ele>2023.0</ele>
        <time>2019-10-12T16:06:33.917Z</time>
      </trkpt>
      <trkpt lat="20.24952833" lon="-98.74362">
        <ele>2023.0</ele>
        <time>2019-10-12T16:06:34.918Z</time>
      </trkpt>
      <trkpt lat="20.24951" lon="-98.74362667">
        <ele>2022.0</ele>
        <time>2019-10-12T16:06:35.919Z</time>
      </trkpt>
      <trkpt lat="20.24949" lon="-98.74363">
        <ele>2022.0</ele>
        <time>2019-10-12T16:06:36.920Z</time>
      </trkpt>
      <trkpt lat="20.249475" lon="-98.74363333">
        <ele>2021.0</ele>
        <time>2019-10-12T16:06:37.921Z</time>
      </trkpt>
      <trkpt lat="20.24945167" lon="-98.74363667">
        <ele>2021.0</ele>
        <time>2019-10-12T16:06:38.924Z</time>
      </trkpt>
      <trkpt lat="20.24943167" lon="-98.743635">
        <ele>2021.0</ele>
        <time>2019-10-12T16:06:39.930Z</time>
      </trkpt>
      <trkpt lat="20.24941167" lon="-98.743635">
        <ele>2021.0</ele>
        <time>2019-10-12T16:06:40.935Z</time>
      </trkpt>
      <trkpt lat="20.24939" lon="-98.743635">
        <ele>2022.0</ele>
        <time>2019-10-12T16:06:41.938Z</time>
      </trkpt>
      <trkpt lat="20.24936833" lon="-98.74363333">
        <ele>2021.0</ele>
        <time>2019-10-12T16:06:42.946Z</time>
      </trkpt>
      <trkpt lat="20.24934833" lon="-98.74363667">
        <ele>2021.0</ele>
        <time>2019-10-12T16:06:43.950Z</time>
      </trkpt>
      <trkpt lat="20.24933" lon="-98.74363833">
        <ele>2021.0</ele>
        <time>2019-10-12T16:06:44.831Z</time>
      </trkpt>
      <trkpt lat="20.24931167" lon="-98.74364333">
        <ele>2021.0</ele>
        <time>2019-10-12T16:06:45.836Z</time>
      </trkpt>
      <trkpt lat="20.24929333" lon="-98.74364833">
        <ele>2021.0</ele>
        <time>2019-10-12T16:06:46.841Z</time>
      </trkpt>
      <trkpt lat="20.249275" lon="-98.743655">
        <ele>2021.0</ele>
        <time>2019-10-12T16:06:47.847Z</time>
      </trkpt>
      <trkpt lat="20.249255" lon="-98.74366167">
        <ele>2022.0</ele>
        <time>2019-10-12T16:06:48.848Z</time>
      </trkpt>
      <trkpt lat="20.24923667" lon="-98.74366667">
        <ele>2022.0</ele>
        <time>2019-10-12T16:06:49.853Z</time>
      </trkpt>
      <trkpt lat="20.249215" lon="-98.74367333">
        <ele>2023.0</ele>
        <time>2019-10-12T16:06:50.860Z</time>
      </trkpt>
      <trkpt lat="20.249195" lon="-98.74368167">
        <ele>2023.0</ele>
        <time>2019-10-12T16:06:51.866Z</time>
      </trkpt>
      <trkpt lat="20.24917833" lon="-98.74369167">
        <ele>2023.0</ele>
        <time>2019-10-12T16:06:52.869Z</time>
      </trkpt>
      <trkpt lat="20.24915667" lon="-98.74369833">
        <ele>2023.0</ele>
        <time>2019-10-12T16:06:53.870Z</time>
      </trkpt>
      <trkpt lat="20.24913833" lon="-98.743705">
        <ele>2023.0</ele>
        <time>2019-10-12T16:06:54.871Z</time>
      </trkpt>
      <trkpt lat="20.24911833" lon="-98.74370333">
        <ele>2023.0</ele>
        <time>2019-10-12T16:06:55.872Z</time>
      </trkpt>
      <trkpt lat="20.24910167" lon="-98.74370167">
        <ele>2024.0</ele>
        <time>2019-10-12T16:06:56.875Z</time>
      </trkpt>
      <trkpt lat="20.24908167" lon="-98.7437">
        <ele>2025.0</ele>
        <time>2019-10-12T16:06:57.882Z</time>
      </trkpt>
      <trkpt lat="20.24906" lon="-98.74369667">
        <ele>2025.0</ele>
        <time>2019-10-12T16:06:58.886Z</time>
      </trkpt>
      <trkpt lat="20.24903333" lon="-98.74369">
        <ele>2024.0</ele>
        <time>2019-10-12T16:06:59.891Z</time>
      </trkpt>
      <trkpt lat="20.249005" lon="-98.743685">
        <ele>2024.0</ele>
        <time>2019-10-12T16:07:00.893Z</time>
      </trkpt>
      <trkpt lat="20.24898" lon="-98.743685">
        <ele>2025.0</ele>
        <time>2019-10-12T16:07:01.895Z</time>
      </trkpt>
      <trkpt lat="20.24895667" lon="-98.743685">
        <ele>2025.0</ele>
        <time>2019-10-12T16:07:02.896Z</time>
      </trkpt>
      <trkpt lat="20.248935" lon="-98.74368667">
        <ele>2025.0</ele>
        <time>2019-10-12T16:07:03.899Z</time>
      </trkpt>
      <trkpt lat="20.24891333" lon="-98.74368667">
        <ele>2025.0</ele>
        <time>2019-10-12T16:07:04.907Z</time>
      </trkpt>
      <trkpt lat="20.24889" lon="-98.74369">
        <ele>2025.0</ele>
        <time>2019-10-12T16:07:05.909Z</time>
      </trkpt>
      <trkpt lat="20.24886667" lon="-98.74369">
        <ele>2025.0</ele>
        <time>2019-10-12T16:07:06.910Z</time>
      </trkpt>
      <trkpt lat="20.24884333" lon="-98.74369333">
        <ele>2024.0</ele>
        <time>2019-10-12T16:07:07.914Z</time>
      </trkpt>
      <trkpt lat="20.24882167" lon="-98.74369833">
        <ele>2024.0</ele>
        <time>2019-10-12T16:07:08.921Z</time>
      </trkpt>
      <trkpt lat="20.24880167" lon="-98.74371">
        <ele>2023.0</ele>
        <time>2019-10-12T16:07:09.927Z</time>
      </trkpt>
      <trkpt lat="20.24878167" lon="-98.74372">
        <ele>2023.0</ele>
        <time>2019-10-12T16:07:10.934Z</time>
      </trkpt>
      <trkpt lat="20.24876" lon="-98.74373333">
        <ele>2023.0</ele>
        <time>2019-10-12T16:07:11.939Z</time>
      </trkpt>
      <trkpt lat="20.24874167" lon="-98.74375">
        <ele>2023.0</ele>
        <time>2019-10-12T16:07:12.943Z</time>
      </trkpt>
      <trkpt lat="20.248725" lon="-98.74377">
        <ele>2022.0</ele>
        <time>2019-10-12T16:07:13.944Z</time>
      </trkpt>
      <trkpt lat="20.24871167" lon="-98.74379167">
        <ele>2022.0</ele>
        <time>2019-10-12T16:07:14.944Z</time>
      </trkpt>
      <trkpt lat="20.2487" lon="-98.743815">
        <ele>2021.0</ele>
        <time>2019-10-12T16:07:15.944Z</time>
      </trkpt>
      <trkpt lat="20.24869167" lon="-98.74384">
        <ele>2021.0</ele>
        <time>2019-10-12T16:07:16.945Z</time>
      </trkpt>
      <trkpt lat="20.24868" lon="-98.743865">
        <ele>2020.0</ele>
        <time>2019-10-12T16:07:17.945Z</time>
      </trkpt>
      <trkpt lat="20.24866833" lon="-98.74388833">
        <ele>2019.0</ele>
        <time>2019-10-12T16:07:18.945Z</time>
      </trkpt>
      <trkpt lat="20.248655" lon="-98.74391333">
        <ele>2019.0</ele>
        <time>2019-10-12T16:07:19.946Z</time>
      </trkpt>
      <trkpt lat="20.24864333" lon="-98.74393833">
        <ele>2018.0</ele>
        <time>2019-10-12T16:07:20.946Z</time>
      </trkpt>
      <trkpt lat="20.24863167" lon="-98.743965">
        <ele>2018.0</ele>
        <time>2019-10-12T16:07:21.946Z</time>
      </trkpt>
      <trkpt lat="20.24862" lon="-98.74398833">
        <ele>2017.0</ele>
        <time>2019-10-12T16:07:22.946Z</time>
      </trkpt>
      <trkpt lat="20.24861" lon="-98.74401833">
        <ele>2016.0</ele>
        <time>2019-10-12T16:07:23.947Z</time>
      </trkpt>
      <trkpt lat="20.2486" lon="-98.74404667">
        <ele>2015.0</ele>
        <time>2019-10-12T16:07:24.947Z</time>
      </trkpt>
      <trkpt lat="20.24859167" lon="-98.74407667">
        <ele>2015.0</ele>
        <time>2019-10-12T16:07:25.947Z</time>
      </trkpt>
      <trkpt lat="20.24858167" lon="-98.744105">
        <ele>2014.0</ele>
        <time>2019-10-12T16:07:26.947Z</time>
      </trkpt>
      <trkpt lat="20.24857167" lon="-98.74413167">
        <ele>2014.0</ele>
        <time>2019-10-12T16:07:27.948Z</time>
      </trkpt>
      <trkpt lat="20.24856167" lon="-98.74416">
        <ele>2013.0</ele>
        <time>2019-10-12T16:07:28.948Z</time>
      </trkpt>
      <trkpt lat="20.24855167" lon="-98.74418667">
        <ele>2013.0</ele>
        <time>2019-10-12T16:07:29.948Z</time>
      </trkpt>
      <trkpt lat="20.24854167" lon="-98.74421333">
        <ele>2013.0</ele>
        <time>2019-10-12T16:07:30.949Z</time>
      </trkpt>
      <trkpt lat="20.24853167" lon="-98.74423667">
        <ele>2012.0</ele>
        <time>2019-10-12T16:07:31.949Z</time>
      </trkpt>
      <trkpt lat="20.24851833" lon="-98.74426167">
        <ele>2012.0</ele>
        <time>2019-10-12T16:07:32.949Z</time>
      </trkpt>
      <trkpt lat="20.248505" lon="-98.74428667">
        <ele>2012.0</ele>
        <time>2019-10-12T16:07:33.950Z</time>
      </trkpt>
      <trkpt lat="20.24848833" lon="-98.74430833">
        <ele>2011.0</ele>
        <time>2019-10-12T16:07:34.950Z</time>
      </trkpt>
      <trkpt lat="20.24847" lon="-98.74432833">
        <ele>2011.0</ele>
        <time>2019-10-12T16:07:35.950Z</time>
      </trkpt>
      <trkpt lat="20.24845" lon="-98.74434667">
        <ele>2010.0</ele>
        <time>2019-10-12T16:07:36.951Z</time>
      </trkpt>
      <trkpt lat="20.24843" lon="-98.74436667">
        <ele>2010.0</ele>
        <time>2019-10-12T16:07:37.951Z</time>
      </trkpt>
      <trkpt lat="20.24841" lon="-98.744385">
        <ele>2010.0</ele>
        <time>2019-10-12T16:07:38.951Z</time>
      </trkpt>
      <trkpt lat="20.24839167" lon="-98.74440833">
        <ele>2010.0</ele>
        <time>2019-10-12T16:07:39.952Z</time>
      </trkpt>
      <trkpt lat="20.24837833" lon="-98.74443333">
        <ele>2009.0</ele>
        <time>2019-10-12T16:07:40.952Z</time>
      </trkpt>
      <trkpt lat="20.248365" lon="-98.74446">
        <ele>2008.0</ele>
        <time>2019-10-12T16:07:41.952Z</time>
      </trkpt>
      <trkpt lat="20.24835333" lon="-98.74448667">
        <ele>2008.0</ele>
        <time>2019-10-12T16:07:42.953Z</time>
      </trkpt>
      <trkpt lat="20.248345" lon="-98.74451167">
        <ele>2007.0</ele>
        <time>2019-10-12T16:07:43.953Z</time>
      </trkpt>
      <trkpt lat="20.24833167" lon="-98.74454333">
        <ele>2006.0</ele>
        <time>2019-10-12T16:07:44.953Z</time>
      </trkpt>
      <trkpt lat="20.24831833" lon="-98.74456833">
        <ele>2005.0</ele>
        <time>2019-10-12T16:07:45.953Z</time>
      </trkpt>
      <trkpt lat="20.24830333" lon="-98.74459167">
        <ele>2004.0</ele>
        <time>2019-10-12T16:07:46.954Z</time>
      </trkpt>
      <trkpt lat="20.24828833" lon="-98.74461667">
        <ele>2004.0</ele>
        <time>2019-10-12T16:07:47.954Z</time>
      </trkpt>
      <trkpt lat="20.24827667" lon="-98.74464">
        <ele>2004.0</ele>
        <time>2019-10-12T16:07:48.954Z</time>
      </trkpt>
      <trkpt lat="20.24827" lon="-98.74466833">
        <ele>2003.0</ele>
        <time>2019-10-12T16:07:49.954Z</time>
      </trkpt>
      <trkpt lat="20.24826667" lon="-98.74469667">
        <ele>2003.0</ele>
        <time>2019-10-12T16:07:50.954Z</time>
      </trkpt>
      <trkpt lat="20.24826667" lon="-98.744725">
        <ele>2003.0</ele>
        <time>2019-10-12T16:07:51.830Z</time>
      </trkpt>
      <trkpt lat="20.24826833" lon="-98.744755">
        <ele>2003.0</ele>
        <time>2019-10-12T16:07:52.833Z</time>
      </trkpt>
      <trkpt lat="20.24827333" lon="-98.74478833">
        <ele>2003.0</ele>
        <time>2019-10-12T16:07:53.839Z</time>
      </trkpt>
      <trkpt lat="20.248275" lon="-98.74481833">
        <ele>2002.0</ele>
        <time>2019-10-12T16:07:54.843Z</time>
      </trkpt>
      <trkpt lat="20.24827667" lon="-98.74485167">
        <ele>2002.0</ele>
        <time>2019-10-12T16:07:55.849Z</time>
      </trkpt>
      <trkpt lat="20.24827333" lon="-98.74488">
        <ele>2002.0</ele>
        <time>2019-10-12T16:07:56.852Z</time>
      </trkpt>
      <trkpt lat="20.24826667" lon="-98.74490667">
        <ele>2002.0</ele>
        <time>2019-10-12T16:07:57.852Z</time>
      </trkpt>
      <trkpt lat="20.248255" lon="-98.74492333">
        <ele>2004.0</ele>
        <time>2019-10-12T16:07:58.852Z</time>
      </trkpt>
      <trkpt lat="20.24824333" lon="-98.74493333">
        <ele>2005.0</ele>
        <time>2019-10-12T16:07:59.852Z</time>
      </trkpt>
      <trkpt lat="20.24822667" lon="-98.74494333">
        <ele>2005.0</ele>
        <time>2019-10-12T16:08:00.856Z</time>
      </trkpt>
      <trkpt lat="20.24821" lon="-98.74495667">
        <ele>2005.0</ele>
        <time>2019-10-12T16:08:01.860Z</time>
      </trkpt>
      <trkpt lat="20.24819167" lon="-98.74496833">
        <ele>2006.0</ele>
        <time>2019-10-12T16:08:02.863Z</time>
      </trkpt>
      <trkpt lat="20.248175" lon="-98.744975">
        <ele>2006.0</ele>
        <time>2019-10-12T16:08:03.866Z</time>
      </trkpt>
      <trkpt lat="20.248155" lon="-98.74497333">
        <ele>2007.0</ele>
        <time>2019-10-12T16:08:04.873Z</time>
      </trkpt>
      <trkpt lat="20.24814" lon="-98.744965">
        <ele>2007.0</ele>
        <time>2019-10-12T16:08:05.879Z</time>
      </trkpt>
      <trkpt lat="20.24812833" lon="-98.74495">
        <ele>2007.0</ele>
        <time>2019-10-12T16:08:06.883Z</time>
      </trkpt>
      <trkpt lat="20.248115" lon="-98.74493333">
        <ele>2007.0</ele>
        <time>2019-10-12T16:08:07.891Z</time>
      </trkpt>
      <trkpt lat="20.24810167" lon="-98.74491833">
        <ele>2007.0</ele>
        <time>2019-10-12T16:08:08.893Z</time>
      </trkpt>
      <trkpt lat="20.24809" lon="-98.74489833">
        <ele>2007.0</ele>
        <time>2019-10-12T16:08:09.896Z</time>
      </trkpt>
      <trkpt lat="20.24807833" lon="-98.74487167">
        <ele>2008.0</ele>
        <time>2019-10-12T16:08:10.896Z</time>
      </trkpt>
      <trkpt lat="20.248075" lon="-98.74485167">
        <ele>2009.0</ele>
        <time>2019-10-12T16:08:11.896Z</time>
      </trkpt>
      <trkpt lat="20.24806833" lon="-98.74482667">
        <ele>2010.0</ele>
        <time>2019-10-12T16:08:12.896Z</time>
      </trkpt>
      <trkpt lat="20.24805833" lon="-98.7448">
        <ele>2011.0</ele>
        <time>2019-10-12T16:08:13.897Z</time>
      </trkpt>
      <trkpt lat="20.24805167" lon="-98.744785">
        <ele>2011.0</ele>
        <time>2019-10-12T16:08:14.899Z</time>
      </trkpt>
      <trkpt lat="20.24804167" lon="-98.74476667">
        <ele>2012.0</ele>
        <time>2019-10-12T16:08:15.907Z</time>
      </trkpt>
      <trkpt lat="20.24803167" lon="-98.74474833">
        <ele>2012.0</ele>
        <time>2019-10-12T16:08:16.912Z</time>
      </trkpt>
      <trkpt lat="20.24802333" lon="-98.744725">
        <ele>2012.0</ele>
        <time>2019-10-12T16:08:17.918Z</time>
      </trkpt>
      <trkpt lat="20.24801667" lon="-98.744705">
        <ele>2013.0</ele>
        <time>2019-10-12T16:08:18.920Z</time>
      </trkpt>
      <trkpt lat="20.24801333" lon="-98.74468333">
        <ele>2014.0</ele>
        <time>2019-10-12T16:08:19.924Z</time>
      </trkpt>
      <trkpt lat="20.24800833" lon="-98.74465833">
        <ele>2015.0</ele>
        <time>2019-10-12T16:08:20.931Z</time>
      </trkpt>
      <trkpt lat="20.24800333" lon="-98.744635">
        <ele>2016.0</ele>
        <time>2019-10-12T16:08:21.936Z</time>
      </trkpt>
      <trkpt lat="20.24799833" lon="-98.74461167">
        <ele>2017.0</ele>
        <time>2019-10-12T16:08:22.944Z</time>
      </trkpt>
      <trkpt lat="20.24799333" lon="-98.74458667">
        <ele>2018.0</ele>
        <time>2019-10-12T16:08:23.949Z</time>
      </trkpt>
      <trkpt lat="20.24799167" lon="-98.74456667">
        <ele>2020.0</ele>
        <time>2019-10-12T16:08:24.952Z</time>
      </trkpt>
      <trkpt lat="20.247985" lon="-98.74454333">
        <ele>2020.0</ele>
        <time>2019-10-12T16:08:25.956Z</time>
      </trkpt>
      <trkpt lat="20.24798" lon="-98.744525">
        <ele>2020.0</ele>
        <time>2019-10-12T16:08:26.836Z</time>
      </trkpt>
      <trkpt lat="20.24797667" lon="-98.74450667">
        <ele>2021.0</ele>
        <time>2019-10-12T16:08:27.840Z</time>
      </trkpt>
      <trkpt lat="20.24797167" lon="-98.74448167">
        <ele>2021.0</ele>
        <time>2019-10-12T16:08:28.842Z</time>
      </trkpt>
      <trkpt lat="20.24797" lon="-98.74446">
        <ele>2021.0</ele>
        <time>2019-10-12T16:08:29.842Z</time>
      </trkpt>
      <trkpt lat="20.24797" lon="-98.74443833">
        <ele>2021.0</ele>
        <time>2019-10-12T16:08:30.846Z</time>
      </trkpt>
      <trkpt lat="20.24797333" lon="-98.74441667">
        <ele>2021.0</ele>
        <time>2019-10-12T16:08:31.852Z</time>
      </trkpt>
      <trkpt lat="20.24798" lon="-98.74439667">
        <ele>2022.0</ele>
        <time>2019-10-12T16:08:32.858Z</time>
      </trkpt>
      <trkpt lat="20.247985" lon="-98.744375">
        <ele>2022.0</ele>
        <time>2019-10-12T16:08:33.863Z</time>
      </trkpt>
      <trkpt lat="20.24799" lon="-98.74435167">
        <ele>2023.0</ele>
        <time>2019-10-12T16:08:34.865Z</time>
      </trkpt>
      <trkpt lat="20.24799667" lon="-98.74433167">
        <ele>2024.0</ele>
        <time>2019-10-12T16:08:35.866Z</time>
      </trkpt>
      <trkpt lat="20.24800167" lon="-98.74431167">
        <ele>2024.0</ele>
        <time>2019-10-12T16:08:36.870Z</time>
      </trkpt>
      <trkpt lat="20.24800833" lon="-98.74429333">
        <ele>2025.0</ele>
        <time>2019-10-12T16:08:37.876Z</time>
      </trkpt>
      <trkpt lat="20.24801667" lon="-98.74427833">
        <ele>2025.0</ele>
        <time>2019-10-12T16:08:38.882Z</time>
      </trkpt>
      <trkpt lat="20.24802667" lon="-98.74426167">
        <ele>2025.0</ele>
        <time>2019-10-12T16:08:39.886Z</time>
      </trkpt>
      <trkpt lat="20.248035" lon="-98.74424667">
        <ele>2024.0</ele>
        <time>2019-10-12T16:08:40.891Z</time>
      </trkpt>
      <trkpt lat="20.24804333" lon="-98.74422833">
        <ele>2024.0</ele>
        <time>2019-10-12T16:08:41.893Z</time>
      </trkpt>
      <trkpt lat="20.24805167" lon="-98.74421">
        <ele>2025.0</ele>
        <time>2019-10-12T16:08:42.899Z</time>
      </trkpt>
      <trkpt lat="20.24806167" lon="-98.74419333">
        <ele>2025.0</ele>
        <time>2019-10-12T16:08:43.907Z</time>
      </trkpt>
      <trkpt lat="20.24807" lon="-98.74417667">
        <ele>2025.0</ele>
        <time>2019-10-12T16:08:44.910Z</time>
      </trkpt>
      <trkpt lat="20.24807667" lon="-98.74416">
        <ele>2025.0</ele>
        <time>2019-10-12T16:08:45.911Z</time>
      </trkpt>
      <trkpt lat="20.24808167" lon="-98.74414333">
        <ele>2025.0</ele>
        <time>2019-10-12T16:08:46.911Z</time>
      </trkpt>
      <trkpt lat="20.248085" lon="-98.74412333">
        <ele>2025.0</ele>
        <time>2019-10-12T16:08:47.912Z</time>
      </trkpt>
      <trkpt lat="20.24808333" lon="-98.74410333">
        <ele>2025.0</ele>
        <time>2019-10-12T16:08:48.912Z</time>
      </trkpt>
      <trkpt lat="20.248085" lon="-98.744085">
        <ele>2025.0</ele>
        <time>2019-10-12T16:08:49.913Z</time>
      </trkpt>
      <trkpt lat="20.248085" lon="-98.74406667">
        <ele>2025.0</ele>
        <time>2019-10-12T16:08:50.916Z</time>
      </trkpt>
      <trkpt lat="20.24808333" lon="-98.744045">
        <ele>2026.0</ele>
        <time>2019-10-12T16:08:51.924Z</time>
      </trkpt>
      <trkpt lat="20.24808167" lon="-98.744025">
        <ele>2026.0</ele>
        <time>2019-10-12T16:08:52.927Z</time>
      </trkpt>
      <trkpt lat="20.24807833" lon="-98.744005">
        <ele>2026.0</ele>
        <time>2019-10-12T16:08:53.932Z</time>
      </trkpt>
      <trkpt lat="20.24807667" lon="-98.74398667">
        <ele>2026.0</ele>
        <time>2019-10-12T16:08:54.938Z</time>
      </trkpt>
      <trkpt lat="20.248075" lon="-98.74396667">
        <ele>2026.0</ele>
        <time>2019-10-12T16:08:55.945Z</time>
      </trkpt>
      <trkpt lat="20.24807167" lon="-98.74394667">
        <ele>2026.0</ele>
        <time>2019-10-12T16:08:56.950Z</time>
      </trkpt>
      <trkpt lat="20.248065" lon="-98.74392667">
        <ele>2026.0</ele>
        <time>2019-10-12T16:08:57.831Z</time>
      </trkpt>
      <trkpt lat="20.248055" lon="-98.74391">
        <ele>2026.0</ele>
        <time>2019-10-12T16:08:58.837Z</time>
      </trkpt>
      <trkpt lat="20.24804333" lon="-98.74389333">
        <ele>2026.0</ele>
        <time>2019-10-12T16:08:59.841Z</time>
      </trkpt>
      <trkpt lat="20.24802833" lon="-98.74388167">
        <ele>2026.0</ele>
        <time>2019-10-12T16:09:00.848Z</time>
      </trkpt>
      <trkpt lat="20.24801667" lon="-98.74387167">
        <ele>2026.0</ele>
        <time>2019-10-12T16:09:01.854Z</time>
      </trkpt>
      <trkpt lat="20.248005" lon="-98.74386">
        <ele>2026.0</ele>
        <time>2019-10-12T16:09:02.858Z</time>
      </trkpt>
      <trkpt lat="20.24799667" lon="-98.74384667">
        <ele>2026.0</ele>
        <time>2019-10-12T16:09:03.860Z</time>
      </trkpt>
      <trkpt lat="20.24799" lon="-98.74383167">
        <ele>2026.0</ele>
        <time>2019-10-12T16:09:04.860Z</time>
      </trkpt>
      <trkpt lat="20.24798833" lon="-98.74381667">
        <ele>2025.0</ele>
        <time>2019-10-12T16:09:05.860Z</time>
      </trkpt>
      <trkpt lat="20.24798833" lon="-98.7438">
        <ele>2024.0</ele>
        <time>2019-10-12T16:09:06.862Z</time>
      </trkpt>
      <trkpt lat="20.24798167" lon="-98.74378667">
        <ele>2023.0</ele>
        <time>2019-10-12T16:09:07.862Z</time>
      </trkpt>
      <trkpt lat="20.24797833" lon="-98.74377167">
        <ele>2024.0</ele>
        <time>2019-10-12T16:09:08.863Z</time>
      </trkpt>
      <trkpt lat="20.24797833" lon="-98.74375667">
        <ele>2024.0</ele>
        <time>2019-10-12T16:09:09.863Z</time>
      </trkpt>
      <trkpt lat="20.24797667" lon="-98.74374">
        <ele>2024.0</ele>
        <time>2019-10-12T16:09:10.864Z</time>
      </trkpt>
      <trkpt lat="20.247975" lon="-98.74371833">
        <ele>2024.0</ele>
        <time>2019-10-12T16:09:11.865Z</time>
      </trkpt>
      <trkpt lat="20.247975" lon="-98.74369667">
        <ele>2024.0</ele>
        <time>2019-10-12T16:09:12.866Z</time>
      </trkpt>
      <trkpt lat="20.24797167" lon="-98.743675">
        <ele>2024.0</ele>
        <time>2019-10-12T16:09:13.866Z</time>
      </trkpt>
      <trkpt lat="20.24796833" lon="-98.74365833">
        <ele>2025.0</ele>
        <time>2019-10-12T16:09:14.866Z</time>
      </trkpt>
      <trkpt lat="20.247965" lon="-98.74364333">
        <ele>2024.0</ele>
        <time>2019-10-12T16:09:15.868Z</time>
      </trkpt>
      <trkpt lat="20.24795833" lon="-98.74362667">
        <ele>2024.0</ele>
        <time>2019-10-12T16:09:16.871Z</time>
      </trkpt>
      <trkpt lat="20.24795167" lon="-98.74361167">
        <ele>2024.0</ele>
        <time>2019-10-12T16:09:17.879Z</time>
      </trkpt>
      <trkpt lat="20.24794333" lon="-98.74359833">
        <ele>2024.0</ele>
        <time>2019-10-12T16:09:18.885Z</time>
      </trkpt>
      <trkpt lat="20.24794" lon="-98.74358333">
        <ele>2024.0</ele>
        <time>2019-10-12T16:09:19.891Z</time>
      </trkpt>
      <trkpt lat="20.247935" lon="-98.74357">
        <ele>2024.0</ele>
        <time>2019-10-12T16:09:20.893Z</time>
      </trkpt>
      <trkpt lat="20.24793" lon="-98.743555">
        <ele>2024.0</ele>
        <time>2019-10-12T16:09:21.897Z</time>
      </trkpt>
      <trkpt lat="20.24792667" lon="-98.74353833">
        <ele>2024.0</ele>
        <time>2019-10-12T16:09:22.904Z</time>
      </trkpt>
      <trkpt lat="20.24792333" lon="-98.74352">
        <ele>2024.0</ele>
        <time>2019-10-12T16:09:23.909Z</time>
      </trkpt>
      <trkpt lat="20.24791833" lon="-98.74350333">
        <ele>2025.0</ele>
        <time>2019-10-12T16:09:24.915Z</time>
      </trkpt>
      <trkpt lat="20.24791833" lon="-98.743485">
        <ele>2025.0</ele>
        <time>2019-10-12T16:09:25.917Z</time>
      </trkpt>
      <trkpt lat="20.24792333" lon="-98.743465">
        <ele>2026.0</ele>
        <time>2019-10-12T16:09:26.921Z</time>
      </trkpt>
      <trkpt lat="20.24793667" lon="-98.74344667">
        <ele>2027.0</ele>
        <time>2019-10-12T16:09:27.924Z</time>
      </trkpt>
      <trkpt lat="20.24794333" lon="-98.74343">
        <ele>2027.0</ele>
        <time>2019-10-12T16:09:28.932Z</time>
      </trkpt>
      <trkpt lat="20.24795167" lon="-98.74341">
        <ele>2027.0</ele>
        <time>2019-10-12T16:09:29.937Z</time>
      </trkpt>
      <trkpt lat="20.24796" lon="-98.74339167">
        <ele>2027.0</ele>
        <time>2019-10-12T16:09:30.938Z</time>
      </trkpt>
      <trkpt lat="20.24796667" lon="-98.74337167">
        <ele>2028.0</ele>
        <time>2019-10-12T16:09:31.939Z</time>
      </trkpt>
      <trkpt lat="20.24797333" lon="-98.74335333">
        <ele>2029.0</ele>
        <time>2019-10-12T16:09:32.940Z</time>
      </trkpt>
      <trkpt lat="20.24798" lon="-98.74333333">
        <ele>2029.0</ele>
        <time>2019-10-12T16:09:33.941Z</time>
      </trkpt>
      <trkpt lat="20.24799" lon="-98.74331">
        <ele>2030.0</ele>
        <time>2019-10-12T16:09:34.942Z</time>
      </trkpt>
      <trkpt lat="20.24799667" lon="-98.74328833">
        <ele>2030.0</ele>
        <time>2019-10-12T16:09:35.942Z</time>
      </trkpt>
      <trkpt lat="20.248005" lon="-98.74326833">
        <ele>2030.0</ele>
        <time>2019-10-12T16:09:36.943Z</time>
      </trkpt>
      <trkpt lat="20.24801167" lon="-98.74325">
        <ele>2030.0</ele>
        <time>2019-10-12T16:09:37.944Z</time>
      </trkpt>
      <trkpt lat="20.24801833" lon="-98.74323">
        <ele>2030.0</ele>
        <time>2019-10-12T16:09:38.948Z</time>
      </trkpt>
      <trkpt lat="20.24802667" lon="-98.74321167">
        <ele>2030.0</ele>
        <time>2019-10-12T16:09:39.830Z</time>
      </trkpt>
      <trkpt lat="20.248035" lon="-98.74319">
        <ele>2030.0</ele>
        <time>2019-10-12T16:09:40.836Z</time>
      </trkpt>
      <trkpt lat="20.24804167" lon="-98.74316833">
        <ele>2030.0</ele>
        <time>2019-10-12T16:09:41.838Z</time>
      </trkpt>
      <trkpt lat="20.24804333" lon="-98.74314833">
        <ele>2030.0</ele>
        <time>2019-10-12T16:09:42.844Z</time>
      </trkpt>
      <trkpt lat="20.24804667" lon="-98.74312833">
        <ele>2031.0</ele>
        <time>2019-10-12T16:09:43.845Z</time>
      </trkpt>
      <trkpt lat="20.24804667" lon="-98.74311">
        <ele>2031.0</ele>
        <time>2019-10-12T16:09:44.846Z</time>
      </trkpt>
      <trkpt lat="20.24804667" lon="-98.74309">
        <ele>2031.0</ele>
        <time>2019-10-12T16:09:45.848Z</time>
      </trkpt>
      <trkpt lat="20.24804833" lon="-98.74307333">
        <ele>2032.0</ele>
        <time>2019-10-12T16:09:46.854Z</time>
      </trkpt>
      <trkpt lat="20.248055" lon="-98.74306167">
        <ele>2032.0</ele>
        <time>2019-10-12T16:09:47.862Z</time>
      </trkpt>
      <trkpt lat="20.24806" lon="-98.74305">
        <ele>2032.0</ele>
        <time>2019-10-12T16:09:48.868Z</time>
      </trkpt>
      <trkpt lat="20.24806167" lon="-98.74303833">
        <ele>2032.0</ele>
        <time>2019-10-12T16:09:49.872Z</time>
      </trkpt>
      <trkpt lat="20.24806833" lon="-98.74302667">
        <ele>2032.0</ele>
        <time>2019-10-12T16:09:50.876Z</time>
      </trkpt>
      <trkpt lat="20.24807333" lon="-98.74301333">
        <ele>2032.0</ele>
        <time>2019-10-12T16:09:51.878Z</time>
      </trkpt>
      <trkpt lat="20.24808333" lon="-98.74300167">
        <ele>2031.0</ele>
        <time>2019-10-12T16:09:52.885Z</time>
      </trkpt>
      <trkpt lat="20.24809" lon="-98.74299167">
        <ele>2031.0</ele>
        <time>2019-10-12T16:09:53.891Z</time>
      </trkpt>
      <trkpt lat="20.24809667" lon="-98.74298333">
        <ele>2031.0</ele>
        <time>2019-10-12T16:09:54.894Z</time>
      </trkpt>
      <trkpt lat="20.24809833" lon="-98.742975">
        <ele>2031.0</ele>
        <time>2019-10-12T16:09:55.895Z</time>
      </trkpt>
      <trkpt lat="20.24810167" lon="-98.742965">
        <ele>2031.0</ele>
        <time>2019-10-12T16:09:56.896Z</time>
      </trkpt>
      <trkpt lat="20.24810167" lon="-98.74295333">
        <ele>2032.0</ele>
        <time>2019-10-12T16:09:57.897Z</time>
      </trkpt>
      <trkpt lat="20.24810333" lon="-98.74294333">
        <ele>2033.0</ele>
        <time>2019-10-12T16:09:58.897Z</time>
      </trkpt>
      <trkpt lat="20.24810667" lon="-98.74293333">
        <ele>2034.0</ele>
        <time>2019-10-12T16:09:59.898Z</time>
      </trkpt>
      <trkpt lat="20.24811" lon="-98.74292167">
        <ele>2034.0</ele>
        <time>2019-10-12T16:10:00.902Z</time>
      </trkpt>
      <trkpt lat="20.24811667" lon="-98.74291167">
        <ele>2035.0</ele>
        <time>2019-10-12T16:10:01.907Z</time>
      </trkpt>
      <trkpt lat="20.24812" lon="-98.74290167">
        <ele>2035.0</ele>
        <time>2019-10-12T16:10:02.908Z</time>
      </trkpt>
      <trkpt lat="20.24812333" lon="-98.74289167">
        <ele>2035.0</ele>
        <time>2019-10-12T16:10:03.911Z</time>
      </trkpt>
      <trkpt lat="20.24812833" lon="-98.74287833">
        <ele>2035.0</ele>
        <time>2019-10-12T16:10:04.919Z</time>
      </trkpt>
      <trkpt lat="20.24813167" lon="-98.74286833">
        <ele>2036.0</ele>
        <time>2019-10-12T16:10:05.926Z</time>
      </trkpt>
      <trkpt lat="20.248135" lon="-98.74285833">
        <ele>2036.0</ele>
        <time>2019-10-12T16:10:06.931Z</time>
      </trkpt>
      <trkpt lat="20.24814" lon="-98.742845">
        <ele>2036.0</ele>
        <time>2019-10-12T16:10:07.935Z</time>
      </trkpt>
      <trkpt lat="20.24814" lon="-98.74283167">
        <ele>2036.0</ele>
        <time>2019-10-12T16:10:08.939Z</time>
      </trkpt>
      <trkpt lat="20.24814167" lon="-98.74282">
        <ele>2036.0</ele>
        <time>2019-10-12T16:10:09.947Z</time>
      </trkpt>
      <trkpt lat="20.24814167" lon="-98.74280667">
        <ele>2036.0</ele>
        <time>2019-10-12T16:10:10.954Z</time>
      </trkpt>
      <trkpt lat="20.24814167" lon="-98.74279167">
        <ele>2037.0</ele>
        <time>2019-10-12T16:10:11.834Z</time>
      </trkpt>
      <trkpt lat="20.24814167" lon="-98.74278">
        <ele>2037.0</ele>
        <time>2019-10-12T16:10:12.840Z</time>
      </trkpt>
      <trkpt lat="20.24813833" lon="-98.742765">
        <ele>2037.0</ele>
        <time>2019-10-12T16:10:13.842Z</time>
      </trkpt>
      <trkpt lat="20.24813667" lon="-98.74275167">
        <ele>2037.0</ele>
        <time>2019-10-12T16:10:14.847Z</time>
      </trkpt>
      <trkpt lat="20.248135" lon="-98.742735">
        <ele>2037.0</ele>
        <time>2019-10-12T16:10:15.848Z</time>
      </trkpt>
      <trkpt lat="20.24813" lon="-98.74272">
        <ele>2038.0</ele>
        <time>2019-10-12T16:10:16.849Z</time>
      </trkpt>
      <trkpt lat="20.24812667" lon="-98.74270833">
        <ele>2038.0</ele>
        <time>2019-10-12T16:10:17.849Z</time>
      </trkpt>
      <trkpt lat="20.24812333" lon="-98.742695">
        <ele>2038.0</ele>
        <time>2019-10-12T16:10:18.851Z</time>
      </trkpt>
      <trkpt lat="20.24812167" lon="-98.74268">
        <ele>2039.0</ele>
        <time>2019-10-12T16:10:19.852Z</time>
      </trkpt>
      <trkpt lat="20.24812167" lon="-98.74266333">
        <ele>2040.0</ele>
        <time>2019-10-12T16:10:20.852Z</time>
      </trkpt>
      <trkpt lat="20.248125" lon="-98.74264833">
        <ele>2040.0</ele>
        <time>2019-10-12T16:10:21.852Z</time>
      </trkpt>
      <trkpt lat="20.248125" lon="-98.74263667">
        <ele>2040.0</ele>
        <time>2019-10-12T16:10:22.853Z</time>
      </trkpt>
      <trkpt lat="20.248125" lon="-98.742625">
        <ele>2040.0</ele>
        <time>2019-10-12T16:10:23.854Z</time>
      </trkpt>
      <trkpt lat="20.24812667" lon="-98.74260667">
        <ele>2040.0</ele>
        <time>2019-10-12T16:10:24.862Z</time>
      </trkpt>
      <trkpt lat="20.24812833" lon="-98.74259">
        <ele>2040.0</ele>
        <time>2019-10-12T16:10:25.870Z</time>
      </trkpt>
      <trkpt lat="20.24813167" lon="-98.742575">
        <ele>2040.0</ele>
        <time>2019-10-12T16:10:26.872Z</time>
      </trkpt>
      <trkpt lat="20.24813333" lon="-98.74256">
        <ele>2040.0</ele>
        <time>2019-10-12T16:10:27.874Z</time>
      </trkpt>
      <trkpt lat="20.24813667" lon="-98.74255">
        <ele>2040.0</ele>
        <time>2019-10-12T16:10:28.879Z</time>
      </trkpt>
      <trkpt lat="20.24814" lon="-98.742535">
        <ele>2040.0</ele>
        <time>2019-10-12T16:10:29.883Z</time>
      </trkpt>
      <trkpt lat="20.24814167" lon="-98.74252">
        <ele>2041.0</ele>
        <time>2019-10-12T16:10:30.891Z</time>
      </trkpt>
      <trkpt lat="20.24814333" lon="-98.742505">
        <ele>2041.0</ele>
        <time>2019-10-12T16:10:31.897Z</time>
      </trkpt>
      <trkpt lat="20.24814333" lon="-98.74249167">
        <ele>2041.0</ele>
        <time>2019-10-12T16:10:32.905Z</time>
      </trkpt>
      <trkpt lat="20.248145" lon="-98.742475">
        <ele>2041.0</ele>
        <time>2019-10-12T16:10:33.909Z</time>
      </trkpt>
      <trkpt lat="20.24814667" lon="-98.74246167">
        <ele>2041.0</ele>
        <time>2019-10-12T16:10:34.913Z</time>
      </trkpt>
      <trkpt lat="20.24814833" lon="-98.74244667">
        <ele>2041.0</ele>
        <time>2019-10-12T16:10:35.921Z</time>
      </trkpt>
      <trkpt lat="20.24814667" lon="-98.74243">
        <ele>2041.0</ele>
        <time>2019-10-12T16:10:36.927Z</time>
      </trkpt>
      <trkpt lat="20.248145" lon="-98.742415">
        <ele>2041.0</ele>
        <time>2019-10-12T16:10:37.928Z</time>
      </trkpt>
      <trkpt lat="20.24814333" lon="-98.74240167">
        <ele>2041.0</ele>
        <time>2019-10-12T16:10:38.929Z</time>
      </trkpt>
      <trkpt lat="20.24814167" lon="-98.74238667">
        <ele>2041.0</ele>
        <time>2019-10-12T16:10:39.930Z</time>
      </trkpt>
      <trkpt lat="20.24813667" lon="-98.74237333">
        <ele>2041.0</ele>
        <time>2019-10-12T16:10:40.931Z</time>
      </trkpt>
      <trkpt lat="20.24813167" lon="-98.74236">
        <ele>2041.0</ele>
        <time>2019-10-12T16:10:41.931Z</time>
      </trkpt>
      <trkpt lat="20.24812667" lon="-98.74234667">
        <ele>2041.0</ele>
        <time>2019-10-12T16:10:42.932Z</time>
      </trkpt>
      <trkpt lat="20.24812" lon="-98.74233333">
        <ele>2041.0</ele>
        <time>2019-10-12T16:10:43.933Z</time>
      </trkpt>
      <trkpt lat="20.24811333" lon="-98.74231667">
        <ele>2042.0</ele>
        <time>2019-10-12T16:10:44.934Z</time>
      </trkpt>
      <trkpt lat="20.24810667" lon="-98.74230333">
        <ele>2042.0</ele>
        <time>2019-10-12T16:10:45.934Z</time>
      </trkpt>
      <trkpt lat="20.24809667" lon="-98.74228833">
        <ele>2043.0</ele>
        <time>2019-10-12T16:10:46.935Z</time>
      </trkpt>
      <trkpt lat="20.24808667" lon="-98.74227833">
        <ele>2043.0</ele>
        <time>2019-10-12T16:10:47.935Z</time>
      </trkpt>
      <trkpt lat="20.24807333" lon="-98.74226667">
        <ele>2043.0</ele>
        <time>2019-10-12T16:10:48.936Z</time>
      </trkpt>
      <trkpt lat="20.24806" lon="-98.742255">
        <ele>2043.0</ele>
        <time>2019-10-12T16:10:49.936Z</time>
      </trkpt>
      <trkpt lat="20.24804667" lon="-98.742245">
        <ele>2043.0</ele>
        <time>2019-10-12T16:10:50.937Z</time>
      </trkpt>
      <trkpt lat="20.248035" lon="-98.74223333">
        <ele>2044.0</ele>
        <time>2019-10-12T16:10:51.938Z</time>
      </trkpt>
      <trkpt lat="20.24802333" lon="-98.74222167">
        <ele>2044.0</ele>
        <time>2019-10-12T16:10:52.939Z</time>
      </trkpt>
      <trkpt lat="20.24801333" lon="-98.74221167">
        <ele>2044.0</ele>
        <time>2019-10-12T16:10:53.940Z</time>
      </trkpt>
      <trkpt lat="20.24800167" lon="-98.74220167">
        <ele>2044.0</ele>
        <time>2019-10-12T16:10:54.941Z</time>
      </trkpt>
      <trkpt lat="20.24798833" lon="-98.74219167">
        <ele>2044.0</ele>
        <time>2019-10-12T16:10:55.941Z</time>
      </trkpt>
      <trkpt lat="20.24797667" lon="-98.74218167">
        <ele>2044.0</ele>
        <time>2019-10-12T16:10:56.942Z</time>
      </trkpt>
      <trkpt lat="20.24796333" lon="-98.74217">
        <ele>2044.0</ele>
        <time>2019-10-12T16:10:57.943Z</time>
      </trkpt>
      <trkpt lat="20.24795" lon="-98.74215833">
        <ele>2044.0</ele>
        <time>2019-10-12T16:10:58.944Z</time>
      </trkpt>
      <trkpt lat="20.24793667" lon="-98.742145">
        <ele>2044.0</ele>
        <time>2019-10-12T16:10:59.945Z</time>
      </trkpt>
      <trkpt lat="20.24792833" lon="-98.74213333">
        <ele>2044.0</ele>
        <time>2019-10-12T16:11:00.945Z</time>
      </trkpt>
      <trkpt lat="20.24792333" lon="-98.74212">
        <ele>2044.0</ele>
        <time>2019-10-12T16:11:01.946Z</time>
      </trkpt>
      <trkpt lat="20.24792" lon="-98.74210667">
        <ele>2045.0</ele>
        <time>2019-10-12T16:11:02.947Z</time>
      </trkpt>
      <trkpt lat="20.24792" lon="-98.74209333">
        <ele>2045.0</ele>
        <time>2019-10-12T16:11:03.948Z</time>
      </trkpt>
      <trkpt lat="20.24791833" lon="-98.74208167">
        <ele>2045.0</ele>
        <time>2019-10-12T16:11:04.949Z</time>
      </trkpt>
      <trkpt lat="20.24792" lon="-98.74206833">
        <ele>2044.0</ele>
        <time>2019-10-12T16:11:05.949Z</time>
      </trkpt>
      <trkpt lat="20.24792167" lon="-98.74205667">
        <ele>2044.0</ele>
        <time>2019-10-12T16:11:06.950Z</time>
      </trkpt>
      <trkpt lat="20.24792333" lon="-98.742045">
        <ele>2044.0</ele>
        <time>2019-10-12T16:11:07.951Z</time>
      </trkpt>
      <trkpt lat="20.24792833" lon="-98.74203667">
        <ele>2044.0</ele>
        <time>2019-10-12T16:11:08.952Z</time>
      </trkpt>
      <trkpt lat="20.247935" lon="-98.74202833">
        <ele>2044.0</ele>
        <time>2019-10-12T16:11:09.953Z</time>
      </trkpt>
      <trkpt lat="20.247945" lon="-98.74202">
        <ele>2043.0</ele>
        <time>2019-10-12T16:11:10.954Z</time>
      </trkpt>
      <trkpt lat="20.24795167" lon="-98.74201">
        <ele>2044.0</ele>
        <time>2019-10-12T16:11:11.954Z</time>
      </trkpt>
      <trkpt lat="20.24796167" lon="-98.742">
        <ele>2044.0</ele>
        <time>2019-10-12T16:11:12.830Z</time>
      </trkpt>
      <trkpt lat="20.24797167" lon="-98.74198833">
        <ele>2044.0</ele>
        <time>2019-10-12T16:11:13.830Z</time>
      </trkpt>
      <trkpt lat="20.247985" lon="-98.74197833">
        <ele>2044.0</ele>
        <time>2019-10-12T16:11:14.832Z</time>
      </trkpt>
      <trkpt lat="20.24799333" lon="-98.741965">
        <ele>2045.0</ele>
        <time>2019-10-12T16:11:15.833Z</time>
      </trkpt>
      <trkpt lat="20.24800333" lon="-98.74195167">
        <ele>2046.0</ele>
        <time>2019-10-12T16:11:16.833Z</time>
      </trkpt>
      <trkpt lat="20.24801167" lon="-98.741935">
        <ele>2046.0</ele>
        <time>2019-10-12T16:11:17.834Z</time>
      </trkpt>
      <trkpt lat="20.24801833" lon="-98.74191833">
        <ele>2047.0</ele>
        <time>2019-10-12T16:11:18.834Z</time>
      </trkpt>
      <trkpt lat="20.248025" lon="-98.74190333">
        <ele>2048.0</ele>
        <time>2019-10-12T16:11:19.839Z</time>
      </trkpt>
      <trkpt lat="20.24803167" lon="-98.74189">
        <ele>2048.0</ele>
        <time>2019-10-12T16:11:20.844Z</time>
      </trkpt>
      <trkpt lat="20.24804" lon="-98.74187833">
        <ele>2048.0</ele>
        <time>2019-10-12T16:11:21.850Z</time>
      </trkpt>
      <trkpt lat="20.24804667" lon="-98.741865">
        <ele>2049.0</ele>
        <time>2019-10-12T16:11:22.854Z</time>
      </trkpt>
      <trkpt lat="20.24805333" lon="-98.74185">
        <ele>2049.0</ele>
        <time>2019-10-12T16:11:23.859Z</time>
      </trkpt>
      <trkpt lat="20.24805667" lon="-98.74183167">
        <ele>2048.0</ele>
        <time>2019-10-12T16:11:24.864Z</time>
      </trkpt>
      <trkpt lat="20.24806333" lon="-98.74181333">
        <ele>2048.0</ele>
        <time>2019-10-12T16:11:25.869Z</time>
      </trkpt>
      <trkpt lat="20.24806833" lon="-98.74179833">
        <ele>2048.0</ele>
        <time>2019-10-12T16:11:26.875Z</time>
      </trkpt>
      <trkpt lat="20.248075" lon="-98.74178">
        <ele>2049.0</ele>
        <time>2019-10-12T16:11:27.880Z</time>
      </trkpt>
      <trkpt lat="20.24807667" lon="-98.74176167">
        <ele>2050.0</ele>
        <time>2019-10-12T16:11:28.886Z</time>
      </trkpt>
      <trkpt lat="20.24808" lon="-98.74174333">
        <ele>2051.0</ele>
        <time>2019-10-12T16:11:29.893Z</time>
      </trkpt>
      <trkpt lat="20.24808167" lon="-98.741725">
        <ele>2052.0</ele>
        <time>2019-10-12T16:11:30.896Z</time>
      </trkpt>
      <trkpt lat="20.24808167" lon="-98.74170667">
        <ele>2052.0</ele>
        <time>2019-10-12T16:11:31.900Z</time>
      </trkpt>
      <trkpt lat="20.24808167" lon="-98.74168667">
        <ele>2053.0</ele>
        <time>2019-10-12T16:11:32.901Z</time>
      </trkpt>
      <trkpt lat="20.24808333" lon="-98.74166333">
        <ele>2055.0</ele>
        <time>2019-10-12T16:11:33.902Z</time>
      </trkpt>
      <trkpt lat="20.24808" lon="-98.741645">
        <ele>2056.0</ele>
        <time>2019-10-12T16:11:34.903Z</time>
      </trkpt>
      <trkpt lat="20.24807667" lon="-98.74162667">
        <ele>2057.0</ele>
        <time>2019-10-12T16:11:35.908Z</time>
      </trkpt>
      <trkpt lat="20.24807" lon="-98.74161">
        <ele>2058.0</ele>
        <time>2019-10-12T16:11:36.914Z</time>
      </trkpt>
      <trkpt lat="20.24806333" lon="-98.741595">
        <ele>2058.0</ele>
        <time>2019-10-12T16:11:37.918Z</time>
      </trkpt>
      <trkpt lat="20.24805833" lon="-98.74158167">
        <ele>2058.0</ele>
        <time>2019-10-12T16:11:38.922Z</time>
      </trkpt>
      <trkpt lat="20.24805333" lon="-98.74156667">
        <ele>2058.0</ele>
        <time>2019-10-12T16:11:39.928Z</time>
      </trkpt>
      <trkpt lat="20.24805167" lon="-98.74155">
        <ele>2059.0</ele>
        <time>2019-10-12T16:11:40.934Z</time>
      </trkpt>
      <trkpt lat="20.24804833" lon="-98.74153667">
        <ele>2059.0</ele>
        <time>2019-10-12T16:11:41.939Z</time>
      </trkpt>
      <trkpt lat="20.24805" lon="-98.74152667">
        <ele>2059.0</ele>
        <time>2019-10-12T16:11:42.946Z</time>
      </trkpt>
      <trkpt lat="20.24804833" lon="-98.74151833">
        <ele>2060.0</ele>
        <time>2019-10-12T16:11:43.950Z</time>
      </trkpt>
      <trkpt lat="20.24804833" lon="-98.74150833">
        <ele>2060.0</ele>
        <time>2019-10-12T16:11:44.953Z</time>
      </trkpt>
      <trkpt lat="20.24804833" lon="-98.7415">
        <ele>2060.0</ele>
        <time>2019-10-12T16:11:45.831Z</time>
      </trkpt>
      <trkpt lat="20.24804667" lon="-98.74148667">
        <ele>2060.0</ele>
        <time>2019-10-12T16:11:46.838Z</time>
      </trkpt>
      <trkpt lat="20.24804333" lon="-98.74147167">
        <ele>2061.0</ele>
        <time>2019-10-12T16:11:47.844Z</time>
      </trkpt>
      <trkpt lat="20.24803833" lon="-98.741455">
        <ele>2062.0</ele>
        <time>2019-10-12T16:11:48.851Z</time>
      </trkpt>
      <trkpt lat="20.24803333" lon="-98.74143833">
        <ele>2063.0</ele>
        <time>2019-10-12T16:11:49.852Z</time>
      </trkpt>
      <trkpt lat="20.24802667" lon="-98.74142333">
        <ele>2063.0</ele>
        <time>2019-10-12T16:11:50.853Z</time>
      </trkpt>
      <trkpt lat="20.24801667" lon="-98.74140667">
        <ele>2064.0</ele>
        <time>2019-10-12T16:11:51.854Z</time>
      </trkpt>
      <trkpt lat="20.24800667" lon="-98.74139167">
        <ele>2064.0</ele>
        <time>2019-10-12T16:11:52.854Z</time>
      </trkpt>
      <trkpt lat="20.24799667" lon="-98.74138">
        <ele>2064.0</ele>
        <time>2019-10-12T16:11:53.855Z</time>
      </trkpt>
      <trkpt lat="20.24799" lon="-98.74136833">
        <ele>2064.0</ele>
        <time>2019-10-12T16:11:54.856Z</time>
      </trkpt>
      <trkpt lat="20.24798167" lon="-98.741355">
        <ele>2063.0</ele>
        <time>2019-10-12T16:11:55.857Z</time>
      </trkpt>
      <trkpt lat="20.247975" lon="-98.74134167">
        <ele>2063.0</ele>
        <time>2019-10-12T16:11:56.859Z</time>
      </trkpt>
      <trkpt lat="20.24796833" lon="-98.74133">
        <ele>2062.0</ele>
        <time>2019-10-12T16:11:57.864Z</time>
      </trkpt>
      <trkpt lat="20.24796167" lon="-98.74131833">
        <ele>2062.0</ele>
        <time>2019-10-12T16:11:58.871Z</time>
      </trkpt>
      <trkpt lat="20.24795333" lon="-98.741305">
        <ele>2061.0</ele>
        <time>2019-10-12T16:11:59.876Z</time>
      </trkpt>
      <trkpt lat="20.24794667" lon="-98.74129167">
        <ele>2062.0</ele>
        <time>2019-10-12T16:12:00.879Z</time>
      </trkpt>
      <trkpt lat="20.24793667" lon="-98.74128">
        <ele>2062.0</ele>
        <time>2019-10-12T16:12:01.883Z</time>
      </trkpt>
      <trkpt lat="20.24792833" lon="-98.74126833">
        <ele>2062.0</ele>
        <time>2019-10-12T16:12:02.889Z</time>
      </trkpt>
      <trkpt lat="20.24792167" lon="-98.741255">
        <ele>2063.0</ele>
        <time>2019-10-12T16:12:03.892Z</time>
      </trkpt>
      <trkpt lat="20.247915" lon="-98.74124167">
        <ele>2063.0</ele>
        <time>2019-10-12T16:12:04.898Z</time>
      </trkpt>
      <trkpt lat="20.24790667" lon="-98.74122667">
        <ele>2063.0</ele>
        <time>2019-10-12T16:12:05.904Z</time>
      </trkpt>
      <trkpt lat="20.2479" lon="-98.74121833">
        <ele>2063.0</ele>
        <time>2019-10-12T16:12:06.911Z</time>
      </trkpt>
      <trkpt lat="20.24789333" lon="-98.74121167">
        <ele>2063.0</ele>
        <time>2019-10-12T16:12:07.915Z</time>
      </trkpt>
      <trkpt lat="20.24788833" lon="-98.74120833">
        <ele>2063.0</ele>
        <time>2019-10-12T16:12:08.922Z</time>
      </trkpt>
      <trkpt lat="20.24788167" lon="-98.74120667">
        <ele>2063.0</ele>
        <time>2019-10-12T16:12:09.926Z</time>
      </trkpt>
      <trkpt lat="20.24787833" lon="-98.74120833">
        <ele>2062.0</ele>
        <time>2019-10-12T16:12:10.931Z</time>
      </trkpt>
      <trkpt lat="20.247875" lon="-98.74121">
        <ele>2062.0</ele>
        <time>2019-10-12T16:12:11.932Z</time>
      </trkpt>
      <trkpt lat="20.24787" lon="-98.74121167">
        <ele>2061.0</ele>
        <time>2019-10-12T16:12:12.933Z</time>
      </trkpt>
      <trkpt lat="20.24786667" lon="-98.74121333">
        <ele>2061.0</ele>
        <time>2019-10-12T16:12:13.934Z</time>
      </trkpt>
      <trkpt lat="20.24786333" lon="-98.74121667">
        <ele>2061.0</ele>
        <time>2019-10-12T16:12:14.935Z</time>
      </trkpt>
      <trkpt lat="20.24786333" lon="-98.74121833">
        <ele>2061.0</ele>
        <time>2019-10-12T16:12:15.938Z</time>
      </trkpt>
      <trkpt lat="20.24785833" lon="-98.74121833">
        <ele>2061.0</ele>
        <time>2019-10-12T16:12:16.943Z</time>
      </trkpt>
      <trkpt lat="20.24785667" lon="-98.74121667">
        <ele>2060.0</ele>
        <time>2019-10-12T16:12:17.947Z</time>
      </trkpt>
      <trkpt lat="20.247855" lon="-98.74121833">
        <ele>2060.0</ele>
        <time>2019-10-12T16:12:18.954Z</time>
      </trkpt>
      <trkpt lat="20.24785333" lon="-98.74122">
        <ele>2059.0</ele>
        <time>2019-10-12T16:12:19.833Z</time>
      </trkpt>
      <trkpt lat="20.24785" lon="-98.74122">
        <ele>2060.0</ele>
        <time>2019-10-12T16:12:20.835Z</time>
      </trkpt>
      <trkpt lat="20.247845" lon="-98.74122">
        <ele>2059.0</ele>
        <time>2019-10-12T16:12:21.841Z</time>
      </trkpt>
      <trkpt lat="20.24784167" lon="-98.74121667">
        <ele>2059.0</ele>
        <time>2019-10-12T16:12:22.847Z</time>
      </trkpt>
      <trkpt lat="20.24784167" lon="-98.74121667">
        <ele>2059.0</ele>
        <time>2019-10-12T16:12:23.848Z</time>
      </trkpt>
      <trkpt lat="20.24784167" lon="-98.74121667">
        <ele>2059.0</ele>
        <time>2019-10-12T16:12:24.850Z</time>
      </trkpt>
      <trkpt lat="20.24784167" lon="-98.74121667">
        <ele>2059.0</ele>
        <time>2019-10-12T16:12:25.855Z</time>
      </trkpt>
      <trkpt lat="20.24784167" lon="-98.74121667">
        <ele>2059.0</ele>
        <time>2019-10-12T16:12:26.862Z</time>
      </trkpt>
      <trkpt lat="20.24784167" lon="-98.74121667">
        <ele>2059.0</ele>
        <time>2019-10-12T16:12:27.866Z</time>
      </trkpt>
      <trkpt lat="20.24784167" lon="-98.74121667">
        <ele>2059.0</ele>
        <time>2019-10-12T16:12:28.867Z</time>
      </trkpt>
      <trkpt lat="20.24784167" lon="-98.74121667">
        <ele>2059.0</ele>
        <time>2019-10-12T16:12:29.870Z</time>
      </trkpt>
      <trkpt lat="20.24784167" lon="-98.74121667">
        <ele>2059.0</ele>
        <time>2019-10-12T16:12:30.877Z</time>
      </trkpt>
      <trkpt lat="20.24784167" lon="-98.74121667">
        <ele>2059.0</ele>
        <time>2019-10-12T16:12:31.885Z</time>
      </trkpt>
      <trkpt lat="20.24784" lon="-98.74121333">
        <ele>2059.0</ele>
        <time>2019-10-12T16:12:32.886Z</time>
      </trkpt>
      <trkpt lat="20.24782667" lon="-98.74120167">
        <ele>2059.0</ele>
        <time>2019-10-12T16:12:33.886Z</time>
      </trkpt>
      <trkpt lat="20.24781667" lon="-98.74119333">
        <ele>2059.0</ele>
        <time>2019-10-12T16:12:34.887Z</time>
      </trkpt>
      <trkpt lat="20.247805" lon="-98.74118167">
        <ele>2059.0</ele>
        <time>2019-10-12T16:12:35.889Z</time>
      </trkpt>
      <trkpt lat="20.24779333" lon="-98.74116833">
        <ele>2059.0</ele>
        <time>2019-10-12T16:12:36.889Z</time>
      </trkpt>
      <trkpt lat="20.24778" lon="-98.74115667">
        <ele>2059.0</ele>
        <time>2019-10-12T16:12:37.890Z</time>
      </trkpt>
      <trkpt lat="20.24776667" lon="-98.74114333">
        <ele>2060.0</ele>
        <time>2019-10-12T16:12:38.891Z</time>
      </trkpt>
      <trkpt lat="20.247755" lon="-98.74113">
        <ele>2060.0</ele>
        <time>2019-10-12T16:12:39.891Z</time>
      </trkpt>
      <trkpt lat="20.24774" lon="-98.74111667">
        <ele>2060.0</ele>
        <time>2019-10-12T16:12:40.892Z</time>
      </trkpt>
      <trkpt lat="20.24772333" lon="-98.74110333">
        <ele>2060.0</ele>
        <time>2019-10-12T16:12:41.893Z</time>
      </trkpt>
      <trkpt lat="20.24771167" lon="-98.741095">
        <ele>2060.0</ele>
        <time>2019-10-12T16:12:42.893Z</time>
      </trkpt>
      <trkpt lat="20.24769833" lon="-98.74108833">
        <ele>2060.0</ele>
        <time>2019-10-12T16:12:43.894Z</time>
      </trkpt>
      <trkpt lat="20.24768833" lon="-98.74108167">
        <ele>2060.0</ele>
        <time>2019-10-12T16:12:44.894Z</time>
      </trkpt>
      <trkpt lat="20.24767667" lon="-98.74107667">
        <ele>2060.0</ele>
        <time>2019-10-12T16:12:45.895Z</time>
      </trkpt>
      <trkpt lat="20.24766333" lon="-98.74107167">
        <ele>2060.0</ele>
        <time>2019-10-12T16:12:46.895Z</time>
      </trkpt>
      <trkpt lat="20.24764833" lon="-98.74106667">
        <ele>2060.0</ele>
        <time>2019-10-12T16:12:47.896Z</time>
      </trkpt>
      <trkpt lat="20.24763333" lon="-98.74106167">
        <ele>2060.0</ele>
        <time>2019-10-12T16:12:48.898Z</time>
      </trkpt>
      <trkpt lat="20.24762" lon="-98.74105667">
        <ele>2061.0</ele>
        <time>2019-10-12T16:12:49.898Z</time>
      </trkpt>
      <trkpt lat="20.247605" lon="-98.74105333">
        <ele>2061.0</ele>
        <time>2019-10-12T16:12:50.899Z</time>
      </trkpt>
      <trkpt lat="20.24759" lon="-98.74105167">
        <ele>2061.0</ele>
        <time>2019-10-12T16:12:51.900Z</time>
      </trkpt>
      <trkpt lat="20.247575" lon="-98.74105">
        <ele>2061.0</ele>
        <time>2019-10-12T16:12:52.901Z</time>
      </trkpt>
      <trkpt lat="20.24756167" lon="-98.74105">
        <ele>2061.0</ele>
        <time>2019-10-12T16:12:53.902Z</time>
      </trkpt>
      <trkpt lat="20.24755" lon="-98.74105">
        <ele>2061.0</ele>
        <time>2019-10-12T16:12:54.903Z</time>
      </trkpt>
      <trkpt lat="20.24753833" lon="-98.74105167">
        <ele>2061.0</ele>
        <time>2019-10-12T16:12:55.903Z</time>
      </trkpt>
      <trkpt lat="20.24752833" lon="-98.74105167">
        <ele>2061.0</ele>
        <time>2019-10-12T16:12:56.904Z</time>
      </trkpt>
      <trkpt lat="20.24751333" lon="-98.74105167">
        <ele>2062.0</ele>
        <time>2019-10-12T16:12:57.905Z</time>
      </trkpt>
      <trkpt lat="20.24749833" lon="-98.74105167">
        <ele>2062.0</ele>
        <time>2019-10-12T16:12:58.906Z</time>
      </trkpt>
      <trkpt lat="20.24748167" lon="-98.741055">
        <ele>2062.0</ele>
        <time>2019-10-12T16:12:59.907Z</time>
      </trkpt>
      <trkpt lat="20.24746667" lon="-98.74105667">
        <ele>2062.0</ele>
        <time>2019-10-12T16:13:00.907Z</time>
      </trkpt>
      <trkpt lat="20.24745167" lon="-98.74105833">
        <ele>2062.0</ele>
        <time>2019-10-12T16:13:01.908Z</time>
      </trkpt>
      <trkpt lat="20.24743667" lon="-98.74106">
        <ele>2062.0</ele>
        <time>2019-10-12T16:13:02.909Z</time>
      </trkpt>
      <trkpt lat="20.24742333" lon="-98.74106">
        <ele>2062.0</ele>
        <time>2019-10-12T16:13:03.910Z</time>
      </trkpt>
      <trkpt lat="20.24740833" lon="-98.74106">
        <ele>2063.0</ele>
        <time>2019-10-12T16:13:04.911Z</time>
      </trkpt>
      <trkpt lat="20.24739333" lon="-98.74106167">
        <ele>2063.0</ele>
        <time>2019-10-12T16:13:05.911Z</time>
      </trkpt>
      <trkpt lat="20.24737667" lon="-98.74106333">
        <ele>2064.0</ele>
        <time>2019-10-12T16:13:06.912Z</time>
      </trkpt>
      <trkpt lat="20.24736167" lon="-98.74106333">
        <ele>2064.0</ele>
        <time>2019-10-12T16:13:07.913Z</time>
      </trkpt>
      <trkpt lat="20.24734833" lon="-98.74106333">
        <ele>2064.0</ele>
        <time>2019-10-12T16:13:08.914Z</time>
      </trkpt>
      <trkpt lat="20.24733333" lon="-98.741065">
        <ele>2064.0</ele>
        <time>2019-10-12T16:13:09.915Z</time>
      </trkpt>
      <trkpt lat="20.24732" lon="-98.74106667">
        <ele>2064.0</ele>
        <time>2019-10-12T16:13:10.917Z</time>
      </trkpt>
      <trkpt lat="20.247305" lon="-98.74106833">
        <ele>2064.0</ele>
        <time>2019-10-12T16:13:11.923Z</time>
      </trkpt>
      <trkpt lat="20.24729" lon="-98.74107167">
        <ele>2065.0</ele>
        <time>2019-10-12T16:13:12.929Z</time>
      </trkpt>
      <trkpt lat="20.24727667" lon="-98.74107667">
        <ele>2065.0</ele>
        <time>2019-10-12T16:13:13.931Z</time>
      </trkpt>
      <trkpt lat="20.24726333" lon="-98.74108167">
        <ele>2065.0</ele>
        <time>2019-10-12T16:13:14.936Z</time>
      </trkpt>
      <trkpt lat="20.24725" lon="-98.74108333">
        <ele>2065.0</ele>
        <time>2019-10-12T16:13:15.942Z</time>
      </trkpt>
      <trkpt lat="20.24723667" lon="-98.74108667">
        <ele>2065.0</ele>
        <time>2019-10-12T16:13:16.949Z</time>
      </trkpt>
      <trkpt lat="20.24722167" lon="-98.74109167">
        <ele>2065.0</ele>
        <time>2019-10-12T16:13:17.953Z</time>
      </trkpt>
      <trkpt lat="20.24720833" lon="-98.741095">
        <ele>2065.0</ele>
        <time>2019-10-12T16:13:18.834Z</time>
      </trkpt>
      <trkpt lat="20.24719667" lon="-98.7411">
        <ele>2066.0</ele>
        <time>2019-10-12T16:13:19.841Z</time>
      </trkpt>
      <trkpt lat="20.24718333" lon="-98.74110333">
        <ele>2066.0</ele>
        <time>2019-10-12T16:13:20.846Z</time>
      </trkpt>
      <trkpt lat="20.24717" lon="-98.74110667">
        <ele>2066.0</ele>
        <time>2019-10-12T16:13:21.850Z</time>
      </trkpt>
      <trkpt lat="20.24715667" lon="-98.74110833">
        <ele>2067.0</ele>
        <time>2019-10-12T16:13:22.855Z</time>
      </trkpt>
      <trkpt lat="20.24714167" lon="-98.74111167">
        <ele>2067.0</ele>
        <time>2019-10-12T16:13:23.860Z</time>
      </trkpt>
      <trkpt lat="20.24712833" lon="-98.74111667">
        <ele>2067.0</ele>
        <time>2019-10-12T16:13:24.860Z</time>
      </trkpt>
      <trkpt lat="20.24711667" lon="-98.74112">
        <ele>2066.0</ele>
        <time>2019-10-12T16:13:25.860Z</time>
      </trkpt>
      <trkpt lat="20.247105" lon="-98.74112333">
        <ele>2066.0</ele>
        <time>2019-10-12T16:13:26.860Z</time>
      </trkpt>
      <trkpt lat="20.247095" lon="-98.74112833">
        <ele>2066.0</ele>
        <time>2019-10-12T16:13:27.861Z</time>
      </trkpt>
      <trkpt lat="20.247085" lon="-98.74113167">
        <ele>2066.0</ele>
        <time>2019-10-12T16:13:28.861Z</time>
      </trkpt>
      <trkpt lat="20.247075" lon="-98.741135">
        <ele>2066.0</ele>
        <time>2019-10-12T16:13:29.862Z</time>
      </trkpt>
      <trkpt lat="20.24706333" lon="-98.74114">
        <ele>2066.0</ele>
        <time>2019-10-12T16:13:30.862Z</time>
      </trkpt>
      <trkpt lat="20.24705333" lon="-98.741145">
        <ele>2067.0</ele>
        <time>2019-10-12T16:13:31.862Z</time>
      </trkpt>
      <trkpt lat="20.24704" lon="-98.74115167">
        <ele>2067.0</ele>
        <time>2019-10-12T16:13:32.863Z</time>
      </trkpt>
      <trkpt lat="20.24702667" lon="-98.74115667">
        <ele>2067.0</ele>
        <time>2019-10-12T16:13:33.863Z</time>
      </trkpt>
      <trkpt lat="20.247015" lon="-98.74116167">
        <ele>2067.0</ele>
        <time>2019-10-12T16:13:34.864Z</time>
      </trkpt>
      <trkpt lat="20.247005" lon="-98.74116667">
        <ele>2067.0</ele>
        <time>2019-10-12T16:13:35.868Z</time>
      </trkpt>
      <trkpt lat="20.24699333" lon="-98.74117167">
        <ele>2068.0</ele>
        <time>2019-10-12T16:13:36.873Z</time>
      </trkpt>
      <trkpt lat="20.24698167" lon="-98.741175">
        <ele>2069.0</ele>
        <time>2019-10-12T16:13:37.877Z</time>
      </trkpt>
      <trkpt lat="20.24697" lon="-98.74117833">
        <ele>2069.0</ele>
        <time>2019-10-12T16:13:38.883Z</time>
      </trkpt>
      <trkpt lat="20.24695833" lon="-98.74118167">
        <ele>2069.0</ele>
        <time>2019-10-12T16:13:39.887Z</time>
      </trkpt>
      <trkpt lat="20.246945" lon="-98.741185">
        <ele>2069.0</ele>
        <time>2019-10-12T16:13:40.887Z</time>
      </trkpt>
      <trkpt lat="20.24693333" lon="-98.74118833">
        <ele>2069.0</ele>
        <time>2019-10-12T16:13:41.888Z</time>
      </trkpt>
      <trkpt lat="20.24692333" lon="-98.74119333">
        <ele>2069.0</ele>
        <time>2019-10-12T16:13:42.891Z</time>
      </trkpt>
      <trkpt lat="20.24691" lon="-98.7412">
        <ele>2069.0</ele>
        <time>2019-10-12T16:13:43.897Z</time>
      </trkpt>
      <trkpt lat="20.246895" lon="-98.741205">
        <ele>2069.0</ele>
        <time>2019-10-12T16:13:44.902Z</time>
      </trkpt>
      <trkpt lat="20.24688" lon="-98.74121167">
        <ele>2070.0</ele>
        <time>2019-10-12T16:13:45.905Z</time>
      </trkpt>
      <trkpt lat="20.24686667" lon="-98.74122">
        <ele>2070.0</ele>
        <time>2019-10-12T16:13:46.911Z</time>
      </trkpt>
      <trkpt lat="20.24685167" lon="-98.74122667">
        <ele>2070.0</ele>
        <time>2019-10-12T16:13:47.915Z</time>
      </trkpt>
      <trkpt lat="20.24683667" lon="-98.74123333">
        <ele>2070.0</ele>
        <time>2019-10-12T16:13:48.920Z</time>
      </trkpt>
      <trkpt lat="20.24682167" lon="-98.74124167">
        <ele>2071.0</ele>
        <time>2019-10-12T16:13:49.926Z</time>
      </trkpt>
      <trkpt lat="20.24680667" lon="-98.74125">
        <ele>2071.0</ele>
        <time>2019-10-12T16:13:50.932Z</time>
      </trkpt>
      <trkpt lat="20.24679167" lon="-98.74125833">
        <ele>2071.0</ele>
        <time>2019-10-12T16:13:51.932Z</time>
      </trkpt>
      <trkpt lat="20.24677833" lon="-98.74126833">
        <ele>2072.0</ele>
        <time>2019-10-12T16:13:52.933Z</time>
      </trkpt>
      <trkpt lat="20.24676333" lon="-98.74128">
        <ele>2072.0</ele>
        <time>2019-10-12T16:13:53.940Z</time>
      </trkpt>
      <trkpt lat="20.24675" lon="-98.74129">
        <ele>2073.0</ele>
        <time>2019-10-12T16:13:54.947Z</time>
      </trkpt>
      <trkpt lat="20.24673667" lon="-98.74130333">
        <ele>2073.0</ele>
        <time>2019-10-12T16:13:55.948Z</time>
      </trkpt>
      <trkpt lat="20.24672333" lon="-98.74131667">
        <ele>2073.0</ele>
        <time>2019-10-12T16:13:56.955Z</time>
      </trkpt>
      <trkpt lat="20.24671" lon="-98.74133167">
        <ele>2073.0</ele>
        <time>2019-10-12T16:13:57.833Z</time>
      </trkpt>
      <trkpt lat="20.24669833" lon="-98.74134667">
        <ele>2073.0</ele>
        <time>2019-10-12T16:13:58.839Z</time>
      </trkpt>
      <trkpt lat="20.24668833" lon="-98.74136333">
        <ele>2073.0</ele>
        <time>2019-10-12T16:13:59.845Z</time>
      </trkpt>
      <trkpt lat="20.24667833" lon="-98.74137333">
        <ele>2073.0</ele>
        <time>2019-10-12T16:14:00.848Z</time>
      </trkpt>
      <trkpt lat="20.24666667" lon="-98.741395">
        <ele>2073.0</ele>
        <time>2019-10-12T16:14:01.853Z</time>
      </trkpt>
      <trkpt lat="20.24665833" lon="-98.741415">
        <ele>2073.0</ele>
        <time>2019-10-12T16:14:02.859Z</time>
      </trkpt>
      <trkpt lat="20.24664833" lon="-98.74143333">
        <ele>2073.0</ele>
        <time>2019-10-12T16:14:03.867Z</time>
      </trkpt>
      <trkpt lat="20.24664167" lon="-98.74145">
        <ele>2073.0</ele>
        <time>2019-10-12T16:14:04.870Z</time>
      </trkpt>
      <trkpt lat="20.246635" lon="-98.741465">
        <ele>2073.0</ele>
        <time>2019-10-12T16:14:05.874Z</time>
      </trkpt>
      <trkpt lat="20.24662833" lon="-98.74148167">
        <ele>2073.0</ele>
        <time>2019-10-12T16:14:06.874Z</time>
      </trkpt>
      <trkpt lat="20.24662" lon="-98.74149833">
        <ele>2072.0</ele>
        <time>2019-10-12T16:14:07.874Z</time>
      </trkpt>
      <trkpt lat="20.24661333" lon="-98.74151667">
        <ele>2073.0</ele>
        <time>2019-10-12T16:14:08.875Z</time>
      </trkpt>
      <trkpt lat="20.24660667" lon="-98.74153333">
        <ele>2073.0</ele>
        <time>2019-10-12T16:14:09.881Z</time>
      </trkpt>
      <trkpt lat="20.2466" lon="-98.74155333">
        <ele>2073.0</ele>
        <time>2019-10-12T16:14:10.885Z</time>
      </trkpt>
      <trkpt lat="20.24659" lon="-98.74157333">
        <ele>2074.0</ele>
        <time>2019-10-12T16:14:11.890Z</time>
      </trkpt>
      <trkpt lat="20.24658167" lon="-98.74159">
        <ele>2074.0</ele>
        <time>2019-10-12T16:14:12.895Z</time>
      </trkpt>
      <trkpt lat="20.246575" lon="-98.74160833">
        <ele>2074.0</ele>
        <time>2019-10-12T16:14:13.897Z</time>
      </trkpt>
      <trkpt lat="20.24656833" lon="-98.741625">
        <ele>2074.0</ele>
        <time>2019-10-12T16:14:14.900Z</time>
      </trkpt>
      <trkpt lat="20.24655833" lon="-98.74164167">
        <ele>2074.0</ele>
        <time>2019-10-12T16:14:15.904Z</time>
      </trkpt>
      <trkpt lat="20.24654833" lon="-98.74166">
        <ele>2074.0</ele>
        <time>2019-10-12T16:14:16.906Z</time>
      </trkpt>
      <trkpt lat="20.24654167" lon="-98.741675">
        <ele>2074.0</ele>
        <time>2019-10-12T16:14:17.911Z</time>
      </trkpt>
      <trkpt lat="20.24653333" lon="-98.74169167">
        <ele>2075.0</ele>
        <time>2019-10-12T16:14:18.916Z</time>
      </trkpt>
      <trkpt lat="20.24652167" lon="-98.74170833">
        <ele>2075.0</ele>
        <time>2019-10-12T16:14:19.918Z</time>
      </trkpt>
      <trkpt lat="20.24651" lon="-98.74172333">
        <ele>2075.0</ele>
        <time>2019-10-12T16:14:20.924Z</time>
      </trkpt>
      <trkpt lat="20.24649833" lon="-98.74173833">
        <ele>2075.0</ele>
        <time>2019-10-12T16:14:21.930Z</time>
      </trkpt>
      <trkpt lat="20.24648833" lon="-98.74175167">
        <ele>2075.0</ele>
        <time>2019-10-12T16:14:22.934Z</time>
      </trkpt>
      <trkpt lat="20.24647833" lon="-98.741765">
        <ele>2075.0</ele>
        <time>2019-10-12T16:14:23.940Z</time>
      </trkpt>
      <trkpt lat="20.24646833" lon="-98.74178">
        <ele>2075.0</ele>
        <time>2019-10-12T16:14:24.942Z</time>
      </trkpt>
      <trkpt lat="20.24645833" lon="-98.741795">
        <ele>2075.0</ele>
        <time>2019-10-12T16:14:25.942Z</time>
      </trkpt>
      <trkpt lat="20.24645" lon="-98.74181">
        <ele>2075.0</ele>
        <time>2019-10-12T16:14:26.943Z</time>
      </trkpt>
      <trkpt lat="20.24644333" lon="-98.74182667">
        <ele>2075.0</ele>
        <time>2019-10-12T16:14:27.943Z</time>
      </trkpt>
      <trkpt lat="20.246435" lon="-98.74184167">
        <ele>2075.0</ele>
        <time>2019-10-12T16:14:28.943Z</time>
      </trkpt>
      <trkpt lat="20.246425" lon="-98.741855">
        <ele>2075.0</ele>
        <time>2019-10-12T16:14:29.944Z</time>
      </trkpt>
      <trkpt lat="20.24641833" lon="-98.74187333">
        <ele>2075.0</ele>
        <time>2019-10-12T16:14:30.944Z</time>
      </trkpt>
      <trkpt lat="20.24641167" lon="-98.74188833">
        <ele>2075.0</ele>
        <time>2019-10-12T16:14:31.944Z</time>
      </trkpt>
      <trkpt lat="20.24640333" lon="-98.74190667">
        <ele>2075.0</ele>
        <time>2019-10-12T16:14:32.945Z</time>
      </trkpt>
      <trkpt lat="20.24639833" lon="-98.74192333">
        <ele>2075.0</ele>
        <time>2019-10-12T16:14:33.945Z</time>
      </trkpt>
      <trkpt lat="20.24639167" lon="-98.74194333">
        <ele>2076.0</ele>
        <time>2019-10-12T16:14:34.945Z</time>
      </trkpt>
      <trkpt lat="20.24638333" lon="-98.74196">
        <ele>2075.0</ele>
        <time>2019-10-12T16:14:35.946Z</time>
      </trkpt>
      <trkpt lat="20.246375" lon="-98.741975">
        <ele>2076.0</ele>
        <time>2019-10-12T16:14:36.946Z</time>
      </trkpt>
      <trkpt lat="20.24636667" lon="-98.74198833">
        <ele>2076.0</ele>
        <time>2019-10-12T16:14:37.946Z</time>
      </trkpt>
      <trkpt lat="20.24635833" lon="-98.74200333">
        <ele>2076.0</ele>
        <time>2019-10-12T16:14:38.947Z</time>
      </trkpt>
      <trkpt lat="20.24635167" lon="-98.74202">
        <ele>2076.0</ele>
        <time>2019-10-12T16:14:39.947Z</time>
      </trkpt>
      <trkpt lat="20.24634167" lon="-98.74203667">
        <ele>2077.0</ele>
        <time>2019-10-12T16:14:40.947Z</time>
      </trkpt>
      <trkpt lat="20.24633333" lon="-98.74205333">
        <ele>2078.0</ele>
        <time>2019-10-12T16:14:41.948Z</time>
      </trkpt>
      <trkpt lat="20.24632667" lon="-98.74207333">
        <ele>2078.0</ele>
        <time>2019-10-12T16:14:42.948Z</time>
      </trkpt>
      <trkpt lat="20.24631667" lon="-98.74209167">
        <ele>2079.0</ele>
        <time>2019-10-12T16:14:43.950Z</time>
      </trkpt>
      <trkpt lat="20.24631167" lon="-98.74211">
        <ele>2080.0</ele>
        <time>2019-10-12T16:14:44.955Z</time>
      </trkpt>
      <trkpt lat="20.24631" lon="-98.74212667">
        <ele>2079.0</ele>
        <time>2019-10-12T16:14:45.836Z</time>
      </trkpt>
      <trkpt lat="20.24631" lon="-98.742145">
        <ele>2079.0</ele>
        <time>2019-10-12T16:14:46.842Z</time>
      </trkpt>
      <trkpt lat="20.24631" lon="-98.74216333">
        <ele>2079.0</ele>
        <time>2019-10-12T16:14:47.844Z</time>
      </trkpt>
      <trkpt lat="20.24631333" lon="-98.742185">
        <ele>2080.0</ele>
        <time>2019-10-12T16:14:48.845Z</time>
      </trkpt>
      <trkpt lat="20.246315" lon="-98.74220667">
        <ele>2080.0</ele>
        <time>2019-10-12T16:14:49.848Z</time>
      </trkpt>
      <trkpt lat="20.24631333" lon="-98.74222333">
        <ele>2080.0</ele>
        <time>2019-10-12T16:14:50.850Z</time>
      </trkpt>
      <trkpt lat="20.24631167" lon="-98.742245">
        <ele>2080.0</ele>
        <time>2019-10-12T16:14:51.852Z</time>
      </trkpt>
      <trkpt lat="20.24630833" lon="-98.74226167">
        <ele>2080.0</ele>
        <time>2019-10-12T16:14:52.854Z</time>
      </trkpt>
      <trkpt lat="20.24630333" lon="-98.74227833">
        <ele>2081.0</ele>
        <time>2019-10-12T16:14:53.856Z</time>
      </trkpt>
      <trkpt lat="20.24630167" lon="-98.74229667">
        <ele>2082.0</ele>
        <time>2019-10-12T16:14:54.860Z</time>
      </trkpt>
      <trkpt lat="20.24630167" lon="-98.74231667">
        <ele>2082.0</ele>
        <time>2019-10-12T16:14:55.865Z</time>
      </trkpt>
      <trkpt lat="20.24630333" lon="-98.742335">
        <ele>2082.0</ele>
        <time>2019-10-12T16:14:56.871Z</time>
      </trkpt>
      <trkpt lat="20.24630667" lon="-98.74235333">
        <ele>2082.0</ele>
        <time>2019-10-12T16:14:57.873Z</time>
      </trkpt>
      <trkpt lat="20.24631333" lon="-98.742375">
        <ele>2082.0</ele>
        <time>2019-10-12T16:14:58.875Z</time>
      </trkpt>
      <trkpt lat="20.24631667" lon="-98.74239667">
        <ele>2083.0</ele>
        <time>2019-10-12T16:14:59.880Z</time>
      </trkpt>
      <trkpt lat="20.24632333" lon="-98.74241833">
        <ele>2083.0</ele>
        <time>2019-10-12T16:15:00.883Z</time>
      </trkpt>
      <trkpt lat="20.24632833" lon="-98.742435">
        <ele>2083.0</ele>
        <time>2019-10-12T16:15:01.889Z</time>
      </trkpt>
      <trkpt lat="20.24633333" lon="-98.74245167">
        <ele>2083.0</ele>
        <time>2019-10-12T16:15:02.892Z</time>
      </trkpt>
      <trkpt lat="20.24633833" lon="-98.74246667">
        <ele>2083.0</ele>
        <time>2019-10-12T16:15:03.892Z</time>
      </trkpt>
      <trkpt lat="20.24634167" lon="-98.74247833">
        <ele>2083.0</ele>
        <time>2019-10-12T16:15:04.892Z</time>
      </trkpt>
      <trkpt lat="20.24634333" lon="-98.74249333">
        <ele>2082.0</ele>
        <time>2019-10-12T16:15:05.892Z</time>
      </trkpt>
      <trkpt lat="20.246345" lon="-98.74251167">
        <ele>2082.0</ele>
        <time>2019-10-12T16:15:06.893Z</time>
      </trkpt>
      <trkpt lat="20.24634167" lon="-98.74252667">
        <ele>2082.0</ele>
        <time>2019-10-12T16:15:07.893Z</time>
      </trkpt>
      <trkpt lat="20.24634" lon="-98.74254667">
        <ele>2083.0</ele>
        <time>2019-10-12T16:15:08.893Z</time>
      </trkpt>
      <trkpt lat="20.24634" lon="-98.74256667">
        <ele>2083.0</ele>
        <time>2019-10-12T16:15:09.893Z</time>
      </trkpt>
      <trkpt lat="20.24633833" lon="-98.74258333">
        <ele>2084.0</ele>
        <time>2019-10-12T16:15:10.893Z</time>
      </trkpt>
      <trkpt lat="20.24634167" lon="-98.7426">
        <ele>2084.0</ele>
        <time>2019-10-12T16:15:11.893Z</time>
      </trkpt>
      <trkpt lat="20.24634333" lon="-98.742615">
        <ele>2085.0</ele>
        <time>2019-10-12T16:15:12.894Z</time>
      </trkpt>
      <trkpt lat="20.24634" lon="-98.74262833">
        <ele>2085.0</ele>
        <time>2019-10-12T16:15:13.894Z</time>
      </trkpt>
      <trkpt lat="20.24633833" lon="-98.74264333">
        <ele>2086.0</ele>
        <time>2019-10-12T16:15:14.896Z</time>
      </trkpt>
      <trkpt lat="20.24633833" lon="-98.74265833">
        <ele>2087.0</ele>
        <time>2019-10-12T16:15:15.902Z</time>
      </trkpt>
      <trkpt lat="20.24633833" lon="-98.74267167">
        <ele>2087.0</ele>
        <time>2019-10-12T16:15:16.907Z</time>
      </trkpt>
      <trkpt lat="20.24633667" lon="-98.742685">
        <ele>2087.0</ele>
        <time>2019-10-12T16:15:17.912Z</time>
      </trkpt>
      <trkpt lat="20.24633333" lon="-98.74269667">
        <ele>2087.0</ele>
        <time>2019-10-12T16:15:18.918Z</time>
      </trkpt>
      <trkpt lat="20.24632667" lon="-98.74271167">
        <ele>2087.0</ele>
        <time>2019-10-12T16:15:19.920Z</time>
      </trkpt>
      <trkpt lat="20.24631833" lon="-98.74272667">
        <ele>2088.0</ele>
        <time>2019-10-12T16:15:20.927Z</time>
      </trkpt>
      <trkpt lat="20.24630667" lon="-98.74273833">
        <ele>2088.0</ele>
        <time>2019-10-12T16:15:21.933Z</time>
      </trkpt>
      <trkpt lat="20.24629833" lon="-98.742745">
        <ele>2088.0</ele>
        <time>2019-10-12T16:15:22.938Z</time>
      </trkpt>
      <trkpt lat="20.24628167" lon="-98.74275333">
        <ele>2088.0</ele>
        <time>2019-10-12T16:15:23.944Z</time>
      </trkpt>
      <trkpt lat="20.24627" lon="-98.74275833">
        <ele>2089.0</ele>
        <time>2019-10-12T16:15:24.950Z</time>
      </trkpt>
      <trkpt lat="20.24625833" lon="-98.74276667">
        <ele>2089.0</ele>
        <time>2019-10-12T16:15:25.831Z</time>
      </trkpt>
      <trkpt lat="20.24624833" lon="-98.74277667">
        <ele>2089.0</ele>
        <time>2019-10-12T16:15:26.837Z</time>
      </trkpt>
      <trkpt lat="20.24624" lon="-98.74278333">
        <ele>2089.0</ele>
        <time>2019-10-12T16:15:27.837Z</time>
      </trkpt>
      <trkpt lat="20.246225" lon="-98.74279167">
        <ele>2090.0</ele>
        <time>2019-10-12T16:15:28.838Z</time>
      </trkpt>
      <trkpt lat="20.246215" lon="-98.7428">
        <ele>2090.0</ele>
        <time>2019-10-12T16:15:29.840Z</time>
      </trkpt>
      <trkpt lat="20.246205" lon="-98.74280667">
        <ele>2090.0</ele>
        <time>2019-10-12T16:15:30.846Z</time>
      </trkpt>
      <trkpt lat="20.246195" lon="-98.74281333">
        <ele>2090.0</ele>
        <time>2019-10-12T16:15:31.851Z</time>
      </trkpt>
      <trkpt lat="20.24618167" lon="-98.74281667">
        <ele>2090.0</ele>
        <time>2019-10-12T16:15:32.857Z</time>
      </trkpt>
      <trkpt lat="20.24617167" lon="-98.74282167">
        <ele>2090.0</ele>
        <time>2019-10-12T16:15:33.860Z</time>
      </trkpt>
      <trkpt lat="20.24616" lon="-98.74283">
        <ele>2090.0</ele>
        <time>2019-10-12T16:15:34.861Z</time>
      </trkpt>
      <trkpt lat="20.24614833" lon="-98.742835">
        <ele>2090.0</ele>
        <time>2019-10-12T16:15:35.866Z</time>
      </trkpt>
      <trkpt lat="20.246135" lon="-98.74284">
        <ele>2090.0</ele>
        <time>2019-10-12T16:15:36.873Z</time>
      </trkpt>
      <trkpt lat="20.24612" lon="-98.74284333">
        <ele>2091.0</ele>
        <time>2019-10-12T16:15:37.878Z</time>
      </trkpt>
      <trkpt lat="20.246105" lon="-98.74285333">
        <ele>2091.0</ele>
        <time>2019-10-12T16:15:38.881Z</time>
      </trkpt>
      <trkpt lat="20.24609167" lon="-98.74286">
        <ele>2091.0</ele>
        <time>2019-10-12T16:15:39.887Z</time>
      </trkpt>
      <trkpt lat="20.24607833" lon="-98.74287">
        <ele>2092.0</ele>
        <time>2019-10-12T16:15:40.893Z</time>
      </trkpt>
      <trkpt lat="20.246065" lon="-98.74287833">
        <ele>2092.0</ele>
        <time>2019-10-12T16:15:41.894Z</time>
      </trkpt>
      <trkpt lat="20.24605667" lon="-98.74289">
        <ele>2092.0</ele>
        <time>2019-10-12T16:15:42.901Z</time>
      </trkpt>
      <trkpt lat="20.246045" lon="-98.74289833">
        <ele>2092.0</ele>
        <time>2019-10-12T16:15:43.905Z</time>
      </trkpt>
      <trkpt lat="20.24603167" lon="-98.74291">
        <ele>2093.0</ele>
        <time>2019-10-12T16:15:44.912Z</time>
      </trkpt>
      <trkpt lat="20.24602" lon="-98.74292">
        <ele>2093.0</ele>
        <time>2019-10-12T16:15:45.916Z</time>
      </trkpt>
      <trkpt lat="20.24600833" lon="-98.74293">
        <ele>2094.0</ele>
        <time>2019-10-12T16:15:46.919Z</time>
      </trkpt>
      <trkpt lat="20.245995" lon="-98.742945">
        <ele>2094.0</ele>
        <time>2019-10-12T16:15:47.925Z</time>
      </trkpt>
      <trkpt lat="20.24598333" lon="-98.74296">
        <ele>2095.0</ele>
        <time>2019-10-12T16:15:48.931Z</time>
      </trkpt>
      <trkpt lat="20.24597667" lon="-98.74297667">
        <ele>2096.0</ele>
        <time>2019-10-12T16:15:49.937Z</time>
      </trkpt>
      <trkpt lat="20.24597" lon="-98.74299333">
        <ele>2096.0</ele>
        <time>2019-10-12T16:15:50.944Z</time>
      </trkpt>
      <trkpt lat="20.245965" lon="-98.74300833">
        <ele>2096.0</ele>
        <time>2019-10-12T16:15:51.949Z</time>
      </trkpt>
      <trkpt lat="20.24595833" lon="-98.74302333">
        <ele>2096.0</ele>
        <time>2019-10-12T16:15:52.831Z</time>
      </trkpt>
      <trkpt lat="20.24595167" lon="-98.74304333">
        <ele>2097.0</ele>
        <time>2019-10-12T16:15:53.837Z</time>
      </trkpt>
      <trkpt lat="20.24594667" lon="-98.74305833">
        <ele>2097.0</ele>
        <time>2019-10-12T16:15:54.842Z</time>
      </trkpt>
      <trkpt lat="20.245945" lon="-98.74307333">
        <ele>2098.0</ele>
        <time>2019-10-12T16:15:55.845Z</time>
      </trkpt>
      <trkpt lat="20.245945" lon="-98.74308667">
        <ele>2098.0</ele>
        <time>2019-10-12T16:15:56.847Z</time>
      </trkpt>
      <trkpt lat="20.24594333" lon="-98.74310333">
        <ele>2098.0</ele>
        <time>2019-10-12T16:15:57.847Z</time>
      </trkpt>
      <trkpt lat="20.24594" lon="-98.74312333">
        <ele>2099.0</ele>
        <time>2019-10-12T16:15:58.847Z</time>
      </trkpt>
      <trkpt lat="20.24593833" lon="-98.74314167">
        <ele>2099.0</ele>
        <time>2019-10-12T16:15:59.847Z</time>
      </trkpt>
      <trkpt lat="20.24593667" lon="-98.74315667">
        <ele>2099.0</ele>
        <time>2019-10-12T16:16:00.848Z</time>
      </trkpt>
      <trkpt lat="20.24593667" lon="-98.74317">
        <ele>2100.0</ele>
        <time>2019-10-12T16:16:01.852Z</time>
      </trkpt>
      <trkpt lat="20.245935" lon="-98.74318167">
        <ele>2100.0</ele>
        <time>2019-10-12T16:16:02.857Z</time>
      </trkpt>
      <trkpt lat="20.245935" lon="-98.7432">
        <ele>2100.0</ele>
        <time>2019-10-12T16:16:03.863Z</time>
      </trkpt>
      <trkpt lat="20.245935" lon="-98.74321667">
        <ele>2100.0</ele>
        <time>2019-10-12T16:16:04.866Z</time>
      </trkpt>
      <trkpt lat="20.245935" lon="-98.74322667">
        <ele>2101.0</ele>
        <time>2019-10-12T16:16:05.871Z</time>
      </trkpt>
      <trkpt lat="20.245935" lon="-98.74324">
        <ele>2101.0</ele>
        <time>2019-10-12T16:16:06.877Z</time>
      </trkpt>
      <trkpt lat="20.245935" lon="-98.743255">
        <ele>2102.0</ele>
        <time>2019-10-12T16:16:07.880Z</time>
      </trkpt>
      <trkpt lat="20.24594" lon="-98.74326667">
        <ele>2103.0</ele>
        <time>2019-10-12T16:16:08.882Z</time>
      </trkpt>
      <trkpt lat="20.24594167" lon="-98.74327833">
        <ele>2103.0</ele>
        <time>2019-10-12T16:16:09.888Z</time>
      </trkpt>
      <trkpt lat="20.24594167" lon="-98.74328833">
        <ele>2104.0</ele>
        <time>2019-10-12T16:16:10.893Z</time>
      </trkpt>
      <trkpt lat="20.24594667" lon="-98.74330167">
        <ele>2104.0</ele>
        <time>2019-10-12T16:16:11.898Z</time>
      </trkpt>
      <trkpt lat="20.24595167" lon="-98.743315">
        <ele>2105.0</ele>
        <time>2019-10-12T16:16:12.905Z</time>
      </trkpt>
      <trkpt lat="20.24595333" lon="-98.74332667">
        <ele>2106.0</ele>
        <time>2019-10-12T16:16:13.911Z</time>
      </trkpt>
      <trkpt lat="20.24595667" lon="-98.74334167">
        <ele>2106.0</ele>
        <time>2019-10-12T16:16:14.913Z</time>
      </trkpt>
      <trkpt lat="20.24596" lon="-98.74335167">
        <ele>2106.0</ele>
        <time>2019-10-12T16:16:15.913Z</time>
      </trkpt>
      <trkpt lat="20.24596167" lon="-98.74336833">
        <ele>2106.0</ele>
        <time>2019-10-12T16:16:16.913Z</time>
      </trkpt>
      <trkpt lat="20.24596167" lon="-98.743385">
        <ele>2107.0</ele>
        <time>2019-10-12T16:16:17.913Z</time>
      </trkpt>
      <trkpt lat="20.24597" lon="-98.74339833">
        <ele>2107.0</ele>
        <time>2019-10-12T16:16:18.914Z</time>
      </trkpt>
      <trkpt lat="20.24597667" lon="-98.74341333">
        <ele>2108.0</ele>
        <time>2019-10-12T16:16:19.914Z</time>
      </trkpt>
      <trkpt lat="20.24598167" lon="-98.74342667">
        <ele>2109.0</ele>
        <time>2019-10-12T16:16:20.914Z</time>
      </trkpt>
      <trkpt lat="20.24598833" lon="-98.74344">
        <ele>2109.0</ele>
        <time>2019-10-12T16:16:21.914Z</time>
      </trkpt>
      <trkpt lat="20.24599333" lon="-98.74345">
        <ele>2109.0</ele>
        <time>2019-10-12T16:16:22.915Z</time>
      </trkpt>
      <trkpt lat="20.24599667" lon="-98.74346333">
        <ele>2109.0</ele>
        <time>2019-10-12T16:16:23.915Z</time>
      </trkpt>
      <trkpt lat="20.246" lon="-98.743475">
        <ele>2109.0</ele>
        <time>2019-10-12T16:16:24.915Z</time>
      </trkpt>
      <trkpt lat="20.24600167" lon="-98.743485">
        <ele>2109.0</ele>
        <time>2019-10-12T16:16:25.915Z</time>
      </trkpt>
      <trkpt lat="20.246" lon="-98.74349833">
        <ele>2109.0</ele>
        <time>2019-10-12T16:16:26.916Z</time>
      </trkpt>
      <trkpt lat="20.245995" lon="-98.74351167">
        <ele>2109.0</ele>
        <time>2019-10-12T16:16:27.916Z</time>
      </trkpt>
      <trkpt lat="20.24598667" lon="-98.74352167">
        <ele>2109.0</ele>
        <time>2019-10-12T16:16:28.916Z</time>
      </trkpt>
      <trkpt lat="20.245975" lon="-98.74352667">
        <ele>2108.0</ele>
        <time>2019-10-12T16:16:29.916Z</time>
      </trkpt>
      <trkpt lat="20.245965" lon="-98.74353">
        <ele>2108.0</ele>
        <time>2019-10-12T16:16:30.917Z</time>
      </trkpt>
      <trkpt lat="20.24594833" lon="-98.74353167">
        <ele>2107.0</ele>
        <time>2019-10-12T16:16:31.919Z</time>
      </trkpt>
      <trkpt lat="20.24593167" lon="-98.74353167">
        <ele>2107.0</ele>
        <time>2019-10-12T16:16:32.919Z</time>
      </trkpt>
      <trkpt lat="20.24591667" lon="-98.74352667">
        <ele>2107.0</ele>
        <time>2019-10-12T16:16:33.919Z</time>
      </trkpt>
      <trkpt lat="20.24590167" lon="-98.74352">
        <ele>2106.0</ele>
        <time>2019-10-12T16:16:34.919Z</time>
      </trkpt>
      <trkpt lat="20.24588667" lon="-98.74351">
        <ele>2106.0</ele>
        <time>2019-10-12T16:16:35.925Z</time>
      </trkpt>
      <trkpt lat="20.24587667" lon="-98.74350167">
        <ele>2105.0</ele>
        <time>2019-10-12T16:16:36.933Z</time>
      </trkpt>
      <trkpt lat="20.24586" lon="-98.743485">
        <ele>2105.0</ele>
        <time>2019-10-12T16:16:37.939Z</time>
      </trkpt>
      <trkpt lat="20.24584667" lon="-98.74347">
        <ele>2104.0</ele>
        <time>2019-10-12T16:16:38.942Z</time>
      </trkpt>
      <trkpt lat="20.24583167" lon="-98.74345667">
        <ele>2104.0</ele>
        <time>2019-10-12T16:16:39.947Z</time>
      </trkpt>
      <trkpt lat="20.24581833" lon="-98.74344333">
        <ele>2104.0</ele>
        <time>2019-10-12T16:16:40.955Z</time>
      </trkpt>
      <trkpt lat="20.2458" lon="-98.74342333">
        <ele>2103.0</ele>
        <time>2019-10-12T16:16:41.834Z</time>
      </trkpt>
      <trkpt lat="20.24578333" lon="-98.74340667">
        <ele>2103.0</ele>
        <time>2019-10-12T16:16:42.837Z</time>
      </trkpt>
      <trkpt lat="20.24576333" lon="-98.74339667">
        <ele>2103.0</ele>
        <time>2019-10-12T16:16:43.840Z</time>
      </trkpt>
      <trkpt lat="20.24574667" lon="-98.74339333">
        <ele>2103.0</ele>
        <time>2019-10-12T16:16:44.841Z</time>
      </trkpt>
      <trkpt lat="20.245725" lon="-98.74338833">
        <ele>2102.0</ele>
        <time>2019-10-12T16:16:45.844Z</time>
      </trkpt>
      <trkpt lat="20.24570667" lon="-98.74339">
        <ele>2101.0</ele>
        <time>2019-10-12T16:16:46.844Z</time>
      </trkpt>
      <trkpt lat="20.24568333" lon="-98.74339333">
        <ele>2101.0</ele>
        <time>2019-10-12T16:16:47.846Z</time>
      </trkpt>
      <trkpt lat="20.24566667" lon="-98.74339667">
        <ele>2100.0</ele>
        <time>2019-10-12T16:16:48.848Z</time>
      </trkpt>
      <trkpt lat="20.24565167" lon="-98.7434">
        <ele>2099.0</ele>
        <time>2019-10-12T16:16:49.852Z</time>
      </trkpt>
      <trkpt lat="20.245635" lon="-98.74341">
        <ele>2098.0</ele>
        <time>2019-10-12T16:16:50.857Z</time>
      </trkpt>
      <trkpt lat="20.24561" lon="-98.74342167">
        <ele>2098.0</ele>
        <time>2019-10-12T16:16:51.858Z</time>
      </trkpt>
      <trkpt lat="20.24559" lon="-98.74343333">
        <ele>2098.0</ele>
        <time>2019-10-12T16:16:52.858Z</time>
      </trkpt>
      <trkpt lat="20.24557333" lon="-98.74344833">
        <ele>2098.0</ele>
        <time>2019-10-12T16:16:53.859Z</time>
      </trkpt>
      <trkpt lat="20.24555667" lon="-98.74346833">
        <ele>2098.0</ele>
        <time>2019-10-12T16:16:54.862Z</time>
      </trkpt>
      <trkpt lat="20.24554" lon="-98.74348667">
        <ele>2098.0</ele>
        <time>2019-10-12T16:16:55.869Z</time>
      </trkpt>
      <trkpt lat="20.24552833" lon="-98.74350167">
        <ele>2097.0</ele>
        <time>2019-10-12T16:16:56.875Z</time>
      </trkpt>
      <trkpt lat="20.24551" lon="-98.743525">
        <ele>2097.0</ele>
        <time>2019-10-12T16:16:57.878Z</time>
      </trkpt>
      <trkpt lat="20.24549833" lon="-98.74354667">
        <ele>2096.0</ele>
        <time>2019-10-12T16:16:58.882Z</time>
      </trkpt>
      <trkpt lat="20.24548833" lon="-98.74356333">
        <ele>2096.0</ele>
        <time>2019-10-12T16:16:59.884Z</time>
      </trkpt>
      <trkpt lat="20.245475" lon="-98.74358333">
        <ele>2095.0</ele>
        <time>2019-10-12T16:17:00.887Z</time>
      </trkpt>
      <trkpt lat="20.24546167" lon="-98.74360833">
        <ele>2094.0</ele>
        <time>2019-10-12T16:17:01.893Z</time>
      </trkpt>
      <trkpt lat="20.24544833" lon="-98.74362833">
        <ele>2094.0</ele>
        <time>2019-10-12T16:17:02.898Z</time>
      </trkpt>
      <trkpt lat="20.24543667" lon="-98.74365">
        <ele>2094.0</ele>
        <time>2019-10-12T16:17:03.906Z</time>
      </trkpt>
      <trkpt lat="20.24542333" lon="-98.74367167">
        <ele>2093.0</ele>
        <time>2019-10-12T16:17:04.908Z</time>
      </trkpt>
      <trkpt lat="20.245415" lon="-98.74369167">
        <ele>2093.0</ele>
        <time>2019-10-12T16:17:05.912Z</time>
      </trkpt>
      <trkpt lat="20.24539833" lon="-98.74372833">
        <ele>2091.0</ele>
        <time>2019-10-12T16:17:06.920Z</time>
      </trkpt>
      <trkpt lat="20.24538333" lon="-98.743755">
        <ele>2090.0</ele>
        <time>2019-10-12T16:17:07.925Z</time>
      </trkpt>
      <trkpt lat="20.24536667" lon="-98.74377167">
        <ele>2090.0</ele>
        <time>2019-10-12T16:17:08.925Z</time>
      </trkpt>
      <trkpt lat="20.24535" lon="-98.74378">
        <ele>2090.0</ele>
        <time>2019-10-12T16:17:09.925Z</time>
      </trkpt>
      <trkpt lat="20.24532667" lon="-98.74378667">
        <ele>2090.0</ele>
        <time>2019-10-12T16:17:10.925Z</time>
      </trkpt>
      <trkpt lat="20.2453" lon="-98.743795">
        <ele>2089.0</ele>
        <time>2019-10-12T16:17:11.926Z</time>
      </trkpt>
      <trkpt lat="20.24527833" lon="-98.74379667">
        <ele>2090.0</ele>
        <time>2019-10-12T16:17:12.926Z</time>
      </trkpt>
      <trkpt lat="20.24525667" lon="-98.74379167">
        <ele>2090.0</ele>
        <time>2019-10-12T16:17:13.926Z</time>
      </trkpt>
      <trkpt lat="20.24523833" lon="-98.74378333">
        <ele>2090.0</ele>
        <time>2019-10-12T16:17:14.926Z</time>
      </trkpt>
      <trkpt lat="20.24522167" lon="-98.74376667">
        <ele>2091.0</ele>
        <time>2019-10-12T16:17:15.926Z</time>
      </trkpt>
      <trkpt lat="20.24521" lon="-98.74374667">
        <ele>2092.0</ele>
        <time>2019-10-12T16:17:16.927Z</time>
      </trkpt>
      <trkpt lat="20.2452" lon="-98.74372167">
        <ele>2092.0</ele>
        <time>2019-10-12T16:17:17.927Z</time>
      </trkpt>
      <trkpt lat="20.245195" lon="-98.743695">
        <ele>2094.0</ele>
        <time>2019-10-12T16:17:18.927Z</time>
      </trkpt>
      <trkpt lat="20.24519167" lon="-98.74366833">
        <ele>2094.0</ele>
        <time>2019-10-12T16:17:19.927Z</time>
      </trkpt>
      <trkpt lat="20.24519167" lon="-98.74363833">
        <ele>2094.0</ele>
        <time>2019-10-12T16:17:20.928Z</time>
      </trkpt>
      <trkpt lat="20.24518833" lon="-98.74361667">
        <ele>2094.0</ele>
        <time>2019-10-12T16:17:21.928Z</time>
      </trkpt>
      <trkpt lat="20.245185" lon="-98.74359167">
        <ele>2095.0</ele>
        <time>2019-10-12T16:17:22.928Z</time>
      </trkpt>
      <trkpt lat="20.24518" lon="-98.74356667">
        <ele>2095.0</ele>
        <time>2019-10-12T16:17:23.928Z</time>
      </trkpt>
      <trkpt lat="20.245175" lon="-98.74354833">
        <ele>2096.0</ele>
        <time>2019-10-12T16:17:24.928Z</time>
      </trkpt>
      <trkpt lat="20.24516667" lon="-98.74351833">
        <ele>2097.0</ele>
        <time>2019-10-12T16:17:25.929Z</time>
      </trkpt>
      <trkpt lat="20.24516333" lon="-98.74349833">
        <ele>2097.0</ele>
        <time>2019-10-12T16:17:26.929Z</time>
      </trkpt>
      <trkpt lat="20.24515333" lon="-98.74348167">
        <ele>2097.0</ele>
        <time>2019-10-12T16:17:27.929Z</time>
      </trkpt>
      <trkpt lat="20.24514167" lon="-98.74347">
        <ele>2097.0</ele>
        <time>2019-10-12T16:17:28.929Z</time>
      </trkpt>
      <trkpt lat="20.24513" lon="-98.743455">
        <ele>2098.0</ele>
        <time>2019-10-12T16:17:29.929Z</time>
      </trkpt>
      <trkpt lat="20.24511333" lon="-98.74343667">
        <ele>2098.0</ele>
        <time>2019-10-12T16:17:30.930Z</time>
      </trkpt>
      <trkpt lat="20.24509167" lon="-98.74342333">
        <ele>2099.0</ele>
        <time>2019-10-12T16:17:31.930Z</time>
      </trkpt>
      <trkpt lat="20.24507333" lon="-98.743415">
        <ele>2099.0</ele>
        <time>2019-10-12T16:17:32.930Z</time>
      </trkpt>
      <trkpt lat="20.245055" lon="-98.74340333">
        <ele>2098.0</ele>
        <time>2019-10-12T16:17:33.930Z</time>
      </trkpt>
      <trkpt lat="20.24504" lon="-98.74339167">
        <ele>2098.0</ele>
        <time>2019-10-12T16:17:34.930Z</time>
      </trkpt>
      <trkpt lat="20.245025" lon="-98.74338">
        <ele>2098.0</ele>
        <time>2019-10-12T16:17:35.935Z</time>
      </trkpt>
      <trkpt lat="20.24501167" lon="-98.74336667">
        <ele>2098.0</ele>
        <time>2019-10-12T16:17:36.942Z</time>
      </trkpt>
      <trkpt lat="20.24499667" lon="-98.74335167">
        <ele>2099.0</ele>
        <time>2019-10-12T16:17:37.946Z</time>
      </trkpt>
      <trkpt lat="20.24498333" lon="-98.74333667">
        <ele>2099.0</ele>
        <time>2019-10-12T16:17:38.950Z</time>
      </trkpt>
      <trkpt lat="20.24497" lon="-98.74332">
        <ele>2099.0</ele>
        <time>2019-10-12T16:17:39.955Z</time>
      </trkpt>
      <trkpt lat="20.244955" lon="-98.74330333">
        <ele>2099.0</ele>
        <time>2019-10-12T16:17:40.834Z</time>
      </trkpt>
      <trkpt lat="20.24494" lon="-98.74328667">
        <ele>2100.0</ele>
        <time>2019-10-12T16:17:41.836Z</time>
      </trkpt>
      <trkpt lat="20.244925" lon="-98.743265">
        <ele>2101.0</ele>
        <time>2019-10-12T16:17:42.841Z</time>
      </trkpt>
      <trkpt lat="20.24490833" lon="-98.74324667">
        <ele>2101.0</ele>
        <time>2019-10-12T16:17:43.846Z</time>
      </trkpt>
      <trkpt lat="20.24489" lon="-98.74322667">
        <ele>2101.0</ele>
        <time>2019-10-12T16:17:44.852Z</time>
      </trkpt>
      <trkpt lat="20.24487333" lon="-98.74320667">
        <ele>2101.0</ele>
        <time>2019-10-12T16:17:45.856Z</time>
      </trkpt>
      <trkpt lat="20.24485667" lon="-98.743185">
        <ele>2101.0</ele>
        <time>2019-10-12T16:17:46.858Z</time>
      </trkpt>
      <trkpt lat="20.24483667" lon="-98.743165">
        <ele>2100.0</ele>
        <time>2019-10-12T16:17:47.863Z</time>
      </trkpt>
      <trkpt lat="20.24481667" lon="-98.74314667">
        <ele>2100.0</ele>
        <time>2019-10-12T16:17:48.869Z</time>
      </trkpt>
      <trkpt lat="20.24479667" lon="-98.74312833">
        <ele>2100.0</ele>
        <time>2019-10-12T16:17:49.871Z</time>
      </trkpt>
      <trkpt lat="20.24477667" lon="-98.74310667">
        <ele>2099.0</ele>
        <time>2019-10-12T16:17:50.871Z</time>
      </trkpt>
      <trkpt lat="20.24475167" lon="-98.74308833">
        <ele>2099.0</ele>
        <time>2019-10-12T16:17:51.871Z</time>
      </trkpt>
      <trkpt lat="20.24472833" lon="-98.74306833">
        <ele>2099.0</ele>
        <time>2019-10-12T16:17:52.872Z</time>
      </trkpt>
      <trkpt lat="20.24470667" lon="-98.74305167">
        <ele>2099.0</ele>
        <time>2019-10-12T16:17:53.876Z</time>
      </trkpt>
      <trkpt lat="20.24468667" lon="-98.743035">
        <ele>2098.0</ele>
        <time>2019-10-12T16:17:54.880Z</time>
      </trkpt>
      <trkpt lat="20.24466667" lon="-98.74301667">
        <ele>2098.0</ele>
        <time>2019-10-12T16:17:55.886Z</time>
      </trkpt>
      <trkpt lat="20.24464667" lon="-98.74299833">
        <ele>2097.0</ele>
        <time>2019-10-12T16:17:56.890Z</time>
      </trkpt>
      <trkpt lat="20.24462667" lon="-98.74298333">
        <ele>2097.0</ele>
        <time>2019-10-12T16:17:57.895Z</time>
      </trkpt>
      <trkpt lat="20.24460333" lon="-98.742965">
        <ele>2096.0</ele>
        <time>2019-10-12T16:17:58.901Z</time>
      </trkpt>
      <trkpt lat="20.24458167" lon="-98.74294833">
        <ele>2096.0</ele>
        <time>2019-10-12T16:17:59.903Z</time>
      </trkpt>
      <trkpt lat="20.24455833" lon="-98.74293333">
        <ele>2096.0</ele>
        <time>2019-10-12T16:18:00.910Z</time>
      </trkpt>
      <trkpt lat="20.244535" lon="-98.74291833">
        <ele>2095.0</ele>
        <time>2019-10-12T16:18:01.916Z</time>
      </trkpt>
      <trkpt lat="20.24451167" lon="-98.74290667">
        <ele>2095.0</ele>
        <time>2019-10-12T16:18:02.922Z</time>
      </trkpt>
      <trkpt lat="20.24449" lon="-98.74289667">
        <ele>2095.0</ele>
        <time>2019-10-12T16:18:03.927Z</time>
      </trkpt>
      <trkpt lat="20.24447167" lon="-98.74289">
        <ele>2095.0</ele>
        <time>2019-10-12T16:18:04.930Z</time>
      </trkpt>
      <trkpt lat="20.24445333" lon="-98.74288667">
        <ele>2095.0</ele>
        <time>2019-10-12T16:18:05.936Z</time>
      </trkpt>
      <trkpt lat="20.24444" lon="-98.74288333">
        <ele>2095.0</ele>
        <time>2019-10-12T16:18:06.937Z</time>
      </trkpt>
      <trkpt lat="20.24443167" lon="-98.74288333">
        <ele>2095.0</ele>
        <time>2019-10-12T16:18:07.941Z</time>
      </trkpt>
      <trkpt lat="20.24442667" lon="-98.742885">
        <ele>2095.0</ele>
        <time>2019-10-12T16:18:08.948Z</time>
      </trkpt>
      <trkpt lat="20.24442167" lon="-98.74288667">
        <ele>2094.0</ele>
        <time>2019-10-12T16:18:09.953Z</time>
      </trkpt>
      <trkpt lat="20.24441833" lon="-98.74289333">
        <ele>2094.0</ele>
        <time>2019-10-12T16:18:10.830Z</time>
      </trkpt>
      <trkpt lat="20.244415" lon="-98.74289833">
        <ele>2094.0</ele>
        <time>2019-10-12T16:18:11.836Z</time>
      </trkpt>
      <trkpt lat="20.24441167" lon="-98.74290167">
        <ele>2093.0</ele>
        <time>2019-10-12T16:18:12.836Z</time>
      </trkpt>
      <trkpt lat="20.24441167" lon="-98.74290667">
        <ele>2093.0</ele>
        <time>2019-10-12T16:18:13.840Z</time>
      </trkpt>
      <trkpt lat="20.24441333" lon="-98.74291333">
        <ele>2093.0</ele>
        <time>2019-10-12T16:18:14.847Z</time>
      </trkpt>
      <trkpt lat="20.24441167" lon="-98.74291667">
        <ele>2093.0</ele>
        <time>2019-10-12T16:18:15.852Z</time>
      </trkpt>
      <trkpt lat="20.24441167" lon="-98.74291833">
        <ele>2093.0</ele>
        <time>2019-10-12T16:18:16.857Z</time>
      </trkpt>
      <trkpt lat="20.24440833" lon="-98.74291333">
        <ele>2092.0</ele>
        <time>2019-10-12T16:18:17.864Z</time>
      </trkpt>
      <trkpt lat="20.2444" lon="-98.742905">
        <ele>2092.0</ele>
        <time>2019-10-12T16:18:18.869Z</time>
      </trkpt>
      <trkpt lat="20.24438667" lon="-98.74289833">
        <ele>2092.0</ele>
        <time>2019-10-12T16:18:19.874Z</time>
      </trkpt>
      <trkpt lat="20.24437333" lon="-98.74290167">
        <ele>2091.0</ele>
        <time>2019-10-12T16:18:20.881Z</time>
      </trkpt>
      <trkpt lat="20.24435833" lon="-98.74291167">
        <ele>2091.0</ele>
        <time>2019-10-12T16:18:21.882Z</time>
      </trkpt>
      <trkpt lat="20.24434" lon="-98.74292">
        <ele>2090.0</ele>
        <time>2019-10-12T16:18:22.882Z</time>
      </trkpt>
      <trkpt lat="20.24432" lon="-98.74292667">
        <ele>2090.0</ele>
        <time>2019-10-12T16:18:23.883Z</time>
      </trkpt>
      <trkpt lat="20.24429833" lon="-98.74292833">
        <ele>2090.0</ele>
        <time>2019-10-12T16:18:24.887Z</time>
      </trkpt>
      <trkpt lat="20.24428" lon="-98.74292833">
        <ele>2090.0</ele>
        <time>2019-10-12T16:18:25.893Z</time>
      </trkpt>
      <trkpt lat="20.244265" lon="-98.74293333">
        <ele>2090.0</ele>
        <time>2019-10-12T16:18:26.899Z</time>
      </trkpt>
      <trkpt lat="20.244255" lon="-98.74293833">
        <ele>2090.0</ele>
        <time>2019-10-12T16:18:27.906Z</time>
      </trkpt>
      <trkpt lat="20.24424667" lon="-98.74294333">
        <ele>2090.0</ele>
        <time>2019-10-12T16:18:28.913Z</time>
      </trkpt>
      <trkpt lat="20.24423667" lon="-98.74294833">
        <ele>2089.0</ele>
        <time>2019-10-12T16:18:29.914Z</time>
      </trkpt>
      <trkpt lat="20.24422667" lon="-98.742955">
        <ele>2089.0</ele>
        <time>2019-10-12T16:18:30.921Z</time>
      </trkpt>
      <trkpt lat="20.24421667" lon="-98.74296167">
        <ele>2089.0</ele>
        <time>2019-10-12T16:18:31.927Z</time>
      </trkpt>
      <trkpt lat="20.24420833" lon="-98.74296833">
        <ele>2088.0</ele>
        <time>2019-10-12T16:18:32.933Z</time>
      </trkpt>
      <trkpt lat="20.24419833" lon="-98.74297667">
        <ele>2088.0</ele>
        <time>2019-10-12T16:18:33.935Z</time>
      </trkpt>
      <trkpt lat="20.24418667" lon="-98.742985">
        <ele>2088.0</ele>
        <time>2019-10-12T16:18:34.937Z</time>
      </trkpt>
      <trkpt lat="20.24417333" lon="-98.74299333">
        <ele>2088.0</ele>
        <time>2019-10-12T16:18:35.944Z</time>
      </trkpt>
      <trkpt lat="20.24415833" lon="-98.743005">
        <ele>2087.0</ele>
        <time>2019-10-12T16:18:36.948Z</time>
      </trkpt>
      <trkpt lat="20.24414667" lon="-98.743015">
        <ele>2088.0</ele>
        <time>2019-10-12T16:18:37.949Z</time>
      </trkpt>
      <trkpt lat="20.244135" lon="-98.74302833">
        <ele>2088.0</ele>
        <time>2019-10-12T16:18:38.950Z</time>
      </trkpt>
      <trkpt lat="20.24412167" lon="-98.74304333">
        <ele>2088.0</ele>
        <time>2019-10-12T16:18:39.951Z</time>
      </trkpt>
      <trkpt lat="20.24411167" lon="-98.74306167">
        <ele>2088.0</ele>
        <time>2019-10-12T16:18:40.952Z</time>
      </trkpt>
      <trkpt lat="20.24410167" lon="-98.74307667">
        <ele>2088.0</ele>
        <time>2019-10-12T16:18:41.952Z</time>
      </trkpt>
      <trkpt lat="20.24409" lon="-98.74308833">
        <ele>2088.0</ele>
        <time>2019-10-12T16:18:42.953Z</time>
      </trkpt>
      <trkpt lat="20.24407667" lon="-98.74309833">
        <ele>2087.0</ele>
        <time>2019-10-12T16:18:43.954Z</time>
      </trkpt>
      <trkpt lat="20.24405833" lon="-98.74310667">
        <ele>2086.0</ele>
        <time>2019-10-12T16:18:44.830Z</time>
      </trkpt>
      <trkpt lat="20.24404" lon="-98.743115">
        <ele>2085.0</ele>
        <time>2019-10-12T16:18:45.832Z</time>
      </trkpt>
      <trkpt lat="20.24402667" lon="-98.74312333">
        <ele>2085.0</ele>
        <time>2019-10-12T16:18:46.838Z</time>
      </trkpt>
      <trkpt lat="20.244015" lon="-98.74313667">
        <ele>2084.0</ele>
        <time>2019-10-12T16:18:47.844Z</time>
      </trkpt>
      <trkpt lat="20.244005" lon="-98.743155">
        <ele>2084.0</ele>
        <time>2019-10-12T16:18:48.846Z</time>
      </trkpt>
      <trkpt lat="20.24399667" lon="-98.74317167">
        <ele>2083.0</ele>
        <time>2019-10-12T16:18:49.851Z</time>
      </trkpt>
      <trkpt lat="20.24399333" lon="-98.74319167">
        <ele>2083.0</ele>
        <time>2019-10-12T16:18:50.856Z</time>
      </trkpt>
      <trkpt lat="20.24399167" lon="-98.74321167">
        <ele>2082.0</ele>
        <time>2019-10-12T16:18:51.861Z</time>
      </trkpt>
      <trkpt lat="20.24398833" lon="-98.74323167">
        <ele>2082.0</ele>
        <time>2019-10-12T16:18:52.867Z</time>
      </trkpt>
      <trkpt lat="20.24398333" lon="-98.743245">
        <ele>2081.0</ele>
        <time>2019-10-12T16:18:53.869Z</time>
      </trkpt>
      <trkpt lat="20.24397833" lon="-98.743255">
        <ele>2081.0</ele>
        <time>2019-10-12T16:18:54.873Z</time>
      </trkpt>
      <trkpt lat="20.24397" lon="-98.74326167">
        <ele>2081.0</ele>
        <time>2019-10-12T16:18:55.877Z</time>
      </trkpt>
      <trkpt lat="20.24396" lon="-98.74326333">
        <ele>2081.0</ele>
        <time>2019-10-12T16:18:56.883Z</time>
      </trkpt>
      <trkpt lat="20.24394833" lon="-98.74326333">
        <ele>2081.0</ele>
        <time>2019-10-12T16:18:57.886Z</time>
      </trkpt>
      <trkpt lat="20.24393667" lon="-98.74326167">
        <ele>2080.0</ele>
        <time>2019-10-12T16:18:58.891Z</time>
      </trkpt>
      <trkpt lat="20.24392667" lon="-98.74325667">
        <ele>2079.0</ele>
        <time>2019-10-12T16:18:59.896Z</time>
      </trkpt>
      <trkpt lat="20.24392167" lon="-98.74324667">
        <ele>2078.0</ele>
        <time>2019-10-12T16:19:00.902Z</time>
      </trkpt>
      <trkpt lat="20.24391667" lon="-98.743235">
        <ele>2078.0</ele>
        <time>2019-10-12T16:19:01.904Z</time>
      </trkpt>
      <trkpt lat="20.24391333" lon="-98.74322">
        <ele>2078.0</ele>
        <time>2019-10-12T16:19:02.906Z</time>
      </trkpt>
      <trkpt lat="20.24390167" lon="-98.74320833">
        <ele>2077.0</ele>
        <time>2019-10-12T16:19:03.906Z</time>
      </trkpt>
      <trkpt lat="20.24389167" lon="-98.74319667">
        <ele>2077.0</ele>
        <time>2019-10-12T16:19:04.907Z</time>
      </trkpt>
      <trkpt lat="20.24388333" lon="-98.743185">
        <ele>2078.0</ele>
        <time>2019-10-12T16:19:05.907Z</time>
      </trkpt>
      <trkpt lat="20.243875" lon="-98.74317167">
        <ele>2078.0</ele>
        <time>2019-10-12T16:19:06.908Z</time>
      </trkpt>
      <trkpt lat="20.24387" lon="-98.743155">
        <ele>2078.0</ele>
        <time>2019-10-12T16:19:07.909Z</time>
      </trkpt>
      <trkpt lat="20.24386333" lon="-98.743135">
        <ele>2078.0</ele>
        <time>2019-10-12T16:19:08.909Z</time>
      </trkpt>
      <trkpt lat="20.24385333" lon="-98.74312167">
        <ele>2078.0</ele>
        <time>2019-10-12T16:19:09.911Z</time>
      </trkpt>
      <trkpt lat="20.24384167" lon="-98.74311167">
        <ele>2078.0</ele>
        <time>2019-10-12T16:19:10.911Z</time>
      </trkpt>
      <trkpt lat="20.24383167" lon="-98.74310667">
        <ele>2077.0</ele>
        <time>2019-10-12T16:19:11.912Z</time>
      </trkpt>
      <trkpt lat="20.24381833" lon="-98.74310667">
        <ele>2077.0</ele>
        <time>2019-10-12T16:19:12.912Z</time>
      </trkpt>
      <trkpt lat="20.24380667" lon="-98.743105">
        <ele>2076.0</ele>
        <time>2019-10-12T16:19:13.913Z</time>
      </trkpt>
      <trkpt lat="20.24379167" lon="-98.74310167">
        <ele>2076.0</ele>
        <time>2019-10-12T16:19:14.914Z</time>
      </trkpt>
      <trkpt lat="20.24377667" lon="-98.743095">
        <ele>2076.0</ele>
        <time>2019-10-12T16:19:15.915Z</time>
      </trkpt>
      <trkpt lat="20.24376167" lon="-98.74309333">
        <ele>2076.0</ele>
        <time>2019-10-12T16:19:16.916Z</time>
      </trkpt>
      <trkpt lat="20.24374667" lon="-98.74309167">
        <ele>2077.0</ele>
        <time>2019-10-12T16:19:17.917Z</time>
      </trkpt>
      <trkpt lat="20.24372833" lon="-98.74308833">
        <ele>2078.0</ele>
        <time>2019-10-12T16:19:18.917Z</time>
      </trkpt>
      <trkpt lat="20.24371" lon="-98.743085">
        <ele>2078.0</ele>
        <time>2019-10-12T16:19:19.918Z</time>
      </trkpt>
      <trkpt lat="20.24369167" lon="-98.74308">
        <ele>2079.0</ele>
        <time>2019-10-12T16:19:20.918Z</time>
      </trkpt>
      <trkpt lat="20.243675" lon="-98.74307">
        <ele>2080.0</ele>
        <time>2019-10-12T16:19:21.919Z</time>
      </trkpt>
      <trkpt lat="20.24365833" lon="-98.74306">
        <ele>2081.0</ele>
        <time>2019-10-12T16:19:22.920Z</time>
      </trkpt>
      <trkpt lat="20.24364333" lon="-98.74304833">
        <ele>2082.0</ele>
        <time>2019-10-12T16:19:23.921Z</time>
      </trkpt>
      <trkpt lat="20.24363" lon="-98.74303833">
        <ele>2082.0</ele>
        <time>2019-10-12T16:19:24.922Z</time>
      </trkpt>
      <trkpt lat="20.24361167" lon="-98.74302833">
        <ele>2083.0</ele>
        <time>2019-10-12T16:19:25.929Z</time>
      </trkpt>
      <trkpt lat="20.24359333" lon="-98.74302167">
        <ele>2083.0</ele>
        <time>2019-10-12T16:19:26.935Z</time>
      </trkpt>
      <trkpt lat="20.243575" lon="-98.74301333">
        <ele>2084.0</ele>
        <time>2019-10-12T16:19:27.939Z</time>
      </trkpt>
      <trkpt lat="20.24355667" lon="-98.74300667">
        <ele>2085.0</ele>
        <time>2019-10-12T16:19:28.940Z</time>
      </trkpt>
      <trkpt lat="20.24354" lon="-98.74300333">
        <ele>2085.0</ele>
        <time>2019-10-12T16:19:29.947Z</time>
      </trkpt>
      <trkpt lat="20.24352333" lon="-98.74300167">
        <ele>2086.0</ele>
        <time>2019-10-12T16:19:30.948Z</time>
      </trkpt>
      <trkpt lat="20.24351" lon="-98.74300167">
        <ele>2087.0</ele>
        <time>2019-10-12T16:19:31.955Z</time>
      </trkpt>
      <trkpt lat="20.24349333" lon="-98.74300333">
        <ele>2087.0</ele>
        <time>2019-10-12T16:19:32.836Z</time>
      </trkpt>
      <trkpt lat="20.24347833" lon="-98.74300833">
        <ele>2088.0</ele>
        <time>2019-10-12T16:19:33.843Z</time>
      </trkpt>
      <trkpt lat="20.243465" lon="-98.74301">
        <ele>2089.0</ele>
        <time>2019-10-12T16:19:34.849Z</time>
      </trkpt>
      <trkpt lat="20.24345" lon="-98.74300667">
        <ele>2089.0</ele>
        <time>2019-10-12T16:19:35.852Z</time>
      </trkpt>
      <trkpt lat="20.24343333" lon="-98.743">
        <ele>2090.0</ele>
        <time>2019-10-12T16:19:36.857Z</time>
      </trkpt>
      <trkpt lat="20.243415" lon="-98.742995">
        <ele>2091.0</ele>
        <time>2019-10-12T16:19:37.865Z</time>
      </trkpt>
      <trkpt lat="20.24339833" lon="-98.74299167">
        <ele>2092.0</ele>
        <time>2019-10-12T16:19:38.870Z</time>
      </trkpt>
      <trkpt lat="20.24338" lon="-98.74298667">
        <ele>2092.0</ele>
        <time>2019-10-12T16:19:39.871Z</time>
      </trkpt>
      <trkpt lat="20.24336167" lon="-98.74298167">
        <ele>2093.0</ele>
        <time>2019-10-12T16:19:40.872Z</time>
      </trkpt>
      <trkpt lat="20.24334667" lon="-98.74298">
        <ele>2093.0</ele>
        <time>2019-10-12T16:19:41.873Z</time>
      </trkpt>
      <trkpt lat="20.24332833" lon="-98.74297667">
        <ele>2094.0</ele>
        <time>2019-10-12T16:19:42.874Z</time>
      </trkpt>
      <trkpt lat="20.24331" lon="-98.742975">
        <ele>2094.0</ele>
        <time>2019-10-12T16:19:43.876Z</time>
      </trkpt>
      <trkpt lat="20.24329167" lon="-98.74297667">
        <ele>2094.0</ele>
        <time>2019-10-12T16:19:44.883Z</time>
      </trkpt>
      <trkpt lat="20.243275" lon="-98.74297167">
        <ele>2094.0</ele>
        <time>2019-10-12T16:19:45.889Z</time>
      </trkpt>
      <trkpt lat="20.243255" lon="-98.74296833">
        <ele>2094.0</ele>
        <time>2019-10-12T16:19:46.895Z</time>
      </trkpt>
      <trkpt lat="20.243235" lon="-98.742965">
        <ele>2095.0</ele>
        <time>2019-10-12T16:19:47.898Z</time>
      </trkpt>
      <trkpt lat="20.24321333" lon="-98.74296667">
        <ele>2095.0</ele>
        <time>2019-10-12T16:19:48.899Z</time>
      </trkpt>
      <trkpt lat="20.24319167" lon="-98.74297">
        <ele>2095.0</ele>
        <time>2019-10-12T16:19:49.900Z</time>
      </trkpt>
      <trkpt lat="20.24317" lon="-98.74297333">
        <ele>2095.0</ele>
        <time>2019-10-12T16:19:50.903Z</time>
      </trkpt>
      <trkpt lat="20.24315" lon="-98.74297667">
        <ele>2095.0</ele>
        <time>2019-10-12T16:19:51.910Z</time>
      </trkpt>
      <trkpt lat="20.24313167" lon="-98.74297333">
        <ele>2094.0</ele>
        <time>2019-10-12T16:19:52.916Z</time>
      </trkpt>
      <trkpt lat="20.24311167" lon="-98.74296833">
        <ele>2094.0</ele>
        <time>2019-10-12T16:19:53.924Z</time>
      </trkpt>
      <trkpt lat="20.24309333" lon="-98.74296333">
        <ele>2094.0</ele>
        <time>2019-10-12T16:19:54.930Z</time>
      </trkpt>
      <trkpt lat="20.243075" lon="-98.74296167">
        <ele>2094.0</ele>
        <time>2019-10-12T16:19:55.933Z</time>
      </trkpt>
      <trkpt lat="20.24305667" lon="-98.74296">
        <ele>2093.0</ele>
        <time>2019-10-12T16:19:56.936Z</time>
      </trkpt>
      <trkpt lat="20.24303833" lon="-98.74295333">
        <ele>2093.0</ele>
        <time>2019-10-12T16:19:57.942Z</time>
      </trkpt>
      <trkpt lat="20.24301833" lon="-98.74294833">
        <ele>2093.0</ele>
        <time>2019-10-12T16:19:58.948Z</time>
      </trkpt>
      <trkpt lat="20.24299667" lon="-98.74294333">
        <ele>2093.0</ele>
        <time>2019-10-12T16:19:59.949Z</time>
      </trkpt>
      <trkpt lat="20.242975" lon="-98.74293833">
        <ele>2094.0</ele>
        <time>2019-10-12T16:20:00.950Z</time>
      </trkpt>
      <trkpt lat="20.24295667" lon="-98.74294">
        <ele>2094.0</ele>
        <time>2019-10-12T16:20:01.951Z</time>
      </trkpt>
      <trkpt lat="20.24294167" lon="-98.74294667">
        <ele>2093.0</ele>
        <time>2019-10-12T16:20:02.952Z</time>
      </trkpt>
      <trkpt lat="20.24293167" lon="-98.74296167">
        <ele>2094.0</ele>
        <time>2019-10-12T16:20:03.952Z</time>
      </trkpt>
      <trkpt lat="20.24292333" lon="-98.742975">
        <ele>2093.0</ele>
        <time>2019-10-12T16:20:04.953Z</time>
      </trkpt>
      <trkpt lat="20.24291333" lon="-98.74298833">
        <ele>2093.0</ele>
        <time>2019-10-12T16:20:05.954Z</time>
      </trkpt>
      <trkpt lat="20.24290333" lon="-98.74300333">
        <ele>2093.0</ele>
        <time>2019-10-12T16:20:06.830Z</time>
      </trkpt>
      <trkpt lat="20.24289333" lon="-98.743015">
        <ele>2092.0</ele>
        <time>2019-10-12T16:20:07.830Z</time>
      </trkpt>
      <trkpt lat="20.242885" lon="-98.74302667">
        <ele>2092.0</ele>
        <time>2019-10-12T16:20:08.831Z</time>
      </trkpt>
      <trkpt lat="20.24287667" lon="-98.74303333">
        <ele>2092.0</ele>
        <time>2019-10-12T16:20:09.832Z</time>
      </trkpt>
      <trkpt lat="20.24286667" lon="-98.74303667">
        <ele>2092.0</ele>
        <time>2019-10-12T16:20:10.833Z</time>
      </trkpt>
      <trkpt lat="20.24285833" lon="-98.743035">
        <ele>2092.0</ele>
        <time>2019-10-12T16:20:11.834Z</time>
      </trkpt>
      <trkpt lat="20.24285" lon="-98.74303">
        <ele>2092.0</ele>
        <time>2019-10-12T16:20:12.835Z</time>
      </trkpt>
      <trkpt lat="20.24284333" lon="-98.743025">
        <ele>2093.0</ele>
        <time>2019-10-12T16:20:13.835Z</time>
      </trkpt>
      <trkpt lat="20.24283667" lon="-98.74301833">
        <ele>2094.0</ele>
        <time>2019-10-12T16:20:14.836Z</time>
      </trkpt>
      <trkpt lat="20.24283" lon="-98.74301333">
        <ele>2094.0</ele>
        <time>2019-10-12T16:20:15.836Z</time>
      </trkpt>
      <trkpt lat="20.24282333" lon="-98.74301">
        <ele>2095.0</ele>
        <time>2019-10-12T16:20:16.838Z</time>
      </trkpt>
      <trkpt lat="20.24281333" lon="-98.74301333">
        <ele>2095.0</ele>
        <time>2019-10-12T16:20:17.839Z</time>
      </trkpt>
      <trkpt lat="20.242805" lon="-98.74301667">
        <ele>2095.0</ele>
        <time>2019-10-12T16:20:18.839Z</time>
      </trkpt>
      <trkpt lat="20.2428" lon="-98.74301833">
        <ele>2095.0</ele>
        <time>2019-10-12T16:20:19.845Z</time>
      </trkpt>
      <trkpt lat="20.242795" lon="-98.74302">
        <ele>2095.0</ele>
        <time>2019-10-12T16:20:20.852Z</time>
      </trkpt>
      <trkpt lat="20.24278833" lon="-98.74302167">
        <ele>2096.0</ele>
        <time>2019-10-12T16:20:21.856Z</time>
      </trkpt>
      <trkpt lat="20.24278" lon="-98.743025">
        <ele>2096.0</ele>
        <time>2019-10-12T16:20:22.864Z</time>
      </trkpt>
      <trkpt lat="20.24277167" lon="-98.74302667">
        <ele>2097.0</ele>
        <time>2019-10-12T16:20:23.865Z</time>
      </trkpt>
      <trkpt lat="20.24276167" lon="-98.74302833">
        <ele>2097.0</ele>
        <time>2019-10-12T16:20:24.872Z</time>
      </trkpt>
      <trkpt lat="20.24275" lon="-98.74303">
        <ele>2097.0</ele>
        <time>2019-10-12T16:20:25.877Z</time>
      </trkpt>
      <trkpt lat="20.24273833" lon="-98.743035">
        <ele>2097.0</ele>
        <time>2019-10-12T16:20:26.883Z</time>
      </trkpt>
      <trkpt lat="20.24272833" lon="-98.74303833">
        <ele>2097.0</ele>
        <time>2019-10-12T16:20:27.889Z</time>
      </trkpt>
      <trkpt lat="20.24272" lon="-98.74304167">
        <ele>2098.0</ele>
        <time>2019-10-12T16:20:28.890Z</time>
      </trkpt>
      <trkpt lat="20.24271667" lon="-98.74304667">
        <ele>2098.0</ele>
        <time>2019-10-12T16:20:29.894Z</time>
      </trkpt>
      <trkpt lat="20.24271167" lon="-98.74305333">
        <ele>2099.0</ele>
        <time>2019-10-12T16:20:30.899Z</time>
      </trkpt>
      <trkpt lat="20.24270333" lon="-98.74305833">
        <ele>2099.0</ele>
        <time>2019-10-12T16:20:31.906Z</time>
      </trkpt>
      <trkpt lat="20.242695" lon="-98.74306333">
        <ele>2100.0</ele>
        <time>2019-10-12T16:20:32.913Z</time>
      </trkpt>
      <trkpt lat="20.24268833" lon="-98.74306667">
        <ele>2100.0</ele>
        <time>2019-10-12T16:20:33.914Z</time>
      </trkpt>
      <trkpt lat="20.24268" lon="-98.74306667">
        <ele>2100.0</ele>
        <time>2019-10-12T16:20:34.915Z</time>
      </trkpt>
      <trkpt lat="20.24267167" lon="-98.74306333">
        <ele>2100.0</ele>
        <time>2019-10-12T16:20:35.919Z</time>
      </trkpt>
      <trkpt lat="20.24265833" lon="-98.74305833">
        <ele>2100.0</ele>
        <time>2019-10-12T16:20:36.925Z</time>
      </trkpt>
      <trkpt lat="20.242645" lon="-98.74305167">
        <ele>2100.0</ele>
        <time>2019-10-12T16:20:37.930Z</time>
      </trkpt>
      <trkpt lat="20.24263" lon="-98.743045">
        <ele>2101.0</ele>
        <time>2019-10-12T16:20:38.935Z</time>
      </trkpt>
      <trkpt lat="20.24261667" lon="-98.74304167">
        <ele>2101.0</ele>
        <time>2019-10-12T16:20:39.939Z</time>
      </trkpt>
      <trkpt lat="20.24260333" lon="-98.74304">
        <ele>2101.0</ele>
        <time>2019-10-12T16:20:40.943Z</time>
      </trkpt>
      <trkpt lat="20.24259333" lon="-98.74304167">
        <ele>2102.0</ele>
        <time>2019-10-12T16:20:41.950Z</time>
      </trkpt>
      <trkpt lat="20.24258167" lon="-98.743045">
        <ele>2102.0</ele>
        <time>2019-10-12T16:20:42.951Z</time>
      </trkpt>
      <trkpt lat="20.24257167" lon="-98.74304833">
        <ele>2101.0</ele>
        <time>2019-10-12T16:20:43.954Z</time>
      </trkpt>
      <trkpt lat="20.24256167" lon="-98.74305333">
        <ele>2101.0</ele>
        <time>2019-10-12T16:20:44.831Z</time>
      </trkpt>
      <trkpt lat="20.24255" lon="-98.743055">
        <ele>2101.0</ele>
        <time>2019-10-12T16:20:45.838Z</time>
      </trkpt>
      <trkpt lat="20.242535" lon="-98.74305333">
        <ele>2102.0</ele>
        <time>2019-10-12T16:20:46.845Z</time>
      </trkpt>
      <trkpt lat="20.24252167" lon="-98.74304833">
        <ele>2102.0</ele>
        <time>2019-10-12T16:20:47.850Z</time>
      </trkpt>
      <trkpt lat="20.24250667" lon="-98.74304667">
        <ele>2102.0</ele>
        <time>2019-10-12T16:20:48.855Z</time>
      </trkpt>
      <trkpt lat="20.242495" lon="-98.743045">
        <ele>2102.0</ele>
        <time>2019-10-12T16:20:49.857Z</time>
      </trkpt>
      <trkpt lat="20.24248" lon="-98.74304333">
        <ele>2102.0</ele>
        <time>2019-10-12T16:20:50.862Z</time>
      </trkpt>
      <trkpt lat="20.24246833" lon="-98.74304">
        <ele>2102.0</ele>
        <time>2019-10-12T16:20:51.868Z</time>
      </trkpt>
      <trkpt lat="20.24245667" lon="-98.74303333">
        <ele>2102.0</ele>
        <time>2019-10-12T16:20:52.874Z</time>
      </trkpt>
      <trkpt lat="20.242445" lon="-98.743025">
        <ele>2102.0</ele>
        <time>2019-10-12T16:20:53.876Z</time>
      </trkpt>
      <trkpt lat="20.24243333" lon="-98.74302">
        <ele>2102.0</ele>
        <time>2019-10-12T16:20:54.884Z</time>
      </trkpt>
      <trkpt lat="20.24241833" lon="-98.74301667">
        <ele>2102.0</ele>
        <time>2019-10-12T16:20:55.887Z</time>
      </trkpt>
      <trkpt lat="20.24240833" lon="-98.74301">
        <ele>2102.0</ele>
        <time>2019-10-12T16:20:56.889Z</time>
      </trkpt>
      <trkpt lat="20.24240167" lon="-98.74299667">
        <ele>2102.0</ele>
        <time>2019-10-12T16:20:57.892Z</time>
      </trkpt>
      <trkpt lat="20.24239333" lon="-98.74298167">
        <ele>2103.0</ele>
        <time>2019-10-12T16:20:58.893Z</time>
      </trkpt>
      <trkpt lat="20.24238333" lon="-98.74297333">
        <ele>2103.0</ele>
        <time>2019-10-12T16:20:59.893Z</time>
      </trkpt>
      <trkpt lat="20.24237167" lon="-98.742965">
        <ele>2104.0</ele>
        <time>2019-10-12T16:21:00.897Z</time>
      </trkpt>
      <trkpt lat="20.24236" lon="-98.74296">
        <ele>2104.0</ele>
        <time>2019-10-12T16:21:01.903Z</time>
      </trkpt>
      <trkpt lat="20.242345" lon="-98.74295833">
        <ele>2104.0</ele>
        <time>2019-10-12T16:21:02.909Z</time>
      </trkpt>
      <trkpt lat="20.24232833" lon="-98.74295667">
        <ele>2104.0</ele>
        <time>2019-10-12T16:21:03.916Z</time>
      </trkpt>
      <trkpt lat="20.242315" lon="-98.74296167">
        <ele>2104.0</ele>
        <time>2019-10-12T16:21:04.922Z</time>
      </trkpt>
      <trkpt lat="20.24230167" lon="-98.74296667">
        <ele>2104.0</ele>
        <time>2019-10-12T16:21:05.928Z</time>
      </trkpt>
      <trkpt lat="20.24229" lon="-98.742975">
        <ele>2105.0</ele>
        <time>2019-10-12T16:21:06.932Z</time>
      </trkpt>
      <trkpt lat="20.24227833" lon="-98.74298167">
        <ele>2105.0</ele>
        <time>2019-10-12T16:21:07.937Z</time>
      </trkpt>
      <trkpt lat="20.24226833" lon="-98.74299">
        <ele>2105.0</ele>
        <time>2019-10-12T16:21:08.940Z</time>
      </trkpt>
      <trkpt lat="20.24225833" lon="-98.74299167">
        <ele>2105.0</ele>
        <time>2019-10-12T16:21:09.940Z</time>
      </trkpt>
      <trkpt lat="20.24224667" lon="-98.742995">
        <ele>2105.0</ele>
        <time>2019-10-12T16:21:10.941Z</time>
      </trkpt>
      <trkpt lat="20.24223167" lon="-98.74299833">
        <ele>2105.0</ele>
        <time>2019-10-12T16:21:11.941Z</time>
      </trkpt>
      <trkpt lat="20.24222333" lon="-98.74300833">
        <ele>2106.0</ele>
        <time>2019-10-12T16:21:12.941Z</time>
      </trkpt>
      <trkpt lat="20.242215" lon="-98.74301833">
        <ele>2106.0</ele>
        <time>2019-10-12T16:21:13.941Z</time>
      </trkpt>
      <trkpt lat="20.24220833" lon="-98.74303333">
        <ele>2106.0</ele>
        <time>2019-10-12T16:21:14.941Z</time>
      </trkpt>
      <trkpt lat="20.24220333" lon="-98.74304833">
        <ele>2106.0</ele>
        <time>2019-10-12T16:21:15.942Z</time>
      </trkpt>
      <trkpt lat="20.24219833" lon="-98.74306333">
        <ele>2107.0</ele>
        <time>2019-10-12T16:21:16.942Z</time>
      </trkpt>
      <trkpt lat="20.24219167" lon="-98.74308167">
        <ele>2107.0</ele>
        <time>2019-10-12T16:21:17.942Z</time>
      </trkpt>
      <trkpt lat="20.242185" lon="-98.74309833">
        <ele>2107.0</ele>
        <time>2019-10-12T16:21:18.942Z</time>
      </trkpt>
      <trkpt lat="20.24217833" lon="-98.743115">
        <ele>2107.0</ele>
        <time>2019-10-12T16:21:19.944Z</time>
      </trkpt>
      <trkpt lat="20.242175" lon="-98.74313">
        <ele>2106.0</ele>
        <time>2019-10-12T16:21:20.944Z</time>
      </trkpt>
      <trkpt lat="20.24217" lon="-98.74314833">
        <ele>2106.0</ele>
        <time>2019-10-12T16:21:21.945Z</time>
      </trkpt>
      <trkpt lat="20.24216333" lon="-98.74316333">
        <ele>2106.0</ele>
        <time>2019-10-12T16:21:22.946Z</time>
      </trkpt>
      <trkpt lat="20.242155" lon="-98.743175">
        <ele>2105.0</ele>
        <time>2019-10-12T16:21:23.947Z</time>
      </trkpt>
      <trkpt lat="20.24214833" lon="-98.74318833">
        <ele>2105.0</ele>
        <time>2019-10-12T16:21:24.948Z</time>
      </trkpt>
      <trkpt lat="20.24213833" lon="-98.743195">
        <ele>2105.0</ele>
        <time>2019-10-12T16:21:25.949Z</time>
      </trkpt>
      <trkpt lat="20.242125" lon="-98.743205">
        <ele>2105.0</ele>
        <time>2019-10-12T16:21:26.949Z</time>
      </trkpt>
      <trkpt lat="20.24211167" lon="-98.74321667">
        <ele>2105.0</ele>
        <time>2019-10-12T16:21:27.951Z</time>
      </trkpt>
      <trkpt lat="20.24210167" lon="-98.74323167">
        <ele>2105.0</ele>
        <time>2019-10-12T16:21:28.951Z</time>
      </trkpt>
      <trkpt lat="20.24209333" lon="-98.74324833">
        <ele>2105.0</ele>
        <time>2019-10-12T16:21:29.952Z</time>
      </trkpt>
      <trkpt lat="20.24208667" lon="-98.743265">
        <ele>2105.0</ele>
        <time>2019-10-12T16:21:30.953Z</time>
      </trkpt>
      <trkpt lat="20.24207833" lon="-98.74328333">
        <ele>2105.0</ele>
        <time>2019-10-12T16:21:31.955Z</time>
      </trkpt>
      <trkpt lat="20.242075" lon="-98.74330333">
        <ele>2105.0</ele>
        <time>2019-10-12T16:21:32.837Z</time>
      </trkpt>
      <trkpt lat="20.24207167" lon="-98.74332167">
        <ele>2104.0</ele>
        <time>2019-10-12T16:21:33.845Z</time>
      </trkpt>
      <trkpt lat="20.24207" lon="-98.74334">
        <ele>2104.0</ele>
        <time>2019-10-12T16:21:34.847Z</time>
      </trkpt>
      <trkpt lat="20.24207" lon="-98.74336">
        <ele>2103.0</ele>
        <time>2019-10-12T16:21:35.852Z</time>
      </trkpt>
      <trkpt lat="20.242075" lon="-98.74337833">
        <ele>2103.0</ele>
        <time>2019-10-12T16:21:36.856Z</time>
      </trkpt>
      <trkpt lat="20.24208333" lon="-98.74339667">
        <ele>2103.0</ele>
        <time>2019-10-12T16:21:37.861Z</time>
      </trkpt>
      <trkpt lat="20.24209333" lon="-98.743415">
        <ele>2103.0</ele>
        <time>2019-10-12T16:21:38.865Z</time>
      </trkpt>
      <trkpt lat="20.2421" lon="-98.74343167">
        <ele>2103.0</ele>
        <time>2019-10-12T16:21:39.868Z</time>
      </trkpt>
      <trkpt lat="20.24210333" lon="-98.74345167">
        <ele>2103.0</ele>
        <time>2019-10-12T16:21:40.875Z</time>
      </trkpt>
      <trkpt lat="20.24210667" lon="-98.74347167">
        <ele>2103.0</ele>
        <time>2019-10-12T16:21:41.875Z</time>
      </trkpt>
      <trkpt lat="20.24211167" lon="-98.743495">
        <ele>2103.0</ele>
        <time>2019-10-12T16:21:42.881Z</time>
      </trkpt>
      <trkpt lat="20.24211667" lon="-98.74351667">
        <ele>2102.0</ele>
        <time>2019-10-12T16:21:43.888Z</time>
      </trkpt>
      <trkpt lat="20.24212167" lon="-98.74353833">
        <ele>2102.0</ele>
        <time>2019-10-12T16:21:44.893Z</time>
      </trkpt>
      <trkpt lat="20.242125" lon="-98.74356">
        <ele>2101.0</ele>
        <time>2019-10-12T16:21:45.899Z</time>
      </trkpt>
      <trkpt lat="20.24213167" lon="-98.74358167">
        <ele>2102.0</ele>
        <time>2019-10-12T16:21:46.902Z</time>
      </trkpt>
      <trkpt lat="20.24214" lon="-98.74360167">
        <ele>2101.0</ele>
        <time>2019-10-12T16:21:47.903Z</time>
      </trkpt>
      <trkpt lat="20.24215167" lon="-98.74362167">
        <ele>2101.0</ele>
        <time>2019-10-12T16:21:48.904Z</time>
      </trkpt>
      <trkpt lat="20.24216333" lon="-98.74364">
        <ele>2101.0</ele>
        <time>2019-10-12T16:21:49.905Z</time>
      </trkpt>
      <trkpt lat="20.24217" lon="-98.74365667">
        <ele>2101.0</ele>
        <time>2019-10-12T16:21:50.906Z</time>
      </trkpt>
      <trkpt lat="20.24217667" lon="-98.743675">
        <ele>2100.0</ele>
        <time>2019-10-12T16:21:51.907Z</time>
      </trkpt>
      <trkpt lat="20.24218" lon="-98.74369333">
        <ele>2100.0</ele>
        <time>2019-10-12T16:21:52.908Z</time>
      </trkpt>
      <trkpt lat="20.24218333" lon="-98.74371833">
        <ele>2100.0</ele>
        <time>2019-10-12T16:21:53.908Z</time>
      </trkpt>
      <trkpt lat="20.24218333" lon="-98.74374">
        <ele>2099.0</ele>
        <time>2019-10-12T16:21:54.909Z</time>
      </trkpt>
      <trkpt lat="20.24217833" lon="-98.74376">
        <ele>2100.0</ele>
        <time>2019-10-12T16:21:55.910Z</time>
      </trkpt>
      <trkpt lat="20.24217167" lon="-98.74377667">
        <ele>2100.0</ele>
        <time>2019-10-12T16:21:56.911Z</time>
      </trkpt>
      <trkpt lat="20.24216333" lon="-98.74379667">
        <ele>2100.0</ele>
        <time>2019-10-12T16:21:57.917Z</time>
      </trkpt>
      <trkpt lat="20.24216" lon="-98.74381667">
        <ele>2100.0</ele>
        <time>2019-10-12T16:21:58.923Z</time>
      </trkpt>
      <trkpt lat="20.24215667" lon="-98.74383667">
        <ele>2100.0</ele>
        <time>2019-10-12T16:21:59.931Z</time>
      </trkpt>
      <trkpt lat="20.24215333" lon="-98.74385667">
        <ele>2101.0</ele>
        <time>2019-10-12T16:22:00.935Z</time>
      </trkpt>
      <trkpt lat="20.24215833" lon="-98.74387667">
        <ele>2100.0</ele>
        <time>2019-10-12T16:22:01.935Z</time>
      </trkpt>
      <trkpt lat="20.24216167" lon="-98.74389333">
        <ele>2100.0</ele>
        <time>2019-10-12T16:22:02.937Z</time>
      </trkpt>
      <trkpt lat="20.24216333" lon="-98.74391">
        <ele>2099.0</ele>
        <time>2019-10-12T16:22:03.939Z</time>
      </trkpt>
      <trkpt lat="20.24216" lon="-98.74392667">
        <ele>2099.0</ele>
        <time>2019-10-12T16:22:04.946Z</time>
      </trkpt>
      <trkpt lat="20.242155" lon="-98.74394">
        <ele>2098.0</ele>
        <time>2019-10-12T16:22:05.952Z</time>
      </trkpt>
      <trkpt lat="20.24214333" lon="-98.74394833">
        <ele>2098.0</ele>
        <time>2019-10-12T16:22:06.832Z</time>
      </trkpt>
      <trkpt lat="20.24213" lon="-98.743955">
        <ele>2098.0</ele>
        <time>2019-10-12T16:22:07.838Z</time>
      </trkpt>
      <trkpt lat="20.24211333" lon="-98.74396667">
        <ele>2097.0</ele>
        <time>2019-10-12T16:22:08.840Z</time>
      </trkpt>
      <trkpt lat="20.2421" lon="-98.74398">
        <ele>2097.0</ele>
        <time>2019-10-12T16:22:09.847Z</time>
      </trkpt>
      <trkpt lat="20.24208667" lon="-98.74399667">
        <ele>2097.0</ele>
        <time>2019-10-12T16:22:10.853Z</time>
      </trkpt>
      <trkpt lat="20.24207333" lon="-98.744015">
        <ele>2096.0</ele>
        <time>2019-10-12T16:22:11.859Z</time>
      </trkpt>
      <trkpt lat="20.24206333" lon="-98.74403167">
        <ele>2096.0</ele>
        <time>2019-10-12T16:22:12.860Z</time>
      </trkpt>
      <trkpt lat="20.242055" lon="-98.74405167">
        <ele>2096.0</ele>
        <time>2019-10-12T16:22:13.862Z</time>
      </trkpt>
      <trkpt lat="20.24205333" lon="-98.74407167">
        <ele>2096.0</ele>
        <time>2019-10-12T16:22:14.862Z</time>
      </trkpt>
      <trkpt lat="20.24206" lon="-98.74408833">
        <ele>2096.0</ele>
        <time>2019-10-12T16:22:15.870Z</time>
      </trkpt>
      <trkpt lat="20.24207167" lon="-98.74410667">
        <ele>2095.0</ele>
        <time>2019-10-12T16:22:16.877Z</time>
      </trkpt>
      <trkpt lat="20.24208167" lon="-98.744125">
        <ele>2095.0</ele>
        <time>2019-10-12T16:22:17.880Z</time>
      </trkpt>
      <trkpt lat="20.24209" lon="-98.74414833">
        <ele>2096.0</ele>
        <time>2019-10-12T16:22:18.886Z</time>
      </trkpt>
      <trkpt lat="20.24209667" lon="-98.74417">
        <ele>2096.0</ele>
        <time>2019-10-12T16:22:19.890Z</time>
      </trkpt>
      <trkpt lat="20.2421" lon="-98.744195">
        <ele>2097.0</ele>
        <time>2019-10-12T16:22:20.896Z</time>
      </trkpt>
      <trkpt lat="20.24209833" lon="-98.74421667">
        <ele>2097.0</ele>
        <time>2019-10-12T16:22:21.902Z</time>
      </trkpt>
      <trkpt lat="20.242095" lon="-98.744235">
        <ele>2097.0</ele>
        <time>2019-10-12T16:22:22.902Z</time>
      </trkpt>
      <trkpt lat="20.24208833" lon="-98.74424333">
        <ele>2098.0</ele>
        <time>2019-10-12T16:22:23.902Z</time>
      </trkpt>
      <trkpt lat="20.24208" lon="-98.74424">
        <ele>2099.0</ele>
        <time>2019-10-12T16:22:24.904Z</time>
      </trkpt>
      <trkpt lat="20.24207333" lon="-98.74423">
        <ele>2100.0</ele>
        <time>2019-10-12T16:22:25.907Z</time>
      </trkpt>
      <trkpt lat="20.242065" lon="-98.74421833">
        <ele>2101.0</ele>
        <time>2019-10-12T16:22:26.907Z</time>
      </trkpt>
      <trkpt lat="20.24205167" lon="-98.74421167">
        <ele>2101.0</ele>
        <time>2019-10-12T16:22:27.909Z</time>
      </trkpt>
      <trkpt lat="20.242035" lon="-98.74420667">
        <ele>2101.0</ele>
        <time>2019-10-12T16:22:28.913Z</time>
      </trkpt>
      <trkpt lat="20.24201833" lon="-98.744205">
        <ele>2102.0</ele>
        <time>2019-10-12T16:22:29.916Z</time>
      </trkpt>
      <trkpt lat="20.242" lon="-98.74420167">
        <ele>2101.0</ele>
        <time>2019-10-12T16:22:30.921Z</time>
      </trkpt>
      <trkpt lat="20.24198" lon="-98.74420167">
        <ele>2101.0</ele>
        <time>2019-10-12T16:22:31.929Z</time>
      </trkpt>
      <trkpt lat="20.24196167" lon="-98.744205">
        <ele>2102.0</ele>
        <time>2019-10-12T16:22:32.935Z</time>
      </trkpt>
      <trkpt lat="20.24194833" lon="-98.744205">
        <ele>2102.0</ele>
        <time>2019-10-12T16:22:33.936Z</time>
      </trkpt>
      <trkpt lat="20.24193167" lon="-98.744205">
        <ele>2102.0</ele>
        <time>2019-10-12T16:22:34.936Z</time>
      </trkpt>
      <trkpt lat="20.24192" lon="-98.74420333">
        <ele>2102.0</ele>
        <time>2019-10-12T16:22:35.938Z</time>
      </trkpt>
      <trkpt lat="20.24190667" lon="-98.74419833">
        <ele>2102.0</ele>
        <time>2019-10-12T16:22:36.938Z</time>
      </trkpt>
      <trkpt lat="20.241895" lon="-98.74419167">
        <ele>2102.0</ele>
        <time>2019-10-12T16:22:37.945Z</time>
      </trkpt>
      <trkpt lat="20.24187667" lon="-98.74418667">
        <ele>2102.0</ele>
        <time>2019-10-12T16:22:38.952Z</time>
      </trkpt>
      <trkpt lat="20.24185833" lon="-98.744185">
        <ele>2102.0</ele>
        <time>2019-10-12T16:22:39.952Z</time>
      </trkpt>
      <trkpt lat="20.24184" lon="-98.744185">
        <ele>2102.0</ele>
        <time>2019-10-12T16:22:40.833Z</time>
      </trkpt>
      <trkpt lat="20.24182333" lon="-98.74418667">
        <ele>2102.0</ele>
        <time>2019-10-12T16:22:41.839Z</time>
      </trkpt>
      <trkpt lat="20.24180333" lon="-98.74418833">
        <ele>2102.0</ele>
        <time>2019-10-12T16:22:42.844Z</time>
      </trkpt>
      <trkpt lat="20.241785" lon="-98.74419167">
        <ele>2102.0</ele>
        <time>2019-10-12T16:22:43.849Z</time>
      </trkpt>
      <trkpt lat="20.24176333" lon="-98.74419667">
        <ele>2102.0</ele>
        <time>2019-10-12T16:22:44.852Z</time>
      </trkpt>
      <trkpt lat="20.24174667" lon="-98.74420167">
        <ele>2103.0</ele>
        <time>2019-10-12T16:22:45.855Z</time>
      </trkpt>
      <trkpt lat="20.24173" lon="-98.74420667">
        <ele>2103.0</ele>
        <time>2019-10-12T16:22:46.859Z</time>
      </trkpt>
      <trkpt lat="20.24171167" lon="-98.74421333">
        <ele>2103.0</ele>
        <time>2019-10-12T16:22:47.865Z</time>
      </trkpt>
      <trkpt lat="20.24169333" lon="-98.744215">
        <ele>2103.0</ele>
        <time>2019-10-12T16:22:48.871Z</time>
      </trkpt>
      <trkpt lat="20.24167167" lon="-98.74421333">
        <ele>2102.0</ele>
        <time>2019-10-12T16:22:49.878Z</time>
      </trkpt>
      <trkpt lat="20.24165167" lon="-98.74421">
        <ele>2103.0</ele>
        <time>2019-10-12T16:22:50.881Z</time>
      </trkpt>
      <trkpt lat="20.24163" lon="-98.744205">
        <ele>2103.0</ele>
        <time>2019-10-12T16:22:51.885Z</time>
      </trkpt>
      <trkpt lat="20.24161" lon="-98.74420667">
        <ele>2102.0</ele>
        <time>2019-10-12T16:22:52.892Z</time>
      </trkpt>
      <trkpt lat="20.24158833" lon="-98.74420667">
        <ele>2102.0</ele>
        <time>2019-10-12T16:22:53.896Z</time>
      </trkpt>
      <trkpt lat="20.24157" lon="-98.74421333">
        <ele>2102.0</ele>
        <time>2019-10-12T16:22:54.900Z</time>
      </trkpt>
      <trkpt lat="20.24155167" lon="-98.74422167">
        <ele>2102.0</ele>
        <time>2019-10-12T16:22:55.906Z</time>
      </trkpt>
      <trkpt lat="20.24153333" lon="-98.74422833">
        <ele>2102.0</ele>
        <time>2019-10-12T16:22:56.912Z</time>
      </trkpt>
      <trkpt lat="20.241515" lon="-98.744235">
        <ele>2103.0</ele>
        <time>2019-10-12T16:22:57.913Z</time>
      </trkpt>
      <trkpt lat="20.24149333" lon="-98.74424">
        <ele>2102.0</ele>
        <time>2019-10-12T16:22:58.917Z</time>
      </trkpt>
      <trkpt lat="20.24147333" lon="-98.74424833">
        <ele>2102.0</ele>
        <time>2019-10-12T16:22:59.922Z</time>
      </trkpt>
      <trkpt lat="20.24145667" lon="-98.744255">
        <ele>2102.0</ele>
        <time>2019-10-12T16:23:00.923Z</time>
      </trkpt>
      <trkpt lat="20.24144" lon="-98.74425833">
        <ele>2102.0</ele>
        <time>2019-10-12T16:23:01.928Z</time>
      </trkpt>
      <trkpt lat="20.24142333" lon="-98.74426333">
        <ele>2102.0</ele>
        <time>2019-10-12T16:23:02.933Z</time>
      </trkpt>
      <trkpt lat="20.24140667" lon="-98.74426333">
        <ele>2103.0</ele>
        <time>2019-10-12T16:23:03.939Z</time>
      </trkpt>
      <trkpt lat="20.24139" lon="-98.74426167">
        <ele>2103.0</ele>
        <time>2019-10-12T16:23:04.944Z</time>
      </trkpt>
      <trkpt lat="20.24137167" lon="-98.74426333">
        <ele>2104.0</ele>
        <time>2019-10-12T16:23:05.947Z</time>
      </trkpt>
      <trkpt lat="20.24135" lon="-98.744265">
        <ele>2104.0</ele>
        <time>2019-10-12T16:23:06.948Z</time>
      </trkpt>
      <trkpt lat="20.24132667" lon="-98.74426833">
        <ele>2103.0</ele>
        <time>2019-10-12T16:23:07.954Z</time>
      </trkpt>
      <trkpt lat="20.241305" lon="-98.74427167">
        <ele>2103.0</ele>
        <time>2019-10-12T16:23:08.835Z</time>
      </trkpt>
      <trkpt lat="20.241285" lon="-98.74428">
        <ele>2102.0</ele>
        <time>2019-10-12T16:23:09.838Z</time>
      </trkpt>
      <trkpt lat="20.24126667" lon="-98.74429">
        <ele>2102.0</ele>
        <time>2019-10-12T16:23:10.843Z</time>
      </trkpt>
      <trkpt lat="20.24124667" lon="-98.74430333">
        <ele>2101.0</ele>
        <time>2019-10-12T16:23:11.849Z</time>
      </trkpt>
      <trkpt lat="20.24122667" lon="-98.74431333">
        <ele>2101.0</ele>
        <time>2019-10-12T16:23:12.854Z</time>
      </trkpt>
      <trkpt lat="20.24120833" lon="-98.74432167">
        <ele>2101.0</ele>
        <time>2019-10-12T16:23:13.861Z</time>
      </trkpt>
      <trkpt lat="20.241185" lon="-98.74433">
        <ele>2100.0</ele>
        <time>2019-10-12T16:23:14.864Z</time>
      </trkpt>
      <trkpt lat="20.241165" lon="-98.744335">
        <ele>2099.0</ele>
        <time>2019-10-12T16:23:15.871Z</time>
      </trkpt>
      <trkpt lat="20.24114167" lon="-98.74434333">
        <ele>2099.0</ele>
        <time>2019-10-12T16:23:16.875Z</time>
      </trkpt>
      <trkpt lat="20.24111833" lon="-98.74435333">
        <ele>2099.0</ele>
        <time>2019-10-12T16:23:17.879Z</time>
      </trkpt>
      <trkpt lat="20.24110167" lon="-98.74436333">
        <ele>2099.0</ele>
        <time>2019-10-12T16:23:18.885Z</time>
      </trkpt>
      <trkpt lat="20.24109167" lon="-98.74437333">
        <ele>2098.0</ele>
        <time>2019-10-12T16:23:19.891Z</time>
      </trkpt>
      <trkpt lat="20.24108833" lon="-98.74438333">
        <ele>2098.0</ele>
        <time>2019-10-12T16:23:20.893Z</time>
      </trkpt>
      <trkpt lat="20.241085" lon="-98.744395">
        <ele>2098.0</ele>
        <time>2019-10-12T16:23:21.896Z</time>
      </trkpt>
      <trkpt lat="20.24108" lon="-98.74441167">
        <ele>2097.0</ele>
        <time>2019-10-12T16:23:22.899Z</time>
      </trkpt>
      <trkpt lat="20.24107167" lon="-98.74442667">
        <ele>2097.0</ele>
        <time>2019-10-12T16:23:23.904Z</time>
      </trkpt>
      <trkpt lat="20.24106333" lon="-98.744445">
        <ele>2096.0</ele>
        <time>2019-10-12T16:23:24.910Z</time>
      </trkpt>
      <trkpt lat="20.24105333" lon="-98.74446667">
        <ele>2096.0</ele>
        <time>2019-10-12T16:23:25.911Z</time>
      </trkpt>
      <trkpt lat="20.24104833" lon="-98.74449167">
        <ele>2096.0</ele>
        <time>2019-10-12T16:23:26.912Z</time>
      </trkpt>
      <trkpt lat="20.24104167" lon="-98.74451167">
        <ele>2095.0</ele>
        <time>2019-10-12T16:23:27.915Z</time>
      </trkpt>
      <trkpt lat="20.24103667" lon="-98.74453333">
        <ele>2094.0</ele>
        <time>2019-10-12T16:23:28.923Z</time>
      </trkpt>
      <trkpt lat="20.24103" lon="-98.74455667">
        <ele>2094.0</ele>
        <time>2019-10-12T16:23:29.926Z</time>
      </trkpt>
      <trkpt lat="20.24102" lon="-98.74457833">
        <ele>2094.0</ele>
        <time>2019-10-12T16:23:30.931Z</time>
      </trkpt>
      <trkpt lat="20.241005" lon="-98.74459833">
        <ele>2093.0</ele>
        <time>2019-10-12T16:23:31.937Z</time>
      </trkpt>
      <trkpt lat="20.24098833" lon="-98.74461333">
        <ele>2093.0</ele>
        <time>2019-10-12T16:23:32.941Z</time>
      </trkpt>
      <trkpt lat="20.24096833" lon="-98.74461833">
        <ele>2092.0</ele>
        <time>2019-10-12T16:23:33.947Z</time>
      </trkpt>
      <trkpt lat="20.24094333" lon="-98.74461833">
        <ele>2092.0</ele>
        <time>2019-10-12T16:23:34.951Z</time>
      </trkpt>
      <trkpt lat="20.240915" lon="-98.744615">
        <ele>2091.0</ele>
        <time>2019-10-12T16:23:35.831Z</time>
      </trkpt>
      <trkpt lat="20.24089" lon="-98.74460833">
        <ele>2090.0</ele>
        <time>2019-10-12T16:23:36.834Z</time>
      </trkpt>
      <trkpt lat="20.24086667" lon="-98.744605">
        <ele>2090.0</ele>
        <time>2019-10-12T16:23:37.840Z</time>
      </trkpt>
      <trkpt lat="20.24084833" lon="-98.74459333">
        <ele>2090.0</ele>
        <time>2019-10-12T16:23:38.846Z</time>
      </trkpt>
      <trkpt lat="20.24083167" lon="-98.74458333">
        <ele>2090.0</ele>
        <time>2019-10-12T16:23:39.852Z</time>
      </trkpt>
      <trkpt lat="20.240815" lon="-98.744565">
        <ele>2091.0</ele>
        <time>2019-10-12T16:23:40.858Z</time>
      </trkpt>
      <trkpt lat="20.24079333" lon="-98.74455167">
        <ele>2091.0</ele>
        <time>2019-10-12T16:23:41.860Z</time>
      </trkpt>
      <trkpt lat="20.24077" lon="-98.74454167">
        <ele>2091.0</ele>
        <time>2019-10-12T16:23:42.865Z</time>
      </trkpt>
      <trkpt lat="20.24074833" lon="-98.74453">
        <ele>2091.0</ele>
        <time>2019-10-12T16:23:43.868Z</time>
      </trkpt>
      <trkpt lat="20.24073" lon="-98.74452333">
        <ele>2092.0</ele>
        <time>2019-10-12T16:23:44.875Z</time>
      </trkpt>
      <trkpt lat="20.24071" lon="-98.74451667">
        <ele>2092.0</ele>
        <time>2019-10-12T16:23:45.875Z</time>
      </trkpt>
      <trkpt lat="20.24068833" lon="-98.74451167">
        <ele>2092.0</ele>
        <time>2019-10-12T16:23:46.878Z</time>
      </trkpt>
      <trkpt lat="20.24067167" lon="-98.7445">
        <ele>2093.0</ele>
        <time>2019-10-12T16:23:47.883Z</time>
      </trkpt>
      <trkpt lat="20.24066" lon="-98.74448833">
        <ele>2093.0</ele>
        <time>2019-10-12T16:23:48.886Z</time>
      </trkpt>
      <trkpt lat="20.240655" lon="-98.74447833">
        <ele>2094.0</ele>
        <time>2019-10-12T16:23:49.890Z</time>
      </trkpt>
      <trkpt lat="20.24065333" lon="-98.74445333">
        <ele>2095.0</ele>
        <time>2019-10-12T16:23:50.895Z</time>
      </trkpt>
      <trkpt lat="20.24065167" lon="-98.744425">
        <ele>2097.0</ele>
        <time>2019-10-12T16:23:51.897Z</time>
      </trkpt>
      <trkpt lat="20.240645" lon="-98.74439833">
        <ele>2098.0</ele>
        <time>2019-10-12T16:23:52.901Z</time>
      </trkpt>
      <trkpt lat="20.24063167" lon="-98.74438">
        <ele>2098.0</ele>
        <time>2019-10-12T16:23:53.904Z</time>
      </trkpt>
      <trkpt lat="20.240625" lon="-98.74436">
        <ele>2098.0</ele>
        <time>2019-10-12T16:23:54.910Z</time>
      </trkpt>
      <trkpt lat="20.24061333" lon="-98.74433667">
        <ele>2098.0</ele>
        <time>2019-10-12T16:23:55.918Z</time>
      </trkpt>
      <trkpt lat="20.24059667" lon="-98.74431833">
        <ele>2098.0</ele>
        <time>2019-10-12T16:23:56.924Z</time>
      </trkpt>
      <trkpt lat="20.24058333" lon="-98.744305">
        <ele>2098.0</ele>
        <time>2019-10-12T16:23:57.931Z</time>
      </trkpt>
      <trkpt lat="20.24056833" lon="-98.744295">
        <ele>2099.0</ele>
        <time>2019-10-12T16:23:58.933Z</time>
      </trkpt>
      <trkpt lat="20.24055667" lon="-98.744285">
        <ele>2099.0</ele>
        <time>2019-10-12T16:23:59.934Z</time>
      </trkpt>
      <trkpt lat="20.24054833" lon="-98.744275">
        <ele>2098.0</ele>
        <time>2019-10-12T16:24:00.936Z</time>
      </trkpt>
      <trkpt lat="20.240535" lon="-98.74426">
        <ele>2097.0</ele>
        <time>2019-10-12T16:24:01.936Z</time>
      </trkpt>
      <trkpt lat="20.24052" lon="-98.74424667">
        <ele>2097.0</ele>
        <time>2019-10-12T16:24:02.937Z</time>
      </trkpt>
      <trkpt lat="20.240505" lon="-98.74423">
        <ele>2096.0</ele>
        <time>2019-10-12T16:24:03.938Z</time>
      </trkpt>
      <trkpt lat="20.24049167" lon="-98.74421">
        <ele>2096.0</ele>
        <time>2019-10-12T16:24:04.938Z</time>
      </trkpt>
      <trkpt lat="20.24047333" lon="-98.744195">
        <ele>2096.0</ele>
        <time>2019-10-12T16:24:05.939Z</time>
      </trkpt>
      <trkpt lat="20.240455" lon="-98.74418167">
        <ele>2095.0</ele>
        <time>2019-10-12T16:24:06.940Z</time>
      </trkpt>
      <trkpt lat="20.24043833" lon="-98.744165">
        <ele>2095.0</ele>
        <time>2019-10-12T16:24:07.940Z</time>
      </trkpt>
      <trkpt lat="20.24042" lon="-98.74414333">
        <ele>2095.0</ele>
        <time>2019-10-12T16:24:08.942Z</time>
      </trkpt>
      <trkpt lat="20.24041167" lon="-98.74412333">
        <ele>2095.0</ele>
        <time>2019-10-12T16:24:09.943Z</time>
      </trkpt>
      <trkpt lat="20.24040333" lon="-98.74410833">
        <ele>2095.0</ele>
        <time>2019-10-12T16:24:10.945Z</time>
      </trkpt>
      <trkpt lat="20.24038833" lon="-98.74409167">
        <ele>2095.0</ele>
        <time>2019-10-12T16:24:11.952Z</time>
      </trkpt>
      <trkpt lat="20.24037333" lon="-98.74407">
        <ele>2095.0</ele>
        <time>2019-10-12T16:24:12.955Z</time>
      </trkpt>
      <trkpt lat="20.24036" lon="-98.74405167">
        <ele>2095.0</ele>
        <time>2019-10-12T16:24:13.836Z</time>
      </trkpt>
      <trkpt lat="20.24034667" lon="-98.74404">
        <ele>2095.0</ele>
        <time>2019-10-12T16:24:14.836Z</time>
      </trkpt>
      <trkpt lat="20.24033333" lon="-98.74403">
        <ele>2095.0</ele>
        <time>2019-10-12T16:24:15.842Z</time>
      </trkpt>
      <trkpt lat="20.24032333" lon="-98.744025">
        <ele>2095.0</ele>
        <time>2019-10-12T16:24:16.843Z</time>
      </trkpt>
      <trkpt lat="20.24031833" lon="-98.74402667">
        <ele>2095.0</ele>
        <time>2019-10-12T16:24:17.849Z</time>
      </trkpt>
      <trkpt lat="20.24031667" lon="-98.74402833">
        <ele>2095.0</ele>
        <time>2019-10-12T16:24:18.855Z</time>
      </trkpt>
      <trkpt lat="20.240315" lon="-98.74403167">
        <ele>2095.0</ele>
        <time>2019-10-12T16:24:19.857Z</time>
      </trkpt>
      <trkpt lat="20.24031167" lon="-98.74403">
        <ele>2096.0</ele>
        <time>2019-10-12T16:24:20.863Z</time>
      </trkpt>
      <trkpt lat="20.24031" lon="-98.74402667">
        <ele>2096.0</ele>
        <time>2019-10-12T16:24:21.869Z</time>
      </trkpt>
      <trkpt lat="20.24030833" lon="-98.74403">
        <ele>2095.0</ele>
        <time>2019-10-12T16:24:22.877Z</time>
      </trkpt>
      <trkpt lat="20.24030667" lon="-98.74403">
        <ele>2095.0</ele>
        <time>2019-10-12T16:24:23.884Z</time>
      </trkpt>
      <trkpt lat="20.24030833" lon="-98.74403167">
        <ele>2095.0</ele>
        <time>2019-10-12T16:24:24.886Z</time>
      </trkpt>
      <trkpt lat="20.24030833" lon="-98.744035">
        <ele>2094.0</ele>
        <time>2019-10-12T16:24:25.886Z</time>
      </trkpt>
      <trkpt lat="20.24030833" lon="-98.74403833">
        <ele>2094.0</ele>
        <time>2019-10-12T16:24:26.890Z</time>
      </trkpt>
      <trkpt lat="20.24030333" lon="-98.74403667">
        <ele>2094.0</ele>
        <time>2019-10-12T16:24:27.898Z</time>
      </trkpt>
      <trkpt lat="20.24029667" lon="-98.74403167">
        <ele>2094.0</ele>
        <time>2019-10-12T16:24:28.905Z</time>
      </trkpt>
      <trkpt lat="20.24029" lon="-98.744025">
        <ele>2094.0</ele>
        <time>2019-10-12T16:24:29.909Z</time>
      </trkpt>
      <trkpt lat="20.24027833" lon="-98.74401167">
        <ele>2094.0</ele>
        <time>2019-10-12T16:24:30.915Z</time>
      </trkpt>
      <trkpt lat="20.24026833" lon="-98.74399667">
        <ele>2094.0</ele>
        <time>2019-10-12T16:24:31.919Z</time>
      </trkpt>
      <trkpt lat="20.24025667" lon="-98.74398333">
        <ele>2094.0</ele>
        <time>2019-10-12T16:24:32.920Z</time>
      </trkpt>
      <trkpt lat="20.24024333" lon="-98.74396833">
        <ele>2095.0</ele>
        <time>2019-10-12T16:24:33.920Z</time>
      </trkpt>
      <trkpt lat="20.24022667" lon="-98.74395333">
        <ele>2095.0</ele>
        <time>2019-10-12T16:24:34.927Z</time>
      </trkpt>
      <trkpt lat="20.24021" lon="-98.743945">
        <ele>2094.0</ele>
        <time>2019-10-12T16:24:35.932Z</time>
      </trkpt>
      <trkpt lat="20.240195" lon="-98.743935">
        <ele>2094.0</ele>
        <time>2019-10-12T16:24:36.936Z</time>
      </trkpt>
      <trkpt lat="20.24018333" lon="-98.74392167">
        <ele>2094.0</ele>
        <time>2019-10-12T16:24:37.942Z</time>
      </trkpt>
      <trkpt lat="20.24017167" lon="-98.74391333">
        <ele>2094.0</ele>
        <time>2019-10-12T16:24:38.948Z</time>
      </trkpt>
      <trkpt lat="20.24015667" lon="-98.74390667">
        <ele>2094.0</ele>
        <time>2019-10-12T16:24:39.955Z</time>
      </trkpt>
      <trkpt lat="20.240145" lon="-98.743905">
        <ele>2094.0</ele>
        <time>2019-10-12T16:24:40.832Z</time>
      </trkpt>
      <trkpt lat="20.24013333" lon="-98.74390833">
        <ele>2094.0</ele>
        <time>2019-10-12T16:24:41.833Z</time>
      </trkpt>
      <trkpt lat="20.24012167" lon="-98.74390833">
        <ele>2095.0</ele>
        <time>2019-10-12T16:24:42.834Z</time>
      </trkpt>
      <trkpt lat="20.24011" lon="-98.74391167">
        <ele>2095.0</ele>
        <time>2019-10-12T16:24:43.835Z</time>
      </trkpt>
      <trkpt lat="20.24009333" lon="-98.74391">
        <ele>2094.0</ele>
        <time>2019-10-12T16:24:44.835Z</time>
      </trkpt>
      <trkpt lat="20.24008" lon="-98.743905">
        <ele>2094.0</ele>
        <time>2019-10-12T16:24:45.836Z</time>
      </trkpt>
      <trkpt lat="20.240065" lon="-98.74390167">
        <ele>2094.0</ele>
        <time>2019-10-12T16:24:46.837Z</time>
      </trkpt>
      <trkpt lat="20.24004667" lon="-98.74389667">
        <ele>2093.0</ele>
        <time>2019-10-12T16:24:47.838Z</time>
      </trkpt>
      <trkpt lat="20.24002667" lon="-98.74389167">
        <ele>2093.0</ele>
        <time>2019-10-12T16:24:48.839Z</time>
      </trkpt>
      <trkpt lat="20.24001167" lon="-98.74388833">
        <ele>2093.0</ele>
        <time>2019-10-12T16:24:49.839Z</time>
      </trkpt>
      <trkpt lat="20.23999667" lon="-98.74388333">
        <ele>2093.0</ele>
        <time>2019-10-12T16:24:50.840Z</time>
      </trkpt>
      <trkpt lat="20.23998" lon="-98.74387833">
        <ele>2092.0</ele>
        <time>2019-10-12T16:24:51.841Z</time>
      </trkpt>
      <trkpt lat="20.23996167" lon="-98.74387167">
        <ele>2092.0</ele>
        <time>2019-10-12T16:24:52.842Z</time>
      </trkpt>
      <trkpt lat="20.23994" lon="-98.74387">
        <ele>2092.0</ele>
        <time>2019-10-12T16:24:53.849Z</time>
      </trkpt>
      <trkpt lat="20.23992" lon="-98.74386833">
        <ele>2091.0</ele>
        <time>2019-10-12T16:24:54.853Z</time>
      </trkpt>
      <trkpt lat="20.23990167" lon="-98.74386667">
        <ele>2091.0</ele>
        <time>2019-10-12T16:24:55.858Z</time>
      </trkpt>
      <trkpt lat="20.239885" lon="-98.74386167">
        <ele>2091.0</ele>
        <time>2019-10-12T16:24:56.865Z</time>
      </trkpt>
      <trkpt lat="20.239865" lon="-98.74385833">
        <ele>2090.0</ele>
        <time>2019-10-12T16:24:57.870Z</time>
      </trkpt>
      <trkpt lat="20.239845" lon="-98.743855">
        <ele>2090.0</ele>
        <time>2019-10-12T16:24:58.876Z</time>
      </trkpt>
      <trkpt lat="20.23982167" lon="-98.74385167">
        <ele>2089.0</ele>
        <time>2019-10-12T16:24:59.881Z</time>
      </trkpt>
      <trkpt lat="20.23979833" lon="-98.74385167">
        <ele>2089.0</ele>
        <time>2019-10-12T16:25:00.887Z</time>
      </trkpt>
      <trkpt lat="20.23978333" lon="-98.74385667">
        <ele>2088.0</ele>
        <time>2019-10-12T16:25:01.892Z</time>
      </trkpt>
      <trkpt lat="20.239775" lon="-98.74386">
        <ele>2088.0</ele>
        <time>2019-10-12T16:25:02.894Z</time>
      </trkpt>
      <trkpt lat="20.239765" lon="-98.74386167">
        <ele>2087.0</ele>
        <time>2019-10-12T16:25:03.899Z</time>
      </trkpt>
      <trkpt lat="20.23975167" lon="-98.74386333">
        <ele>2087.0</ele>
        <time>2019-10-12T16:25:04.904Z</time>
      </trkpt>
      <trkpt lat="20.23973667" lon="-98.74386333">
        <ele>2086.0</ele>
        <time>2019-10-12T16:25:05.909Z</time>
      </trkpt>
      <trkpt lat="20.23972167" lon="-98.743865">
        <ele>2085.0</ele>
        <time>2019-10-12T16:25:06.915Z</time>
      </trkpt>
      <trkpt lat="20.23970667" lon="-98.74387">
        <ele>2085.0</ele>
        <time>2019-10-12T16:25:07.916Z</time>
      </trkpt>
      <trkpt lat="20.23969167" lon="-98.74387667">
        <ele>2085.0</ele>
        <time>2019-10-12T16:25:08.917Z</time>
      </trkpt>
      <trkpt lat="20.239675" lon="-98.74388167">
        <ele>2084.0</ele>
        <time>2019-10-12T16:25:09.918Z</time>
      </trkpt>
      <trkpt lat="20.23966333" lon="-98.74388667">
        <ele>2083.0</ele>
        <time>2019-10-12T16:25:10.922Z</time>
      </trkpt>
      <trkpt lat="20.23964833" lon="-98.743895">
        <ele>2082.0</ele>
        <time>2019-10-12T16:25:11.929Z</time>
      </trkpt>
      <trkpt lat="20.23963" lon="-98.74390167">
        <ele>2081.0</ele>
        <time>2019-10-12T16:25:12.931Z</time>
      </trkpt>
      <trkpt lat="20.23961167" lon="-98.74391">
        <ele>2081.0</ele>
        <time>2019-10-12T16:25:13.936Z</time>
      </trkpt>
      <trkpt lat="20.23959333" lon="-98.74392167">
        <ele>2081.0</ele>
        <time>2019-10-12T16:25:14.938Z</time>
      </trkpt>
      <trkpt lat="20.23958" lon="-98.74393833">
        <ele>2081.0</ele>
        <time>2019-10-12T16:25:15.943Z</time>
      </trkpt>
      <trkpt lat="20.23956833" lon="-98.743955">
        <ele>2081.0</ele>
        <time>2019-10-12T16:25:16.947Z</time>
      </trkpt>
      <trkpt lat="20.239555" lon="-98.74396667">
        <ele>2081.0</ele>
        <time>2019-10-12T16:25:17.954Z</time>
      </trkpt>
      <trkpt lat="20.23953833" lon="-98.74397667">
        <ele>2080.0</ele>
        <time>2019-10-12T16:25:18.835Z</time>
      </trkpt>
      <trkpt lat="20.23952333" lon="-98.74398667">
        <ele>2080.0</ele>
        <time>2019-10-12T16:25:19.843Z</time>
      </trkpt>
      <trkpt lat="20.239505" lon="-98.74399333">
        <ele>2079.0</ele>
        <time>2019-10-12T16:25:20.846Z</time>
      </trkpt>
      <trkpt lat="20.23948333" lon="-98.74399833">
        <ele>2079.0</ele>
        <time>2019-10-12T16:25:21.852Z</time>
      </trkpt>
      <trkpt lat="20.23946333" lon="-98.74400667">
        <ele>2079.0</ele>
        <time>2019-10-12T16:25:22.858Z</time>
      </trkpt>
      <trkpt lat="20.23944167" lon="-98.74401667">
        <ele>2078.0</ele>
        <time>2019-10-12T16:25:23.863Z</time>
      </trkpt>
      <trkpt lat="20.23942333" lon="-98.74402333">
        <ele>2078.0</ele>
        <time>2019-10-12T16:25:24.865Z</time>
      </trkpt>
      <trkpt lat="20.23940333" lon="-98.74403167">
        <ele>2077.0</ele>
        <time>2019-10-12T16:25:25.866Z</time>
      </trkpt>
      <trkpt lat="20.23938667" lon="-98.74404333">
        <ele>2076.0</ele>
        <time>2019-10-12T16:25:26.867Z</time>
      </trkpt>
      <trkpt lat="20.23937" lon="-98.74405">
        <ele>2076.0</ele>
        <time>2019-10-12T16:25:27.872Z</time>
      </trkpt>
      <trkpt lat="20.239355" lon="-98.74405333">
        <ele>2075.0</ele>
        <time>2019-10-12T16:25:28.874Z</time>
      </trkpt>
      <trkpt lat="20.23934" lon="-98.74405833">
        <ele>2074.0</ele>
        <time>2019-10-12T16:25:29.876Z</time>
      </trkpt>
      <trkpt lat="20.239325" lon="-98.744065">
        <ele>2074.0</ele>
        <time>2019-10-12T16:25:30.881Z</time>
      </trkpt>
      <trkpt lat="20.239305" lon="-98.74407167">
        <ele>2074.0</ele>
        <time>2019-10-12T16:25:31.886Z</time>
      </trkpt>
      <trkpt lat="20.23929" lon="-98.74407667">
        <ele>2074.0</ele>
        <time>2019-10-12T16:25:32.893Z</time>
      </trkpt>
      <trkpt lat="20.239275" lon="-98.74408">
        <ele>2074.0</ele>
        <time>2019-10-12T16:25:33.895Z</time>
      </trkpt>
      <trkpt lat="20.23925667" lon="-98.74407667">
        <ele>2074.0</ele>
        <time>2019-10-12T16:25:34.901Z</time>
      </trkpt>
      <trkpt lat="20.23923833" lon="-98.74407">
        <ele>2074.0</ele>
        <time>2019-10-12T16:25:35.905Z</time>
      </trkpt>
      <trkpt lat="20.23922" lon="-98.744065">
        <ele>2073.0</ele>
        <time>2019-10-12T16:25:36.906Z</time>
      </trkpt>
      <trkpt lat="20.2392" lon="-98.74406">
        <ele>2073.0</ele>
        <time>2019-10-12T16:25:37.913Z</time>
      </trkpt>
      <trkpt lat="20.23918" lon="-98.74405667">
        <ele>2073.0</ele>
        <time>2019-10-12T16:25:38.918Z</time>
      </trkpt>
      <trkpt lat="20.23915833" lon="-98.744055">
        <ele>2073.0</ele>
        <time>2019-10-12T16:25:39.924Z</time>
      </trkpt>
      <trkpt lat="20.23913833" lon="-98.74405333">
        <ele>2072.0</ele>
        <time>2019-10-12T16:25:40.928Z</time>
      </trkpt>
      <trkpt lat="20.23911833" lon="-98.744045">
        <ele>2072.0</ele>
        <time>2019-10-12T16:25:41.929Z</time>
      </trkpt>
      <trkpt lat="20.2391" lon="-98.74403667">
        <ele>2072.0</ele>
        <time>2019-10-12T16:25:42.935Z</time>
      </trkpt>
      <trkpt lat="20.239075" lon="-98.74403">
        <ele>2072.0</ele>
        <time>2019-10-12T16:25:43.941Z</time>
      </trkpt>
      <trkpt lat="20.23905333" lon="-98.74403167">
        <ele>2071.0</ele>
        <time>2019-10-12T16:25:44.943Z</time>
      </trkpt>
      <trkpt lat="20.23903" lon="-98.74403">
        <ele>2071.0</ele>
        <time>2019-10-12T16:25:45.944Z</time>
      </trkpt>
      <trkpt lat="20.23900667" lon="-98.744025">
        <ele>2070.0</ele>
        <time>2019-10-12T16:25:46.945Z</time>
      </trkpt>
      <trkpt lat="20.23898333" lon="-98.74402333">
        <ele>2069.0</ele>
        <time>2019-10-12T16:25:47.946Z</time>
      </trkpt>
      <trkpt lat="20.23896" lon="-98.74402333">
        <ele>2069.0</ele>
        <time>2019-10-12T16:25:48.947Z</time>
      </trkpt>
      <trkpt lat="20.23894167" lon="-98.74402">
        <ele>2069.0</ele>
        <time>2019-10-12T16:25:49.951Z</time>
      </trkpt>
      <trkpt lat="20.23892833" lon="-98.74402">
        <ele>2069.0</ele>
        <time>2019-10-12T16:25:50.832Z</time>
      </trkpt>
      <trkpt lat="20.23891667" lon="-98.74402">
        <ele>2069.0</ele>
        <time>2019-10-12T16:25:51.839Z</time>
      </trkpt>
      <trkpt lat="20.238905" lon="-98.744025">
        <ele>2069.0</ele>
        <time>2019-10-12T16:25:52.846Z</time>
      </trkpt>
      <trkpt lat="20.23889" lon="-98.74403167">
        <ele>2069.0</ele>
        <time>2019-10-12T16:25:53.852Z</time>
      </trkpt>
      <trkpt lat="20.238875" lon="-98.74404">
        <ele>2069.0</ele>
        <time>2019-10-12T16:25:54.858Z</time>
      </trkpt>
      <trkpt lat="20.23886333" lon="-98.74404">
        <ele>2069.0</ele>
        <time>2019-10-12T16:25:55.863Z</time>
      </trkpt>
      <trkpt lat="20.23885" lon="-98.74403667">
        <ele>2069.0</ele>
        <time>2019-10-12T16:25:56.868Z</time>
      </trkpt>
      <trkpt lat="20.23883833" lon="-98.74403333">
        <ele>2068.0</ele>
        <time>2019-10-12T16:25:57.872Z</time>
      </trkpt>
      <trkpt lat="20.23883333" lon="-98.74402667">
        <ele>2068.0</ele>
        <time>2019-10-12T16:25:58.878Z</time>
      </trkpt>
      <trkpt lat="20.23882667" lon="-98.744015">
        <ele>2067.0</ele>
        <time>2019-10-12T16:25:59.885Z</time>
      </trkpt>
      <trkpt lat="20.23882" lon="-98.744">
        <ele>2067.0</ele>
        <time>2019-10-12T16:26:00.891Z</time>
      </trkpt>
      <trkpt lat="20.23881167" lon="-98.74398667">
        <ele>2066.0</ele>
        <time>2019-10-12T16:26:01.893Z</time>
      </trkpt>
      <trkpt lat="20.23879833" lon="-98.74397667">
        <ele>2066.0</ele>
        <time>2019-10-12T16:26:02.894Z</time>
      </trkpt>
      <trkpt lat="20.23878333" lon="-98.74397">
        <ele>2066.0</ele>
        <time>2019-10-12T16:26:03.895Z</time>
      </trkpt>
      <trkpt lat="20.23877167" lon="-98.74396667">
        <ele>2066.0</ele>
        <time>2019-10-12T16:26:04.895Z</time>
      </trkpt>
      <trkpt lat="20.23875833" lon="-98.743965">
        <ele>2066.0</ele>
        <time>2019-10-12T16:26:05.896Z</time>
      </trkpt>
      <trkpt lat="20.23874667" lon="-98.74396667">
        <ele>2065.0</ele>
        <time>2019-10-12T16:26:06.897Z</time>
      </trkpt>
      <trkpt lat="20.23873333" lon="-98.743965">
        <ele>2064.0</ele>
        <time>2019-10-12T16:26:07.900Z</time>
      </trkpt>
      <trkpt lat="20.23872" lon="-98.74396167">
        <ele>2063.0</ele>
        <time>2019-10-12T16:26:08.906Z</time>
      </trkpt>
      <trkpt lat="20.238705" lon="-98.74396167">
        <ele>2062.0</ele>
        <time>2019-10-12T16:26:09.912Z</time>
      </trkpt>
      <trkpt lat="20.23868833" lon="-98.74396333">
        <ele>2062.0</ele>
        <time>2019-10-12T16:26:10.916Z</time>
      </trkpt>
      <trkpt lat="20.23867167" lon="-98.74396">
        <ele>2061.0</ele>
        <time>2019-10-12T16:26:11.921Z</time>
      </trkpt>
      <trkpt lat="20.23866" lon="-98.74394667">
        <ele>2061.0</ele>
        <time>2019-10-12T16:26:12.924Z</time>
      </trkpt>
      <trkpt lat="20.23865333" lon="-98.74392667">
        <ele>2061.0</ele>
        <time>2019-10-12T16:26:13.931Z</time>
      </trkpt>
      <trkpt lat="20.23864833" lon="-98.74390833">
        <ele>2060.0</ele>
        <time>2019-10-12T16:26:14.937Z</time>
      </trkpt>
      <trkpt lat="20.238645" lon="-98.74388667">
        <ele>2059.0</ele>
        <time>2019-10-12T16:26:15.940Z</time>
      </trkpt>
      <trkpt lat="20.23864" lon="-98.74386667">
        <ele>2058.0</ele>
        <time>2019-10-12T16:26:16.948Z</time>
      </trkpt>
      <trkpt lat="20.23863333" lon="-98.74384167">
        <ele>2057.0</ele>
        <time>2019-10-12T16:26:17.953Z</time>
      </trkpt>
      <trkpt lat="20.23862833" lon="-98.74381833">
        <ele>2057.0</ele>
        <time>2019-10-12T16:26:18.834Z</time>
      </trkpt>
      <trkpt lat="20.23862167" lon="-98.74379167">
        <ele>2056.0</ele>
        <time>2019-10-12T16:26:19.838Z</time>
      </trkpt>
      <trkpt lat="20.23861" lon="-98.74376833">
        <ele>2056.0</ele>
        <time>2019-10-12T16:26:20.842Z</time>
      </trkpt>
      <trkpt lat="20.238595" lon="-98.74374667">
        <ele>2055.0</ele>
        <time>2019-10-12T16:26:21.843Z</time>
      </trkpt>
      <trkpt lat="20.23857833" lon="-98.74373">
        <ele>2054.0</ele>
        <time>2019-10-12T16:26:22.844Z</time>
      </trkpt>
      <trkpt lat="20.23855833" lon="-98.74371667">
        <ele>2053.0</ele>
        <time>2019-10-12T16:26:23.845Z</time>
      </trkpt>
      <trkpt lat="20.23853667" lon="-98.743705">
        <ele>2053.0</ele>
        <time>2019-10-12T16:26:24.845Z</time>
      </trkpt>
      <trkpt lat="20.238515" lon="-98.743695">
        <ele>2052.0</ele>
        <time>2019-10-12T16:26:25.846Z</time>
      </trkpt>
      <trkpt lat="20.23849667" lon="-98.74368667">
        <ele>2052.0</ele>
        <time>2019-10-12T16:26:26.847Z</time>
      </trkpt>
      <trkpt lat="20.23847833" lon="-98.743675">
        <ele>2051.0</ele>
        <time>2019-10-12T16:26:27.848Z</time>
      </trkpt>
      <trkpt lat="20.23846167" lon="-98.74366667">
        <ele>2050.0</ele>
        <time>2019-10-12T16:26:28.849Z</time>
      </trkpt>
      <trkpt lat="20.23844333" lon="-98.743655">
        <ele>2049.0</ele>
        <time>2019-10-12T16:26:29.849Z</time>
      </trkpt>
      <trkpt lat="20.23842667" lon="-98.743645">
        <ele>2049.0</ele>
        <time>2019-10-12T16:26:30.850Z</time>
      </trkpt>
      <trkpt lat="20.23841" lon="-98.74363333">
        <ele>2048.0</ele>
        <time>2019-10-12T16:26:31.851Z</time>
      </trkpt>
      <trkpt lat="20.23839167" lon="-98.743625">
        <ele>2048.0</ele>
        <time>2019-10-12T16:26:32.852Z</time>
      </trkpt>
      <trkpt lat="20.23837833" lon="-98.74362">
        <ele>2048.0</ele>
        <time>2019-10-12T16:26:33.852Z</time>
      </trkpt>
      <trkpt lat="20.23836333" lon="-98.74361333">
        <ele>2047.0</ele>
        <time>2019-10-12T16:26:34.852Z</time>
      </trkpt>
      <trkpt lat="20.23834833" lon="-98.74360167">
        <ele>2046.0</ele>
        <time>2019-10-12T16:26:35.853Z</time>
      </trkpt>
      <trkpt lat="20.23833" lon="-98.74359">
        <ele>2045.0</ele>
        <time>2019-10-12T16:26:36.854Z</time>
      </trkpt>
      <trkpt lat="20.23831167" lon="-98.74357667">
        <ele>2045.0</ele>
        <time>2019-10-12T16:26:37.855Z</time>
      </trkpt>
      <trkpt lat="20.23828833" lon="-98.743565">
        <ele>2044.0</ele>
        <time>2019-10-12T16:26:38.856Z</time>
      </trkpt>
      <trkpt lat="20.23826333" lon="-98.74356">
        <ele>2044.0</ele>
        <time>2019-10-12T16:26:39.857Z</time>
      </trkpt>
      <trkpt lat="20.23823667" lon="-98.743555">
        <ele>2044.0</ele>
        <time>2019-10-12T16:26:40.857Z</time>
      </trkpt>
      <trkpt lat="20.23821333" lon="-98.74355667">
        <ele>2043.0</ele>
        <time>2019-10-12T16:26:41.858Z</time>
      </trkpt>
      <trkpt lat="20.23818667" lon="-98.74355667">
        <ele>2043.0</ele>
        <time>2019-10-12T16:26:42.858Z</time>
      </trkpt>
      <trkpt lat="20.23816" lon="-98.74356">
        <ele>2042.0</ele>
        <time>2019-10-12T16:26:43.859Z</time>
      </trkpt>
      <trkpt lat="20.23813" lon="-98.74356">
        <ele>2042.0</ele>
        <time>2019-10-12T16:26:44.860Z</time>
      </trkpt>
      <trkpt lat="20.23810333" lon="-98.74355167">
        <ele>2042.0</ele>
        <time>2019-10-12T16:26:45.861Z</time>
      </trkpt>
      <trkpt lat="20.23808" lon="-98.74354">
        <ele>2042.0</ele>
        <time>2019-10-12T16:26:46.862Z</time>
      </trkpt>
      <trkpt lat="20.238055" lon="-98.74352667">
        <ele>2042.0</ele>
        <time>2019-10-12T16:26:47.866Z</time>
      </trkpt>
      <trkpt lat="20.23803333" lon="-98.74351167">
        <ele>2042.0</ele>
        <time>2019-10-12T16:26:48.873Z</time>
      </trkpt>
      <trkpt lat="20.23801167" lon="-98.743495">
        <ele>2042.0</ele>
        <time>2019-10-12T16:26:49.877Z</time>
      </trkpt>
      <trkpt lat="20.23798667" lon="-98.74348">
        <ele>2042.0</ele>
        <time>2019-10-12T16:26:50.882Z</time>
      </trkpt>
      <trkpt lat="20.23796333" lon="-98.74346833">
        <ele>2042.0</ele>
        <time>2019-10-12T16:26:51.888Z</time>
      </trkpt>
      <trkpt lat="20.23793833" lon="-98.74346">
        <ele>2042.0</ele>
        <time>2019-10-12T16:26:52.894Z</time>
      </trkpt>
      <trkpt lat="20.23791167" lon="-98.743455">
        <ele>2041.0</ele>
        <time>2019-10-12T16:26:53.896Z</time>
      </trkpt>
      <trkpt lat="20.23788667" lon="-98.74345167">
        <ele>2041.0</ele>
        <time>2019-10-12T16:26:54.899Z</time>
      </trkpt>
      <trkpt lat="20.23786333" lon="-98.74345167">
        <ele>2040.0</ele>
        <time>2019-10-12T16:26:55.902Z</time>
      </trkpt>
      <trkpt lat="20.23786167" lon="-98.74346833">
        <ele>2040.0</ele>
        <time>2019-10-12T16:26:56.907Z</time>
      </trkpt>
      <trkpt lat="20.23786167" lon="-98.74346833">
        <ele>2040.0</ele>
        <time>2019-10-12T16:26:57.910Z</time>
      </trkpt>
      <trkpt lat="20.23786167" lon="-98.74346833">
        <ele>2040.0</ele>
        <time>2019-10-12T16:26:58.911Z</time>
      </trkpt>
      <trkpt lat="20.23786167" lon="-98.74346833">
        <ele>2040.0</ele>
        <time>2019-10-12T16:26:59.912Z</time>
      </trkpt>
      <trkpt lat="20.23785833" lon="-98.74346667">
        <ele>2040.0</ele>
        <time>2019-10-12T16:27:00.916Z</time>
      </trkpt>
      <trkpt lat="20.237845" lon="-98.74346333">
        <ele>2040.0</ele>
        <time>2019-10-12T16:27:01.923Z</time>
      </trkpt>
      <trkpt lat="20.23783" lon="-98.74346">
        <ele>2040.0</ele>
        <time>2019-10-12T16:27:02.929Z</time>
      </trkpt>
      <trkpt lat="20.23781333" lon="-98.743455">
        <ele>2040.0</ele>
        <time>2019-10-12T16:27:03.934Z</time>
      </trkpt>
      <trkpt lat="20.237795" lon="-98.74345167">
        <ele>2040.0</ele>
        <time>2019-10-12T16:27:04.940Z</time>
      </trkpt>
      <trkpt lat="20.23777833" lon="-98.74345167">
        <ele>2040.0</ele>
        <time>2019-10-12T16:27:05.945Z</time>
      </trkpt>
      <trkpt lat="20.23775667" lon="-98.74344833">
        <ele>2039.0</ele>
        <time>2019-10-12T16:27:06.952Z</time>
      </trkpt>
      <trkpt lat="20.23773833" lon="-98.74344333">
        <ele>2040.0</ele>
        <time>2019-10-12T16:27:07.833Z</time>
      </trkpt>
      <trkpt lat="20.23771833" lon="-98.74344">
        <ele>2039.0</ele>
        <time>2019-10-12T16:27:08.835Z</time>
      </trkpt>
      <trkpt lat="20.23770167" lon="-98.74343167">
        <ele>2039.0</ele>
        <time>2019-10-12T16:27:09.839Z</time>
      </trkpt>
      <trkpt lat="20.23768667" lon="-98.74342333">
        <ele>2038.0</ele>
        <time>2019-10-12T16:27:10.842Z</time>
      </trkpt>
      <trkpt lat="20.23767167" lon="-98.74341833">
        <ele>2038.0</ele>
        <time>2019-10-12T16:27:11.847Z</time>
      </trkpt>
      <trkpt lat="20.237655" lon="-98.74341667">
        <ele>2038.0</ele>
        <time>2019-10-12T16:27:12.853Z</time>
      </trkpt>
      <trkpt lat="20.23764167" lon="-98.74341667">
        <ele>2037.0</ele>
        <time>2019-10-12T16:27:13.859Z</time>
      </trkpt>
      <trkpt lat="20.23762667" lon="-98.74341667">
        <ele>2037.0</ele>
        <time>2019-10-12T16:27:14.860Z</time>
      </trkpt>
      <trkpt lat="20.23761333" lon="-98.74341167">
        <ele>2037.0</ele>
        <time>2019-10-12T16:27:15.866Z</time>
      </trkpt>
      <trkpt lat="20.23760167" lon="-98.74340833">
        <ele>2037.0</ele>
        <time>2019-10-12T16:27:16.872Z</time>
      </trkpt>
      <trkpt lat="20.23759" lon="-98.743405">
        <ele>2037.0</ele>
        <time>2019-10-12T16:27:17.875Z</time>
      </trkpt>
      <trkpt lat="20.23757833" lon="-98.74339667">
        <ele>2037.0</ele>
        <time>2019-10-12T16:27:18.879Z</time>
      </trkpt>
      <trkpt lat="20.23756833" lon="-98.74339">
        <ele>2037.0</ele>
        <time>2019-10-12T16:27:19.885Z</time>
      </trkpt>
      <trkpt lat="20.23756" lon="-98.743385">
        <ele>2037.0</ele>
        <time>2019-10-12T16:27:20.890Z</time>
      </trkpt>
      <trkpt lat="20.23754833" lon="-98.74338">
        <ele>2038.0</ele>
        <time>2019-10-12T16:27:21.891Z</time>
      </trkpt>
      <trkpt lat="20.23754167" lon="-98.74337833">
        <ele>2038.0</ele>
        <time>2019-10-12T16:27:22.895Z</time>
      </trkpt>
      <trkpt lat="20.23754333" lon="-98.74336667">
        <ele>2035.0</ele>
        <time>2019-10-12T16:27:23.899Z</time>
      </trkpt>
      <trkpt lat="20.23754333" lon="-98.74336667">
        <ele>2035.0</ele>
        <time>2019-10-12T16:27:24.902Z</time>
      </trkpt>
      <trkpt lat="20.23754333" lon="-98.74336833">
        <ele>2035.0</ele>
        <time>2019-10-12T16:27:25.907Z</time>
      </trkpt>
      <trkpt lat="20.23754333" lon="-98.74336833">
        <ele>2035.0</ele>
        <time>2019-10-12T16:27:26.915Z</time>
      </trkpt>
      <trkpt lat="20.23754" lon="-98.74337">
        <ele>2035.0</ele>
        <time>2019-10-12T16:27:27.922Z</time>
      </trkpt>
      <trkpt lat="20.23753" lon="-98.74337">
        <ele>2034.0</ele>
        <time>2019-10-12T16:27:28.927Z</time>
      </trkpt>
      <trkpt lat="20.23751833" lon="-98.743365">
        <ele>2033.0</ele>
        <time>2019-10-12T16:27:29.930Z</time>
      </trkpt>
      <trkpt lat="20.23751" lon="-98.74336667">
        <ele>2033.0</ele>
        <time>2019-10-12T16:27:30.934Z</time>
      </trkpt>
      <trkpt lat="20.2375" lon="-98.74337333">
        <ele>2032.0</ele>
        <time>2019-10-12T16:27:31.941Z</time>
      </trkpt>
      <trkpt lat="20.23748833" lon="-98.74338167">
        <ele>2031.0</ele>
        <time>2019-10-12T16:27:32.944Z</time>
      </trkpt>
      <trkpt lat="20.23748" lon="-98.743395">
        <ele>2030.0</ele>
        <time>2019-10-12T16:27:33.945Z</time>
      </trkpt>
      <trkpt lat="20.23747667" lon="-98.74341">
        <ele>2030.0</ele>
        <time>2019-10-12T16:27:34.946Z</time>
      </trkpt>
      <trkpt lat="20.23747167" lon="-98.74342167">
        <ele>2029.0</ele>
        <time>2019-10-12T16:27:35.947Z</time>
      </trkpt>
      <trkpt lat="20.23747" lon="-98.74343167">
        <ele>2028.0</ele>
        <time>2019-10-12T16:27:36.948Z</time>
      </trkpt>
      <trkpt lat="20.23746833" lon="-98.74344167">
        <ele>2028.0</ele>
        <time>2019-10-12T16:27:37.953Z</time>
      </trkpt>
      <trkpt lat="20.237465" lon="-98.74344667">
        <ele>2027.0</ele>
        <time>2019-10-12T16:27:38.834Z</time>
      </trkpt>
      <trkpt lat="20.23745833" lon="-98.74345">
        <ele>2027.0</ele>
        <time>2019-10-12T16:27:39.838Z</time>
      </trkpt>
      <trkpt lat="20.23745" lon="-98.74345333">
        <ele>2027.0</ele>
        <time>2019-10-12T16:27:40.841Z</time>
      </trkpt>
      <trkpt lat="20.23744" lon="-98.74345833">
        <ele>2026.0</ele>
        <time>2019-10-12T16:27:41.846Z</time>
      </trkpt>
      <trkpt lat="20.23743" lon="-98.74346333">
        <ele>2026.0</ele>
        <time>2019-10-12T16:27:42.848Z</time>
      </trkpt>
      <trkpt lat="20.23741667" lon="-98.74346833">
        <ele>2026.0</ele>
        <time>2019-10-12T16:27:43.849Z</time>
      </trkpt>
      <trkpt lat="20.23740667" lon="-98.74347167">
        <ele>2025.0</ele>
        <time>2019-10-12T16:27:44.850Z</time>
      </trkpt>
      <trkpt lat="20.23739167" lon="-98.743475">
        <ele>2025.0</ele>
        <time>2019-10-12T16:27:45.851Z</time>
      </trkpt>
      <trkpt lat="20.23738333" lon="-98.74348167">
        <ele>2024.0</ele>
        <time>2019-10-12T16:27:46.854Z</time>
      </trkpt>
      <trkpt lat="20.237375" lon="-98.74349">
        <ele>2024.0</ele>
        <time>2019-10-12T16:27:47.860Z</time>
      </trkpt>
      <trkpt lat="20.23737167" lon="-98.7435">
        <ele>2023.0</ele>
        <time>2019-10-12T16:27:48.865Z</time>
      </trkpt>
      <trkpt lat="20.23737333" lon="-98.74351">
        <ele>2023.0</ele>
        <time>2019-10-12T16:27:49.870Z</time>
      </trkpt>
      <trkpt lat="20.23737833" lon="-98.743525">
        <ele>2023.0</ele>
        <time>2019-10-12T16:27:50.875Z</time>
      </trkpt>
      <trkpt lat="20.237385" lon="-98.74352833">
        <ele>2021.0</ele>
        <time>2019-10-12T16:27:51.880Z</time>
      </trkpt>
      <trkpt lat="20.23738333" lon="-98.74353333">
        <ele>2020.0</ele>
        <time>2019-10-12T16:27:52.884Z</time>
      </trkpt>
      <trkpt lat="20.23737667" lon="-98.74353667">
        <ele>2020.0</ele>
        <time>2019-10-12T16:27:53.888Z</time>
      </trkpt>
      <trkpt lat="20.23736833" lon="-98.74353667">
        <ele>2019.0</ele>
        <time>2019-10-12T16:27:54.896Z</time>
      </trkpt>
      <trkpt lat="20.23736" lon="-98.74353667">
        <ele>2019.0</ele>
        <time>2019-10-12T16:27:55.899Z</time>
      </trkpt>
      <trkpt lat="20.23735333" lon="-98.74353667">
        <ele>2019.0</ele>
        <time>2019-10-12T16:27:56.900Z</time>
      </trkpt>
      <trkpt lat="20.23734833" lon="-98.74353833">
        <ele>2019.0</ele>
        <time>2019-10-12T16:27:57.901Z</time>
      </trkpt>
      <trkpt lat="20.23734167" lon="-98.74353833">
        <ele>2019.0</ele>
        <time>2019-10-12T16:27:58.902Z</time>
      </trkpt>
      <trkpt lat="20.23733667" lon="-98.743535">
        <ele>2019.0</ele>
        <time>2019-10-12T16:27:59.906Z</time>
      </trkpt>
      <trkpt lat="20.237335" lon="-98.74353333">
        <ele>2019.0</ele>
        <time>2019-10-12T16:28:00.908Z</time>
      </trkpt>
      <trkpt lat="20.23732667" lon="-98.74353167">
        <ele>2019.0</ele>
        <time>2019-10-12T16:28:01.913Z</time>
      </trkpt>
      <trkpt lat="20.23731833" lon="-98.74353333">
        <ele>2019.0</ele>
        <time>2019-10-12T16:28:02.921Z</time>
      </trkpt>
      <trkpt lat="20.23731333" lon="-98.74353833">
        <ele>2019.0</ele>
        <time>2019-10-12T16:28:03.924Z</time>
      </trkpt>
      <trkpt lat="20.237305" lon="-98.743545">
        <ele>2019.0</ele>
        <time>2019-10-12T16:28:04.927Z</time>
      </trkpt>
      <trkpt lat="20.2373" lon="-98.74354833">
        <ele>2019.0</ele>
        <time>2019-10-12T16:28:05.930Z</time>
      </trkpt>
      <trkpt lat="20.23729333" lon="-98.74355">
        <ele>2019.0</ele>
        <time>2019-10-12T16:28:06.936Z</time>
      </trkpt>
      <trkpt lat="20.23729" lon="-98.74355">
        <ele>2019.0</ele>
        <time>2019-10-12T16:28:07.941Z</time>
      </trkpt>
      <trkpt lat="20.23728667" lon="-98.74355">
        <ele>2018.0</ele>
        <time>2019-10-12T16:28:08.946Z</time>
      </trkpt>
      <trkpt lat="20.23728167" lon="-98.74354833">
        <ele>2018.0</ele>
        <time>2019-10-12T16:28:09.953Z</time>
      </trkpt>
      <trkpt lat="20.23727833" lon="-98.743545">
        <ele>2018.0</ele>
        <time>2019-10-12T16:28:10.831Z</time>
      </trkpt>
      <trkpt lat="20.23727333" lon="-98.74354333">
        <ele>2018.0</ele>
        <time>2019-10-12T16:28:11.838Z</time>
      </trkpt>
      <trkpt lat="20.23726667" lon="-98.74354333">
        <ele>2018.0</ele>
        <time>2019-10-12T16:28:12.845Z</time>
      </trkpt>
      <trkpt lat="20.23726167" lon="-98.743545">
        <ele>2018.0</ele>
        <time>2019-10-12T16:28:13.846Z</time>
      </trkpt>
      <trkpt lat="20.23725833" lon="-98.74354667">
        <ele>2018.0</ele>
        <time>2019-10-12T16:28:14.846Z</time>
      </trkpt>
      <trkpt lat="20.237255" lon="-98.74354833">
        <ele>2017.0</ele>
        <time>2019-10-12T16:28:15.846Z</time>
      </trkpt>
      <trkpt lat="20.23725667" lon="-98.74355333">
        <ele>2016.0</ele>
        <time>2019-10-12T16:28:16.847Z</time>
      </trkpt>
      <trkpt lat="20.23725667" lon="-98.74356167">
        <ele>2015.0</ele>
        <time>2019-10-12T16:28:17.848Z</time>
      </trkpt>
      <trkpt lat="20.23725333" lon="-98.74356833">
        <ele>2014.0</ele>
        <time>2019-10-12T16:28:18.849Z</time>
      </trkpt>
      <trkpt lat="20.23724833" lon="-98.74357333">
        <ele>2014.0</ele>
        <time>2019-10-12T16:28:19.850Z</time>
      </trkpt>
      <trkpt lat="20.237245" lon="-98.74358333">
        <ele>2013.0</ele>
        <time>2019-10-12T16:28:20.850Z</time>
      </trkpt>
      <trkpt lat="20.23724667" lon="-98.74359167">
        <ele>2012.0</ele>
        <time>2019-10-12T16:28:21.851Z</time>
      </trkpt>
      <trkpt lat="20.23725" lon="-98.74360333">
        <ele>2012.0</ele>
        <time>2019-10-12T16:28:22.852Z</time>
      </trkpt>
      <trkpt lat="20.23725333" lon="-98.74360833">
        <ele>2011.0</ele>
        <time>2019-10-12T16:28:23.853Z</time>
      </trkpt>
      <trkpt lat="20.23725167" lon="-98.743615">
        <ele>2011.0</ele>
        <time>2019-10-12T16:28:24.854Z</time>
      </trkpt>
      <trkpt lat="20.23724833" lon="-98.74362">
        <ele>2010.0</ele>
        <time>2019-10-12T16:28:25.854Z</time>
      </trkpt>
      <trkpt lat="20.237245" lon="-98.74362667">
        <ele>2011.0</ele>
        <time>2019-10-12T16:28:26.855Z</time>
      </trkpt>
      <trkpt lat="20.23724167" lon="-98.74363167">
        <ele>2011.0</ele>
        <time>2019-10-12T16:28:27.857Z</time>
      </trkpt>
      <trkpt lat="20.23724" lon="-98.74363667">
        <ele>2010.0</ele>
        <time>2019-10-12T16:28:28.857Z</time>
      </trkpt>
      <trkpt lat="20.23723333" lon="-98.74364167">
        <ele>2010.0</ele>
        <time>2019-10-12T16:28:29.858Z</time>
      </trkpt>
      <trkpt lat="20.23723" lon="-98.74364833">
        <ele>2009.0</ele>
        <time>2019-10-12T16:28:30.859Z</time>
      </trkpt>
      <trkpt lat="20.23722333" lon="-98.74365667">
        <ele>2009.0</ele>
        <time>2019-10-12T16:28:31.859Z</time>
      </trkpt>
      <trkpt lat="20.23722" lon="-98.74366667">
        <ele>2009.0</ele>
        <time>2019-10-12T16:28:32.860Z</time>
      </trkpt>
      <trkpt lat="20.23721833" lon="-98.74367333">
        <ele>2009.0</ele>
        <time>2019-10-12T16:28:33.861Z</time>
      </trkpt>
      <trkpt lat="20.23721667" lon="-98.74368333">
        <ele>2008.0</ele>
        <time>2019-10-12T16:28:34.862Z</time>
      </trkpt>
      <trkpt lat="20.23721667" lon="-98.74369167">
        <ele>2008.0</ele>
        <time>2019-10-12T16:28:35.863Z</time>
      </trkpt>
      <trkpt lat="20.23721333" lon="-98.7437">
        <ele>2007.0</ele>
        <time>2019-10-12T16:28:36.863Z</time>
      </trkpt>
      <trkpt lat="20.23721167" lon="-98.74371167">
        <ele>2006.0</ele>
        <time>2019-10-12T16:28:37.864Z</time>
      </trkpt>
      <trkpt lat="20.23720833" lon="-98.74372">
        <ele>2005.0</ele>
        <time>2019-10-12T16:28:38.865Z</time>
      </trkpt>
      <trkpt lat="20.23720333" lon="-98.74372333">
        <ele>2005.0</ele>
        <time>2019-10-12T16:28:39.866Z</time>
      </trkpt>
      <trkpt lat="20.23719833" lon="-98.74372667">
        <ele>2004.0</ele>
        <time>2019-10-12T16:28:40.867Z</time>
      </trkpt>
      <trkpt lat="20.23719167" lon="-98.74372833">
        <ele>2005.0</ele>
        <time>2019-10-12T16:28:41.871Z</time>
      </trkpt>
      <trkpt lat="20.23718333" lon="-98.74373167">
        <ele>2004.0</ele>
        <time>2019-10-12T16:28:42.876Z</time>
      </trkpt>
      <trkpt lat="20.23717667" lon="-98.743735">
        <ele>2004.0</ele>
        <time>2019-10-12T16:28:43.880Z</time>
      </trkpt>
      <trkpt lat="20.23717" lon="-98.74374">
        <ele>2004.0</ele>
        <time>2019-10-12T16:28:44.884Z</time>
      </trkpt>
      <trkpt lat="20.23717" lon="-98.743745">
        <ele>2003.0</ele>
        <time>2019-10-12T16:28:45.891Z</time>
      </trkpt>
      <trkpt lat="20.237165" lon="-98.74374833">
        <ele>2003.0</ele>
        <time>2019-10-12T16:28:46.898Z</time>
      </trkpt>
      <trkpt lat="20.237165" lon="-98.743755">
        <ele>2002.0</ele>
        <time>2019-10-12T16:28:47.906Z</time>
      </trkpt>
      <trkpt lat="20.23715833" lon="-98.74376333">
        <ele>2001.0</ele>
        <time>2019-10-12T16:28:48.912Z</time>
      </trkpt>
      <trkpt lat="20.23716" lon="-98.743775">
        <ele>2001.0</ele>
        <time>2019-10-12T16:28:49.919Z</time>
      </trkpt>
      <trkpt lat="20.23716167" lon="-98.74378333">
        <ele>2001.0</ele>
        <time>2019-10-12T16:28:50.923Z</time>
      </trkpt>
      <trkpt lat="20.23716167" lon="-98.74379">
        <ele>2001.0</ele>
        <time>2019-10-12T16:28:51.929Z</time>
      </trkpt>
      <trkpt lat="20.237165" lon="-98.74379333">
        <ele>2000.0</ele>
        <time>2019-10-12T16:28:52.934Z</time>
      </trkpt>
      <trkpt lat="20.237165" lon="-98.74379833">
        <ele>2000.0</ele>
        <time>2019-10-12T16:28:53.939Z</time>
      </trkpt>
      <trkpt lat="20.23716167" lon="-98.743805">
        <ele>2000.0</ele>
        <time>2019-10-12T16:28:54.939Z</time>
      </trkpt>
      <trkpt lat="20.23715667" lon="-98.74380833">
        <ele>2000.0</ele>
        <time>2019-10-12T16:28:55.940Z</time>
      </trkpt>
      <trkpt lat="20.23714833" lon="-98.74381167">
        <ele>2000.0</ele>
        <time>2019-10-12T16:28:56.941Z</time>
      </trkpt>
      <trkpt lat="20.23714167" lon="-98.74381833">
        <ele>2000.0</ele>
        <time>2019-10-12T16:28:57.942Z</time>
      </trkpt>
      <trkpt lat="20.23714" lon="-98.74382667">
        <ele>2000.0</ele>
        <time>2019-10-12T16:28:58.943Z</time>
      </trkpt>
      <trkpt lat="20.23713833" lon="-98.74383333">
        <ele>2001.0</ele>
        <time>2019-10-12T16:28:59.949Z</time>
      </trkpt>
      <trkpt lat="20.23714" lon="-98.74384167">
        <ele>2001.0</ele>
        <time>2019-10-12T16:29:00.954Z</time>
      </trkpt>
      <trkpt lat="20.23714" lon="-98.74384167">
        <ele>2000.0</ele>
        <time>2019-10-12T16:29:01.832Z</time>
      </trkpt>
      <trkpt lat="20.23713833" lon="-98.74383833">
        <ele>1999.0</ele>
        <time>2019-10-12T16:29:02.839Z</time>
      </trkpt>
      <trkpt lat="20.237135" lon="-98.74383833">
        <ele>1999.0</ele>
        <time>2019-10-12T16:29:03.842Z</time>
      </trkpt>
      <trkpt lat="20.23713167" lon="-98.743845">
        <ele>1999.0</ele>
        <time>2019-10-12T16:29:04.846Z</time>
      </trkpt>
      <trkpt lat="20.23713" lon="-98.74385">
        <ele>2000.0</ele>
        <time>2019-10-12T16:29:05.854Z</time>
      </trkpt>
      <trkpt lat="20.237125" lon="-98.74385333">
        <ele>2000.0</ele>
        <time>2019-10-12T16:29:06.857Z</time>
      </trkpt>
      <trkpt lat="20.23711833" lon="-98.74386">
        <ele>2000.0</ele>
        <time>2019-10-12T16:29:07.861Z</time>
      </trkpt>
      <trkpt lat="20.23711167" lon="-98.74386167">
        <ele>1999.0</ele>
        <time>2019-10-12T16:29:08.864Z</time>
      </trkpt>
      <trkpt lat="20.23710667" lon="-98.74386167">
        <ele>1999.0</ele>
        <time>2019-10-12T16:29:09.872Z</time>
      </trkpt>
      <trkpt lat="20.237105" lon="-98.74386333">
        <ele>1999.0</ele>
        <time>2019-10-12T16:29:10.876Z</time>
      </trkpt>
      <trkpt lat="20.23710833" lon="-98.74387">
        <ele>1998.0</ele>
        <time>2019-10-12T16:29:11.883Z</time>
      </trkpt>
      <trkpt lat="20.23711167" lon="-98.74387667">
        <ele>1998.0</ele>
        <time>2019-10-12T16:29:12.888Z</time>
      </trkpt>
      <trkpt lat="20.23711167" lon="-98.74388333">
        <ele>1998.0</ele>
        <time>2019-10-12T16:29:13.892Z</time>
      </trkpt>
      <trkpt lat="20.23711167" lon="-98.74388833">
        <ele>1997.0</ele>
        <time>2019-10-12T16:29:14.893Z</time>
      </trkpt>
      <trkpt lat="20.23710667" lon="-98.743895">
        <ele>1997.0</ele>
        <time>2019-10-12T16:29:15.894Z</time>
      </trkpt>
      <trkpt lat="20.23710333" lon="-98.74390167">
        <ele>1996.0</ele>
        <time>2019-10-12T16:29:16.899Z</time>
      </trkpt>
      <trkpt lat="20.23710167" lon="-98.74390333">
        <ele>1995.0</ele>
        <time>2019-10-12T16:29:17.904Z</time>
      </trkpt>
      <trkpt lat="20.2371" lon="-98.74390667">
        <ele>1995.0</ele>
        <time>2019-10-12T16:29:18.908Z</time>
      </trkpt>
      <trkpt lat="20.2371" lon="-98.74390833">
        <ele>1994.0</ele>
        <time>2019-10-12T16:29:19.915Z</time>
      </trkpt>
      <trkpt lat="20.23709667" lon="-98.74390667">
        <ele>1994.0</ele>
        <time>2019-10-12T16:29:20.921Z</time>
      </trkpt>
      <trkpt lat="20.23709" lon="-98.74390833">
        <ele>1994.0</ele>
        <time>2019-10-12T16:29:21.924Z</time>
      </trkpt>
      <trkpt lat="20.237085" lon="-98.74390833">
        <ele>1994.0</ele>
        <time>2019-10-12T16:29:22.930Z</time>
      </trkpt>
      <trkpt lat="20.23708" lon="-98.74390833">
        <ele>1994.0</ele>
        <time>2019-10-12T16:29:23.931Z</time>
      </trkpt>
      <trkpt lat="20.23707667" lon="-98.74390667">
        <ele>1994.0</ele>
        <time>2019-10-12T16:29:24.931Z</time>
      </trkpt>
      <trkpt lat="20.23706833" lon="-98.743905">
        <ele>1993.0</ele>
        <time>2019-10-12T16:29:25.938Z</time>
      </trkpt>
      <trkpt lat="20.23706167" lon="-98.74389833">
        <ele>1993.0</ele>
        <time>2019-10-12T16:29:26.945Z</time>
      </trkpt>
      <trkpt lat="20.23705333" lon="-98.74389667">
        <ele>1993.0</ele>
        <time>2019-10-12T16:29:27.950Z</time>
      </trkpt>
      <trkpt lat="20.23704667" lon="-98.743895">
        <ele>1992.0</ele>
        <time>2019-10-12T16:29:28.952Z</time>
      </trkpt>
      <trkpt lat="20.23704333" lon="-98.74389333">
        <ele>1993.0</ele>
        <time>2019-10-12T16:29:29.832Z</time>
      </trkpt>
      <trkpt lat="20.23703833" lon="-98.74389167">
        <ele>1993.0</ele>
        <time>2019-10-12T16:29:30.837Z</time>
      </trkpt>
      <trkpt lat="20.23703667" lon="-98.74388833">
        <ele>1993.0</ele>
        <time>2019-10-12T16:29:31.843Z</time>
      </trkpt>
      <trkpt lat="20.237035" lon="-98.74388">
        <ele>1994.0</ele>
        <time>2019-10-12T16:29:32.844Z</time>
      </trkpt>
      <trkpt lat="20.23703333" lon="-98.74387333">
        <ele>1995.0</ele>
        <time>2019-10-12T16:29:33.845Z</time>
      </trkpt>
      <trkpt lat="20.23702833" lon="-98.74386667">
        <ele>1996.0</ele>
        <time>2019-10-12T16:29:34.846Z</time>
      </trkpt>
      <trkpt lat="20.23702667" lon="-98.74385667">
        <ele>1997.0</ele>
        <time>2019-10-12T16:29:35.847Z</time>
      </trkpt>
      <trkpt lat="20.23702667" lon="-98.74384833">
        <ele>1997.0</ele>
        <time>2019-10-12T16:29:36.847Z</time>
      </trkpt>
      <trkpt lat="20.23702" lon="-98.74384167">
        <ele>1997.0</ele>
        <time>2019-10-12T16:29:37.848Z</time>
      </trkpt>
      <trkpt lat="20.23702" lon="-98.74383333">
        <ele>1996.0</ele>
        <time>2019-10-12T16:29:38.849Z</time>
      </trkpt>
      <trkpt lat="20.23702167" lon="-98.74382667">
        <ele>1995.0</ele>
        <time>2019-10-12T16:29:39.853Z</time>
      </trkpt>
      <trkpt lat="20.23702167" lon="-98.74381833">
        <ele>1995.0</ele>
        <time>2019-10-12T16:29:40.860Z</time>
      </trkpt>
      <trkpt lat="20.237025" lon="-98.74380833">
        <ele>1994.0</ele>
        <time>2019-10-12T16:29:41.864Z</time>
      </trkpt>
      <trkpt lat="20.23702833" lon="-98.74380167">
        <ele>1994.0</ele>
        <time>2019-10-12T16:29:42.868Z</time>
      </trkpt>
      <trkpt lat="20.23702667" lon="-98.743795">
        <ele>1994.0</ele>
        <time>2019-10-12T16:29:43.874Z</time>
      </trkpt>
      <trkpt lat="20.23702333" lon="-98.74378667">
        <ele>1995.0</ele>
        <time>2019-10-12T16:29:44.880Z</time>
      </trkpt>
      <trkpt lat="20.23702167" lon="-98.743775">
        <ele>1996.0</ele>
        <time>2019-10-12T16:29:45.885Z</time>
      </trkpt>
      <trkpt lat="20.23701833" lon="-98.74376667">
        <ele>1996.0</ele>
        <time>2019-10-12T16:29:46.892Z</time>
      </trkpt>
      <trkpt lat="20.23701333" lon="-98.74376167">
        <ele>1996.0</ele>
        <time>2019-10-12T16:29:47.899Z</time>
      </trkpt>
      <trkpt lat="20.23701167" lon="-98.74375667">
        <ele>1996.0</ele>
        <time>2019-10-12T16:29:48.904Z</time>
      </trkpt>
      <trkpt lat="20.23701167" lon="-98.74375333">
        <ele>1996.0</ele>
        <time>2019-10-12T16:29:49.908Z</time>
      </trkpt>
      <trkpt lat="20.23700833" lon="-98.74374667">
        <ele>1996.0</ele>
        <time>2019-10-12T16:29:50.916Z</time>
      </trkpt>
      <trkpt lat="20.23701" lon="-98.74373833">
        <ele>1996.0</ele>
        <time>2019-10-12T16:29:51.922Z</time>
      </trkpt>
      <trkpt lat="20.23700833" lon="-98.74373333">
        <ele>1996.0</ele>
        <time>2019-10-12T16:29:52.922Z</time>
      </trkpt>
      <trkpt lat="20.23700667" lon="-98.74372833">
        <ele>1996.0</ele>
        <time>2019-10-12T16:29:53.923Z</time>
      </trkpt>
      <trkpt lat="20.237005" lon="-98.74372">
        <ele>1995.0</ele>
        <time>2019-10-12T16:29:54.924Z</time>
      </trkpt>
      <trkpt lat="20.23700333" lon="-98.74371">
        <ele>1996.0</ele>
        <time>2019-10-12T16:29:55.925Z</time>
      </trkpt>
      <trkpt lat="20.237005" lon="-98.74370167">
        <ele>1995.0</ele>
        <time>2019-10-12T16:29:56.926Z</time>
      </trkpt>
      <trkpt lat="20.237005" lon="-98.743695">
        <ele>1995.0</ele>
        <time>2019-10-12T16:29:57.926Z</time>
      </trkpt>
      <trkpt lat="20.23700667" lon="-98.74369167">
        <ele>1995.0</ele>
        <time>2019-10-12T16:29:58.927Z</time>
      </trkpt>
      <trkpt lat="20.23700667" lon="-98.74368667">
        <ele>1995.0</ele>
        <time>2019-10-12T16:29:59.928Z</time>
      </trkpt>
      <trkpt lat="20.23700833" lon="-98.74368167">
        <ele>1995.0</ele>
        <time>2019-10-12T16:30:00.929Z</time>
      </trkpt>
      <trkpt lat="20.23700667" lon="-98.74367667">
        <ele>1995.0</ele>
        <time>2019-10-12T16:30:01.930Z</time>
      </trkpt>
      <trkpt lat="20.237005" lon="-98.74367167">
        <ele>1995.0</ele>
        <time>2019-10-12T16:30:02.930Z</time>
      </trkpt>
      <trkpt lat="20.23700333" lon="-98.743665">
        <ele>1995.0</ele>
        <time>2019-10-12T16:30:03.931Z</time>
      </trkpt>
      <trkpt lat="20.23700167" lon="-98.74366167">
        <ele>1995.0</ele>
        <time>2019-10-12T16:30:04.932Z</time>
      </trkpt>
      <trkpt lat="20.23699667" lon="-98.743655">
        <ele>1995.0</ele>
        <time>2019-10-12T16:30:05.933Z</time>
      </trkpt>
      <trkpt lat="20.23699" lon="-98.74364833">
        <ele>1995.0</ele>
        <time>2019-10-12T16:30:06.934Z</time>
      </trkpt>
      <trkpt lat="20.236985" lon="-98.74364333">
        <ele>1996.0</ele>
        <time>2019-10-12T16:30:07.934Z</time>
      </trkpt>
      <trkpt lat="20.236985" lon="-98.743635">
        <ele>1995.0</ele>
        <time>2019-10-12T16:30:08.935Z</time>
      </trkpt>
      <trkpt lat="20.23698167" lon="-98.74362667">
        <ele>1995.0</ele>
        <time>2019-10-12T16:30:09.936Z</time>
      </trkpt>
      <trkpt lat="20.23698333" lon="-98.74362">
        <ele>1995.0</ele>
        <time>2019-10-12T16:30:10.937Z</time>
      </trkpt>
      <trkpt lat="20.23698333" lon="-98.74361667">
        <ele>1995.0</ele>
        <time>2019-10-12T16:30:11.938Z</time>
      </trkpt>
      <trkpt lat="20.23698333" lon="-98.74361333">
        <ele>1995.0</ele>
        <time>2019-10-12T16:30:12.943Z</time>
      </trkpt>
      <trkpt lat="20.23698167" lon="-98.74361">
        <ele>1995.0</ele>
        <time>2019-10-12T16:30:13.950Z</time>
      </trkpt>
      <trkpt lat="20.23698" lon="-98.74361">
        <ele>1996.0</ele>
        <time>2019-10-12T16:30:14.954Z</time>
      </trkpt>
      <trkpt lat="20.23697833" lon="-98.74361333">
        <ele>1995.0</ele>
        <time>2019-10-12T16:30:15.833Z</time>
      </trkpt>
      <trkpt lat="20.23697667" lon="-98.74361333">
        <ele>1996.0</ele>
        <time>2019-10-12T16:30:16.838Z</time>
      </trkpt>
      <trkpt lat="20.23697667" lon="-98.74361333">
        <ele>1996.0</ele>
        <time>2019-10-12T16:30:17.843Z</time>
      </trkpt>
      <trkpt lat="20.23696333" lon="-98.743605">
        <ele>1996.0</ele>
        <time>2019-10-12T16:30:18.851Z</time>
      </trkpt>
      <trkpt lat="20.23696" lon="-98.74360167">
        <ele>1996.0</ele>
        <time>2019-10-12T16:30:19.858Z</time>
      </trkpt>
      <trkpt lat="20.23695833" lon="-98.74359833">
        <ele>1996.0</ele>
        <time>2019-10-12T16:30:20.863Z</time>
      </trkpt>
      <trkpt lat="20.236955" lon="-98.743595">
        <ele>1996.0</ele>
        <time>2019-10-12T16:30:21.871Z</time>
      </trkpt>
      <trkpt lat="20.23695167" lon="-98.74359667">
        <ele>1994.0</ele>
        <time>2019-10-12T16:30:22.878Z</time>
      </trkpt>
      <trkpt lat="20.236945" lon="-98.74359167">
        <ele>1993.0</ele>
        <time>2019-10-12T16:30:23.882Z</time>
      </trkpt>
      <trkpt lat="20.23694" lon="-98.74359">
        <ele>1992.0</ele>
        <time>2019-10-12T16:30:24.885Z</time>
      </trkpt>
      <trkpt lat="20.236935" lon="-98.743585">
        <ele>1991.0</ele>
        <time>2019-10-12T16:30:25.885Z</time>
      </trkpt>
      <trkpt lat="20.236935" lon="-98.74358">
        <ele>1991.0</ele>
        <time>2019-10-12T16:30:26.886Z</time>
      </trkpt>
      <trkpt lat="20.23693" lon="-98.743575">
        <ele>1991.0</ele>
        <time>2019-10-12T16:30:27.887Z</time>
      </trkpt>
      <trkpt lat="20.23692667" lon="-98.74357">
        <ele>1991.0</ele>
        <time>2019-10-12T16:30:28.888Z</time>
      </trkpt>
      <trkpt lat="20.23692333" lon="-98.74356333">
        <ele>1991.0</ele>
        <time>2019-10-12T16:30:29.891Z</time>
      </trkpt>
      <trkpt lat="20.23692" lon="-98.74356167">
        <ele>1991.0</ele>
        <time>2019-10-12T16:30:30.899Z</time>
      </trkpt>
      <trkpt lat="20.23692" lon="-98.74355833">
        <ele>1992.0</ele>
        <time>2019-10-12T16:30:31.907Z</time>
      </trkpt>
      <trkpt lat="20.23691833" lon="-98.74355833">
        <ele>1992.0</ele>
        <time>2019-10-12T16:30:32.914Z</time>
      </trkpt>
      <trkpt lat="20.23691667" lon="-98.743555">
        <ele>1992.0</ele>
        <time>2019-10-12T16:30:33.919Z</time>
      </trkpt>
      <trkpt lat="20.23691333" lon="-98.74355167">
        <ele>1992.0</ele>
        <time>2019-10-12T16:30:34.923Z</time>
      </trkpt>
      <trkpt lat="20.23690833" lon="-98.74354833">
        <ele>1992.0</ele>
        <time>2019-10-12T16:30:35.930Z</time>
      </trkpt>
      <trkpt lat="20.23690167" lon="-98.74354">
        <ele>1992.0</ele>
        <time>2019-10-12T16:30:36.937Z</time>
      </trkpt>
      <trkpt lat="20.23689833" lon="-98.74353333">
        <ele>1992.0</ele>
        <time>2019-10-12T16:30:37.944Z</time>
      </trkpt>
      <trkpt lat="20.23689667" lon="-98.74352667">
        <ele>1992.0</ele>
        <time>2019-10-12T16:30:38.948Z</time>
      </trkpt>
      <trkpt lat="20.23689333" lon="-98.74351833">
        <ele>1992.0</ele>
        <time>2019-10-12T16:30:39.953Z</time>
      </trkpt>
      <trkpt lat="20.23689" lon="-98.74350833">
        <ele>1992.0</ele>
        <time>2019-10-12T16:30:40.834Z</time>
      </trkpt>
      <trkpt lat="20.23688667" lon="-98.74349833">
        <ele>1992.0</ele>
        <time>2019-10-12T16:30:41.836Z</time>
      </trkpt>
      <trkpt lat="20.23688333" lon="-98.74348667">
        <ele>1992.0</ele>
        <time>2019-10-12T16:30:42.837Z</time>
      </trkpt>
      <trkpt lat="20.23687667" lon="-98.74347667">
        <ele>1993.0</ele>
        <time>2019-10-12T16:30:43.838Z</time>
      </trkpt>
      <trkpt lat="20.23687167" lon="-98.74347167">
        <ele>1993.0</ele>
        <time>2019-10-12T16:30:44.838Z</time>
      </trkpt>
      <trkpt lat="20.23686667" lon="-98.74346833">
        <ele>1993.0</ele>
        <time>2019-10-12T16:30:45.839Z</time>
      </trkpt>
      <trkpt lat="20.23687" lon="-98.74347">
        <ele>1994.0</ele>
        <time>2019-10-12T16:30:46.840Z</time>
      </trkpt>
      <trkpt lat="20.23686833" lon="-98.74347667">
        <ele>1994.0</ele>
        <time>2019-10-12T16:30:47.840Z</time>
      </trkpt>
      <trkpt lat="20.23686833" lon="-98.74348167">
        <ele>1994.0</ele>
        <time>2019-10-12T16:30:48.841Z</time>
      </trkpt>
      <trkpt lat="20.23686333" lon="-98.74348667">
        <ele>1994.0</ele>
        <time>2019-10-12T16:30:49.842Z</time>
      </trkpt>
      <trkpt lat="20.23685833" lon="-98.743495">
        <ele>1994.0</ele>
        <time>2019-10-12T16:30:50.843Z</time>
      </trkpt>
      <trkpt lat="20.23685333" lon="-98.7435">
        <ele>1993.0</ele>
        <time>2019-10-12T16:30:51.844Z</time>
      </trkpt>
      <trkpt lat="20.23685" lon="-98.743505">
        <ele>1993.0</ele>
        <time>2019-10-12T16:30:52.851Z</time>
      </trkpt>
      <trkpt lat="20.236845" lon="-98.74351">
        <ele>1993.0</ele>
        <time>2019-10-12T16:30:53.858Z</time>
      </trkpt>
      <trkpt lat="20.23684167" lon="-98.743515">
        <ele>1993.0</ele>
        <time>2019-10-12T16:30:54.862Z</time>
      </trkpt>
      <trkpt lat="20.23683833" lon="-98.74352333">
        <ele>1993.0</ele>
        <time>2019-10-12T16:30:55.868Z</time>
      </trkpt>
      <trkpt lat="20.236835" lon="-98.74353">
        <ele>1993.0</ele>
        <time>2019-10-12T16:30:56.871Z</time>
      </trkpt>
      <trkpt lat="20.23683333" lon="-98.74353833">
        <ele>1993.0</ele>
        <time>2019-10-12T16:30:57.875Z</time>
      </trkpt>
      <trkpt lat="20.23683167" lon="-98.74354333">
        <ele>1993.0</ele>
        <time>2019-10-12T16:30:58.878Z</time>
      </trkpt>
      <trkpt lat="20.23682333" lon="-98.74354333">
        <ele>1993.0</ele>
        <time>2019-10-12T16:30:59.880Z</time>
      </trkpt>
      <trkpt lat="20.236825" lon="-98.74354333">
        <ele>1993.0</ele>
        <time>2019-10-12T16:31:00.886Z</time>
      </trkpt>
      <trkpt lat="20.23682167" lon="-98.74354333">
        <ele>1992.0</ele>
        <time>2019-10-12T16:31:01.891Z</time>
      </trkpt>
      <trkpt lat="20.23682" lon="-98.743545">
        <ele>1992.0</ele>
        <time>2019-10-12T16:31:02.895Z</time>
      </trkpt>
      <trkpt lat="20.23681667" lon="-98.74355167">
        <ele>1991.0</ele>
        <time>2019-10-12T16:31:03.902Z</time>
      </trkpt>
      <trkpt lat="20.23681167" lon="-98.743565">
        <ele>1990.0</ele>
        <time>2019-10-12T16:31:04.909Z</time>
      </trkpt>
      <trkpt lat="20.23680667" lon="-98.74357667">
        <ele>1990.0</ele>
        <time>2019-10-12T16:31:05.916Z</time>
      </trkpt>
      <trkpt lat="20.23680667" lon="-98.74358167">
        <ele>1989.0</ele>
        <time>2019-10-12T16:31:06.918Z</time>
      </trkpt>
      <trkpt lat="20.23681333" lon="-98.74358167">
        <ele>1989.0</ele>
        <time>2019-10-12T16:31:07.919Z</time>
      </trkpt>
      <trkpt lat="20.23682" lon="-98.74358">
        <ele>1988.0</ele>
        <time>2019-10-12T16:31:08.926Z</time>
      </trkpt>
      <trkpt lat="20.23682667" lon="-98.74357833">
        <ele>1987.0</ele>
        <time>2019-10-12T16:31:09.929Z</time>
      </trkpt>
      <trkpt lat="20.23683" lon="-98.74358167">
        <ele>1986.0</ele>
        <time>2019-10-12T16:31:10.933Z</time>
      </trkpt>
      <trkpt lat="20.23682667" lon="-98.74359333">
        <ele>1985.0</ele>
        <time>2019-10-12T16:31:11.938Z</time>
      </trkpt>
      <trkpt lat="20.23682667" lon="-98.74360167">
        <ele>1985.0</ele>
        <time>2019-10-12T16:31:12.943Z</time>
      </trkpt>
      <trkpt lat="20.23682" lon="-98.74361">
        <ele>1985.0</ele>
        <time>2019-10-12T16:31:13.946Z</time>
      </trkpt>
      <trkpt lat="20.23681167" lon="-98.74361333">
        <ele>1985.0</ele>
        <time>2019-10-12T16:31:14.953Z</time>
      </trkpt>
      <trkpt lat="20.236805" lon="-98.743615">
        <ele>1985.0</ele>
        <time>2019-10-12T16:31:15.834Z</time>
      </trkpt>
      <trkpt lat="20.236805" lon="-98.743615">
        <ele>1984.0</ele>
        <time>2019-10-12T16:31:16.838Z</time>
      </trkpt>
      <trkpt lat="20.23680667" lon="-98.74361167">
        <ele>1984.0</ele>
        <time>2019-10-12T16:31:17.842Z</time>
      </trkpt>
      <trkpt lat="20.23680667" lon="-98.743615">
        <ele>1984.0</ele>
        <time>2019-10-12T16:31:18.848Z</time>
      </trkpt>
      <trkpt lat="20.23680833" lon="-98.74362">
        <ele>1984.0</ele>
        <time>2019-10-12T16:31:19.854Z</time>
      </trkpt>
      <trkpt lat="20.23681" lon="-98.743625">
        <ele>1984.0</ele>
        <time>2019-10-12T16:31:20.859Z</time>
      </trkpt>
      <trkpt lat="20.23681" lon="-98.74362667">
        <ele>1984.0</ele>
        <time>2019-10-12T16:31:21.864Z</time>
      </trkpt>
      <trkpt lat="20.236805" lon="-98.74362833">
        <ele>1984.0</ele>
        <time>2019-10-12T16:31:22.867Z</time>
      </trkpt>
      <trkpt lat="20.236805" lon="-98.74362833">
        <ele>1984.0</ele>
        <time>2019-10-12T16:31:23.871Z</time>
      </trkpt>
      <trkpt lat="20.236805" lon="-98.74362833">
        <ele>1984.0</ele>
        <time>2019-10-12T16:31:24.879Z</time>
      </trkpt>
      <trkpt lat="20.236805" lon="-98.74362833">
        <ele>1984.0</ele>
        <time>2019-10-12T16:31:25.883Z</time>
      </trkpt>
      <trkpt lat="20.236805" lon="-98.74362833">
        <ele>1984.0</ele>
        <time>2019-10-12T16:31:26.886Z</time>
      </trkpt>
      <trkpt lat="20.236805" lon="-98.74362833">
        <ele>1984.0</ele>
        <time>2019-10-12T16:31:27.890Z</time>
      </trkpt>
      <trkpt lat="20.236805" lon="-98.74362833">
        <ele>1984.0</ele>
        <time>2019-10-12T16:31:28.897Z</time>
      </trkpt>
      <trkpt lat="20.236805" lon="-98.74362833">
        <ele>1984.0</ele>
        <time>2019-10-12T16:31:29.905Z</time>
      </trkpt>
      <trkpt lat="20.23680167" lon="-98.74362833">
        <ele>1984.0</ele>
        <time>2019-10-12T16:31:30.911Z</time>
      </trkpt>
      <trkpt lat="20.23679667" lon="-98.74362667">
        <ele>1985.0</ele>
        <time>2019-10-12T16:31:31.918Z</time>
      </trkpt>
      <trkpt lat="20.23678833" lon="-98.74362333">
        <ele>1985.0</ele>
        <time>2019-10-12T16:31:32.923Z</time>
      </trkpt>
      <trkpt lat="20.23677667" lon="-98.74362333">
        <ele>1985.0</ele>
        <time>2019-10-12T16:31:33.928Z</time>
      </trkpt>
      <trkpt lat="20.23676833" lon="-98.74362667">
        <ele>1984.0</ele>
        <time>2019-10-12T16:31:34.931Z</time>
      </trkpt>
      <trkpt lat="20.23676333" lon="-98.743625">
        <ele>1984.0</ele>
        <time>2019-10-12T16:31:35.937Z</time>
      </trkpt>
      <trkpt lat="20.236755" lon="-98.74362333">
        <ele>1983.0</ele>
        <time>2019-10-12T16:31:36.941Z</time>
      </trkpt>
      <trkpt lat="20.236745" lon="-98.74362833">
        <ele>1983.0</ele>
        <time>2019-10-12T16:31:37.942Z</time>
      </trkpt>
      <trkpt lat="20.23673833" lon="-98.74363">
        <ele>1983.0</ele>
        <time>2019-10-12T16:31:38.943Z</time>
      </trkpt>
      <trkpt lat="20.236735" lon="-98.74363167">
        <ele>1982.0</ele>
        <time>2019-10-12T16:31:39.944Z</time>
      </trkpt>
      <trkpt lat="20.23673667" lon="-98.74363167">
        <ele>1981.0</ele>
        <time>2019-10-12T16:31:40.944Z</time>
      </trkpt>
      <trkpt lat="20.23673667" lon="-98.74363167">
        <ele>1980.0</ele>
        <time>2019-10-12T16:31:41.945Z</time>
      </trkpt>
      <trkpt lat="20.23673833" lon="-98.74362667">
        <ele>1979.0</ele>
        <time>2019-10-12T16:31:42.946Z</time>
      </trkpt>
      <trkpt lat="20.23674" lon="-98.74361833">
        <ele>1978.0</ele>
        <time>2019-10-12T16:31:43.947Z</time>
      </trkpt>
      <trkpt lat="20.23674" lon="-98.74361167">
        <ele>1977.0</ele>
        <time>2019-10-12T16:31:44.948Z</time>
      </trkpt>
      <trkpt lat="20.23674" lon="-98.74360833">
        <ele>1977.0</ele>
        <time>2019-10-12T16:31:45.949Z</time>
      </trkpt>
      <trkpt lat="20.23674" lon="-98.74360667">
        <ele>1977.0</ele>
        <time>2019-10-12T16:31:46.949Z</time>
      </trkpt>
      <trkpt lat="20.23673667" lon="-98.74360167">
        <ele>1977.0</ele>
        <time>2019-10-12T16:31:47.953Z</time>
      </trkpt>
      <trkpt lat="20.23673333" lon="-98.7436">
        <ele>1977.0</ele>
        <time>2019-10-12T16:31:48.835Z</time>
      </trkpt>
      <trkpt lat="20.23673833" lon="-98.74359667">
        <ele>1977.0</ele>
        <time>2019-10-12T16:31:49.838Z</time>
      </trkpt>
      <trkpt lat="20.23674" lon="-98.74359333">
        <ele>1977.0</ele>
        <time>2019-10-12T16:31:50.840Z</time>
      </trkpt>
      <trkpt lat="20.23674" lon="-98.74359167">
        <ele>1977.0</ele>
        <time>2019-10-12T16:31:51.846Z</time>
      </trkpt>
      <trkpt lat="20.23673833" lon="-98.74358833">
        <ele>1976.0</ele>
        <time>2019-10-12T16:31:52.852Z</time>
      </trkpt>
      <trkpt lat="20.23673167" lon="-98.74358333">
        <ele>1976.0</ele>
        <time>2019-10-12T16:31:53.858Z</time>
      </trkpt>
      <trkpt lat="20.23672333" lon="-98.74357833">
        <ele>1976.0</ele>
        <time>2019-10-12T16:31:54.861Z</time>
      </trkpt>
      <trkpt lat="20.23671833" lon="-98.74357167">
        <ele>1975.0</ele>
        <time>2019-10-12T16:31:55.862Z</time>
      </trkpt>
      <trkpt lat="20.23671667" lon="-98.743565">
        <ele>1975.0</ele>
        <time>2019-10-12T16:31:56.866Z</time>
      </trkpt>
      <trkpt lat="20.23671167" lon="-98.74356167">
        <ele>1975.0</ele>
        <time>2019-10-12T16:31:57.868Z</time>
      </trkpt>
      <trkpt lat="20.236705" lon="-98.74355333">
        <ele>1975.0</ele>
        <time>2019-10-12T16:31:58.874Z</time>
      </trkpt>
      <trkpt lat="20.23669667" lon="-98.74354833">
        <ele>1975.0</ele>
        <time>2019-10-12T16:31:59.880Z</time>
      </trkpt>
      <trkpt lat="20.23669167" lon="-98.74353833">
        <ele>1975.0</ele>
        <time>2019-10-12T16:32:00.881Z</time>
      </trkpt>
      <trkpt lat="20.23668833" lon="-98.743525">
        <ele>1976.0</ele>
        <time>2019-10-12T16:32:01.884Z</time>
      </trkpt>
      <trkpt lat="20.23668833" lon="-98.74351333">
        <ele>1976.0</ele>
        <time>2019-10-12T16:32:02.890Z</time>
      </trkpt>
      <trkpt lat="20.23668833" lon="-98.74350667">
        <ele>1977.0</ele>
        <time>2019-10-12T16:32:03.894Z</time>
      </trkpt>
      <trkpt lat="20.23668667" lon="-98.74349667">
        <ele>1978.0</ele>
        <time>2019-10-12T16:32:04.898Z</time>
      </trkpt>
      <trkpt lat="20.23668833" lon="-98.74348333">
        <ele>1980.0</ele>
        <time>2019-10-12T16:32:05.900Z</time>
      </trkpt>
      <trkpt lat="20.23668" lon="-98.74347333">
        <ele>1980.0</ele>
        <time>2019-10-12T16:32:06.906Z</time>
      </trkpt>
      <trkpt lat="20.23667167" lon="-98.74346667">
        <ele>1981.0</ele>
        <time>2019-10-12T16:32:07.910Z</time>
      </trkpt>
      <trkpt lat="20.236665" lon="-98.74346167">
        <ele>1981.0</ele>
        <time>2019-10-12T16:32:08.915Z</time>
      </trkpt>
      <trkpt lat="20.23665833" lon="-98.74345333">
        <ele>1982.0</ele>
        <time>2019-10-12T16:32:09.917Z</time>
      </trkpt>
      <trkpt lat="20.23664833" lon="-98.74344833">
        <ele>1982.0</ele>
        <time>2019-10-12T16:32:10.921Z</time>
      </trkpt>
      <trkpt lat="20.23664167" lon="-98.74344167">
        <ele>1982.0</ele>
        <time>2019-10-12T16:32:11.922Z</time>
      </trkpt>
      <trkpt lat="20.236635" lon="-98.74342833">
        <ele>1983.0</ele>
        <time>2019-10-12T16:32:12.927Z</time>
      </trkpt>
      <trkpt lat="20.23662667" lon="-98.74341667">
        <ele>1983.0</ele>
        <time>2019-10-12T16:32:13.933Z</time>
      </trkpt>
      <trkpt lat="20.23662167" lon="-98.74341">
        <ele>1983.0</ele>
        <time>2019-10-12T16:32:14.938Z</time>
      </trkpt>
      <trkpt lat="20.23661667" lon="-98.74340167">
        <ele>1984.0</ele>
        <time>2019-10-12T16:32:15.942Z</time>
      </trkpt>
      <trkpt lat="20.23661333" lon="-98.74339">
        <ele>1984.0</ele>
        <time>2019-10-12T16:32:16.945Z</time>
      </trkpt>
      <trkpt lat="20.23661" lon="-98.74337667">
        <ele>1985.0</ele>
        <time>2019-10-12T16:32:17.952Z</time>
      </trkpt>
      <trkpt lat="20.236605" lon="-98.74336333">
        <ele>1985.0</ele>
        <time>2019-10-12T16:32:18.834Z</time>
      </trkpt>
      <trkpt lat="20.23660333" lon="-98.743355">
        <ele>1985.0</ele>
        <time>2019-10-12T16:32:19.839Z</time>
      </trkpt>
      <trkpt lat="20.2366" lon="-98.743345">
        <ele>1986.0</ele>
        <time>2019-10-12T16:32:20.839Z</time>
      </trkpt>
      <trkpt lat="20.23659667" lon="-98.743335">
        <ele>1986.0</ele>
        <time>2019-10-12T16:32:21.839Z</time>
      </trkpt>
      <trkpt lat="20.23659333" lon="-98.743325">
        <ele>1987.0</ele>
        <time>2019-10-12T16:32:22.843Z</time>
      </trkpt>
      <trkpt lat="20.23659333" lon="-98.74331333">
        <ele>1988.0</ele>
        <time>2019-10-12T16:32:23.850Z</time>
      </trkpt>
      <trkpt lat="20.23659167" lon="-98.7433">
        <ele>1989.0</ele>
        <time>2019-10-12T16:32:24.856Z</time>
      </trkpt>
      <trkpt lat="20.23658333" lon="-98.74329167">
        <ele>1989.0</ele>
        <time>2019-10-12T16:32:25.862Z</time>
      </trkpt>
      <trkpt lat="20.23658" lon="-98.74329">
        <ele>1989.0</ele>
        <time>2019-10-12T16:32:26.863Z</time>
      </trkpt>
      <trkpt lat="20.23657667" lon="-98.74328667">
        <ele>1989.0</ele>
        <time>2019-10-12T16:32:27.865Z</time>
      </trkpt>
      <trkpt lat="20.23658" lon="-98.74328333">
        <ele>1990.0</ele>
        <time>2019-10-12T16:32:28.868Z</time>
      </trkpt>
      <trkpt lat="20.23658" lon="-98.74328">
        <ele>1990.0</ele>
        <time>2019-10-12T16:32:29.875Z</time>
      </trkpt>
      <trkpt lat="20.23657833" lon="-98.74327833">
        <ele>1990.0</ele>
        <time>2019-10-12T16:32:30.882Z</time>
      </trkpt>
      <trkpt lat="20.236575" lon="-98.74327833">
        <ele>1990.0</ele>
        <time>2019-10-12T16:32:31.889Z</time>
      </trkpt>
      <trkpt lat="20.23657167" lon="-98.74327833">
        <ele>1990.0</ele>
        <time>2019-10-12T16:32:32.895Z</time>
      </trkpt>
      <trkpt lat="20.23656833" lon="-98.74328">
        <ele>1989.0</ele>
        <time>2019-10-12T16:32:33.901Z</time>
      </trkpt>
      <trkpt lat="20.23656" lon="-98.743285">
        <ele>1988.0</ele>
        <time>2019-10-12T16:32:34.906Z</time>
      </trkpt>
      <trkpt lat="20.23655167" lon="-98.74329">
        <ele>1988.0</ele>
        <time>2019-10-12T16:32:35.911Z</time>
      </trkpt>
      <trkpt lat="20.236545" lon="-98.74329167">
        <ele>1987.0</ele>
        <time>2019-10-12T16:32:36.912Z</time>
      </trkpt>
      <trkpt lat="20.23654167" lon="-98.74329">
        <ele>1987.0</ele>
        <time>2019-10-12T16:32:37.912Z</time>
      </trkpt>
      <trkpt lat="20.23653833" lon="-98.74329167">
        <ele>1987.0</ele>
        <time>2019-10-12T16:32:38.913Z</time>
      </trkpt>
      <trkpt lat="20.23654" lon="-98.74329333">
        <ele>1987.0</ele>
        <time>2019-10-12T16:32:39.914Z</time>
      </trkpt>
      <trkpt lat="20.23654" lon="-98.743295">
        <ele>1986.0</ele>
        <time>2019-10-12T16:32:40.915Z</time>
      </trkpt>
      <trkpt lat="20.23653833" lon="-98.743295">
        <ele>1986.0</ele>
        <time>2019-10-12T16:32:41.916Z</time>
      </trkpt>
      <trkpt lat="20.23653667" lon="-98.74329833">
        <ele>1986.0</ele>
        <time>2019-10-12T16:32:42.917Z</time>
      </trkpt>
      <trkpt lat="20.23653667" lon="-98.743295">
        <ele>1986.0</ele>
        <time>2019-10-12T16:32:43.917Z</time>
      </trkpt>
      <trkpt lat="20.23653833" lon="-98.74328833">
        <ele>1986.0</ele>
        <time>2019-10-12T16:32:44.918Z</time>
      </trkpt>
      <trkpt lat="20.23654" lon="-98.743285">
        <ele>1986.0</ele>
        <time>2019-10-12T16:32:45.919Z</time>
      </trkpt>
      <trkpt lat="20.23654" lon="-98.74328167">
        <ele>1986.0</ele>
        <time>2019-10-12T16:32:46.920Z</time>
      </trkpt>
      <trkpt lat="20.23653833" lon="-98.74328">
        <ele>1985.0</ele>
        <time>2019-10-12T16:32:47.921Z</time>
      </trkpt>
      <trkpt lat="20.23654167" lon="-98.74327333">
        <ele>1986.0</ele>
        <time>2019-10-12T16:32:48.921Z</time>
      </trkpt>
      <trkpt lat="20.23654333" lon="-98.74326667">
        <ele>1986.0</ele>
        <time>2019-10-12T16:32:49.922Z</time>
      </trkpt>
      <trkpt lat="20.23654667" lon="-98.74326167">
        <ele>1986.0</ele>
        <time>2019-10-12T16:32:50.922Z</time>
      </trkpt>
      <trkpt lat="20.236555" lon="-98.74325833">
        <ele>1986.0</ele>
        <time>2019-10-12T16:32:51.923Z</time>
      </trkpt>
      <trkpt lat="20.23656" lon="-98.74325167">
        <ele>1987.0</ele>
        <time>2019-10-12T16:32:52.924Z</time>
      </trkpt>
      <trkpt lat="20.23656667" lon="-98.74324333">
        <ele>1987.0</ele>
        <time>2019-10-12T16:32:53.924Z</time>
      </trkpt>
      <trkpt lat="20.23657333" lon="-98.743235">
        <ele>1987.0</ele>
        <time>2019-10-12T16:32:54.925Z</time>
      </trkpt>
      <trkpt lat="20.236575" lon="-98.743225">
        <ele>1987.0</ele>
        <time>2019-10-12T16:32:55.926Z</time>
      </trkpt>
      <trkpt lat="20.23657333" lon="-98.743215">
        <ele>1986.0</ele>
        <time>2019-10-12T16:32:56.927Z</time>
      </trkpt>
      <trkpt lat="20.23657" lon="-98.74321">
        <ele>1985.0</ele>
        <time>2019-10-12T16:32:57.928Z</time>
      </trkpt>
      <trkpt lat="20.23656667" lon="-98.74320333">
        <ele>1985.0</ele>
        <time>2019-10-12T16:32:58.928Z</time>
      </trkpt>
      <trkpt lat="20.236565" lon="-98.74319833">
        <ele>1985.0</ele>
        <time>2019-10-12T16:32:59.928Z</time>
      </trkpt>
      <trkpt lat="20.236565" lon="-98.743195">
        <ele>1985.0</ele>
        <time>2019-10-12T16:33:00.929Z</time>
      </trkpt>
      <trkpt lat="20.23656" lon="-98.74319333">
        <ele>1985.0</ele>
        <time>2019-10-12T16:33:01.931Z</time>
      </trkpt>
      <trkpt lat="20.23655667" lon="-98.74319167">
        <ele>1984.0</ele>
        <time>2019-10-12T16:33:02.936Z</time>
      </trkpt>
      <trkpt lat="20.23655333" lon="-98.74319167">
        <ele>1984.0</ele>
        <time>2019-10-12T16:33:03.940Z</time>
      </trkpt>
      <trkpt lat="20.23654333" lon="-98.74319">
        <ele>1983.0</ele>
        <time>2019-10-12T16:33:04.945Z</time>
      </trkpt>
      <trkpt lat="20.23652333" lon="-98.74318333">
        <ele>1982.0</ele>
        <time>2019-10-12T16:33:05.948Z</time>
      </trkpt>
      <trkpt lat="20.23650833" lon="-98.74318">
        <ele>1980.0</ele>
        <time>2019-10-12T16:33:06.953Z</time>
      </trkpt>
      <trkpt lat="20.23650667" lon="-98.74317333">
        <ele>1980.0</ele>
        <time>2019-10-12T16:33:07.834Z</time>
      </trkpt>
      <trkpt lat="20.23650333" lon="-98.743165">
        <ele>1979.0</ele>
        <time>2019-10-12T16:33:08.841Z</time>
      </trkpt>
      <trkpt lat="20.2365" lon="-98.74315833">
        <ele>1979.0</ele>
        <time>2019-10-12T16:33:09.848Z</time>
      </trkpt>
      <trkpt lat="20.23649667" lon="-98.74315">
        <ele>1979.0</ele>
        <time>2019-10-12T16:33:10.849Z</time>
      </trkpt>
      <trkpt lat="20.236495" lon="-98.74314333">
        <ele>1979.0</ele>
        <time>2019-10-12T16:33:11.853Z</time>
      </trkpt>
      <trkpt lat="20.23649667" lon="-98.74313167">
        <ele>1979.0</ele>
        <time>2019-10-12T16:33:12.858Z</time>
      </trkpt>
      <trkpt lat="20.23649833" lon="-98.74312333">
        <ele>1979.0</ele>
        <time>2019-10-12T16:33:13.866Z</time>
      </trkpt>
      <trkpt lat="20.23649833" lon="-98.74311667">
        <ele>1980.0</ele>
        <time>2019-10-12T16:33:14.870Z</time>
      </trkpt>
      <trkpt lat="20.2365" lon="-98.74310167">
        <ele>1981.0</ele>
        <time>2019-10-12T16:33:15.876Z</time>
      </trkpt>
      <trkpt lat="20.2365" lon="-98.74309333">
        <ele>1982.0</ele>
        <time>2019-10-12T16:33:16.877Z</time>
      </trkpt>
      <trkpt lat="20.23649833" lon="-98.74308667">
        <ele>1982.0</ele>
        <time>2019-10-12T16:33:17.877Z</time>
      </trkpt>
      <trkpt lat="20.23650333" lon="-98.74307833">
        <ele>1983.0</ele>
        <time>2019-10-12T16:33:18.878Z</time>
      </trkpt>
      <trkpt lat="20.23650833" lon="-98.74306833">
        <ele>1984.0</ele>
        <time>2019-10-12T16:33:19.879Z</time>
      </trkpt>
      <trkpt lat="20.23651" lon="-98.74305833">
        <ele>1984.0</ele>
        <time>2019-10-12T16:33:20.880Z</time>
      </trkpt>
      <trkpt lat="20.23650833" lon="-98.74304833">
        <ele>1984.0</ele>
        <time>2019-10-12T16:33:21.883Z</time>
      </trkpt>
      <trkpt lat="20.23651167" lon="-98.74304">
        <ele>1984.0</ele>
        <time>2019-10-12T16:33:22.891Z</time>
      </trkpt>
      <trkpt lat="20.23651333" lon="-98.74303">
        <ele>1984.0</ele>
        <time>2019-10-12T16:33:23.897Z</time>
      </trkpt>
      <trkpt lat="20.23651333" lon="-98.74302">
        <ele>1985.0</ele>
        <time>2019-10-12T16:33:24.901Z</time>
      </trkpt>
      <trkpt lat="20.23651833" lon="-98.74301333">
        <ele>1985.0</ele>
        <time>2019-10-12T16:33:25.907Z</time>
      </trkpt>
      <trkpt lat="20.23651667" lon="-98.743005">
        <ele>1986.0</ele>
        <time>2019-10-12T16:33:26.910Z</time>
      </trkpt>
      <trkpt lat="20.236515" lon="-98.743">
        <ele>1987.0</ele>
        <time>2019-10-12T16:33:27.917Z</time>
      </trkpt>
      <trkpt lat="20.23651333" lon="-98.74299833">
        <ele>1987.0</ele>
        <time>2019-10-12T16:33:28.923Z</time>
      </trkpt>
      <trkpt lat="20.236515" lon="-98.742995">
        <ele>1988.0</ele>
        <time>2019-10-12T16:33:29.929Z</time>
      </trkpt>
      <trkpt lat="20.23651333" lon="-98.74299">
        <ele>1988.0</ele>
        <time>2019-10-12T16:33:30.936Z</time>
      </trkpt>
      <trkpt lat="20.23651333" lon="-98.74298333">
        <ele>1988.0</ele>
        <time>2019-10-12T16:33:31.941Z</time>
      </trkpt>
      <trkpt lat="20.23651333" lon="-98.742975">
        <ele>1988.0</ele>
        <time>2019-10-12T16:33:32.947Z</time>
      </trkpt>
      <trkpt lat="20.23651333" lon="-98.74296333">
        <ele>1988.0</ele>
        <time>2019-10-12T16:33:33.952Z</time>
      </trkpt>
      <trkpt lat="20.23651333" lon="-98.74295">
        <ele>1989.0</ele>
        <time>2019-10-12T16:33:34.953Z</time>
      </trkpt>
      <trkpt lat="20.23651" lon="-98.74293833">
        <ele>1989.0</ele>
        <time>2019-10-12T16:33:35.954Z</time>
      </trkpt>
      <trkpt lat="20.23650833" lon="-98.742925">
        <ele>1990.0</ele>
        <time>2019-10-12T16:33:36.954Z</time>
      </trkpt>
      <trkpt lat="20.23650667" lon="-98.74291167">
        <ele>1990.0</ele>
        <time>2019-10-12T16:33:37.830Z</time>
      </trkpt>
      <trkpt lat="20.23650333" lon="-98.74289833">
        <ele>1990.0</ele>
        <time>2019-10-12T16:33:38.831Z</time>
      </trkpt>
      <trkpt lat="20.23649833" lon="-98.74288833">
        <ele>1990.0</ele>
        <time>2019-10-12T16:33:39.832Z</time>
      </trkpt>
      <trkpt lat="20.23649167" lon="-98.74288">
        <ele>1989.0</ele>
        <time>2019-10-12T16:33:40.833Z</time>
      </trkpt>
      <trkpt lat="20.23648167" lon="-98.74287167">
        <ele>1989.0</ele>
        <time>2019-10-12T16:33:41.833Z</time>
      </trkpt>
      <trkpt lat="20.23647333" lon="-98.742865">
        <ele>1988.0</ele>
        <time>2019-10-12T16:33:42.834Z</time>
      </trkpt>
      <trkpt lat="20.23646" lon="-98.74285833">
        <ele>1988.0</ele>
        <time>2019-10-12T16:33:43.835Z</time>
      </trkpt>
      <trkpt lat="20.23644833" lon="-98.74285333">
        <ele>1988.0</ele>
        <time>2019-10-12T16:33:44.835Z</time>
      </trkpt>
      <trkpt lat="20.23643667" lon="-98.74284833">
        <ele>1988.0</ele>
        <time>2019-10-12T16:33:45.837Z</time>
      </trkpt>
      <trkpt lat="20.23642167" lon="-98.742845">
        <ele>1988.0</ele>
        <time>2019-10-12T16:33:46.840Z</time>
      </trkpt>
      <trkpt lat="20.23640833" lon="-98.74284">
        <ele>1988.0</ele>
        <time>2019-10-12T16:33:47.846Z</time>
      </trkpt>
      <trkpt lat="20.23639167" lon="-98.74283667">
        <ele>1988.0</ele>
        <time>2019-10-12T16:33:48.852Z</time>
      </trkpt>
      <trkpt lat="20.23638" lon="-98.74283333">
        <ele>1988.0</ele>
        <time>2019-10-12T16:33:49.854Z</time>
      </trkpt>
      <trkpt lat="20.23636833" lon="-98.74282833">
        <ele>1989.0</ele>
        <time>2019-10-12T16:33:50.861Z</time>
      </trkpt>
      <trkpt lat="20.236355" lon="-98.742825">
        <ele>1989.0</ele>
        <time>2019-10-12T16:33:51.866Z</time>
      </trkpt>
      <trkpt lat="20.23634" lon="-98.74282">
        <ele>1989.0</ele>
        <time>2019-10-12T16:33:52.873Z</time>
      </trkpt>
      <trkpt lat="20.23632833" lon="-98.74281833">
        <ele>1989.0</ele>
        <time>2019-10-12T16:33:53.878Z</time>
      </trkpt>
      <trkpt lat="20.23631333" lon="-98.74281667">
        <ele>1989.0</ele>
        <time>2019-10-12T16:33:54.883Z</time>
      </trkpt>
      <trkpt lat="20.23629833" lon="-98.74281833">
        <ele>1989.0</ele>
        <time>2019-10-12T16:33:55.889Z</time>
      </trkpt>
      <trkpt lat="20.23628333" lon="-98.74282167">
        <ele>1988.0</ele>
        <time>2019-10-12T16:33:56.891Z</time>
      </trkpt>
      <trkpt lat="20.23626833" lon="-98.74282333">
        <ele>1987.0</ele>
        <time>2019-10-12T16:33:57.897Z</time>
      </trkpt>
      <trkpt lat="20.23625667" lon="-98.74282167">
        <ele>1987.0</ele>
        <time>2019-10-12T16:33:58.904Z</time>
      </trkpt>
      <trkpt lat="20.23624167" lon="-98.74281667">
        <ele>1987.0</ele>
        <time>2019-10-12T16:33:59.910Z</time>
      </trkpt>
      <trkpt lat="20.23622833" lon="-98.74281">
        <ele>1987.0</ele>
        <time>2019-10-12T16:34:00.911Z</time>
      </trkpt>
      <trkpt lat="20.236215" lon="-98.74280333">
        <ele>1987.0</ele>
        <time>2019-10-12T16:34:01.915Z</time>
      </trkpt>
      <trkpt lat="20.23620333" lon="-98.742805">
        <ele>1987.0</ele>
        <time>2019-10-12T16:34:02.922Z</time>
      </trkpt>
      <trkpt lat="20.23619333" lon="-98.742805">
        <ele>1987.0</ele>
        <time>2019-10-12T16:34:03.927Z</time>
      </trkpt>
      <trkpt lat="20.236185" lon="-98.742805">
        <ele>1986.0</ele>
        <time>2019-10-12T16:34:04.929Z</time>
      </trkpt>
      <trkpt lat="20.23617667" lon="-98.7428">
        <ele>1986.0</ele>
        <time>2019-10-12T16:34:05.934Z</time>
      </trkpt>
      <trkpt lat="20.236165" lon="-98.74279167">
        <ele>1985.0</ele>
        <time>2019-10-12T16:34:06.940Z</time>
      </trkpt>
      <trkpt lat="20.23615" lon="-98.742785">
        <ele>1985.0</ele>
        <time>2019-10-12T16:34:07.947Z</time>
      </trkpt>
      <trkpt lat="20.23612833" lon="-98.74278167">
        <ele>1984.0</ele>
        <time>2019-10-12T16:34:08.954Z</time>
      </trkpt>
      <trkpt lat="20.23610833" lon="-98.74278167">
        <ele>1983.0</ele>
        <time>2019-10-12T16:34:09.834Z</time>
      </trkpt>
      <trkpt lat="20.23609" lon="-98.74278167">
        <ele>1983.0</ele>
        <time>2019-10-12T16:34:10.840Z</time>
      </trkpt>
      <trkpt lat="20.236075" lon="-98.74278333">
        <ele>1983.0</ele>
        <time>2019-10-12T16:34:11.846Z</time>
      </trkpt>
      <trkpt lat="20.23605833" lon="-98.742785">
        <ele>1982.0</ele>
        <time>2019-10-12T16:34:12.852Z</time>
      </trkpt>
      <trkpt lat="20.236045" lon="-98.74278833">
        <ele>1982.0</ele>
        <time>2019-10-12T16:34:13.858Z</time>
      </trkpt>
      <trkpt lat="20.23602833" lon="-98.74279167">
        <ele>1981.0</ele>
        <time>2019-10-12T16:34:14.859Z</time>
      </trkpt>
      <trkpt lat="20.23601667" lon="-98.742795">
        <ele>1981.0</ele>
        <time>2019-10-12T16:34:15.860Z</time>
      </trkpt>
      <trkpt lat="20.23600667" lon="-98.74279833">
        <ele>1981.0</ele>
        <time>2019-10-12T16:34:16.860Z</time>
      </trkpt>
      <trkpt lat="20.23599833" lon="-98.742805">
        <ele>1981.0</ele>
        <time>2019-10-12T16:34:17.862Z</time>
      </trkpt>
      <trkpt lat="20.23599167" lon="-98.74281167">
        <ele>1980.0</ele>
        <time>2019-10-12T16:34:18.864Z</time>
      </trkpt>
      <trkpt lat="20.23598333" lon="-98.74281833">
        <ele>1980.0</ele>
        <time>2019-10-12T16:34:19.870Z</time>
      </trkpt>
      <trkpt lat="20.23597333" lon="-98.74282">
        <ele>1980.0</ele>
        <time>2019-10-12T16:34:20.875Z</time>
      </trkpt>
      <trkpt lat="20.23596167" lon="-98.74282">
        <ele>1979.0</ele>
        <time>2019-10-12T16:34:21.877Z</time>
      </trkpt>
      <trkpt lat="20.23595" lon="-98.74282667">
        <ele>1979.0</ele>
        <time>2019-10-12T16:34:22.880Z</time>
      </trkpt>
      <trkpt lat="20.23594167" lon="-98.74283333">
        <ele>1978.0</ele>
        <time>2019-10-12T16:34:23.886Z</time>
      </trkpt>
      <trkpt lat="20.23593333" lon="-98.74284">
        <ele>1978.0</ele>
        <time>2019-10-12T16:34:24.890Z</time>
      </trkpt>
      <trkpt lat="20.23592333" lon="-98.74284">
        <ele>1978.0</ele>
        <time>2019-10-12T16:34:25.896Z</time>
      </trkpt>
      <trkpt lat="20.23591333" lon="-98.74283833">
        <ele>1977.0</ele>
        <time>2019-10-12T16:34:26.899Z</time>
      </trkpt>
      <trkpt lat="20.23590333" lon="-98.74283833">
        <ele>1977.0</ele>
        <time>2019-10-12T16:34:27.902Z</time>
      </trkpt>
      <trkpt lat="20.23589667" lon="-98.74284333">
        <ele>1977.0</ele>
        <time>2019-10-12T16:34:28.907Z</time>
      </trkpt>
      <trkpt lat="20.23588667" lon="-98.74284833">
        <ele>1976.0</ele>
        <time>2019-10-12T16:34:29.913Z</time>
      </trkpt>
      <trkpt lat="20.235875" lon="-98.74285167">
        <ele>1976.0</ele>
        <time>2019-10-12T16:34:30.919Z</time>
      </trkpt>
      <trkpt lat="20.23586333" lon="-98.742855">
        <ele>1976.0</ele>
        <time>2019-10-12T16:34:31.922Z</time>
      </trkpt>
      <trkpt lat="20.23585167" lon="-98.74285667">
        <ele>1976.0</ele>
        <time>2019-10-12T16:34:32.925Z</time>
      </trkpt>
      <trkpt lat="20.23584" lon="-98.74285667">
        <ele>1977.0</ele>
        <time>2019-10-12T16:34:33.931Z</time>
      </trkpt>
      <trkpt lat="20.23583" lon="-98.74285667">
        <ele>1977.0</ele>
        <time>2019-10-12T16:34:34.936Z</time>
      </trkpt>
      <trkpt lat="20.23581667" lon="-98.742855">
        <ele>1977.0</ele>
        <time>2019-10-12T16:34:35.938Z</time>
      </trkpt>
      <trkpt lat="20.23580333" lon="-98.74285667">
        <ele>1977.0</ele>
        <time>2019-10-12T16:34:36.939Z</time>
      </trkpt>
      <trkpt lat="20.23579667" lon="-98.742865">
        <ele>1977.0</ele>
        <time>2019-10-12T16:34:37.940Z</time>
      </trkpt>
      <trkpt lat="20.23578833" lon="-98.74287167">
        <ele>1977.0</ele>
        <time>2019-10-12T16:34:38.941Z</time>
      </trkpt>
      <trkpt lat="20.23577667" lon="-98.74288">
        <ele>1976.0</ele>
        <time>2019-10-12T16:34:39.941Z</time>
      </trkpt>
      <trkpt lat="20.235765" lon="-98.742885">
        <ele>1977.0</ele>
        <time>2019-10-12T16:34:40.942Z</time>
      </trkpt>
      <trkpt lat="20.23575833" lon="-98.74289167">
        <ele>1977.0</ele>
        <time>2019-10-12T16:34:41.943Z</time>
      </trkpt>
      <trkpt lat="20.23574833" lon="-98.7429">
        <ele>1976.0</ele>
        <time>2019-10-12T16:34:42.944Z</time>
      </trkpt>
      <trkpt lat="20.23574167" lon="-98.74291333">
        <ele>1976.0</ele>
        <time>2019-10-12T16:34:43.945Z</time>
      </trkpt>
      <trkpt lat="20.23573333" lon="-98.74292">
        <ele>1976.0</ele>
        <time>2019-10-12T16:34:44.949Z</time>
      </trkpt>
      <trkpt lat="20.23572333" lon="-98.74293">
        <ele>1975.0</ele>
        <time>2019-10-12T16:34:45.953Z</time>
      </trkpt>
      <trkpt lat="20.23571667" lon="-98.74294">
        <ele>1975.0</ele>
        <time>2019-10-12T16:34:46.833Z</time>
      </trkpt>
      <trkpt lat="20.23571167" lon="-98.74295167">
        <ele>1974.0</ele>
        <time>2019-10-12T16:34:47.837Z</time>
      </trkpt>
      <trkpt lat="20.23570667" lon="-98.74296333">
        <ele>1974.0</ele>
        <time>2019-10-12T16:34:48.838Z</time>
      </trkpt>
      <trkpt lat="20.2357" lon="-98.74297667">
        <ele>1974.0</ele>
        <time>2019-10-12T16:34:49.842Z</time>
      </trkpt>
      <trkpt lat="20.23569" lon="-98.74299167">
        <ele>1974.0</ele>
        <time>2019-10-12T16:34:50.844Z</time>
      </trkpt>
      <trkpt lat="20.23567833" lon="-98.743005">
        <ele>1973.0</ele>
        <time>2019-10-12T16:34:51.848Z</time>
      </trkpt>
      <trkpt lat="20.23566333" lon="-98.743015">
        <ele>1973.0</ele>
        <time>2019-10-12T16:34:52.850Z</time>
      </trkpt>
      <trkpt lat="20.23565" lon="-98.74302167">
        <ele>1972.0</ele>
        <time>2019-10-12T16:34:53.854Z</time>
      </trkpt>
      <trkpt lat="20.23563833" lon="-98.74302833">
        <ele>1972.0</ele>
        <time>2019-10-12T16:34:54.859Z</time>
      </trkpt>
      <trkpt lat="20.23563167" lon="-98.74303833">
        <ele>1971.0</ele>
        <time>2019-10-12T16:34:55.866Z</time>
      </trkpt>
      <trkpt lat="20.23562" lon="-98.74304833">
        <ele>1971.0</ele>
        <time>2019-10-12T16:34:56.872Z</time>
      </trkpt>
      <trkpt lat="20.23560833" lon="-98.743055">
        <ele>1971.0</ele>
        <time>2019-10-12T16:34:57.874Z</time>
      </trkpt>
      <trkpt lat="20.23559667" lon="-98.74306167">
        <ele>1972.0</ele>
        <time>2019-10-12T16:34:58.878Z</time>
      </trkpt>
      <trkpt lat="20.23558667" lon="-98.74307167">
        <ele>1972.0</ele>
        <time>2019-10-12T16:34:59.881Z</time>
      </trkpt>
      <trkpt lat="20.23558167" lon="-98.74308167">
        <ele>1972.0</ele>
        <time>2019-10-12T16:35:00.889Z</time>
      </trkpt>
      <trkpt lat="20.23558167" lon="-98.74308833">
        <ele>1972.0</ele>
        <time>2019-10-12T16:35:01.892Z</time>
      </trkpt>
      <trkpt lat="20.23558167" lon="-98.74309333">
        <ele>1972.0</ele>
        <time>2019-10-12T16:35:02.893Z</time>
      </trkpt>
      <trkpt lat="20.23557667" lon="-98.74309667">
        <ele>1972.0</ele>
        <time>2019-10-12T16:35:03.894Z</time>
      </trkpt>
      <trkpt lat="20.23557" lon="-98.7431">
        <ele>1971.0</ele>
        <time>2019-10-12T16:35:04.895Z</time>
      </trkpt>
      <trkpt lat="20.23556" lon="-98.74310667">
        <ele>1971.0</ele>
        <time>2019-10-12T16:35:05.896Z</time>
      </trkpt>
      <trkpt lat="20.23555167" lon="-98.74311333">
        <ele>1970.0</ele>
        <time>2019-10-12T16:35:06.896Z</time>
      </trkpt>
      <trkpt lat="20.23554667" lon="-98.74312167">
        <ele>1970.0</ele>
        <time>2019-10-12T16:35:07.897Z</time>
      </trkpt>
      <trkpt lat="20.23554333" lon="-98.74313333">
        <ele>1970.0</ele>
        <time>2019-10-12T16:35:08.898Z</time>
      </trkpt>
      <trkpt lat="20.23554" lon="-98.743145">
        <ele>1971.0</ele>
        <time>2019-10-12T16:35:09.899Z</time>
      </trkpt>
      <trkpt lat="20.23553167" lon="-98.74315333">
        <ele>1971.0</ele>
        <time>2019-10-12T16:35:10.900Z</time>
      </trkpt>
      <trkpt lat="20.23552167" lon="-98.743155">
        <ele>1972.0</ele>
        <time>2019-10-12T16:35:11.901Z</time>
      </trkpt>
      <trkpt lat="20.23551333" lon="-98.74315333">
        <ele>1972.0</ele>
        <time>2019-10-12T16:35:12.907Z</time>
      </trkpt>
      <trkpt lat="20.23551" lon="-98.74315167">
        <ele>1973.0</ele>
        <time>2019-10-12T16:35:13.910Z</time>
      </trkpt>
      <trkpt lat="20.2355" lon="-98.74314667">
        <ele>1973.0</ele>
        <time>2019-10-12T16:35:14.914Z</time>
      </trkpt>
      <trkpt lat="20.23548667" lon="-98.74314">
        <ele>1974.0</ele>
        <time>2019-10-12T16:35:15.920Z</time>
      </trkpt>
      <trkpt lat="20.235475" lon="-98.743135">
        <ele>1974.0</ele>
        <time>2019-10-12T16:35:16.926Z</time>
      </trkpt>
      <trkpt lat="20.23546167" lon="-98.74313">
        <ele>1973.0</ele>
        <time>2019-10-12T16:35:17.933Z</time>
      </trkpt>
      <trkpt lat="20.23545167" lon="-98.74313">
        <ele>1973.0</ele>
        <time>2019-10-12T16:35:18.937Z</time>
      </trkpt>
      <trkpt lat="20.235445" lon="-98.74313">
        <ele>1974.0</ele>
        <time>2019-10-12T16:35:19.940Z</time>
      </trkpt>
      <trkpt lat="20.23544333" lon="-98.74313167">
        <ele>1975.0</ele>
        <time>2019-10-12T16:35:20.947Z</time>
      </trkpt>
      <trkpt lat="20.23544" lon="-98.743135">
        <ele>1975.0</ele>
        <time>2019-10-12T16:35:21.954Z</time>
      </trkpt>
      <trkpt lat="20.23544" lon="-98.74313">
        <ele>1975.0</ele>
        <time>2019-10-12T16:35:22.832Z</time>
      </trkpt>
      <trkpt lat="20.23543333" lon="-98.74312667">
        <ele>1975.0</ele>
        <time>2019-10-12T16:35:23.838Z</time>
      </trkpt>
      <trkpt lat="20.23542667" lon="-98.743125">
        <ele>1976.0</ele>
        <time>2019-10-12T16:35:24.841Z</time>
      </trkpt>
      <trkpt lat="20.23542167" lon="-98.743125">
        <ele>1977.0</ele>
        <time>2019-10-12T16:35:25.844Z</time>
      </trkpt>
      <trkpt lat="20.23541833" lon="-98.74312833">
        <ele>1977.0</ele>
        <time>2019-10-12T16:35:26.849Z</time>
      </trkpt>
      <trkpt lat="20.235415" lon="-98.74313167">
        <ele>1977.0</ele>
        <time>2019-10-12T16:35:27.850Z</time>
      </trkpt>
      <trkpt lat="20.23540833" lon="-98.74312833">
        <ele>1977.0</ele>
        <time>2019-10-12T16:35:28.851Z</time>
      </trkpt>
      <trkpt lat="20.23540167" lon="-98.743125">
        <ele>1976.0</ele>
        <time>2019-10-12T16:35:29.852Z</time>
      </trkpt>
      <trkpt lat="20.23539667" lon="-98.74311667">
        <ele>1976.0</ele>
        <time>2019-10-12T16:35:30.856Z</time>
      </trkpt>
      <trkpt lat="20.235395" lon="-98.74311667">
        <ele>1976.0</ele>
        <time>2019-10-12T16:35:31.863Z</time>
      </trkpt>
      <trkpt lat="20.235395" lon="-98.74311667">
        <ele>1974.0</ele>
        <time>2019-10-12T16:35:32.867Z</time>
      </trkpt>
      <trkpt lat="20.23539333" lon="-98.743115">
        <ele>1974.0</ele>
        <time>2019-10-12T16:35:33.871Z</time>
      </trkpt>
      <trkpt lat="20.23538167" lon="-98.7431">
        <ele>1973.0</ele>
        <time>2019-10-12T16:35:34.876Z</time>
      </trkpt>
      <trkpt lat="20.23537833" lon="-98.743085">
        <ele>1973.0</ele>
        <time>2019-10-12T16:35:35.880Z</time>
      </trkpt>
      <trkpt lat="20.23537667" lon="-98.74307833">
        <ele>1974.0</ele>
        <time>2019-10-12T16:35:36.886Z</time>
      </trkpt>
      <trkpt lat="20.235375" lon="-98.74307167">
        <ele>1974.0</ele>
        <time>2019-10-12T16:35:37.889Z</time>
      </trkpt>
      <trkpt lat="20.23537833" lon="-98.74306667">
        <ele>1975.0</ele>
        <time>2019-10-12T16:35:38.895Z</time>
      </trkpt>
      <trkpt lat="20.23538167" lon="-98.74306">
        <ele>1976.0</ele>
        <time>2019-10-12T16:35:39.901Z</time>
      </trkpt>
      <trkpt lat="20.23538167" lon="-98.74305333">
        <ele>1977.0</ele>
        <time>2019-10-12T16:35:40.906Z</time>
      </trkpt>
      <trkpt lat="20.23538167" lon="-98.743045">
        <ele>1978.0</ele>
        <time>2019-10-12T16:35:41.914Z</time>
      </trkpt>
      <trkpt lat="20.235385" lon="-98.74303833">
        <ele>1979.0</ele>
        <time>2019-10-12T16:35:42.922Z</time>
      </trkpt>
      <trkpt lat="20.23539333" lon="-98.74303167">
        <ele>1979.0</ele>
        <time>2019-10-12T16:35:43.925Z</time>
      </trkpt>
      <trkpt lat="20.2354" lon="-98.74302667">
        <ele>1980.0</ele>
        <time>2019-10-12T16:35:44.926Z</time>
      </trkpt>
      <trkpt lat="20.23540833" lon="-98.74302333">
        <ele>1980.0</ele>
        <time>2019-10-12T16:35:45.927Z</time>
      </trkpt>
      <trkpt lat="20.23541" lon="-98.743015">
        <ele>1981.0</ele>
        <time>2019-10-12T16:35:46.928Z</time>
      </trkpt>
      <trkpt lat="20.23540333" lon="-98.74300167">
        <ele>1981.0</ele>
        <time>2019-10-12T16:35:47.928Z</time>
      </trkpt>
      <trkpt lat="20.23540333" lon="-98.74299167">
        <ele>1982.0</ele>
        <time>2019-10-12T16:35:48.929Z</time>
      </trkpt>
      <trkpt lat="20.23540167" lon="-98.74298167">
        <ele>1982.0</ele>
        <time>2019-10-12T16:35:49.930Z</time>
      </trkpt>
      <trkpt lat="20.23540333" lon="-98.74297333">
        <ele>1982.0</ele>
        <time>2019-10-12T16:35:50.931Z</time>
      </trkpt>
      <trkpt lat="20.23540667" lon="-98.742965">
        <ele>1983.0</ele>
        <time>2019-10-12T16:35:51.932Z</time>
      </trkpt>
      <trkpt lat="20.23540667" lon="-98.74295833">
        <ele>1982.0</ele>
        <time>2019-10-12T16:35:52.933Z</time>
      </trkpt>
      <trkpt lat="20.23540833" lon="-98.74295667">
        <ele>1981.0</ele>
        <time>2019-10-12T16:35:53.937Z</time>
      </trkpt>
      <trkpt lat="20.23541333" lon="-98.74295333">
        <ele>1981.0</ele>
        <time>2019-10-12T16:35:54.945Z</time>
      </trkpt>
      <trkpt lat="20.23542167" lon="-98.74295167">
        <ele>1982.0</ele>
        <time>2019-10-12T16:35:55.950Z</time>
      </trkpt>
      <trkpt lat="20.23543" lon="-98.74294833">
        <ele>1982.0</ele>
        <time>2019-10-12T16:35:56.832Z</time>
      </trkpt>
      <trkpt lat="20.23544167" lon="-98.74294833">
        <ele>1982.0</ele>
        <time>2019-10-12T16:35:57.835Z</time>
      </trkpt>
      <trkpt lat="20.23545167" lon="-98.74294333">
        <ele>1982.0</ele>
        <time>2019-10-12T16:35:58.840Z</time>
      </trkpt>
      <trkpt lat="20.235455" lon="-98.74294">
        <ele>1982.0</ele>
        <time>2019-10-12T16:35:59.845Z</time>
      </trkpt>
      <trkpt lat="20.23546" lon="-98.74293333">
        <ele>1982.0</ele>
        <time>2019-10-12T16:36:00.849Z</time>
      </trkpt>
      <trkpt lat="20.23546833" lon="-98.74292667">
        <ele>1983.0</ele>
        <time>2019-10-12T16:36:01.856Z</time>
      </trkpt>
      <trkpt lat="20.23547167" lon="-98.74291833">
        <ele>1982.0</ele>
        <time>2019-10-12T16:36:02.863Z</time>
      </trkpt>
      <trkpt lat="20.23547333" lon="-98.74291">
        <ele>1982.0</ele>
        <time>2019-10-12T16:36:03.866Z</time>
      </trkpt>
      <trkpt lat="20.23547333" lon="-98.7429">
        <ele>1982.0</ele>
        <time>2019-10-12T16:36:04.872Z</time>
      </trkpt>
      <trkpt lat="20.23547333" lon="-98.742885">
        <ele>1982.0</ele>
        <time>2019-10-12T16:36:05.878Z</time>
      </trkpt>
      <trkpt lat="20.235475" lon="-98.742875">
        <ele>1983.0</ele>
        <time>2019-10-12T16:36:06.879Z</time>
      </trkpt>
      <trkpt lat="20.23547333" lon="-98.74286333">
        <ele>1983.0</ele>
        <time>2019-10-12T16:36:07.879Z</time>
      </trkpt>
      <trkpt lat="20.23547167" lon="-98.74285333">
        <ele>1983.0</ele>
        <time>2019-10-12T16:36:08.879Z</time>
      </trkpt>
      <trkpt lat="20.23547" lon="-98.742845">
        <ele>1984.0</ele>
        <time>2019-10-12T16:36:09.880Z</time>
      </trkpt>
      <trkpt lat="20.23546833" lon="-98.74283667">
        <ele>1984.0</ele>
        <time>2019-10-12T16:36:10.880Z</time>
      </trkpt>
      <trkpt lat="20.235465" lon="-98.742835">
        <ele>1985.0</ele>
        <time>2019-10-12T16:36:11.881Z</time>
      </trkpt>
      <trkpt lat="20.235465" lon="-98.74283333">
        <ele>1985.0</ele>
        <time>2019-10-12T16:36:12.882Z</time>
      </trkpt>
      <trkpt lat="20.23546333" lon="-98.74283333">
        <ele>1985.0</ele>
        <time>2019-10-12T16:36:13.883Z</time>
      </trkpt>
      <trkpt lat="20.23546167" lon="-98.74283333">
        <ele>1984.0</ele>
        <time>2019-10-12T16:36:14.884Z</time>
      </trkpt>
      <trkpt lat="20.235465" lon="-98.742835">
        <ele>1985.0</ele>
        <time>2019-10-12T16:36:15.885Z</time>
      </trkpt>
      <trkpt lat="20.235475" lon="-98.742835">
        <ele>1985.0</ele>
        <time>2019-10-12T16:36:16.885Z</time>
      </trkpt>
      <trkpt lat="20.23547833" lon="-98.742825">
        <ele>1985.0</ele>
        <time>2019-10-12T16:36:17.886Z</time>
      </trkpt>
      <trkpt lat="20.23548333" lon="-98.74281667">
        <ele>1985.0</ele>
        <time>2019-10-12T16:36:18.887Z</time>
      </trkpt>
      <trkpt lat="20.23548833" lon="-98.74280667">
        <ele>1984.0</ele>
        <time>2019-10-12T16:36:19.888Z</time>
      </trkpt>
      <trkpt lat="20.23549167" lon="-98.74279667">
        <ele>1984.0</ele>
        <time>2019-10-12T16:36:20.889Z</time>
      </trkpt>
      <trkpt lat="20.23549833" lon="-98.74278667">
        <ele>1984.0</ele>
        <time>2019-10-12T16:36:21.889Z</time>
      </trkpt>
      <trkpt lat="20.23550333" lon="-98.742775">
        <ele>1984.0</ele>
        <time>2019-10-12T16:36:22.890Z</time>
      </trkpt>
      <trkpt lat="20.23550833" lon="-98.74275833">
        <ele>1984.0</ele>
        <time>2019-10-12T16:36:23.891Z</time>
      </trkpt>
      <trkpt lat="20.235515" lon="-98.74274333">
        <ele>1984.0</ele>
        <time>2019-10-12T16:36:24.892Z</time>
      </trkpt>
      <trkpt lat="20.23551833" lon="-98.74273">
        <ele>1984.0</ele>
        <time>2019-10-12T16:36:25.892Z</time>
      </trkpt>
      <trkpt lat="20.235525" lon="-98.74271833">
        <ele>1983.0</ele>
        <time>2019-10-12T16:36:26.893Z</time>
      </trkpt>
      <trkpt lat="20.23553167" lon="-98.74270167">
        <ele>1983.0</ele>
        <time>2019-10-12T16:36:27.894Z</time>
      </trkpt>
      <trkpt lat="20.23553833" lon="-98.742685">
        <ele>1983.0</ele>
        <time>2019-10-12T16:36:28.895Z</time>
      </trkpt>
      <trkpt lat="20.23555" lon="-98.74267333">
        <ele>1982.0</ele>
        <time>2019-10-12T16:36:29.895Z</time>
      </trkpt>
      <trkpt lat="20.235565" lon="-98.742665">
        <ele>1982.0</ele>
        <time>2019-10-12T16:36:30.899Z</time>
      </trkpt>
      <trkpt lat="20.23557833" lon="-98.74265833">
        <ele>1982.0</ele>
        <time>2019-10-12T16:36:31.906Z</time>
      </trkpt>
      <trkpt lat="20.23558833" lon="-98.74264833">
        <ele>1982.0</ele>
        <time>2019-10-12T16:36:32.912Z</time>
      </trkpt>
      <trkpt lat="20.2356" lon="-98.74264">
        <ele>1982.0</ele>
        <time>2019-10-12T16:36:33.916Z</time>
      </trkpt>
      <trkpt lat="20.23561" lon="-98.74263167">
        <ele>1982.0</ele>
        <time>2019-10-12T16:36:34.921Z</time>
      </trkpt>
      <trkpt lat="20.235615" lon="-98.742625">
        <ele>1982.0</ele>
        <time>2019-10-12T16:36:35.924Z</time>
      </trkpt>
      <trkpt lat="20.23562333" lon="-98.742625">
        <ele>1983.0</ele>
        <time>2019-10-12T16:36:36.929Z</time>
      </trkpt>
      <trkpt lat="20.235635" lon="-98.742625">
        <ele>1984.0</ele>
        <time>2019-10-12T16:36:37.931Z</time>
      </trkpt>
      <trkpt lat="20.235645" lon="-98.742625">
        <ele>1984.0</ele>
        <time>2019-10-12T16:36:38.936Z</time>
      </trkpt>
      <trkpt lat="20.235655" lon="-98.742625">
        <ele>1985.0</ele>
        <time>2019-10-12T16:36:39.942Z</time>
      </trkpt>
      <trkpt lat="20.23566667" lon="-98.742625">
        <ele>1986.0</ele>
        <time>2019-10-12T16:36:40.949Z</time>
      </trkpt>
      <trkpt lat="20.23568167" lon="-98.74262167">
        <ele>1987.0</ele>
        <time>2019-10-12T16:36:41.951Z</time>
      </trkpt>
      <trkpt lat="20.23569167" lon="-98.742615">
        <ele>1987.0</ele>
        <time>2019-10-12T16:36:42.954Z</time>
      </trkpt>
      <trkpt lat="20.23569833" lon="-98.74260667">
        <ele>1986.0</ele>
        <time>2019-10-12T16:36:43.832Z</time>
      </trkpt>
      <trkpt lat="20.23570333" lon="-98.7426">
        <ele>1986.0</ele>
        <time>2019-10-12T16:36:44.837Z</time>
      </trkpt>
      <trkpt lat="20.23571333" lon="-98.74259333">
        <ele>1986.0</ele>
        <time>2019-10-12T16:36:45.843Z</time>
      </trkpt>
      <trkpt lat="20.23572" lon="-98.74258667">
        <ele>1985.0</ele>
        <time>2019-10-12T16:36:46.845Z</time>
      </trkpt>
      <trkpt lat="20.23572667" lon="-98.74258333">
        <ele>1985.0</ele>
        <time>2019-10-12T16:36:47.846Z</time>
      </trkpt>
      <trkpt lat="20.23573667" lon="-98.74257833">
        <ele>1984.0</ele>
        <time>2019-10-12T16:36:48.847Z</time>
      </trkpt>
      <trkpt lat="20.23575333" lon="-98.74258167">
        <ele>1984.0</ele>
        <time>2019-10-12T16:36:49.848Z</time>
      </trkpt>
      <trkpt lat="20.23576667" lon="-98.74258">
        <ele>1984.0</ele>
        <time>2019-10-12T16:36:50.848Z</time>
      </trkpt>
      <trkpt lat="20.23578333" lon="-98.742575">
        <ele>1984.0</ele>
        <time>2019-10-12T16:36:51.849Z</time>
      </trkpt>
      <trkpt lat="20.23579667" lon="-98.74257">
        <ele>1983.0</ele>
        <time>2019-10-12T16:36:52.850Z</time>
      </trkpt>
      <trkpt lat="20.23581333" lon="-98.74256333">
        <ele>1983.0</ele>
        <time>2019-10-12T16:36:53.850Z</time>
      </trkpt>
      <trkpt lat="20.23582833" lon="-98.74256">
        <ele>1983.0</ele>
        <time>2019-10-12T16:36:54.852Z</time>
      </trkpt>
      <trkpt lat="20.23584" lon="-98.74256">
        <ele>1983.0</ele>
        <time>2019-10-12T16:36:55.852Z</time>
      </trkpt>
      <trkpt lat="20.23585" lon="-98.74255833">
        <ele>1983.0</ele>
        <time>2019-10-12T16:36:56.853Z</time>
      </trkpt>
      <trkpt lat="20.23585833" lon="-98.74255667">
        <ele>1983.0</ele>
        <time>2019-10-12T16:36:57.854Z</time>
      </trkpt>
      <trkpt lat="20.23586667" lon="-98.742555">
        <ele>1985.0</ele>
        <time>2019-10-12T16:36:58.855Z</time>
      </trkpt>
      <trkpt lat="20.23586667" lon="-98.742555">
        <ele>1985.0</ele>
        <time>2019-10-12T16:36:59.856Z</time>
      </trkpt>
      <trkpt lat="20.23586167" lon="-98.74255833">
        <ele>1985.0</ele>
        <time>2019-10-12T16:37:00.861Z</time>
      </trkpt>
      <trkpt lat="20.235865" lon="-98.74256333">
        <ele>1985.0</ele>
        <time>2019-10-12T16:37:01.868Z</time>
      </trkpt>
      <trkpt lat="20.235865" lon="-98.74257">
        <ele>1985.0</ele>
        <time>2019-10-12T16:37:02.874Z</time>
      </trkpt>
      <trkpt lat="20.23586333" lon="-98.74257">
        <ele>1985.0</ele>
        <time>2019-10-12T16:37:03.878Z</time>
      </trkpt>
      <trkpt lat="20.23586167" lon="-98.74256833">
        <ele>1984.0</ele>
        <time>2019-10-12T16:37:04.881Z</time>
      </trkpt>
      <trkpt lat="20.23585833" lon="-98.74256667">
        <ele>1984.0</ele>
        <time>2019-10-12T16:37:05.881Z</time>
      </trkpt>
      <trkpt lat="20.23585667" lon="-98.742565">
        <ele>1984.0</ele>
        <time>2019-10-12T16:37:06.882Z</time>
      </trkpt>
      <trkpt lat="20.23585167" lon="-98.74256333">
        <ele>1983.0</ele>
        <time>2019-10-12T16:37:07.883Z</time>
      </trkpt>
      <trkpt lat="20.23585167" lon="-98.742565">
        <ele>1983.0</ele>
        <time>2019-10-12T16:37:08.886Z</time>
      </trkpt>
      <trkpt lat="20.23585167" lon="-98.74256167">
        <ele>1982.0</ele>
        <time>2019-10-12T16:37:09.892Z</time>
      </trkpt>
      <trkpt lat="20.23585333" lon="-98.74256333">
        <ele>1982.0</ele>
        <time>2019-10-12T16:37:10.900Z</time>
      </trkpt>
      <trkpt lat="20.23585833" lon="-98.74257">
        <ele>1983.0</ele>
        <time>2019-10-12T16:37:11.907Z</time>
      </trkpt>
      <trkpt lat="20.23586667" lon="-98.742575">
        <ele>1983.0</ele>
        <time>2019-10-12T16:37:12.913Z</time>
      </trkpt>
      <trkpt lat="20.235875" lon="-98.74257667">
        <ele>1984.0</ele>
        <time>2019-10-12T16:37:13.913Z</time>
      </trkpt>
      <trkpt lat="20.235885" lon="-98.74257667">
        <ele>1984.0</ele>
        <time>2019-10-12T16:37:14.917Z</time>
      </trkpt>
      <trkpt lat="20.235895" lon="-98.74257667">
        <ele>1984.0</ele>
        <time>2019-10-12T16:37:15.922Z</time>
      </trkpt>
      <trkpt lat="20.235905" lon="-98.74257833">
        <ele>1984.0</ele>
        <time>2019-10-12T16:37:16.925Z</time>
      </trkpt>
      <trkpt lat="20.23591833" lon="-98.74258333">
        <ele>1984.0</ele>
        <time>2019-10-12T16:37:17.928Z</time>
      </trkpt>
      <trkpt lat="20.23593" lon="-98.74258333">
        <ele>1983.0</ele>
        <time>2019-10-12T16:37:18.932Z</time>
      </trkpt>
      <trkpt lat="20.23594333" lon="-98.74258167">
        <ele>1982.0</ele>
        <time>2019-10-12T16:37:19.933Z</time>
      </trkpt>
      <trkpt lat="20.23595833" lon="-98.74258">
        <ele>1981.0</ele>
        <time>2019-10-12T16:37:20.939Z</time>
      </trkpt>
      <trkpt lat="20.23597333" lon="-98.74257667">
        <ele>1981.0</ele>
        <time>2019-10-12T16:37:21.942Z</time>
      </trkpt>
      <trkpt lat="20.23599" lon="-98.742575">
        <ele>1981.0</ele>
        <time>2019-10-12T16:37:22.949Z</time>
      </trkpt>
      <trkpt lat="20.23600333" lon="-98.74257667">
        <ele>1981.0</ele>
        <time>2019-10-12T16:37:23.955Z</time>
      </trkpt>
      <trkpt lat="20.23601" lon="-98.74257667">
        <ele>1981.0</ele>
        <time>2019-10-12T16:37:24.832Z</time>
      </trkpt>
      <trkpt lat="20.23601833" lon="-98.74257333">
        <ele>1980.0</ele>
        <time>2019-10-12T16:37:25.834Z</time>
      </trkpt>
      <trkpt lat="20.23602833" lon="-98.74257333">
        <ele>1980.0</ele>
        <time>2019-10-12T16:37:26.835Z</time>
      </trkpt>
      <trkpt lat="20.23604" lon="-98.74257333">
        <ele>1979.0</ele>
        <time>2019-10-12T16:37:27.835Z</time>
      </trkpt>
      <trkpt lat="20.236055" lon="-98.74257167">
        <ele>1979.0</ele>
        <time>2019-10-12T16:37:28.839Z</time>
      </trkpt>
      <trkpt lat="20.23607" lon="-98.74256667">
        <ele>1978.0</ele>
        <time>2019-10-12T16:37:29.846Z</time>
      </trkpt>
      <trkpt lat="20.23608167" lon="-98.74256167">
        <ele>1977.0</ele>
        <time>2019-10-12T16:37:30.852Z</time>
      </trkpt>
      <trkpt lat="20.236095" lon="-98.74255833">
        <ele>1977.0</ele>
        <time>2019-10-12T16:37:31.857Z</time>
      </trkpt>
      <trkpt lat="20.23610833" lon="-98.74255833">
        <ele>1977.0</ele>
        <time>2019-10-12T16:37:32.861Z</time>
      </trkpt>
      <trkpt lat="20.23612333" lon="-98.74256">
        <ele>1977.0</ele>
        <time>2019-10-12T16:37:33.866Z</time>
      </trkpt>
      <trkpt lat="20.23614167" lon="-98.74256167">
        <ele>1978.0</ele>
        <time>2019-10-12T16:37:34.870Z</time>
      </trkpt>
      <trkpt lat="20.236155" lon="-98.74257">
        <ele>1978.0</ele>
        <time>2019-10-12T16:37:35.876Z</time>
      </trkpt>
      <trkpt lat="20.23617" lon="-98.742575">
        <ele>1979.0</ele>
        <time>2019-10-12T16:37:36.882Z</time>
      </trkpt>
      <trkpt lat="20.23618167" lon="-98.74257667">
        <ele>1979.0</ele>
        <time>2019-10-12T16:37:37.885Z</time>
      </trkpt>
      <trkpt lat="20.23619667" lon="-98.74258167">
        <ele>1979.0</ele>
        <time>2019-10-12T16:37:38.892Z</time>
      </trkpt>
      <trkpt lat="20.23620667" lon="-98.74258667">
        <ele>1980.0</ele>
        <time>2019-10-12T16:37:39.900Z</time>
      </trkpt>
      <trkpt lat="20.23622667" lon="-98.742585">
        <ele>1980.0</ele>
        <time>2019-10-12T16:37:40.901Z</time>
      </trkpt>
      <trkpt lat="20.23624833" lon="-98.742585">
        <ele>1981.0</ele>
        <time>2019-10-12T16:37:41.902Z</time>
      </trkpt>
      <trkpt lat="20.23626833" lon="-98.742585">
        <ele>1981.0</ele>
        <time>2019-10-12T16:37:42.906Z</time>
      </trkpt>
      <trkpt lat="20.23628667" lon="-98.74258833">
        <ele>1982.0</ele>
        <time>2019-10-12T16:37:43.909Z</time>
      </trkpt>
      <trkpt lat="20.23630333" lon="-98.74259333">
        <ele>1983.0</ele>
        <time>2019-10-12T16:37:44.914Z</time>
      </trkpt>
      <trkpt lat="20.23632167" lon="-98.74259833">
        <ele>1984.0</ele>
        <time>2019-10-12T16:37:45.921Z</time>
      </trkpt>
      <trkpt lat="20.23634167" lon="-98.7426">
        <ele>1985.0</ele>
        <time>2019-10-12T16:37:46.922Z</time>
      </trkpt>
      <trkpt lat="20.23636167" lon="-98.7426">
        <ele>1985.0</ele>
        <time>2019-10-12T16:37:47.923Z</time>
      </trkpt>
      <trkpt lat="20.23638" lon="-98.74260167">
        <ele>1986.0</ele>
        <time>2019-10-12T16:37:48.926Z</time>
      </trkpt>
      <trkpt lat="20.236395" lon="-98.74260333">
        <ele>1987.0</ele>
        <time>2019-10-12T16:37:49.934Z</time>
      </trkpt>
      <trkpt lat="20.23640833" lon="-98.74260833">
        <ele>1988.0</ele>
        <time>2019-10-12T16:37:50.940Z</time>
      </trkpt>
      <trkpt lat="20.23642167" lon="-98.74261333">
        <ele>1988.0</ele>
        <time>2019-10-12T16:37:51.948Z</time>
      </trkpt>
      <trkpt lat="20.23643667" lon="-98.742615">
        <ele>1988.0</ele>
        <time>2019-10-12T16:37:52.953Z</time>
      </trkpt>
      <trkpt lat="20.23645333" lon="-98.74261833">
        <ele>1988.0</ele>
        <time>2019-10-12T16:37:53.833Z</time>
      </trkpt>
      <trkpt lat="20.23647" lon="-98.74262">
        <ele>1987.0</ele>
        <time>2019-10-12T16:37:54.835Z</time>
      </trkpt>
      <trkpt lat="20.23648667" lon="-98.74262">
        <ele>1986.0</ele>
        <time>2019-10-12T16:37:55.835Z</time>
      </trkpt>
      <trkpt lat="20.23650667" lon="-98.74261833">
        <ele>1986.0</ele>
        <time>2019-10-12T16:37:56.836Z</time>
      </trkpt>
      <trkpt lat="20.236525" lon="-98.74260667">
        <ele>1986.0</ele>
        <time>2019-10-12T16:37:57.837Z</time>
      </trkpt>
      <trkpt lat="20.23654333" lon="-98.74259">
        <ele>1985.0</ele>
        <time>2019-10-12T16:37:58.838Z</time>
      </trkpt>
      <trkpt lat="20.23656" lon="-98.74257667">
        <ele>1985.0</ele>
        <time>2019-10-12T16:37:59.838Z</time>
      </trkpt>
      <trkpt lat="20.23657333" lon="-98.74256833">
        <ele>1984.0</ele>
        <time>2019-10-12T16:38:00.838Z</time>
      </trkpt>
      <trkpt lat="20.23659" lon="-98.74256167">
        <ele>1983.0</ele>
        <time>2019-10-12T16:38:01.839Z</time>
      </trkpt>
      <trkpt lat="20.236605" lon="-98.742555">
        <ele>1984.0</ele>
        <time>2019-10-12T16:38:02.840Z</time>
      </trkpt>
      <trkpt lat="20.23662" lon="-98.74255">
        <ele>1984.0</ele>
        <time>2019-10-12T16:38:03.841Z</time>
      </trkpt>
      <trkpt lat="20.23664" lon="-98.74254167">
        <ele>1983.0</ele>
        <time>2019-10-12T16:38:04.842Z</time>
      </trkpt>
      <trkpt lat="20.23665167" lon="-98.74253167">
        <ele>1982.0</ele>
        <time>2019-10-12T16:38:05.843Z</time>
      </trkpt>
      <trkpt lat="20.23666333" lon="-98.74252333">
        <ele>1983.0</ele>
        <time>2019-10-12T16:38:06.847Z</time>
      </trkpt>
      <trkpt lat="20.23667667" lon="-98.74251667">
        <ele>1982.0</ele>
        <time>2019-10-12T16:38:07.854Z</time>
      </trkpt>
      <trkpt lat="20.23669" lon="-98.74250833">
        <ele>1982.0</ele>
        <time>2019-10-12T16:38:08.860Z</time>
      </trkpt>
      <trkpt lat="20.23671" lon="-98.7425">
        <ele>1980.0</ele>
        <time>2019-10-12T16:38:09.867Z</time>
      </trkpt>
      <trkpt lat="20.23672" lon="-98.74248333">
        <ele>1979.0</ele>
        <time>2019-10-12T16:38:10.871Z</time>
      </trkpt>
      <trkpt lat="20.23673" lon="-98.742465">
        <ele>1978.0</ele>
        <time>2019-10-12T16:38:11.878Z</time>
      </trkpt>
      <trkpt lat="20.236745" lon="-98.74244833">
        <ele>1978.0</ele>
        <time>2019-10-12T16:38:12.883Z</time>
      </trkpt>
      <trkpt lat="20.23675833" lon="-98.74243167">
        <ele>1977.0</ele>
        <time>2019-10-12T16:38:13.889Z</time>
      </trkpt>
      <trkpt lat="20.23677333" lon="-98.742415">
        <ele>1977.0</ele>
        <time>2019-10-12T16:38:14.892Z</time>
      </trkpt>
      <trkpt lat="20.23678" lon="-98.742395">
        <ele>1977.0</ele>
        <time>2019-10-12T16:38:15.900Z</time>
      </trkpt>
      <trkpt lat="20.236785" lon="-98.74237667">
        <ele>1976.0</ele>
        <time>2019-10-12T16:38:16.908Z</time>
      </trkpt>
      <trkpt lat="20.236795" lon="-98.74235667">
        <ele>1976.0</ele>
        <time>2019-10-12T16:38:17.915Z</time>
      </trkpt>
      <trkpt lat="20.23680833" lon="-98.74234167">
        <ele>1975.0</ele>
        <time>2019-10-12T16:38:18.916Z</time>
      </trkpt>
      <trkpt lat="20.23682" lon="-98.74233">
        <ele>1975.0</ele>
        <time>2019-10-12T16:38:19.916Z</time>
      </trkpt>
      <trkpt lat="20.236825" lon="-98.74231">
        <ele>1975.0</ele>
        <time>2019-10-12T16:38:20.917Z</time>
      </trkpt>
      <trkpt lat="20.23682667" lon="-98.742285">
        <ele>1974.0</ele>
        <time>2019-10-12T16:38:21.918Z</time>
      </trkpt>
      <trkpt lat="20.23683333" lon="-98.74226333">
        <ele>1974.0</ele>
        <time>2019-10-12T16:38:22.918Z</time>
      </trkpt>
      <trkpt lat="20.23684" lon="-98.74224167">
        <ele>1973.0</ele>
        <time>2019-10-12T16:38:23.918Z</time>
      </trkpt>
      <trkpt lat="20.23685333" lon="-98.74222833">
        <ele>1972.0</ele>
        <time>2019-10-12T16:38:24.919Z</time>
      </trkpt>
      <trkpt lat="20.23686833" lon="-98.74222">
        <ele>1972.0</ele>
        <time>2019-10-12T16:38:25.919Z</time>
      </trkpt>
      <trkpt lat="20.236885" lon="-98.74221">
        <ele>1972.0</ele>
        <time>2019-10-12T16:38:26.919Z</time>
      </trkpt>
      <trkpt lat="20.2369" lon="-98.74219833">
        <ele>1971.0</ele>
        <time>2019-10-12T16:38:27.919Z</time>
      </trkpt>
      <trkpt lat="20.23691667" lon="-98.74218833">
        <ele>1971.0</ele>
        <time>2019-10-12T16:38:28.922Z</time>
      </trkpt>
      <trkpt lat="20.23692833" lon="-98.742175">
        <ele>1971.0</ele>
        <time>2019-10-12T16:38:29.925Z</time>
      </trkpt>
      <trkpt lat="20.23693833" lon="-98.74216">
        <ele>1971.0</ele>
        <time>2019-10-12T16:38:30.929Z</time>
      </trkpt>
      <trkpt lat="20.23694667" lon="-98.74214333">
        <ele>1971.0</ele>
        <time>2019-10-12T16:38:31.934Z</time>
      </trkpt>
      <trkpt lat="20.236955" lon="-98.74212667">
        <ele>1971.0</ele>
        <time>2019-10-12T16:38:32.941Z</time>
      </trkpt>
      <trkpt lat="20.23696333" lon="-98.74211333">
        <ele>1970.0</ele>
        <time>2019-10-12T16:38:33.945Z</time>
      </trkpt>
      <trkpt lat="20.236975" lon="-98.742095">
        <ele>1970.0</ele>
        <time>2019-10-12T16:38:34.953Z</time>
      </trkpt>
      <trkpt lat="20.23697833" lon="-98.742075">
        <ele>1969.0</ele>
        <time>2019-10-12T16:38:35.835Z</time>
      </trkpt>
      <trkpt lat="20.23698333" lon="-98.74206167">
        <ele>1969.0</ele>
        <time>2019-10-12T16:38:36.840Z</time>
      </trkpt>
      <trkpt lat="20.23698333" lon="-98.74204333">
        <ele>1968.0</ele>
        <time>2019-10-12T16:38:37.841Z</time>
      </trkpt>
      <trkpt lat="20.23698833" lon="-98.742025">
        <ele>1968.0</ele>
        <time>2019-10-12T16:38:38.846Z</time>
      </trkpt>
      <trkpt lat="20.23699667" lon="-98.74200167">
        <ele>1969.0</ele>
        <time>2019-10-12T16:38:39.853Z</time>
      </trkpt>
      <trkpt lat="20.23700833" lon="-98.74198167">
        <ele>1969.0</ele>
        <time>2019-10-12T16:38:40.854Z</time>
      </trkpt>
      <trkpt lat="20.23701833" lon="-98.74195833">
        <ele>1969.0</ele>
        <time>2019-10-12T16:38:41.859Z</time>
      </trkpt>
      <trkpt lat="20.237025" lon="-98.74194667">
        <ele>1971.0</ele>
        <time>2019-10-12T16:38:42.862Z</time>
      </trkpt>
      <trkpt lat="20.237035" lon="-98.74193833">
        <ele>1970.0</ele>
        <time>2019-10-12T16:38:43.862Z</time>
      </trkpt>
      <trkpt lat="20.23704" lon="-98.74193">
        <ele>1970.0</ele>
        <time>2019-10-12T16:38:44.863Z</time>
      </trkpt>
      <trkpt lat="20.237045" lon="-98.74191333">
        <ele>1969.0</ele>
        <time>2019-10-12T16:38:45.863Z</time>
      </trkpt>
      <trkpt lat="20.23704667" lon="-98.74189333">
        <ele>1969.0</ele>
        <time>2019-10-12T16:38:46.863Z</time>
      </trkpt>
      <trkpt lat="20.23705667" lon="-98.741875">
        <ele>1969.0</ele>
        <time>2019-10-12T16:38:47.864Z</time>
      </trkpt>
      <trkpt lat="20.23706833" lon="-98.74186">
        <ele>1970.0</ele>
        <time>2019-10-12T16:38:48.864Z</time>
      </trkpt>
      <trkpt lat="20.23708" lon="-98.74184667">
        <ele>1970.0</ele>
        <time>2019-10-12T16:38:49.864Z</time>
      </trkpt>
      <trkpt lat="20.23709667" lon="-98.74183167">
        <ele>1970.0</ele>
        <time>2019-10-12T16:38:50.865Z</time>
      </trkpt>
      <trkpt lat="20.23710667" lon="-98.74181833">
        <ele>1970.0</ele>
        <time>2019-10-12T16:38:51.865Z</time>
      </trkpt>
      <trkpt lat="20.237115" lon="-98.74179833">
        <ele>1970.0</ele>
        <time>2019-10-12T16:38:52.865Z</time>
      </trkpt>
      <trkpt lat="20.23712333" lon="-98.74177667">
        <ele>1971.0</ele>
        <time>2019-10-12T16:38:53.865Z</time>
      </trkpt>
      <trkpt lat="20.23713" lon="-98.74175833">
        <ele>1970.0</ele>
        <time>2019-10-12T16:38:54.867Z</time>
      </trkpt>
      <trkpt lat="20.237145" lon="-98.74174167">
        <ele>1971.0</ele>
        <time>2019-10-12T16:38:55.873Z</time>
      </trkpt>
      <trkpt lat="20.237155" lon="-98.74172167">
        <ele>1971.0</ele>
        <time>2019-10-12T16:38:56.876Z</time>
      </trkpt>
      <trkpt lat="20.23716167" lon="-98.74169833">
        <ele>1972.0</ele>
        <time>2019-10-12T16:38:57.882Z</time>
      </trkpt>
      <trkpt lat="20.23717" lon="-98.741675">
        <ele>1973.0</ele>
        <time>2019-10-12T16:38:58.887Z</time>
      </trkpt>
      <trkpt lat="20.23717167" lon="-98.74165667">
        <ele>1972.0</ele>
        <time>2019-10-12T16:38:59.891Z</time>
      </trkpt>
      <trkpt lat="20.23717833" lon="-98.74163833">
        <ele>1971.0</ele>
        <time>2019-10-12T16:39:00.896Z</time>
      </trkpt>
      <trkpt lat="20.23718667" lon="-98.741625">
        <ele>1970.0</ele>
        <time>2019-10-12T16:39:01.899Z</time>
      </trkpt>
      <trkpt lat="20.23719333" lon="-98.74160833">
        <ele>1969.0</ele>
        <time>2019-10-12T16:39:02.902Z</time>
      </trkpt>
      <trkpt lat="20.23720667" lon="-98.74159833">
        <ele>1968.0</ele>
        <time>2019-10-12T16:39:03.907Z</time>
      </trkpt>
      <trkpt lat="20.23722" lon="-98.74158">
        <ele>1968.0</ele>
        <time>2019-10-12T16:39:04.910Z</time>
      </trkpt>
      <trkpt lat="20.23723" lon="-98.74156333">
        <ele>1968.0</ele>
        <time>2019-10-12T16:39:05.916Z</time>
      </trkpt>
      <trkpt lat="20.237235" lon="-98.74154667">
        <ele>1968.0</ele>
        <time>2019-10-12T16:39:06.917Z</time>
      </trkpt>
      <trkpt lat="20.23724167" lon="-98.74153167">
        <ele>1968.0</ele>
        <time>2019-10-12T16:39:07.923Z</time>
      </trkpt>
      <trkpt lat="20.23724667" lon="-98.74151667">
        <ele>1968.0</ele>
        <time>2019-10-12T16:39:08.929Z</time>
      </trkpt>
      <trkpt lat="20.23725667" lon="-98.7415">
        <ele>1968.0</ele>
        <time>2019-10-12T16:39:09.933Z</time>
      </trkpt>
      <trkpt lat="20.237265" lon="-98.74148333">
        <ele>1968.0</ele>
        <time>2019-10-12T16:39:10.934Z</time>
      </trkpt>
      <trkpt lat="20.23727167" lon="-98.74146667">
        <ele>1969.0</ele>
        <time>2019-10-12T16:39:11.934Z</time>
      </trkpt>
      <trkpt lat="20.237275" lon="-98.74144667">
        <ele>1968.0</ele>
        <time>2019-10-12T16:39:12.934Z</time>
      </trkpt>
      <trkpt lat="20.23727667" lon="-98.74142833">
        <ele>1969.0</ele>
        <time>2019-10-12T16:39:13.935Z</time>
      </trkpt>
      <trkpt lat="20.23727833" lon="-98.74141">
        <ele>1969.0</ele>
        <time>2019-10-12T16:39:14.935Z</time>
      </trkpt>
      <trkpt lat="20.23727833" lon="-98.74139">
        <ele>1969.0</ele>
        <time>2019-10-12T16:39:15.935Z</time>
      </trkpt>
      <trkpt lat="20.23727667" lon="-98.74137333">
        <ele>1969.0</ele>
        <time>2019-10-12T16:39:16.936Z</time>
      </trkpt>
      <trkpt lat="20.237275" lon="-98.74135833">
        <ele>1969.0</ele>
        <time>2019-10-12T16:39:17.936Z</time>
      </trkpt>
      <trkpt lat="20.23728167" lon="-98.74134333">
        <ele>1970.0</ele>
        <time>2019-10-12T16:39:18.936Z</time>
      </trkpt>
      <trkpt lat="20.23728833" lon="-98.74132667">
        <ele>1970.0</ele>
        <time>2019-10-12T16:39:19.943Z</time>
      </trkpt>
      <trkpt lat="20.23729333" lon="-98.74131333">
        <ele>1970.0</ele>
        <time>2019-10-12T16:39:20.951Z</time>
      </trkpt>
      <trkpt lat="20.23730333" lon="-98.7413">
        <ele>1970.0</ele>
        <time>2019-10-12T16:39:21.833Z</time>
      </trkpt>
      <trkpt lat="20.237315" lon="-98.741285">
        <ele>1970.0</ele>
        <time>2019-10-12T16:39:22.839Z</time>
      </trkpt>
      <trkpt lat="20.23732833" lon="-98.74127167">
        <ele>1970.0</ele>
        <time>2019-10-12T16:39:23.845Z</time>
      </trkpt>
      <trkpt lat="20.23733667" lon="-98.74125833">
        <ele>1970.0</ele>
        <time>2019-10-12T16:39:24.852Z</time>
      </trkpt>
      <trkpt lat="20.237345" lon="-98.74124667">
        <ele>1971.0</ele>
        <time>2019-10-12T16:39:25.858Z</time>
      </trkpt>
      <trkpt lat="20.23735667" lon="-98.741235">
        <ele>1971.0</ele>
        <time>2019-10-12T16:39:26.865Z</time>
      </trkpt>
      <trkpt lat="20.23737" lon="-98.74122167">
        <ele>1971.0</ele>
        <time>2019-10-12T16:39:27.870Z</time>
      </trkpt>
      <trkpt lat="20.23737833" lon="-98.74120833">
        <ele>1972.0</ele>
        <time>2019-10-12T16:39:28.877Z</time>
      </trkpt>
      <trkpt lat="20.23738833" lon="-98.741195">
        <ele>1972.0</ele>
        <time>2019-10-12T16:39:29.878Z</time>
      </trkpt>
      <trkpt lat="20.23739833" lon="-98.74118167">
        <ele>1972.0</ele>
        <time>2019-10-12T16:39:30.878Z</time>
      </trkpt>
      <trkpt lat="20.23740667" lon="-98.74117">
        <ele>1972.0</ele>
        <time>2019-10-12T16:39:31.878Z</time>
      </trkpt>
      <trkpt lat="20.237415" lon="-98.74116333">
        <ele>1972.0</ele>
        <time>2019-10-12T16:39:32.879Z</time>
      </trkpt>
      <trkpt lat="20.23742667" lon="-98.74115833">
        <ele>1973.0</ele>
        <time>2019-10-12T16:39:33.879Z</time>
      </trkpt>
      <trkpt lat="20.23743667" lon="-98.74115167">
        <ele>1973.0</ele>
        <time>2019-10-12T16:39:34.880Z</time>
      </trkpt>
      <trkpt lat="20.237445" lon="-98.74114667">
        <ele>1973.0</ele>
        <time>2019-10-12T16:39:35.882Z</time>
      </trkpt>
      <trkpt lat="20.237455" lon="-98.74114167">
        <ele>1972.0</ele>
        <time>2019-10-12T16:39:36.887Z</time>
      </trkpt>
      <trkpt lat="20.23746833" lon="-98.74114167">
        <ele>1972.0</ele>
        <time>2019-10-12T16:39:37.889Z</time>
      </trkpt>
      <trkpt lat="20.23748333" lon="-98.74114667">
        <ele>1972.0</ele>
        <time>2019-10-12T16:39:38.896Z</time>
      </trkpt>
      <trkpt lat="20.23749" lon="-98.74115167">
        <ele>1971.0</ele>
        <time>2019-10-12T16:39:39.902Z</time>
      </trkpt>
      <trkpt lat="20.23749333" lon="-98.74115333">
        <ele>1972.0</ele>
        <time>2019-10-12T16:39:40.902Z</time>
      </trkpt>
      <trkpt lat="20.237495" lon="-98.741155">
        <ele>1973.0</ele>
        <time>2019-10-12T16:39:41.909Z</time>
      </trkpt>
      <trkpt lat="20.23749333" lon="-98.74115667">
        <ele>1974.0</ele>
        <time>2019-10-12T16:39:42.913Z</time>
      </trkpt>
      <trkpt lat="20.23749167" lon="-98.74116">
        <ele>1976.0</ele>
        <time>2019-10-12T16:39:43.916Z</time>
      </trkpt>
      <trkpt lat="20.23749167" lon="-98.74116333">
        <ele>1977.0</ele>
        <time>2019-10-12T16:39:44.923Z</time>
      </trkpt>
      <trkpt lat="20.237495" lon="-98.741165">
        <ele>1978.0</ele>
        <time>2019-10-12T16:39:45.929Z</time>
      </trkpt>
      <trkpt lat="20.237495" lon="-98.74116333">
        <ele>1977.0</ele>
        <time>2019-10-12T16:39:46.932Z</time>
      </trkpt>
      <trkpt lat="20.23749667" lon="-98.74116167">
        <ele>1977.0</ele>
        <time>2019-10-12T16:39:47.939Z</time>
      </trkpt>
      <trkpt lat="20.23749667" lon="-98.74116333">
        <ele>1977.0</ele>
        <time>2019-10-12T16:39:48.946Z</time>
      </trkpt>
      <trkpt lat="20.237495" lon="-98.741165">
        <ele>1977.0</ele>
        <time>2019-10-12T16:39:49.946Z</time>
      </trkpt>
      <trkpt lat="20.23749167" lon="-98.741165">
        <ele>1978.0</ele>
        <time>2019-10-12T16:39:50.947Z</time>
      </trkpt>
      <trkpt lat="20.23748667" lon="-98.741165">
        <ele>1979.0</ele>
        <time>2019-10-12T16:39:51.947Z</time>
      </trkpt>
      <trkpt lat="20.23748667" lon="-98.741165">
        <ele>1979.0</ele>
        <time>2019-10-12T16:39:52.947Z</time>
      </trkpt>
      <trkpt lat="20.23748667" lon="-98.741165">
        <ele>1979.0</ele>
        <time>2019-10-12T16:39:53.948Z</time>
      </trkpt>
      <trkpt lat="20.23748667" lon="-98.741165">
        <ele>1979.0</ele>
        <time>2019-10-12T16:39:54.948Z</time>
      </trkpt>
      <trkpt lat="20.23748667" lon="-98.741165">
        <ele>1979.0</ele>
        <time>2019-10-12T16:39:55.948Z</time>
      </trkpt>
      <trkpt lat="20.23749" lon="-98.74116667">
        <ele>1979.0</ele>
        <time>2019-10-12T16:39:56.949Z</time>
      </trkpt>
      <trkpt lat="20.23751" lon="-98.74116667">
        <ele>1978.0</ele>
        <time>2019-10-12T16:39:57.949Z</time>
      </trkpt>
      <trkpt lat="20.23753" lon="-98.74116833">
        <ele>1978.0</ele>
        <time>2019-10-12T16:39:58.949Z</time>
      </trkpt>
      <trkpt lat="20.237555" lon="-98.74116167">
        <ele>1978.0</ele>
        <time>2019-10-12T16:39:59.950Z</time>
      </trkpt>
      <trkpt lat="20.237575" lon="-98.74116167">
        <ele>1978.0</ele>
        <time>2019-10-12T16:40:00.950Z</time>
      </trkpt>
      <trkpt lat="20.23760167" lon="-98.74115833">
        <ele>1978.0</ele>
        <time>2019-10-12T16:40:01.950Z</time>
      </trkpt>
      <trkpt lat="20.23762667" lon="-98.741155">
        <ele>1978.0</ele>
        <time>2019-10-12T16:40:02.951Z</time>
      </trkpt>
      <trkpt lat="20.237655" lon="-98.74115333">
        <ele>1979.0</ele>
        <time>2019-10-12T16:40:03.951Z</time>
      </trkpt>
      <trkpt lat="20.237685" lon="-98.74115">
        <ele>1980.0</ele>
        <time>2019-10-12T16:40:04.951Z</time>
      </trkpt>
      <trkpt lat="20.23770667" lon="-98.74114667">
        <ele>1981.0</ele>
        <time>2019-10-12T16:40:05.952Z</time>
      </trkpt>
      <trkpt lat="20.23773" lon="-98.74114">
        <ele>1981.0</ele>
        <time>2019-10-12T16:40:06.952Z</time>
      </trkpt>
      <trkpt lat="20.237745" lon="-98.74113667">
        <ele>1982.0</ele>
        <time>2019-10-12T16:40:07.952Z</time>
      </trkpt>
      <trkpt lat="20.23776167" lon="-98.741135">
        <ele>1983.0</ele>
        <time>2019-10-12T16:40:08.953Z</time>
      </trkpt>
      <trkpt lat="20.23778" lon="-98.74113333">
        <ele>1983.0</ele>
        <time>2019-10-12T16:40:09.953Z</time>
      </trkpt>
      <trkpt lat="20.23780167" lon="-98.74112833">
        <ele>1984.0</ele>
        <time>2019-10-12T16:40:10.953Z</time>
      </trkpt>
      <trkpt lat="20.23782333" lon="-98.74112167">
        <ele>1984.0</ele>
        <time>2019-10-12T16:40:11.954Z</time>
      </trkpt>
      <trkpt lat="20.237845" lon="-98.74111667">
        <ele>1985.0</ele>
        <time>2019-10-12T16:40:12.954Z</time>
      </trkpt>
      <trkpt lat="20.23786667" lon="-98.74111167">
        <ele>1986.0</ele>
        <time>2019-10-12T16:40:13.830Z</time>
      </trkpt>
      <trkpt lat="20.237885" lon="-98.74110333">
        <ele>1987.0</ele>
        <time>2019-10-12T16:40:14.830Z</time>
      </trkpt>
      <trkpt lat="20.23790833" lon="-98.7411">
        <ele>1987.0</ele>
        <time>2019-10-12T16:40:15.830Z</time>
      </trkpt>
      <trkpt lat="20.23793" lon="-98.74109333">
        <ele>1988.0</ele>
        <time>2019-10-12T16:40:16.831Z</time>
      </trkpt>
      <trkpt lat="20.23794833" lon="-98.74108667">
        <ele>1989.0</ele>
        <time>2019-10-12T16:40:17.831Z</time>
      </trkpt>
      <trkpt lat="20.23796333" lon="-98.74107833">
        <ele>1988.0</ele>
        <time>2019-10-12T16:40:18.831Z</time>
      </trkpt>
      <trkpt lat="20.23798333" lon="-98.74107667">
        <ele>1988.0</ele>
        <time>2019-10-12T16:40:19.832Z</time>
      </trkpt>
      <trkpt lat="20.23800333" lon="-98.74107167">
        <ele>1986.0</ele>
        <time>2019-10-12T16:40:20.832Z</time>
      </trkpt>
      <trkpt lat="20.23802667" lon="-98.74107333">
        <ele>1986.0</ele>
        <time>2019-10-12T16:40:21.832Z</time>
      </trkpt>
      <trkpt lat="20.23805167" lon="-98.74107833">
        <ele>1986.0</ele>
        <time>2019-10-12T16:40:22.832Z</time>
      </trkpt>
      <trkpt lat="20.23807833" lon="-98.74109167">
        <ele>1988.0</ele>
        <time>2019-10-12T16:40:23.833Z</time>
      </trkpt>
      <trkpt lat="20.238105" lon="-98.7411">
        <ele>1989.0</ele>
        <time>2019-10-12T16:40:24.833Z</time>
      </trkpt>
      <trkpt lat="20.23812667" lon="-98.741105">
        <ele>1990.0</ele>
        <time>2019-10-12T16:40:25.834Z</time>
      </trkpt>
      <trkpt lat="20.23814667" lon="-98.74111">
        <ele>1990.0</ele>
        <time>2019-10-12T16:40:26.837Z</time>
      </trkpt>
      <trkpt lat="20.238165" lon="-98.74111">
        <ele>1990.0</ele>
        <time>2019-10-12T16:40:27.844Z</time>
      </trkpt>
      <trkpt lat="20.23818333" lon="-98.74111">
        <ele>1990.0</ele>
        <time>2019-10-12T16:40:28.847Z</time>
      </trkpt>
      <trkpt lat="20.238205" lon="-98.74110833">
        <ele>1989.0</ele>
        <time>2019-10-12T16:40:29.853Z</time>
      </trkpt>
      <trkpt lat="20.23822333" lon="-98.74111">
        <ele>1988.0</ele>
        <time>2019-10-12T16:40:30.856Z</time>
      </trkpt>
      <trkpt lat="20.238245" lon="-98.74111">
        <ele>1988.0</ele>
        <time>2019-10-12T16:40:31.857Z</time>
      </trkpt>
      <trkpt lat="20.23826333" lon="-98.74111">
        <ele>1987.0</ele>
        <time>2019-10-12T16:40:32.864Z</time>
      </trkpt>
      <trkpt lat="20.23828333" lon="-98.74111333">
        <ele>1987.0</ele>
        <time>2019-10-12T16:40:33.867Z</time>
      </trkpt>
      <trkpt lat="20.23830333" lon="-98.741115">
        <ele>1987.0</ele>
        <time>2019-10-12T16:40:34.868Z</time>
      </trkpt>
      <trkpt lat="20.238325" lon="-98.74112">
        <ele>1987.0</ele>
        <time>2019-10-12T16:40:35.874Z</time>
      </trkpt>
      <trkpt lat="20.23834833" lon="-98.741125">
        <ele>1988.0</ele>
        <time>2019-10-12T16:40:36.875Z</time>
      </trkpt>
      <trkpt lat="20.23837" lon="-98.74113">
        <ele>1988.0</ele>
        <time>2019-10-12T16:40:37.880Z</time>
      </trkpt>
      <trkpt lat="20.23839" lon="-98.74113167">
        <ele>1988.0</ele>
        <time>2019-10-12T16:40:38.886Z</time>
      </trkpt>
      <trkpt lat="20.23841" lon="-98.74113333">
        <ele>1988.0</ele>
        <time>2019-10-12T16:40:39.889Z</time>
      </trkpt>
      <trkpt lat="20.23843" lon="-98.74113167">
        <ele>1988.0</ele>
        <time>2019-10-12T16:40:40.896Z</time>
      </trkpt>
      <trkpt lat="20.23845" lon="-98.74113167">
        <ele>1988.0</ele>
        <time>2019-10-12T16:40:41.901Z</time>
      </trkpt>
      <trkpt lat="20.23847" lon="-98.741125">
        <ele>1987.0</ele>
        <time>2019-10-12T16:40:42.901Z</time>
      </trkpt>
      <trkpt lat="20.23849" lon="-98.741115">
        <ele>1986.0</ele>
        <time>2019-10-12T16:40:43.902Z</time>
      </trkpt>
      <trkpt lat="20.23851167" lon="-98.741105">
        <ele>1985.0</ele>
        <time>2019-10-12T16:40:44.902Z</time>
      </trkpt>
      <trkpt lat="20.23852833" lon="-98.741095">
        <ele>1985.0</ele>
        <time>2019-10-12T16:40:45.902Z</time>
      </trkpt>
      <trkpt lat="20.238545" lon="-98.74108167">
        <ele>1984.0</ele>
        <time>2019-10-12T16:40:46.903Z</time>
      </trkpt>
      <trkpt lat="20.23856" lon="-98.741065">
        <ele>1983.0</ele>
        <time>2019-10-12T16:40:47.903Z</time>
      </trkpt>
      <trkpt lat="20.23857167" lon="-98.741045">
        <ele>1983.0</ele>
        <time>2019-10-12T16:40:48.903Z</time>
      </trkpt>
      <trkpt lat="20.23858333" lon="-98.741025">
        <ele>1982.0</ele>
        <time>2019-10-12T16:40:49.904Z</time>
      </trkpt>
      <trkpt lat="20.23859833" lon="-98.741005">
        <ele>1981.0</ele>
        <time>2019-10-12T16:40:50.904Z</time>
      </trkpt>
      <trkpt lat="20.23861833" lon="-98.740985">
        <ele>1981.0</ele>
        <time>2019-10-12T16:40:51.904Z</time>
      </trkpt>
      <trkpt lat="20.23862833" lon="-98.74097">
        <ele>1980.0</ele>
        <time>2019-10-12T16:40:52.905Z</time>
      </trkpt>
      <trkpt lat="20.23864167" lon="-98.74095333">
        <ele>1979.0</ele>
        <time>2019-10-12T16:40:53.905Z</time>
      </trkpt>
      <trkpt lat="20.23865667" lon="-98.74094167">
        <ele>1979.0</ele>
        <time>2019-10-12T16:40:54.905Z</time>
      </trkpt>
      <trkpt lat="20.23867" lon="-98.74092833">
        <ele>1978.0</ele>
        <time>2019-10-12T16:40:55.906Z</time>
      </trkpt>
      <trkpt lat="20.23868333" lon="-98.740915">
        <ele>1979.0</ele>
        <time>2019-10-12T16:40:56.906Z</time>
      </trkpt>
      <trkpt lat="20.23869667" lon="-98.74090333">
        <ele>1979.0</ele>
        <time>2019-10-12T16:40:57.906Z</time>
      </trkpt>
      <trkpt lat="20.23871333" lon="-98.740895">
        <ele>1979.0</ele>
        <time>2019-10-12T16:40:58.906Z</time>
      </trkpt>
      <trkpt lat="20.23873" lon="-98.74089">
        <ele>1979.0</ele>
        <time>2019-10-12T16:40:59.907Z</time>
      </trkpt>
      <trkpt lat="20.23874833" lon="-98.74088167">
        <ele>1978.0</ele>
        <time>2019-10-12T16:41:00.907Z</time>
      </trkpt>
      <trkpt lat="20.23876833" lon="-98.74087667">
        <ele>1977.0</ele>
        <time>2019-10-12T16:41:01.907Z</time>
      </trkpt>
      <trkpt lat="20.23878833" lon="-98.74087833">
        <ele>1977.0</ele>
        <time>2019-10-12T16:41:02.907Z</time>
      </trkpt>
      <trkpt lat="20.23880833" lon="-98.74088">
        <ele>1976.0</ele>
        <time>2019-10-12T16:41:03.908Z</time>
      </trkpt>
      <trkpt lat="20.23883167" lon="-98.74088">
        <ele>1976.0</ele>
        <time>2019-10-12T16:41:04.908Z</time>
      </trkpt>
      <trkpt lat="20.23885167" lon="-98.74087667">
        <ele>1976.0</ele>
        <time>2019-10-12T16:41:05.908Z</time>
      </trkpt>
      <trkpt lat="20.23887333" lon="-98.74087333">
        <ele>1975.0</ele>
        <time>2019-10-12T16:41:06.912Z</time>
      </trkpt>
      <trkpt lat="20.238895" lon="-98.74086833">
        <ele>1975.0</ele>
        <time>2019-10-12T16:41:07.919Z</time>
      </trkpt>
      <trkpt lat="20.238915" lon="-98.74085833">
        <ele>1975.0</ele>
        <time>2019-10-12T16:41:08.926Z</time>
      </trkpt>
      <trkpt lat="20.23893167" lon="-98.74084667">
        <ele>1974.0</ele>
        <time>2019-10-12T16:41:09.930Z</time>
      </trkpt>
      <trkpt lat="20.238945" lon="-98.740835">
        <ele>1974.0</ele>
        <time>2019-10-12T16:41:10.930Z</time>
      </trkpt>
      <trkpt lat="20.23895833" lon="-98.74082167">
        <ele>1974.0</ele>
        <time>2019-10-12T16:41:11.936Z</time>
      </trkpt>
      <trkpt lat="20.23896167" lon="-98.74080833">
        <ele>1974.0</ele>
        <time>2019-10-12T16:41:12.942Z</time>
      </trkpt>
      <trkpt lat="20.23896167" lon="-98.74079333">
        <ele>1974.0</ele>
        <time>2019-10-12T16:41:13.945Z</time>
      </trkpt>
      <trkpt lat="20.23895833" lon="-98.74078">
        <ele>1973.0</ele>
        <time>2019-10-12T16:41:14.949Z</time>
      </trkpt>
      <trkpt lat="20.23895333" lon="-98.740765">
        <ele>1973.0</ele>
        <time>2019-10-12T16:41:15.830Z</time>
      </trkpt>
      <trkpt lat="20.238945" lon="-98.74074833">
        <ele>1972.0</ele>
        <time>2019-10-12T16:41:16.837Z</time>
      </trkpt>
      <trkpt lat="20.23893667" lon="-98.74073333">
        <ele>1972.0</ele>
        <time>2019-10-12T16:41:17.841Z</time>
      </trkpt>
      <trkpt lat="20.23893" lon="-98.74071833">
        <ele>1972.0</ele>
        <time>2019-10-12T16:41:18.845Z</time>
      </trkpt>
      <trkpt lat="20.23892667" lon="-98.74070333">
        <ele>1972.0</ele>
        <time>2019-10-12T16:41:19.848Z</time>
      </trkpt>
      <trkpt lat="20.23892333" lon="-98.74069333">
        <ele>1972.0</ele>
        <time>2019-10-12T16:41:20.849Z</time>
      </trkpt>
      <trkpt lat="20.23891667" lon="-98.74068167">
        <ele>1971.0</ele>
        <time>2019-10-12T16:41:21.849Z</time>
      </trkpt>
      <trkpt lat="20.23891167" lon="-98.74067">
        <ele>1972.0</ele>
        <time>2019-10-12T16:41:22.849Z</time>
      </trkpt>
      <trkpt lat="20.238905" lon="-98.74065833">
        <ele>1972.0</ele>
        <time>2019-10-12T16:41:23.849Z</time>
      </trkpt>
      <trkpt lat="20.238905" lon="-98.74065333">
        <ele>1973.0</ele>
        <time>2019-10-12T16:41:24.850Z</time>
      </trkpt>
      <trkpt lat="20.238905" lon="-98.74065">
        <ele>1973.0</ele>
        <time>2019-10-12T16:41:25.850Z</time>
      </trkpt>
      <trkpt lat="20.23890833" lon="-98.74064667">
        <ele>1973.0</ele>
        <time>2019-10-12T16:41:26.851Z</time>
      </trkpt>
      <trkpt lat="20.23890833" lon="-98.74064333">
        <ele>1973.0</ele>
        <time>2019-10-12T16:41:27.853Z</time>
      </trkpt>
      <trkpt lat="20.23891167" lon="-98.74063833">
        <ele>1973.0</ele>
        <time>2019-10-12T16:41:28.859Z</time>
      </trkpt>
      <trkpt lat="20.23891" lon="-98.74063667">
        <ele>1973.0</ele>
        <time>2019-10-12T16:41:29.862Z</time>
      </trkpt>
      <trkpt lat="20.23890833" lon="-98.740635">
        <ele>1973.0</ele>
        <time>2019-10-12T16:41:30.870Z</time>
      </trkpt>
      <trkpt lat="20.23890667" lon="-98.740635">
        <ele>1972.0</ele>
        <time>2019-10-12T16:41:31.876Z</time>
      </trkpt>
      <trkpt lat="20.238905" lon="-98.740635">
        <ele>1972.0</ele>
        <time>2019-10-12T16:41:32.881Z</time>
      </trkpt>
      <trkpt lat="20.23890667" lon="-98.740635">
        <ele>1972.0</ele>
        <time>2019-10-12T16:41:33.885Z</time>
      </trkpt>
      <trkpt lat="20.23890833" lon="-98.740635">
        <ele>1972.0</ele>
        <time>2019-10-12T16:41:34.890Z</time>
      </trkpt>
      <trkpt lat="20.23891" lon="-98.74063">
        <ele>1973.0</ele>
        <time>2019-10-12T16:41:35.897Z</time>
      </trkpt>
      <trkpt lat="20.23890833" lon="-98.74062167">
        <ele>1973.0</ele>
        <time>2019-10-12T16:41:36.902Z</time>
      </trkpt>
      <trkpt lat="20.23890667" lon="-98.74061333">
        <ele>1974.0</ele>
        <time>2019-10-12T16:41:37.908Z</time>
      </trkpt>
      <trkpt lat="20.23890667" lon="-98.74060167">
        <ele>1973.0</ele>
        <time>2019-10-12T16:41:38.910Z</time>
      </trkpt>
      <trkpt lat="20.23890333" lon="-98.74058833">
        <ele>1973.0</ele>
        <time>2019-10-12T16:41:39.917Z</time>
      </trkpt>
      <trkpt lat="20.2389" lon="-98.74057833">
        <ele>1973.0</ele>
        <time>2019-10-12T16:41:40.917Z</time>
      </trkpt>
      <trkpt lat="20.23889667" lon="-98.74056667">
        <ele>1974.0</ele>
        <time>2019-10-12T16:41:41.918Z</time>
      </trkpt>
      <trkpt lat="20.23889333" lon="-98.740555">
        <ele>1974.0</ele>
        <time>2019-10-12T16:41:42.918Z</time>
      </trkpt>
      <trkpt lat="20.23889333" lon="-98.74054333">
        <ele>1974.0</ele>
        <time>2019-10-12T16:41:43.918Z</time>
      </trkpt>
      <trkpt lat="20.23888667" lon="-98.74053167">
        <ele>1974.0</ele>
        <time>2019-10-12T16:41:44.918Z</time>
      </trkpt>
      <trkpt lat="20.23888167" lon="-98.74052167">
        <ele>1974.0</ele>
        <time>2019-10-12T16:41:45.919Z</time>
      </trkpt>
      <trkpt lat="20.23887667" lon="-98.740515">
        <ele>1974.0</ele>
        <time>2019-10-12T16:41:46.919Z</time>
      </trkpt>
      <trkpt lat="20.23887333" lon="-98.740505">
        <ele>1974.0</ele>
        <time>2019-10-12T16:41:47.919Z</time>
      </trkpt>
      <trkpt lat="20.23887167" lon="-98.740495">
        <ele>1974.0</ele>
        <time>2019-10-12T16:41:48.919Z</time>
      </trkpt>
      <trkpt lat="20.23887167" lon="-98.740485">
        <ele>1974.0</ele>
        <time>2019-10-12T16:41:49.919Z</time>
      </trkpt>
      <trkpt lat="20.23887167" lon="-98.74047833">
        <ele>1974.0</ele>
        <time>2019-10-12T16:41:50.920Z</time>
      </trkpt>
      <trkpt lat="20.23887" lon="-98.74047167">
        <ele>1974.0</ele>
        <time>2019-10-12T16:41:51.920Z</time>
      </trkpt>
      <trkpt lat="20.23886667" lon="-98.74046333">
        <ele>1974.0</ele>
        <time>2019-10-12T16:41:52.927Z</time>
      </trkpt>
      <trkpt lat="20.23886333" lon="-98.740455">
        <ele>1974.0</ele>
        <time>2019-10-12T16:41:53.932Z</time>
      </trkpt>
      <trkpt lat="20.23885667" lon="-98.74044667">
        <ele>1975.0</ele>
        <time>2019-10-12T16:41:54.935Z</time>
      </trkpt>
      <trkpt lat="20.23885" lon="-98.74043833">
        <ele>1975.0</ele>
        <time>2019-10-12T16:41:55.937Z</time>
      </trkpt>
      <trkpt lat="20.23884167" lon="-98.74042833">
        <ele>1975.0</ele>
        <time>2019-10-12T16:41:56.942Z</time>
      </trkpt>
      <trkpt lat="20.238835" lon="-98.74042167">
        <ele>1975.0</ele>
        <time>2019-10-12T16:41:57.942Z</time>
      </trkpt>
      <trkpt lat="20.23882833" lon="-98.74041667">
        <ele>1975.0</ele>
        <time>2019-10-12T16:41:58.942Z</time>
      </trkpt>
      <trkpt lat="20.23882" lon="-98.74040833">
        <ele>1975.0</ele>
        <time>2019-10-12T16:41:59.950Z</time>
      </trkpt>
      <trkpt lat="20.23881333" lon="-98.7404">
        <ele>1975.0</ele>
        <time>2019-10-12T16:42:00.832Z</time>
      </trkpt>
      <trkpt lat="20.23880833" lon="-98.74039167">
        <ele>1975.0</ele>
        <time>2019-10-12T16:42:01.838Z</time>
      </trkpt>
      <trkpt lat="20.23880667" lon="-98.740385">
        <ele>1976.0</ele>
        <time>2019-10-12T16:42:02.840Z</time>
      </trkpt>
      <trkpt lat="20.238805" lon="-98.74038167">
        <ele>1976.0</ele>
        <time>2019-10-12T16:42:03.843Z</time>
      </trkpt>
      <trkpt lat="20.2388" lon="-98.74037667">
        <ele>1976.0</ele>
        <time>2019-10-12T16:42:04.848Z</time>
      </trkpt>
      <trkpt lat="20.23879333" lon="-98.74037">
        <ele>1977.0</ele>
        <time>2019-10-12T16:42:05.855Z</time>
      </trkpt>
      <trkpt lat="20.23878833" lon="-98.74036667">
        <ele>1977.0</ele>
        <time>2019-10-12T16:42:06.858Z</time>
      </trkpt>
      <trkpt lat="20.238785" lon="-98.740365">
        <ele>1978.0</ele>
        <time>2019-10-12T16:42:07.860Z</time>
      </trkpt>
      <trkpt lat="20.23878167" lon="-98.74036333">
        <ele>1978.0</ele>
        <time>2019-10-12T16:42:08.860Z</time>
      </trkpt>
      <trkpt lat="20.23877833" lon="-98.74036333">
        <ele>1979.0</ele>
        <time>2019-10-12T16:42:09.860Z</time>
      </trkpt>
      <trkpt lat="20.23877667" lon="-98.74036">
        <ele>1979.0</ele>
        <time>2019-10-12T16:42:10.860Z</time>
      </trkpt>
      <trkpt lat="20.23877" lon="-98.740355">
        <ele>1980.0</ele>
        <time>2019-10-12T16:42:11.860Z</time>
      </trkpt>
      <trkpt lat="20.23876667" lon="-98.74035333">
        <ele>1981.0</ele>
        <time>2019-10-12T16:42:12.860Z</time>
      </trkpt>
      <trkpt lat="20.23876167" lon="-98.74035">
        <ele>1980.0</ele>
        <time>2019-10-12T16:42:13.860Z</time>
      </trkpt>
      <trkpt lat="20.238755" lon="-98.74035">
        <ele>1980.0</ele>
        <time>2019-10-12T16:42:14.862Z</time>
      </trkpt>
      <trkpt lat="20.23874833" lon="-98.74035">
        <ele>1980.0</ele>
        <time>2019-10-12T16:42:15.862Z</time>
      </trkpt>
      <trkpt lat="20.23874333" lon="-98.74034833">
        <ele>1980.0</ele>
        <time>2019-10-12T16:42:16.863Z</time>
      </trkpt>
      <trkpt lat="20.23874167" lon="-98.74034833">
        <ele>1980.0</ele>
        <time>2019-10-12T16:42:17.864Z</time>
      </trkpt>
      <trkpt lat="20.238735" lon="-98.74034833">
        <ele>1980.0</ele>
        <time>2019-10-12T16:42:18.864Z</time>
      </trkpt>
      <trkpt lat="20.23872667" lon="-98.74034833">
        <ele>1981.0</ele>
        <time>2019-10-12T16:42:19.864Z</time>
      </trkpt>
      <trkpt lat="20.23872167" lon="-98.74035333">
        <ele>1981.0</ele>
        <time>2019-10-12T16:42:20.864Z</time>
      </trkpt>
      <trkpt lat="20.23871333" lon="-98.74036">
        <ele>1982.0</ele>
        <time>2019-10-12T16:42:21.864Z</time>
      </trkpt>
      <trkpt lat="20.238705" lon="-98.74037">
        <ele>1982.0</ele>
        <time>2019-10-12T16:42:22.865Z</time>
      </trkpt>
      <trkpt lat="20.23869667" lon="-98.74037667">
        <ele>1983.0</ele>
        <time>2019-10-12T16:42:23.865Z</time>
      </trkpt>
      <trkpt lat="20.23869167" lon="-98.740385">
        <ele>1983.0</ele>
        <time>2019-10-12T16:42:24.865Z</time>
      </trkpt>
      <trkpt lat="20.23868667" lon="-98.74039167">
        <ele>1983.0</ele>
        <time>2019-10-12T16:42:25.865Z</time>
      </trkpt>
      <trkpt lat="20.23868333" lon="-98.7404">
        <ele>1983.0</ele>
        <time>2019-10-12T16:42:26.866Z</time>
      </trkpt>
      <trkpt lat="20.23867833" lon="-98.74040833">
        <ele>1983.0</ele>
        <time>2019-10-12T16:42:27.866Z</time>
      </trkpt>
      <trkpt lat="20.23867333" lon="-98.74041833">
        <ele>1984.0</ele>
        <time>2019-10-12T16:42:28.866Z</time>
      </trkpt>
      <trkpt lat="20.23866833" lon="-98.74042667">
        <ele>1985.0</ele>
        <time>2019-10-12T16:42:29.866Z</time>
      </trkpt>
      <trkpt lat="20.23866" lon="-98.74043333">
        <ele>1985.0</ele>
        <time>2019-10-12T16:42:30.867Z</time>
      </trkpt>
      <trkpt lat="20.23865167" lon="-98.74043667">
        <ele>1986.0</ele>
        <time>2019-10-12T16:42:31.867Z</time>
      </trkpt>
      <trkpt lat="20.23864333" lon="-98.74044">
        <ele>1986.0</ele>
        <time>2019-10-12T16:42:32.867Z</time>
      </trkpt>
      <trkpt lat="20.23863167" lon="-98.74044333">
        <ele>1986.0</ele>
        <time>2019-10-12T16:42:33.867Z</time>
      </trkpt>
      <trkpt lat="20.238625" lon="-98.74044833">
        <ele>1986.0</ele>
        <time>2019-10-12T16:42:34.867Z</time>
      </trkpt>
      <trkpt lat="20.23862" lon="-98.74045833">
        <ele>1985.0</ele>
        <time>2019-10-12T16:42:35.871Z</time>
      </trkpt>
      <trkpt lat="20.23861167" lon="-98.740465">
        <ele>1984.0</ele>
        <time>2019-10-12T16:42:36.875Z</time>
      </trkpt>
      <trkpt lat="20.23860667" lon="-98.74046833">
        <ele>1985.0</ele>
        <time>2019-10-12T16:42:37.880Z</time>
      </trkpt>
      <trkpt lat="20.2386" lon="-98.74047">
        <ele>1985.0</ele>
        <time>2019-10-12T16:42:38.885Z</time>
      </trkpt>
      <trkpt lat="20.23859" lon="-98.74047167">
        <ele>1985.0</ele>
        <time>2019-10-12T16:42:39.890Z</time>
      </trkpt>
      <trkpt lat="20.23858333" lon="-98.740475">
        <ele>1985.0</ele>
        <time>2019-10-12T16:42:40.892Z</time>
      </trkpt>
      <trkpt lat="20.23857333" lon="-98.74048">
        <ele>1986.0</ele>
        <time>2019-10-12T16:42:41.899Z</time>
      </trkpt>
      <trkpt lat="20.23856667" lon="-98.74048333">
        <ele>1986.0</ele>
        <time>2019-10-12T16:42:42.903Z</time>
      </trkpt>
      <trkpt lat="20.23855667" lon="-98.74048333">
        <ele>1986.0</ele>
        <time>2019-10-12T16:42:43.909Z</time>
      </trkpt>
      <trkpt lat="20.23855" lon="-98.74048667">
        <ele>1986.0</ele>
        <time>2019-10-12T16:42:44.913Z</time>
      </trkpt>
      <trkpt lat="20.23854333" lon="-98.74049167">
        <ele>1986.0</ele>
        <time>2019-10-12T16:42:45.918Z</time>
      </trkpt>
      <trkpt lat="20.23853667" lon="-98.740495">
        <ele>1986.0</ele>
        <time>2019-10-12T16:42:46.922Z</time>
      </trkpt>
      <trkpt lat="20.23852833" lon="-98.74049833">
        <ele>1986.0</ele>
        <time>2019-10-12T16:42:47.928Z</time>
      </trkpt>
      <trkpt lat="20.23852333" lon="-98.7405">
        <ele>1985.0</ele>
        <time>2019-10-12T16:42:48.930Z</time>
      </trkpt>
      <trkpt lat="20.23852333" lon="-98.740505">
        <ele>1986.0</ele>
        <time>2019-10-12T16:42:49.935Z</time>
      </trkpt>
      <trkpt lat="20.23852" lon="-98.740505">
        <ele>1986.0</ele>
        <time>2019-10-12T16:42:50.936Z</time>
      </trkpt>
      <trkpt lat="20.23851667" lon="-98.740505">
        <ele>1986.0</ele>
        <time>2019-10-12T16:42:51.937Z</time>
      </trkpt>
      <trkpt lat="20.23851" lon="-98.74050333">
        <ele>1987.0</ele>
        <time>2019-10-12T16:42:52.937Z</time>
      </trkpt>
      <trkpt lat="20.23850167" lon="-98.74050167">
        <ele>1986.0</ele>
        <time>2019-10-12T16:42:53.938Z</time>
      </trkpt>
      <trkpt lat="20.238495" lon="-98.7405">
        <ele>1987.0</ele>
        <time>2019-10-12T16:42:54.938Z</time>
      </trkpt>
      <trkpt lat="20.238485" lon="-98.74049667">
        <ele>1986.0</ele>
        <time>2019-10-12T16:42:55.945Z</time>
      </trkpt>
      <trkpt lat="20.23848" lon="-98.740495">
        <ele>1986.0</ele>
        <time>2019-10-12T16:42:56.952Z</time>
      </trkpt>
      <trkpt lat="20.23846833" lon="-98.74048667">
        <ele>1986.0</ele>
        <time>2019-10-12T16:42:57.832Z</time>
      </trkpt>
      <trkpt lat="20.23846" lon="-98.74047833">
        <ele>1987.0</ele>
        <time>2019-10-12T16:42:58.837Z</time>
      </trkpt>
      <trkpt lat="20.23845333" lon="-98.74047167">
        <ele>1988.0</ele>
        <time>2019-10-12T16:42:59.841Z</time>
      </trkpt>
      <trkpt lat="20.23844833" lon="-98.74046167">
        <ele>1988.0</ele>
        <time>2019-10-12T16:43:00.848Z</time>
      </trkpt>
      <trkpt lat="20.23844667" lon="-98.740455">
        <ele>1987.0</ele>
        <time>2019-10-12T16:43:01.853Z</time>
      </trkpt>
      <trkpt lat="20.23844667" lon="-98.74045">
        <ele>1987.0</ele>
        <time>2019-10-12T16:43:02.860Z</time>
      </trkpt>
      <trkpt lat="20.23844" lon="-98.740445">
        <ele>1988.0</ele>
        <time>2019-10-12T16:43:03.865Z</time>
      </trkpt>
      <trkpt lat="20.23843333" lon="-98.74044167">
        <ele>1988.0</ele>
        <time>2019-10-12T16:43:04.868Z</time>
      </trkpt>
      <trkpt lat="20.23842667" lon="-98.74043167">
        <ele>1988.0</ele>
        <time>2019-10-12T16:43:05.875Z</time>
      </trkpt>
      <trkpt lat="20.23842333" lon="-98.740425">
        <ele>1988.0</ele>
        <time>2019-10-12T16:43:06.880Z</time>
      </trkpt>
      <trkpt lat="20.23842" lon="-98.74041333">
        <ele>1988.0</ele>
        <time>2019-10-12T16:43:07.885Z</time>
      </trkpt>
      <trkpt lat="20.23841833" lon="-98.74040667">
        <ele>1988.0</ele>
        <time>2019-10-12T16:43:08.891Z</time>
      </trkpt>
      <trkpt lat="20.238415" lon="-98.74039833">
        <ele>1988.0</ele>
        <time>2019-10-12T16:43:09.898Z</time>
      </trkpt>
      <trkpt lat="20.238415" lon="-98.74039">
        <ele>1988.0</ele>
        <time>2019-10-12T16:43:10.903Z</time>
      </trkpt>
      <trkpt lat="20.23841833" lon="-98.74038">
        <ele>1988.0</ele>
        <time>2019-10-12T16:43:11.912Z</time>
      </trkpt>
      <trkpt lat="20.23842" lon="-98.74037">
        <ele>1988.0</ele>
        <time>2019-10-12T16:43:12.917Z</time>
      </trkpt>
      <trkpt lat="20.23842667" lon="-98.74036167">
        <ele>1988.0</ele>
        <time>2019-10-12T16:43:13.924Z</time>
      </trkpt>
      <trkpt lat="20.23843" lon="-98.740355">
        <ele>1988.0</ele>
        <time>2019-10-12T16:43:14.929Z</time>
      </trkpt>
      <trkpt lat="20.23843167" lon="-98.74034667">
        <ele>1987.0</ele>
        <time>2019-10-12T16:43:15.932Z</time>
      </trkpt>
      <trkpt lat="20.23843333" lon="-98.74033667">
        <ele>1987.0</ele>
        <time>2019-10-12T16:43:16.938Z</time>
      </trkpt>
      <trkpt lat="20.23843667" lon="-98.74032667">
        <ele>1988.0</ele>
        <time>2019-10-12T16:43:17.944Z</time>
      </trkpt>
      <trkpt lat="20.23844333" lon="-98.740315">
        <ele>1988.0</ele>
        <time>2019-10-12T16:43:18.950Z</time>
      </trkpt>
      <trkpt lat="20.23844667" lon="-98.74030667">
        <ele>1989.0</ele>
        <time>2019-10-12T16:43:19.830Z</time>
      </trkpt>
      <trkpt lat="20.23845167" lon="-98.740295">
        <ele>1989.0</ele>
        <time>2019-10-12T16:43:20.837Z</time>
      </trkpt>
      <trkpt lat="20.238455" lon="-98.740285">
        <ele>1989.0</ele>
        <time>2019-10-12T16:43:21.841Z</time>
      </trkpt>
      <trkpt lat="20.23845833" lon="-98.74027333">
        <ele>1990.0</ele>
        <time>2019-10-12T16:43:22.846Z</time>
      </trkpt>
      <trkpt lat="20.23846333" lon="-98.74026333">
        <ele>1990.0</ele>
        <time>2019-10-12T16:43:23.850Z</time>
      </trkpt>
      <trkpt lat="20.23846667" lon="-98.74025333">
        <ele>1991.0</ele>
        <time>2019-10-12T16:43:24.852Z</time>
      </trkpt>
      <trkpt lat="20.23847" lon="-98.74024167">
        <ele>1992.0</ele>
        <time>2019-10-12T16:43:25.857Z</time>
      </trkpt>
      <trkpt lat="20.23847333" lon="-98.74023167">
        <ele>1992.0</ele>
        <time>2019-10-12T16:43:26.864Z</time>
      </trkpt>
      <trkpt lat="20.23847833" lon="-98.74022167">
        <ele>1992.0</ele>
        <time>2019-10-12T16:43:27.870Z</time>
      </trkpt>
      <trkpt lat="20.23848333" lon="-98.74021">
        <ele>1993.0</ele>
        <time>2019-10-12T16:43:28.874Z</time>
      </trkpt>
      <trkpt lat="20.23848833" lon="-98.7402">
        <ele>1994.0</ele>
        <time>2019-10-12T16:43:29.879Z</time>
      </trkpt>
      <trkpt lat="20.23849333" lon="-98.74019167">
        <ele>1994.0</ele>
        <time>2019-10-12T16:43:30.882Z</time>
      </trkpt>
      <trkpt lat="20.238495" lon="-98.74018333">
        <ele>1994.0</ele>
        <time>2019-10-12T16:43:31.889Z</time>
      </trkpt>
      <trkpt lat="20.238495" lon="-98.74017333">
        <ele>1994.0</ele>
        <time>2019-10-12T16:43:32.893Z</time>
      </trkpt>
      <trkpt lat="20.238495" lon="-98.74016167">
        <ele>1994.0</ele>
        <time>2019-10-12T16:43:33.894Z</time>
      </trkpt>
      <trkpt lat="20.23850167" lon="-98.74015">
        <ele>1995.0</ele>
        <time>2019-10-12T16:43:34.895Z</time>
      </trkpt>
      <trkpt lat="20.23850333" lon="-98.74013833">
        <ele>1995.0</ele>
        <time>2019-10-12T16:43:35.895Z</time>
      </trkpt>
      <trkpt lat="20.23850667" lon="-98.74012833">
        <ele>1996.0</ele>
        <time>2019-10-12T16:43:36.896Z</time>
      </trkpt>
      <trkpt lat="20.23850833" lon="-98.74012">
        <ele>1997.0</ele>
        <time>2019-10-12T16:43:37.897Z</time>
      </trkpt>
      <trkpt lat="20.23851" lon="-98.74011167">
        <ele>1998.0</ele>
        <time>2019-10-12T16:43:38.897Z</time>
      </trkpt>
      <trkpt lat="20.238505" lon="-98.74009833">
        <ele>1999.0</ele>
        <time>2019-10-12T16:43:39.903Z</time>
      </trkpt>
      <trkpt lat="20.23850333" lon="-98.74008833">
        <ele>1999.0</ele>
        <time>2019-10-12T16:43:40.909Z</time>
      </trkpt>
      <trkpt lat="20.2385" lon="-98.74007833">
        <ele>1999.0</ele>
        <time>2019-10-12T16:43:41.916Z</time>
      </trkpt>
      <trkpt lat="20.23849667" lon="-98.74006833">
        <ele>2000.0</ele>
        <time>2019-10-12T16:43:42.921Z</time>
      </trkpt>
      <trkpt lat="20.23849333" lon="-98.74005833">
        <ele>2000.0</ele>
        <time>2019-10-12T16:43:43.922Z</time>
      </trkpt>
      <trkpt lat="20.23849333" lon="-98.74004833">
        <ele>1999.0</ele>
        <time>2019-10-12T16:43:44.923Z</time>
      </trkpt>
      <trkpt lat="20.23849333" lon="-98.74003833">
        <ele>1999.0</ele>
        <time>2019-10-12T16:43:45.926Z</time>
      </trkpt>
      <trkpt lat="20.23849667" lon="-98.74003">
        <ele>2000.0</ele>
        <time>2019-10-12T16:43:46.933Z</time>
      </trkpt>
      <trkpt lat="20.23849833" lon="-98.74002333">
        <ele>2000.0</ele>
        <time>2019-10-12T16:43:47.938Z</time>
      </trkpt>
      <trkpt lat="20.23849833" lon="-98.740015">
        <ele>2000.0</ele>
        <time>2019-10-12T16:43:48.945Z</time>
      </trkpt>
      <trkpt lat="20.23850167" lon="-98.74000667">
        <ele>2001.0</ele>
        <time>2019-10-12T16:43:49.951Z</time>
      </trkpt>
      <trkpt lat="20.23850333" lon="-98.73999833">
        <ele>2001.0</ele>
        <time>2019-10-12T16:43:50.952Z</time>
      </trkpt>
      <trkpt lat="20.23850167" lon="-98.73999">
        <ele>2001.0</ele>
        <time>2019-10-12T16:43:51.833Z</time>
      </trkpt>
      <trkpt lat="20.23850167" lon="-98.73998167">
        <ele>2002.0</ele>
        <time>2019-10-12T16:43:52.838Z</time>
      </trkpt>
      <trkpt lat="20.23850333" lon="-98.73997333">
        <ele>2002.0</ele>
        <time>2019-10-12T16:43:53.844Z</time>
      </trkpt>
      <trkpt lat="20.23850333" lon="-98.739965">
        <ele>2002.0</ele>
        <time>2019-10-12T16:43:54.847Z</time>
      </trkpt>
      <trkpt lat="20.23850333" lon="-98.73995667">
        <ele>2003.0</ele>
        <time>2019-10-12T16:43:55.848Z</time>
      </trkpt>
      <trkpt lat="20.2385" lon="-98.73995">
        <ele>2003.0</ele>
        <time>2019-10-12T16:43:56.849Z</time>
      </trkpt>
      <trkpt lat="20.23850167" lon="-98.73994333">
        <ele>2003.0</ele>
        <time>2019-10-12T16:43:57.851Z</time>
      </trkpt>
      <trkpt lat="20.23850333" lon="-98.73993333">
        <ele>2003.0</ele>
        <time>2019-10-12T16:43:58.858Z</time>
      </trkpt>
      <trkpt lat="20.238505" lon="-98.739925">
        <ele>2003.0</ele>
        <time>2019-10-12T16:43:59.861Z</time>
      </trkpt>
      <trkpt lat="20.23850167" lon="-98.73991667">
        <ele>2004.0</ele>
        <time>2019-10-12T16:44:00.866Z</time>
      </trkpt>
      <trkpt lat="20.23849667" lon="-98.73990667">
        <ele>2004.0</ele>
        <time>2019-10-12T16:44:01.871Z</time>
      </trkpt>
      <trkpt lat="20.23849167" lon="-98.739895">
        <ele>2004.0</ele>
        <time>2019-10-12T16:44:02.878Z</time>
      </trkpt>
      <trkpt lat="20.23849" lon="-98.73988333">
        <ele>2005.0</ele>
        <time>2019-10-12T16:44:03.884Z</time>
      </trkpt>
      <trkpt lat="20.23848667" lon="-98.73987">
        <ele>2006.0</ele>
        <time>2019-10-12T16:44:04.886Z</time>
      </trkpt>
      <trkpt lat="20.238485" lon="-98.73985833">
        <ele>2006.0</ele>
        <time>2019-10-12T16:44:05.890Z</time>
      </trkpt>
      <trkpt lat="20.23848167" lon="-98.73984833">
        <ele>2006.0</ele>
        <time>2019-10-12T16:44:06.892Z</time>
      </trkpt>
      <trkpt lat="20.23847333" lon="-98.73983667">
        <ele>2005.0</ele>
        <time>2019-10-12T16:44:07.897Z</time>
      </trkpt>
      <trkpt lat="20.238475" lon="-98.739825">
        <ele>2006.0</ele>
        <time>2019-10-12T16:44:08.900Z</time>
      </trkpt>
      <trkpt lat="20.23847833" lon="-98.73981667">
        <ele>2007.0</ele>
        <time>2019-10-12T16:44:09.904Z</time>
      </trkpt>
      <trkpt lat="20.23848" lon="-98.739805">
        <ele>2007.0</ele>
        <time>2019-10-12T16:44:10.911Z</time>
      </trkpt>
      <trkpt lat="20.23848167" lon="-98.739795">
        <ele>2008.0</ele>
        <time>2019-10-12T16:44:11.918Z</time>
      </trkpt>
      <trkpt lat="20.238485" lon="-98.739785">
        <ele>2008.0</ele>
        <time>2019-10-12T16:44:12.923Z</time>
      </trkpt>
      <trkpt lat="20.23848333" lon="-98.73977167">
        <ele>2009.0</ele>
        <time>2019-10-12T16:44:13.924Z</time>
      </trkpt>
      <trkpt lat="20.238485" lon="-98.73976167">
        <ele>2009.0</ele>
        <time>2019-10-12T16:44:14.925Z</time>
      </trkpt>
      <trkpt lat="20.238485" lon="-98.73975167">
        <ele>2009.0</ele>
        <time>2019-10-12T16:44:15.928Z</time>
      </trkpt>
      <trkpt lat="20.23848" lon="-98.73974">
        <ele>2009.0</ele>
        <time>2019-10-12T16:44:16.934Z</time>
      </trkpt>
      <trkpt lat="20.23847" lon="-98.739725">
        <ele>2009.0</ele>
        <time>2019-10-12T16:44:17.941Z</time>
      </trkpt>
      <trkpt lat="20.238465" lon="-98.73971333">
        <ele>2009.0</ele>
        <time>2019-10-12T16:44:18.947Z</time>
      </trkpt>
      <trkpt lat="20.23847" lon="-98.73971">
        <ele>2010.0</ele>
        <time>2019-10-12T16:44:19.952Z</time>
      </trkpt>
      <trkpt lat="20.23848" lon="-98.73970833">
        <ele>2012.0</ele>
        <time>2019-10-12T16:44:20.834Z</time>
      </trkpt>
      <trkpt lat="20.238485" lon="-98.739705">
        <ele>2013.0</ele>
        <time>2019-10-12T16:44:21.839Z</time>
      </trkpt>
      <trkpt lat="20.23847833" lon="-98.73970333">
        <ele>2015.0</ele>
        <time>2019-10-12T16:44:22.846Z</time>
      </trkpt>
      <trkpt lat="20.23847167" lon="-98.7397">
        <ele>2015.0</ele>
        <time>2019-10-12T16:44:23.853Z</time>
      </trkpt>
      <trkpt lat="20.23847167" lon="-98.73969333">
        <ele>2015.0</ele>
        <time>2019-10-12T16:44:24.856Z</time>
      </trkpt>
      <trkpt lat="20.23847" lon="-98.739685">
        <ele>2015.0</ele>
        <time>2019-10-12T16:44:25.862Z</time>
      </trkpt>
      <trkpt lat="20.23847" lon="-98.73967833">
        <ele>2016.0</ele>
        <time>2019-10-12T16:44:26.866Z</time>
      </trkpt>
      <trkpt lat="20.23847333" lon="-98.73966833">
        <ele>2017.0</ele>
        <time>2019-10-12T16:44:27.870Z</time>
      </trkpt>
      <trkpt lat="20.23847" lon="-98.73966167">
        <ele>2018.0</ele>
        <time>2019-10-12T16:44:28.874Z</time>
      </trkpt>
      <trkpt lat="20.23846667" lon="-98.739655">
        <ele>2018.0</ele>
        <time>2019-10-12T16:44:29.875Z</time>
      </trkpt>
      <trkpt lat="20.23845833" lon="-98.73964667">
        <ele>2018.0</ele>
        <time>2019-10-12T16:44:30.875Z</time>
      </trkpt>
      <trkpt lat="20.23845667" lon="-98.73964">
        <ele>2018.0</ele>
        <time>2019-10-12T16:44:31.876Z</time>
      </trkpt>
      <trkpt lat="20.23845667" lon="-98.73963">
        <ele>2018.0</ele>
        <time>2019-10-12T16:44:32.876Z</time>
      </trkpt>
      <trkpt lat="20.238455" lon="-98.73962167">
        <ele>2018.0</ele>
        <time>2019-10-12T16:44:33.877Z</time>
      </trkpt>
      <trkpt lat="20.23845333" lon="-98.73961333">
        <ele>2018.0</ele>
        <time>2019-10-12T16:44:34.878Z</time>
      </trkpt>
      <trkpt lat="20.23844833" lon="-98.73960333">
        <ele>2017.0</ele>
        <time>2019-10-12T16:44:35.880Z</time>
      </trkpt>
      <trkpt lat="20.23844333" lon="-98.739595">
        <ele>2017.0</ele>
        <time>2019-10-12T16:44:36.885Z</time>
      </trkpt>
      <trkpt lat="20.23844333" lon="-98.73958833">
        <ele>2016.0</ele>
        <time>2019-10-12T16:44:37.892Z</time>
      </trkpt>
      <trkpt lat="20.23845" lon="-98.739585">
        <ele>2016.0</ele>
        <time>2019-10-12T16:44:38.898Z</time>
      </trkpt>
      <trkpt lat="20.23845333" lon="-98.73958">
        <ele>2016.0</ele>
        <time>2019-10-12T16:44:39.902Z</time>
      </trkpt>
      <trkpt lat="20.23845833" lon="-98.73957">
        <ele>2015.0</ele>
        <time>2019-10-12T16:44:40.907Z</time>
      </trkpt>
      <trkpt lat="20.238465" lon="-98.73955833">
        <ele>2016.0</ele>
        <time>2019-10-12T16:44:41.914Z</time>
      </trkpt>
      <trkpt lat="20.23846" lon="-98.73955">
        <ele>2016.0</ele>
        <time>2019-10-12T16:44:42.922Z</time>
      </trkpt>
      <trkpt lat="20.23845667" lon="-98.73954833">
        <ele>2017.0</ele>
        <time>2019-10-12T16:44:43.928Z</time>
      </trkpt>
      <trkpt lat="20.23845" lon="-98.73955">
        <ele>2017.0</ele>
        <time>2019-10-12T16:44:44.930Z</time>
      </trkpt>
      <trkpt lat="20.238445" lon="-98.73955">
        <ele>2018.0</ele>
        <time>2019-10-12T16:44:45.936Z</time>
      </trkpt>
      <trkpt lat="20.23844333" lon="-98.73955333">
        <ele>2018.0</ele>
        <time>2019-10-12T16:44:46.943Z</time>
      </trkpt>
      <trkpt lat="20.238445" lon="-98.739555">
        <ele>2019.0</ele>
        <time>2019-10-12T16:44:47.948Z</time>
      </trkpt>
      <trkpt lat="20.23845167" lon="-98.739555">
        <ele>2019.0</ele>
        <time>2019-10-12T16:44:48.949Z</time>
      </trkpt>
      <trkpt lat="20.23846167" lon="-98.739555">
        <ele>2020.0</ele>
        <time>2019-10-12T16:44:49.950Z</time>
      </trkpt>
      <trkpt lat="20.23847167" lon="-98.739555">
        <ele>2020.0</ele>
        <time>2019-10-12T16:44:50.951Z</time>
      </trkpt>
      <trkpt lat="20.23848" lon="-98.73955667">
        <ele>2020.0</ele>
        <time>2019-10-12T16:44:51.951Z</time>
      </trkpt>
      <trkpt lat="20.23848833" lon="-98.73956">
        <ele>2020.0</ele>
        <time>2019-10-12T16:44:52.952Z</time>
      </trkpt>
      <trkpt lat="20.23850167" lon="-98.73956167">
        <ele>2019.0</ele>
        <time>2019-10-12T16:44:53.953Z</time>
      </trkpt>
      <trkpt lat="20.23851167" lon="-98.739565">
        <ele>2019.0</ele>
        <time>2019-10-12T16:44:54.954Z</time>
      </trkpt>
      <trkpt lat="20.23852333" lon="-98.73957">
        <ele>2020.0</ele>
        <time>2019-10-12T16:44:55.830Z</time>
      </trkpt>
      <trkpt lat="20.23853333" lon="-98.739575">
        <ele>2020.0</ele>
        <time>2019-10-12T16:44:56.830Z</time>
      </trkpt>
      <trkpt lat="20.23854167" lon="-98.73957833">
        <ele>2021.0</ele>
        <time>2019-10-12T16:44:57.831Z</time>
      </trkpt>
      <trkpt lat="20.23854833" lon="-98.73958167">
        <ele>2021.0</ele>
        <time>2019-10-12T16:44:58.832Z</time>
      </trkpt>
      <trkpt lat="20.238555" lon="-98.73959">
        <ele>2021.0</ele>
        <time>2019-10-12T16:44:59.833Z</time>
      </trkpt>
      <trkpt lat="20.238565" lon="-98.73959833">
        <ele>2021.0</ele>
        <time>2019-10-12T16:45:00.834Z</time>
      </trkpt>
      <trkpt lat="20.238575" lon="-98.73960167">
        <ele>2022.0</ele>
        <time>2019-10-12T16:45:01.834Z</time>
      </trkpt>
      <trkpt lat="20.23858667" lon="-98.73960167">
        <ele>2022.0</ele>
        <time>2019-10-12T16:45:02.835Z</time>
      </trkpt>
      <trkpt lat="20.23859833" lon="-98.73960667">
        <ele>2022.0</ele>
        <time>2019-10-12T16:45:03.836Z</time>
      </trkpt>
      <trkpt lat="20.23861333" lon="-98.73961167">
        <ele>2022.0</ele>
        <time>2019-10-12T16:45:04.837Z</time>
      </trkpt>
      <trkpt lat="20.238625" lon="-98.73961667">
        <ele>2023.0</ele>
        <time>2019-10-12T16:45:05.838Z</time>
      </trkpt>
      <trkpt lat="20.23863" lon="-98.73962167">
        <ele>2023.0</ele>
        <time>2019-10-12T16:45:06.838Z</time>
      </trkpt>
      <trkpt lat="20.238635" lon="-98.73962667">
        <ele>2024.0</ele>
        <time>2019-10-12T16:45:07.838Z</time>
      </trkpt>
      <trkpt lat="20.238635" lon="-98.73963333">
        <ele>2024.0</ele>
        <time>2019-10-12T16:45:08.842Z</time>
      </trkpt>
      <trkpt lat="20.23864333" lon="-98.73964">
        <ele>2023.0</ele>
        <time>2019-10-12T16:45:09.848Z</time>
      </trkpt>
      <trkpt lat="20.23865333" lon="-98.73964667">
        <ele>2023.0</ele>
        <time>2019-10-12T16:45:10.849Z</time>
      </trkpt>
      <trkpt lat="20.23866167" lon="-98.73965333">
        <ele>2023.0</ele>
        <time>2019-10-12T16:45:11.856Z</time>
      </trkpt>
      <trkpt lat="20.23867167" lon="-98.73966167">
        <ele>2023.0</ele>
        <time>2019-10-12T16:45:12.862Z</time>
      </trkpt>
      <trkpt lat="20.23868" lon="-98.73966833">
        <ele>2023.0</ele>
        <time>2019-10-12T16:45:13.865Z</time>
      </trkpt>
      <trkpt lat="20.23869167" lon="-98.73967667">
        <ele>2024.0</ele>
        <time>2019-10-12T16:45:14.871Z</time>
      </trkpt>
      <trkpt lat="20.23870167" lon="-98.739685">
        <ele>2024.0</ele>
        <time>2019-10-12T16:45:15.880Z</time>
      </trkpt>
      <trkpt lat="20.23871333" lon="-98.73969333">
        <ele>2024.0</ele>
        <time>2019-10-12T16:45:16.883Z</time>
      </trkpt>
      <trkpt lat="20.23872167" lon="-98.73969833">
        <ele>2024.0</ele>
        <time>2019-10-12T16:45:17.887Z</time>
      </trkpt>
      <trkpt lat="20.238735" lon="-98.73970333">
        <ele>2024.0</ele>
        <time>2019-10-12T16:45:18.893Z</time>
      </trkpt>
      <trkpt lat="20.23874667" lon="-98.739705">
        <ele>2024.0</ele>
        <time>2019-10-12T16:45:19.899Z</time>
      </trkpt>
      <trkpt lat="20.23875667" lon="-98.73970833">
        <ele>2024.0</ele>
        <time>2019-10-12T16:45:20.904Z</time>
      </trkpt>
      <trkpt lat="20.23876667" lon="-98.73971167">
        <ele>2024.0</ele>
        <time>2019-10-12T16:45:21.911Z</time>
      </trkpt>
      <trkpt lat="20.23878" lon="-98.739715">
        <ele>2024.0</ele>
        <time>2019-10-12T16:45:22.913Z</time>
      </trkpt>
      <trkpt lat="20.23879167" lon="-98.73971667">
        <ele>2024.0</ele>
        <time>2019-10-12T16:45:23.915Z</time>
      </trkpt>
      <trkpt lat="20.23880167" lon="-98.73971833">
        <ele>2024.0</ele>
        <time>2019-10-12T16:45:24.915Z</time>
      </trkpt>
      <trkpt lat="20.23881167" lon="-98.73971833">
        <ele>2024.0</ele>
        <time>2019-10-12T16:45:25.916Z</time>
      </trkpt>
      <trkpt lat="20.23882167" lon="-98.73971667">
        <ele>2023.0</ele>
        <time>2019-10-12T16:45:26.917Z</time>
      </trkpt>
      <trkpt lat="20.23883167" lon="-98.73972">
        <ele>2022.0</ele>
        <time>2019-10-12T16:45:27.918Z</time>
      </trkpt>
      <trkpt lat="20.23884167" lon="-98.739725">
        <ele>2022.0</ele>
        <time>2019-10-12T16:45:28.924Z</time>
      </trkpt>
      <trkpt lat="20.23885" lon="-98.73973">
        <ele>2022.0</ele>
        <time>2019-10-12T16:45:29.930Z</time>
      </trkpt>
      <trkpt lat="20.23886" lon="-98.73973333">
        <ele>2022.0</ele>
        <time>2019-10-12T16:45:30.935Z</time>
      </trkpt>
      <trkpt lat="20.23887" lon="-98.73974167">
        <ele>2022.0</ele>
        <time>2019-10-12T16:45:31.941Z</time>
      </trkpt>
      <trkpt lat="20.23888167" lon="-98.73975">
        <ele>2023.0</ele>
        <time>2019-10-12T16:45:32.945Z</time>
      </trkpt>
      <trkpt lat="20.23889" lon="-98.73975667">
        <ele>2023.0</ele>
        <time>2019-10-12T16:45:33.950Z</time>
      </trkpt>
      <trkpt lat="20.2389" lon="-98.739765">
        <ele>2023.0</ele>
        <time>2019-10-12T16:45:34.830Z</time>
      </trkpt>
      <trkpt lat="20.23891" lon="-98.73977333">
        <ele>2023.0</ele>
        <time>2019-10-12T16:45:35.835Z</time>
      </trkpt>
      <trkpt lat="20.23892167" lon="-98.739785">
        <ele>2022.0</ele>
        <time>2019-10-12T16:45:36.841Z</time>
      </trkpt>
      <trkpt lat="20.23892833" lon="-98.73979167">
        <ele>2022.0</ele>
        <time>2019-10-12T16:45:37.843Z</time>
      </trkpt>
      <trkpt lat="20.238935" lon="-98.73980167">
        <ele>2022.0</ele>
        <time>2019-10-12T16:45:38.850Z</time>
      </trkpt>
      <trkpt lat="20.23894167" lon="-98.73981">
        <ele>2022.0</ele>
        <time>2019-10-12T16:45:39.854Z</time>
      </trkpt>
      <trkpt lat="20.23894833" lon="-98.73982">
        <ele>2022.0</ele>
        <time>2019-10-12T16:45:40.861Z</time>
      </trkpt>
      <trkpt lat="20.238955" lon="-98.73983">
        <ele>2022.0</ele>
        <time>2019-10-12T16:45:41.863Z</time>
      </trkpt>
      <trkpt lat="20.23896167" lon="-98.73983667">
        <ele>2022.0</ele>
        <time>2019-10-12T16:45:42.865Z</time>
      </trkpt>
      <trkpt lat="20.23896667" lon="-98.73983667">
        <ele>2022.0</ele>
        <time>2019-10-12T16:45:43.865Z</time>
      </trkpt>
      <trkpt lat="20.23896833" lon="-98.73983667">
        <ele>2022.0</ele>
        <time>2019-10-12T16:45:44.866Z</time>
      </trkpt>
      <trkpt lat="20.23897" lon="-98.73983833">
        <ele>2022.0</ele>
        <time>2019-10-12T16:45:45.866Z</time>
      </trkpt>
      <trkpt lat="20.23897167" lon="-98.73984">
        <ele>2021.0</ele>
        <time>2019-10-12T16:45:46.866Z</time>
      </trkpt>
      <trkpt lat="20.23897167" lon="-98.73984167">
        <ele>2021.0</ele>
        <time>2019-10-12T16:45:47.867Z</time>
      </trkpt>
      <trkpt lat="20.238975" lon="-98.739845">
        <ele>2021.0</ele>
        <time>2019-10-12T16:45:48.867Z</time>
      </trkpt>
      <trkpt lat="20.23898333" lon="-98.73985167">
        <ele>2021.0</ele>
        <time>2019-10-12T16:45:49.868Z</time>
      </trkpt>
      <trkpt lat="20.23899" lon="-98.739855">
        <ele>2021.0</ele>
        <time>2019-10-12T16:45:50.869Z</time>
      </trkpt>
      <trkpt lat="20.23899833" lon="-98.73985667">
        <ele>2021.0</ele>
        <time>2019-10-12T16:45:51.870Z</time>
      </trkpt>
      <trkpt lat="20.23901" lon="-98.73985833">
        <ele>2020.0</ele>
        <time>2019-10-12T16:45:52.870Z</time>
      </trkpt>
      <trkpt lat="20.23902" lon="-98.73986">
        <ele>2020.0</ele>
        <time>2019-10-12T16:45:53.871Z</time>
      </trkpt>
      <trkpt lat="20.23903" lon="-98.73986167">
        <ele>2020.0</ele>
        <time>2019-10-12T16:45:54.872Z</time>
      </trkpt>
      <trkpt lat="20.23904167" lon="-98.73986667">
        <ele>2020.0</ele>
        <time>2019-10-12T16:45:55.873Z</time>
      </trkpt>
      <trkpt lat="20.23905167" lon="-98.73987">
        <ele>2020.0</ele>
        <time>2019-10-12T16:45:56.874Z</time>
      </trkpt>
      <trkpt lat="20.23906167" lon="-98.73987667">
        <ele>2021.0</ele>
        <time>2019-10-12T16:45:57.875Z</time>
      </trkpt>
      <trkpt lat="20.239075" lon="-98.73988">
        <ele>2021.0</ele>
        <time>2019-10-12T16:45:58.875Z</time>
      </trkpt>
      <trkpt lat="20.23908667" lon="-98.73988167">
        <ele>2021.0</ele>
        <time>2019-10-12T16:45:59.876Z</time>
      </trkpt>
      <trkpt lat="20.23909667" lon="-98.73988333">
        <ele>2021.0</ele>
        <time>2019-10-12T16:46:00.877Z</time>
      </trkpt>
      <trkpt lat="20.23910667" lon="-98.73988667">
        <ele>2020.0</ele>
        <time>2019-10-12T16:46:01.878Z</time>
      </trkpt>
      <trkpt lat="20.23911667" lon="-98.73989">
        <ele>2020.0</ele>
        <time>2019-10-12T16:46:02.879Z</time>
      </trkpt>
      <trkpt lat="20.239125" lon="-98.73989667">
        <ele>2019.0</ele>
        <time>2019-10-12T16:46:03.879Z</time>
      </trkpt>
      <trkpt lat="20.239135" lon="-98.73990167">
        <ele>2019.0</ele>
        <time>2019-10-12T16:46:04.880Z</time>
      </trkpt>
      <trkpt lat="20.239145" lon="-98.739905">
        <ele>2019.0</ele>
        <time>2019-10-12T16:46:05.880Z</time>
      </trkpt>
      <trkpt lat="20.239155" lon="-98.73991167">
        <ele>2020.0</ele>
        <time>2019-10-12T16:46:06.881Z</time>
      </trkpt>
      <trkpt lat="20.239165" lon="-98.73991833">
        <ele>2020.0</ele>
        <time>2019-10-12T16:46:07.882Z</time>
      </trkpt>
      <trkpt lat="20.239165" lon="-98.73991833">
        <ele>2020.0</ele>
        <time>2019-10-12T16:46:08.882Z</time>
      </trkpt>
      <trkpt lat="20.23919" lon="-98.739935">
        <ele>2020.0</ele>
        <time>2019-10-12T16:46:09.883Z</time>
      </trkpt>
      <trkpt lat="20.2392" lon="-98.73994333">
        <ele>2021.0</ele>
        <time>2019-10-12T16:46:10.890Z</time>
      </trkpt>
      <trkpt lat="20.23921" lon="-98.73995167">
        <ele>2021.0</ele>
        <time>2019-10-12T16:46:11.896Z</time>
      </trkpt>
      <trkpt lat="20.23922167" lon="-98.73996">
        <ele>2021.0</ele>
        <time>2019-10-12T16:46:12.897Z</time>
      </trkpt>
      <trkpt lat="20.23923333" lon="-98.73996833">
        <ele>2021.0</ele>
        <time>2019-10-12T16:46:13.902Z</time>
      </trkpt>
      <trkpt lat="20.23924833" lon="-98.73997333">
        <ele>2022.0</ele>
        <time>2019-10-12T16:46:14.908Z</time>
      </trkpt>
      <trkpt lat="20.23926167" lon="-98.739975">
        <ele>2022.0</ele>
        <time>2019-10-12T16:46:15.909Z</time>
      </trkpt>
      <trkpt lat="20.239275" lon="-98.739975">
        <ele>2023.0</ele>
        <time>2019-10-12T16:46:16.911Z</time>
      </trkpt>
      <trkpt lat="20.23928667" lon="-98.73997333">
        <ele>2023.0</ele>
        <time>2019-10-12T16:46:17.911Z</time>
      </trkpt>
      <trkpt lat="20.23929667" lon="-98.73997167">
        <ele>2022.0</ele>
        <time>2019-10-12T16:46:18.918Z</time>
      </trkpt>
      <trkpt lat="20.23930667" lon="-98.73997167">
        <ele>2023.0</ele>
        <time>2019-10-12T16:46:19.922Z</time>
      </trkpt>
      <trkpt lat="20.23931667" lon="-98.73996833">
        <ele>2023.0</ele>
        <time>2019-10-12T16:46:20.926Z</time>
      </trkpt>
      <trkpt lat="20.23932667" lon="-98.73996333">
        <ele>2023.0</ele>
        <time>2019-10-12T16:46:21.931Z</time>
      </trkpt>
      <trkpt lat="20.239335" lon="-98.73995667">
        <ele>2023.0</ele>
        <time>2019-10-12T16:46:22.936Z</time>
      </trkpt>
      <trkpt lat="20.23934333" lon="-98.73995">
        <ele>2023.0</ele>
        <time>2019-10-12T16:46:23.942Z</time>
      </trkpt>
      <trkpt lat="20.23935167" lon="-98.73994333">
        <ele>2023.0</ele>
        <time>2019-10-12T16:46:24.949Z</time>
      </trkpt>
      <trkpt lat="20.23935833" lon="-98.739935">
        <ele>2023.0</ele>
        <time>2019-10-12T16:46:25.830Z</time>
      </trkpt>
      <trkpt lat="20.23936833" lon="-98.73992833">
        <ele>2023.0</ele>
        <time>2019-10-12T16:46:26.835Z</time>
      </trkpt>
      <trkpt lat="20.23937833" lon="-98.73992">
        <ele>2024.0</ele>
        <time>2019-10-12T16:46:27.835Z</time>
      </trkpt>
      <trkpt lat="20.23938333" lon="-98.73991">
        <ele>2024.0</ele>
        <time>2019-10-12T16:46:28.840Z</time>
      </trkpt>
      <trkpt lat="20.23939167" lon="-98.7399">
        <ele>2024.0</ele>
        <time>2019-10-12T16:46:29.846Z</time>
      </trkpt>
      <trkpt lat="20.23939833" lon="-98.73988833">
        <ele>2025.0</ele>
        <time>2019-10-12T16:46:30.847Z</time>
      </trkpt>
      <trkpt lat="20.23940833" lon="-98.73987667">
        <ele>2025.0</ele>
        <time>2019-10-12T16:46:31.853Z</time>
      </trkpt>
      <trkpt lat="20.239415" lon="-98.73986333">
        <ele>2026.0</ele>
        <time>2019-10-12T16:46:32.859Z</time>
      </trkpt>
      <trkpt lat="20.23942333" lon="-98.73985">
        <ele>2026.0</ele>
        <time>2019-10-12T16:46:33.861Z</time>
      </trkpt>
      <trkpt lat="20.239425" lon="-98.739835">
        <ele>2026.0</ele>
        <time>2019-10-12T16:46:34.862Z</time>
      </trkpt>
      <trkpt lat="20.239425" lon="-98.73982167">
        <ele>2027.0</ele>
        <time>2019-10-12T16:46:35.863Z</time>
      </trkpt>
      <trkpt lat="20.23942333" lon="-98.73980833">
        <ele>2027.0</ele>
        <time>2019-10-12T16:46:36.863Z</time>
      </trkpt>
      <trkpt lat="20.23941833" lon="-98.739795">
        <ele>2028.0</ele>
        <time>2019-10-12T16:46:37.864Z</time>
      </trkpt>
      <trkpt lat="20.23940667" lon="-98.73978333">
        <ele>2028.0</ele>
        <time>2019-10-12T16:46:38.865Z</time>
      </trkpt>
      <trkpt lat="20.23939833" lon="-98.73977333">
        <ele>2028.0</ele>
        <time>2019-10-12T16:46:39.870Z</time>
      </trkpt>
      <trkpt lat="20.23939167" lon="-98.73976333">
        <ele>2028.0</ele>
        <time>2019-10-12T16:46:40.876Z</time>
      </trkpt>
      <trkpt lat="20.239385" lon="-98.73975333">
        <ele>2028.0</ele>
        <time>2019-10-12T16:46:41.876Z</time>
      </trkpt>
      <trkpt lat="20.23937667" lon="-98.73974167">
        <ele>2028.0</ele>
        <time>2019-10-12T16:46:42.882Z</time>
      </trkpt>
      <trkpt lat="20.23937" lon="-98.73973">
        <ele>2027.0</ele>
        <time>2019-10-12T16:46:43.889Z</time>
      </trkpt>
      <trkpt lat="20.23936333" lon="-98.73971833">
        <ele>2027.0</ele>
        <time>2019-10-12T16:46:44.894Z</time>
      </trkpt>
      <trkpt lat="20.23936167" lon="-98.73970667">
        <ele>2027.0</ele>
        <time>2019-10-12T16:46:45.895Z</time>
      </trkpt>
      <trkpt lat="20.23936" lon="-98.73969333">
        <ele>2027.0</ele>
        <time>2019-10-12T16:46:46.895Z</time>
      </trkpt>
      <trkpt lat="20.23935667" lon="-98.73968167">
        <ele>2027.0</ele>
        <time>2019-10-12T16:46:47.903Z</time>
      </trkpt>
      <trkpt lat="20.23934833" lon="-98.73967167">
        <ele>2027.0</ele>
        <time>2019-10-12T16:46:48.911Z</time>
      </trkpt>
      <trkpt lat="20.23933833" lon="-98.73966667">
        <ele>2028.0</ele>
        <time>2019-10-12T16:46:49.914Z</time>
      </trkpt>
      <trkpt lat="20.23933167" lon="-98.73966333">
        <ele>2029.0</ele>
        <time>2019-10-12T16:46:50.915Z</time>
      </trkpt>
      <trkpt lat="20.23932667" lon="-98.73965833">
        <ele>2029.0</ele>
        <time>2019-10-12T16:46:51.915Z</time>
      </trkpt>
      <trkpt lat="20.23931833" lon="-98.73965167">
        <ele>2029.0</ele>
        <time>2019-10-12T16:46:52.916Z</time>
      </trkpt>
      <trkpt lat="20.23931333" lon="-98.739645">
        <ele>2029.0</ele>
        <time>2019-10-12T16:46:53.917Z</time>
      </trkpt>
      <trkpt lat="20.23930833" lon="-98.73963833">
        <ele>2030.0</ele>
        <time>2019-10-12T16:46:54.921Z</time>
      </trkpt>
      <trkpt lat="20.23930333" lon="-98.73962833">
        <ele>2029.0</ele>
        <time>2019-10-12T16:46:55.928Z</time>
      </trkpt>
      <trkpt lat="20.2393" lon="-98.73961833">
        <ele>2029.0</ele>
        <time>2019-10-12T16:46:56.929Z</time>
      </trkpt>
      <trkpt lat="20.239295" lon="-98.73960667">
        <ele>2028.0</ele>
        <time>2019-10-12T16:46:57.933Z</time>
      </trkpt>
      <trkpt lat="20.23928667" lon="-98.73959667">
        <ele>2028.0</ele>
        <time>2019-10-12T16:46:58.939Z</time>
      </trkpt>
      <trkpt lat="20.23927667" lon="-98.73958333">
        <ele>2028.0</ele>
        <time>2019-10-12T16:46:59.943Z</time>
      </trkpt>
      <trkpt lat="20.23927167" lon="-98.73957333">
        <ele>2029.0</ele>
        <time>2019-10-12T16:47:00.943Z</time>
      </trkpt>
      <trkpt lat="20.23927167" lon="-98.73956667">
        <ele>2029.0</ele>
        <time>2019-10-12T16:47:01.944Z</time>
      </trkpt>
      <trkpt lat="20.23927167" lon="-98.739565">
        <ele>2029.0</ele>
        <time>2019-10-12T16:47:02.951Z</time>
      </trkpt>
      <trkpt lat="20.23926833" lon="-98.73956">
        <ele>2028.0</ele>
        <time>2019-10-12T16:47:03.952Z</time>
      </trkpt>
      <trkpt lat="20.23926333" lon="-98.73955">
        <ele>2027.0</ele>
        <time>2019-10-12T16:47:04.833Z</time>
      </trkpt>
      <trkpt lat="20.23925667" lon="-98.73954667">
        <ele>2027.0</ele>
        <time>2019-10-12T16:47:05.839Z</time>
      </trkpt>
      <trkpt lat="20.23925" lon="-98.73954167">
        <ele>2027.0</ele>
        <time>2019-10-12T16:47:06.846Z</time>
      </trkpt>
      <trkpt lat="20.239245" lon="-98.73953833">
        <ele>2028.0</ele>
        <time>2019-10-12T16:47:07.849Z</time>
      </trkpt>
      <trkpt lat="20.23923833" lon="-98.739535">
        <ele>2028.0</ele>
        <time>2019-10-12T16:47:08.853Z</time>
      </trkpt>
      <trkpt lat="20.23922667" lon="-98.73953167">
        <ele>2028.0</ele>
        <time>2019-10-12T16:47:09.859Z</time>
      </trkpt>
      <trkpt lat="20.23921833" lon="-98.73953">
        <ele>2028.0</ele>
        <time>2019-10-12T16:47:10.861Z</time>
      </trkpt>
      <trkpt lat="20.23921" lon="-98.73952667">
        <ele>2029.0</ele>
        <time>2019-10-12T16:47:11.866Z</time>
      </trkpt>
      <trkpt lat="20.23920333" lon="-98.73952833">
        <ele>2029.0</ele>
        <time>2019-10-12T16:47:12.871Z</time>
      </trkpt>
      <trkpt lat="20.23919667" lon="-98.73952667">
        <ele>2029.0</ele>
        <time>2019-10-12T16:47:13.878Z</time>
      </trkpt>
      <trkpt lat="20.23918833" lon="-98.73952833">
        <ele>2029.0</ele>
        <time>2019-10-12T16:47:14.883Z</time>
      </trkpt>
      <trkpt lat="20.23917667" lon="-98.73952667">
        <ele>2030.0</ele>
        <time>2019-10-12T16:47:15.890Z</time>
      </trkpt>
      <trkpt lat="20.239165" lon="-98.73952333">
        <ele>2030.0</ele>
        <time>2019-10-12T16:47:16.896Z</time>
      </trkpt>
      <trkpt lat="20.23915667" lon="-98.73952167">
        <ele>2030.0</ele>
        <time>2019-10-12T16:47:17.903Z</time>
      </trkpt>
      <trkpt lat="20.23915167" lon="-98.73952">
        <ele>2030.0</ele>
        <time>2019-10-12T16:47:18.908Z</time>
      </trkpt>
      <trkpt lat="20.23914833" lon="-98.739515">
        <ele>2030.0</ele>
        <time>2019-10-12T16:47:19.915Z</time>
      </trkpt>
      <trkpt lat="20.239145" lon="-98.73951167">
        <ele>2031.0</ele>
        <time>2019-10-12T16:47:20.917Z</time>
      </trkpt>
      <trkpt lat="20.23913833" lon="-98.739505">
        <ele>2031.0</ele>
        <time>2019-10-12T16:47:21.922Z</time>
      </trkpt>
      <trkpt lat="20.23913" lon="-98.7395">
        <ele>2032.0</ele>
        <time>2019-10-12T16:47:22.930Z</time>
      </trkpt>
      <trkpt lat="20.23912" lon="-98.73949833">
        <ele>2032.0</ele>
        <time>2019-10-12T16:47:23.935Z</time>
      </trkpt>
      <trkpt lat="20.23911667" lon="-98.73950167">
        <ele>2032.0</ele>
        <time>2019-10-12T16:47:24.941Z</time>
      </trkpt>
      <trkpt lat="20.23911167" lon="-98.739505">
        <ele>2032.0</ele>
        <time>2019-10-12T16:47:25.941Z</time>
      </trkpt>
      <trkpt lat="20.23911167" lon="-98.73950667">
        <ele>2031.0</ele>
        <time>2019-10-12T16:47:26.943Z</time>
      </trkpt>
      <trkpt lat="20.23911" lon="-98.73950833">
        <ele>2032.0</ele>
        <time>2019-10-12T16:47:27.943Z</time>
      </trkpt>
      <trkpt lat="20.23911333" lon="-98.73951">
        <ele>2032.0</ele>
        <time>2019-10-12T16:47:28.950Z</time>
      </trkpt>
      <trkpt lat="20.23911833" lon="-98.73951167">
        <ele>2033.0</ele>
        <time>2019-10-12T16:47:29.832Z</time>
      </trkpt>
      <trkpt lat="20.23912167" lon="-98.73951333">
        <ele>2033.0</ele>
        <time>2019-10-12T16:47:30.838Z</time>
      </trkpt>
      <trkpt lat="20.23912167" lon="-98.73951667">
        <ele>2033.0</ele>
        <time>2019-10-12T16:47:31.843Z</time>
      </trkpt>
      <trkpt lat="20.23912167" lon="-98.73951667">
        <ele>2033.0</ele>
        <time>2019-10-12T16:47:32.851Z</time>
      </trkpt>
      <trkpt lat="20.23912167" lon="-98.73951833">
        <ele>2033.0</ele>
        <time>2019-10-12T16:47:33.855Z</time>
      </trkpt>
      <trkpt lat="20.23912167" lon="-98.73951833">
        <ele>2033.0</ele>
        <time>2019-10-12T16:47:34.863Z</time>
      </trkpt>
      <trkpt lat="20.23912167" lon="-98.73951833">
        <ele>2033.0</ele>
        <time>2019-10-12T16:47:35.870Z</time>
      </trkpt>
      <trkpt lat="20.23912167" lon="-98.73951833">
        <ele>2033.0</ele>
        <time>2019-10-12T16:47:36.874Z</time>
      </trkpt>
      <trkpt lat="20.23912167" lon="-98.73951833">
        <ele>2033.0</ele>
        <time>2019-10-12T16:47:37.878Z</time>
      </trkpt>
      <trkpt lat="20.23912167" lon="-98.73951833">
        <ele>2033.0</ele>
        <time>2019-10-12T16:47:38.882Z</time>
      </trkpt>
      <trkpt lat="20.23912167" lon="-98.73951833">
        <ele>2033.0</ele>
        <time>2019-10-12T16:47:39.888Z</time>
      </trkpt>
      <trkpt lat="20.23912167" lon="-98.73951833">
        <ele>2033.0</ele>
        <time>2019-10-12T16:47:40.891Z</time>
      </trkpt>
      <trkpt lat="20.23912167" lon="-98.73951833">
        <ele>2033.0</ele>
        <time>2019-10-12T16:47:41.898Z</time>
      </trkpt>
      <trkpt lat="20.23912167" lon="-98.73951833">
        <ele>2033.0</ele>
        <time>2019-10-12T16:47:42.905Z</time>
      </trkpt>
      <trkpt lat="20.23912167" lon="-98.73951833">
        <ele>2033.0</ele>
        <time>2019-10-12T16:47:43.907Z</time>
      </trkpt>
      <trkpt lat="20.23912167" lon="-98.73951833">
        <ele>2033.0</ele>
        <time>2019-10-12T16:47:44.914Z</time>
      </trkpt>
      <trkpt lat="20.23912167" lon="-98.73951833">
        <ele>2033.0</ele>
        <time>2019-10-12T16:47:45.921Z</time>
      </trkpt>
      <trkpt lat="20.23912167" lon="-98.73951833">
        <ele>2033.0</ele>
        <time>2019-10-12T16:47:46.928Z</time>
      </trkpt>
      <trkpt lat="20.23912167" lon="-98.73951833">
        <ele>2033.0</ele>
        <time>2019-10-12T16:47:47.935Z</time>
      </trkpt>
      <trkpt lat="20.23912167" lon="-98.73951833">
        <ele>2033.0</ele>
        <time>2019-10-12T16:47:48.942Z</time>
      </trkpt>
      <trkpt lat="20.23912167" lon="-98.73951833">
        <ele>2033.0</ele>
        <time>2019-10-12T16:47:49.942Z</time>
      </trkpt>
      <trkpt lat="20.23912167" lon="-98.73951833">
        <ele>2034.0</ele>
        <time>2019-10-12T16:47:50.942Z</time>
      </trkpt>
      <trkpt lat="20.23912167" lon="-98.73951833">
        <ele>2034.0</ele>
        <time>2019-10-12T16:47:51.949Z</time>
      </trkpt>
      <trkpt lat="20.23912167" lon="-98.73951833">
        <ele>2034.0</ele>
        <time>2019-10-12T16:47:52.830Z</time>
      </trkpt>
      <trkpt lat="20.23912167" lon="-98.73951833">
        <ele>2034.0</ele>
        <time>2019-10-12T16:47:53.836Z</time>
      </trkpt>
      <trkpt lat="20.23912167" lon="-98.73951833">
        <ele>2034.0</ele>
        <time>2019-10-12T16:47:54.837Z</time>
      </trkpt>
      <trkpt lat="20.23912167" lon="-98.73951833">
        <ele>2034.0</ele>
        <time>2019-10-12T16:47:55.838Z</time>
      </trkpt>
      <trkpt lat="20.23912167" lon="-98.73951833">
        <ele>2034.0</ele>
        <time>2019-10-12T16:47:56.838Z</time>
      </trkpt>
      <trkpt lat="20.23912167" lon="-98.73951833">
        <ele>2034.0</ele>
        <time>2019-10-12T16:47:57.839Z</time>
      </trkpt>
      <trkpt lat="20.23912167" lon="-98.73951833">
        <ele>2034.0</ele>
        <time>2019-10-12T16:47:58.839Z</time>
      </trkpt>
      <trkpt lat="20.23912333" lon="-98.73952">
        <ele>2034.0</ele>
        <time>2019-10-12T16:47:59.840Z</time>
      </trkpt>
      <trkpt lat="20.23912333" lon="-98.73952">
        <ele>2034.0</ele>
        <time>2019-10-12T16:48:00.841Z</time>
      </trkpt>
      <trkpt lat="20.23912333" lon="-98.73952">
        <ele>2034.0</ele>
        <time>2019-10-12T16:48:01.842Z</time>
      </trkpt>
      <trkpt lat="20.23912333" lon="-98.73952">
        <ele>2034.0</ele>
        <time>2019-10-12T16:48:02.843Z</time>
      </trkpt>
      <trkpt lat="20.23912333" lon="-98.73952">
        <ele>2034.0</ele>
        <time>2019-10-12T16:48:03.843Z</time>
      </trkpt>
      <trkpt lat="20.23912" lon="-98.73951667">
        <ele>2034.0</ele>
        <time>2019-10-12T16:48:04.844Z</time>
      </trkpt>
      <trkpt lat="20.23911" lon="-98.739505">
        <ele>2034.0</ele>
        <time>2019-10-12T16:48:05.845Z</time>
      </trkpt>
      <trkpt lat="20.23910333" lon="-98.73949167">
        <ele>2034.0</ele>
        <time>2019-10-12T16:48:06.846Z</time>
      </trkpt>
      <trkpt lat="20.23909833" lon="-98.73947833">
        <ele>2035.0</ele>
        <time>2019-10-12T16:48:07.847Z</time>
      </trkpt>
      <trkpt lat="20.23909333" lon="-98.739465">
        <ele>2035.0</ele>
        <time>2019-10-12T16:48:08.848Z</time>
      </trkpt>
      <trkpt lat="20.23908667" lon="-98.73945167">
        <ele>2035.0</ele>
        <time>2019-10-12T16:48:09.848Z</time>
      </trkpt>
      <trkpt lat="20.23908167" lon="-98.73944167">
        <ele>2035.0</ele>
        <time>2019-10-12T16:48:10.849Z</time>
      </trkpt>
      <trkpt lat="20.23907667" lon="-98.73943167">
        <ele>2035.0</ele>
        <time>2019-10-12T16:48:11.849Z</time>
      </trkpt>
      <trkpt lat="20.23907167" lon="-98.73941833">
        <ele>2035.0</ele>
        <time>2019-10-12T16:48:12.849Z</time>
      </trkpt>
      <trkpt lat="20.23906833" lon="-98.73940833">
        <ele>2036.0</ele>
        <time>2019-10-12T16:48:13.849Z</time>
      </trkpt>
      <trkpt lat="20.23907167" lon="-98.739405">
        <ele>2036.0</ele>
        <time>2019-10-12T16:48:14.851Z</time>
      </trkpt>
      <trkpt lat="20.23907333" lon="-98.73940333">
        <ele>2037.0</ele>
        <time>2019-10-12T16:48:15.857Z</time>
      </trkpt>
      <trkpt lat="20.23907333" lon="-98.73940167">
        <ele>2036.0</ele>
        <time>2019-10-12T16:48:16.858Z</time>
      </trkpt>
      <trkpt lat="20.23907" lon="-98.7394">
        <ele>2036.0</ele>
        <time>2019-10-12T16:48:17.862Z</time>
      </trkpt>
      <trkpt lat="20.23906833" lon="-98.73939667">
        <ele>2035.0</ele>
        <time>2019-10-12T16:48:18.868Z</time>
      </trkpt>
      <trkpt lat="20.23906833" lon="-98.73939167">
        <ele>2036.0</ele>
        <time>2019-10-12T16:48:19.873Z</time>
      </trkpt>
      <trkpt lat="20.23907" lon="-98.73938333">
        <ele>2036.0</ele>
        <time>2019-10-12T16:48:20.873Z</time>
      </trkpt>
      <trkpt lat="20.23907" lon="-98.73937167">
        <ele>2036.0</ele>
        <time>2019-10-12T16:48:21.873Z</time>
      </trkpt>
      <trkpt lat="20.23907" lon="-98.73936333">
        <ele>2036.0</ele>
        <time>2019-10-12T16:48:22.873Z</time>
      </trkpt>
      <trkpt lat="20.23906667" lon="-98.73935333">
        <ele>2037.0</ele>
        <time>2019-10-12T16:48:23.880Z</time>
      </trkpt>
      <trkpt lat="20.23906667" lon="-98.73934167">
        <ele>2037.0</ele>
        <time>2019-10-12T16:48:24.882Z</time>
      </trkpt>
      <trkpt lat="20.239065" lon="-98.73933">
        <ele>2038.0</ele>
        <time>2019-10-12T16:48:25.883Z</time>
      </trkpt>
      <trkpt lat="20.23906" lon="-98.73932333">
        <ele>2038.0</ele>
        <time>2019-10-12T16:48:26.892Z</time>
      </trkpt>
      <trkpt lat="20.23905833" lon="-98.73931333">
        <ele>2037.0</ele>
        <time>2019-10-12T16:48:27.898Z</time>
      </trkpt>
      <trkpt lat="20.23906" lon="-98.739305">
        <ele>2038.0</ele>
        <time>2019-10-12T16:48:28.900Z</time>
      </trkpt>
      <trkpt lat="20.23905833" lon="-98.739295">
        <ele>2039.0</ele>
        <time>2019-10-12T16:48:29.907Z</time>
      </trkpt>
      <trkpt lat="20.239055" lon="-98.73928333">
        <ele>2039.0</ele>
        <time>2019-10-12T16:48:30.914Z</time>
      </trkpt>
      <trkpt lat="20.23905167" lon="-98.73927333">
        <ele>2039.0</ele>
        <time>2019-10-12T16:48:31.917Z</time>
      </trkpt>
      <trkpt lat="20.23904833" lon="-98.73926667">
        <ele>2039.0</ele>
        <time>2019-10-12T16:48:32.917Z</time>
      </trkpt>
      <trkpt lat="20.23904333" lon="-98.73926">
        <ele>2039.0</ele>
        <time>2019-10-12T16:48:33.917Z</time>
      </trkpt>
      <trkpt lat="20.23903833" lon="-98.73925167">
        <ele>2040.0</ele>
        <time>2019-10-12T16:48:34.920Z</time>
      </trkpt>
      <trkpt lat="20.23902833" lon="-98.73924667">
        <ele>2040.0</ele>
        <time>2019-10-12T16:48:35.921Z</time>
      </trkpt>
      <trkpt lat="20.23902333" lon="-98.73924">
        <ele>2040.0</ele>
        <time>2019-10-12T16:48:36.926Z</time>
      </trkpt>
      <trkpt lat="20.239015" lon="-98.739235">
        <ele>2040.0</ele>
        <time>2019-10-12T16:48:37.933Z</time>
      </trkpt>
      <trkpt lat="20.23901" lon="-98.73923167">
        <ele>2041.0</ele>
        <time>2019-10-12T16:48:38.940Z</time>
      </trkpt>
      <trkpt lat="20.23899667" lon="-98.73922833">
        <ele>2041.0</ele>
        <time>2019-10-12T16:48:39.942Z</time>
      </trkpt>
      <trkpt lat="20.23898833" lon="-98.739235">
        <ele>2041.0</ele>
        <time>2019-10-12T16:48:40.944Z</time>
      </trkpt>
      <trkpt lat="20.23897833" lon="-98.73923333">
        <ele>2041.0</ele>
        <time>2019-10-12T16:48:41.944Z</time>
      </trkpt>
      <trkpt lat="20.238965" lon="-98.73922667">
        <ele>2041.0</ele>
        <time>2019-10-12T16:48:42.945Z</time>
      </trkpt>
      <trkpt lat="20.23894667" lon="-98.73922">
        <ele>2041.0</ele>
        <time>2019-10-12T16:48:43.949Z</time>
      </trkpt>
      <trkpt lat="20.23893" lon="-98.73921333">
        <ele>2041.0</ele>
        <time>2019-10-12T16:48:44.830Z</time>
      </trkpt>
      <trkpt lat="20.23891667" lon="-98.73920667">
        <ele>2040.0</ele>
        <time>2019-10-12T16:48:45.835Z</time>
      </trkpt>
      <trkpt lat="20.23890167" lon="-98.7392">
        <ele>2040.0</ele>
        <time>2019-10-12T16:48:46.841Z</time>
      </trkpt>
      <trkpt lat="20.23889167" lon="-98.73920167">
        <ele>2041.0</ele>
        <time>2019-10-12T16:48:47.845Z</time>
      </trkpt>
      <trkpt lat="20.23887833" lon="-98.73919833">
        <ele>2040.0</ele>
        <time>2019-10-12T16:48:48.850Z</time>
      </trkpt>
      <trkpt lat="20.23886333" lon="-98.73919333">
        <ele>2040.0</ele>
        <time>2019-10-12T16:48:49.856Z</time>
      </trkpt>
      <trkpt lat="20.238855" lon="-98.73919">
        <ele>2040.0</ele>
        <time>2019-10-12T16:48:50.861Z</time>
      </trkpt>
      <trkpt lat="20.23884333" lon="-98.73918167">
        <ele>2040.0</ele>
        <time>2019-10-12T16:48:51.868Z</time>
      </trkpt>
      <trkpt lat="20.23883667" lon="-98.73917333">
        <ele>2041.0</ele>
        <time>2019-10-12T16:48:52.869Z</time>
      </trkpt>
      <trkpt lat="20.23882833" lon="-98.73916667">
        <ele>2042.0</ele>
        <time>2019-10-12T16:48:53.870Z</time>
      </trkpt>
      <trkpt lat="20.23882" lon="-98.73916">
        <ele>2042.0</ele>
        <time>2019-10-12T16:48:54.870Z</time>
      </trkpt>
      <trkpt lat="20.23881333" lon="-98.73915333">
        <ele>2043.0</ele>
        <time>2019-10-12T16:48:55.870Z</time>
      </trkpt>
      <trkpt lat="20.238805" lon="-98.73914667">
        <ele>2043.0</ele>
        <time>2019-10-12T16:48:56.871Z</time>
      </trkpt>
      <trkpt lat="20.23879667" lon="-98.73913833">
        <ele>2044.0</ele>
        <time>2019-10-12T16:48:57.872Z</time>
      </trkpt>
      <trkpt lat="20.23878833" lon="-98.73913">
        <ele>2044.0</ele>
        <time>2019-10-12T16:48:58.873Z</time>
      </trkpt>
      <trkpt lat="20.23878167" lon="-98.73912167">
        <ele>2044.0</ele>
        <time>2019-10-12T16:48:59.874Z</time>
      </trkpt>
      <trkpt lat="20.23877833" lon="-98.73911333">
        <ele>2045.0</ele>
        <time>2019-10-12T16:49:00.874Z</time>
      </trkpt>
      <trkpt lat="20.238775" lon="-98.73910333">
        <ele>2045.0</ele>
        <time>2019-10-12T16:49:01.875Z</time>
      </trkpt>
      <trkpt lat="20.23877667" lon="-98.73909333">
        <ele>2046.0</ele>
        <time>2019-10-12T16:49:02.875Z</time>
      </trkpt>
      <trkpt lat="20.23877333" lon="-98.73908167">
        <ele>2046.0</ele>
        <time>2019-10-12T16:49:03.876Z</time>
      </trkpt>
      <trkpt lat="20.23877167" lon="-98.73907">
        <ele>2046.0</ele>
        <time>2019-10-12T16:49:04.876Z</time>
      </trkpt>
      <trkpt lat="20.23877" lon="-98.73906167">
        <ele>2046.0</ele>
        <time>2019-10-12T16:49:05.877Z</time>
      </trkpt>
      <trkpt lat="20.23876667" lon="-98.73905167">
        <ele>2046.0</ele>
        <time>2019-10-12T16:49:06.878Z</time>
      </trkpt>
      <trkpt lat="20.23876333" lon="-98.73904333">
        <ele>2046.0</ele>
        <time>2019-10-12T16:49:07.879Z</time>
      </trkpt>
      <trkpt lat="20.23876167" lon="-98.73903333">
        <ele>2046.0</ele>
        <time>2019-10-12T16:49:08.880Z</time>
      </trkpt>
      <trkpt lat="20.23876" lon="-98.73902333">
        <ele>2046.0</ele>
        <time>2019-10-12T16:49:09.880Z</time>
      </trkpt>
      <trkpt lat="20.23876" lon="-98.73901667">
        <ele>2047.0</ele>
        <time>2019-10-12T16:49:10.880Z</time>
      </trkpt>
      <trkpt lat="20.23875667" lon="-98.73900833">
        <ele>2047.0</ele>
        <time>2019-10-12T16:49:11.880Z</time>
      </trkpt>
      <trkpt lat="20.23875333" lon="-98.73900333">
        <ele>2048.0</ele>
        <time>2019-10-12T16:49:12.880Z</time>
      </trkpt>
      <trkpt lat="20.23875" lon="-98.73899667">
        <ele>2048.0</ele>
        <time>2019-10-12T16:49:13.880Z</time>
      </trkpt>
      <trkpt lat="20.23874833" lon="-98.73899167">
        <ele>2049.0</ele>
        <time>2019-10-12T16:49:14.881Z</time>
      </trkpt>
      <trkpt lat="20.23874333" lon="-98.73899">
        <ele>2050.0</ele>
        <time>2019-10-12T16:49:15.881Z</time>
      </trkpt>
      <trkpt lat="20.23873667" lon="-98.73898167">
        <ele>2049.0</ele>
        <time>2019-10-12T16:49:16.882Z</time>
      </trkpt>
      <trkpt lat="20.23873333" lon="-98.73897667">
        <ele>2049.0</ele>
        <time>2019-10-12T16:49:17.882Z</time>
      </trkpt>
      <trkpt lat="20.23872833" lon="-98.73897167">
        <ele>2049.0</ele>
        <time>2019-10-12T16:49:18.883Z</time>
      </trkpt>
      <trkpt lat="20.23872333" lon="-98.73896667">
        <ele>2050.0</ele>
        <time>2019-10-12T16:49:19.883Z</time>
      </trkpt>
      <trkpt lat="20.23871667" lon="-98.73895833">
        <ele>2050.0</ele>
        <time>2019-10-12T16:49:20.884Z</time>
      </trkpt>
      <trkpt lat="20.23871167" lon="-98.73895333">
        <ele>2050.0</ele>
        <time>2019-10-12T16:49:21.884Z</time>
      </trkpt>
      <trkpt lat="20.23870333" lon="-98.73895">
        <ele>2051.0</ele>
        <time>2019-10-12T16:49:22.885Z</time>
      </trkpt>
      <trkpt lat="20.238695" lon="-98.73894833">
        <ele>2051.0</ele>
        <time>2019-10-12T16:49:23.886Z</time>
      </trkpt>
      <trkpt lat="20.23868833" lon="-98.738945">
        <ele>2051.0</ele>
        <time>2019-10-12T16:49:24.886Z</time>
      </trkpt>
      <trkpt lat="20.23868167" lon="-98.73894167">
        <ele>2051.0</ele>
        <time>2019-10-12T16:49:25.886Z</time>
      </trkpt>
      <trkpt lat="20.23867333" lon="-98.73894">
        <ele>2052.0</ele>
        <time>2019-10-12T16:49:26.886Z</time>
      </trkpt>
      <trkpt lat="20.23866333" lon="-98.73894">
        <ele>2052.0</ele>
        <time>2019-10-12T16:49:27.887Z</time>
      </trkpt>
      <trkpt lat="20.238655" lon="-98.73893667">
        <ele>2052.0</ele>
        <time>2019-10-12T16:49:28.888Z</time>
      </trkpt>
      <trkpt lat="20.23864667" lon="-98.73893333">
        <ele>2052.0</ele>
        <time>2019-10-12T16:49:29.889Z</time>
      </trkpt>
      <trkpt lat="20.23864167" lon="-98.73893333">
        <ele>2052.0</ele>
        <time>2019-10-12T16:49:30.893Z</time>
      </trkpt>
      <trkpt lat="20.238635" lon="-98.73893">
        <ele>2052.0</ele>
        <time>2019-10-12T16:49:31.900Z</time>
      </trkpt>
      <trkpt lat="20.23862667" lon="-98.73892833">
        <ele>2053.0</ele>
        <time>2019-10-12T16:49:32.906Z</time>
      </trkpt>
      <trkpt lat="20.23862" lon="-98.73892833">
        <ele>2053.0</ele>
        <time>2019-10-12T16:49:33.910Z</time>
      </trkpt>
      <trkpt lat="20.23861" lon="-98.73892667">
        <ele>2053.0</ele>
        <time>2019-10-12T16:49:34.913Z</time>
      </trkpt>
      <trkpt lat="20.2386" lon="-98.738925">
        <ele>2053.0</ele>
        <time>2019-10-12T16:49:35.915Z</time>
      </trkpt>
      <trkpt lat="20.23859167" lon="-98.73892167">
        <ele>2053.0</ele>
        <time>2019-10-12T16:49:36.922Z</time>
      </trkpt>
      <trkpt lat="20.23858667" lon="-98.73892">
        <ele>2054.0</ele>
        <time>2019-10-12T16:49:37.925Z</time>
      </trkpt>
      <trkpt lat="20.23857667" lon="-98.73891833">
        <ele>2054.0</ele>
        <time>2019-10-12T16:49:38.932Z</time>
      </trkpt>
      <trkpt lat="20.23856833" lon="-98.73891333">
        <ele>2054.0</ele>
        <time>2019-10-12T16:49:39.934Z</time>
      </trkpt>
      <trkpt lat="20.23855833" lon="-98.73890833">
        <ele>2055.0</ele>
        <time>2019-10-12T16:49:40.940Z</time>
      </trkpt>
      <trkpt lat="20.23855" lon="-98.73890333">
        <ele>2055.0</ele>
        <time>2019-10-12T16:49:41.948Z</time>
      </trkpt>
      <trkpt lat="20.23854333" lon="-98.7389">
        <ele>2055.0</ele>
        <time>2019-10-12T16:49:42.955Z</time>
      </trkpt>
      <trkpt lat="20.238535" lon="-98.738895">
        <ele>2055.0</ele>
        <time>2019-10-12T16:49:43.835Z</time>
      </trkpt>
      <trkpt lat="20.23853167" lon="-98.73889">
        <ele>2055.0</ele>
        <time>2019-10-12T16:49:44.836Z</time>
      </trkpt>
      <trkpt lat="20.23852833" lon="-98.73888333">
        <ele>2056.0</ele>
        <time>2019-10-12T16:49:45.837Z</time>
      </trkpt>
      <trkpt lat="20.238525" lon="-98.73887333">
        <ele>2056.0</ele>
        <time>2019-10-12T16:49:46.842Z</time>
      </trkpt>
      <trkpt lat="20.23852333" lon="-98.73886333">
        <ele>2056.0</ele>
        <time>2019-10-12T16:49:47.847Z</time>
      </trkpt>
      <trkpt lat="20.23852333" lon="-98.738855">
        <ele>2056.0</ele>
        <time>2019-10-12T16:49:48.850Z</time>
      </trkpt>
      <trkpt lat="20.23852167" lon="-98.73884667">
        <ele>2057.0</ele>
        <time>2019-10-12T16:49:49.857Z</time>
      </trkpt>
      <trkpt lat="20.23852333" lon="-98.73883667">
        <ele>2057.0</ele>
        <time>2019-10-12T16:49:50.863Z</time>
      </trkpt>
      <trkpt lat="20.23852667" lon="-98.73882667">
        <ele>2057.0</ele>
        <time>2019-10-12T16:49:51.868Z</time>
      </trkpt>
      <trkpt lat="20.23853167" lon="-98.738815">
        <ele>2057.0</ele>
        <time>2019-10-12T16:49:52.873Z</time>
      </trkpt>
      <trkpt lat="20.23853667" lon="-98.73880667">
        <ele>2057.0</ele>
        <time>2019-10-12T16:49:53.877Z</time>
      </trkpt>
      <trkpt lat="20.23853667" lon="-98.7388">
        <ele>2057.0</ele>
        <time>2019-10-12T16:49:54.880Z</time>
      </trkpt>
      <trkpt lat="20.23853833" lon="-98.73879">
        <ele>2057.0</ele>
        <time>2019-10-12T16:49:55.882Z</time>
      </trkpt>
      <trkpt lat="20.23854" lon="-98.73877833">
        <ele>2058.0</ele>
        <time>2019-10-12T16:49:56.889Z</time>
      </trkpt>
      <trkpt lat="20.23854167" lon="-98.73876667">
        <ele>2058.0</ele>
        <time>2019-10-12T16:49:57.895Z</time>
      </trkpt>
      <trkpt lat="20.23854333" lon="-98.73875833">
        <ele>2058.0</ele>
        <time>2019-10-12T16:49:58.902Z</time>
      </trkpt>
      <trkpt lat="20.23854667" lon="-98.73874833">
        <ele>2058.0</ele>
        <time>2019-10-12T16:49:59.909Z</time>
      </trkpt>
      <trkpt lat="20.238545" lon="-98.73874167">
        <ele>2059.0</ele>
        <time>2019-10-12T16:50:00.911Z</time>
      </trkpt>
      <trkpt lat="20.238545" lon="-98.73873333">
        <ele>2059.0</ele>
        <time>2019-10-12T16:50:01.911Z</time>
      </trkpt>
      <trkpt lat="20.23854667" lon="-98.73872333">
        <ele>2059.0</ele>
        <time>2019-10-12T16:50:02.912Z</time>
      </trkpt>
      <trkpt lat="20.23854833" lon="-98.738715">
        <ele>2059.0</ele>
        <time>2019-10-12T16:50:03.913Z</time>
      </trkpt>
      <trkpt lat="20.23854833" lon="-98.73870667">
        <ele>2059.0</ele>
        <time>2019-10-12T16:50:04.914Z</time>
      </trkpt>
      <trkpt lat="20.23855" lon="-98.73869833">
        <ele>2059.0</ele>
        <time>2019-10-12T16:50:05.914Z</time>
      </trkpt>
      <trkpt lat="20.23855" lon="-98.73868833">
        <ele>2059.0</ele>
        <time>2019-10-12T16:50:06.915Z</time>
      </trkpt>
      <trkpt lat="20.23854833" lon="-98.73868167">
        <ele>2059.0</ele>
        <time>2019-10-12T16:50:07.919Z</time>
      </trkpt>
      <trkpt lat="20.238545" lon="-98.73867333">
        <ele>2059.0</ele>
        <time>2019-10-12T16:50:08.925Z</time>
      </trkpt>
      <trkpt lat="20.23854" lon="-98.738665">
        <ele>2059.0</ele>
        <time>2019-10-12T16:50:09.932Z</time>
      </trkpt>
      <trkpt lat="20.23853667" lon="-98.73865667">
        <ele>2058.0</ele>
        <time>2019-10-12T16:50:10.932Z</time>
      </trkpt>
      <trkpt lat="20.23852833" lon="-98.73864667">
        <ele>2059.0</ele>
        <time>2019-10-12T16:50:11.934Z</time>
      </trkpt>
      <trkpt lat="20.23852167" lon="-98.73863667">
        <ele>2059.0</ele>
        <time>2019-10-12T16:50:12.937Z</time>
      </trkpt>
      <trkpt lat="20.23851667" lon="-98.73863">
        <ele>2058.0</ele>
        <time>2019-10-12T16:50:13.940Z</time>
      </trkpt>
      <trkpt lat="20.23850833" lon="-98.738625">
        <ele>2058.0</ele>
        <time>2019-10-12T16:50:14.946Z</time>
      </trkpt>
      <trkpt lat="20.23850167" lon="-98.73862167">
        <ele>2058.0</ele>
        <time>2019-10-12T16:50:15.953Z</time>
      </trkpt>
      <trkpt lat="20.23849333" lon="-98.73861833">
        <ele>2058.0</ele>
        <time>2019-10-12T16:50:16.835Z</time>
      </trkpt>
      <trkpt lat="20.23848667" lon="-98.73861667">
        <ele>2058.0</ele>
        <time>2019-10-12T16:50:17.838Z</time>
      </trkpt>
      <trkpt lat="20.23848" lon="-98.738615">
        <ele>2058.0</ele>
        <time>2019-10-12T16:50:18.841Z</time>
      </trkpt>
      <trkpt lat="20.23846833" lon="-98.738615">
        <ele>2057.0</ele>
        <time>2019-10-12T16:50:19.847Z</time>
      </trkpt>
      <trkpt lat="20.23845833" lon="-98.73861667">
        <ele>2057.0</ele>
        <time>2019-10-12T16:50:20.853Z</time>
      </trkpt>
      <trkpt lat="20.23845167" lon="-98.73862167">
        <ele>2057.0</ele>
        <time>2019-10-12T16:50:21.859Z</time>
      </trkpt>
      <trkpt lat="20.238445" lon="-98.738625">
        <ele>2057.0</ele>
        <time>2019-10-12T16:50:22.863Z</time>
      </trkpt>
      <trkpt lat="20.238435" lon="-98.738625">
        <ele>2057.0</ele>
        <time>2019-10-12T16:50:23.864Z</time>
      </trkpt>
      <trkpt lat="20.238425" lon="-98.738625">
        <ele>2057.0</ele>
        <time>2019-10-12T16:50:24.865Z</time>
      </trkpt>
      <trkpt lat="20.23841333" lon="-98.73862167">
        <ele>2057.0</ele>
        <time>2019-10-12T16:50:25.865Z</time>
      </trkpt>
      <trkpt lat="20.23840333" lon="-98.73861833">
        <ele>2057.0</ele>
        <time>2019-10-12T16:50:26.866Z</time>
      </trkpt>
      <trkpt lat="20.23839167" lon="-98.73861667">
        <ele>2057.0</ele>
        <time>2019-10-12T16:50:27.867Z</time>
      </trkpt>
      <trkpt lat="20.23838333" lon="-98.73861">
        <ele>2058.0</ele>
        <time>2019-10-12T16:50:28.868Z</time>
      </trkpt>
      <trkpt lat="20.23837333" lon="-98.73860167">
        <ele>2058.0</ele>
        <time>2019-10-12T16:50:29.869Z</time>
      </trkpt>
      <trkpt lat="20.23836333" lon="-98.738595">
        <ele>2059.0</ele>
        <time>2019-10-12T16:50:30.869Z</time>
      </trkpt>
      <trkpt lat="20.23836167" lon="-98.738585">
        <ele>2059.0</ele>
        <time>2019-10-12T16:50:31.869Z</time>
      </trkpt>
      <trkpt lat="20.23836" lon="-98.738575">
        <ele>2060.0</ele>
        <time>2019-10-12T16:50:32.876Z</time>
      </trkpt>
      <trkpt lat="20.238355" lon="-98.73856333">
        <ele>2061.0</ele>
        <time>2019-10-12T16:50:33.879Z</time>
      </trkpt>
      <trkpt lat="20.23834833" lon="-98.73855167">
        <ele>2061.0</ele>
        <time>2019-10-12T16:50:34.881Z</time>
      </trkpt>
      <trkpt lat="20.23834833" lon="-98.73854333">
        <ele>2061.0</ele>
        <time>2019-10-12T16:50:35.888Z</time>
      </trkpt>
      <trkpt lat="20.23835167" lon="-98.73853167">
        <ele>2061.0</ele>
        <time>2019-10-12T16:50:36.891Z</time>
      </trkpt>
      <trkpt lat="20.23835167" lon="-98.73852">
        <ele>2062.0</ele>
        <time>2019-10-12T16:50:37.893Z</time>
      </trkpt>
      <trkpt lat="20.238355" lon="-98.73851">
        <ele>2062.0</ele>
        <time>2019-10-12T16:50:38.895Z</time>
      </trkpt>
      <trkpt lat="20.23836167" lon="-98.73849667">
        <ele>2061.0</ele>
        <time>2019-10-12T16:50:39.897Z</time>
      </trkpt>
      <trkpt lat="20.23836667" lon="-98.73848667">
        <ele>2062.0</ele>
        <time>2019-10-12T16:50:40.904Z</time>
      </trkpt>
      <trkpt lat="20.23837333" lon="-98.73847667">
        <ele>2062.0</ele>
        <time>2019-10-12T16:50:41.911Z</time>
      </trkpt>
      <trkpt lat="20.23838167" lon="-98.73846833">
        <ele>2063.0</ele>
        <time>2019-10-12T16:50:42.917Z</time>
      </trkpt>
      <trkpt lat="20.23838833" lon="-98.73846">
        <ele>2063.0</ele>
        <time>2019-10-12T16:50:43.922Z</time>
      </trkpt>
      <trkpt lat="20.23839667" lon="-98.73845">
        <ele>2063.0</ele>
        <time>2019-10-12T16:50:44.923Z</time>
      </trkpt>
      <trkpt lat="20.23840167" lon="-98.73844333">
        <ele>2064.0</ele>
        <time>2019-10-12T16:50:45.930Z</time>
      </trkpt>
      <trkpt lat="20.23840667" lon="-98.73843833">
        <ele>2064.0</ele>
        <time>2019-10-12T16:50:46.936Z</time>
      </trkpt>
      <trkpt lat="20.23841667" lon="-98.73843333">
        <ele>2063.0</ele>
        <time>2019-10-12T16:50:47.940Z</time>
      </trkpt>
      <trkpt lat="20.238425" lon="-98.73843">
        <ele>2064.0</ele>
        <time>2019-10-12T16:50:48.941Z</time>
      </trkpt>
      <trkpt lat="20.23843333" lon="-98.738425">
        <ele>2064.0</ele>
        <time>2019-10-12T16:50:49.942Z</time>
      </trkpt>
      <trkpt lat="20.23843833" lon="-98.73841833">
        <ele>2064.0</ele>
        <time>2019-10-12T16:50:50.942Z</time>
      </trkpt>
      <trkpt lat="20.23844167" lon="-98.73841">
        <ele>2063.0</ele>
        <time>2019-10-12T16:50:51.943Z</time>
      </trkpt>
      <trkpt lat="20.23844" lon="-98.7384">
        <ele>2063.0</ele>
        <time>2019-10-12T16:50:52.943Z</time>
      </trkpt>
      <trkpt lat="20.23843833" lon="-98.73839167">
        <ele>2063.0</ele>
        <time>2019-10-12T16:50:53.944Z</time>
      </trkpt>
      <trkpt lat="20.238435" lon="-98.73838333">
        <ele>2064.0</ele>
        <time>2019-10-12T16:50:54.948Z</time>
      </trkpt>
      <trkpt lat="20.23843333" lon="-98.73837167">
        <ele>2064.0</ele>
        <time>2019-10-12T16:50:55.955Z</time>
      </trkpt>
      <trkpt lat="20.23843333" lon="-98.73836">
        <ele>2064.0</ele>
        <time>2019-10-12T16:50:56.836Z</time>
      </trkpt>
      <trkpt lat="20.23843333" lon="-98.73835">
        <ele>2064.0</ele>
        <time>2019-10-12T16:50:57.840Z</time>
      </trkpt>
      <trkpt lat="20.23843167" lon="-98.73834333">
        <ele>2064.0</ele>
        <time>2019-10-12T16:50:58.844Z</time>
      </trkpt>
      <trkpt lat="20.23842833" lon="-98.738335">
        <ele>2065.0</ele>
        <time>2019-10-12T16:50:59.845Z</time>
      </trkpt>
      <trkpt lat="20.23842667" lon="-98.73832667">
        <ele>2065.0</ele>
        <time>2019-10-12T16:51:00.846Z</time>
      </trkpt>
      <trkpt lat="20.23842333" lon="-98.738315">
        <ele>2065.0</ele>
        <time>2019-10-12T16:51:01.853Z</time>
      </trkpt>
      <trkpt lat="20.23842" lon="-98.738305">
        <ele>2065.0</ele>
        <time>2019-10-12T16:51:02.860Z</time>
      </trkpt>
      <trkpt lat="20.23841833" lon="-98.73829667">
        <ele>2065.0</ele>
        <time>2019-10-12T16:51:03.866Z</time>
      </trkpt>
      <trkpt lat="20.23841833" lon="-98.73828667">
        <ele>2065.0</ele>
        <time>2019-10-12T16:51:04.872Z</time>
      </trkpt>
      <trkpt lat="20.238415" lon="-98.73828">
        <ele>2065.0</ele>
        <time>2019-10-12T16:51:05.876Z</time>
      </trkpt>
      <trkpt lat="20.23841" lon="-98.738275">
        <ele>2065.0</ele>
        <time>2019-10-12T16:51:06.881Z</time>
      </trkpt>
      <trkpt lat="20.23840667" lon="-98.738265">
        <ele>2066.0</ele>
        <time>2019-10-12T16:51:07.888Z</time>
      </trkpt>
      <trkpt lat="20.2384" lon="-98.738255">
        <ele>2066.0</ele>
        <time>2019-10-12T16:51:08.893Z</time>
      </trkpt>
      <trkpt lat="20.23839667" lon="-98.73824667">
        <ele>2067.0</ele>
        <time>2019-10-12T16:51:09.894Z</time>
      </trkpt>
      <trkpt lat="20.23839667" lon="-98.73823667">
        <ele>2067.0</ele>
        <time>2019-10-12T16:51:10.895Z</time>
      </trkpt>
      <trkpt lat="20.238395" lon="-98.73822833">
        <ele>2067.0</ele>
        <time>2019-10-12T16:51:11.899Z</time>
      </trkpt>
      <trkpt lat="20.238395" lon="-98.73821833">
        <ele>2067.0</ele>
        <time>2019-10-12T16:51:12.907Z</time>
      </trkpt>
      <trkpt lat="20.23839333" lon="-98.73820667">
        <ele>2067.0</ele>
        <time>2019-10-12T16:51:13.913Z</time>
      </trkpt>
      <trkpt lat="20.23839167" lon="-98.73819833">
        <ele>2067.0</ele>
        <time>2019-10-12T16:51:14.915Z</time>
      </trkpt>
      <trkpt lat="20.23838833" lon="-98.73819333">
        <ele>2068.0</ele>
        <time>2019-10-12T16:51:15.920Z</time>
      </trkpt>
      <trkpt lat="20.23838333" lon="-98.73818667">
        <ele>2068.0</ele>
        <time>2019-10-12T16:51:16.925Z</time>
      </trkpt>
      <trkpt lat="20.23838" lon="-98.73817833">
        <ele>2069.0</ele>
        <time>2019-10-12T16:51:17.932Z</time>
      </trkpt>
      <trkpt lat="20.23837667" lon="-98.73817">
        <ele>2069.0</ele>
        <time>2019-10-12T16:51:18.935Z</time>
      </trkpt>
      <trkpt lat="20.23837167" lon="-98.73816">
        <ele>2069.0</ele>
        <time>2019-10-12T16:51:19.941Z</time>
      </trkpt>
      <trkpt lat="20.23836667" lon="-98.738145">
        <ele>2069.0</ele>
        <time>2019-10-12T16:51:20.948Z</time>
      </trkpt>
      <trkpt lat="20.23836333" lon="-98.73813667">
        <ele>2070.0</ele>
        <time>2019-10-12T16:51:21.952Z</time>
      </trkpt>
      <trkpt lat="20.23835667" lon="-98.73812333">
        <ele>2069.0</ele>
        <time>2019-10-12T16:51:22.833Z</time>
      </trkpt>
      <trkpt lat="20.23835167" lon="-98.738115">
        <ele>2069.0</ele>
        <time>2019-10-12T16:51:23.838Z</time>
      </trkpt>
      <trkpt lat="20.23834333" lon="-98.73810667">
        <ele>2070.0</ele>
        <time>2019-10-12T16:51:24.843Z</time>
      </trkpt>
      <trkpt lat="20.238335" lon="-98.73809667">
        <ele>2071.0</ele>
        <time>2019-10-12T16:51:25.844Z</time>
      </trkpt>
      <trkpt lat="20.23832667" lon="-98.73809">
        <ele>2071.0</ele>
        <time>2019-10-12T16:51:26.844Z</time>
      </trkpt>
      <trkpt lat="20.23831667" lon="-98.73808167">
        <ele>2071.0</ele>
        <time>2019-10-12T16:51:27.845Z</time>
      </trkpt>
      <trkpt lat="20.23831167" lon="-98.73807833">
        <ele>2072.0</ele>
        <time>2019-10-12T16:51:28.846Z</time>
      </trkpt>
      <trkpt lat="20.23830167" lon="-98.73807167">
        <ele>2072.0</ele>
        <time>2019-10-12T16:51:29.847Z</time>
      </trkpt>
      <trkpt lat="20.23829" lon="-98.73806833">
        <ele>2072.0</ele>
        <time>2019-10-12T16:51:30.848Z</time>
      </trkpt>
      <trkpt lat="20.238275" lon="-98.73806333">
        <ele>2072.0</ele>
        <time>2019-10-12T16:51:31.848Z</time>
      </trkpt>
      <trkpt lat="20.23826333" lon="-98.73805833">
        <ele>2072.0</ele>
        <time>2019-10-12T16:51:32.849Z</time>
      </trkpt>
      <trkpt lat="20.23825333" lon="-98.73805333">
        <ele>2072.0</ele>
        <time>2019-10-12T16:51:33.850Z</time>
      </trkpt>
      <trkpt lat="20.23824333" lon="-98.73804667">
        <ele>2072.0</ele>
        <time>2019-10-12T16:51:34.851Z</time>
      </trkpt>
      <trkpt lat="20.238235" lon="-98.73804">
        <ele>2072.0</ele>
        <time>2019-10-12T16:51:35.852Z</time>
      </trkpt>
      <trkpt lat="20.23822667" lon="-98.73803167">
        <ele>2073.0</ele>
        <time>2019-10-12T16:51:36.853Z</time>
      </trkpt>
      <trkpt lat="20.23821833" lon="-98.738025">
        <ele>2073.0</ele>
        <time>2019-10-12T16:51:37.853Z</time>
      </trkpt>
      <trkpt lat="20.23821167" lon="-98.73802">
        <ele>2073.0</ele>
        <time>2019-10-12T16:51:38.854Z</time>
      </trkpt>
      <trkpt lat="20.23820667" lon="-98.73801333">
        <ele>2074.0</ele>
        <time>2019-10-12T16:51:39.855Z</time>
      </trkpt>
      <trkpt lat="20.23819667" lon="-98.73800833">
        <ele>2074.0</ele>
        <time>2019-10-12T16:51:40.856Z</time>
      </trkpt>
      <trkpt lat="20.23818833" lon="-98.738">
        <ele>2074.0</ele>
        <time>2019-10-12T16:51:41.856Z</time>
      </trkpt>
      <trkpt lat="20.23818167" lon="-98.73799">
        <ele>2074.0</ele>
        <time>2019-10-12T16:51:42.857Z</time>
      </trkpt>
      <trkpt lat="20.23817333" lon="-98.73798167">
        <ele>2075.0</ele>
        <time>2019-10-12T16:51:43.857Z</time>
      </trkpt>
      <trkpt lat="20.23816333" lon="-98.73797333">
        <ele>2075.0</ele>
        <time>2019-10-12T16:51:44.857Z</time>
      </trkpt>
      <trkpt lat="20.23815167" lon="-98.73796333">
        <ele>2075.0</ele>
        <time>2019-10-12T16:51:45.858Z</time>
      </trkpt>
      <trkpt lat="20.23814167" lon="-98.737955">
        <ele>2075.0</ele>
        <time>2019-10-12T16:51:46.858Z</time>
      </trkpt>
      <trkpt lat="20.238135" lon="-98.73794667">
        <ele>2076.0</ele>
        <time>2019-10-12T16:51:47.858Z</time>
      </trkpt>
      <trkpt lat="20.23812833" lon="-98.73794">
        <ele>2076.0</ele>
        <time>2019-10-12T16:51:48.859Z</time>
      </trkpt>
      <trkpt lat="20.23812167" lon="-98.73793167">
        <ele>2076.0</ele>
        <time>2019-10-12T16:51:49.859Z</time>
      </trkpt>
      <trkpt lat="20.23811333" lon="-98.73792167">
        <ele>2076.0</ele>
        <time>2019-10-12T16:51:50.859Z</time>
      </trkpt>
      <trkpt lat="20.23810833" lon="-98.737915">
        <ele>2076.0</ele>
        <time>2019-10-12T16:51:51.859Z</time>
      </trkpt>
      <trkpt lat="20.2381" lon="-98.73790667">
        <ele>2077.0</ele>
        <time>2019-10-12T16:51:52.860Z</time>
      </trkpt>
      <trkpt lat="20.23809333" lon="-98.73789667">
        <ele>2077.0</ele>
        <time>2019-10-12T16:51:53.860Z</time>
      </trkpt>
      <trkpt lat="20.238085" lon="-98.737885">
        <ele>2078.0</ele>
        <time>2019-10-12T16:51:54.860Z</time>
      </trkpt>
      <trkpt lat="20.23807333" lon="-98.737875">
        <ele>2078.0</ele>
        <time>2019-10-12T16:51:55.860Z</time>
      </trkpt>
      <trkpt lat="20.238065" lon="-98.73786667">
        <ele>2078.0</ele>
        <time>2019-10-12T16:51:56.860Z</time>
      </trkpt>
      <trkpt lat="20.23805333" lon="-98.73785833">
        <ele>2079.0</ele>
        <time>2019-10-12T16:51:57.861Z</time>
      </trkpt>
      <trkpt lat="20.238045" lon="-98.73785167">
        <ele>2081.0</ele>
        <time>2019-10-12T16:51:58.862Z</time>
      </trkpt>
      <trkpt lat="20.23804" lon="-98.73784833">
        <ele>2081.0</ele>
        <time>2019-10-12T16:51:59.863Z</time>
      </trkpt>
      <trkpt lat="20.23803333" lon="-98.737845">
        <ele>2082.0</ele>
        <time>2019-10-12T16:52:00.864Z</time>
      </trkpt>
      <trkpt lat="20.23802833" lon="-98.73784333">
        <ele>2082.0</ele>
        <time>2019-10-12T16:52:01.865Z</time>
      </trkpt>
      <trkpt lat="20.23802333" lon="-98.73784">
        <ele>2082.0</ele>
        <time>2019-10-12T16:52:02.865Z</time>
      </trkpt>
      <trkpt lat="20.23801833" lon="-98.737835">
        <ele>2082.0</ele>
        <time>2019-10-12T16:52:03.866Z</time>
      </trkpt>
      <trkpt lat="20.23801167" lon="-98.73782833">
        <ele>2082.0</ele>
        <time>2019-10-12T16:52:04.867Z</time>
      </trkpt>
      <trkpt lat="20.23800667" lon="-98.73782667">
        <ele>2083.0</ele>
        <time>2019-10-12T16:52:05.868Z</time>
      </trkpt>
      <trkpt lat="20.23800167" lon="-98.73782333">
        <ele>2083.0</ele>
        <time>2019-10-12T16:52:06.869Z</time>
      </trkpt>
      <trkpt lat="20.23799333" lon="-98.73782">
        <ele>2084.0</ele>
        <time>2019-10-12T16:52:07.869Z</time>
      </trkpt>
      <trkpt lat="20.23798667" lon="-98.73781167">
        <ele>2084.0</ele>
        <time>2019-10-12T16:52:08.870Z</time>
      </trkpt>
      <trkpt lat="20.23798167" lon="-98.73780167">
        <ele>2084.0</ele>
        <time>2019-10-12T16:52:09.871Z</time>
      </trkpt>
      <trkpt lat="20.23797833" lon="-98.73779167">
        <ele>2084.0</ele>
        <time>2019-10-12T16:52:10.872Z</time>
      </trkpt>
      <trkpt lat="20.23797833" lon="-98.73778333">
        <ele>2084.0</ele>
        <time>2019-10-12T16:52:11.873Z</time>
      </trkpt>
      <trkpt lat="20.23797333" lon="-98.73777667">
        <ele>2084.0</ele>
        <time>2019-10-12T16:52:12.873Z</time>
      </trkpt>
      <trkpt lat="20.23796667" lon="-98.73776667">
        <ele>2084.0</ele>
        <time>2019-10-12T16:52:13.874Z</time>
      </trkpt>
      <trkpt lat="20.23796167" lon="-98.73775667">
        <ele>2084.0</ele>
        <time>2019-10-12T16:52:14.875Z</time>
      </trkpt>
      <trkpt lat="20.237955" lon="-98.73774333">
        <ele>2084.0</ele>
        <time>2019-10-12T16:52:15.876Z</time>
      </trkpt>
      <trkpt lat="20.23795333" lon="-98.73773">
        <ele>2084.0</ele>
        <time>2019-10-12T16:52:16.877Z</time>
      </trkpt>
      <trkpt lat="20.23794667" lon="-98.737715">
        <ele>2084.0</ele>
        <time>2019-10-12T16:52:17.878Z</time>
      </trkpt>
      <trkpt lat="20.23794" lon="-98.73770333">
        <ele>2084.0</ele>
        <time>2019-10-12T16:52:18.878Z</time>
      </trkpt>
      <trkpt lat="20.237935" lon="-98.73769">
        <ele>2084.0</ele>
        <time>2019-10-12T16:52:19.879Z</time>
      </trkpt>
      <trkpt lat="20.23793" lon="-98.73768">
        <ele>2085.0</ele>
        <time>2019-10-12T16:52:20.880Z</time>
      </trkpt>
      <trkpt lat="20.23792167" lon="-98.73767">
        <ele>2085.0</ele>
        <time>2019-10-12T16:52:21.880Z</time>
      </trkpt>
      <trkpt lat="20.23791333" lon="-98.73766167">
        <ele>2084.0</ele>
        <time>2019-10-12T16:52:22.881Z</time>
      </trkpt>
      <trkpt lat="20.237905" lon="-98.73765333">
        <ele>2084.0</ele>
        <time>2019-10-12T16:52:23.885Z</time>
      </trkpt>
      <trkpt lat="20.23789833" lon="-98.73764167">
        <ele>2084.0</ele>
        <time>2019-10-12T16:52:24.891Z</time>
      </trkpt>
      <trkpt lat="20.23789167" lon="-98.73762667">
        <ele>2084.0</ele>
        <time>2019-10-12T16:52:25.897Z</time>
      </trkpt>
      <trkpt lat="20.237875" lon="-98.73761167">
        <ele>2084.0</ele>
        <time>2019-10-12T16:52:26.903Z</time>
      </trkpt>
      <trkpt lat="20.23786333" lon="-98.737595">
        <ele>2084.0</ele>
        <time>2019-10-12T16:52:27.908Z</time>
      </trkpt>
      <trkpt lat="20.23785" lon="-98.73758167">
        <ele>2085.0</ele>
        <time>2019-10-12T16:52:28.914Z</time>
      </trkpt>
      <trkpt lat="20.23783667" lon="-98.73756667">
        <ele>2085.0</ele>
        <time>2019-10-12T16:52:29.918Z</time>
      </trkpt>
      <trkpt lat="20.23782167" lon="-98.73755">
        <ele>2085.0</ele>
        <time>2019-10-12T16:52:30.923Z</time>
      </trkpt>
      <trkpt lat="20.23781833" lon="-98.73753167">
        <ele>2085.0</ele>
        <time>2019-10-12T16:52:31.925Z</time>
      </trkpt>
      <trkpt lat="20.237815" lon="-98.737515">
        <ele>2086.0</ele>
        <time>2019-10-12T16:52:32.927Z</time>
      </trkpt>
      <trkpt lat="20.23780667" lon="-98.737495">
        <ele>2086.0</ele>
        <time>2019-10-12T16:52:33.933Z</time>
      </trkpt>
      <trkpt lat="20.237795" lon="-98.73748167">
        <ele>2086.0</ele>
        <time>2019-10-12T16:52:34.937Z</time>
      </trkpt>
      <trkpt lat="20.23778833" lon="-98.73746833">
        <ele>2086.0</ele>
        <time>2019-10-12T16:52:35.945Z</time>
      </trkpt>
      <trkpt lat="20.23777667" lon="-98.737455">
        <ele>2086.0</ele>
        <time>2019-10-12T16:52:36.949Z</time>
      </trkpt>
      <trkpt lat="20.23776667" lon="-98.73743833">
        <ele>2086.0</ele>
        <time>2019-10-12T16:52:37.952Z</time>
      </trkpt>
      <trkpt lat="20.23776167" lon="-98.73742167">
        <ele>2087.0</ele>
        <time>2019-10-12T16:52:38.832Z</time>
      </trkpt>
      <trkpt lat="20.23775167" lon="-98.73740333">
        <ele>2087.0</ele>
        <time>2019-10-12T16:52:39.832Z</time>
      </trkpt>
      <trkpt lat="20.23774833" lon="-98.737385">
        <ele>2087.0</ele>
        <time>2019-10-12T16:52:40.833Z</time>
      </trkpt>
      <trkpt lat="20.23774667" lon="-98.73736833">
        <ele>2087.0</ele>
        <time>2019-10-12T16:52:41.834Z</time>
      </trkpt>
      <trkpt lat="20.23774" lon="-98.73734833">
        <ele>2088.0</ele>
        <time>2019-10-12T16:52:42.835Z</time>
      </trkpt>
      <trkpt lat="20.237735" lon="-98.73733167">
        <ele>2088.0</ele>
        <time>2019-10-12T16:52:43.836Z</time>
      </trkpt>
      <trkpt lat="20.237735" lon="-98.73731167">
        <ele>2087.0</ele>
        <time>2019-10-12T16:52:44.836Z</time>
      </trkpt>
      <trkpt lat="20.23773333" lon="-98.737295">
        <ele>2087.0</ele>
        <time>2019-10-12T16:52:45.838Z</time>
      </trkpt>
      <trkpt lat="20.23772" lon="-98.73727833">
        <ele>2086.0</ele>
        <time>2019-10-12T16:52:46.847Z</time>
      </trkpt>
      <trkpt lat="20.23770833" lon="-98.73726">
        <ele>2086.0</ele>
        <time>2019-10-12T16:52:47.850Z</time>
      </trkpt>
      <trkpt lat="20.2377" lon="-98.73724">
        <ele>2086.0</ele>
        <time>2019-10-12T16:52:48.856Z</time>
      </trkpt>
      <trkpt lat="20.237695" lon="-98.73721833">
        <ele>2086.0</ele>
        <time>2019-10-12T16:52:49.858Z</time>
      </trkpt>
      <trkpt lat="20.23769667" lon="-98.737195">
        <ele>2087.0</ele>
        <time>2019-10-12T16:52:50.861Z</time>
      </trkpt>
      <trkpt lat="20.237695" lon="-98.73717667">
        <ele>2087.0</ele>
        <time>2019-10-12T16:52:51.863Z</time>
      </trkpt>
      <trkpt lat="20.23770333" lon="-98.73715667">
        <ele>2087.0</ele>
        <time>2019-10-12T16:52:52.870Z</time>
      </trkpt>
      <trkpt lat="20.237715" lon="-98.73713833">
        <ele>2088.0</ele>
        <time>2019-10-12T16:52:53.876Z</time>
      </trkpt>
      <trkpt lat="20.23772167" lon="-98.73711833">
        <ele>2088.0</ele>
        <time>2019-10-12T16:52:54.881Z</time>
      </trkpt>
      <trkpt lat="20.237715" lon="-98.73709833">
        <ele>2088.0</ele>
        <time>2019-10-12T16:52:55.887Z</time>
      </trkpt>
      <trkpt lat="20.23770333" lon="-98.737075">
        <ele>2088.0</ele>
        <time>2019-10-12T16:52:56.889Z</time>
      </trkpt>
      <trkpt lat="20.23769167" lon="-98.73705333">
        <ele>2087.0</ele>
        <time>2019-10-12T16:52:57.895Z</time>
      </trkpt>
      <trkpt lat="20.237685" lon="-98.73703333">
        <ele>2088.0</ele>
        <time>2019-10-12T16:52:58.901Z</time>
      </trkpt>
      <trkpt lat="20.23767833" lon="-98.73701167">
        <ele>2089.0</ele>
        <time>2019-10-12T16:52:59.907Z</time>
      </trkpt>
      <trkpt lat="20.23767167" lon="-98.73699333">
        <ele>2088.0</ele>
        <time>2019-10-12T16:53:00.910Z</time>
      </trkpt>
      <trkpt lat="20.23767" lon="-98.73697667">
        <ele>2088.0</ele>
        <time>2019-10-12T16:53:01.911Z</time>
      </trkpt>
      <trkpt lat="20.23766667" lon="-98.736965">
        <ele>2087.0</ele>
        <time>2019-10-12T16:53:02.912Z</time>
      </trkpt>
      <trkpt lat="20.23766667" lon="-98.73696">
        <ele>2086.0</ele>
        <time>2019-10-12T16:53:03.913Z</time>
      </trkpt>
      <trkpt lat="20.23767" lon="-98.73696333">
        <ele>2086.0</ele>
        <time>2019-10-12T16:53:04.917Z</time>
      </trkpt>
      <trkpt lat="20.23768" lon="-98.73696167">
        <ele>2087.0</ele>
        <time>2019-10-12T16:53:05.924Z</time>
      </trkpt>
      <trkpt lat="20.23768667" lon="-98.73695667">
        <ele>2087.0</ele>
        <time>2019-10-12T16:53:06.930Z</time>
      </trkpt>
      <trkpt lat="20.237695" lon="-98.73695167">
        <ele>2087.0</ele>
        <time>2019-10-12T16:53:07.936Z</time>
      </trkpt>
      <trkpt lat="20.23770333" lon="-98.73694833">
        <ele>2088.0</ele>
        <time>2019-10-12T16:53:08.937Z</time>
      </trkpt>
      <trkpt lat="20.237715" lon="-98.736945">
        <ele>2089.0</ele>
        <time>2019-10-12T16:53:09.938Z</time>
      </trkpt>
      <trkpt lat="20.23773167" lon="-98.73694333">
        <ele>2090.0</ele>
        <time>2019-10-12T16:53:10.941Z</time>
      </trkpt>
      <trkpt lat="20.23774833" lon="-98.73694333">
        <ele>2091.0</ele>
        <time>2019-10-12T16:53:11.947Z</time>
      </trkpt>
      <trkpt lat="20.237765" lon="-98.73694333">
        <ele>2091.0</ele>
        <time>2019-10-12T16:53:12.954Z</time>
      </trkpt>
      <trkpt lat="20.23778167" lon="-98.73694333">
        <ele>2091.0</ele>
        <time>2019-10-12T16:53:13.833Z</time>
      </trkpt>
      <trkpt lat="20.23779833" lon="-98.73694333">
        <ele>2091.0</ele>
        <time>2019-10-12T16:53:14.838Z</time>
      </trkpt>
      <trkpt lat="20.23781667" lon="-98.73694667">
        <ele>2091.0</ele>
        <time>2019-10-12T16:53:15.843Z</time>
      </trkpt>
      <trkpt lat="20.23783333" lon="-98.736945">
        <ele>2090.0</ele>
        <time>2019-10-12T16:53:16.847Z</time>
      </trkpt>
      <trkpt lat="20.23785167" lon="-98.73694">
        <ele>2089.0</ele>
        <time>2019-10-12T16:53:17.854Z</time>
      </trkpt>
      <trkpt lat="20.23787" lon="-98.73693333">
        <ele>2089.0</ele>
        <time>2019-10-12T16:53:18.860Z</time>
      </trkpt>
      <trkpt lat="20.23788667" lon="-98.73691833">
        <ele>2089.0</ele>
        <time>2019-10-12T16:53:19.861Z</time>
      </trkpt>
      <trkpt lat="20.23790167" lon="-98.73690333">
        <ele>2089.0</ele>
        <time>2019-10-12T16:53:20.862Z</time>
      </trkpt>
      <trkpt lat="20.23791" lon="-98.73688833">
        <ele>2089.0</ele>
        <time>2019-10-12T16:53:21.863Z</time>
      </trkpt>
      <trkpt lat="20.23791667" lon="-98.736875">
        <ele>2089.0</ele>
        <time>2019-10-12T16:53:22.864Z</time>
      </trkpt>
      <trkpt lat="20.23792833" lon="-98.73685833">
        <ele>2090.0</ele>
        <time>2019-10-12T16:53:23.864Z</time>
      </trkpt>
      <trkpt lat="20.23793833" lon="-98.73684">
        <ele>2090.0</ele>
        <time>2019-10-12T16:53:24.865Z</time>
      </trkpt>
      <trkpt lat="20.23794833" lon="-98.73682167">
        <ele>2091.0</ele>
        <time>2019-10-12T16:53:25.866Z</time>
      </trkpt>
      <trkpt lat="20.237955" lon="-98.73680667">
        <ele>2091.0</ele>
        <time>2019-10-12T16:53:26.867Z</time>
      </trkpt>
      <trkpt lat="20.23796333" lon="-98.73679">
        <ele>2091.0</ele>
        <time>2019-10-12T16:53:27.871Z</time>
      </trkpt>
      <trkpt lat="20.23796667" lon="-98.73677333">
        <ele>2091.0</ele>
        <time>2019-10-12T16:53:28.876Z</time>
      </trkpt>
      <trkpt lat="20.23796833" lon="-98.73675833">
        <ele>2091.0</ele>
        <time>2019-10-12T16:53:29.879Z</time>
      </trkpt>
      <trkpt lat="20.23797167" lon="-98.73674333">
        <ele>2091.0</ele>
        <time>2019-10-12T16:53:30.884Z</time>
      </trkpt>
      <trkpt lat="20.23797667" lon="-98.73672833">
        <ele>2090.0</ele>
        <time>2019-10-12T16:53:31.889Z</time>
      </trkpt>
      <trkpt lat="20.23798667" lon="-98.736715">
        <ele>2090.0</ele>
        <time>2019-10-12T16:53:32.894Z</time>
      </trkpt>
      <trkpt lat="20.23799667" lon="-98.736705">
        <ele>2090.0</ele>
        <time>2019-10-12T16:53:33.901Z</time>
      </trkpt>
      <trkpt lat="20.23800667" lon="-98.736695">
        <ele>2090.0</ele>
        <time>2019-10-12T16:53:34.907Z</time>
      </trkpt>
      <trkpt lat="20.23801833" lon="-98.73668333">
        <ele>2091.0</ele>
        <time>2019-10-12T16:53:35.913Z</time>
      </trkpt>
      <trkpt lat="20.23803333" lon="-98.73667167">
        <ele>2091.0</ele>
        <time>2019-10-12T16:53:36.915Z</time>
      </trkpt>
      <trkpt lat="20.23804667" lon="-98.73666167">
        <ele>2091.0</ele>
        <time>2019-10-12T16:53:37.920Z</time>
      </trkpt>
      <trkpt lat="20.238065" lon="-98.736655">
        <ele>2092.0</ele>
        <time>2019-10-12T16:53:38.925Z</time>
      </trkpt>
      <trkpt lat="20.23808167" lon="-98.73665">
        <ele>2092.0</ele>
        <time>2019-10-12T16:53:39.931Z</time>
      </trkpt>
      <trkpt lat="20.23809667" lon="-98.736645">
        <ele>2092.0</ele>
        <time>2019-10-12T16:53:40.937Z</time>
      </trkpt>
      <trkpt lat="20.238115" lon="-98.73664167">
        <ele>2093.0</ele>
        <time>2019-10-12T16:53:41.941Z</time>
      </trkpt>
      <trkpt lat="20.23813333" lon="-98.73663667">
        <ele>2093.0</ele>
        <time>2019-10-12T16:53:42.942Z</time>
      </trkpt>
      <trkpt lat="20.23814833" lon="-98.73663167">
        <ele>2094.0</ele>
        <time>2019-10-12T16:53:43.950Z</time>
      </trkpt>
      <trkpt lat="20.23816333" lon="-98.73662333">
        <ele>2094.0</ele>
        <time>2019-10-12T16:53:44.954Z</time>
      </trkpt>
      <trkpt lat="20.23817833" lon="-98.73661667">
        <ele>2095.0</ele>
        <time>2019-10-12T16:53:45.833Z</time>
      </trkpt>
      <trkpt lat="20.238195" lon="-98.73660833">
        <ele>2095.0</ele>
        <time>2019-10-12T16:53:46.838Z</time>
      </trkpt>
      <trkpt lat="20.23821" lon="-98.73659833">
        <ele>2096.0</ele>
        <time>2019-10-12T16:53:47.841Z</time>
      </trkpt>
      <trkpt lat="20.238225" lon="-98.73658667">
        <ele>2097.0</ele>
        <time>2019-10-12T16:53:48.845Z</time>
      </trkpt>
      <trkpt lat="20.23824" lon="-98.736575">
        <ele>2097.0</ele>
        <time>2019-10-12T16:53:49.852Z</time>
      </trkpt>
      <trkpt lat="20.23825167" lon="-98.73656167">
        <ele>2097.0</ele>
        <time>2019-10-12T16:53:50.855Z</time>
      </trkpt>
      <trkpt lat="20.23826333" lon="-98.73654667">
        <ele>2097.0</ele>
        <time>2019-10-12T16:53:51.858Z</time>
      </trkpt>
      <trkpt lat="20.238275" lon="-98.73653167">
        <ele>2097.0</ele>
        <time>2019-10-12T16:53:52.860Z</time>
      </trkpt>
      <trkpt lat="20.23828333" lon="-98.73651667">
        <ele>2097.0</ele>
        <time>2019-10-12T16:53:53.866Z</time>
      </trkpt>
      <trkpt lat="20.23829" lon="-98.7365">
        <ele>2097.0</ele>
        <time>2019-10-12T16:53:54.872Z</time>
      </trkpt>
      <trkpt lat="20.23829667" lon="-98.736485">
        <ele>2097.0</ele>
        <time>2019-10-12T16:53:55.879Z</time>
      </trkpt>
      <trkpt lat="20.23830167" lon="-98.73646833">
        <ele>2097.0</ele>
        <time>2019-10-12T16:53:56.880Z</time>
      </trkpt>
      <trkpt lat="20.238305" lon="-98.73645">
        <ele>2097.0</ele>
        <time>2019-10-12T16:53:57.883Z</time>
      </trkpt>
      <trkpt lat="20.23830667" lon="-98.73643167">
        <ele>2097.0</ele>
        <time>2019-10-12T16:53:58.890Z</time>
      </trkpt>
      <trkpt lat="20.23830833" lon="-98.73641333">
        <ele>2097.0</ele>
        <time>2019-10-12T16:53:59.892Z</time>
      </trkpt>
      <trkpt lat="20.23830833" lon="-98.73639333">
        <ele>2097.0</ele>
        <time>2019-10-12T16:54:00.893Z</time>
      </trkpt>
      <trkpt lat="20.23830667" lon="-98.73637667">
        <ele>2097.0</ele>
        <time>2019-10-12T16:54:01.894Z</time>
      </trkpt>
      <trkpt lat="20.23830167" lon="-98.73635833">
        <ele>2097.0</ele>
        <time>2019-10-12T16:54:02.895Z</time>
      </trkpt>
      <trkpt lat="20.23829833" lon="-98.73633833">
        <ele>2097.0</ele>
        <time>2019-10-12T16:54:03.896Z</time>
      </trkpt>
      <trkpt lat="20.23829667" lon="-98.73632167">
        <ele>2097.0</ele>
        <time>2019-10-12T16:54:04.899Z</time>
      </trkpt>
      <trkpt lat="20.238295" lon="-98.73630167">
        <ele>2097.0</ele>
        <time>2019-10-12T16:54:05.906Z</time>
      </trkpt>
      <trkpt lat="20.238295" lon="-98.736285">
        <ele>2097.0</ele>
        <time>2019-10-12T16:54:06.913Z</time>
      </trkpt>
      <trkpt lat="20.23829167" lon="-98.73626667">
        <ele>2097.0</ele>
        <time>2019-10-12T16:54:07.919Z</time>
      </trkpt>
      <trkpt lat="20.23829" lon="-98.73625">
        <ele>2096.0</ele>
        <time>2019-10-12T16:54:08.921Z</time>
      </trkpt>
      <trkpt lat="20.238285" lon="-98.73623167">
        <ele>2096.0</ele>
        <time>2019-10-12T16:54:09.926Z</time>
      </trkpt>
      <trkpt lat="20.23828333" lon="-98.73621333">
        <ele>2095.0</ele>
        <time>2019-10-12T16:54:10.932Z</time>
      </trkpt>
      <trkpt lat="20.23828167" lon="-98.73619167">
        <ele>2095.0</ele>
        <time>2019-10-12T16:54:11.933Z</time>
      </trkpt>
      <trkpt lat="20.23827833" lon="-98.73616833">
        <ele>2095.0</ele>
        <time>2019-10-12T16:54:12.938Z</time>
      </trkpt>
      <trkpt lat="20.23827667" lon="-98.736145">
        <ele>2095.0</ele>
        <time>2019-10-12T16:54:13.944Z</time>
      </trkpt>
      <trkpt lat="20.238275" lon="-98.736125">
        <ele>2095.0</ele>
        <time>2019-10-12T16:54:14.950Z</time>
      </trkpt>
      <trkpt lat="20.23827167" lon="-98.73610333">
        <ele>2095.0</ele>
        <time>2019-10-12T16:54:15.832Z</time>
      </trkpt>
      <trkpt lat="20.23826667" lon="-98.73608">
        <ele>2095.0</ele>
        <time>2019-10-12T16:54:16.837Z</time>
      </trkpt>
      <trkpt lat="20.238265" lon="-98.73605667">
        <ele>2094.0</ele>
        <time>2019-10-12T16:54:17.838Z</time>
      </trkpt>
      <trkpt lat="20.238265" lon="-98.73603167">
        <ele>2094.0</ele>
        <time>2019-10-12T16:54:18.842Z</time>
      </trkpt>
      <trkpt lat="20.238265" lon="-98.73600833">
        <ele>2094.0</ele>
        <time>2019-10-12T16:54:19.846Z</time>
      </trkpt>
      <trkpt lat="20.238265" lon="-98.73598833">
        <ele>2094.0</ele>
        <time>2019-10-12T16:54:20.846Z</time>
      </trkpt>
      <trkpt lat="20.23826667" lon="-98.73596667">
        <ele>2094.0</ele>
        <time>2019-10-12T16:54:21.848Z</time>
      </trkpt>
      <trkpt lat="20.23827167" lon="-98.73595">
        <ele>2094.0</ele>
        <time>2019-10-12T16:54:22.855Z</time>
      </trkpt>
      <trkpt lat="20.23827833" lon="-98.73593167">
        <ele>2094.0</ele>
        <time>2019-10-12T16:54:23.859Z</time>
      </trkpt>
      <trkpt lat="20.238285" lon="-98.73591333">
        <ele>2094.0</ele>
        <time>2019-10-12T16:54:24.863Z</time>
      </trkpt>
      <trkpt lat="20.23829" lon="-98.73589333">
        <ele>2094.0</ele>
        <time>2019-10-12T16:54:25.870Z</time>
      </trkpt>
      <trkpt lat="20.23829667" lon="-98.735875">
        <ele>2094.0</ele>
        <time>2019-10-12T16:54:26.876Z</time>
      </trkpt>
      <trkpt lat="20.23830167" lon="-98.735855">
        <ele>2094.0</ele>
        <time>2019-10-12T16:54:27.881Z</time>
      </trkpt>
      <trkpt lat="20.23830667" lon="-98.735835">
        <ele>2094.0</ele>
        <time>2019-10-12T16:54:28.887Z</time>
      </trkpt>
      <trkpt lat="20.238305" lon="-98.73581333">
        <ele>2094.0</ele>
        <time>2019-10-12T16:54:29.893Z</time>
      </trkpt>
      <trkpt lat="20.23830167" lon="-98.73579167">
        <ele>2093.0</ele>
        <time>2019-10-12T16:54:30.897Z</time>
      </trkpt>
      <trkpt lat="20.23830167" lon="-98.73576833">
        <ele>2093.0</ele>
        <time>2019-10-12T16:54:31.902Z</time>
      </trkpt>
      <trkpt lat="20.2383" lon="-98.735745">
        <ele>2093.0</ele>
        <time>2019-10-12T16:54:32.908Z</time>
      </trkpt>
      <trkpt lat="20.23829833" lon="-98.73572167">
        <ele>2092.0</ele>
        <time>2019-10-12T16:54:33.914Z</time>
      </trkpt>
      <trkpt lat="20.23829333" lon="-98.73569833">
        <ele>2092.0</ele>
        <time>2019-10-12T16:54:34.919Z</time>
      </trkpt>
      <trkpt lat="20.23828833" lon="-98.73567667">
        <ele>2092.0</ele>
        <time>2019-10-12T16:54:35.921Z</time>
      </trkpt>
      <trkpt lat="20.23828167" lon="-98.73565333">
        <ele>2092.0</ele>
        <time>2019-10-12T16:54:36.922Z</time>
      </trkpt>
      <trkpt lat="20.23827167" lon="-98.73563167">
        <ele>2093.0</ele>
        <time>2019-10-12T16:54:37.925Z</time>
      </trkpt>
      <trkpt lat="20.23826" lon="-98.73561833">
        <ele>2094.0</ele>
        <time>2019-10-12T16:54:38.931Z</time>
      </trkpt>
      <trkpt lat="20.23824833" lon="-98.73560833">
        <ele>2094.0</ele>
        <time>2019-10-12T16:54:39.932Z</time>
      </trkpt>
      <trkpt lat="20.238235" lon="-98.73560333">
        <ele>2095.0</ele>
        <time>2019-10-12T16:54:40.937Z</time>
      </trkpt>
      <trkpt lat="20.23822333" lon="-98.7356">
        <ele>2095.0</ele>
        <time>2019-10-12T16:54:41.943Z</time>
      </trkpt>
      <trkpt lat="20.23821" lon="-98.73560167">
        <ele>2096.0</ele>
        <time>2019-10-12T16:54:42.948Z</time>
      </trkpt>
      <trkpt lat="20.23819833" lon="-98.735605">
        <ele>2096.0</ele>
        <time>2019-10-12T16:54:43.954Z</time>
      </trkpt>
      <trkpt lat="20.23818833" lon="-98.73561333">
        <ele>2096.0</ele>
        <time>2019-10-12T16:54:44.836Z</time>
      </trkpt>
      <trkpt lat="20.23817667" lon="-98.73561833">
        <ele>2096.0</ele>
        <time>2019-10-12T16:54:45.840Z</time>
      </trkpt>
      <trkpt lat="20.23816667" lon="-98.73562333">
        <ele>2097.0</ele>
        <time>2019-10-12T16:54:46.844Z</time>
      </trkpt>
      <trkpt lat="20.23815667" lon="-98.735625">
        <ele>2097.0</ele>
        <time>2019-10-12T16:54:47.850Z</time>
      </trkpt>
      <trkpt lat="20.23814333" lon="-98.73562333">
        <ele>2098.0</ele>
        <time>2019-10-12T16:54:48.858Z</time>
      </trkpt>
      <trkpt lat="20.23813" lon="-98.73562167">
        <ele>2098.0</ele>
        <time>2019-10-12T16:54:49.864Z</time>
      </trkpt>
      <trkpt lat="20.23811833" lon="-98.73561833">
        <ele>2098.0</ele>
        <time>2019-10-12T16:54:50.869Z</time>
      </trkpt>
      <trkpt lat="20.23810833" lon="-98.73561667">
        <ele>2097.0</ele>
        <time>2019-10-12T16:54:51.871Z</time>
      </trkpt>
      <trkpt lat="20.23810333" lon="-98.73561667">
        <ele>2097.0</ele>
        <time>2019-10-12T16:54:52.872Z</time>
      </trkpt>
      <trkpt lat="20.238095" lon="-98.735615">
        <ele>2098.0</ele>
        <time>2019-10-12T16:54:53.873Z</time>
      </trkpt>
      <trkpt lat="20.238085" lon="-98.73561333">
        <ele>2098.0</ele>
        <time>2019-10-12T16:54:54.880Z</time>
      </trkpt>
      <trkpt lat="20.23807333" lon="-98.73561167">
        <ele>2098.0</ele>
        <time>2019-10-12T16:54:55.884Z</time>
      </trkpt>
      <trkpt lat="20.23805833" lon="-98.73561167">
        <ele>2098.0</ele>
        <time>2019-10-12T16:54:56.888Z</time>
      </trkpt>
      <trkpt lat="20.23805" lon="-98.73561833">
        <ele>2098.0</ele>
        <time>2019-10-12T16:54:57.894Z</time>
      </trkpt>
      <trkpt lat="20.23804" lon="-98.73562333">
        <ele>2097.0</ele>
        <time>2019-10-12T16:54:58.897Z</time>
      </trkpt>
      <trkpt lat="20.23803167" lon="-98.73562667">
        <ele>2097.0</ele>
        <time>2019-10-12T16:54:59.898Z</time>
      </trkpt>
      <trkpt lat="20.23802333" lon="-98.73563333">
        <ele>2097.0</ele>
        <time>2019-10-12T16:55:00.899Z</time>
      </trkpt>
      <trkpt lat="20.23801333" lon="-98.73564333">
        <ele>2097.0</ele>
        <time>2019-10-12T16:55:01.899Z</time>
      </trkpt>
      <trkpt lat="20.23800333" lon="-98.73565333">
        <ele>2097.0</ele>
        <time>2019-10-12T16:55:02.901Z</time>
      </trkpt>
      <trkpt lat="20.23799333" lon="-98.73566333">
        <ele>2097.0</ele>
        <time>2019-10-12T16:55:03.902Z</time>
      </trkpt>
      <trkpt lat="20.237985" lon="-98.73567333">
        <ele>2097.0</ele>
        <time>2019-10-12T16:55:04.905Z</time>
      </trkpt>
      <trkpt lat="20.23797833" lon="-98.73568167">
        <ele>2097.0</ele>
        <time>2019-10-12T16:55:05.907Z</time>
      </trkpt>
      <trkpt lat="20.23797333" lon="-98.73569167">
        <ele>2097.0</ele>
        <time>2019-10-12T16:55:06.909Z</time>
      </trkpt>
      <trkpt lat="20.23797167" lon="-98.73570167">
        <ele>2096.0</ele>
        <time>2019-10-12T16:55:07.910Z</time>
      </trkpt>
      <trkpt lat="20.23797167" lon="-98.73571333">
        <ele>2096.0</ele>
        <time>2019-10-12T16:55:08.915Z</time>
      </trkpt>
      <trkpt lat="20.237975" lon="-98.735725">
        <ele>2096.0</ele>
        <time>2019-10-12T16:55:09.920Z</time>
      </trkpt>
      <trkpt lat="20.23797833" lon="-98.73573833">
        <ele>2096.0</ele>
        <time>2019-10-12T16:55:10.923Z</time>
      </trkpt>
      <trkpt lat="20.23798333" lon="-98.73574833">
        <ele>2096.0</ele>
        <time>2019-10-12T16:55:11.926Z</time>
      </trkpt>
      <trkpt lat="20.23798833" lon="-98.73575833">
        <ele>2096.0</ele>
        <time>2019-10-12T16:55:12.930Z</time>
      </trkpt>
      <trkpt lat="20.23799333" lon="-98.73576667">
        <ele>2096.0</ele>
        <time>2019-10-12T16:55:13.935Z</time>
      </trkpt>
      <trkpt lat="20.23799833" lon="-98.735775">
        <ele>2096.0</ele>
        <time>2019-10-12T16:55:14.941Z</time>
      </trkpt>
      <trkpt lat="20.23800333" lon="-98.73578667">
        <ele>2097.0</ele>
        <time>2019-10-12T16:55:15.947Z</time>
      </trkpt>
      <trkpt lat="20.23800833" lon="-98.73579667">
        <ele>2097.0</ele>
        <time>2019-10-12T16:55:16.949Z</time>
      </trkpt>
      <trkpt lat="20.238015" lon="-98.73580833">
        <ele>2097.0</ele>
        <time>2019-10-12T16:55:17.950Z</time>
      </trkpt>
      <trkpt lat="20.23802167" lon="-98.73581833">
        <ele>2098.0</ele>
        <time>2019-10-12T16:55:18.954Z</time>
      </trkpt>
      <trkpt lat="20.23802667" lon="-98.73582833">
        <ele>2098.0</ele>
        <time>2019-10-12T16:55:19.835Z</time>
      </trkpt>
      <trkpt lat="20.23803167" lon="-98.73583833">
        <ele>2098.0</ele>
        <time>2019-10-12T16:55:20.841Z</time>
      </trkpt>
      <trkpt lat="20.23803333" lon="-98.73584833">
        <ele>2099.0</ele>
        <time>2019-10-12T16:55:21.849Z</time>
      </trkpt>
      <trkpt lat="20.23803667" lon="-98.73586">
        <ele>2099.0</ele>
        <time>2019-10-12T16:55:22.855Z</time>
      </trkpt>
      <trkpt lat="20.23804" lon="-98.73587">
        <ele>2099.0</ele>
        <time>2019-10-12T16:55:23.858Z</time>
      </trkpt>
      <trkpt lat="20.23804167" lon="-98.73587667">
        <ele>2099.0</ele>
        <time>2019-10-12T16:55:24.863Z</time>
      </trkpt>
      <trkpt lat="20.23804333" lon="-98.73588667">
        <ele>2099.0</ele>
        <time>2019-10-12T16:55:25.869Z</time>
      </trkpt>
      <trkpt lat="20.238045" lon="-98.73589833">
        <ele>2099.0</ele>
        <time>2019-10-12T16:55:26.873Z</time>
      </trkpt>
      <trkpt lat="20.238045" lon="-98.73590833">
        <ele>2099.0</ele>
        <time>2019-10-12T16:55:27.877Z</time>
      </trkpt>
      <trkpt lat="20.23804333" lon="-98.73592333">
        <ele>2099.0</ele>
        <time>2019-10-12T16:55:28.882Z</time>
      </trkpt>
      <trkpt lat="20.23804" lon="-98.735935">
        <ele>2100.0</ele>
        <time>2019-10-12T16:55:29.887Z</time>
      </trkpt>
      <trkpt lat="20.23803833" lon="-98.735945">
        <ele>2099.0</ele>
        <time>2019-10-12T16:55:30.890Z</time>
      </trkpt>
      <trkpt lat="20.23803833" lon="-98.735955">
        <ele>2100.0</ele>
        <time>2019-10-12T16:55:31.891Z</time>
      </trkpt>
      <trkpt lat="20.23803667" lon="-98.73596667">
        <ele>2100.0</ele>
        <time>2019-10-12T16:55:32.891Z</time>
      </trkpt>
      <trkpt lat="20.238035" lon="-98.73597833">
        <ele>2101.0</ele>
        <time>2019-10-12T16:55:33.892Z</time>
      </trkpt>
      <trkpt lat="20.238035" lon="-98.73599">
        <ele>2101.0</ele>
        <time>2019-10-12T16:55:34.892Z</time>
      </trkpt>
      <trkpt lat="20.238035" lon="-98.736005">
        <ele>2101.0</ele>
        <time>2019-10-12T16:55:35.892Z</time>
      </trkpt>
      <trkpt lat="20.23803667" lon="-98.73601833">
        <ele>2101.0</ele>
        <time>2019-10-12T16:55:36.892Z</time>
      </trkpt>
      <trkpt lat="20.238035" lon="-98.73603167">
        <ele>2102.0</ele>
        <time>2019-10-12T16:55:37.893Z</time>
      </trkpt>
      <trkpt lat="20.23802833" lon="-98.73604167">
        <ele>2103.0</ele>
        <time>2019-10-12T16:55:38.893Z</time>
      </trkpt>
      <trkpt lat="20.238025" lon="-98.73605333">
        <ele>2103.0</ele>
        <time>2019-10-12T16:55:39.893Z</time>
      </trkpt>
      <trkpt lat="20.23802" lon="-98.73606333">
        <ele>2103.0</ele>
        <time>2019-10-12T16:55:40.893Z</time>
      </trkpt>
      <trkpt lat="20.238015" lon="-98.73607333">
        <ele>2104.0</ele>
        <time>2019-10-12T16:55:41.893Z</time>
      </trkpt>
      <trkpt lat="20.23801333" lon="-98.736085">
        <ele>2104.0</ele>
        <time>2019-10-12T16:55:42.894Z</time>
      </trkpt>
      <trkpt lat="20.23800667" lon="-98.73609333">
        <ele>2104.0</ele>
        <time>2019-10-12T16:55:43.895Z</time>
      </trkpt>
      <trkpt lat="20.238005" lon="-98.736105">
        <ele>2104.0</ele>
        <time>2019-10-12T16:55:44.896Z</time>
      </trkpt>
      <trkpt lat="20.23799833" lon="-98.736115">
        <ele>2105.0</ele>
        <time>2019-10-12T16:55:45.897Z</time>
      </trkpt>
      <trkpt lat="20.23799333" lon="-98.73612333">
        <ele>2106.0</ele>
        <time>2019-10-12T16:55:46.897Z</time>
      </trkpt>
      <trkpt lat="20.23799" lon="-98.73613167">
        <ele>2106.0</ele>
        <time>2019-10-12T16:55:47.898Z</time>
      </trkpt>
      <trkpt lat="20.23798833" lon="-98.73614333">
        <ele>2106.0</ele>
        <time>2019-10-12T16:55:48.899Z</time>
      </trkpt>
      <trkpt lat="20.23798833" lon="-98.736155">
        <ele>2106.0</ele>
        <time>2019-10-12T16:55:49.900Z</time>
      </trkpt>
      <trkpt lat="20.23798333" lon="-98.73616667">
        <ele>2106.0</ele>
        <time>2019-10-12T16:55:50.901Z</time>
      </trkpt>
      <trkpt lat="20.23797667" lon="-98.73617333">
        <ele>2106.0</ele>
        <time>2019-10-12T16:55:51.902Z</time>
      </trkpt>
      <trkpt lat="20.23797" lon="-98.73618">
        <ele>2106.0</ele>
        <time>2019-10-12T16:55:52.902Z</time>
      </trkpt>
      <trkpt lat="20.237965" lon="-98.73618667">
        <ele>2106.0</ele>
        <time>2019-10-12T16:55:53.903Z</time>
      </trkpt>
      <trkpt lat="20.23796167" lon="-98.73619333">
        <ele>2106.0</ele>
        <time>2019-10-12T16:55:54.904Z</time>
      </trkpt>
      <trkpt lat="20.237955" lon="-98.736205">
        <ele>2106.0</ele>
        <time>2019-10-12T16:55:55.905Z</time>
      </trkpt>
      <trkpt lat="20.23795167" lon="-98.73621333">
        <ele>2106.0</ele>
        <time>2019-10-12T16:55:56.906Z</time>
      </trkpt>
      <trkpt lat="20.23794833" lon="-98.73622333">
        <ele>2106.0</ele>
        <time>2019-10-12T16:55:57.906Z</time>
      </trkpt>
      <trkpt lat="20.237945" lon="-98.73623333">
        <ele>2106.0</ele>
        <time>2019-10-12T16:55:58.908Z</time>
      </trkpt>
      <trkpt lat="20.23794167" lon="-98.73624167">
        <ele>2106.0</ele>
        <time>2019-10-12T16:55:59.908Z</time>
      </trkpt>
      <trkpt lat="20.23793667" lon="-98.73625">
        <ele>2106.0</ele>
        <time>2019-10-12T16:56:00.909Z</time>
      </trkpt>
      <trkpt lat="20.23793167" lon="-98.73626">
        <ele>2107.0</ele>
        <time>2019-10-12T16:56:01.910Z</time>
      </trkpt>
      <trkpt lat="20.23792667" lon="-98.73626833">
        <ele>2106.0</ele>
        <time>2019-10-12T16:56:02.911Z</time>
      </trkpt>
      <trkpt lat="20.23792333" lon="-98.736275">
        <ele>2106.0</ele>
        <time>2019-10-12T16:56:03.912Z</time>
      </trkpt>
      <trkpt lat="20.23791667" lon="-98.73627833">
        <ele>2106.0</ele>
        <time>2019-10-12T16:56:04.913Z</time>
      </trkpt>
      <trkpt lat="20.23791333" lon="-98.73628667">
        <ele>2106.0</ele>
        <time>2019-10-12T16:56:05.913Z</time>
      </trkpt>
      <trkpt lat="20.23790667" lon="-98.73629333">
        <ele>2106.0</ele>
        <time>2019-10-12T16:56:06.914Z</time>
      </trkpt>
      <trkpt lat="20.2379" lon="-98.7363">
        <ele>2106.0</ele>
        <time>2019-10-12T16:56:07.915Z</time>
      </trkpt>
      <trkpt lat="20.237895" lon="-98.73630667">
        <ele>2106.0</ele>
        <time>2019-10-12T16:56:08.915Z</time>
      </trkpt>
      <trkpt lat="20.23788833" lon="-98.73631667">
        <ele>2106.0</ele>
        <time>2019-10-12T16:56:09.916Z</time>
      </trkpt>
      <trkpt lat="20.23788167" lon="-98.73632333">
        <ele>2106.0</ele>
        <time>2019-10-12T16:56:10.917Z</time>
      </trkpt>
      <trkpt lat="20.23787167" lon="-98.73632833">
        <ele>2106.0</ele>
        <time>2019-10-12T16:56:11.918Z</time>
      </trkpt>
      <trkpt lat="20.23786" lon="-98.73633333">
        <ele>2106.0</ele>
        <time>2019-10-12T16:56:12.919Z</time>
      </trkpt>
      <trkpt lat="20.23785167" lon="-98.73633667">
        <ele>2107.0</ele>
        <time>2019-10-12T16:56:13.919Z</time>
      </trkpt>
      <trkpt lat="20.237845" lon="-98.73634">
        <ele>2107.0</ele>
        <time>2019-10-12T16:56:14.920Z</time>
      </trkpt>
      <trkpt lat="20.23783667" lon="-98.73634333">
        <ele>2106.0</ele>
        <time>2019-10-12T16:56:15.921Z</time>
      </trkpt>
      <trkpt lat="20.23783" lon="-98.73634833">
        <ele>2107.0</ele>
        <time>2019-10-12T16:56:16.922Z</time>
      </trkpt>
      <trkpt lat="20.23782167" lon="-98.73635167">
        <ele>2106.0</ele>
        <time>2019-10-12T16:56:17.922Z</time>
      </trkpt>
      <trkpt lat="20.237815" lon="-98.73635667">
        <ele>2106.0</ele>
        <time>2019-10-12T16:56:18.925Z</time>
      </trkpt>
      <trkpt lat="20.23780667" lon="-98.73636">
        <ele>2106.0</ele>
        <time>2019-10-12T16:56:19.931Z</time>
      </trkpt>
      <trkpt lat="20.23779833" lon="-98.736365">
        <ele>2106.0</ele>
        <time>2019-10-12T16:56:20.935Z</time>
      </trkpt>
      <trkpt lat="20.23778833" lon="-98.73637167">
        <ele>2107.0</ele>
        <time>2019-10-12T16:56:21.938Z</time>
      </trkpt>
      <trkpt lat="20.23777833" lon="-98.73637833">
        <ele>2107.0</ele>
        <time>2019-10-12T16:56:22.944Z</time>
      </trkpt>
      <trkpt lat="20.23776667" lon="-98.73638333">
        <ele>2107.0</ele>
        <time>2019-10-12T16:56:23.951Z</time>
      </trkpt>
      <trkpt lat="20.237755" lon="-98.73638833">
        <ele>2107.0</ele>
        <time>2019-10-12T16:56:24.831Z</time>
      </trkpt>
      <trkpt lat="20.23774333" lon="-98.73639333">
        <ele>2107.0</ele>
        <time>2019-10-12T16:56:25.837Z</time>
      </trkpt>
      <trkpt lat="20.23773333" lon="-98.736395">
        <ele>2107.0</ele>
        <time>2019-10-12T16:56:26.841Z</time>
      </trkpt>
      <trkpt lat="20.23772167" lon="-98.73639667">
        <ele>2107.0</ele>
        <time>2019-10-12T16:56:27.847Z</time>
      </trkpt>
      <trkpt lat="20.23771167" lon="-98.73640167">
        <ele>2107.0</ele>
        <time>2019-10-12T16:56:28.852Z</time>
      </trkpt>
      <trkpt lat="20.23770333" lon="-98.736405">
        <ele>2107.0</ele>
        <time>2019-10-12T16:56:29.856Z</time>
      </trkpt>
      <trkpt lat="20.23769" lon="-98.73640667">
        <ele>2107.0</ele>
        <time>2019-10-12T16:56:30.862Z</time>
      </trkpt>
      <trkpt lat="20.23767833" lon="-98.73640833">
        <ele>2107.0</ele>
        <time>2019-10-12T16:56:31.867Z</time>
      </trkpt>
      <trkpt lat="20.23766667" lon="-98.73641333">
        <ele>2107.0</ele>
        <time>2019-10-12T16:56:32.872Z</time>
      </trkpt>
      <trkpt lat="20.237655" lon="-98.736415">
        <ele>2107.0</ele>
        <time>2019-10-12T16:56:33.872Z</time>
      </trkpt>
      <trkpt lat="20.23764667" lon="-98.73642">
        <ele>2107.0</ele>
        <time>2019-10-12T16:56:34.873Z</time>
      </trkpt>
      <trkpt lat="20.23764167" lon="-98.736425">
        <ele>2107.0</ele>
        <time>2019-10-12T16:56:35.874Z</time>
      </trkpt>
      <trkpt lat="20.237635" lon="-98.73643167">
        <ele>2108.0</ele>
        <time>2019-10-12T16:56:36.878Z</time>
      </trkpt>
      <trkpt lat="20.23762667" lon="-98.736435">
        <ele>2107.0</ele>
        <time>2019-10-12T16:56:37.885Z</time>
      </trkpt>
      <trkpt lat="20.23762" lon="-98.73643833">
        <ele>2107.0</ele>
        <time>2019-10-12T16:56:38.890Z</time>
      </trkpt>
      <trkpt lat="20.23761333" lon="-98.73644167">
        <ele>2107.0</ele>
        <time>2019-10-12T16:56:39.895Z</time>
      </trkpt>
      <trkpt lat="20.23760833" lon="-98.73644667">
        <ele>2107.0</ele>
        <time>2019-10-12T16:56:40.900Z</time>
      </trkpt>
      <trkpt lat="20.23760167" lon="-98.73645333">
        <ele>2107.0</ele>
        <time>2019-10-12T16:56:41.904Z</time>
      </trkpt>
      <trkpt lat="20.23759333" lon="-98.73646">
        <ele>2108.0</ele>
        <time>2019-10-12T16:56:42.910Z</time>
      </trkpt>
      <trkpt lat="20.237585" lon="-98.73646833">
        <ele>2108.0</ele>
        <time>2019-10-12T16:56:43.916Z</time>
      </trkpt>
      <trkpt lat="20.23757667" lon="-98.736475">
        <ele>2109.0</ele>
        <time>2019-10-12T16:56:44.922Z</time>
      </trkpt>
      <trkpt lat="20.23756833" lon="-98.736485">
        <ele>2109.0</ele>
        <time>2019-10-12T16:56:45.924Z</time>
      </trkpt>
      <trkpt lat="20.23756333" lon="-98.736495">
        <ele>2109.0</ele>
        <time>2019-10-12T16:56:46.927Z</time>
      </trkpt>
      <trkpt lat="20.237555" lon="-98.73650333">
        <ele>2109.0</ele>
        <time>2019-10-12T16:56:47.933Z</time>
      </trkpt>
      <trkpt lat="20.23754667" lon="-98.73650667">
        <ele>2109.0</ele>
        <time>2019-10-12T16:56:48.939Z</time>
      </trkpt>
      <trkpt lat="20.237535" lon="-98.73651167">
        <ele>2110.0</ele>
        <time>2019-10-12T16:56:49.945Z</time>
      </trkpt>
      <trkpt lat="20.23752667" lon="-98.736515">
        <ele>2110.0</ele>
        <time>2019-10-12T16:56:50.948Z</time>
      </trkpt>
      <trkpt lat="20.23752" lon="-98.73652">
        <ele>2109.0</ele>
        <time>2019-10-12T16:56:51.949Z</time>
      </trkpt>
      <trkpt lat="20.23751167" lon="-98.73652833">
        <ele>2109.0</ele>
        <time>2019-10-12T16:56:52.950Z</time>
      </trkpt>
      <trkpt lat="20.23750167" lon="-98.73653667">
        <ele>2110.0</ele>
        <time>2019-10-12T16:56:53.955Z</time>
      </trkpt>
      <trkpt lat="20.23749" lon="-98.73654167">
        <ele>2110.0</ele>
        <time>2019-10-12T16:56:54.837Z</time>
      </trkpt>
      <trkpt lat="20.23748167" lon="-98.73654667">
        <ele>2110.0</ele>
        <time>2019-10-12T16:56:55.842Z</time>
      </trkpt>
      <trkpt lat="20.23747167" lon="-98.73655">
        <ele>2111.0</ele>
        <time>2019-10-12T16:56:56.845Z</time>
      </trkpt>
      <trkpt lat="20.23746167" lon="-98.73655167">
        <ele>2111.0</ele>
        <time>2019-10-12T16:56:57.850Z</time>
      </trkpt>
      <trkpt lat="20.23745167" lon="-98.736555">
        <ele>2111.0</ele>
        <time>2019-10-12T16:56:58.854Z</time>
      </trkpt>
      <trkpt lat="20.23744333" lon="-98.73655667">
        <ele>2111.0</ele>
        <time>2019-10-12T16:56:59.861Z</time>
      </trkpt>
      <trkpt lat="20.237435" lon="-98.73655833">
        <ele>2112.0</ele>
        <time>2019-10-12T16:57:00.866Z</time>
      </trkpt>
      <trkpt lat="20.23742333" lon="-98.73655667">
        <ele>2112.0</ele>
        <time>2019-10-12T16:57:01.870Z</time>
      </trkpt>
      <trkpt lat="20.23741333" lon="-98.73655833">
        <ele>2112.0</ele>
        <time>2019-10-12T16:57:02.875Z</time>
      </trkpt>
      <trkpt lat="20.23740167" lon="-98.73656167">
        <ele>2113.0</ele>
        <time>2019-10-12T16:57:03.880Z</time>
      </trkpt>
      <trkpt lat="20.23739167" lon="-98.73656167">
        <ele>2113.0</ele>
        <time>2019-10-12T16:57:04.884Z</time>
      </trkpt>
      <trkpt lat="20.23738" lon="-98.73656333">
        <ele>2114.0</ele>
        <time>2019-10-12T16:57:05.889Z</time>
      </trkpt>
      <trkpt lat="20.23736833" lon="-98.73656333">
        <ele>2114.0</ele>
        <time>2019-10-12T16:57:06.895Z</time>
      </trkpt>
      <trkpt lat="20.237355" lon="-98.73656333">
        <ele>2115.0</ele>
        <time>2019-10-12T16:57:07.899Z</time>
      </trkpt>
      <trkpt lat="20.237345" lon="-98.736565">
        <ele>2115.0</ele>
        <time>2019-10-12T16:57:08.903Z</time>
      </trkpt>
      <trkpt lat="20.23733167" lon="-98.736565">
        <ele>2116.0</ele>
        <time>2019-10-12T16:57:09.911Z</time>
      </trkpt>
      <trkpt lat="20.23732" lon="-98.73656667">
        <ele>2116.0</ele>
        <time>2019-10-12T16:57:10.916Z</time>
      </trkpt>
      <trkpt lat="20.23731" lon="-98.73656667">
        <ele>2117.0</ele>
        <time>2019-10-12T16:57:11.921Z</time>
      </trkpt>
      <trkpt lat="20.2373" lon="-98.73656667">
        <ele>2117.0</ele>
        <time>2019-10-12T16:57:12.924Z</time>
      </trkpt>
      <trkpt lat="20.23729" lon="-98.73656667">
        <ele>2117.0</ele>
        <time>2019-10-12T16:57:13.928Z</time>
      </trkpt>
      <trkpt lat="20.23728" lon="-98.73656667">
        <ele>2116.0</ele>
        <time>2019-10-12T16:57:14.934Z</time>
      </trkpt>
      <trkpt lat="20.23727" lon="-98.73656833">
        <ele>2117.0</ele>
        <time>2019-10-12T16:57:15.940Z</time>
      </trkpt>
      <trkpt lat="20.23726" lon="-98.73656667">
        <ele>2117.0</ele>
        <time>2019-10-12T16:57:16.945Z</time>
      </trkpt>
      <trkpt lat="20.23724667" lon="-98.73656167">
        <ele>2117.0</ele>
        <time>2019-10-12T16:57:17.949Z</time>
      </trkpt>
      <trkpt lat="20.237235" lon="-98.73656167">
        <ele>2117.0</ele>
        <time>2019-10-12T16:57:18.830Z</time>
      </trkpt>
      <trkpt lat="20.23722167" lon="-98.73656167">
        <ele>2118.0</ele>
        <time>2019-10-12T16:57:19.837Z</time>
      </trkpt>
      <trkpt lat="20.23721167" lon="-98.73656333">
        <ele>2118.0</ele>
        <time>2019-10-12T16:57:20.843Z</time>
      </trkpt>
      <trkpt lat="20.2372" lon="-98.736565">
        <ele>2118.0</ele>
        <time>2019-10-12T16:57:21.847Z</time>
      </trkpt>
      <trkpt lat="20.23718667" lon="-98.736565">
        <ele>2118.0</ele>
        <time>2019-10-12T16:57:22.848Z</time>
      </trkpt>
      <trkpt lat="20.237175" lon="-98.736565">
        <ele>2118.0</ele>
        <time>2019-10-12T16:57:23.849Z</time>
      </trkpt>
      <trkpt lat="20.237165" lon="-98.73656333">
        <ele>2119.0</ele>
        <time>2019-10-12T16:57:24.850Z</time>
      </trkpt>
      <trkpt lat="20.237155" lon="-98.73656167">
        <ele>2119.0</ele>
        <time>2019-10-12T16:57:25.853Z</time>
      </trkpt>
      <trkpt lat="20.23714333" lon="-98.73655833">
        <ele>2119.0</ele>
        <time>2019-10-12T16:57:26.859Z</time>
      </trkpt>
      <trkpt lat="20.23713167" lon="-98.73655667">
        <ele>2119.0</ele>
        <time>2019-10-12T16:57:27.864Z</time>
      </trkpt>
      <trkpt lat="20.23712167" lon="-98.736555">
        <ele>2120.0</ele>
        <time>2019-10-12T16:57:28.867Z</time>
      </trkpt>
      <trkpt lat="20.23711" lon="-98.73655333">
        <ele>2120.0</ele>
        <time>2019-10-12T16:57:29.874Z</time>
      </trkpt>
      <trkpt lat="20.2371" lon="-98.73655">
        <ele>2120.0</ele>
        <time>2019-10-12T16:57:30.879Z</time>
      </trkpt>
      <trkpt lat="20.23709" lon="-98.73654667">
        <ele>2121.0</ele>
        <time>2019-10-12T16:57:31.884Z</time>
      </trkpt>
      <trkpt lat="20.23707667" lon="-98.73654333">
        <ele>2122.0</ele>
        <time>2019-10-12T16:57:32.890Z</time>
      </trkpt>
      <trkpt lat="20.237065" lon="-98.73654167">
        <ele>2122.0</ele>
        <time>2019-10-12T16:57:33.897Z</time>
      </trkpt>
      <trkpt lat="20.237055" lon="-98.73654">
        <ele>2122.0</ele>
        <time>2019-10-12T16:57:34.902Z</time>
      </trkpt>
      <trkpt lat="20.23704333" lon="-98.73654">
        <ele>2122.0</ele>
        <time>2019-10-12T16:57:35.906Z</time>
      </trkpt>
      <trkpt lat="20.23703" lon="-98.73653833">
        <ele>2123.0</ele>
        <time>2019-10-12T16:57:36.911Z</time>
      </trkpt>
      <trkpt lat="20.23702" lon="-98.73654">
        <ele>2123.0</ele>
        <time>2019-10-12T16:57:37.912Z</time>
      </trkpt>
      <trkpt lat="20.23701" lon="-98.73654">
        <ele>2123.0</ele>
        <time>2019-10-12T16:57:38.915Z</time>
      </trkpt>
      <trkpt lat="20.23699833" lon="-98.73653833">
        <ele>2124.0</ele>
        <time>2019-10-12T16:57:39.921Z</time>
      </trkpt>
      <trkpt lat="20.23698833" lon="-98.73654">
        <ele>2124.0</ele>
        <time>2019-10-12T16:57:40.924Z</time>
      </trkpt>
      <trkpt lat="20.23698" lon="-98.736545">
        <ele>2124.0</ele>
        <time>2019-10-12T16:57:41.925Z</time>
      </trkpt>
      <trkpt lat="20.23696833" lon="-98.73655">
        <ele>2124.0</ele>
        <time>2019-10-12T16:57:42.926Z</time>
      </trkpt>
      <trkpt lat="20.23696" lon="-98.736555">
        <ele>2124.0</ele>
        <time>2019-10-12T16:57:43.930Z</time>
      </trkpt>
      <trkpt lat="20.23695" lon="-98.73656167">
        <ele>2124.0</ele>
        <time>2019-10-12T16:57:44.935Z</time>
      </trkpt>
      <trkpt lat="20.23694" lon="-98.73656833">
        <ele>2124.0</ele>
        <time>2019-10-12T16:57:45.940Z</time>
      </trkpt>
      <trkpt lat="20.23693333" lon="-98.736575">
        <ele>2125.0</ele>
        <time>2019-10-12T16:57:46.945Z</time>
      </trkpt>
      <trkpt lat="20.236925" lon="-98.73658333">
        <ele>2125.0</ele>
        <time>2019-10-12T16:57:47.951Z</time>
      </trkpt>
      <trkpt lat="20.23692" lon="-98.736595">
        <ele>2125.0</ele>
        <time>2019-10-12T16:57:48.953Z</time>
      </trkpt>
      <trkpt lat="20.23691333" lon="-98.73660833">
        <ele>2125.0</ele>
        <time>2019-10-12T16:57:49.833Z</time>
      </trkpt>
      <trkpt lat="20.23691" lon="-98.73662">
        <ele>2125.0</ele>
        <time>2019-10-12T16:57:50.838Z</time>
      </trkpt>
      <trkpt lat="20.23691" lon="-98.73663333">
        <ele>2125.0</ele>
        <time>2019-10-12T16:57:51.840Z</time>
      </trkpt>
      <trkpt lat="20.23691" lon="-98.73664667">
        <ele>2125.0</ele>
        <time>2019-10-12T16:57:52.846Z</time>
      </trkpt>
      <trkpt lat="20.23691167" lon="-98.73665833">
        <ele>2125.0</ele>
        <time>2019-10-12T16:57:53.851Z</time>
      </trkpt>
      <trkpt lat="20.236915" lon="-98.73667">
        <ele>2125.0</ele>
        <time>2019-10-12T16:57:54.857Z</time>
      </trkpt>
      <trkpt lat="20.23691833" lon="-98.73668333">
        <ele>2126.0</ele>
        <time>2019-10-12T16:57:55.863Z</time>
      </trkpt>
      <trkpt lat="20.23692167" lon="-98.736695">
        <ele>2126.0</ele>
        <time>2019-10-12T16:57:56.868Z</time>
      </trkpt>
      <trkpt lat="20.23692667" lon="-98.73670833">
        <ele>2127.0</ele>
        <time>2019-10-12T16:57:57.873Z</time>
      </trkpt>
      <trkpt lat="20.23693" lon="-98.73672">
        <ele>2127.0</ele>
        <time>2019-10-12T16:57:58.877Z</time>
      </trkpt>
      <trkpt lat="20.236935" lon="-98.73673333">
        <ele>2128.0</ele>
        <time>2019-10-12T16:57:59.878Z</time>
      </trkpt>
      <trkpt lat="20.23694167" lon="-98.736745">
        <ele>2128.0</ele>
        <time>2019-10-12T16:58:00.878Z</time>
      </trkpt>
      <trkpt lat="20.23695" lon="-98.73675667">
        <ele>2128.0</ele>
        <time>2019-10-12T16:58:01.879Z</time>
      </trkpt>
      <trkpt lat="20.23695833" lon="-98.73676833">
        <ele>2127.0</ele>
        <time>2019-10-12T16:58:02.880Z</time>
      </trkpt>
      <trkpt lat="20.23696333" lon="-98.73678">
        <ele>2127.0</ele>
        <time>2019-10-12T16:58:03.880Z</time>
      </trkpt>
      <trkpt lat="20.23697167" lon="-98.73679">
        <ele>2127.0</ele>
        <time>2019-10-12T16:58:04.881Z</time>
      </trkpt>
      <trkpt lat="20.23697833" lon="-98.7368">
        <ele>2127.0</ele>
        <time>2019-10-12T16:58:05.882Z</time>
      </trkpt>
      <trkpt lat="20.23698167" lon="-98.736815">
        <ele>2128.0</ele>
        <time>2019-10-12T16:58:06.889Z</time>
      </trkpt>
      <trkpt lat="20.23698667" lon="-98.73683167">
        <ele>2129.0</ele>
        <time>2019-10-12T16:58:07.893Z</time>
      </trkpt>
      <trkpt lat="20.23699" lon="-98.73685">
        <ele>2131.0</ele>
        <time>2019-10-12T16:58:08.897Z</time>
      </trkpt>
      <trkpt lat="20.23699167" lon="-98.73686833">
        <ele>2131.0</ele>
        <time>2019-10-12T16:58:09.902Z</time>
      </trkpt>
      <trkpt lat="20.23699333" lon="-98.73688333">
        <ele>2131.0</ele>
        <time>2019-10-12T16:58:10.907Z</time>
      </trkpt>
      <trkpt lat="20.23699167" lon="-98.73689833">
        <ele>2132.0</ele>
        <time>2019-10-12T16:58:11.915Z</time>
      </trkpt>
      <trkpt lat="20.23699333" lon="-98.73691667">
        <ele>2132.0</ele>
        <time>2019-10-12T16:58:12.921Z</time>
      </trkpt>
      <trkpt lat="20.236995" lon="-98.73692833">
        <ele>2132.0</ele>
        <time>2019-10-12T16:58:13.924Z</time>
      </trkpt>
      <trkpt lat="20.23699667" lon="-98.73694167">
        <ele>2133.0</ele>
        <time>2019-10-12T16:58:14.930Z</time>
      </trkpt>
      <trkpt lat="20.23699667" lon="-98.73695333">
        <ele>2133.0</ele>
        <time>2019-10-12T16:58:15.935Z</time>
      </trkpt>
      <trkpt lat="20.23699667" lon="-98.73696667">
        <ele>2133.0</ele>
        <time>2019-10-12T16:58:16.938Z</time>
      </trkpt>
      <trkpt lat="20.236995" lon="-98.73698">
        <ele>2133.0</ele>
        <time>2019-10-12T16:58:17.942Z</time>
      </trkpt>
      <trkpt lat="20.236995" lon="-98.73699333">
        <ele>2134.0</ele>
        <time>2019-10-12T16:58:18.948Z</time>
      </trkpt>
      <trkpt lat="20.23699333" lon="-98.73700667">
        <ele>2134.0</ele>
        <time>2019-10-12T16:58:19.955Z</time>
      </trkpt>
      <trkpt lat="20.23699333" lon="-98.73702">
        <ele>2134.0</ele>
        <time>2019-10-12T16:58:20.831Z</time>
      </trkpt>
      <trkpt lat="20.23699" lon="-98.73703167">
        <ele>2134.0</ele>
        <time>2019-10-12T16:58:21.832Z</time>
      </trkpt>
      <trkpt lat="20.23698833" lon="-98.73704667">
        <ele>2134.0</ele>
        <time>2019-10-12T16:58:22.833Z</time>
      </trkpt>
      <trkpt lat="20.23698833" lon="-98.73705833">
        <ele>2135.0</ele>
        <time>2019-10-12T16:58:23.834Z</time>
      </trkpt>
      <trkpt lat="20.23698667" lon="-98.73707167">
        <ele>2135.0</ele>
        <time>2019-10-12T16:58:24.835Z</time>
      </trkpt>
      <trkpt lat="20.236985" lon="-98.737085">
        <ele>2136.0</ele>
        <time>2019-10-12T16:58:25.835Z</time>
      </trkpt>
      <trkpt lat="20.23698167" lon="-98.737095">
        <ele>2136.0</ele>
        <time>2019-10-12T16:58:26.836Z</time>
      </trkpt>
      <trkpt lat="20.23697833" lon="-98.73710333">
        <ele>2136.0</ele>
        <time>2019-10-12T16:58:27.836Z</time>
      </trkpt>
      <trkpt lat="20.236975" lon="-98.73711167">
        <ele>2136.0</ele>
        <time>2019-10-12T16:58:28.840Z</time>
      </trkpt>
      <trkpt lat="20.23697333" lon="-98.73712333">
        <ele>2136.0</ele>
        <time>2019-10-12T16:58:29.847Z</time>
      </trkpt>
      <trkpt lat="20.23697" lon="-98.73713333">
        <ele>2136.0</ele>
        <time>2019-10-12T16:58:30.854Z</time>
      </trkpt>
      <trkpt lat="20.236965" lon="-98.73714333">
        <ele>2137.0</ele>
        <time>2019-10-12T16:58:31.861Z</time>
      </trkpt>
      <trkpt lat="20.23696333" lon="-98.73714833">
        <ele>2137.0</ele>
        <time>2019-10-12T16:58:32.866Z</time>
      </trkpt>
      <trkpt lat="20.23695833" lon="-98.73715667">
        <ele>2137.0</ele>
        <time>2019-10-12T16:58:33.869Z</time>
      </trkpt>
      <trkpt lat="20.236955" lon="-98.737165">
        <ele>2137.0</ele>
        <time>2019-10-12T16:58:34.874Z</time>
      </trkpt>
      <trkpt lat="20.23695" lon="-98.73717667">
        <ele>2137.0</ele>
        <time>2019-10-12T16:58:35.880Z</time>
      </trkpt>
      <trkpt lat="20.23694667" lon="-98.737185">
        <ele>2138.0</ele>
        <time>2019-10-12T16:58:36.883Z</time>
      </trkpt>
      <trkpt lat="20.236945" lon="-98.73719333">
        <ele>2138.0</ele>
        <time>2019-10-12T16:58:37.885Z</time>
      </trkpt>
      <trkpt lat="20.23694167" lon="-98.73720167">
        <ele>2138.0</ele>
        <time>2019-10-12T16:58:38.890Z</time>
      </trkpt>
      <trkpt lat="20.236935" lon="-98.73721">
        <ele>2138.0</ele>
        <time>2019-10-12T16:58:39.896Z</time>
      </trkpt>
      <trkpt lat="20.23693" lon="-98.737215">
        <ele>2138.0</ele>
        <time>2019-10-12T16:58:40.901Z</time>
      </trkpt>
      <trkpt lat="20.23692333" lon="-98.73722167">
        <ele>2138.0</ele>
        <time>2019-10-12T16:58:41.901Z</time>
      </trkpt>
      <trkpt lat="20.23691667" lon="-98.73723">
        <ele>2138.0</ele>
        <time>2019-10-12T16:58:42.901Z</time>
      </trkpt>
      <trkpt lat="20.23691333" lon="-98.73724">
        <ele>2138.0</ele>
        <time>2019-10-12T16:58:43.901Z</time>
      </trkpt>
      <trkpt lat="20.23690667" lon="-98.73725">
        <ele>2138.0</ele>
        <time>2019-10-12T16:58:44.902Z</time>
      </trkpt>
      <trkpt lat="20.2369" lon="-98.73726">
        <ele>2139.0</ele>
        <time>2019-10-12T16:58:45.902Z</time>
      </trkpt>
      <trkpt lat="20.23689667" lon="-98.73727">
        <ele>2139.0</ele>
        <time>2019-10-12T16:58:46.902Z</time>
      </trkpt>
      <trkpt lat="20.23689167" lon="-98.73727833">
        <ele>2139.0</ele>
        <time>2019-10-12T16:58:47.902Z</time>
      </trkpt>
      <trkpt lat="20.236885" lon="-98.73728667">
        <ele>2139.0</ele>
        <time>2019-10-12T16:58:48.903Z</time>
      </trkpt>
      <trkpt lat="20.23687833" lon="-98.737295">
        <ele>2139.0</ele>
        <time>2019-10-12T16:58:49.903Z</time>
      </trkpt>
      <trkpt lat="20.23687" lon="-98.73730167">
        <ele>2139.0</ele>
        <time>2019-10-12T16:58:50.903Z</time>
      </trkpt>
      <trkpt lat="20.236865" lon="-98.73731167">
        <ele>2140.0</ele>
        <time>2019-10-12T16:58:51.903Z</time>
      </trkpt>
      <trkpt lat="20.23686" lon="-98.73732333">
        <ele>2140.0</ele>
        <time>2019-10-12T16:58:52.904Z</time>
      </trkpt>
      <trkpt lat="20.23685333" lon="-98.73733333">
        <ele>2140.0</ele>
        <time>2019-10-12T16:58:53.905Z</time>
      </trkpt>
      <trkpt lat="20.23685167" lon="-98.737345">
        <ele>2140.0</ele>
        <time>2019-10-12T16:58:54.906Z</time>
      </trkpt>
      <trkpt lat="20.236845" lon="-98.73735667">
        <ele>2140.0</ele>
        <time>2019-10-12T16:58:55.907Z</time>
      </trkpt>
      <trkpt lat="20.23684" lon="-98.73736667">
        <ele>2141.0</ele>
        <time>2019-10-12T16:58:56.907Z</time>
      </trkpt>
      <trkpt lat="20.236835" lon="-98.73737833">
        <ele>2141.0</ele>
        <time>2019-10-12T16:58:57.908Z</time>
      </trkpt>
      <trkpt lat="20.23682833" lon="-98.73738667">
        <ele>2141.0</ele>
        <time>2019-10-12T16:58:58.908Z</time>
      </trkpt>
      <trkpt lat="20.23682333" lon="-98.737395">
        <ele>2141.0</ele>
        <time>2019-10-12T16:58:59.909Z</time>
      </trkpt>
      <trkpt lat="20.23681833" lon="-98.73740333">
        <ele>2141.0</ele>
        <time>2019-10-12T16:59:00.910Z</time>
      </trkpt>
      <trkpt lat="20.23681167" lon="-98.73741167">
        <ele>2141.0</ele>
        <time>2019-10-12T16:59:01.911Z</time>
      </trkpt>
      <trkpt lat="20.236805" lon="-98.73742">
        <ele>2141.0</ele>
        <time>2019-10-12T16:59:02.912Z</time>
      </trkpt>
      <trkpt lat="20.23679833" lon="-98.73742833">
        <ele>2142.0</ele>
        <time>2019-10-12T16:59:03.912Z</time>
      </trkpt>
      <trkpt lat="20.23679167" lon="-98.73744">
        <ele>2142.0</ele>
        <time>2019-10-12T16:59:04.913Z</time>
      </trkpt>
      <trkpt lat="20.23679" lon="-98.73745167">
        <ele>2142.0</ele>
        <time>2019-10-12T16:59:05.914Z</time>
      </trkpt>
      <trkpt lat="20.23678333" lon="-98.73746">
        <ele>2142.0</ele>
        <time>2019-10-12T16:59:06.915Z</time>
      </trkpt>
      <trkpt lat="20.23677667" lon="-98.73747">
        <ele>2142.0</ele>
        <time>2019-10-12T16:59:07.916Z</time>
      </trkpt>
      <trkpt lat="20.23677167" lon="-98.73748">
        <ele>2143.0</ele>
        <time>2019-10-12T16:59:08.917Z</time>
      </trkpt>
      <trkpt lat="20.23676667" lon="-98.73749167">
        <ele>2142.0</ele>
        <time>2019-10-12T16:59:09.918Z</time>
      </trkpt>
      <trkpt lat="20.23676667" lon="-98.73749167">
        <ele>2142.0</ele>
        <time>2019-10-12T16:59:10.918Z</time>
      </trkpt>
      <trkpt lat="20.236755" lon="-98.73751167">
        <ele>2143.0</ele>
        <time>2019-10-12T16:59:11.919Z</time>
      </trkpt>
      <trkpt lat="20.23674833" lon="-98.737525">
        <ele>2143.0</ele>
        <time>2019-10-12T16:59:12.919Z</time>
      </trkpt>
      <trkpt lat="20.23674167" lon="-98.737535">
        <ele>2144.0</ele>
        <time>2019-10-12T16:59:13.920Z</time>
      </trkpt>
      <trkpt lat="20.23673833" lon="-98.73755">
        <ele>2144.0</ele>
        <time>2019-10-12T16:59:14.921Z</time>
      </trkpt>
      <trkpt lat="20.23673333" lon="-98.73756167">
        <ele>2144.0</ele>
        <time>2019-10-12T16:59:15.922Z</time>
      </trkpt>
      <trkpt lat="20.23673" lon="-98.73757167">
        <ele>2144.0</ele>
        <time>2019-10-12T16:59:16.922Z</time>
      </trkpt>
      <trkpt lat="20.236725" lon="-98.73758333">
        <ele>2144.0</ele>
        <time>2019-10-12T16:59:17.922Z</time>
      </trkpt>
      <trkpt lat="20.23672333" lon="-98.73759167">
        <ele>2144.0</ele>
        <time>2019-10-12T16:59:18.922Z</time>
      </trkpt>
      <trkpt lat="20.23672" lon="-98.73760333">
        <ele>2144.0</ele>
        <time>2019-10-12T16:59:19.923Z</time>
      </trkpt>
      <trkpt lat="20.23671667" lon="-98.73761333">
        <ele>2144.0</ele>
        <time>2019-10-12T16:59:20.924Z</time>
      </trkpt>
      <trkpt lat="20.23671333" lon="-98.73762667">
        <ele>2145.0</ele>
        <time>2019-10-12T16:59:21.924Z</time>
      </trkpt>
      <trkpt lat="20.23670667" lon="-98.73764">
        <ele>2145.0</ele>
        <time>2019-10-12T16:59:22.926Z</time>
      </trkpt>
      <trkpt lat="20.2367" lon="-98.73765167">
        <ele>2145.0</ele>
        <time>2019-10-12T16:59:23.929Z</time>
      </trkpt>
      <trkpt lat="20.23669667" lon="-98.737665">
        <ele>2146.0</ele>
        <time>2019-10-12T16:59:24.934Z</time>
      </trkpt>
      <trkpt lat="20.23669333" lon="-98.73767833">
        <ele>2146.0</ele>
        <time>2019-10-12T16:59:25.940Z</time>
      </trkpt>
      <trkpt lat="20.23668667" lon="-98.73768833">
        <ele>2146.0</ele>
        <time>2019-10-12T16:59:26.947Z</time>
      </trkpt>
      <trkpt lat="20.23668" lon="-98.73770167">
        <ele>2147.0</ele>
        <time>2019-10-12T16:59:27.953Z</time>
      </trkpt>
      <trkpt lat="20.236675" lon="-98.737715">
        <ele>2147.0</ele>
        <time>2019-10-12T16:59:28.834Z</time>
      </trkpt>
      <trkpt lat="20.23667167" lon="-98.737725">
        <ele>2148.0</ele>
        <time>2019-10-12T16:59:29.839Z</time>
      </trkpt>
      <trkpt lat="20.23666667" lon="-98.73773667">
        <ele>2147.0</ele>
        <time>2019-10-12T16:59:30.846Z</time>
      </trkpt>
      <trkpt lat="20.23666333" lon="-98.73774667">
        <ele>2147.0</ele>
        <time>2019-10-12T16:59:31.851Z</time>
      </trkpt>
      <trkpt lat="20.23666" lon="-98.73775667">
        <ele>2147.0</ele>
        <time>2019-10-12T16:59:32.853Z</time>
      </trkpt>
      <trkpt lat="20.23665833" lon="-98.73776833">
        <ele>2147.0</ele>
        <time>2019-10-12T16:59:33.858Z</time>
      </trkpt>
      <trkpt lat="20.23665333" lon="-98.73777667">
        <ele>2147.0</ele>
        <time>2019-10-12T16:59:34.864Z</time>
      </trkpt>
      <trkpt lat="20.23664667" lon="-98.73778667">
        <ele>2147.0</ele>
        <time>2019-10-12T16:59:35.870Z</time>
      </trkpt>
      <trkpt lat="20.23664" lon="-98.73779667">
        <ele>2148.0</ele>
        <time>2019-10-12T16:59:36.874Z</time>
      </trkpt>
      <trkpt lat="20.23663167" lon="-98.73780833">
        <ele>2148.0</ele>
        <time>2019-10-12T16:59:37.878Z</time>
      </trkpt>
      <trkpt lat="20.23662667" lon="-98.73782333">
        <ele>2148.0</ele>
        <time>2019-10-12T16:59:38.885Z</time>
      </trkpt>
      <trkpt lat="20.23662167" lon="-98.73783333">
        <ele>2148.0</ele>
        <time>2019-10-12T16:59:39.891Z</time>
      </trkpt>
      <trkpt lat="20.23661667" lon="-98.73784167">
        <ele>2148.0</ele>
        <time>2019-10-12T16:59:40.894Z</time>
      </trkpt>
      <trkpt lat="20.23660833" lon="-98.73784667">
        <ele>2148.0</ele>
        <time>2019-10-12T16:59:41.900Z</time>
      </trkpt>
      <trkpt lat="20.23659833" lon="-98.737855">
        <ele>2148.0</ele>
        <time>2019-10-12T16:59:42.904Z</time>
      </trkpt>
      <trkpt lat="20.23658667" lon="-98.73785667">
        <ele>2148.0</ele>
        <time>2019-10-12T16:59:43.910Z</time>
      </trkpt>
      <trkpt lat="20.23657667" lon="-98.73785833">
        <ele>2148.0</ele>
        <time>2019-10-12T16:59:44.916Z</time>
      </trkpt>
      <trkpt lat="20.23657" lon="-98.73785833">
        <ele>2148.0</ele>
        <time>2019-10-12T16:59:45.922Z</time>
      </trkpt>
      <trkpt lat="20.23656" lon="-98.73785667">
        <ele>2149.0</ele>
        <time>2019-10-12T16:59:46.927Z</time>
      </trkpt>
      <trkpt lat="20.23655167" lon="-98.737855">
        <ele>2149.0</ele>
        <time>2019-10-12T16:59:47.932Z</time>
      </trkpt>
      <trkpt lat="20.23653833" lon="-98.73785333">
        <ele>2149.0</ele>
        <time>2019-10-12T16:59:48.938Z</time>
      </trkpt>
      <trkpt lat="20.23652667" lon="-98.73784833">
        <ele>2149.0</ele>
        <time>2019-10-12T16:59:49.944Z</time>
      </trkpt>
      <trkpt lat="20.23651667" lon="-98.73783833">
        <ele>2150.0</ele>
        <time>2019-10-12T16:59:50.947Z</time>
      </trkpt>
      <trkpt lat="20.23650667" lon="-98.73782667">
        <ele>2150.0</ele>
        <time>2019-10-12T16:59:51.951Z</time>
      </trkpt>
      <trkpt lat="20.236495" lon="-98.737815">
        <ele>2150.0</ele>
        <time>2019-10-12T16:59:52.830Z</time>
      </trkpt>
      <trkpt lat="20.236485" lon="-98.737805">
        <ele>2150.0</ele>
        <time>2019-10-12T16:59:53.837Z</time>
      </trkpt>
      <trkpt lat="20.236475" lon="-98.737795">
        <ele>2150.0</ele>
        <time>2019-10-12T16:59:54.838Z</time>
      </trkpt>
      <trkpt lat="20.23646833" lon="-98.73778667">
        <ele>2150.0</ele>
        <time>2019-10-12T16:59:55.845Z</time>
      </trkpt>
      <trkpt lat="20.23646167" lon="-98.73778">
        <ele>2150.0</ele>
        <time>2019-10-12T16:59:56.850Z</time>
      </trkpt>
      <trkpt lat="20.236455" lon="-98.73777167">
        <ele>2150.0</ele>
        <time>2019-10-12T16:59:57.856Z</time>
      </trkpt>
      <trkpt lat="20.23644667" lon="-98.73775833">
        <ele>2150.0</ele>
        <time>2019-10-12T16:59:58.863Z</time>
      </trkpt>
      <trkpt lat="20.23643833" lon="-98.737745">
        <ele>2150.0</ele>
        <time>2019-10-12T16:59:59.870Z</time>
      </trkpt>
      <trkpt lat="20.23642833" lon="-98.73773167">
        <ele>2150.0</ele>
        <time>2019-10-12T17:00:00.875Z</time>
      </trkpt>
      <trkpt lat="20.23642167" lon="-98.73771833">
        <ele>2150.0</ele>
        <time>2019-10-12T17:00:01.877Z</time>
      </trkpt>
      <trkpt lat="20.236415" lon="-98.73770667">
        <ele>2150.0</ele>
        <time>2019-10-12T17:00:02.880Z</time>
      </trkpt>
      <trkpt lat="20.23640667" lon="-98.73769167">
        <ele>2150.0</ele>
        <time>2019-10-12T17:00:03.885Z</time>
      </trkpt>
      <trkpt lat="20.2364" lon="-98.73767833">
        <ele>2150.0</ele>
        <time>2019-10-12T17:00:04.891Z</time>
      </trkpt>
      <trkpt lat="20.23639167" lon="-98.73766833">
        <ele>2150.0</ele>
        <time>2019-10-12T17:00:05.896Z</time>
      </trkpt>
      <trkpt lat="20.23638167" lon="-98.73765833">
        <ele>2150.0</ele>
        <time>2019-10-12T17:00:06.897Z</time>
      </trkpt>
      <trkpt lat="20.236375" lon="-98.73764833">
        <ele>2150.0</ele>
        <time>2019-10-12T17:00:07.898Z</time>
      </trkpt>
      <trkpt lat="20.23636667" lon="-98.73764">
        <ele>2150.0</ele>
        <time>2019-10-12T17:00:08.899Z</time>
      </trkpt>
      <trkpt lat="20.23635667" lon="-98.73762833">
        <ele>2150.0</ele>
        <time>2019-10-12T17:00:09.899Z</time>
      </trkpt>
      <trkpt lat="20.23635" lon="-98.73762">
        <ele>2151.0</ele>
        <time>2019-10-12T17:00:10.900Z</time>
      </trkpt>
      <trkpt lat="20.23634167" lon="-98.73760833">
        <ele>2151.0</ele>
        <time>2019-10-12T17:00:11.901Z</time>
      </trkpt>
      <trkpt lat="20.23633333" lon="-98.737595">
        <ele>2151.0</ele>
        <time>2019-10-12T17:00:12.904Z</time>
      </trkpt>
      <trkpt lat="20.236325" lon="-98.73758167">
        <ele>2151.0</ele>
        <time>2019-10-12T17:00:13.913Z</time>
      </trkpt>
      <trkpt lat="20.23631833" lon="-98.73757">
        <ele>2151.0</ele>
        <time>2019-10-12T17:00:14.918Z</time>
      </trkpt>
      <trkpt lat="20.23631" lon="-98.73755833">
        <ele>2152.0</ele>
        <time>2019-10-12T17:00:15.924Z</time>
      </trkpt>
      <trkpt lat="20.236305" lon="-98.73754833">
        <ele>2152.0</ele>
        <time>2019-10-12T17:00:16.929Z</time>
      </trkpt>
      <trkpt lat="20.23629667" lon="-98.73753833">
        <ele>2152.0</ele>
        <time>2019-10-12T17:00:17.935Z</time>
      </trkpt>
      <trkpt lat="20.23629" lon="-98.73752833">
        <ele>2153.0</ele>
        <time>2019-10-12T17:00:18.940Z</time>
      </trkpt>
      <trkpt lat="20.23628167" lon="-98.73751667">
        <ele>2153.0</ele>
        <time>2019-10-12T17:00:19.947Z</time>
      </trkpt>
      <trkpt lat="20.236275" lon="-98.73750833">
        <ele>2153.0</ele>
        <time>2019-10-12T17:00:20.951Z</time>
      </trkpt>
      <trkpt lat="20.23626833" lon="-98.73749833">
        <ele>2153.0</ele>
        <time>2019-10-12T17:00:21.832Z</time>
      </trkpt>
      <trkpt lat="20.23625833" lon="-98.73748667">
        <ele>2153.0</ele>
        <time>2019-10-12T17:00:22.838Z</time>
      </trkpt>
      <trkpt lat="20.23625167" lon="-98.737475">
        <ele>2153.0</ele>
        <time>2019-10-12T17:00:23.842Z</time>
      </trkpt>
      <trkpt lat="20.23624333" lon="-98.73746667">
        <ele>2153.0</ele>
        <time>2019-10-12T17:00:24.847Z</time>
      </trkpt>
      <trkpt lat="20.23623833" lon="-98.737455">
        <ele>2153.0</ele>
        <time>2019-10-12T17:00:25.849Z</time>
      </trkpt>
      <trkpt lat="20.23623" lon="-98.73744333">
        <ele>2153.0</ele>
        <time>2019-10-12T17:00:26.850Z</time>
      </trkpt>
      <trkpt lat="20.23622333" lon="-98.73743167">
        <ele>2153.0</ele>
        <time>2019-10-12T17:00:27.851Z</time>
      </trkpt>
      <trkpt lat="20.23621667" lon="-98.73741833">
        <ele>2153.0</ele>
        <time>2019-10-12T17:00:28.852Z</time>
      </trkpt>
      <trkpt lat="20.23620833" lon="-98.73740667">
        <ele>2153.0</ele>
        <time>2019-10-12T17:00:29.859Z</time>
      </trkpt>
      <trkpt lat="20.23620167" lon="-98.737395">
        <ele>2153.0</ele>
        <time>2019-10-12T17:00:30.863Z</time>
      </trkpt>
      <trkpt lat="20.23619167" lon="-98.737385">
        <ele>2153.0</ele>
        <time>2019-10-12T17:00:31.866Z</time>
      </trkpt>
      <trkpt lat="20.236185" lon="-98.73737333">
        <ele>2153.0</ele>
        <time>2019-10-12T17:00:32.873Z</time>
      </trkpt>
      <trkpt lat="20.23617833" lon="-98.73736167">
        <ele>2154.0</ele>
        <time>2019-10-12T17:00:33.880Z</time>
      </trkpt>
      <trkpt lat="20.23617167" lon="-98.73735167">
        <ele>2154.0</ele>
        <time>2019-10-12T17:00:34.885Z</time>
      </trkpt>
      <trkpt lat="20.23616333" lon="-98.73734">
        <ele>2154.0</ele>
        <time>2019-10-12T17:00:35.892Z</time>
      </trkpt>
      <trkpt lat="20.236155" lon="-98.73732667">
        <ele>2154.0</ele>
        <time>2019-10-12T17:00:36.897Z</time>
      </trkpt>
      <trkpt lat="20.23614833" lon="-98.73731333">
        <ele>2154.0</ele>
        <time>2019-10-12T17:00:37.904Z</time>
      </trkpt>
      <trkpt lat="20.23614" lon="-98.73730333">
        <ele>2155.0</ele>
        <time>2019-10-12T17:00:38.910Z</time>
      </trkpt>
      <trkpt lat="20.23613" lon="-98.73729">
        <ele>2155.0</ele>
        <time>2019-10-12T17:00:39.918Z</time>
      </trkpt>
      <trkpt lat="20.23611833" lon="-98.73728">
        <ele>2156.0</ele>
        <time>2019-10-12T17:00:40.922Z</time>
      </trkpt>
      <trkpt lat="20.23610833" lon="-98.73727167">
        <ele>2156.0</ele>
        <time>2019-10-12T17:00:41.924Z</time>
      </trkpt>
      <trkpt lat="20.23609833" lon="-98.73726667">
        <ele>2156.0</ele>
        <time>2019-10-12T17:00:42.929Z</time>
      </trkpt>
      <trkpt lat="20.23608833" lon="-98.73726167">
        <ele>2156.0</ele>
        <time>2019-10-12T17:00:43.934Z</time>
      </trkpt>
      <trkpt lat="20.23608" lon="-98.73725667">
        <ele>2156.0</ele>
        <time>2019-10-12T17:00:44.937Z</time>
      </trkpt>
      <trkpt lat="20.23607167" lon="-98.73725167">
        <ele>2157.0</ele>
        <time>2019-10-12T17:00:45.944Z</time>
      </trkpt>
      <trkpt lat="20.23606167" lon="-98.737245">
        <ele>2157.0</ele>
        <time>2019-10-12T17:00:46.948Z</time>
      </trkpt>
      <trkpt lat="20.23604667" lon="-98.73724">
        <ele>2158.0</ele>
        <time>2019-10-12T17:00:47.951Z</time>
      </trkpt>
      <trkpt lat="20.236035" lon="-98.73723833">
        <ele>2158.0</ele>
        <time>2019-10-12T17:00:48.830Z</time>
      </trkpt>
      <trkpt lat="20.23602667" lon="-98.73723667">
        <ele>2158.0</ele>
        <time>2019-10-12T17:00:49.837Z</time>
      </trkpt>
      <trkpt lat="20.23601833" lon="-98.73723667">
        <ele>2158.0</ele>
        <time>2019-10-12T17:00:50.842Z</time>
      </trkpt>
      <trkpt lat="20.23601167" lon="-98.73724167">
        <ele>2158.0</ele>
        <time>2019-10-12T17:00:51.846Z</time>
      </trkpt>
      <trkpt lat="20.23600167" lon="-98.73724667">
        <ele>2158.0</ele>
        <time>2019-10-12T17:00:52.854Z</time>
      </trkpt>
      <trkpt lat="20.23599" lon="-98.73725">
        <ele>2158.0</ele>
        <time>2019-10-12T17:00:53.860Z</time>
      </trkpt>
      <trkpt lat="20.23598" lon="-98.737255">
        <ele>2158.0</ele>
        <time>2019-10-12T17:00:54.867Z</time>
      </trkpt>
      <trkpt lat="20.23597167" lon="-98.73726333">
        <ele>2158.0</ele>
        <time>2019-10-12T17:00:55.873Z</time>
      </trkpt>
      <trkpt lat="20.23596333" lon="-98.73727333">
        <ele>2159.0</ele>
        <time>2019-10-12T17:00:56.874Z</time>
      </trkpt>
      <trkpt lat="20.23595167" lon="-98.73728167">
        <ele>2159.0</ele>
        <time>2019-10-12T17:00:57.875Z</time>
      </trkpt>
      <trkpt lat="20.23594167" lon="-98.73729">
        <ele>2159.0</ele>
        <time>2019-10-12T17:00:58.875Z</time>
      </trkpt>
      <trkpt lat="20.23592667" lon="-98.7373">
        <ele>2159.0</ele>
        <time>2019-10-12T17:00:59.876Z</time>
      </trkpt>
      <trkpt lat="20.235915" lon="-98.73731167">
        <ele>2160.0</ele>
        <time>2019-10-12T17:01:00.877Z</time>
      </trkpt>
      <trkpt lat="20.23590833" lon="-98.73732333">
        <ele>2160.0</ele>
        <time>2019-10-12T17:01:01.878Z</time>
      </trkpt>
      <trkpt lat="20.2359" lon="-98.737335">
        <ele>2160.0</ele>
        <time>2019-10-12T17:01:02.879Z</time>
      </trkpt>
      <trkpt lat="20.23589" lon="-98.73734833">
        <ele>2160.0</ele>
        <time>2019-10-12T17:01:03.882Z</time>
      </trkpt>
      <trkpt lat="20.23587833" lon="-98.73735833">
        <ele>2160.0</ele>
        <time>2019-10-12T17:01:04.889Z</time>
      </trkpt>
      <trkpt lat="20.23586833" lon="-98.73737">
        <ele>2161.0</ele>
        <time>2019-10-12T17:01:05.894Z</time>
      </trkpt>
      <trkpt lat="20.23585667" lon="-98.73738167">
        <ele>2161.0</ele>
        <time>2019-10-12T17:01:06.897Z</time>
      </trkpt>
      <trkpt lat="20.235845" lon="-98.73739167">
        <ele>2162.0</ele>
        <time>2019-10-12T17:01:07.901Z</time>
      </trkpt>
      <trkpt lat="20.23583333" lon="-98.73740333">
        <ele>2162.0</ele>
        <time>2019-10-12T17:01:08.906Z</time>
      </trkpt>
      <trkpt lat="20.23582167" lon="-98.73741333">
        <ele>2163.0</ele>
        <time>2019-10-12T17:01:09.911Z</time>
      </trkpt>
      <trkpt lat="20.23581" lon="-98.73741667">
        <ele>2163.0</ele>
        <time>2019-10-12T17:01:10.916Z</time>
      </trkpt>
      <trkpt lat="20.2358" lon="-98.73741667">
        <ele>2163.0</ele>
        <time>2019-10-12T17:01:11.919Z</time>
      </trkpt>
      <trkpt lat="20.23579" lon="-98.73742167">
        <ele>2164.0</ele>
        <time>2019-10-12T17:01:12.924Z</time>
      </trkpt>
      <trkpt lat="20.23577833" lon="-98.73743167">
        <ele>2164.0</ele>
        <time>2019-10-12T17:01:13.931Z</time>
      </trkpt>
      <trkpt lat="20.23576667" lon="-98.73743833">
        <ele>2164.0</ele>
        <time>2019-10-12T17:01:14.934Z</time>
      </trkpt>
      <trkpt lat="20.235755" lon="-98.73744167">
        <ele>2164.0</ele>
        <time>2019-10-12T17:01:15.939Z</time>
      </trkpt>
      <trkpt lat="20.23574333" lon="-98.737445">
        <ele>2164.0</ele>
        <time>2019-10-12T17:01:16.945Z</time>
      </trkpt>
      <trkpt lat="20.23573167" lon="-98.73744667">
        <ele>2164.0</ele>
        <time>2019-10-12T17:01:17.946Z</time>
      </trkpt>
      <trkpt lat="20.23572" lon="-98.73745">
        <ele>2164.0</ele>
        <time>2019-10-12T17:01:18.946Z</time>
      </trkpt>
      <trkpt lat="20.23570667" lon="-98.73745167">
        <ele>2165.0</ele>
        <time>2019-10-12T17:01:19.946Z</time>
      </trkpt>
      <trkpt lat="20.23569333" lon="-98.73745167">
        <ele>2165.0</ele>
        <time>2019-10-12T17:01:20.946Z</time>
      </trkpt>
      <trkpt lat="20.23567833" lon="-98.73745">
        <ele>2165.0</ele>
        <time>2019-10-12T17:01:21.946Z</time>
      </trkpt>
      <trkpt lat="20.235665" lon="-98.73744667">
        <ele>2165.0</ele>
        <time>2019-10-12T17:01:22.950Z</time>
      </trkpt>
      <trkpt lat="20.23565167" lon="-98.73744167">
        <ele>2165.0</ele>
        <time>2019-10-12T17:01:23.830Z</time>
      </trkpt>
      <trkpt lat="20.235645" lon="-98.73743333">
        <ele>2165.0</ele>
        <time>2019-10-12T17:01:24.835Z</time>
      </trkpt>
      <trkpt lat="20.23563667" lon="-98.73742333">
        <ele>2165.0</ele>
        <time>2019-10-12T17:01:25.840Z</time>
      </trkpt>
      <trkpt lat="20.23563" lon="-98.73741167">
        <ele>2165.0</ele>
        <time>2019-10-12T17:01:26.844Z</time>
      </trkpt>
      <trkpt lat="20.235625" lon="-98.7374">
        <ele>2165.0</ele>
        <time>2019-10-12T17:01:27.850Z</time>
      </trkpt>
      <trkpt lat="20.23562167" lon="-98.73739">
        <ele>2165.0</ele>
        <time>2019-10-12T17:01:28.856Z</time>
      </trkpt>
      <trkpt lat="20.23562" lon="-98.73737833">
        <ele>2165.0</ele>
        <time>2019-10-12T17:01:29.861Z</time>
      </trkpt>
      <trkpt lat="20.23561667" lon="-98.73736833">
        <ele>2165.0</ele>
        <time>2019-10-12T17:01:30.864Z</time>
      </trkpt>
      <trkpt lat="20.23561333" lon="-98.73735667">
        <ele>2165.0</ele>
        <time>2019-10-12T17:01:31.871Z</time>
      </trkpt>
      <trkpt lat="20.23561" lon="-98.737345">
        <ele>2165.0</ele>
        <time>2019-10-12T17:01:32.875Z</time>
      </trkpt>
      <trkpt lat="20.23560833" lon="-98.73733167">
        <ele>2165.0</ele>
        <time>2019-10-12T17:01:33.880Z</time>
      </trkpt>
      <trkpt lat="20.23560833" lon="-98.73731667">
        <ele>2166.0</ele>
        <time>2019-10-12T17:01:34.885Z</time>
      </trkpt>
      <trkpt lat="20.23561" lon="-98.73730333">
        <ele>2166.0</ele>
        <time>2019-10-12T17:01:35.889Z</time>
      </trkpt>
      <trkpt lat="20.23561" lon="-98.73728833">
        <ele>2167.0</ele>
        <time>2019-10-12T17:01:36.894Z</time>
      </trkpt>
      <trkpt lat="20.23561" lon="-98.737275">
        <ele>2167.0</ele>
        <time>2019-10-12T17:01:37.894Z</time>
      </trkpt>
      <trkpt lat="20.23560833" lon="-98.73726167">
        <ele>2167.0</ele>
        <time>2019-10-12T17:01:38.895Z</time>
      </trkpt>
      <trkpt lat="20.23560667" lon="-98.73725">
        <ele>2167.0</ele>
        <time>2019-10-12T17:01:39.896Z</time>
      </trkpt>
      <trkpt lat="20.23560333" lon="-98.73723833">
        <ele>2167.0</ele>
        <time>2019-10-12T17:01:40.897Z</time>
      </trkpt>
      <trkpt lat="20.23560333" lon="-98.73722667">
        <ele>2166.0</ele>
        <time>2019-10-12T17:01:41.898Z</time>
      </trkpt>
      <trkpt lat="20.23559833" lon="-98.737215">
        <ele>2166.0</ele>
        <time>2019-10-12T17:01:42.902Z</time>
      </trkpt>
      <trkpt lat="20.235595" lon="-98.737205">
        <ele>2166.0</ele>
        <time>2019-10-12T17:01:43.907Z</time>
      </trkpt>
      <trkpt lat="20.23558833" lon="-98.737195">
        <ele>2166.0</ele>
        <time>2019-10-12T17:01:44.911Z</time>
      </trkpt>
      <trkpt lat="20.23558167" lon="-98.737185">
        <ele>2166.0</ele>
        <time>2019-10-12T17:01:45.913Z</time>
      </trkpt>
      <trkpt lat="20.23557667" lon="-98.73717667">
        <ele>2166.0</ele>
        <time>2019-10-12T17:01:46.920Z</time>
      </trkpt>
      <trkpt lat="20.23557" lon="-98.73716833">
        <ele>2165.0</ele>
        <time>2019-10-12T17:01:47.926Z</time>
      </trkpt>
      <trkpt lat="20.235565" lon="-98.73716333">
        <ele>2166.0</ele>
        <time>2019-10-12T17:01:48.933Z</time>
      </trkpt>
      <trkpt lat="20.23556" lon="-98.73715833">
        <ele>2166.0</ele>
        <time>2019-10-12T17:01:49.940Z</time>
      </trkpt>
      <trkpt lat="20.235555" lon="-98.737155">
        <ele>2166.0</ele>
        <time>2019-10-12T17:01:50.944Z</time>
      </trkpt>
      <trkpt lat="20.23554833" lon="-98.73715333">
        <ele>2166.0</ele>
        <time>2019-10-12T17:01:51.948Z</time>
      </trkpt>
      <trkpt lat="20.23553833" lon="-98.73715667">
        <ele>2166.0</ele>
        <time>2019-10-12T17:01:52.951Z</time>
      </trkpt>
      <trkpt lat="20.23553" lon="-98.73716167">
        <ele>2166.0</ele>
        <time>2019-10-12T17:01:53.951Z</time>
      </trkpt>
      <trkpt lat="20.23552167" lon="-98.73717167">
        <ele>2167.0</ele>
        <time>2019-10-12T17:01:54.952Z</time>
      </trkpt>
      <trkpt lat="20.23551167" lon="-98.73718167">
        <ele>2167.0</ele>
        <time>2019-10-12T17:01:55.832Z</time>
      </trkpt>
      <trkpt lat="20.23550167" lon="-98.73719167">
        <ele>2168.0</ele>
        <time>2019-10-12T17:01:56.835Z</time>
      </trkpt>
      <trkpt lat="20.235495" lon="-98.737205">
        <ele>2169.0</ele>
        <time>2019-10-12T17:01:57.838Z</time>
      </trkpt>
      <trkpt lat="20.23548833" lon="-98.73721667">
        <ele>2169.0</ele>
        <time>2019-10-12T17:01:58.843Z</time>
      </trkpt>
      <trkpt lat="20.23548333" lon="-98.73723">
        <ele>2170.0</ele>
        <time>2019-10-12T17:01:59.848Z</time>
      </trkpt>
      <trkpt lat="20.23548" lon="-98.73724333">
        <ele>2171.0</ele>
        <time>2019-10-12T17:02:00.854Z</time>
      </trkpt>
      <trkpt lat="20.23547333" lon="-98.73725667">
        <ele>2172.0</ele>
        <time>2019-10-12T17:02:01.858Z</time>
      </trkpt>
      <trkpt lat="20.235465" lon="-98.737265">
        <ele>2172.0</ele>
        <time>2019-10-12T17:02:02.862Z</time>
      </trkpt>
      <trkpt lat="20.23546167" lon="-98.73727167">
        <ele>2173.0</ele>
        <time>2019-10-12T17:02:03.869Z</time>
      </trkpt>
      <trkpt lat="20.23545333" lon="-98.73727833">
        <ele>2173.0</ele>
        <time>2019-10-12T17:02:04.875Z</time>
      </trkpt>
      <trkpt lat="20.23544167" lon="-98.73728833">
        <ele>2174.0</ele>
        <time>2019-10-12T17:02:05.880Z</time>
      </trkpt>
      <trkpt lat="20.235435" lon="-98.73729833">
        <ele>2174.0</ele>
        <time>2019-10-12T17:02:06.882Z</time>
      </trkpt>
      <trkpt lat="20.23542667" lon="-98.73730833">
        <ele>2174.0</ele>
        <time>2019-10-12T17:02:07.884Z</time>
      </trkpt>
      <trkpt lat="20.23542" lon="-98.73731833">
        <ele>2174.0</ele>
        <time>2019-10-12T17:02:08.887Z</time>
      </trkpt>
      <trkpt lat="20.23541" lon="-98.73732833">
        <ele>2174.0</ele>
        <time>2019-10-12T17:02:09.891Z</time>
      </trkpt>
      <trkpt lat="20.2354" lon="-98.73733833">
        <ele>2175.0</ele>
        <time>2019-10-12T17:02:10.896Z</time>
      </trkpt>
      <trkpt lat="20.23539167" lon="-98.73734667">
        <ele>2175.0</ele>
        <time>2019-10-12T17:02:11.904Z</time>
      </trkpt>
      <trkpt lat="20.23538333" lon="-98.73735333">
        <ele>2175.0</ele>
        <time>2019-10-12T17:02:12.911Z</time>
      </trkpt>
      <trkpt lat="20.235375" lon="-98.73736333">
        <ele>2176.0</ele>
        <time>2019-10-12T17:02:13.916Z</time>
      </trkpt>
      <trkpt lat="20.23536667" lon="-98.73737333">
        <ele>2176.0</ele>
        <time>2019-10-12T17:02:14.918Z</time>
      </trkpt>
      <trkpt lat="20.23535833" lon="-98.73738">
        <ele>2177.0</ele>
        <time>2019-10-12T17:02:15.923Z</time>
      </trkpt>
      <trkpt lat="20.23534667" lon="-98.73738833">
        <ele>2177.0</ele>
        <time>2019-10-12T17:02:16.928Z</time>
      </trkpt>
      <trkpt lat="20.23533667" lon="-98.737395">
        <ele>2178.0</ele>
        <time>2019-10-12T17:02:17.934Z</time>
      </trkpt>
      <trkpt lat="20.23533" lon="-98.73740333">
        <ele>2178.0</ele>
        <time>2019-10-12T17:02:18.938Z</time>
      </trkpt>
      <trkpt lat="20.23532667" lon="-98.73741167">
        <ele>2179.0</ele>
        <time>2019-10-12T17:02:19.944Z</time>
      </trkpt>
      <trkpt lat="20.23532167" lon="-98.73741667">
        <ele>2179.0</ele>
        <time>2019-10-12T17:02:20.949Z</time>
      </trkpt>
      <trkpt lat="20.23531167" lon="-98.73742333">
        <ele>2180.0</ele>
        <time>2019-10-12T17:02:21.830Z</time>
      </trkpt>
      <trkpt lat="20.235305" lon="-98.73742667">
        <ele>2180.0</ele>
        <time>2019-10-12T17:02:22.836Z</time>
      </trkpt>
      <trkpt lat="20.23529667" lon="-98.73743167">
        <ele>2181.0</ele>
        <time>2019-10-12T17:02:23.842Z</time>
      </trkpt>
      <trkpt lat="20.23528833" lon="-98.737435">
        <ele>2181.0</ele>
        <time>2019-10-12T17:02:24.848Z</time>
      </trkpt>
      <trkpt lat="20.23527833" lon="-98.73743833">
        <ele>2181.0</ele>
        <time>2019-10-12T17:02:25.851Z</time>
      </trkpt>
      <trkpt lat="20.23526667" lon="-98.73744">
        <ele>2181.0</ele>
        <time>2019-10-12T17:02:26.858Z</time>
      </trkpt>
      <trkpt lat="20.23525833" lon="-98.73744333">
        <ele>2182.0</ele>
        <time>2019-10-12T17:02:27.865Z</time>
      </trkpt>
      <trkpt lat="20.23525" lon="-98.73744333">
        <ele>2182.0</ele>
        <time>2019-10-12T17:02:28.869Z</time>
      </trkpt>
      <trkpt lat="20.23523833" lon="-98.73744167">
        <ele>2182.0</ele>
        <time>2019-10-12T17:02:29.870Z</time>
      </trkpt>
      <trkpt lat="20.23522667" lon="-98.73744167">
        <ele>2182.0</ele>
        <time>2019-10-12T17:02:30.871Z</time>
      </trkpt>
      <trkpt lat="20.23521833" lon="-98.73744167">
        <ele>2182.0</ele>
        <time>2019-10-12T17:02:31.872Z</time>
      </trkpt>
      <trkpt lat="20.235205" lon="-98.73744">
        <ele>2182.0</ele>
        <time>2019-10-12T17:02:32.878Z</time>
      </trkpt>
      <trkpt lat="20.235195" lon="-98.73744">
        <ele>2182.0</ele>
        <time>2019-10-12T17:02:33.879Z</time>
      </trkpt>
      <trkpt lat="20.23518333" lon="-98.73743833">
        <ele>2181.0</ele>
        <time>2019-10-12T17:02:34.882Z</time>
      </trkpt>
      <trkpt lat="20.23517333" lon="-98.73744">
        <ele>2182.0</ele>
        <time>2019-10-12T17:02:35.889Z</time>
      </trkpt>
      <trkpt lat="20.23516" lon="-98.73744333">
        <ele>2182.0</ele>
        <time>2019-10-12T17:02:36.895Z</time>
      </trkpt>
      <trkpt lat="20.23514333" lon="-98.737445">
        <ele>2182.0</ele>
        <time>2019-10-12T17:02:37.897Z</time>
      </trkpt>
      <trkpt lat="20.23513" lon="-98.73744833">
        <ele>2183.0</ele>
        <time>2019-10-12T17:02:38.902Z</time>
      </trkpt>
      <trkpt lat="20.23511333" lon="-98.737455">
        <ele>2182.0</ele>
        <time>2019-10-12T17:02:39.907Z</time>
      </trkpt>
      <trkpt lat="20.23509167" lon="-98.73746167">
        <ele>2181.0</ele>
        <time>2019-10-12T17:02:40.909Z</time>
      </trkpt>
      <trkpt lat="20.23507333" lon="-98.73746333">
        <ele>2181.0</ele>
        <time>2019-10-12T17:02:41.910Z</time>
      </trkpt>
      <trkpt lat="20.23505667" lon="-98.73746667">
        <ele>2180.0</ele>
        <time>2019-10-12T17:02:42.912Z</time>
      </trkpt>
      <trkpt lat="20.23503833" lon="-98.73747167">
        <ele>2179.0</ele>
        <time>2019-10-12T17:02:43.914Z</time>
      </trkpt>
      <trkpt lat="20.23502167" lon="-98.73747833">
        <ele>2179.0</ele>
        <time>2019-10-12T17:02:44.921Z</time>
      </trkpt>
      <trkpt lat="20.23500833" lon="-98.73748833">
        <ele>2179.0</ele>
        <time>2019-10-12T17:02:45.926Z</time>
      </trkpt>
      <trkpt lat="20.235" lon="-98.7375">
        <ele>2179.0</ele>
        <time>2019-10-12T17:02:46.929Z</time>
      </trkpt>
      <trkpt lat="20.23499167" lon="-98.73751">
        <ele>2179.0</ele>
        <time>2019-10-12T17:02:47.934Z</time>
      </trkpt>
      <trkpt lat="20.23498333" lon="-98.73752333">
        <ele>2180.0</ele>
        <time>2019-10-12T17:02:48.939Z</time>
      </trkpt>
      <trkpt lat="20.23497667" lon="-98.73753833">
        <ele>2180.0</ele>
        <time>2019-10-12T17:02:49.945Z</time>
      </trkpt>
      <trkpt lat="20.23497167" lon="-98.737555">
        <ele>2181.0</ele>
        <time>2019-10-12T17:02:50.948Z</time>
      </trkpt>
      <trkpt lat="20.23496333" lon="-98.73756833">
        <ele>2181.0</ele>
        <time>2019-10-12T17:02:51.949Z</time>
      </trkpt>
      <trkpt lat="20.23495167" lon="-98.73758167">
        <ele>2181.0</ele>
        <time>2019-10-12T17:02:52.950Z</time>
      </trkpt>
      <trkpt lat="20.23494167" lon="-98.737595">
        <ele>2181.0</ele>
        <time>2019-10-12T17:02:53.951Z</time>
      </trkpt>
      <trkpt lat="20.23492833" lon="-98.73760667">
        <ele>2181.0</ele>
        <time>2019-10-12T17:02:54.952Z</time>
      </trkpt>
      <trkpt lat="20.23491667" lon="-98.73762">
        <ele>2181.0</ele>
        <time>2019-10-12T17:02:55.952Z</time>
      </trkpt>
      <trkpt lat="20.23490833" lon="-98.73763167">
        <ele>2182.0</ele>
        <time>2019-10-12T17:02:56.953Z</time>
      </trkpt>
      <trkpt lat="20.23489667" lon="-98.73764">
        <ele>2183.0</ele>
        <time>2019-10-12T17:02:57.954Z</time>
      </trkpt>
      <trkpt lat="20.23488667" lon="-98.73764833">
        <ele>2183.0</ele>
        <time>2019-10-12T17:02:58.954Z</time>
      </trkpt>
      <trkpt lat="20.23487" lon="-98.73766167">
        <ele>2183.0</ele>
        <time>2019-10-12T17:02:59.830Z</time>
      </trkpt>
      <trkpt lat="20.23485833" lon="-98.73767667">
        <ele>2183.0</ele>
        <time>2019-10-12T17:03:00.834Z</time>
      </trkpt>
      <trkpt lat="20.23485167" lon="-98.73769667">
        <ele>2184.0</ele>
        <time>2019-10-12T17:03:01.840Z</time>
      </trkpt>
      <trkpt lat="20.23484667" lon="-98.73770833">
        <ele>2185.0</ele>
        <time>2019-10-12T17:03:02.846Z</time>
      </trkpt>
      <trkpt lat="20.23484167" lon="-98.73772">
        <ele>2186.0</ele>
        <time>2019-10-12T17:03:03.851Z</time>
      </trkpt>
      <trkpt lat="20.23483833" lon="-98.737725">
        <ele>2186.0</ele>
        <time>2019-10-12T17:03:04.856Z</time>
      </trkpt>
      <trkpt lat="20.234835" lon="-98.737735">
        <ele>2186.0</ele>
        <time>2019-10-12T17:03:05.859Z</time>
      </trkpt>
      <trkpt lat="20.234835" lon="-98.73774833">
        <ele>2186.0</ele>
        <time>2019-10-12T17:03:06.866Z</time>
      </trkpt>
      <trkpt lat="20.23483333" lon="-98.73775833">
        <ele>2187.0</ele>
        <time>2019-10-12T17:03:07.871Z</time>
      </trkpt>
      <trkpt lat="20.23482833" lon="-98.737765">
        <ele>2187.0</ele>
        <time>2019-10-12T17:03:08.876Z</time>
      </trkpt>
      <trkpt lat="20.23482167" lon="-98.737775">
        <ele>2188.0</ele>
        <time>2019-10-12T17:03:09.881Z</time>
      </trkpt>
      <trkpt lat="20.23481667" lon="-98.73778667">
        <ele>2189.0</ele>
        <time>2019-10-12T17:03:10.883Z</time>
      </trkpt>
      <trkpt lat="20.23480667" lon="-98.737785">
        <ele>2189.0</ele>
        <time>2019-10-12T17:03:11.890Z</time>
      </trkpt>
      <trkpt lat="20.23479833" lon="-98.73778">
        <ele>2188.0</ele>
        <time>2019-10-12T17:03:12.896Z</time>
      </trkpt>
      <trkpt lat="20.23479667" lon="-98.73778">
        <ele>2188.0</ele>
        <time>2019-10-12T17:03:13.902Z</time>
      </trkpt>
      <trkpt lat="20.234795" lon="-98.73779167">
        <ele>2189.0</ele>
        <time>2019-10-12T17:03:14.905Z</time>
      </trkpt>
      <trkpt lat="20.234785" lon="-98.737805">
        <ele>2189.0</ele>
        <time>2019-10-12T17:03:15.906Z</time>
      </trkpt>
      <trkpt lat="20.23477667" lon="-98.737815">
        <ele>2188.0</ele>
        <time>2019-10-12T17:03:16.913Z</time>
      </trkpt>
      <trkpt lat="20.23477167" lon="-98.737825">
        <ele>2188.0</ele>
        <time>2019-10-12T17:03:17.919Z</time>
      </trkpt>
      <trkpt lat="20.23476667" lon="-98.737835">
        <ele>2188.0</ele>
        <time>2019-10-12T17:03:18.921Z</time>
      </trkpt>
      <trkpt lat="20.23476" lon="-98.73784">
        <ele>2188.0</ele>
        <time>2019-10-12T17:03:19.926Z</time>
      </trkpt>
      <trkpt lat="20.23475" lon="-98.73784333">
        <ele>2188.0</ele>
        <time>2019-10-12T17:03:20.930Z</time>
      </trkpt>
      <trkpt lat="20.23473833" lon="-98.737845">
        <ele>2188.0</ele>
        <time>2019-10-12T17:03:21.931Z</time>
      </trkpt>
      <trkpt lat="20.23472333" lon="-98.73785">
        <ele>2187.0</ele>
        <time>2019-10-12T17:03:22.936Z</time>
      </trkpt>
      <trkpt lat="20.23470833" lon="-98.73785167">
        <ele>2185.0</ele>
        <time>2019-10-12T17:03:23.942Z</time>
      </trkpt>
      <trkpt lat="20.23470667" lon="-98.73785833">
        <ele>2184.0</ele>
        <time>2019-10-12T17:03:24.945Z</time>
      </trkpt>
      <trkpt lat="20.23471333" lon="-98.73786833">
        <ele>2184.0</ele>
        <time>2019-10-12T17:03:25.948Z</time>
      </trkpt>
      <trkpt lat="20.23471833" lon="-98.737875">
        <ele>2184.0</ele>
        <time>2019-10-12T17:03:26.955Z</time>
      </trkpt>
      <trkpt lat="20.234715" lon="-98.73788167">
        <ele>2185.0</ele>
        <time>2019-10-12T17:03:27.837Z</time>
      </trkpt>
      <trkpt lat="20.23470667" lon="-98.737885">
        <ele>2184.0</ele>
        <time>2019-10-12T17:03:28.839Z</time>
      </trkpt>
      <trkpt lat="20.23470167" lon="-98.73788833">
        <ele>2184.0</ele>
        <time>2019-10-12T17:03:29.846Z</time>
      </trkpt>
      <trkpt lat="20.2347" lon="-98.73789">
        <ele>2184.0</ele>
        <time>2019-10-12T17:03:30.853Z</time>
      </trkpt>
      <trkpt lat="20.234695" lon="-98.73789833">
        <ele>2184.0</ele>
        <time>2019-10-12T17:03:31.855Z</time>
      </trkpt>
      <trkpt lat="20.23468833" lon="-98.73789667">
        <ele>2183.0</ele>
        <time>2019-10-12T17:03:32.856Z</time>
      </trkpt>
      <trkpt lat="20.23468167" lon="-98.73789167">
        <ele>2183.0</ele>
        <time>2019-10-12T17:03:33.857Z</time>
      </trkpt>
      <trkpt lat="20.23467833" lon="-98.73789">
        <ele>2183.0</ele>
        <time>2019-10-12T17:03:34.858Z</time>
      </trkpt>
      <trkpt lat="20.23468" lon="-98.73788333">
        <ele>2184.0</ele>
        <time>2019-10-12T17:03:35.858Z</time>
      </trkpt>
      <trkpt lat="20.23468" lon="-98.73788167">
        <ele>2185.0</ele>
        <time>2019-10-12T17:03:36.859Z</time>
      </trkpt>
      <trkpt lat="20.234675" lon="-98.73787833">
        <ele>2185.0</ele>
        <time>2019-10-12T17:03:37.860Z</time>
      </trkpt>
      <trkpt lat="20.23466667" lon="-98.737875">
        <ele>2184.0</ele>
        <time>2019-10-12T17:03:38.861Z</time>
      </trkpt>
      <trkpt lat="20.23465833" lon="-98.737875">
        <ele>2184.0</ele>
        <time>2019-10-12T17:03:39.862Z</time>
      </trkpt>
      <trkpt lat="20.234655" lon="-98.73787333">
        <ele>2185.0</ele>
        <time>2019-10-12T17:03:40.862Z</time>
      </trkpt>
      <trkpt lat="20.234655" lon="-98.73787167">
        <ele>2185.0</ele>
        <time>2019-10-12T17:03:41.863Z</time>
      </trkpt>
      <trkpt lat="20.23465667" lon="-98.73787167">
        <ele>2185.0</ele>
        <time>2019-10-12T17:03:42.864Z</time>
      </trkpt>
      <trkpt lat="20.23465833" lon="-98.73787">
        <ele>2186.0</ele>
        <time>2019-10-12T17:03:43.865Z</time>
      </trkpt>
      <trkpt lat="20.23466167" lon="-98.73787167">
        <ele>2186.0</ele>
        <time>2019-10-12T17:03:44.866Z</time>
      </trkpt>
      <trkpt lat="20.23466167" lon="-98.737875">
        <ele>2187.0</ele>
        <time>2019-10-12T17:03:45.867Z</time>
      </trkpt>
      <trkpt lat="20.23466333" lon="-98.73788">
        <ele>2187.0</ele>
        <time>2019-10-12T17:03:46.872Z</time>
      </trkpt>
      <trkpt lat="20.23465833" lon="-98.73788333">
        <ele>2186.0</ele>
        <time>2019-10-12T17:03:47.878Z</time>
      </trkpt>
      <trkpt lat="20.23465667" lon="-98.73789">
        <ele>2186.0</ele>
        <time>2019-10-12T17:03:48.880Z</time>
      </trkpt>
      <trkpt lat="20.23465667" lon="-98.737895">
        <ele>2185.0</ele>
        <time>2019-10-12T17:03:49.886Z</time>
      </trkpt>
      <trkpt lat="20.234655" lon="-98.73790167">
        <ele>2184.0</ele>
        <time>2019-10-12T17:03:50.891Z</time>
      </trkpt>
      <trkpt lat="20.23465667" lon="-98.73790833">
        <ele>2184.0</ele>
        <time>2019-10-12T17:03:51.892Z</time>
      </trkpt>
      <trkpt lat="20.23466" lon="-98.73791667">
        <ele>2184.0</ele>
        <time>2019-10-12T17:03:52.893Z</time>
      </trkpt>
      <trkpt lat="20.23465833" lon="-98.73792333">
        <ele>2184.0</ele>
        <time>2019-10-12T17:03:53.894Z</time>
      </trkpt>
      <trkpt lat="20.23465833" lon="-98.73793167">
        <ele>2184.0</ele>
        <time>2019-10-12T17:03:54.895Z</time>
      </trkpt>
      <trkpt lat="20.23465833" lon="-98.73794333">
        <ele>2184.0</ele>
        <time>2019-10-12T17:03:55.895Z</time>
      </trkpt>
      <trkpt lat="20.23465833" lon="-98.73795">
        <ele>2184.0</ele>
        <time>2019-10-12T17:03:56.896Z</time>
      </trkpt>
      <trkpt lat="20.23466" lon="-98.73795667">
        <ele>2185.0</ele>
        <time>2019-10-12T17:03:57.897Z</time>
      </trkpt>
      <trkpt lat="20.23466" lon="-98.73796167">
        <ele>2185.0</ele>
        <time>2019-10-12T17:03:58.903Z</time>
      </trkpt>
      <trkpt lat="20.23466" lon="-98.73796833">
        <ele>2185.0</ele>
        <time>2019-10-12T17:03:59.909Z</time>
      </trkpt>
      <trkpt lat="20.23466" lon="-98.73797667">
        <ele>2186.0</ele>
        <time>2019-10-12T17:04:00.915Z</time>
      </trkpt>
      <trkpt lat="20.23465833" lon="-98.73798333">
        <ele>2187.0</ele>
        <time>2019-10-12T17:04:01.920Z</time>
      </trkpt>
      <trkpt lat="20.23465333" lon="-98.73799167">
        <ele>2187.0</ele>
        <time>2019-10-12T17:04:02.923Z</time>
      </trkpt>
      <trkpt lat="20.23465333" lon="-98.738">
        <ele>2187.0</ele>
        <time>2019-10-12T17:04:03.928Z</time>
      </trkpt>
      <trkpt lat="20.234655" lon="-98.73800667">
        <ele>2187.0</ele>
        <time>2019-10-12T17:04:04.934Z</time>
      </trkpt>
      <trkpt lat="20.23465333" lon="-98.738015">
        <ele>2187.0</ele>
        <time>2019-10-12T17:04:05.942Z</time>
      </trkpt>
      <trkpt lat="20.23465" lon="-98.73802667">
        <ele>2187.0</ele>
        <time>2019-10-12T17:04:06.945Z</time>
      </trkpt>
      <trkpt lat="20.23465333" lon="-98.73803667">
        <ele>2187.0</ele>
        <time>2019-10-12T17:04:07.945Z</time>
      </trkpt>
      <trkpt lat="20.23466333" lon="-98.73804667">
        <ele>2187.0</ele>
        <time>2019-10-12T17:04:08.946Z</time>
      </trkpt>
      <trkpt lat="20.234675" lon="-98.738055">
        <ele>2188.0</ele>
        <time>2019-10-12T17:04:09.949Z</time>
      </trkpt>
      <trkpt lat="20.23467333" lon="-98.738065">
        <ele>2188.0</ele>
        <time>2019-10-12T17:04:10.830Z</time>
      </trkpt>
      <trkpt lat="20.23467" lon="-98.73807167">
        <ele>2189.0</ele>
        <time>2019-10-12T17:04:11.837Z</time>
      </trkpt>
      <trkpt lat="20.234665" lon="-98.73807667">
        <ele>2189.0</ele>
        <time>2019-10-12T17:04:12.841Z</time>
      </trkpt>
      <trkpt lat="20.23466333" lon="-98.73808167">
        <ele>2189.0</ele>
        <time>2019-10-12T17:04:13.844Z</time>
      </trkpt>
      <trkpt lat="20.23466" lon="-98.738085">
        <ele>2189.0</ele>
        <time>2019-10-12T17:04:14.847Z</time>
      </trkpt>
      <trkpt lat="20.23466167" lon="-98.73809167">
        <ele>2190.0</ele>
        <time>2019-10-12T17:04:15.855Z</time>
      </trkpt>
      <trkpt lat="20.23466667" lon="-98.7381">
        <ele>2191.0</ele>
        <time>2019-10-12T17:04:16.859Z</time>
      </trkpt>
      <trkpt lat="20.23466667" lon="-98.73811">
        <ele>2192.0</ele>
        <time>2019-10-12T17:04:17.862Z</time>
      </trkpt>
      <trkpt lat="20.234665" lon="-98.73812">
        <ele>2193.0</ele>
        <time>2019-10-12T17:04:18.869Z</time>
      </trkpt>
      <trkpt lat="20.23466167" lon="-98.738125">
        <ele>2194.0</ele>
        <time>2019-10-12T17:04:19.875Z</time>
      </trkpt>
      <trkpt lat="20.23465667" lon="-98.73813333">
        <ele>2194.0</ele>
        <time>2019-10-12T17:04:20.880Z</time>
      </trkpt>
      <trkpt lat="20.23465333" lon="-98.73814167">
        <ele>2194.0</ele>
        <time>2019-10-12T17:04:21.885Z</time>
      </trkpt>
      <trkpt lat="20.23465" lon="-98.73815">
        <ele>2194.0</ele>
        <time>2019-10-12T17:04:22.886Z</time>
      </trkpt>
      <trkpt lat="20.234645" lon="-98.738155">
        <ele>2194.0</ele>
        <time>2019-10-12T17:04:23.886Z</time>
      </trkpt>
      <trkpt lat="20.23464" lon="-98.73816">
        <ele>2193.0</ele>
        <time>2019-10-12T17:04:24.887Z</time>
      </trkpt>
      <trkpt lat="20.234635" lon="-98.73817">
        <ele>2193.0</ele>
        <time>2019-10-12T17:04:25.887Z</time>
      </trkpt>
      <trkpt lat="20.234635" lon="-98.73817833">
        <ele>2194.0</ele>
        <time>2019-10-12T17:04:26.888Z</time>
      </trkpt>
      <trkpt lat="20.234635" lon="-98.73818833">
        <ele>2194.0</ele>
        <time>2019-10-12T17:04:27.888Z</time>
      </trkpt>
      <trkpt lat="20.23463333" lon="-98.73819667">
        <ele>2194.0</ele>
        <time>2019-10-12T17:04:28.889Z</time>
      </trkpt>
      <trkpt lat="20.234635" lon="-98.73820167">
        <ele>2195.0</ele>
        <time>2019-10-12T17:04:29.889Z</time>
      </trkpt>
      <trkpt lat="20.234635" lon="-98.73820833">
        <ele>2195.0</ele>
        <time>2019-10-12T17:04:30.891Z</time>
      </trkpt>
      <trkpt lat="20.234635" lon="-98.73821333">
        <ele>2195.0</ele>
        <time>2019-10-12T17:04:31.892Z</time>
      </trkpt>
      <trkpt lat="20.23463" lon="-98.73821667">
        <ele>2195.0</ele>
        <time>2019-10-12T17:04:32.892Z</time>
      </trkpt>
      <trkpt lat="20.23462333" lon="-98.73822">
        <ele>2196.0</ele>
        <time>2019-10-12T17:04:33.893Z</time>
      </trkpt>
      <trkpt lat="20.23461667" lon="-98.73822667">
        <ele>2196.0</ele>
        <time>2019-10-12T17:04:34.894Z</time>
      </trkpt>
      <trkpt lat="20.23461167" lon="-98.73823333">
        <ele>2196.0</ele>
        <time>2019-10-12T17:04:35.895Z</time>
      </trkpt>
      <trkpt lat="20.23461" lon="-98.73824167">
        <ele>2197.0</ele>
        <time>2019-10-12T17:04:36.896Z</time>
      </trkpt>
      <trkpt lat="20.23460667" lon="-98.73824667">
        <ele>2198.0</ele>
        <time>2019-10-12T17:04:37.897Z</time>
      </trkpt>
      <trkpt lat="20.23460333" lon="-98.73825333">
        <ele>2198.0</ele>
        <time>2019-10-12T17:04:38.897Z</time>
      </trkpt>
      <trkpt lat="20.2346" lon="-98.73826167">
        <ele>2198.0</ele>
        <time>2019-10-12T17:04:39.898Z</time>
      </trkpt>
      <trkpt lat="20.23459667" lon="-98.73826833">
        <ele>2198.0</ele>
        <time>2019-10-12T17:04:40.899Z</time>
      </trkpt>
      <trkpt lat="20.23459333" lon="-98.73827">
        <ele>2199.0</ele>
        <time>2019-10-12T17:04:41.900Z</time>
      </trkpt>
      <trkpt lat="20.23459167" lon="-98.73826833">
        <ele>2200.0</ele>
        <time>2019-10-12T17:04:42.900Z</time>
      </trkpt>
      <trkpt lat="20.23458833" lon="-98.73827">
        <ele>2200.0</ele>
        <time>2019-10-12T17:04:43.901Z</time>
      </trkpt>
      <trkpt lat="20.234585" lon="-98.738275">
        <ele>2201.0</ele>
        <time>2019-10-12T17:04:44.902Z</time>
      </trkpt>
      <trkpt lat="20.23458167" lon="-98.73827833">
        <ele>2202.0</ele>
        <time>2019-10-12T17:04:45.903Z</time>
      </trkpt>
      <trkpt lat="20.23457667" lon="-98.73828167">
        <ele>2202.0</ele>
        <time>2019-10-12T17:04:46.903Z</time>
      </trkpt>
      <trkpt lat="20.23457333" lon="-98.738285">
        <ele>2202.0</ele>
        <time>2019-10-12T17:04:47.904Z</time>
      </trkpt>
      <trkpt lat="20.234565" lon="-98.73829">
        <ele>2203.0</ele>
        <time>2019-10-12T17:04:48.904Z</time>
      </trkpt>
      <trkpt lat="20.23455167" lon="-98.73829833">
        <ele>2203.0</ele>
        <time>2019-10-12T17:04:49.906Z</time>
      </trkpt>
      <trkpt lat="20.23454833" lon="-98.73830333">
        <ele>2203.0</ele>
        <time>2019-10-12T17:04:50.907Z</time>
      </trkpt>
      <trkpt lat="20.234545" lon="-98.73830667">
        <ele>2203.0</ele>
        <time>2019-10-12T17:04:51.907Z</time>
      </trkpt>
      <trkpt lat="20.23454333" lon="-98.73830833">
        <ele>2203.0</ele>
        <time>2019-10-12T17:04:52.908Z</time>
      </trkpt>
      <trkpt lat="20.23454333" lon="-98.73831">
        <ele>2203.0</ele>
        <time>2019-10-12T17:04:53.909Z</time>
      </trkpt>
      <trkpt lat="20.23454333" lon="-98.738315">
        <ele>2203.0</ele>
        <time>2019-10-12T17:04:54.910Z</time>
      </trkpt>
      <trkpt lat="20.23454" lon="-98.73831833">
        <ele>2203.0</ele>
        <time>2019-10-12T17:04:55.911Z</time>
      </trkpt>
      <trkpt lat="20.23453667" lon="-98.73832333">
        <ele>2203.0</ele>
        <time>2019-10-12T17:04:56.911Z</time>
      </trkpt>
      <trkpt lat="20.23453333" lon="-98.73832833">
        <ele>2203.0</ele>
        <time>2019-10-12T17:04:57.912Z</time>
      </trkpt>
      <trkpt lat="20.23452833" lon="-98.73833333">
        <ele>2203.0</ele>
        <time>2019-10-12T17:04:58.913Z</time>
      </trkpt>
      <trkpt lat="20.23452333" lon="-98.73834">
        <ele>2203.0</ele>
        <time>2019-10-12T17:04:59.913Z</time>
      </trkpt>
      <trkpt lat="20.23451667" lon="-98.73834333">
        <ele>2204.0</ele>
        <time>2019-10-12T17:05:00.915Z</time>
      </trkpt>
      <trkpt lat="20.23450833" lon="-98.738345">
        <ele>2204.0</ele>
        <time>2019-10-12T17:05:01.916Z</time>
      </trkpt>
      <trkpt lat="20.23450333" lon="-98.73835">
        <ele>2204.0</ele>
        <time>2019-10-12T17:05:02.916Z</time>
      </trkpt>
      <trkpt lat="20.23449833" lon="-98.738355">
        <ele>2205.0</ele>
        <time>2019-10-12T17:05:03.917Z</time>
      </trkpt>
      <trkpt lat="20.23449333" lon="-98.73836167">
        <ele>2205.0</ele>
        <time>2019-10-12T17:05:04.917Z</time>
      </trkpt>
      <trkpt lat="20.23449167" lon="-98.73836833">
        <ele>2205.0</ele>
        <time>2019-10-12T17:05:05.919Z</time>
      </trkpt>
      <trkpt lat="20.23448667" lon="-98.73837333">
        <ele>2206.0</ele>
        <time>2019-10-12T17:05:06.920Z</time>
      </trkpt>
      <trkpt lat="20.23448167" lon="-98.73837833">
        <ele>2206.0</ele>
        <time>2019-10-12T17:05:07.920Z</time>
      </trkpt>
      <trkpt lat="20.23447667" lon="-98.73838667">
        <ele>2206.0</ele>
        <time>2019-10-12T17:05:08.921Z</time>
      </trkpt>
      <trkpt lat="20.23447333" lon="-98.73839667">
        <ele>2207.0</ele>
        <time>2019-10-12T17:05:09.921Z</time>
      </trkpt>
      <trkpt lat="20.23446833" lon="-98.73840667">
        <ele>2207.0</ele>
        <time>2019-10-12T17:05:10.922Z</time>
      </trkpt>
      <trkpt lat="20.23446667" lon="-98.73841833">
        <ele>2207.0</ele>
        <time>2019-10-12T17:05:11.923Z</time>
      </trkpt>
      <trkpt lat="20.23445833" lon="-98.73842333">
        <ele>2207.0</ele>
        <time>2019-10-12T17:05:12.923Z</time>
      </trkpt>
      <trkpt lat="20.23444833" lon="-98.73842667">
        <ele>2207.0</ele>
        <time>2019-10-12T17:05:13.924Z</time>
      </trkpt>
      <trkpt lat="20.23444167" lon="-98.73842333">
        <ele>2207.0</ele>
        <time>2019-10-12T17:05:14.925Z</time>
      </trkpt>
      <trkpt lat="20.23443333" lon="-98.73842">
        <ele>2208.0</ele>
        <time>2019-10-12T17:05:15.926Z</time>
      </trkpt>
      <trkpt lat="20.234425" lon="-98.73841833">
        <ele>2208.0</ele>
        <time>2019-10-12T17:05:16.927Z</time>
      </trkpt>
      <trkpt lat="20.23441667" lon="-98.73842">
        <ele>2208.0</ele>
        <time>2019-10-12T17:05:17.928Z</time>
      </trkpt>
      <trkpt lat="20.23440833" lon="-98.73842167">
        <ele>2208.0</ele>
        <time>2019-10-12T17:05:18.928Z</time>
      </trkpt>
      <trkpt lat="20.23439833" lon="-98.738425">
        <ele>2208.0</ele>
        <time>2019-10-12T17:05:19.932Z</time>
      </trkpt>
      <trkpt lat="20.23438833" lon="-98.73842667">
        <ele>2208.0</ele>
        <time>2019-10-12T17:05:20.935Z</time>
      </trkpt>
      <trkpt lat="20.23437833" lon="-98.73843167">
        <ele>2208.0</ele>
        <time>2019-10-12T17:05:21.941Z</time>
      </trkpt>
      <trkpt lat="20.23436833" lon="-98.73843667">
        <ele>2209.0</ele>
        <time>2019-10-12T17:05:22.948Z</time>
      </trkpt>
      <trkpt lat="20.23435667" lon="-98.73844167">
        <ele>2210.0</ele>
        <time>2019-10-12T17:05:23.954Z</time>
      </trkpt>
      <trkpt lat="20.234345" lon="-98.73844667">
        <ele>2210.0</ele>
        <time>2019-10-12T17:05:24.832Z</time>
      </trkpt>
      <trkpt lat="20.234335" lon="-98.73844833">
        <ele>2211.0</ele>
        <time>2019-10-12T17:05:25.838Z</time>
      </trkpt>
      <trkpt lat="20.234325" lon="-98.73844833">
        <ele>2210.0</ele>
        <time>2019-10-12T17:05:26.844Z</time>
      </trkpt>
      <trkpt lat="20.23431833" lon="-98.73845">
        <ele>2211.0</ele>
        <time>2019-10-12T17:05:27.850Z</time>
      </trkpt>
      <trkpt lat="20.234315" lon="-98.73845333">
        <ele>2211.0</ele>
        <time>2019-10-12T17:05:28.857Z</time>
      </trkpt>
      <trkpt lat="20.23431333" lon="-98.73845333">
        <ele>2212.0</ele>
        <time>2019-10-12T17:05:29.860Z</time>
      </trkpt>
      <trkpt lat="20.23430833" lon="-98.73845">
        <ele>2211.0</ele>
        <time>2019-10-12T17:05:30.868Z</time>
      </trkpt>
      <trkpt lat="20.23430667" lon="-98.738445">
        <ele>2211.0</ele>
        <time>2019-10-12T17:05:31.875Z</time>
      </trkpt>
      <trkpt lat="20.23430333" lon="-98.73844333">
        <ele>2212.0</ele>
        <time>2019-10-12T17:05:32.876Z</time>
      </trkpt>
      <trkpt lat="20.2343" lon="-98.738445">
        <ele>2212.0</ele>
        <time>2019-10-12T17:05:33.877Z</time>
      </trkpt>
      <trkpt lat="20.23429833" lon="-98.73844667">
        <ele>2212.0</ele>
        <time>2019-10-12T17:05:34.878Z</time>
      </trkpt>
      <trkpt lat="20.23429167" lon="-98.73844833">
        <ele>2212.0</ele>
        <time>2019-10-12T17:05:35.878Z</time>
      </trkpt>
      <trkpt lat="20.23428667" lon="-98.73845167">
        <ele>2212.0</ele>
        <time>2019-10-12T17:05:36.879Z</time>
      </trkpt>
      <trkpt lat="20.23428" lon="-98.73845333">
        <ele>2212.0</ele>
        <time>2019-10-12T17:05:37.880Z</time>
      </trkpt>
      <trkpt lat="20.23427333" lon="-98.73845333">
        <ele>2211.0</ele>
        <time>2019-10-12T17:05:38.880Z</time>
      </trkpt>
      <trkpt lat="20.23426667" lon="-98.73845833">
        <ele>2211.0</ele>
        <time>2019-10-12T17:05:39.881Z</time>
      </trkpt>
      <trkpt lat="20.23426" lon="-98.73846333">
        <ele>2211.0</ele>
        <time>2019-10-12T17:05:40.882Z</time>
      </trkpt>
      <trkpt lat="20.23425" lon="-98.738465">
        <ele>2211.0</ele>
        <time>2019-10-12T17:05:41.882Z</time>
      </trkpt>
      <trkpt lat="20.23424" lon="-98.738465">
        <ele>2211.0</ele>
        <time>2019-10-12T17:05:42.883Z</time>
      </trkpt>
      <trkpt lat="20.23423167" lon="-98.73846333">
        <ele>2211.0</ele>
        <time>2019-10-12T17:05:43.884Z</time>
      </trkpt>
      <trkpt lat="20.234225" lon="-98.73846">
        <ele>2211.0</ele>
        <time>2019-10-12T17:05:44.885Z</time>
      </trkpt>
      <trkpt lat="20.23421667" lon="-98.73845833">
        <ele>2211.0</ele>
        <time>2019-10-12T17:05:45.886Z</time>
      </trkpt>
      <trkpt lat="20.23421167" lon="-98.73845333">
        <ele>2211.0</ele>
        <time>2019-10-12T17:05:46.886Z</time>
      </trkpt>
      <trkpt lat="20.234205" lon="-98.73844833">
        <ele>2211.0</ele>
        <time>2019-10-12T17:05:47.887Z</time>
      </trkpt>
      <trkpt lat="20.2342" lon="-98.738445">
        <ele>2211.0</ele>
        <time>2019-10-12T17:05:48.888Z</time>
      </trkpt>
      <trkpt lat="20.23419167" lon="-98.73844333">
        <ele>2211.0</ele>
        <time>2019-10-12T17:05:49.889Z</time>
      </trkpt>
      <trkpt lat="20.23418333" lon="-98.73844">
        <ele>2211.0</ele>
        <time>2019-10-12T17:05:50.890Z</time>
      </trkpt>
      <trkpt lat="20.23417833" lon="-98.73843667">
        <ele>2211.0</ele>
        <time>2019-10-12T17:05:51.890Z</time>
      </trkpt>
      <trkpt lat="20.23417167" lon="-98.73843167">
        <ele>2211.0</ele>
        <time>2019-10-12T17:05:52.891Z</time>
      </trkpt>
      <trkpt lat="20.23416333" lon="-98.738425">
        <ele>2211.0</ele>
        <time>2019-10-12T17:05:53.892Z</time>
      </trkpt>
      <trkpt lat="20.23415667" lon="-98.73842">
        <ele>2212.0</ele>
        <time>2019-10-12T17:05:54.893Z</time>
      </trkpt>
      <trkpt lat="20.234145" lon="-98.73841333">
        <ele>2212.0</ele>
        <time>2019-10-12T17:05:55.894Z</time>
      </trkpt>
      <trkpt lat="20.23413833" lon="-98.73841">
        <ele>2212.0</ele>
        <time>2019-10-12T17:05:56.900Z</time>
      </trkpt>
      <trkpt lat="20.23413333" lon="-98.738405">
        <ele>2212.0</ele>
        <time>2019-10-12T17:05:57.905Z</time>
      </trkpt>
      <trkpt lat="20.234125" lon="-98.7384">
        <ele>2213.0</ele>
        <time>2019-10-12T17:05:58.910Z</time>
      </trkpt>
      <trkpt lat="20.234115" lon="-98.738395">
        <ele>2212.0</ele>
        <time>2019-10-12T17:05:59.917Z</time>
      </trkpt>
      <trkpt lat="20.23410833" lon="-98.73839167">
        <ele>2212.0</ele>
        <time>2019-10-12T17:06:00.920Z</time>
      </trkpt>
      <trkpt lat="20.23410167" lon="-98.738385">
        <ele>2212.0</ele>
        <time>2019-10-12T17:06:01.926Z</time>
      </trkpt>
      <trkpt lat="20.23409667" lon="-98.73837833">
        <ele>2212.0</ele>
        <time>2019-10-12T17:06:02.932Z</time>
      </trkpt>
      <trkpt lat="20.23409167" lon="-98.73837">
        <ele>2212.0</ele>
        <time>2019-10-12T17:06:03.938Z</time>
      </trkpt>
      <trkpt lat="20.234085" lon="-98.73836167">
        <ele>2212.0</ele>
        <time>2019-10-12T17:06:04.942Z</time>
      </trkpt>
      <trkpt lat="20.234075" lon="-98.73835667">
        <ele>2212.0</ele>
        <time>2019-10-12T17:06:05.944Z</time>
      </trkpt>
      <trkpt lat="20.23406667" lon="-98.73835">
        <ele>2211.0</ele>
        <time>2019-10-12T17:06:06.949Z</time>
      </trkpt>
      <trkpt lat="20.234055" lon="-98.738345">
        <ele>2212.0</ele>
        <time>2019-10-12T17:06:07.830Z</time>
      </trkpt>
      <trkpt lat="20.234045" lon="-98.73834167">
        <ele>2212.0</ele>
        <time>2019-10-12T17:06:08.835Z</time>
      </trkpt>
      <trkpt lat="20.23403667" lon="-98.73833833">
        <ele>2212.0</ele>
        <time>2019-10-12T17:06:09.840Z</time>
      </trkpt>
      <trkpt lat="20.23402833" lon="-98.738335">
        <ele>2211.0</ele>
        <time>2019-10-12T17:06:10.843Z</time>
      </trkpt>
      <trkpt lat="20.23401833" lon="-98.73833167">
        <ele>2211.0</ele>
        <time>2019-10-12T17:06:11.844Z</time>
      </trkpt>
      <trkpt lat="20.23401667" lon="-98.73833">
        <ele>2212.0</ele>
        <time>2019-10-12T17:06:12.844Z</time>
      </trkpt>
      <trkpt lat="20.23401333" lon="-98.73832833">
        <ele>2212.0</ele>
        <time>2019-10-12T17:06:13.845Z</time>
      </trkpt>
      <trkpt lat="20.23400667" lon="-98.73832667">
        <ele>2213.0</ele>
        <time>2019-10-12T17:06:14.846Z</time>
      </trkpt>
      <trkpt lat="20.23400167" lon="-98.738325">
        <ele>2213.0</ele>
        <time>2019-10-12T17:06:15.847Z</time>
      </trkpt>
      <trkpt lat="20.23399667" lon="-98.738325">
        <ele>2212.0</ele>
        <time>2019-10-12T17:06:16.848Z</time>
      </trkpt>
      <trkpt lat="20.233995" lon="-98.73832333">
        <ele>2212.0</ele>
        <time>2019-10-12T17:06:17.848Z</time>
      </trkpt>
      <trkpt lat="20.23399333" lon="-98.73831833">
        <ele>2212.0</ele>
        <time>2019-10-12T17:06:18.849Z</time>
      </trkpt>
      <trkpt lat="20.23399167" lon="-98.73831333">
        <ele>2213.0</ele>
        <time>2019-10-12T17:06:19.850Z</time>
      </trkpt>
      <trkpt lat="20.23398833" lon="-98.73831">
        <ele>2213.0</ele>
        <time>2019-10-12T17:06:20.851Z</time>
      </trkpt>
      <trkpt lat="20.23398667" lon="-98.73830667">
        <ele>2214.0</ele>
        <time>2019-10-12T17:06:21.851Z</time>
      </trkpt>
      <trkpt lat="20.23398" lon="-98.73830333">
        <ele>2214.0</ele>
        <time>2019-10-12T17:06:22.852Z</time>
      </trkpt>
      <trkpt lat="20.23397167" lon="-98.73830167">
        <ele>2214.0</ele>
        <time>2019-10-12T17:06:23.852Z</time>
      </trkpt>
      <trkpt lat="20.23396667" lon="-98.7383">
        <ele>2214.0</ele>
        <time>2019-10-12T17:06:24.853Z</time>
      </trkpt>
      <trkpt lat="20.23396" lon="-98.73829667">
        <ele>2213.0</ele>
        <time>2019-10-12T17:06:25.860Z</time>
      </trkpt>
      <trkpt lat="20.23395167" lon="-98.73829333">
        <ele>2213.0</ele>
        <time>2019-10-12T17:06:26.866Z</time>
      </trkpt>
      <trkpt lat="20.233945" lon="-98.73829">
        <ele>2214.0</ele>
        <time>2019-10-12T17:06:27.869Z</time>
      </trkpt>
      <trkpt lat="20.23393667" lon="-98.73828667">
        <ele>2214.0</ele>
        <time>2019-10-12T17:06:28.875Z</time>
      </trkpt>
      <trkpt lat="20.23392833" lon="-98.73828333">
        <ele>2214.0</ele>
        <time>2019-10-12T17:06:29.876Z</time>
      </trkpt>
      <trkpt lat="20.23391833" lon="-98.73828167">
        <ele>2215.0</ele>
        <time>2019-10-12T17:06:30.877Z</time>
      </trkpt>
      <trkpt lat="20.23391" lon="-98.738275">
        <ele>2215.0</ele>
        <time>2019-10-12T17:06:31.879Z</time>
      </trkpt>
      <trkpt lat="20.23390333" lon="-98.73827333">
        <ele>2215.0</ele>
        <time>2019-10-12T17:06:32.884Z</time>
      </trkpt>
      <trkpt lat="20.23389333" lon="-98.73827">
        <ele>2216.0</ele>
        <time>2019-10-12T17:06:33.890Z</time>
      </trkpt>
      <trkpt lat="20.23388333" lon="-98.73826333">
        <ele>2217.0</ele>
        <time>2019-10-12T17:06:34.895Z</time>
      </trkpt>
      <trkpt lat="20.23387333" lon="-98.73825833">
        <ele>2217.0</ele>
        <time>2019-10-12T17:06:35.900Z</time>
      </trkpt>
      <trkpt lat="20.233865" lon="-98.73825333">
        <ele>2217.0</ele>
        <time>2019-10-12T17:06:36.903Z</time>
      </trkpt>
      <trkpt lat="20.23385833" lon="-98.738245">
        <ele>2217.0</ele>
        <time>2019-10-12T17:06:37.905Z</time>
      </trkpt>
      <trkpt lat="20.23385" lon="-98.73824">
        <ele>2218.0</ele>
        <time>2019-10-12T17:06:38.910Z</time>
      </trkpt>
      <trkpt lat="20.23383833" lon="-98.73823833">
        <ele>2218.0</ele>
        <time>2019-10-12T17:06:39.916Z</time>
      </trkpt>
      <trkpt lat="20.23383" lon="-98.73823333">
        <ele>2218.0</ele>
        <time>2019-10-12T17:06:40.921Z</time>
      </trkpt>
      <trkpt lat="20.23382" lon="-98.73823333">
        <ele>2219.0</ele>
        <time>2019-10-12T17:06:41.922Z</time>
      </trkpt>
      <trkpt lat="20.23381" lon="-98.73823167">
        <ele>2220.0</ele>
        <time>2019-10-12T17:06:42.922Z</time>
      </trkpt>
      <trkpt lat="20.23380167" lon="-98.73822667">
        <ele>2220.0</ele>
        <time>2019-10-12T17:06:43.923Z</time>
      </trkpt>
      <trkpt lat="20.23379167" lon="-98.738225">
        <ele>2221.0</ele>
        <time>2019-10-12T17:06:44.928Z</time>
      </trkpt>
      <trkpt lat="20.23378333" lon="-98.73822">
        <ele>2221.0</ele>
        <time>2019-10-12T17:06:45.933Z</time>
      </trkpt>
      <trkpt lat="20.23377333" lon="-98.73821167">
        <ele>2221.0</ele>
        <time>2019-10-12T17:06:46.938Z</time>
      </trkpt>
      <trkpt lat="20.233765" lon="-98.73820667">
        <ele>2221.0</ele>
        <time>2019-10-12T17:06:47.943Z</time>
      </trkpt>
      <trkpt lat="20.23375667" lon="-98.73820167">
        <ele>2222.0</ele>
        <time>2019-10-12T17:06:48.945Z</time>
      </trkpt>
      <trkpt lat="20.23375167" lon="-98.73819167">
        <ele>2222.0</ele>
        <time>2019-10-12T17:06:49.950Z</time>
      </trkpt>
      <trkpt lat="20.233745" lon="-98.73818667">
        <ele>2222.0</ele>
        <time>2019-10-12T17:06:50.830Z</time>
      </trkpt>
      <trkpt lat="20.23374" lon="-98.73818">
        <ele>2223.0</ele>
        <time>2019-10-12T17:06:51.837Z</time>
      </trkpt>
      <trkpt lat="20.23373167" lon="-98.738175">
        <ele>2223.0</ele>
        <time>2019-10-12T17:06:52.843Z</time>
      </trkpt>
      <trkpt lat="20.23372" lon="-98.73817167">
        <ele>2223.0</ele>
        <time>2019-10-12T17:06:53.848Z</time>
      </trkpt>
      <trkpt lat="20.23370833" lon="-98.73816667">
        <ele>2223.0</ele>
        <time>2019-10-12T17:06:54.855Z</time>
      </trkpt>
      <trkpt lat="20.2337" lon="-98.73816333">
        <ele>2223.0</ele>
        <time>2019-10-12T17:06:55.861Z</time>
      </trkpt>
      <trkpt lat="20.23369" lon="-98.73816">
        <ele>2223.0</ele>
        <time>2019-10-12T17:06:56.864Z</time>
      </trkpt>
      <trkpt lat="20.23368" lon="-98.73815833">
        <ele>2224.0</ele>
        <time>2019-10-12T17:06:57.864Z</time>
      </trkpt>
      <trkpt lat="20.23367333" lon="-98.738155">
        <ele>2224.0</ele>
        <time>2019-10-12T17:06:58.864Z</time>
      </trkpt>
      <trkpt lat="20.23366667" lon="-98.73815">
        <ele>2224.0</ele>
        <time>2019-10-12T17:06:59.865Z</time>
      </trkpt>
      <trkpt lat="20.23365667" lon="-98.73814333">
        <ele>2224.0</ele>
        <time>2019-10-12T17:07:00.865Z</time>
      </trkpt>
      <trkpt lat="20.23364167" lon="-98.738135">
        <ele>2224.0</ele>
        <time>2019-10-12T17:07:01.865Z</time>
      </trkpt>
      <trkpt lat="20.23363333" lon="-98.738135">
        <ele>2224.0</ele>
        <time>2019-10-12T17:07:02.866Z</time>
      </trkpt>
      <trkpt lat="20.233625" lon="-98.738135">
        <ele>2224.0</ele>
        <time>2019-10-12T17:07:03.866Z</time>
      </trkpt>
      <trkpt lat="20.23362" lon="-98.73813333">
        <ele>2224.0</ele>
        <time>2019-10-12T17:07:04.866Z</time>
      </trkpt>
      <trkpt lat="20.233615" lon="-98.73813">
        <ele>2224.0</ele>
        <time>2019-10-12T17:07:05.867Z</time>
      </trkpt>
      <trkpt lat="20.233605" lon="-98.738125">
        <ele>2224.0</ele>
        <time>2019-10-12T17:07:06.867Z</time>
      </trkpt>
      <trkpt lat="20.233595" lon="-98.73812333">
        <ele>2224.0</ele>
        <time>2019-10-12T17:07:07.867Z</time>
      </trkpt>
      <trkpt lat="20.23358167" lon="-98.73812167">
        <ele>2225.0</ele>
        <time>2019-10-12T17:07:08.868Z</time>
      </trkpt>
      <trkpt lat="20.23356667" lon="-98.73811333">
        <ele>2225.0</ele>
        <time>2019-10-12T17:07:09.868Z</time>
      </trkpt>
      <trkpt lat="20.23354833" lon="-98.73810167">
        <ele>2224.0</ele>
        <time>2019-10-12T17:07:10.868Z</time>
      </trkpt>
      <trkpt lat="20.23352833" lon="-98.73809167">
        <ele>2224.0</ele>
        <time>2019-10-12T17:07:11.869Z</time>
      </trkpt>
      <trkpt lat="20.23350833" lon="-98.73808333">
        <ele>2224.0</ele>
        <time>2019-10-12T17:07:12.869Z</time>
      </trkpt>
      <trkpt lat="20.23349167" lon="-98.73807833">
        <ele>2224.0</ele>
        <time>2019-10-12T17:07:13.869Z</time>
      </trkpt>
      <trkpt lat="20.233475" lon="-98.73807">
        <ele>2224.0</ele>
        <time>2019-10-12T17:07:14.870Z</time>
      </trkpt>
      <trkpt lat="20.23346333" lon="-98.738065">
        <ele>2224.0</ele>
        <time>2019-10-12T17:07:15.871Z</time>
      </trkpt>
      <trkpt lat="20.23345333" lon="-98.73806">
        <ele>2224.0</ele>
        <time>2019-10-12T17:07:16.876Z</time>
      </trkpt>
      <trkpt lat="20.23344167" lon="-98.73805167">
        <ele>2224.0</ele>
        <time>2019-10-12T17:07:17.882Z</time>
      </trkpt>
      <trkpt lat="20.23343" lon="-98.73804333">
        <ele>2224.0</ele>
        <time>2019-10-12T17:07:18.886Z</time>
      </trkpt>
      <trkpt lat="20.23341333" lon="-98.73804">
        <ele>2224.0</ele>
        <time>2019-10-12T17:07:19.891Z</time>
      </trkpt>
      <trkpt lat="20.2334" lon="-98.73803833">
        <ele>2224.0</ele>
        <time>2019-10-12T17:07:20.893Z</time>
      </trkpt>
      <trkpt lat="20.23338667" lon="-98.73804">
        <ele>2225.0</ele>
        <time>2019-10-12T17:07:21.899Z</time>
      </trkpt>
      <trkpt lat="20.23337167" lon="-98.73804">
        <ele>2225.0</ele>
        <time>2019-10-12T17:07:22.905Z</time>
      </trkpt>
      <trkpt lat="20.23336167" lon="-98.738045">
        <ele>2226.0</ele>
        <time>2019-10-12T17:07:23.910Z</time>
      </trkpt>
      <trkpt lat="20.23335833" lon="-98.73804833">
        <ele>2226.0</ele>
        <time>2019-10-12T17:07:24.917Z</time>
      </trkpt>
      <trkpt lat="20.233355" lon="-98.738045">
        <ele>2226.0</ele>
        <time>2019-10-12T17:07:25.923Z</time>
      </trkpt>
      <trkpt lat="20.23335" lon="-98.73804">
        <ele>2225.0</ele>
        <time>2019-10-12T17:07:26.928Z</time>
      </trkpt>
      <trkpt lat="20.23335167" lon="-98.73803833">
        <ele>2224.0</ele>
        <time>2019-10-12T17:07:27.934Z</time>
      </trkpt>
      <trkpt lat="20.23334667" lon="-98.73804167">
        <ele>2225.0</ele>
        <time>2019-10-12T17:07:28.937Z</time>
      </trkpt>
      <trkpt lat="20.23334167" lon="-98.73805167">
        <ele>2226.0</ele>
        <time>2019-10-12T17:07:29.943Z</time>
      </trkpt>
      <trkpt lat="20.23333667" lon="-98.738055">
        <ele>2227.0</ele>
        <time>2019-10-12T17:07:30.950Z</time>
      </trkpt>
      <trkpt lat="20.23333333" lon="-98.73805667">
        <ele>2227.0</ele>
        <time>2019-10-12T17:07:31.830Z</time>
      </trkpt>
      <trkpt lat="20.23333" lon="-98.73805667">
        <ele>2228.0</ele>
        <time>2019-10-12T17:07:32.835Z</time>
      </trkpt>
      <trkpt lat="20.23333667" lon="-98.73805333">
        <ele>2228.0</ele>
        <time>2019-10-12T17:07:33.838Z</time>
      </trkpt>
      <trkpt lat="20.23334" lon="-98.738055">
        <ele>2228.0</ele>
        <time>2019-10-12T17:07:34.845Z</time>
      </trkpt>
      <trkpt lat="20.233335" lon="-98.73806">
        <ele>2227.0</ele>
        <time>2019-10-12T17:07:35.850Z</time>
      </trkpt>
      <trkpt lat="20.233325" lon="-98.73807">
        <ele>2226.0</ele>
        <time>2019-10-12T17:07:36.859Z</time>
      </trkpt>
      <trkpt lat="20.23331333" lon="-98.73807833">
        <ele>2226.0</ele>
        <time>2019-10-12T17:07:37.867Z</time>
      </trkpt>
      <trkpt lat="20.23331" lon="-98.73808167">
        <ele>2226.0</ele>
        <time>2019-10-12T17:07:38.873Z</time>
      </trkpt>
      <trkpt lat="20.233305" lon="-98.73808">
        <ele>2226.0</ele>
        <time>2019-10-12T17:07:39.879Z</time>
      </trkpt>
      <trkpt lat="20.233305" lon="-98.73808">
        <ele>2226.0</ele>
        <time>2019-10-12T17:07:40.879Z</time>
      </trkpt>
      <trkpt lat="20.233305" lon="-98.73808">
        <ele>2226.0</ele>
        <time>2019-10-12T17:07:41.879Z</time>
      </trkpt>
      <trkpt lat="20.233305" lon="-98.73808">
        <ele>2226.0</ele>
        <time>2019-10-12T17:07:42.880Z</time>
      </trkpt>
      <trkpt lat="20.233305" lon="-98.73808">
        <ele>2226.0</ele>
        <time>2019-10-12T17:07:43.880Z</time>
      </trkpt>
      <trkpt lat="20.233305" lon="-98.73808">
        <ele>2226.0</ele>
        <time>2019-10-12T17:07:44.880Z</time>
      </trkpt>
      <trkpt lat="20.233305" lon="-98.73808">
        <ele>2226.0</ele>
        <time>2019-10-12T17:07:45.880Z</time>
      </trkpt>
      <trkpt lat="20.233305" lon="-98.73808">
        <ele>2226.0</ele>
        <time>2019-10-12T17:07:46.880Z</time>
      </trkpt>
      <trkpt lat="20.233305" lon="-98.73808">
        <ele>2226.0</ele>
        <time>2019-10-12T17:07:47.880Z</time>
      </trkpt>
      <trkpt lat="20.233305" lon="-98.73808">
        <ele>2226.0</ele>
        <time>2019-10-12T17:07:48.881Z</time>
      </trkpt>
      <trkpt lat="20.233305" lon="-98.73808">
        <ele>2226.0</ele>
        <time>2019-10-12T17:07:49.881Z</time>
      </trkpt>
      <trkpt lat="20.233305" lon="-98.73808">
        <ele>2227.0</ele>
        <time>2019-10-12T17:07:50.881Z</time>
      </trkpt>
      <trkpt lat="20.233305" lon="-98.73808">
        <ele>2227.0</ele>
        <time>2019-10-12T17:07:51.882Z</time>
      </trkpt>
      <trkpt lat="20.233305" lon="-98.73808">
        <ele>2227.0</ele>
        <time>2019-10-12T17:07:52.882Z</time>
      </trkpt>
      <trkpt lat="20.233305" lon="-98.73808">
        <ele>2227.0</ele>
        <time>2019-10-12T17:07:53.882Z</time>
      </trkpt>
      <trkpt lat="20.233305" lon="-98.73808">
        <ele>2227.0</ele>
        <time>2019-10-12T17:07:54.883Z</time>
      </trkpt>
      <trkpt lat="20.23330333" lon="-98.73808">
        <ele>2227.0</ele>
        <time>2019-10-12T17:07:55.883Z</time>
      </trkpt>
      <trkpt lat="20.23330167" lon="-98.73808">
        <ele>2227.0</ele>
        <time>2019-10-12T17:07:56.883Z</time>
      </trkpt>
      <trkpt lat="20.233295" lon="-98.73807833">
        <ele>2227.0</ele>
        <time>2019-10-12T17:07:57.883Z</time>
      </trkpt>
      <trkpt lat="20.23327167" lon="-98.73807667">
        <ele>2228.0</ele>
        <time>2019-10-12T17:07:58.884Z</time>
      </trkpt>
      <trkpt lat="20.23325" lon="-98.73807333">
        <ele>2228.0</ele>
        <time>2019-10-12T17:07:59.884Z</time>
      </trkpt>
      <trkpt lat="20.23323" lon="-98.73806667">
        <ele>2228.0</ele>
        <time>2019-10-12T17:08:00.885Z</time>
      </trkpt>
      <trkpt lat="20.23321167" lon="-98.73806167">
        <ele>2228.0</ele>
        <time>2019-10-12T17:08:01.885Z</time>
      </trkpt>
      <trkpt lat="20.23319333" lon="-98.73805833">
        <ele>2228.0</ele>
        <time>2019-10-12T17:08:02.885Z</time>
      </trkpt>
      <trkpt lat="20.23317167" lon="-98.73805333">
        <ele>2227.0</ele>
        <time>2019-10-12T17:08:03.886Z</time>
      </trkpt>
      <trkpt lat="20.23314667" lon="-98.73804833">
        <ele>2227.0</ele>
        <time>2019-10-12T17:08:04.886Z</time>
      </trkpt>
      <trkpt lat="20.233125" lon="-98.73804333">
        <ele>2226.0</ele>
        <time>2019-10-12T17:08:05.886Z</time>
      </trkpt>
      <trkpt lat="20.23310333" lon="-98.73803833">
        <ele>2226.0</ele>
        <time>2019-10-12T17:08:06.886Z</time>
      </trkpt>
      <trkpt lat="20.23308667" lon="-98.73803667">
        <ele>2226.0</ele>
        <time>2019-10-12T17:08:07.887Z</time>
      </trkpt>
      <trkpt lat="20.23306833" lon="-98.738035">
        <ele>2226.0</ele>
        <time>2019-10-12T17:08:08.887Z</time>
      </trkpt>
      <trkpt lat="20.23305167" lon="-98.73803333">
        <ele>2226.0</ele>
        <time>2019-10-12T17:08:09.888Z</time>
      </trkpt>
      <trkpt lat="20.23303333" lon="-98.738035">
        <ele>2226.0</ele>
        <time>2019-10-12T17:08:10.888Z</time>
      </trkpt>
      <trkpt lat="20.23301667" lon="-98.738035">
        <ele>2226.0</ele>
        <time>2019-10-12T17:08:11.888Z</time>
      </trkpt>
      <trkpt lat="20.23300333" lon="-98.738035">
        <ele>2225.0</ele>
        <time>2019-10-12T17:08:12.889Z</time>
      </trkpt>
      <trkpt lat="20.23299333" lon="-98.73804">
        <ele>2224.0</ele>
        <time>2019-10-12T17:08:13.889Z</time>
      </trkpt>
      <trkpt lat="20.23298167" lon="-98.73804667">
        <ele>2224.0</ele>
        <time>2019-10-12T17:08:14.889Z</time>
      </trkpt>
      <trkpt lat="20.23297167" lon="-98.738055">
        <ele>2224.0</ele>
        <time>2019-10-12T17:08:15.890Z</time>
      </trkpt>
      <trkpt lat="20.23296" lon="-98.73807167">
        <ele>2223.0</ele>
        <time>2019-10-12T17:08:16.890Z</time>
      </trkpt>
      <trkpt lat="20.23294833" lon="-98.738085">
        <ele>2223.0</ele>
        <time>2019-10-12T17:08:17.890Z</time>
      </trkpt>
      <trkpt lat="20.232935" lon="-98.73808667">
        <ele>2222.0</ele>
        <time>2019-10-12T17:08:18.894Z</time>
      </trkpt>
      <trkpt lat="20.23292333" lon="-98.73809">
        <ele>2221.0</ele>
        <time>2019-10-12T17:08:19.900Z</time>
      </trkpt>
      <trkpt lat="20.23290667" lon="-98.738095">
        <ele>2221.0</ele>
        <time>2019-10-12T17:08:20.901Z</time>
      </trkpt>
      <trkpt lat="20.23288667" lon="-98.73809833">
        <ele>2221.0</ele>
        <time>2019-10-12T17:08:21.908Z</time>
      </trkpt>
      <trkpt lat="20.23286833" lon="-98.73810167">
        <ele>2221.0</ele>
        <time>2019-10-12T17:08:22.913Z</time>
      </trkpt>
      <trkpt lat="20.23285" lon="-98.73810667">
        <ele>2221.0</ele>
        <time>2019-10-12T17:08:23.919Z</time>
      </trkpt>
      <trkpt lat="20.23283333" lon="-98.73811167">
        <ele>2221.0</ele>
        <time>2019-10-12T17:08:24.923Z</time>
      </trkpt>
      <trkpt lat="20.23281333" lon="-98.73811833">
        <ele>2221.0</ele>
        <time>2019-10-12T17:08:25.928Z</time>
      </trkpt>
      <trkpt lat="20.23279667" lon="-98.73812333">
        <ele>2222.0</ele>
        <time>2019-10-12T17:08:26.933Z</time>
      </trkpt>
      <trkpt lat="20.23278" lon="-98.73812833">
        <ele>2221.0</ele>
        <time>2019-10-12T17:08:27.938Z</time>
      </trkpt>
      <trkpt lat="20.23276333" lon="-98.73813333">
        <ele>2221.0</ele>
        <time>2019-10-12T17:08:28.944Z</time>
      </trkpt>
      <trkpt lat="20.232745" lon="-98.73813833">
        <ele>2221.0</ele>
        <time>2019-10-12T17:08:29.948Z</time>
      </trkpt>
      <trkpt lat="20.23272667" lon="-98.73813833">
        <ele>2220.0</ele>
        <time>2019-10-12T17:08:30.954Z</time>
      </trkpt>
      <trkpt lat="20.232705" lon="-98.73813833">
        <ele>2220.0</ele>
        <time>2019-10-12T17:08:31.833Z</time>
      </trkpt>
      <trkpt lat="20.23268167" lon="-98.738145">
        <ele>2221.0</ele>
        <time>2019-10-12T17:08:32.833Z</time>
      </trkpt>
      <trkpt lat="20.23266167" lon="-98.73815333">
        <ele>2221.0</ele>
        <time>2019-10-12T17:08:33.833Z</time>
      </trkpt>
      <trkpt lat="20.23263833" lon="-98.73816667">
        <ele>2221.0</ele>
        <time>2019-10-12T17:08:34.834Z</time>
      </trkpt>
      <trkpt lat="20.23261833" lon="-98.73818">
        <ele>2220.0</ele>
        <time>2019-10-12T17:08:35.834Z</time>
      </trkpt>
      <trkpt lat="20.23259833" lon="-98.738185">
        <ele>2220.0</ele>
        <time>2019-10-12T17:08:36.834Z</time>
      </trkpt>
      <trkpt lat="20.23257833" lon="-98.73819167">
        <ele>2220.0</ele>
        <time>2019-10-12T17:08:37.835Z</time>
      </trkpt>
      <trkpt lat="20.23255833" lon="-98.7382">
        <ele>2220.0</ele>
        <time>2019-10-12T17:08:38.835Z</time>
      </trkpt>
      <trkpt lat="20.23253333" lon="-98.73819833">
        <ele>2220.0</ele>
        <time>2019-10-12T17:08:39.836Z</time>
      </trkpt>
      <trkpt lat="20.23250833" lon="-98.73819333">
        <ele>2220.0</ele>
        <time>2019-10-12T17:08:40.836Z</time>
      </trkpt>
      <trkpt lat="20.232485" lon="-98.73819167">
        <ele>2220.0</ele>
        <time>2019-10-12T17:08:41.836Z</time>
      </trkpt>
      <trkpt lat="20.23246333" lon="-98.738185">
        <ele>2220.0</ele>
        <time>2019-10-12T17:08:42.836Z</time>
      </trkpt>
      <trkpt lat="20.23244333" lon="-98.73817167">
        <ele>2219.0</ele>
        <time>2019-10-12T17:08:43.837Z</time>
      </trkpt>
      <trkpt lat="20.23242" lon="-98.73816667">
        <ele>2220.0</ele>
        <time>2019-10-12T17:08:44.837Z</time>
      </trkpt>
      <trkpt lat="20.23239667" lon="-98.73815667">
        <ele>2220.0</ele>
        <time>2019-10-12T17:08:45.838Z</time>
      </trkpt>
      <trkpt lat="20.23237167" lon="-98.73814667">
        <ele>2220.0</ele>
        <time>2019-10-12T17:08:46.838Z</time>
      </trkpt>
      <trkpt lat="20.23235" lon="-98.73813667">
        <ele>2220.0</ele>
        <time>2019-10-12T17:08:47.838Z</time>
      </trkpt>
      <trkpt lat="20.23233333" lon="-98.73812667">
        <ele>2220.0</ele>
        <time>2019-10-12T17:08:48.838Z</time>
      </trkpt>
      <trkpt lat="20.23232167" lon="-98.73811833">
        <ele>2220.0</ele>
        <time>2019-10-12T17:08:49.845Z</time>
      </trkpt>
      <trkpt lat="20.23231333" lon="-98.73811167">
        <ele>2220.0</ele>
        <time>2019-10-12T17:08:50.849Z</time>
      </trkpt>
      <trkpt lat="20.232305" lon="-98.73810167">
        <ele>2220.0</ele>
        <time>2019-10-12T17:08:51.851Z</time>
      </trkpt>
      <trkpt lat="20.23229333" lon="-98.73809">
        <ele>2221.0</ele>
        <time>2019-10-12T17:08:52.855Z</time>
      </trkpt>
      <trkpt lat="20.23227833" lon="-98.73807833">
        <ele>2220.0</ele>
        <time>2019-10-12T17:08:53.861Z</time>
      </trkpt>
      <trkpt lat="20.23226667" lon="-98.73806167">
        <ele>2220.0</ele>
        <time>2019-10-12T17:08:54.861Z</time>
      </trkpt>
      <trkpt lat="20.23224833" lon="-98.73805333">
        <ele>2221.0</ele>
        <time>2019-10-12T17:08:55.861Z</time>
      </trkpt>
      <trkpt lat="20.23222667" lon="-98.73804">
        <ele>2221.0</ele>
        <time>2019-10-12T17:08:56.862Z</time>
      </trkpt>
      <trkpt lat="20.232205" lon="-98.73802167">
        <ele>2221.0</ele>
        <time>2019-10-12T17:08:57.867Z</time>
      </trkpt>
      <trkpt lat="20.23219" lon="-98.73800333">
        <ele>2220.0</ele>
        <time>2019-10-12T17:08:58.872Z</time>
      </trkpt>
      <trkpt lat="20.23218167" lon="-98.73798333">
        <ele>2220.0</ele>
        <time>2019-10-12T17:08:59.872Z</time>
      </trkpt>
      <trkpt lat="20.23217333" lon="-98.73796167">
        <ele>2219.0</ele>
        <time>2019-10-12T17:09:00.877Z</time>
      </trkpt>
      <trkpt lat="20.232165" lon="-98.73794333">
        <ele>2218.0</ele>
        <time>2019-10-12T17:09:01.883Z</time>
      </trkpt>
      <trkpt lat="20.23215" lon="-98.73793167">
        <ele>2217.0</ele>
        <time>2019-10-12T17:09:02.885Z</time>
      </trkpt>
      <trkpt lat="20.23212833" lon="-98.73792167">
        <ele>2218.0</ele>
        <time>2019-10-12T17:09:03.888Z</time>
      </trkpt>
      <trkpt lat="20.23211333" lon="-98.73791333">
        <ele>2218.0</ele>
        <time>2019-10-12T17:09:04.890Z</time>
      </trkpt>
      <trkpt lat="20.2321" lon="-98.73790833">
        <ele>2218.0</ele>
        <time>2019-10-12T17:09:05.891Z</time>
      </trkpt>
      <trkpt lat="20.23208667" lon="-98.73789667">
        <ele>2218.0</ele>
        <time>2019-10-12T17:09:06.895Z</time>
      </trkpt>
      <trkpt lat="20.23207167" lon="-98.73787667">
        <ele>2218.0</ele>
        <time>2019-10-12T17:09:07.901Z</time>
      </trkpt>
      <trkpt lat="20.232055" lon="-98.73786333">
        <ele>2218.0</ele>
        <time>2019-10-12T17:09:08.905Z</time>
      </trkpt>
      <trkpt lat="20.23204167" lon="-98.73785167">
        <ele>2218.0</ele>
        <time>2019-10-12T17:09:09.905Z</time>
      </trkpt>
      <trkpt lat="20.23202833" lon="-98.737845">
        <ele>2218.0</ele>
        <time>2019-10-12T17:09:10.906Z</time>
      </trkpt>
      <trkpt lat="20.232015" lon="-98.73783833">
        <ele>2218.0</ele>
        <time>2019-10-12T17:09:11.906Z</time>
      </trkpt>
      <trkpt lat="20.23200667" lon="-98.73783833">
        <ele>2218.0</ele>
        <time>2019-10-12T17:09:12.906Z</time>
      </trkpt>
      <trkpt lat="20.231995" lon="-98.73783333">
        <ele>2218.0</ele>
        <time>2019-10-12T17:09:13.907Z</time>
      </trkpt>
      <trkpt lat="20.23198167" lon="-98.73783167">
        <ele>2218.0</ele>
        <time>2019-10-12T17:09:14.907Z</time>
      </trkpt>
      <trkpt lat="20.23197167" lon="-98.73782167">
        <ele>2218.0</ele>
        <time>2019-10-12T17:09:15.907Z</time>
      </trkpt>
      <trkpt lat="20.23196333" lon="-98.73781167">
        <ele>2218.0</ele>
        <time>2019-10-12T17:09:16.907Z</time>
      </trkpt>
      <trkpt lat="20.23195167" lon="-98.73780333">
        <ele>2218.0</ele>
        <time>2019-10-12T17:09:17.907Z</time>
      </trkpt>
      <trkpt lat="20.23194" lon="-98.73779">
        <ele>2218.0</ele>
        <time>2019-10-12T17:09:18.908Z</time>
      </trkpt>
      <trkpt lat="20.231925" lon="-98.73777833">
        <ele>2218.0</ele>
        <time>2019-10-12T17:09:19.908Z</time>
      </trkpt>
      <trkpt lat="20.23191167" lon="-98.73776167">
        <ele>2217.0</ele>
        <time>2019-10-12T17:09:20.908Z</time>
      </trkpt>
      <trkpt lat="20.2319" lon="-98.73774333">
        <ele>2217.0</ele>
        <time>2019-10-12T17:09:21.908Z</time>
      </trkpt>
      <trkpt lat="20.23189167" lon="-98.737725">
        <ele>2216.0</ele>
        <time>2019-10-12T17:09:22.909Z</time>
      </trkpt>
      <trkpt lat="20.23187833" lon="-98.73770667">
        <ele>2215.0</ele>
        <time>2019-10-12T17:09:23.909Z</time>
      </trkpt>
      <trkpt lat="20.231865" lon="-98.73768667">
        <ele>2214.0</ele>
        <time>2019-10-12T17:09:24.909Z</time>
      </trkpt>
      <trkpt lat="20.23185333" lon="-98.73767167">
        <ele>2214.0</ele>
        <time>2019-10-12T17:09:25.909Z</time>
      </trkpt>
      <trkpt lat="20.23183667" lon="-98.73765667">
        <ele>2214.0</ele>
        <time>2019-10-12T17:09:26.909Z</time>
      </trkpt>
      <trkpt lat="20.23181833" lon="-98.73764333">
        <ele>2214.0</ele>
        <time>2019-10-12T17:09:27.913Z</time>
      </trkpt>
      <trkpt lat="20.231795" lon="-98.737625">
        <ele>2214.0</ele>
        <time>2019-10-12T17:09:28.918Z</time>
      </trkpt>
      <trkpt lat="20.23177667" lon="-98.73760833">
        <ele>2214.0</ele>
        <time>2019-10-12T17:09:29.922Z</time>
      </trkpt>
      <trkpt lat="20.23176" lon="-98.73759333">
        <ele>2215.0</ele>
        <time>2019-10-12T17:09:30.924Z</time>
      </trkpt>
      <trkpt lat="20.23174" lon="-98.73757833">
        <ele>2215.0</ele>
        <time>2019-10-12T17:09:31.928Z</time>
      </trkpt>
      <trkpt lat="20.23172167" lon="-98.737565">
        <ele>2215.0</ele>
        <time>2019-10-12T17:09:32.932Z</time>
      </trkpt>
      <trkpt lat="20.23171" lon="-98.73754667">
        <ele>2215.0</ele>
        <time>2019-10-12T17:09:33.935Z</time>
      </trkpt>
      <trkpt lat="20.23170167" lon="-98.737525">
        <ele>2215.0</ele>
        <time>2019-10-12T17:09:34.939Z</time>
      </trkpt>
      <trkpt lat="20.231685" lon="-98.73751">
        <ele>2216.0</ele>
        <time>2019-10-12T17:09:35.944Z</time>
      </trkpt>
      <trkpt lat="20.23166333" lon="-98.73749333">
        <ele>2217.0</ele>
        <time>2019-10-12T17:09:36.949Z</time>
      </trkpt>
      <trkpt lat="20.23165333" lon="-98.73746833">
        <ele>2215.0</ele>
        <time>2019-10-12T17:09:37.955Z</time>
      </trkpt>
      <trkpt lat="20.23164667" lon="-98.73745167">
        <ele>2214.0</ele>
        <time>2019-10-12T17:09:38.834Z</time>
      </trkpt>
      <trkpt lat="20.23163333" lon="-98.73743167">
        <ele>2213.0</ele>
        <time>2019-10-12T17:09:39.839Z</time>
      </trkpt>
      <trkpt lat="20.23162333" lon="-98.73741333">
        <ele>2213.0</ele>
        <time>2019-10-12T17:09:40.844Z</time>
      </trkpt>
      <trkpt lat="20.23161333" lon="-98.737395">
        <ele>2213.0</ele>
        <time>2019-10-12T17:09:41.849Z</time>
      </trkpt>
      <trkpt lat="20.2316" lon="-98.73738333">
        <ele>2214.0</ele>
        <time>2019-10-12T17:09:42.855Z</time>
      </trkpt>
      <trkpt lat="20.23158833" lon="-98.73737167">
        <ele>2215.0</ele>
        <time>2019-10-12T17:09:43.862Z</time>
      </trkpt>
      <trkpt lat="20.23158333" lon="-98.737355">
        <ele>2215.0</ele>
        <time>2019-10-12T17:09:44.866Z</time>
      </trkpt>
      <trkpt lat="20.231575" lon="-98.73733833">
        <ele>2215.0</ele>
        <time>2019-10-12T17:09:45.868Z</time>
      </trkpt>
      <trkpt lat="20.231565" lon="-98.73731667">
        <ele>2214.0</ele>
        <time>2019-10-12T17:09:46.872Z</time>
      </trkpt>
      <trkpt lat="20.23156" lon="-98.7373">
        <ele>2214.0</ele>
        <time>2019-10-12T17:09:47.877Z</time>
      </trkpt>
      <trkpt lat="20.23156" lon="-98.73728667">
        <ele>2213.0</ele>
        <time>2019-10-12T17:09:48.880Z</time>
      </trkpt>
      <trkpt lat="20.23155167" lon="-98.73727333">
        <ele>2214.0</ele>
        <time>2019-10-12T17:09:49.882Z</time>
      </trkpt>
      <trkpt lat="20.23154" lon="-98.73725833">
        <ele>2213.0</ele>
        <time>2019-10-12T17:09:50.887Z</time>
      </trkpt>
      <trkpt lat="20.231525" lon="-98.73724167">
        <ele>2213.0</ele>
        <time>2019-10-12T17:09:51.893Z</time>
      </trkpt>
      <trkpt lat="20.23150833" lon="-98.73722333">
        <ele>2212.0</ele>
        <time>2019-10-12T17:09:52.895Z</time>
      </trkpt>
      <trkpt lat="20.23148833" lon="-98.73720833">
        <ele>2212.0</ele>
        <time>2019-10-12T17:09:53.899Z</time>
      </trkpt>
      <trkpt lat="20.23147167" lon="-98.73718167">
        <ele>2211.0</ele>
        <time>2019-10-12T17:09:54.904Z</time>
      </trkpt>
      <trkpt lat="20.23145833" lon="-98.73716167">
        <ele>2210.0</ele>
        <time>2019-10-12T17:09:55.910Z</time>
      </trkpt>
      <trkpt lat="20.231435" lon="-98.73715">
        <ele>2210.0</ele>
        <time>2019-10-12T17:09:56.915Z</time>
      </trkpt>
      <trkpt lat="20.2314" lon="-98.73713167">
        <ele>2210.0</ele>
        <time>2019-10-12T17:09:57.916Z</time>
      </trkpt>
      <trkpt lat="20.23138" lon="-98.73711667">
        <ele>2210.0</ele>
        <time>2019-10-12T17:09:58.916Z</time>
      </trkpt>
      <trkpt lat="20.23135667" lon="-98.73710667">
        <ele>2209.0</ele>
        <time>2019-10-12T17:09:59.917Z</time>
      </trkpt>
      <trkpt lat="20.23134333" lon="-98.73709833">
        <ele>2209.0</ele>
        <time>2019-10-12T17:10:00.917Z</time>
      </trkpt>
      <trkpt lat="20.23132667" lon="-98.73709167">
        <ele>2210.0</ele>
        <time>2019-10-12T17:10:01.917Z</time>
      </trkpt>
      <trkpt lat="20.23130833" lon="-98.73708833">
        <ele>2210.0</ele>
        <time>2019-10-12T17:10:02.917Z</time>
      </trkpt>
      <trkpt lat="20.23129" lon="-98.73708">
        <ele>2211.0</ele>
        <time>2019-10-12T17:10:03.917Z</time>
      </trkpt>
      <trkpt lat="20.23127" lon="-98.73707667">
        <ele>2211.0</ele>
        <time>2019-10-12T17:10:04.921Z</time>
      </trkpt>
      <trkpt lat="20.23125833" lon="-98.73707833">
        <ele>2211.0</ele>
        <time>2019-10-12T17:10:05.925Z</time>
      </trkpt>
      <trkpt lat="20.23125167" lon="-98.737085">
        <ele>2212.0</ele>
        <time>2019-10-12T17:10:06.930Z</time>
      </trkpt>
      <trkpt lat="20.23124" lon="-98.737095">
        <ele>2212.0</ele>
        <time>2019-10-12T17:10:07.936Z</time>
      </trkpt>
      <trkpt lat="20.23123" lon="-98.73711">
        <ele>2212.0</ele>
        <time>2019-10-12T17:10:08.941Z</time>
      </trkpt>
      <trkpt lat="20.23122167" lon="-98.737115">
        <ele>2213.0</ele>
        <time>2019-10-12T17:10:09.946Z</time>
      </trkpt>
      <trkpt lat="20.23121167" lon="-98.73712667">
        <ele>2214.0</ele>
        <time>2019-10-12T17:10:10.949Z</time>
      </trkpt>
      <trkpt lat="20.23119833" lon="-98.73713333">
        <ele>2215.0</ele>
        <time>2019-10-12T17:10:11.954Z</time>
      </trkpt>
      <trkpt lat="20.23118167" lon="-98.73714167">
        <ele>2216.0</ele>
        <time>2019-10-12T17:10:12.834Z</time>
      </trkpt>
      <trkpt lat="20.23116833" lon="-98.73715167">
        <ele>2217.0</ele>
        <time>2019-10-12T17:10:13.838Z</time>
      </trkpt>
      <trkpt lat="20.231155" lon="-98.73716167">
        <ele>2217.0</ele>
        <time>2019-10-12T17:10:14.843Z</time>
      </trkpt>
      <trkpt lat="20.23114167" lon="-98.73716833">
        <ele>2218.0</ele>
        <time>2019-10-12T17:10:15.846Z</time>
      </trkpt>
      <trkpt lat="20.23112333" lon="-98.73717667">
        <ele>2218.0</ele>
        <time>2019-10-12T17:10:16.853Z</time>
      </trkpt>
      <trkpt lat="20.23110833" lon="-98.73718167">
        <ele>2219.0</ele>
        <time>2019-10-12T17:10:17.857Z</time>
      </trkpt>
      <trkpt lat="20.23109167" lon="-98.737185">
        <ele>2220.0</ele>
        <time>2019-10-12T17:10:18.860Z</time>
      </trkpt>
      <trkpt lat="20.23107667" lon="-98.73718833">
        <ele>2220.0</ele>
        <time>2019-10-12T17:10:19.867Z</time>
      </trkpt>
      <trkpt lat="20.23106" lon="-98.73718833">
        <ele>2221.0</ele>
        <time>2019-10-12T17:10:20.872Z</time>
      </trkpt>
      <trkpt lat="20.23104833" lon="-98.737185">
        <ele>2220.0</ele>
        <time>2019-10-12T17:10:21.874Z</time>
      </trkpt>
      <trkpt lat="20.23103333" lon="-98.737185">
        <ele>2220.0</ele>
        <time>2019-10-12T17:10:22.876Z</time>
      </trkpt>
      <trkpt lat="20.23101833" lon="-98.73718333">
        <ele>2219.0</ele>
        <time>2019-10-12T17:10:23.880Z</time>
      </trkpt>
      <trkpt lat="20.23100167" lon="-98.737185">
        <ele>2220.0</ele>
        <time>2019-10-12T17:10:24.881Z</time>
      </trkpt>
      <trkpt lat="20.23098167" lon="-98.73718833">
        <ele>2220.0</ele>
        <time>2019-10-12T17:10:25.889Z</time>
      </trkpt>
      <trkpt lat="20.230965" lon="-98.73719167">
        <ele>2220.0</ele>
        <time>2019-10-12T17:10:26.895Z</time>
      </trkpt>
      <trkpt lat="20.23095" lon="-98.73719167">
        <ele>2220.0</ele>
        <time>2019-10-12T17:10:27.902Z</time>
      </trkpt>
      <trkpt lat="20.230935" lon="-98.73719667">
        <ele>2220.0</ele>
        <time>2019-10-12T17:10:28.908Z</time>
      </trkpt>
      <trkpt lat="20.23092333" lon="-98.73719833">
        <ele>2220.0</ele>
        <time>2019-10-12T17:10:29.911Z</time>
      </trkpt>
      <trkpt lat="20.23090833" lon="-98.73720667">
        <ele>2221.0</ele>
        <time>2019-10-12T17:10:30.918Z</time>
      </trkpt>
      <trkpt lat="20.23089333" lon="-98.73721667">
        <ele>2222.0</ele>
        <time>2019-10-12T17:10:31.923Z</time>
      </trkpt>
      <trkpt lat="20.23088" lon="-98.73722667">
        <ele>2222.0</ele>
        <time>2019-10-12T17:10:32.923Z</time>
      </trkpt>
      <trkpt lat="20.230865" lon="-98.73723667">
        <ele>2222.0</ele>
        <time>2019-10-12T17:10:33.923Z</time>
      </trkpt>
      <trkpt lat="20.23085" lon="-98.73724333">
        <ele>2222.0</ele>
        <time>2019-10-12T17:10:34.923Z</time>
      </trkpt>
      <trkpt lat="20.23083333" lon="-98.73725">
        <ele>2223.0</ele>
        <time>2019-10-12T17:10:35.923Z</time>
      </trkpt>
      <trkpt lat="20.23081667" lon="-98.73725667">
        <ele>2223.0</ele>
        <time>2019-10-12T17:10:36.926Z</time>
      </trkpt>
      <trkpt lat="20.23079833" lon="-98.737265">
        <ele>2222.0</ele>
        <time>2019-10-12T17:10:37.931Z</time>
      </trkpt>
      <trkpt lat="20.23078" lon="-98.73727333">
        <ele>2223.0</ele>
        <time>2019-10-12T17:10:38.937Z</time>
      </trkpt>
      <trkpt lat="20.23075833" lon="-98.73728">
        <ele>2223.0</ele>
        <time>2019-10-12T17:10:39.941Z</time>
      </trkpt>
      <trkpt lat="20.23074" lon="-98.73728833">
        <ele>2224.0</ele>
        <time>2019-10-12T17:10:40.948Z</time>
      </trkpt>
      <trkpt lat="20.23072667" lon="-98.73729667">
        <ele>2224.0</ele>
        <time>2019-10-12T17:10:41.955Z</time>
      </trkpt>
      <trkpt lat="20.23071667" lon="-98.737305">
        <ele>2225.0</ele>
        <time>2019-10-12T17:10:42.830Z</time>
      </trkpt>
      <trkpt lat="20.23070167" lon="-98.73731">
        <ele>2225.0</ele>
        <time>2019-10-12T17:10:43.834Z</time>
      </trkpt>
      <trkpt lat="20.23069" lon="-98.73731667">
        <ele>2225.0</ele>
        <time>2019-10-12T17:10:44.835Z</time>
      </trkpt>
      <trkpt lat="20.230675" lon="-98.73732667">
        <ele>2225.0</ele>
        <time>2019-10-12T17:10:45.842Z</time>
      </trkpt>
      <trkpt lat="20.23065833" lon="-98.73732833">
        <ele>2224.0</ele>
        <time>2019-10-12T17:10:46.848Z</time>
      </trkpt>
      <trkpt lat="20.23064167" lon="-98.73733167">
        <ele>2224.0</ele>
        <time>2019-10-12T17:10:47.855Z</time>
      </trkpt>
      <trkpt lat="20.23062833" lon="-98.73734">
        <ele>2224.0</ele>
        <time>2019-10-12T17:10:48.859Z</time>
      </trkpt>
      <trkpt lat="20.23061333" lon="-98.73735">
        <ele>2224.0</ele>
        <time>2019-10-12T17:10:49.864Z</time>
      </trkpt>
      <trkpt lat="20.23059667" lon="-98.73736167">
        <ele>2224.0</ele>
        <time>2019-10-12T17:10:50.865Z</time>
      </trkpt>
      <trkpt lat="20.23058" lon="-98.73736667">
        <ele>2224.0</ele>
        <time>2019-10-12T17:10:51.866Z</time>
      </trkpt>
      <trkpt lat="20.23056167" lon="-98.73737">
        <ele>2225.0</ele>
        <time>2019-10-12T17:10:52.866Z</time>
      </trkpt>
      <trkpt lat="20.230545" lon="-98.73737">
        <ele>2225.0</ele>
        <time>2019-10-12T17:10:53.866Z</time>
      </trkpt>
      <trkpt lat="20.23052667" lon="-98.73737333">
        <ele>2226.0</ele>
        <time>2019-10-12T17:10:54.866Z</time>
      </trkpt>
      <trkpt lat="20.23051167" lon="-98.73737167">
        <ele>2226.0</ele>
        <time>2019-10-12T17:10:55.867Z</time>
      </trkpt>
      <trkpt lat="20.23049667" lon="-98.73736833">
        <ele>2226.0</ele>
        <time>2019-10-12T17:10:56.874Z</time>
      </trkpt>
      <trkpt lat="20.23048" lon="-98.73736167">
        <ele>2227.0</ele>
        <time>2019-10-12T17:10:57.881Z</time>
      </trkpt>
      <trkpt lat="20.23046667" lon="-98.73735833">
        <ele>2227.0</ele>
        <time>2019-10-12T17:10:58.887Z</time>
      </trkpt>
      <trkpt lat="20.23045833" lon="-98.73735833">
        <ele>2228.0</ele>
        <time>2019-10-12T17:10:59.888Z</time>
      </trkpt>
      <trkpt lat="20.23044667" lon="-98.73735667">
        <ele>2229.0</ele>
        <time>2019-10-12T17:11:00.890Z</time>
      </trkpt>
      <trkpt lat="20.230435" lon="-98.73735333">
        <ele>2229.0</ele>
        <time>2019-10-12T17:11:01.898Z</time>
      </trkpt>
      <trkpt lat="20.23042333" lon="-98.737345">
        <ele>2228.0</ele>
        <time>2019-10-12T17:11:02.903Z</time>
      </trkpt>
      <trkpt lat="20.23040667" lon="-98.73733833">
        <ele>2228.0</ele>
        <time>2019-10-12T17:11:03.907Z</time>
      </trkpt>
      <trkpt lat="20.23039" lon="-98.73733333">
        <ele>2228.0</ele>
        <time>2019-10-12T17:11:04.913Z</time>
      </trkpt>
      <trkpt lat="20.230375" lon="-98.73732833">
        <ele>2228.0</ele>
        <time>2019-10-12T17:11:05.916Z</time>
      </trkpt>
      <trkpt lat="20.23036333" lon="-98.73732333">
        <ele>2228.0</ele>
        <time>2019-10-12T17:11:06.922Z</time>
      </trkpt>
      <trkpt lat="20.23035333" lon="-98.73731833">
        <ele>2229.0</ele>
        <time>2019-10-12T17:11:07.924Z</time>
      </trkpt>
      <trkpt lat="20.23034833" lon="-98.737315">
        <ele>2230.0</ele>
        <time>2019-10-12T17:11:08.930Z</time>
      </trkpt>
      <trkpt lat="20.230345" lon="-98.73730667">
        <ele>2230.0</ele>
        <time>2019-10-12T17:11:09.931Z</time>
      </trkpt>
      <trkpt lat="20.23033667" lon="-98.7373">
        <ele>2230.0</ele>
        <time>2019-10-12T17:11:10.939Z</time>
      </trkpt>
      <trkpt lat="20.23032" lon="-98.73729167">
        <ele>2230.0</ele>
        <time>2019-10-12T17:11:11.943Z</time>
      </trkpt>
      <trkpt lat="20.2303" lon="-98.73728">
        <ele>2230.0</ele>
        <time>2019-10-12T17:11:12.946Z</time>
      </trkpt>
      <trkpt lat="20.23028" lon="-98.73727167">
        <ele>2229.0</ele>
        <time>2019-10-12T17:11:13.948Z</time>
      </trkpt>
      <trkpt lat="20.23026" lon="-98.73727">
        <ele>2229.0</ele>
        <time>2019-10-12T17:11:14.954Z</time>
      </trkpt>
      <trkpt lat="20.23024333" lon="-98.73727333">
        <ele>2229.0</ele>
        <time>2019-10-12T17:11:15.834Z</time>
      </trkpt>
      <trkpt lat="20.230225" lon="-98.73727667">
        <ele>2229.0</ele>
        <time>2019-10-12T17:11:16.836Z</time>
      </trkpt>
      <trkpt lat="20.23020833" lon="-98.73727333">
        <ele>2229.0</ele>
        <time>2019-10-12T17:11:17.840Z</time>
      </trkpt>
      <trkpt lat="20.23019667" lon="-98.73727">
        <ele>2228.0</ele>
        <time>2019-10-12T17:11:18.844Z</time>
      </trkpt>
      <trkpt lat="20.23018333" lon="-98.73727">
        <ele>2229.0</ele>
        <time>2019-10-12T17:11:19.849Z</time>
      </trkpt>
      <trkpt lat="20.23017" lon="-98.73727">
        <ele>2228.0</ele>
        <time>2019-10-12T17:11:20.852Z</time>
      </trkpt>
      <trkpt lat="20.23016167" lon="-98.73726667">
        <ele>2227.0</ele>
        <time>2019-10-12T17:11:21.857Z</time>
      </trkpt>
      <trkpt lat="20.23015167" lon="-98.73727">
        <ele>2227.0</ele>
        <time>2019-10-12T17:11:22.863Z</time>
      </trkpt>
      <trkpt lat="20.230145" lon="-98.73727333">
        <ele>2226.0</ele>
        <time>2019-10-12T17:11:23.870Z</time>
      </trkpt>
      <trkpt lat="20.23013667" lon="-98.737275">
        <ele>2226.0</ele>
        <time>2019-10-12T17:11:24.873Z</time>
      </trkpt>
      <trkpt lat="20.23012333" lon="-98.73727167">
        <ele>2225.0</ele>
        <time>2019-10-12T17:11:25.874Z</time>
      </trkpt>
      <trkpt lat="20.23010833" lon="-98.73727167">
        <ele>2225.0</ele>
        <time>2019-10-12T17:11:26.880Z</time>
      </trkpt>
      <trkpt lat="20.23008833" lon="-98.73727333">
        <ele>2225.0</ele>
        <time>2019-10-12T17:11:27.885Z</time>
      </trkpt>
      <trkpt lat="20.230075" lon="-98.73727167">
        <ele>2224.0</ele>
        <time>2019-10-12T17:11:28.891Z</time>
      </trkpt>
      <trkpt lat="20.23006167" lon="-98.73727167">
        <ele>2223.0</ele>
        <time>2019-10-12T17:11:29.893Z</time>
      </trkpt>
      <trkpt lat="20.23004833" lon="-98.73726667">
        <ele>2223.0</ele>
        <time>2019-10-12T17:11:30.895Z</time>
      </trkpt>
      <trkpt lat="20.230035" lon="-98.73726167">
        <ele>2223.0</ele>
        <time>2019-10-12T17:11:31.899Z</time>
      </trkpt>
      <trkpt lat="20.23001667" lon="-98.73725667">
        <ele>2223.0</ele>
        <time>2019-10-12T17:11:32.903Z</time>
      </trkpt>
      <trkpt lat="20.23000333" lon="-98.737255">
        <ele>2223.0</ele>
        <time>2019-10-12T17:11:33.908Z</time>
      </trkpt>
      <trkpt lat="20.22998333" lon="-98.737255">
        <ele>2223.0</ele>
        <time>2019-10-12T17:11:34.913Z</time>
      </trkpt>
      <trkpt lat="20.22996667" lon="-98.73725833">
        <ele>2223.0</ele>
        <time>2019-10-12T17:11:35.919Z</time>
      </trkpt>
      <trkpt lat="20.22994833" lon="-98.73727">
        <ele>2225.0</ele>
        <time>2019-10-12T17:11:36.922Z</time>
      </trkpt>
      <trkpt lat="20.22993167" lon="-98.73727167">
        <ele>2225.0</ele>
        <time>2019-10-12T17:11:37.929Z</time>
      </trkpt>
      <trkpt lat="20.22991667" lon="-98.737275">
        <ele>2225.0</ele>
        <time>2019-10-12T17:11:38.934Z</time>
      </trkpt>
      <trkpt lat="20.22990167" lon="-98.73727667">
        <ele>2225.0</ele>
        <time>2019-10-12T17:11:39.939Z</time>
      </trkpt>
      <trkpt lat="20.22988667" lon="-98.73727333">
        <ele>2225.0</ele>
        <time>2019-10-12T17:11:40.939Z</time>
      </trkpt>
      <trkpt lat="20.22987" lon="-98.737265">
        <ele>2225.0</ele>
        <time>2019-10-12T17:11:41.939Z</time>
      </trkpt>
      <trkpt lat="20.22985167" lon="-98.73725833">
        <ele>2224.0</ele>
        <time>2019-10-12T17:11:42.940Z</time>
      </trkpt>
      <trkpt lat="20.22983333" lon="-98.73725">
        <ele>2223.0</ele>
        <time>2019-10-12T17:11:43.940Z</time>
      </trkpt>
      <trkpt lat="20.229815" lon="-98.73724167">
        <ele>2223.0</ele>
        <time>2019-10-12T17:11:44.940Z</time>
      </trkpt>
      <trkpt lat="20.22979833" lon="-98.73723167">
        <ele>2223.0</ele>
        <time>2019-10-12T17:11:45.940Z</time>
      </trkpt>
      <trkpt lat="20.22978333" lon="-98.73722">
        <ele>2222.0</ele>
        <time>2019-10-12T17:11:46.940Z</time>
      </trkpt>
      <trkpt lat="20.22977167" lon="-98.73720833">
        <ele>2222.0</ele>
        <time>2019-10-12T17:11:47.940Z</time>
      </trkpt>
      <trkpt lat="20.22974833" lon="-98.7372">
        <ele>2222.0</ele>
        <time>2019-10-12T17:11:48.941Z</time>
      </trkpt>
      <trkpt lat="20.22972" lon="-98.73718667">
        <ele>2222.0</ele>
        <time>2019-10-12T17:11:49.941Z</time>
      </trkpt>
      <trkpt lat="20.22969833" lon="-98.73717333">
        <ele>2222.0</ele>
        <time>2019-10-12T17:11:50.941Z</time>
      </trkpt>
      <trkpt lat="20.22968167" lon="-98.737155">
        <ele>2221.0</ele>
        <time>2019-10-12T17:11:51.942Z</time>
      </trkpt>
      <trkpt lat="20.22967" lon="-98.73713667">
        <ele>2221.0</ele>
        <time>2019-10-12T17:11:52.942Z</time>
      </trkpt>
      <trkpt lat="20.22966167" lon="-98.73711667">
        <ele>2221.0</ele>
        <time>2019-10-12T17:11:53.942Z</time>
      </trkpt>
      <trkpt lat="20.22965167" lon="-98.73709833">
        <ele>2221.0</ele>
        <time>2019-10-12T17:11:54.942Z</time>
      </trkpt>
      <trkpt lat="20.22963667" lon="-98.73708167">
        <ele>2221.0</ele>
        <time>2019-10-12T17:11:55.942Z</time>
      </trkpt>
      <trkpt lat="20.22962333" lon="-98.737065">
        <ele>2221.0</ele>
        <time>2019-10-12T17:11:56.942Z</time>
      </trkpt>
      <trkpt lat="20.22961667" lon="-98.73704833">
        <ele>2221.0</ele>
        <time>2019-10-12T17:11:57.943Z</time>
      </trkpt>
      <trkpt lat="20.229605" lon="-98.73703333">
        <ele>2222.0</ele>
        <time>2019-10-12T17:11:58.943Z</time>
      </trkpt>
      <trkpt lat="20.22959833" lon="-98.73701">
        <ele>2221.0</ele>
        <time>2019-10-12T17:11:59.943Z</time>
      </trkpt>
      <trkpt lat="20.22959167" lon="-98.73698833">
        <ele>2222.0</ele>
        <time>2019-10-12T17:12:00.944Z</time>
      </trkpt>
      <trkpt lat="20.229585" lon="-98.736965">
        <ele>2222.0</ele>
        <time>2019-10-12T17:12:01.944Z</time>
      </trkpt>
      <trkpt lat="20.22957833" lon="-98.736945">
        <ele>2222.0</ele>
        <time>2019-10-12T17:12:02.949Z</time>
      </trkpt>
      <trkpt lat="20.22956833" lon="-98.73693167">
        <ele>2223.0</ele>
        <time>2019-10-12T17:12:03.830Z</time>
      </trkpt>
      <trkpt lat="20.22956167" lon="-98.73691833">
        <ele>2224.0</ele>
        <time>2019-10-12T17:12:04.837Z</time>
      </trkpt>
      <trkpt lat="20.22955833" lon="-98.73689833">
        <ele>2224.0</ele>
        <time>2019-10-12T17:12:05.839Z</time>
      </trkpt>
      <trkpt lat="20.22955667" lon="-98.73687667">
        <ele>2223.0</ele>
        <time>2019-10-12T17:12:06.841Z</time>
      </trkpt>
      <trkpt lat="20.22954833" lon="-98.736855">
        <ele>2222.0</ele>
        <time>2019-10-12T17:12:07.848Z</time>
      </trkpt>
      <trkpt lat="20.22954167" lon="-98.73683167">
        <ele>2221.0</ele>
        <time>2019-10-12T17:12:08.852Z</time>
      </trkpt>
      <trkpt lat="20.229535" lon="-98.73681167">
        <ele>2219.0</ele>
        <time>2019-10-12T17:12:09.859Z</time>
      </trkpt>
      <trkpt lat="20.22952833" lon="-98.73679">
        <ele>2218.0</ele>
        <time>2019-10-12T17:12:10.866Z</time>
      </trkpt>
      <trkpt lat="20.22952333" lon="-98.73677">
        <ele>2216.0</ele>
        <time>2019-10-12T17:12:11.872Z</time>
      </trkpt>
      <trkpt lat="20.22951167" lon="-98.73675333">
        <ele>2215.0</ele>
        <time>2019-10-12T17:12:12.878Z</time>
      </trkpt>
      <trkpt lat="20.22949833" lon="-98.736735">
        <ele>2215.0</ele>
        <time>2019-10-12T17:12:13.883Z</time>
      </trkpt>
      <trkpt lat="20.229485" lon="-98.736715">
        <ele>2214.0</ele>
        <time>2019-10-12T17:12:14.883Z</time>
      </trkpt>
      <trkpt lat="20.229475" lon="-98.73669833">
        <ele>2213.0</ele>
        <time>2019-10-12T17:12:15.888Z</time>
      </trkpt>
      <trkpt lat="20.22946333" lon="-98.73667833">
        <ele>2213.0</ele>
        <time>2019-10-12T17:12:16.896Z</time>
      </trkpt>
      <trkpt lat="20.22945" lon="-98.73666167">
        <ele>2212.0</ele>
        <time>2019-10-12T17:12:17.903Z</time>
      </trkpt>
      <trkpt lat="20.22943833" lon="-98.736645">
        <ele>2212.0</ele>
        <time>2019-10-12T17:12:18.906Z</time>
      </trkpt>
      <trkpt lat="20.22942667" lon="-98.73663">
        <ele>2212.0</ele>
        <time>2019-10-12T17:12:19.906Z</time>
      </trkpt>
      <trkpt lat="20.22941667" lon="-98.736615">
        <ele>2211.0</ele>
        <time>2019-10-12T17:12:20.910Z</time>
      </trkpt>
      <trkpt lat="20.22939667" lon="-98.73659667">
        <ele>2211.0</ele>
        <time>2019-10-12T17:12:21.917Z</time>
      </trkpt>
      <trkpt lat="20.22937167" lon="-98.73658">
        <ele>2211.0</ele>
        <time>2019-10-12T17:12:22.920Z</time>
      </trkpt>
      <trkpt lat="20.22934667" lon="-98.73656167">
        <ele>2211.0</ele>
        <time>2019-10-12T17:12:23.926Z</time>
      </trkpt>
      <trkpt lat="20.229325" lon="-98.73654667">
        <ele>2211.0</ele>
        <time>2019-10-12T17:12:24.931Z</time>
      </trkpt>
      <trkpt lat="20.22930833" lon="-98.73652833">
        <ele>2211.0</ele>
        <time>2019-10-12T17:12:25.937Z</time>
      </trkpt>
      <trkpt lat="20.22929333" lon="-98.73650833">
        <ele>2211.0</ele>
        <time>2019-10-12T17:12:26.942Z</time>
      </trkpt>
      <trkpt lat="20.22927833" lon="-98.73648333">
        <ele>2211.0</ele>
        <time>2019-10-12T17:12:27.949Z</time>
      </trkpt>
      <trkpt lat="20.22926833" lon="-98.73646167">
        <ele>2211.0</ele>
        <time>2019-10-12T17:12:28.954Z</time>
      </trkpt>
      <trkpt lat="20.22926667" lon="-98.73644">
        <ele>2212.0</ele>
        <time>2019-10-12T17:12:29.955Z</time>
      </trkpt>
      <trkpt lat="20.22926833" lon="-98.73641667">
        <ele>2213.0</ele>
        <time>2019-10-12T17:12:30.830Z</time>
      </trkpt>
      <trkpt lat="20.22927667" lon="-98.73639167">
        <ele>2213.0</ele>
        <time>2019-10-12T17:12:31.831Z</time>
      </trkpt>
      <trkpt lat="20.22928" lon="-98.736365">
        <ele>2212.0</ele>
        <time>2019-10-12T17:12:32.832Z</time>
      </trkpt>
      <trkpt lat="20.22927333" lon="-98.73634167">
        <ele>2212.0</ele>
        <time>2019-10-12T17:12:33.832Z</time>
      </trkpt>
      <trkpt lat="20.22926333" lon="-98.73632167">
        <ele>2212.0</ele>
        <time>2019-10-12T17:12:34.832Z</time>
      </trkpt>
      <trkpt lat="20.22924333" lon="-98.7363">
        <ele>2211.0</ele>
        <time>2019-10-12T17:12:35.834Z</time>
      </trkpt>
      <trkpt lat="20.22922167" lon="-98.73628">
        <ele>2211.0</ele>
        <time>2019-10-12T17:12:36.837Z</time>
      </trkpt>
      <trkpt lat="20.22921" lon="-98.73626333">
        <ele>2211.0</ele>
        <time>2019-10-12T17:12:37.838Z</time>
      </trkpt>
      <trkpt lat="20.229195" lon="-98.73623667">
        <ele>2209.0</ele>
        <time>2019-10-12T17:12:38.843Z</time>
      </trkpt>
      <trkpt lat="20.2292" lon="-98.73621833">
        <ele>2209.0</ele>
        <time>2019-10-12T17:12:39.845Z</time>
      </trkpt>
      <trkpt lat="20.22920833" lon="-98.73619167">
        <ele>2208.0</ele>
        <time>2019-10-12T17:12:40.851Z</time>
      </trkpt>
      <trkpt lat="20.22920833" lon="-98.73615667">
        <ele>2207.0</ele>
        <time>2019-10-12T17:12:41.858Z</time>
      </trkpt>
      <trkpt lat="20.22920667" lon="-98.73612333">
        <ele>2206.0</ele>
        <time>2019-10-12T17:12:42.859Z</time>
      </trkpt>
      <trkpt lat="20.2292" lon="-98.73609667">
        <ele>2205.0</ele>
        <time>2019-10-12T17:12:43.863Z</time>
      </trkpt>
      <trkpt lat="20.22919667" lon="-98.73607333">
        <ele>2205.0</ele>
        <time>2019-10-12T17:12:44.869Z</time>
      </trkpt>
      <trkpt lat="20.229195" lon="-98.73604833">
        <ele>2204.0</ele>
        <time>2019-10-12T17:12:45.874Z</time>
      </trkpt>
      <trkpt lat="20.22919833" lon="-98.73603167">
        <ele>2205.0</ele>
        <time>2019-10-12T17:12:46.880Z</time>
      </trkpt>
      <trkpt lat="20.22920667" lon="-98.736005">
        <ele>2205.0</ele>
        <time>2019-10-12T17:12:47.886Z</time>
      </trkpt>
      <trkpt lat="20.22921833" lon="-98.735975">
        <ele>2204.0</ele>
        <time>2019-10-12T17:12:48.891Z</time>
      </trkpt>
      <trkpt lat="20.22922167" lon="-98.73595333">
        <ele>2204.0</ele>
        <time>2019-10-12T17:12:49.893Z</time>
      </trkpt>
      <trkpt lat="20.22922" lon="-98.73594167">
        <ele>2205.0</ele>
        <time>2019-10-12T17:12:50.900Z</time>
      </trkpt>
      <trkpt lat="20.22921167" lon="-98.73592833">
        <ele>2205.0</ele>
        <time>2019-10-12T17:12:51.906Z</time>
      </trkpt>
      <trkpt lat="20.22920833" lon="-98.73591333">
        <ele>2203.0</ele>
        <time>2019-10-12T17:12:52.906Z</time>
      </trkpt>
      <trkpt lat="20.22920167" lon="-98.73590333">
        <ele>2202.0</ele>
        <time>2019-10-12T17:12:53.906Z</time>
      </trkpt>
      <trkpt lat="20.22919167" lon="-98.73589667">
        <ele>2202.0</ele>
        <time>2019-10-12T17:12:54.907Z</time>
      </trkpt>
      <trkpt lat="20.22917333" lon="-98.73589167">
        <ele>2202.0</ele>
        <time>2019-10-12T17:12:55.907Z</time>
      </trkpt>
      <trkpt lat="20.229165" lon="-98.735885">
        <ele>2202.0</ele>
        <time>2019-10-12T17:12:56.908Z</time>
      </trkpt>
      <trkpt lat="20.22915" lon="-98.73588333">
        <ele>2203.0</ele>
        <time>2019-10-12T17:12:57.910Z</time>
      </trkpt>
      <trkpt lat="20.22913333" lon="-98.735875">
        <ele>2202.0</ele>
        <time>2019-10-12T17:12:58.915Z</time>
      </trkpt>
      <trkpt lat="20.22911333" lon="-98.73586833">
        <ele>2202.0</ele>
        <time>2019-10-12T17:12:59.918Z</time>
      </trkpt>
      <trkpt lat="20.229095" lon="-98.73586">
        <ele>2201.0</ele>
        <time>2019-10-12T17:13:00.923Z</time>
      </trkpt>
      <trkpt lat="20.22908167" lon="-98.73584667">
        <ele>2200.0</ele>
        <time>2019-10-12T17:13:01.929Z</time>
      </trkpt>
      <trkpt lat="20.22907167" lon="-98.73583">
        <ele>2199.0</ele>
        <time>2019-10-12T17:13:02.932Z</time>
      </trkpt>
      <trkpt lat="20.22905333" lon="-98.73581167">
        <ele>2198.0</ele>
        <time>2019-10-12T17:13:03.938Z</time>
      </trkpt>
      <trkpt lat="20.22903" lon="-98.73579333">
        <ele>2198.0</ele>
        <time>2019-10-12T17:13:04.940Z</time>
      </trkpt>
      <trkpt lat="20.22901167" lon="-98.73577333">
        <ele>2198.0</ele>
        <time>2019-10-12T17:13:05.945Z</time>
      </trkpt>
      <trkpt lat="20.22898833" lon="-98.735755">
        <ele>2198.0</ele>
        <time>2019-10-12T17:13:06.950Z</time>
      </trkpt>
      <trkpt lat="20.22897833" lon="-98.73573167">
        <ele>2198.0</ele>
        <time>2019-10-12T17:13:07.951Z</time>
      </trkpt>
      <trkpt lat="20.228965" lon="-98.73570667">
        <ele>2197.0</ele>
        <time>2019-10-12T17:13:08.831Z</time>
      </trkpt>
      <trkpt lat="20.22894333" lon="-98.73567833">
        <ele>2196.0</ele>
        <time>2019-10-12T17:13:09.832Z</time>
      </trkpt>
      <trkpt lat="20.228935" lon="-98.73565667">
        <ele>2196.0</ele>
        <time>2019-10-12T17:13:10.838Z</time>
      </trkpt>
      <trkpt lat="20.228935" lon="-98.73564167">
        <ele>2196.0</ele>
        <time>2019-10-12T17:13:11.844Z</time>
      </trkpt>
      <trkpt lat="20.228925" lon="-98.73562333">
        <ele>2196.0</ele>
        <time>2019-10-12T17:13:12.850Z</time>
      </trkpt>
      <trkpt lat="20.22891333" lon="-98.73560833">
        <ele>2195.0</ele>
        <time>2019-10-12T17:13:13.851Z</time>
      </trkpt>
      <trkpt lat="20.22889667" lon="-98.73559667">
        <ele>2195.0</ele>
        <time>2019-10-12T17:13:14.852Z</time>
      </trkpt>
      <trkpt lat="20.228875" lon="-98.73558667">
        <ele>2195.0</ele>
        <time>2019-10-12T17:13:15.853Z</time>
      </trkpt>
      <trkpt lat="20.22885167" lon="-98.735575">
        <ele>2195.0</ele>
        <time>2019-10-12T17:13:16.854Z</time>
      </trkpt>
      <trkpt lat="20.228835" lon="-98.73555833">
        <ele>2195.0</ele>
        <time>2019-10-12T17:13:17.856Z</time>
      </trkpt>
      <trkpt lat="20.22882833" lon="-98.73553">
        <ele>2194.0</ele>
        <time>2019-10-12T17:13:18.863Z</time>
      </trkpt>
      <trkpt lat="20.22880667" lon="-98.7355">
        <ele>2193.0</ele>
        <time>2019-10-12T17:13:19.864Z</time>
      </trkpt>
      <trkpt lat="20.22878667" lon="-98.73546833">
        <ele>2193.0</ele>
        <time>2019-10-12T17:13:20.872Z</time>
      </trkpt>
      <trkpt lat="20.22877" lon="-98.73544">
        <ele>2193.0</ele>
        <time>2019-10-12T17:13:21.878Z</time>
      </trkpt>
      <trkpt lat="20.22876" lon="-98.73541167">
        <ele>2193.0</ele>
        <time>2019-10-12T17:13:22.880Z</time>
      </trkpt>
      <trkpt lat="20.22874167" lon="-98.73539333">
        <ele>2193.0</ele>
        <time>2019-10-12T17:13:23.881Z</time>
      </trkpt>
      <trkpt lat="20.22872667" lon="-98.73538167">
        <ele>2192.0</ele>
        <time>2019-10-12T17:13:24.888Z</time>
      </trkpt>
      <trkpt lat="20.22871" lon="-98.73537333">
        <ele>2192.0</ele>
        <time>2019-10-12T17:13:25.895Z</time>
      </trkpt>
      <trkpt lat="20.22869167" lon="-98.73536833">
        <ele>2192.0</ele>
        <time>2019-10-12T17:13:26.900Z</time>
      </trkpt>
      <trkpt lat="20.22866833" lon="-98.735365">
        <ele>2193.0</ele>
        <time>2019-10-12T17:13:27.907Z</time>
      </trkpt>
      <trkpt lat="20.22864667" lon="-98.73535167">
        <ele>2192.0</ele>
        <time>2019-10-12T17:13:28.910Z</time>
      </trkpt>
      <trkpt lat="20.22862167" lon="-98.73533333">
        <ele>2192.0</ele>
        <time>2019-10-12T17:13:29.916Z</time>
      </trkpt>
      <trkpt lat="20.22859667" lon="-98.73531833">
        <ele>2192.0</ele>
        <time>2019-10-12T17:13:30.922Z</time>
      </trkpt>
      <trkpt lat="20.22857167" lon="-98.73530667">
        <ele>2191.0</ele>
        <time>2019-10-12T17:13:31.927Z</time>
      </trkpt>
      <trkpt lat="20.228565" lon="-98.73530333">
        <ele>2192.0</ele>
        <time>2019-10-12T17:13:32.929Z</time>
      </trkpt>
      <trkpt lat="20.22855167" lon="-98.73531">
        <ele>2192.0</ele>
        <time>2019-10-12T17:13:33.930Z</time>
      </trkpt>
      <trkpt lat="20.22853833" lon="-98.73532">
        <ele>2192.0</ele>
        <time>2019-10-12T17:13:34.930Z</time>
      </trkpt>
      <trkpt lat="20.228525" lon="-98.73533167">
        <ele>2192.0</ele>
        <time>2019-10-12T17:13:35.935Z</time>
      </trkpt>
      <trkpt lat="20.22851167" lon="-98.73534833">
        <ele>2192.0</ele>
        <time>2019-10-12T17:13:36.941Z</time>
      </trkpt>
      <trkpt lat="20.2285" lon="-98.73536833">
        <ele>2192.0</ele>
        <time>2019-10-12T17:13:37.944Z</time>
      </trkpt>
      <trkpt lat="20.22848833" lon="-98.73539167">
        <ele>2193.0</ele>
        <time>2019-10-12T17:13:38.949Z</time>
      </trkpt>
      <trkpt lat="20.22848" lon="-98.73541333">
        <ele>2193.0</ele>
        <time>2019-10-12T17:13:39.955Z</time>
      </trkpt>
      <trkpt lat="20.22847667" lon="-98.73543">
        <ele>2194.0</ele>
        <time>2019-10-12T17:13:40.832Z</time>
      </trkpt>
      <trkpt lat="20.22846833" lon="-98.73544833">
        <ele>2194.0</ele>
        <time>2019-10-12T17:13:41.833Z</time>
      </trkpt>
      <trkpt lat="20.22845667" lon="-98.73546333">
        <ele>2194.0</ele>
        <time>2019-10-12T17:13:42.834Z</time>
      </trkpt>
      <trkpt lat="20.228445" lon="-98.73548">
        <ele>2194.0</ele>
        <time>2019-10-12T17:13:43.834Z</time>
      </trkpt>
      <trkpt lat="20.22842833" lon="-98.7355">
        <ele>2195.0</ele>
        <time>2019-10-12T17:13:44.836Z</time>
      </trkpt>
      <trkpt lat="20.22841333" lon="-98.73552167">
        <ele>2195.0</ele>
        <time>2019-10-12T17:13:45.841Z</time>
      </trkpt>
      <trkpt lat="20.22839167" lon="-98.73554">
        <ele>2196.0</ele>
        <time>2019-10-12T17:13:46.846Z</time>
      </trkpt>
      <trkpt lat="20.22837" lon="-98.735555">
        <ele>2196.0</ele>
        <time>2019-10-12T17:13:47.847Z</time>
      </trkpt>
      <trkpt lat="20.22835333" lon="-98.73556833">
        <ele>2197.0</ele>
        <time>2019-10-12T17:13:48.848Z</time>
      </trkpt>
      <trkpt lat="20.22834167" lon="-98.73557667">
        <ele>2197.0</ele>
        <time>2019-10-12T17:13:49.850Z</time>
      </trkpt>
      <trkpt lat="20.22832333" lon="-98.73558667">
        <ele>2198.0</ele>
        <time>2019-10-12T17:13:50.855Z</time>
      </trkpt>
      <trkpt lat="20.22830667" lon="-98.73559833">
        <ele>2198.0</ele>
        <time>2019-10-12T17:13:51.862Z</time>
      </trkpt>
      <trkpt lat="20.22828833" lon="-98.73561667">
        <ele>2198.0</ele>
        <time>2019-10-12T17:13:52.867Z</time>
      </trkpt>
      <trkpt lat="20.22827667" lon="-98.73562833">
        <ele>2198.0</ele>
        <time>2019-10-12T17:13:53.869Z</time>
      </trkpt>
      <trkpt lat="20.22826167" lon="-98.73564667">
        <ele>2198.0</ele>
        <time>2019-10-12T17:13:54.871Z</time>
      </trkpt>
      <trkpt lat="20.22825" lon="-98.73566">
        <ele>2199.0</ele>
        <time>2019-10-12T17:13:55.877Z</time>
      </trkpt>
      <trkpt lat="20.22824167" lon="-98.735675">
        <ele>2200.0</ele>
        <time>2019-10-12T17:13:56.883Z</time>
      </trkpt>
      <trkpt lat="20.22823167" lon="-98.735695">
        <ele>2202.0</ele>
        <time>2019-10-12T17:13:57.885Z</time>
      </trkpt>
      <trkpt lat="20.228225" lon="-98.735715">
        <ele>2204.0</ele>
        <time>2019-10-12T17:13:58.886Z</time>
      </trkpt>
      <trkpt lat="20.22822333" lon="-98.73573">
        <ele>2205.0</ele>
        <time>2019-10-12T17:13:59.887Z</time>
      </trkpt>
      <trkpt lat="20.228215" lon="-98.735755">
        <ele>2206.0</ele>
        <time>2019-10-12T17:14:00.888Z</time>
      </trkpt>
      <trkpt lat="20.22820667" lon="-98.73578167">
        <ele>2208.0</ele>
        <time>2019-10-12T17:14:01.889Z</time>
      </trkpt>
      <trkpt lat="20.228195" lon="-98.73580667">
        <ele>2209.0</ele>
        <time>2019-10-12T17:14:02.889Z</time>
      </trkpt>
      <trkpt lat="20.22818333" lon="-98.735835">
        <ele>2210.0</ele>
        <time>2019-10-12T17:14:03.890Z</time>
      </trkpt>
      <trkpt lat="20.22817667" lon="-98.73586333">
        <ele>2209.0</ele>
        <time>2019-10-12T17:14:04.891Z</time>
      </trkpt>
      <trkpt lat="20.22817833" lon="-98.73589333">
        <ele>2209.0</ele>
        <time>2019-10-12T17:14:05.891Z</time>
      </trkpt>
      <trkpt lat="20.22817833" lon="-98.735925">
        <ele>2208.0</ele>
        <time>2019-10-12T17:14:06.892Z</time>
      </trkpt>
      <trkpt lat="20.228175" lon="-98.735955">
        <ele>2208.0</ele>
        <time>2019-10-12T17:14:07.893Z</time>
      </trkpt>
      <trkpt lat="20.22817667" lon="-98.735985">
        <ele>2207.0</ele>
        <time>2019-10-12T17:14:08.894Z</time>
      </trkpt>
      <trkpt lat="20.22817167" lon="-98.73602167">
        <ele>2208.0</ele>
        <time>2019-10-12T17:14:09.895Z</time>
      </trkpt>
      <trkpt lat="20.22817" lon="-98.73605333">
        <ele>2208.0</ele>
        <time>2019-10-12T17:14:10.895Z</time>
      </trkpt>
      <trkpt lat="20.22816667" lon="-98.73608">
        <ele>2209.0</ele>
        <time>2019-10-12T17:14:11.896Z</time>
      </trkpt>
      <trkpt lat="20.22815167" lon="-98.73610333">
        <ele>2210.0</ele>
        <time>2019-10-12T17:14:12.897Z</time>
      </trkpt>
      <trkpt lat="20.22814" lon="-98.73613">
        <ele>2211.0</ele>
        <time>2019-10-12T17:14:13.898Z</time>
      </trkpt>
      <trkpt lat="20.22813" lon="-98.736155">
        <ele>2211.0</ele>
        <time>2019-10-12T17:14:14.899Z</time>
      </trkpt>
      <trkpt lat="20.22812833" lon="-98.73618">
        <ele>2211.0</ele>
        <time>2019-10-12T17:14:15.899Z</time>
      </trkpt>
      <trkpt lat="20.22813" lon="-98.73620167">
        <ele>2211.0</ele>
        <time>2019-10-12T17:14:16.900Z</time>
      </trkpt>
      <trkpt lat="20.22813" lon="-98.73622">
        <ele>2209.0</ele>
        <time>2019-10-12T17:14:17.901Z</time>
      </trkpt>
      <trkpt lat="20.22812833" lon="-98.73624">
        <ele>2208.0</ele>
        <time>2019-10-12T17:14:18.902Z</time>
      </trkpt>
      <trkpt lat="20.22812167" lon="-98.73625667">
        <ele>2207.0</ele>
        <time>2019-10-12T17:14:19.903Z</time>
      </trkpt>
      <trkpt lat="20.22811333" lon="-98.73627333">
        <ele>2207.0</ele>
        <time>2019-10-12T17:14:20.904Z</time>
      </trkpt>
      <trkpt lat="20.22810667" lon="-98.73629">
        <ele>2207.0</ele>
        <time>2019-10-12T17:14:21.905Z</time>
      </trkpt>
      <trkpt lat="20.22809833" lon="-98.73631167">
        <ele>2206.0</ele>
        <time>2019-10-12T17:14:22.905Z</time>
      </trkpt>
      <trkpt lat="20.22809333" lon="-98.73633167">
        <ele>2206.0</ele>
        <time>2019-10-12T17:14:23.909Z</time>
      </trkpt>
      <trkpt lat="20.228095" lon="-98.73635667">
        <ele>2205.0</ele>
        <time>2019-10-12T17:14:24.915Z</time>
      </trkpt>
      <trkpt lat="20.22808833" lon="-98.73637833">
        <ele>2205.0</ele>
        <time>2019-10-12T17:14:25.915Z</time>
      </trkpt>
      <trkpt lat="20.22808333" lon="-98.73639833">
        <ele>2205.0</ele>
        <time>2019-10-12T17:14:26.921Z</time>
      </trkpt>
      <trkpt lat="20.22808167" lon="-98.73641833">
        <ele>2204.0</ele>
        <time>2019-10-12T17:14:27.926Z</time>
      </trkpt>
      <trkpt lat="20.22807833" lon="-98.736435">
        <ele>2203.0</ele>
        <time>2019-10-12T17:14:28.933Z</time>
      </trkpt>
      <trkpt lat="20.228075" lon="-98.73645333">
        <ele>2203.0</ele>
        <time>2019-10-12T17:14:29.939Z</time>
      </trkpt>
      <trkpt lat="20.228075" lon="-98.73647167">
        <ele>2202.0</ele>
        <time>2019-10-12T17:14:30.943Z</time>
      </trkpt>
      <trkpt lat="20.22808" lon="-98.736485">
        <ele>2202.0</ele>
        <time>2019-10-12T17:14:31.946Z</time>
      </trkpt>
      <trkpt lat="20.22808833" lon="-98.73649333">
        <ele>2201.0</ele>
        <time>2019-10-12T17:14:32.947Z</time>
      </trkpt>
      <trkpt lat="20.22808833" lon="-98.73650167">
        <ele>2201.0</ele>
        <time>2019-10-12T17:14:33.951Z</time>
      </trkpt>
      <trkpt lat="20.228085" lon="-98.73651">
        <ele>2201.0</ele>
        <time>2019-10-12T17:14:34.831Z</time>
      </trkpt>
      <trkpt lat="20.22808167" lon="-98.73651833">
        <ele>2200.0</ele>
        <time>2019-10-12T17:14:35.838Z</time>
      </trkpt>
      <trkpt lat="20.22807833" lon="-98.73652833">
        <ele>2199.0</ele>
        <time>2019-10-12T17:14:36.842Z</time>
      </trkpt>
      <trkpt lat="20.22807667" lon="-98.73654167">
        <ele>2199.0</ele>
        <time>2019-10-12T17:14:37.848Z</time>
      </trkpt>
      <trkpt lat="20.22807" lon="-98.736555">
        <ele>2198.0</ele>
        <time>2019-10-12T17:14:38.854Z</time>
      </trkpt>
      <trkpt lat="20.228055" lon="-98.73657333">
        <ele>2197.0</ele>
        <time>2019-10-12T17:14:39.856Z</time>
      </trkpt>
      <trkpt lat="20.22804167" lon="-98.73659167">
        <ele>2196.0</ele>
        <time>2019-10-12T17:14:40.857Z</time>
      </trkpt>
      <trkpt lat="20.22802667" lon="-98.73661">
        <ele>2194.0</ele>
        <time>2019-10-12T17:14:41.858Z</time>
      </trkpt>
      <trkpt lat="20.22800833" lon="-98.73663">
        <ele>2193.0</ele>
        <time>2019-10-12T17:14:42.859Z</time>
      </trkpt>
      <trkpt lat="20.22799167" lon="-98.73665333">
        <ele>2193.0</ele>
        <time>2019-10-12T17:14:43.859Z</time>
      </trkpt>
      <trkpt lat="20.227975" lon="-98.736675">
        <ele>2193.0</ele>
        <time>2019-10-12T17:14:44.864Z</time>
      </trkpt>
      <trkpt lat="20.227965" lon="-98.73669667">
        <ele>2193.0</ele>
        <time>2019-10-12T17:14:45.865Z</time>
      </trkpt>
      <trkpt lat="20.22796167" lon="-98.73671833">
        <ele>2192.0</ele>
        <time>2019-10-12T17:14:46.871Z</time>
      </trkpt>
      <trkpt lat="20.22796167" lon="-98.73673833">
        <ele>2192.0</ele>
        <time>2019-10-12T17:14:47.880Z</time>
      </trkpt>
      <trkpt lat="20.227965" lon="-98.73676">
        <ele>2192.0</ele>
        <time>2019-10-12T17:14:48.885Z</time>
      </trkpt>
      <trkpt lat="20.22796833" lon="-98.73678">
        <ele>2191.0</ele>
        <time>2019-10-12T17:14:49.891Z</time>
      </trkpt>
      <trkpt lat="20.22797167" lon="-98.7368">
        <ele>2191.0</ele>
        <time>2019-10-12T17:14:50.896Z</time>
      </trkpt>
      <trkpt lat="20.22796833" lon="-98.73682167">
        <ele>2190.0</ele>
        <time>2019-10-12T17:14:51.898Z</time>
      </trkpt>
      <trkpt lat="20.22796" lon="-98.73684167">
        <ele>2190.0</ele>
        <time>2019-10-12T17:14:52.899Z</time>
      </trkpt>
      <trkpt lat="20.22795333" lon="-98.73686333">
        <ele>2190.0</ele>
        <time>2019-10-12T17:14:53.905Z</time>
      </trkpt>
      <trkpt lat="20.22794667" lon="-98.736885">
        <ele>2190.0</ele>
        <time>2019-10-12T17:14:54.905Z</time>
      </trkpt>
      <trkpt lat="20.22793667" lon="-98.73691333">
        <ele>2191.0</ele>
        <time>2019-10-12T17:14:55.911Z</time>
      </trkpt>
      <trkpt lat="20.22792833" lon="-98.73694167">
        <ele>2191.0</ele>
        <time>2019-10-12T17:14:56.917Z</time>
      </trkpt>
      <trkpt lat="20.22791833" lon="-98.73696833">
        <ele>2191.0</ele>
        <time>2019-10-12T17:14:57.920Z</time>
      </trkpt>
      <trkpt lat="20.22790833" lon="-98.73699333">
        <ele>2191.0</ele>
        <time>2019-10-12T17:14:58.925Z</time>
      </trkpt>
      <trkpt lat="20.227895" lon="-98.73702167">
        <ele>2192.0</ele>
        <time>2019-10-12T17:14:59.931Z</time>
      </trkpt>
      <trkpt lat="20.22787667" lon="-98.73704333">
        <ele>2192.0</ele>
        <time>2019-10-12T17:15:00.934Z</time>
      </trkpt>
      <trkpt lat="20.22786333" lon="-98.73705833">
        <ele>2192.0</ele>
        <time>2019-10-12T17:15:01.935Z</time>
      </trkpt>
      <trkpt lat="20.22785667" lon="-98.73706833">
        <ele>2191.0</ele>
        <time>2019-10-12T17:15:02.936Z</time>
      </trkpt>
      <trkpt lat="20.22785" lon="-98.73707333">
        <ele>2190.0</ele>
        <time>2019-10-12T17:15:03.936Z</time>
      </trkpt>
      <trkpt lat="20.227835" lon="-98.73708333">
        <ele>2190.0</ele>
        <time>2019-10-12T17:15:04.941Z</time>
      </trkpt>
      <trkpt lat="20.22781667" lon="-98.737095">
        <ele>2190.0</ele>
        <time>2019-10-12T17:15:05.949Z</time>
      </trkpt>
      <trkpt lat="20.2278" lon="-98.73710833">
        <ele>2190.0</ele>
        <time>2019-10-12T17:15:06.950Z</time>
      </trkpt>
      <trkpt lat="20.22778" lon="-98.73712333">
        <ele>2191.0</ele>
        <time>2019-10-12T17:15:07.830Z</time>
      </trkpt>
      <trkpt lat="20.22776333" lon="-98.73714167">
        <ele>2191.0</ele>
        <time>2019-10-12T17:15:08.836Z</time>
      </trkpt>
      <trkpt lat="20.22774333" lon="-98.73716">
        <ele>2192.0</ele>
        <time>2019-10-12T17:15:09.841Z</time>
      </trkpt>
      <trkpt lat="20.227735" lon="-98.73718">
        <ele>2193.0</ele>
        <time>2019-10-12T17:15:10.846Z</time>
      </trkpt>
      <trkpt lat="20.22773667" lon="-98.73718833">
        <ele>2193.0</ele>
        <time>2019-10-12T17:15:11.847Z</time>
      </trkpt>
      <trkpt lat="20.227735" lon="-98.73719333">
        <ele>2193.0</ele>
        <time>2019-10-12T17:15:12.853Z</time>
      </trkpt>
      <trkpt lat="20.227725" lon="-98.73719833">
        <ele>2193.0</ele>
        <time>2019-10-12T17:15:13.857Z</time>
      </trkpt>
      <trkpt lat="20.22770667" lon="-98.737195">
        <ele>2193.0</ele>
        <time>2019-10-12T17:15:14.865Z</time>
      </trkpt>
      <trkpt lat="20.22768833" lon="-98.7372">
        <ele>2193.0</ele>
        <time>2019-10-12T17:15:15.867Z</time>
      </trkpt>
      <trkpt lat="20.22767833" lon="-98.73720333">
        <ele>2193.0</ele>
        <time>2019-10-12T17:15:16.872Z</time>
      </trkpt>
      <trkpt lat="20.22767" lon="-98.73720667">
        <ele>2194.0</ele>
        <time>2019-10-12T17:15:17.877Z</time>
      </trkpt>
      <trkpt lat="20.22765333" lon="-98.73720667">
        <ele>2194.0</ele>
        <time>2019-10-12T17:15:18.879Z</time>
      </trkpt>
      <trkpt lat="20.22763833" lon="-98.73720333">
        <ele>2194.0</ele>
        <time>2019-10-12T17:15:19.883Z</time>
      </trkpt>
      <trkpt lat="20.22762667" lon="-98.7372">
        <ele>2193.0</ele>
        <time>2019-10-12T17:15:20.886Z</time>
      </trkpt>
      <trkpt lat="20.22761" lon="-98.73720167">
        <ele>2193.0</ele>
        <time>2019-10-12T17:15:21.887Z</time>
      </trkpt>
      <trkpt lat="20.22759333" lon="-98.7372">
        <ele>2193.0</ele>
        <time>2019-10-12T17:15:22.888Z</time>
      </trkpt>
      <trkpt lat="20.22757833" lon="-98.73719667">
        <ele>2192.0</ele>
        <time>2019-10-12T17:15:23.889Z</time>
      </trkpt>
      <trkpt lat="20.22756167" lon="-98.73719">
        <ele>2192.0</ele>
        <time>2019-10-12T17:15:24.891Z</time>
      </trkpt>
      <trkpt lat="20.227545" lon="-98.73718333">
        <ele>2192.0</ele>
        <time>2019-10-12T17:15:25.897Z</time>
      </trkpt>
      <trkpt lat="20.22753333" lon="-98.73717167">
        <ele>2191.0</ele>
        <time>2019-10-12T17:15:26.901Z</time>
      </trkpt>
      <trkpt lat="20.22752" lon="-98.73715833">
        <ele>2191.0</ele>
        <time>2019-10-12T17:15:27.906Z</time>
      </trkpt>
      <trkpt lat="20.22750333" lon="-98.73714667">
        <ele>2191.0</ele>
        <time>2019-10-12T17:15:28.913Z</time>
      </trkpt>
      <trkpt lat="20.22748833" lon="-98.73713833">
        <ele>2191.0</ele>
        <time>2019-10-12T17:15:29.917Z</time>
      </trkpt>
      <trkpt lat="20.22747667" lon="-98.73712833">
        <ele>2191.0</ele>
        <time>2019-10-12T17:15:30.923Z</time>
      </trkpt>
      <trkpt lat="20.22746667" lon="-98.73712167">
        <ele>2191.0</ele>
        <time>2019-10-12T17:15:31.926Z</time>
      </trkpt>
      <trkpt lat="20.22745333" lon="-98.73711167">
        <ele>2191.0</ele>
        <time>2019-10-12T17:15:32.927Z</time>
      </trkpt>
      <trkpt lat="20.22743667" lon="-98.73709833">
        <ele>2190.0</ele>
        <time>2019-10-12T17:15:33.929Z</time>
      </trkpt>
      <trkpt lat="20.22742167" lon="-98.73708">
        <ele>2190.0</ele>
        <time>2019-10-12T17:15:34.934Z</time>
      </trkpt>
      <trkpt lat="20.22741" lon="-98.73705667">
        <ele>2189.0</ele>
        <time>2019-10-12T17:15:35.940Z</time>
      </trkpt>
      <trkpt lat="20.227395" lon="-98.73704">
        <ele>2188.0</ele>
        <time>2019-10-12T17:15:36.946Z</time>
      </trkpt>
      <trkpt lat="20.22737833" lon="-98.737025">
        <ele>2188.0</ele>
        <time>2019-10-12T17:15:37.951Z</time>
      </trkpt>
      <trkpt lat="20.227365" lon="-98.73700833">
        <ele>2188.0</ele>
        <time>2019-10-12T17:15:38.833Z</time>
      </trkpt>
      <trkpt lat="20.22735" lon="-98.736995">
        <ele>2187.0</ele>
        <time>2019-10-12T17:15:39.838Z</time>
      </trkpt>
      <trkpt lat="20.227335" lon="-98.73698">
        <ele>2187.0</ele>
        <time>2019-10-12T17:15:40.838Z</time>
      </trkpt>
      <trkpt lat="20.22731667" lon="-98.73696833">
        <ele>2187.0</ele>
        <time>2019-10-12T17:15:41.838Z</time>
      </trkpt>
      <trkpt lat="20.227295" lon="-98.73696167">
        <ele>2186.0</ele>
        <time>2019-10-12T17:15:42.839Z</time>
      </trkpt>
      <trkpt lat="20.22727833" lon="-98.73695167">
        <ele>2186.0</ele>
        <time>2019-10-12T17:15:43.841Z</time>
      </trkpt>
      <trkpt lat="20.22726833" lon="-98.73693833">
        <ele>2185.0</ele>
        <time>2019-10-12T17:15:44.843Z</time>
      </trkpt>
      <trkpt lat="20.227255" lon="-98.736925">
        <ele>2185.0</ele>
        <time>2019-10-12T17:15:45.845Z</time>
      </trkpt>
      <trkpt lat="20.22724333" lon="-98.73690667">
        <ele>2185.0</ele>
        <time>2019-10-12T17:15:46.849Z</time>
      </trkpt>
      <trkpt lat="20.22723167" lon="-98.73689167">
        <ele>2185.0</ele>
        <time>2019-10-12T17:15:47.851Z</time>
      </trkpt>
      <trkpt lat="20.227215" lon="-98.73688833">
        <ele>2185.0</ele>
        <time>2019-10-12T17:15:48.855Z</time>
      </trkpt>
      <trkpt lat="20.22719167" lon="-98.736885">
        <ele>2186.0</ele>
        <time>2019-10-12T17:15:49.858Z</time>
      </trkpt>
      <trkpt lat="20.22716667" lon="-98.73688">
        <ele>2186.0</ele>
        <time>2019-10-12T17:15:50.864Z</time>
      </trkpt>
      <trkpt lat="20.22714167" lon="-98.73686667">
        <ele>2186.0</ele>
        <time>2019-10-12T17:15:51.868Z</time>
      </trkpt>
      <trkpt lat="20.22712167" lon="-98.73685">
        <ele>2185.0</ele>
        <time>2019-10-12T17:15:52.870Z</time>
      </trkpt>
      <trkpt lat="20.22710167" lon="-98.73683">
        <ele>2184.0</ele>
        <time>2019-10-12T17:15:53.873Z</time>
      </trkpt>
      <trkpt lat="20.22708333" lon="-98.73681">
        <ele>2184.0</ele>
        <time>2019-10-12T17:15:54.875Z</time>
      </trkpt>
      <trkpt lat="20.22706333" lon="-98.73679833">
        <ele>2185.0</ele>
        <time>2019-10-12T17:15:55.880Z</time>
      </trkpt>
      <trkpt lat="20.22704333" lon="-98.73677833">
        <ele>2185.0</ele>
        <time>2019-10-12T17:15:56.887Z</time>
      </trkpt>
      <trkpt lat="20.22703" lon="-98.73675833">
        <ele>2185.0</ele>
        <time>2019-10-12T17:15:57.892Z</time>
      </trkpt>
      <trkpt lat="20.22701" lon="-98.73673667">
        <ele>2185.0</ele>
        <time>2019-10-12T17:15:58.898Z</time>
      </trkpt>
      <trkpt lat="20.22699667" lon="-98.73673">
        <ele>2185.0</ele>
        <time>2019-10-12T17:15:59.904Z</time>
      </trkpt>
      <trkpt lat="20.22698333" lon="-98.73671833">
        <ele>2185.0</ele>
        <time>2019-10-12T17:16:00.908Z</time>
      </trkpt>
      <trkpt lat="20.22696333" lon="-98.736705">
        <ele>2186.0</ele>
        <time>2019-10-12T17:16:01.908Z</time>
      </trkpt>
      <trkpt lat="20.22694667" lon="-98.736695">
        <ele>2186.0</ele>
        <time>2019-10-12T17:16:02.911Z</time>
      </trkpt>
      <trkpt lat="20.22693" lon="-98.736685">
        <ele>2186.0</ele>
        <time>2019-10-12T17:16:03.918Z</time>
      </trkpt>
      <trkpt lat="20.22692" lon="-98.73667333">
        <ele>2186.0</ele>
        <time>2019-10-12T17:16:04.923Z</time>
      </trkpt>
      <trkpt lat="20.22690833" lon="-98.73667">
        <ele>2187.0</ele>
        <time>2019-10-12T17:16:05.924Z</time>
      </trkpt>
      <trkpt lat="20.22690333" lon="-98.73666333">
        <ele>2188.0</ele>
        <time>2019-10-12T17:16:06.926Z</time>
      </trkpt>
      <trkpt lat="20.22689" lon="-98.73665667">
        <ele>2188.0</ele>
        <time>2019-10-12T17:16:07.930Z</time>
      </trkpt>
      <trkpt lat="20.22688167" lon="-98.73665">
        <ele>2188.0</ele>
        <time>2019-10-12T17:16:08.931Z</time>
      </trkpt>
      <trkpt lat="20.22687" lon="-98.73664833">
        <ele>2189.0</ele>
        <time>2019-10-12T17:16:09.931Z</time>
      </trkpt>
      <trkpt lat="20.22685833" lon="-98.73664833">
        <ele>2189.0</ele>
        <time>2019-10-12T17:16:10.934Z</time>
      </trkpt>
      <trkpt lat="20.22685" lon="-98.73664833">
        <ele>2189.0</ele>
        <time>2019-10-12T17:16:11.939Z</time>
      </trkpt>
      <trkpt lat="20.22684" lon="-98.73664333">
        <ele>2190.0</ele>
        <time>2019-10-12T17:16:12.940Z</time>
      </trkpt>
      <trkpt lat="20.22683167" lon="-98.73664333">
        <ele>2190.0</ele>
        <time>2019-10-12T17:16:13.944Z</time>
      </trkpt>
      <trkpt lat="20.22682167" lon="-98.73664167">
        <ele>2190.0</ele>
        <time>2019-10-12T17:16:14.950Z</time>
      </trkpt>
      <trkpt lat="20.22681167" lon="-98.73664167">
        <ele>2190.0</ele>
        <time>2019-10-12T17:16:15.832Z</time>
      </trkpt>
      <trkpt lat="20.226805" lon="-98.73663833">
        <ele>2190.0</ele>
        <time>2019-10-12T17:16:16.837Z</time>
      </trkpt>
      <trkpt lat="20.2268" lon="-98.73663667">
        <ele>2190.0</ele>
        <time>2019-10-12T17:16:17.840Z</time>
      </trkpt>
      <trkpt lat="20.22679333" lon="-98.73663833">
        <ele>2190.0</ele>
        <time>2019-10-12T17:16:18.846Z</time>
      </trkpt>
      <trkpt lat="20.22678167" lon="-98.73664">
        <ele>2190.0</ele>
        <time>2019-10-12T17:16:19.853Z</time>
      </trkpt>
      <trkpt lat="20.22677167" lon="-98.73664167">
        <ele>2191.0</ele>
        <time>2019-10-12T17:16:20.858Z</time>
      </trkpt>
      <trkpt lat="20.22676" lon="-98.73664333">
        <ele>2191.0</ele>
        <time>2019-10-12T17:16:21.861Z</time>
      </trkpt>
      <trkpt lat="20.22675167" lon="-98.73664333">
        <ele>2191.0</ele>
        <time>2019-10-12T17:16:22.863Z</time>
      </trkpt>
      <trkpt lat="20.22674667" lon="-98.73664167">
        <ele>2192.0</ele>
        <time>2019-10-12T17:16:23.867Z</time>
      </trkpt>
      <trkpt lat="20.22674667" lon="-98.73664">
        <ele>2192.0</ele>
        <time>2019-10-12T17:16:24.869Z</time>
      </trkpt>
      <trkpt lat="20.226745" lon="-98.73664">
        <ele>2192.0</ele>
        <time>2019-10-12T17:16:25.875Z</time>
      </trkpt>
      <trkpt lat="20.22674167" lon="-98.736645">
        <ele>2193.0</ele>
        <time>2019-10-12T17:16:26.875Z</time>
      </trkpt>
      <trkpt lat="20.226735" lon="-98.73664833">
        <ele>2194.0</ele>
        <time>2019-10-12T17:16:27.877Z</time>
      </trkpt>
      <trkpt lat="20.22673" lon="-98.73665167">
        <ele>2195.0</ele>
        <time>2019-10-12T17:16:28.880Z</time>
      </trkpt>
      <trkpt lat="20.226725" lon="-98.73665167">
        <ele>2195.0</ele>
        <time>2019-10-12T17:16:29.882Z</time>
      </trkpt>
      <trkpt lat="20.22672167" lon="-98.73665333">
        <ele>2196.0</ele>
        <time>2019-10-12T17:16:30.882Z</time>
      </trkpt>
      <trkpt lat="20.22672333" lon="-98.73665667">
        <ele>2197.0</ele>
        <time>2019-10-12T17:16:31.886Z</time>
      </trkpt>
      <trkpt lat="20.22672167" lon="-98.73666">
        <ele>2197.0</ele>
        <time>2019-10-12T17:16:32.892Z</time>
      </trkpt>
      <trkpt lat="20.22671667" lon="-98.736665">
        <ele>2198.0</ele>
        <time>2019-10-12T17:16:33.898Z</time>
      </trkpt>
      <trkpt lat="20.22671" lon="-98.73667167">
        <ele>2199.0</ele>
        <time>2019-10-12T17:16:34.899Z</time>
      </trkpt>
      <trkpt lat="20.226705" lon="-98.73667667">
        <ele>2200.0</ele>
        <time>2019-10-12T17:16:35.904Z</time>
      </trkpt>
      <trkpt lat="20.22670167" lon="-98.73667833">
        <ele>2201.0</ele>
        <time>2019-10-12T17:16:36.912Z</time>
      </trkpt>
      <trkpt lat="20.22669833" lon="-98.73668167">
        <ele>2201.0</ele>
        <time>2019-10-12T17:16:37.917Z</time>
      </trkpt>
      <trkpt lat="20.226695" lon="-98.73668667">
        <ele>2202.0</ele>
        <time>2019-10-12T17:16:38.922Z</time>
      </trkpt>
      <trkpt lat="20.22669" lon="-98.73669167">
        <ele>2203.0</ele>
        <time>2019-10-12T17:16:39.925Z</time>
      </trkpt>
      <trkpt lat="20.22668333" lon="-98.736695">
        <ele>2203.0</ele>
        <time>2019-10-12T17:16:40.930Z</time>
      </trkpt>
      <trkpt lat="20.22667667" lon="-98.73669667">
        <ele>2203.0</ele>
        <time>2019-10-12T17:16:41.930Z</time>
      </trkpt>
      <trkpt lat="20.22666833" lon="-98.73669833">
        <ele>2203.0</ele>
        <time>2019-10-12T17:16:42.931Z</time>
      </trkpt>
      <trkpt lat="20.22665833" lon="-98.73670167">
        <ele>2203.0</ele>
        <time>2019-10-12T17:16:43.932Z</time>
      </trkpt>
      <trkpt lat="20.22665" lon="-98.73670333">
        <ele>2203.0</ele>
        <time>2019-10-12T17:16:44.933Z</time>
      </trkpt>
      <trkpt lat="20.226645" lon="-98.7367">
        <ele>2203.0</ele>
        <time>2019-10-12T17:16:45.934Z</time>
      </trkpt>
      <trkpt lat="20.22664" lon="-98.73669833">
        <ele>2203.0</ele>
        <time>2019-10-12T17:16:46.935Z</time>
      </trkpt>
      <trkpt lat="20.226635" lon="-98.73669833">
        <ele>2203.0</ele>
        <time>2019-10-12T17:16:47.936Z</time>
      </trkpt>
      <trkpt lat="20.22662833" lon="-98.73669667">
        <ele>2203.0</ele>
        <time>2019-10-12T17:16:48.941Z</time>
      </trkpt>
      <trkpt lat="20.22661833" lon="-98.73669667">
        <ele>2203.0</ele>
        <time>2019-10-12T17:16:49.949Z</time>
      </trkpt>
      <trkpt lat="20.22660333" lon="-98.73669833">
        <ele>2203.0</ele>
        <time>2019-10-12T17:16:50.952Z</time>
      </trkpt>
      <trkpt lat="20.22659333" lon="-98.7367">
        <ele>2203.0</ele>
        <time>2019-10-12T17:16:51.831Z</time>
      </trkpt>
      <trkpt lat="20.226585" lon="-98.73669833">
        <ele>2203.0</ele>
        <time>2019-10-12T17:16:52.836Z</time>
      </trkpt>
      <trkpt lat="20.22657333" lon="-98.736695">
        <ele>2203.0</ele>
        <time>2019-10-12T17:16:53.842Z</time>
      </trkpt>
      <trkpt lat="20.22656667" lon="-98.736685">
        <ele>2203.0</ele>
        <time>2019-10-12T17:16:54.846Z</time>
      </trkpt>
      <trkpt lat="20.22656" lon="-98.73667667">
        <ele>2203.0</ele>
        <time>2019-10-12T17:16:55.847Z</time>
      </trkpt>
      <trkpt lat="20.22656" lon="-98.73666667">
        <ele>2203.0</ele>
        <time>2019-10-12T17:16:56.852Z</time>
      </trkpt>
      <trkpt lat="20.22655833" lon="-98.73665167">
        <ele>2203.0</ele>
        <time>2019-10-12T17:16:57.856Z</time>
      </trkpt>
      <trkpt lat="20.22655333" lon="-98.73663833">
        <ele>2202.0</ele>
        <time>2019-10-12T17:16:58.863Z</time>
      </trkpt>
      <trkpt lat="20.22655" lon="-98.73662167">
        <ele>2202.0</ele>
        <time>2019-10-12T17:16:59.869Z</time>
      </trkpt>
      <trkpt lat="20.22654833" lon="-98.73660667">
        <ele>2202.0</ele>
        <time>2019-10-12T17:17:00.877Z</time>
      </trkpt>
      <trkpt lat="20.226555" lon="-98.73659333">
        <ele>2201.0</ele>
        <time>2019-10-12T17:17:01.883Z</time>
      </trkpt>
      <trkpt lat="20.22656333" lon="-98.73657833">
        <ele>2201.0</ele>
        <time>2019-10-12T17:17:02.884Z</time>
      </trkpt>
      <trkpt lat="20.22657167" lon="-98.73656167">
        <ele>2201.0</ele>
        <time>2019-10-12T17:17:03.884Z</time>
      </trkpt>
      <trkpt lat="20.22658167" lon="-98.736545">
        <ele>2201.0</ele>
        <time>2019-10-12T17:17:04.885Z</time>
      </trkpt>
      <trkpt lat="20.22659" lon="-98.736525">
        <ele>2201.0</ele>
        <time>2019-10-12T17:17:05.886Z</time>
      </trkpt>
      <trkpt lat="20.22659667" lon="-98.73651">
        <ele>2200.0</ele>
        <time>2019-10-12T17:17:06.886Z</time>
      </trkpt>
      <trkpt lat="20.2266" lon="-98.73649333">
        <ele>2200.0</ele>
        <time>2019-10-12T17:17:07.886Z</time>
      </trkpt>
      <trkpt lat="20.22660167" lon="-98.736475">
        <ele>2200.0</ele>
        <time>2019-10-12T17:17:08.887Z</time>
      </trkpt>
      <trkpt lat="20.22660833" lon="-98.736465">
        <ele>2200.0</ele>
        <time>2019-10-12T17:17:09.888Z</time>
      </trkpt>
      <trkpt lat="20.22661" lon="-98.73645833">
        <ele>2200.0</ele>
        <time>2019-10-12T17:17:10.888Z</time>
      </trkpt>
      <trkpt lat="20.22660333" lon="-98.73645">
        <ele>2200.0</ele>
        <time>2019-10-12T17:17:11.889Z</time>
      </trkpt>
      <trkpt lat="20.22659833" lon="-98.73643167">
        <ele>2199.0</ele>
        <time>2019-10-12T17:17:12.890Z</time>
      </trkpt>
      <trkpt lat="20.226595" lon="-98.73641">
        <ele>2199.0</ele>
        <time>2019-10-12T17:17:13.895Z</time>
      </trkpt>
      <trkpt lat="20.22659333" lon="-98.73639167">
        <ele>2199.0</ele>
        <time>2019-10-12T17:17:14.902Z</time>
      </trkpt>
      <trkpt lat="20.22658833" lon="-98.73638167">
        <ele>2200.0</ele>
        <time>2019-10-12T17:17:15.908Z</time>
      </trkpt>
      <trkpt lat="20.22658167" lon="-98.73635833">
        <ele>2200.0</ele>
        <time>2019-10-12T17:17:16.911Z</time>
      </trkpt>
      <trkpt lat="20.22657833" lon="-98.73633667">
        <ele>2200.0</ele>
        <time>2019-10-12T17:17:17.912Z</time>
      </trkpt>
      <trkpt lat="20.22657167" lon="-98.73631333">
        <ele>2200.0</ele>
        <time>2019-10-12T17:17:18.916Z</time>
      </trkpt>
      <trkpt lat="20.22656667" lon="-98.73629">
        <ele>2199.0</ele>
        <time>2019-10-12T17:17:19.922Z</time>
      </trkpt>
      <trkpt lat="20.22655833" lon="-98.73626833">
        <ele>2199.0</ele>
        <time>2019-10-12T17:17:20.926Z</time>
      </trkpt>
      <trkpt lat="20.22655833" lon="-98.736245">
        <ele>2199.0</ele>
        <time>2019-10-12T17:17:21.931Z</time>
      </trkpt>
      <trkpt lat="20.22655" lon="-98.73622167">
        <ele>2199.0</ele>
        <time>2019-10-12T17:17:22.935Z</time>
      </trkpt>
      <trkpt lat="20.22654333" lon="-98.7362">
        <ele>2199.0</ele>
        <time>2019-10-12T17:17:23.940Z</time>
      </trkpt>
      <trkpt lat="20.226535" lon="-98.73617833">
        <ele>2198.0</ele>
        <time>2019-10-12T17:17:24.946Z</time>
      </trkpt>
      <trkpt lat="20.22652" lon="-98.73615833">
        <ele>2198.0</ele>
        <time>2019-10-12T17:17:25.952Z</time>
      </trkpt>
      <trkpt lat="20.22651" lon="-98.73613667">
        <ele>2199.0</ele>
        <time>2019-10-12T17:17:26.833Z</time>
      </trkpt>
      <trkpt lat="20.22650333" lon="-98.73611333">
        <ele>2199.0</ele>
        <time>2019-10-12T17:17:27.836Z</time>
      </trkpt>
      <trkpt lat="20.2265" lon="-98.7361">
        <ele>2200.0</ele>
        <time>2019-10-12T17:17:28.837Z</time>
      </trkpt>
      <trkpt lat="20.22651" lon="-98.73608167">
        <ele>2201.0</ele>
        <time>2019-10-12T17:17:29.837Z</time>
      </trkpt>
      <trkpt lat="20.22651333" lon="-98.73606333">
        <ele>2201.0</ele>
        <time>2019-10-12T17:17:30.838Z</time>
      </trkpt>
      <trkpt lat="20.22651667" lon="-98.736045">
        <ele>2202.0</ele>
        <time>2019-10-12T17:17:31.838Z</time>
      </trkpt>
      <trkpt lat="20.22652167" lon="-98.73602833">
        <ele>2202.0</ele>
        <time>2019-10-12T17:17:32.839Z</time>
      </trkpt>
      <trkpt lat="20.22651167" lon="-98.73601">
        <ele>2202.0</ele>
        <time>2019-10-12T17:17:33.842Z</time>
      </trkpt>
      <trkpt lat="20.22649833" lon="-98.735995">
        <ele>2203.0</ele>
        <time>2019-10-12T17:17:34.848Z</time>
      </trkpt>
      <trkpt lat="20.22648" lon="-98.73597833">
        <ele>2203.0</ele>
        <time>2019-10-12T17:17:35.850Z</time>
      </trkpt>
      <trkpt lat="20.22646167" lon="-98.735965">
        <ele>2203.0</ele>
        <time>2019-10-12T17:17:36.855Z</time>
      </trkpt>
      <trkpt lat="20.22644667" lon="-98.73595333">
        <ele>2203.0</ele>
        <time>2019-10-12T17:17:37.861Z</time>
      </trkpt>
      <trkpt lat="20.22643333" lon="-98.73594667">
        <ele>2203.0</ele>
        <time>2019-10-12T17:17:38.867Z</time>
      </trkpt>
      <trkpt lat="20.22642167" lon="-98.73594">
        <ele>2204.0</ele>
        <time>2019-10-12T17:17:39.872Z</time>
      </trkpt>
      <trkpt lat="20.226405" lon="-98.73593333">
        <ele>2205.0</ele>
        <time>2019-10-12T17:17:40.877Z</time>
      </trkpt>
      <trkpt lat="20.226385" lon="-98.73592333">
        <ele>2205.0</ele>
        <time>2019-10-12T17:17:41.880Z</time>
      </trkpt>
      <trkpt lat="20.22636667" lon="-98.73591">
        <ele>2205.0</ele>
        <time>2019-10-12T17:17:42.881Z</time>
      </trkpt>
      <trkpt lat="20.22635333" lon="-98.735895">
        <ele>2204.0</ele>
        <time>2019-10-12T17:17:43.886Z</time>
      </trkpt>
      <trkpt lat="20.22634167" lon="-98.73588">
        <ele>2204.0</ele>
        <time>2019-10-12T17:17:44.888Z</time>
      </trkpt>
      <trkpt lat="20.226325" lon="-98.73587167">
        <ele>2204.0</ele>
        <time>2019-10-12T17:17:45.895Z</time>
      </trkpt>
      <trkpt lat="20.22631" lon="-98.73586833">
        <ele>2205.0</ele>
        <time>2019-10-12T17:17:46.902Z</time>
      </trkpt>
      <trkpt lat="20.22629333" lon="-98.73586833">
        <ele>2206.0</ele>
        <time>2019-10-12T17:17:47.905Z</time>
      </trkpt>
      <trkpt lat="20.22627333" lon="-98.73587167">
        <ele>2207.0</ele>
        <time>2019-10-12T17:17:48.912Z</time>
      </trkpt>
      <trkpt lat="20.22624833" lon="-98.73587833">
        <ele>2207.0</ele>
        <time>2019-10-12T17:17:49.915Z</time>
      </trkpt>
      <trkpt lat="20.226225" lon="-98.73588167">
        <ele>2206.0</ele>
        <time>2019-10-12T17:17:50.916Z</time>
      </trkpt>
      <trkpt lat="20.22620833" lon="-98.73589">
        <ele>2206.0</ele>
        <time>2019-10-12T17:17:51.916Z</time>
      </trkpt>
      <trkpt lat="20.22619667" lon="-98.735895">
        <ele>2206.0</ele>
        <time>2019-10-12T17:17:52.917Z</time>
      </trkpt>
      <trkpt lat="20.22618167" lon="-98.73590333">
        <ele>2207.0</ele>
        <time>2019-10-12T17:17:53.919Z</time>
      </trkpt>
      <trkpt lat="20.22617667" lon="-98.735895">
        <ele>2207.0</ele>
        <time>2019-10-12T17:17:54.924Z</time>
      </trkpt>
      <trkpt lat="20.226165" lon="-98.73589">
        <ele>2207.0</ele>
        <time>2019-10-12T17:17:55.931Z</time>
      </trkpt>
      <trkpt lat="20.22615333" lon="-98.73588667">
        <ele>2207.0</ele>
        <time>2019-10-12T17:17:56.936Z</time>
      </trkpt>
      <trkpt lat="20.22613667" lon="-98.735885">
        <ele>2207.0</ele>
        <time>2019-10-12T17:17:57.943Z</time>
      </trkpt>
      <trkpt lat="20.22612167" lon="-98.73587833">
        <ele>2207.0</ele>
        <time>2019-10-12T17:17:58.950Z</time>
      </trkpt>
      <trkpt lat="20.22610167" lon="-98.73586833">
        <ele>2207.0</ele>
        <time>2019-10-12T17:17:59.831Z</time>
      </trkpt>
      <trkpt lat="20.22608" lon="-98.73586667">
        <ele>2208.0</ele>
        <time>2019-10-12T17:18:00.833Z</time>
      </trkpt>
      <trkpt lat="20.22606167" lon="-98.73586">
        <ele>2208.0</ele>
        <time>2019-10-12T17:18:01.838Z</time>
      </trkpt>
      <trkpt lat="20.22603833" lon="-98.735855">
        <ele>2209.0</ele>
        <time>2019-10-12T17:18:02.845Z</time>
      </trkpt>
      <trkpt lat="20.22601667" lon="-98.73584833">
        <ele>2210.0</ele>
        <time>2019-10-12T17:18:03.852Z</time>
      </trkpt>
      <trkpt lat="20.22599667" lon="-98.73584833">
        <ele>2210.0</ele>
        <time>2019-10-12T17:18:04.857Z</time>
      </trkpt>
      <trkpt lat="20.22598167" lon="-98.735845">
        <ele>2211.0</ele>
        <time>2019-10-12T17:18:05.860Z</time>
      </trkpt>
      <trkpt lat="20.22596667" lon="-98.73584167">
        <ele>2211.0</ele>
        <time>2019-10-12T17:18:06.863Z</time>
      </trkpt>
      <trkpt lat="20.22595" lon="-98.73583667">
        <ele>2211.0</ele>
        <time>2019-10-12T17:18:07.864Z</time>
      </trkpt>
      <trkpt lat="20.225935" lon="-98.73582667">
        <ele>2210.0</ele>
        <time>2019-10-12T17:18:08.864Z</time>
      </trkpt>
      <trkpt lat="20.225925" lon="-98.73582">
        <ele>2210.0</ele>
        <time>2019-10-12T17:18:09.865Z</time>
      </trkpt>
      <trkpt lat="20.22591667" lon="-98.73580833">
        <ele>2209.0</ele>
        <time>2019-10-12T17:18:10.866Z</time>
      </trkpt>
      <trkpt lat="20.22591" lon="-98.7358">
        <ele>2209.0</ele>
        <time>2019-10-12T17:18:11.867Z</time>
      </trkpt>
      <trkpt lat="20.22590333" lon="-98.73578333">
        <ele>2208.0</ele>
        <time>2019-10-12T17:18:12.870Z</time>
      </trkpt>
      <trkpt lat="20.22589667" lon="-98.73576667">
        <ele>2208.0</ele>
        <time>2019-10-12T17:18:13.873Z</time>
      </trkpt>
      <trkpt lat="20.22588667" lon="-98.73575167">
        <ele>2207.0</ele>
        <time>2019-10-12T17:18:14.874Z</time>
      </trkpt>
      <trkpt lat="20.22587167" lon="-98.73573833">
        <ele>2206.0</ele>
        <time>2019-10-12T17:18:15.880Z</time>
      </trkpt>
      <trkpt lat="20.225855" lon="-98.73573">
        <ele>2205.0</ele>
        <time>2019-10-12T17:18:16.885Z</time>
      </trkpt>
      <trkpt lat="20.22584" lon="-98.73572">
        <ele>2205.0</ele>
        <time>2019-10-12T17:18:17.892Z</time>
      </trkpt>
      <trkpt lat="20.22582" lon="-98.735715">
        <ele>2205.0</ele>
        <time>2019-10-12T17:18:18.897Z</time>
      </trkpt>
      <trkpt lat="20.22579833" lon="-98.735715">
        <ele>2205.0</ele>
        <time>2019-10-12T17:18:19.904Z</time>
      </trkpt>
      <trkpt lat="20.22577333" lon="-98.73571">
        <ele>2205.0</ele>
        <time>2019-10-12T17:18:20.905Z</time>
      </trkpt>
      <trkpt lat="20.22575167" lon="-98.73570833">
        <ele>2206.0</ele>
        <time>2019-10-12T17:18:21.906Z</time>
      </trkpt>
      <trkpt lat="20.22573667" lon="-98.7357">
        <ele>2206.0</ele>
        <time>2019-10-12T17:18:22.913Z</time>
      </trkpt>
      <trkpt lat="20.22572167" lon="-98.73569833">
        <ele>2207.0</ele>
        <time>2019-10-12T17:18:23.920Z</time>
      </trkpt>
      <trkpt lat="20.2257" lon="-98.73568833">
        <ele>2206.0</ele>
        <time>2019-10-12T17:18:24.925Z</time>
      </trkpt>
      <trkpt lat="20.22567833" lon="-98.73567333">
        <ele>2205.0</ele>
        <time>2019-10-12T17:18:25.931Z</time>
      </trkpt>
      <trkpt lat="20.22565667" lon="-98.73566167">
        <ele>2205.0</ele>
        <time>2019-10-12T17:18:26.937Z</time>
      </trkpt>
      <trkpt lat="20.225645" lon="-98.73564667">
        <ele>2205.0</ele>
        <time>2019-10-12T17:18:27.941Z</time>
      </trkpt>
      <trkpt lat="20.22563167" lon="-98.73563">
        <ele>2205.0</ele>
        <time>2019-10-12T17:18:28.941Z</time>
      </trkpt>
      <trkpt lat="20.22562833" lon="-98.73561">
        <ele>2206.0</ele>
        <time>2019-10-12T17:18:29.942Z</time>
      </trkpt>
      <trkpt lat="20.22562667" lon="-98.73559167">
        <ele>2206.0</ele>
        <time>2019-10-12T17:18:30.943Z</time>
      </trkpt>
      <trkpt lat="20.22561333" lon="-98.73558167">
        <ele>2207.0</ele>
        <time>2019-10-12T17:18:31.944Z</time>
      </trkpt>
      <trkpt lat="20.22559333" lon="-98.73557">
        <ele>2207.0</ele>
        <time>2019-10-12T17:18:32.945Z</time>
      </trkpt>
      <trkpt lat="20.22557" lon="-98.73556667">
        <ele>2208.0</ele>
        <time>2019-10-12T17:18:33.945Z</time>
      </trkpt>
      <trkpt lat="20.225555" lon="-98.73557167">
        <ele>2209.0</ele>
        <time>2019-10-12T17:18:34.946Z</time>
      </trkpt>
      <trkpt lat="20.22554167" lon="-98.735575">
        <ele>2210.0</ele>
        <time>2019-10-12T17:18:35.947Z</time>
      </trkpt>
      <trkpt lat="20.22553" lon="-98.73557833">
        <ele>2210.0</ele>
        <time>2019-10-12T17:18:36.947Z</time>
      </trkpt>
      <trkpt lat="20.22551167" lon="-98.73558833">
        <ele>2210.0</ele>
        <time>2019-10-12T17:18:37.948Z</time>
      </trkpt>
      <trkpt lat="20.22550167" lon="-98.73559333">
        <ele>2211.0</ele>
        <time>2019-10-12T17:18:38.948Z</time>
      </trkpt>
      <trkpt lat="20.22549167" lon="-98.73559">
        <ele>2211.0</ele>
        <time>2019-10-12T17:18:39.948Z</time>
      </trkpt>
      <trkpt lat="20.22547167" lon="-98.735585">
        <ele>2212.0</ele>
        <time>2019-10-12T17:18:40.950Z</time>
      </trkpt>
      <trkpt lat="20.22545167" lon="-98.73557667">
        <ele>2212.0</ele>
        <time>2019-10-12T17:18:41.831Z</time>
      </trkpt>
      <trkpt lat="20.225435" lon="-98.73555833">
        <ele>2212.0</ele>
        <time>2019-10-12T17:18:42.833Z</time>
      </trkpt>
      <trkpt lat="20.22541667" lon="-98.73554667">
        <ele>2212.0</ele>
        <time>2019-10-12T17:18:43.838Z</time>
      </trkpt>
      <trkpt lat="20.2254" lon="-98.73553167">
        <ele>2212.0</ele>
        <time>2019-10-12T17:18:44.844Z</time>
      </trkpt>
      <trkpt lat="20.225385" lon="-98.73551667">
        <ele>2212.0</ele>
        <time>2019-10-12T17:18:45.846Z</time>
      </trkpt>
      <trkpt lat="20.22536833" lon="-98.735505">
        <ele>2212.0</ele>
        <time>2019-10-12T17:18:46.848Z</time>
      </trkpt>
      <trkpt lat="20.22535333" lon="-98.73548667">
        <ele>2211.0</ele>
        <time>2019-10-12T17:18:47.853Z</time>
      </trkpt>
      <trkpt lat="20.22534667" lon="-98.73546667">
        <ele>2210.0</ele>
        <time>2019-10-12T17:18:48.856Z</time>
      </trkpt>
      <trkpt lat="20.225335" lon="-98.73545333">
        <ele>2211.0</ele>
        <time>2019-10-12T17:18:49.863Z</time>
      </trkpt>
      <trkpt lat="20.22531667" lon="-98.73544">
        <ele>2211.0</ele>
        <time>2019-10-12T17:18:50.870Z</time>
      </trkpt>
      <trkpt lat="20.22530167" lon="-98.73542333">
        <ele>2211.0</ele>
        <time>2019-10-12T17:18:51.877Z</time>
      </trkpt>
      <trkpt lat="20.22528667" lon="-98.73540833">
        <ele>2212.0</ele>
        <time>2019-10-12T17:18:52.880Z</time>
      </trkpt>
      <trkpt lat="20.22527333" lon="-98.73539167">
        <ele>2212.0</ele>
        <time>2019-10-12T17:18:53.885Z</time>
      </trkpt>
      <trkpt lat="20.22525833" lon="-98.73537167">
        <ele>2212.0</ele>
        <time>2019-10-12T17:18:54.889Z</time>
      </trkpt>
      <trkpt lat="20.225245" lon="-98.73535167">
        <ele>2212.0</ele>
        <time>2019-10-12T17:18:55.889Z</time>
      </trkpt>
      <trkpt lat="20.22523333" lon="-98.735325">
        <ele>2211.0</ele>
        <time>2019-10-12T17:18:56.890Z</time>
      </trkpt>
      <trkpt lat="20.225225" lon="-98.735295">
        <ele>2210.0</ele>
        <time>2019-10-12T17:18:57.890Z</time>
      </trkpt>
      <trkpt lat="20.22521333" lon="-98.73528167">
        <ele>2210.0</ele>
        <time>2019-10-12T17:18:58.890Z</time>
      </trkpt>
      <trkpt lat="20.22520167" lon="-98.73526">
        <ele>2211.0</ele>
        <time>2019-10-12T17:18:59.890Z</time>
      </trkpt>
      <trkpt lat="20.225205" lon="-98.73523833">
        <ele>2211.0</ele>
        <time>2019-10-12T17:19:00.891Z</time>
      </trkpt>
      <trkpt lat="20.22520333" lon="-98.73521667">
        <ele>2212.0</ele>
        <time>2019-10-12T17:19:01.891Z</time>
      </trkpt>
      <trkpt lat="20.22520333" lon="-98.73519667">
        <ele>2213.0</ele>
        <time>2019-10-12T17:19:02.892Z</time>
      </trkpt>
      <trkpt lat="20.22520333" lon="-98.73517667">
        <ele>2213.0</ele>
        <time>2019-10-12T17:19:03.893Z</time>
      </trkpt>
      <trkpt lat="20.22519" lon="-98.735155">
        <ele>2214.0</ele>
        <time>2019-10-12T17:19:04.893Z</time>
      </trkpt>
      <trkpt lat="20.22518667" lon="-98.735135">
        <ele>2214.0</ele>
        <time>2019-10-12T17:19:05.894Z</time>
      </trkpt>
      <trkpt lat="20.22518167" lon="-98.73511667">
        <ele>2213.0</ele>
        <time>2019-10-12T17:19:06.895Z</time>
      </trkpt>
      <trkpt lat="20.22517667" lon="-98.73509667">
        <ele>2212.0</ele>
        <time>2019-10-12T17:19:07.896Z</time>
      </trkpt>
      <trkpt lat="20.22517333" lon="-98.735075">
        <ele>2212.0</ele>
        <time>2019-10-12T17:19:08.897Z</time>
      </trkpt>
      <trkpt lat="20.22517667" lon="-98.73505167">
        <ele>2211.0</ele>
        <time>2019-10-12T17:19:09.897Z</time>
      </trkpt>
      <trkpt lat="20.22517667" lon="-98.73502833">
        <ele>2211.0</ele>
        <time>2019-10-12T17:19:10.898Z</time>
      </trkpt>
      <trkpt lat="20.22517" lon="-98.73501667">
        <ele>2211.0</ele>
        <time>2019-10-12T17:19:11.899Z</time>
      </trkpt>
      <trkpt lat="20.22515333" lon="-98.73501167">
        <ele>2211.0</ele>
        <time>2019-10-12T17:19:12.900Z</time>
      </trkpt>
      <trkpt lat="20.22513333" lon="-98.73501">
        <ele>2211.0</ele>
        <time>2019-10-12T17:19:13.901Z</time>
      </trkpt>
      <trkpt lat="20.22511167" lon="-98.73501667">
        <ele>2210.0</ele>
        <time>2019-10-12T17:19:14.909Z</time>
      </trkpt>
      <trkpt lat="20.22509667" lon="-98.73502667">
        <ele>2210.0</ele>
        <time>2019-10-12T17:19:15.915Z</time>
      </trkpt>
      <trkpt lat="20.22508833" lon="-98.73503833">
        <ele>2211.0</ele>
        <time>2019-10-12T17:19:16.921Z</time>
      </trkpt>
      <trkpt lat="20.22508333" lon="-98.73504833">
        <ele>2211.0</ele>
        <time>2019-10-12T17:19:17.925Z</time>
      </trkpt>
      <trkpt lat="20.225075" lon="-98.735055">
        <ele>2211.0</ele>
        <time>2019-10-12T17:19:18.930Z</time>
      </trkpt>
      <trkpt lat="20.22506333" lon="-98.73506">
        <ele>2211.0</ele>
        <time>2019-10-12T17:19:19.935Z</time>
      </trkpt>
      <trkpt lat="20.22505" lon="-98.735065">
        <ele>2212.0</ele>
        <time>2019-10-12T17:19:20.940Z</time>
      </trkpt>
      <trkpt lat="20.22503333" lon="-98.73507333">
        <ele>2212.0</ele>
        <time>2019-10-12T17:19:21.946Z</time>
      </trkpt>
      <trkpt lat="20.22501833" lon="-98.73508333">
        <ele>2212.0</ele>
        <time>2019-10-12T17:19:22.952Z</time>
      </trkpt>
      <trkpt lat="20.22500167" lon="-98.73509333">
        <ele>2211.0</ele>
        <time>2019-10-12T17:19:23.830Z</time>
      </trkpt>
      <trkpt lat="20.224985" lon="-98.7351">
        <ele>2211.0</ele>
        <time>2019-10-12T17:19:24.831Z</time>
      </trkpt>
      <trkpt lat="20.22497167" lon="-98.7351">
        <ele>2211.0</ele>
        <time>2019-10-12T17:19:25.833Z</time>
      </trkpt>
      <trkpt lat="20.22495667" lon="-98.7351">
        <ele>2211.0</ele>
        <time>2019-10-12T17:19:26.839Z</time>
      </trkpt>
      <trkpt lat="20.22494833" lon="-98.735095">
        <ele>2210.0</ele>
        <time>2019-10-12T17:19:27.844Z</time>
      </trkpt>
      <trkpt lat="20.22493333" lon="-98.73509">
        <ele>2211.0</ele>
        <time>2019-10-12T17:19:28.849Z</time>
      </trkpt>
      <trkpt lat="20.22491833" lon="-98.73508167">
        <ele>2211.0</ele>
        <time>2019-10-12T17:19:29.850Z</time>
      </trkpt>
      <trkpt lat="20.22490833" lon="-98.73507333">
        <ele>2211.0</ele>
        <time>2019-10-12T17:19:30.851Z</time>
      </trkpt>
      <trkpt lat="20.22489333" lon="-98.735065">
        <ele>2212.0</ele>
        <time>2019-10-12T17:19:31.852Z</time>
      </trkpt>
      <trkpt lat="20.224875" lon="-98.73506333">
        <ele>2212.0</ele>
        <time>2019-10-12T17:19:32.855Z</time>
      </trkpt>
      <trkpt lat="20.22485667" lon="-98.73505833">
        <ele>2212.0</ele>
        <time>2019-10-12T17:19:33.861Z</time>
      </trkpt>
      <trkpt lat="20.22484" lon="-98.73506">
        <ele>2213.0</ele>
        <time>2019-10-12T17:19:34.863Z</time>
      </trkpt>
      <trkpt lat="20.22482" lon="-98.73507">
        <ele>2214.0</ele>
        <time>2019-10-12T17:19:35.867Z</time>
      </trkpt>
      <trkpt lat="20.22481" lon="-98.73507167">
        <ele>2214.0</ele>
        <time>2019-10-12T17:19:36.874Z</time>
      </trkpt>
      <trkpt lat="20.22480667" lon="-98.73507167">
        <ele>2215.0</ele>
        <time>2019-10-12T17:19:37.878Z</time>
      </trkpt>
      <trkpt lat="20.224805" lon="-98.735075">
        <ele>2215.0</ele>
        <time>2019-10-12T17:19:38.881Z</time>
      </trkpt>
      <trkpt lat="20.22480667" lon="-98.73508">
        <ele>2216.0</ele>
        <time>2019-10-12T17:19:39.886Z</time>
      </trkpt>
      <trkpt lat="20.22480667" lon="-98.7351">
        <ele>2216.0</ele>
        <time>2019-10-12T17:19:40.893Z</time>
      </trkpt>
      <trkpt lat="20.22481667" lon="-98.73512333">
        <ele>2216.0</ele>
        <time>2019-10-12T17:19:41.899Z</time>
      </trkpt>
      <trkpt lat="20.22481833" lon="-98.73512833">
        <ele>2216.0</ele>
        <time>2019-10-12T17:19:42.905Z</time>
      </trkpt>
      <trkpt lat="20.224815" lon="-98.73513667">
        <ele>2215.0</ele>
        <time>2019-10-12T17:19:43.908Z</time>
      </trkpt>
      <trkpt lat="20.22481333" lon="-98.73514833">
        <ele>2215.0</ele>
        <time>2019-10-12T17:19:44.913Z</time>
      </trkpt>
      <trkpt lat="20.22481833" lon="-98.73516167">
        <ele>2214.0</ele>
        <time>2019-10-12T17:19:45.920Z</time>
      </trkpt>
      <trkpt lat="20.224825" lon="-98.73517333">
        <ele>2214.0</ele>
        <time>2019-10-12T17:19:46.923Z</time>
      </trkpt>
      <trkpt lat="20.22483167" lon="-98.73518667">
        <ele>2214.0</ele>
        <time>2019-10-12T17:19:47.926Z</time>
      </trkpt>
      <trkpt lat="20.22483667" lon="-98.73519833">
        <ele>2215.0</ele>
        <time>2019-10-12T17:19:48.927Z</time>
      </trkpt>
      <trkpt lat="20.22483833" lon="-98.73521">
        <ele>2214.0</ele>
        <time>2019-10-12T17:19:49.928Z</time>
      </trkpt>
      <trkpt lat="20.22483833" lon="-98.73522167">
        <ele>2214.0</ele>
        <time>2019-10-12T17:19:50.932Z</time>
      </trkpt>
      <trkpt lat="20.22483833" lon="-98.73523167">
        <ele>2213.0</ele>
        <time>2019-10-12T17:19:51.938Z</time>
      </trkpt>
      <trkpt lat="20.22483833" lon="-98.73524">
        <ele>2213.0</ele>
        <time>2019-10-12T17:19:52.940Z</time>
      </trkpt>
      <trkpt lat="20.224835" lon="-98.73524667">
        <ele>2213.0</ele>
        <time>2019-10-12T17:19:53.946Z</time>
      </trkpt>
      <trkpt lat="20.22483" lon="-98.735255">
        <ele>2213.0</ele>
        <time>2019-10-12T17:19:54.950Z</time>
      </trkpt>
      <trkpt lat="20.22482333" lon="-98.73525833">
        <ele>2213.0</ele>
        <time>2019-10-12T17:19:55.954Z</time>
      </trkpt>
      <trkpt lat="20.22482" lon="-98.73525667">
        <ele>2213.0</ele>
        <time>2019-10-12T17:19:56.830Z</time>
      </trkpt>
      <trkpt lat="20.22481333" lon="-98.735255">
        <ele>2213.0</ele>
        <time>2019-10-12T17:19:57.831Z</time>
      </trkpt>
      <trkpt lat="20.22480333" lon="-98.73525333">
        <ele>2213.0</ele>
        <time>2019-10-12T17:19:58.835Z</time>
      </trkpt>
      <trkpt lat="20.224795" lon="-98.73525167">
        <ele>2213.0</ele>
        <time>2019-10-12T17:19:59.837Z</time>
      </trkpt>
      <trkpt lat="20.22479167" lon="-98.735245">
        <ele>2213.0</ele>
        <time>2019-10-12T17:20:00.840Z</time>
      </trkpt>
      <trkpt lat="20.22479" lon="-98.73523667">
        <ele>2213.0</ele>
        <time>2019-10-12T17:20:01.845Z</time>
      </trkpt>
      <trkpt lat="20.224785" lon="-98.73523333">
        <ele>2214.0</ele>
        <time>2019-10-12T17:20:02.852Z</time>
      </trkpt>
      <trkpt lat="20.224775" lon="-98.73523333">
        <ele>2214.0</ele>
        <time>2019-10-12T17:20:03.858Z</time>
      </trkpt>
      <trkpt lat="20.224765" lon="-98.73523333">
        <ele>2214.0</ele>
        <time>2019-10-12T17:20:04.861Z</time>
      </trkpt>
      <trkpt lat="20.22475" lon="-98.73523667">
        <ele>2214.0</ele>
        <time>2019-10-12T17:20:05.866Z</time>
      </trkpt>
      <trkpt lat="20.22474" lon="-98.73524">
        <ele>2214.0</ele>
        <time>2019-10-12T17:20:06.871Z</time>
      </trkpt>
      <trkpt lat="20.22473" lon="-98.735245">
        <ele>2214.0</ele>
        <time>2019-10-12T17:20:07.878Z</time>
      </trkpt>
      <trkpt lat="20.22472167" lon="-98.73525">
        <ele>2214.0</ele>
        <time>2019-10-12T17:20:08.880Z</time>
      </trkpt>
      <trkpt lat="20.22471" lon="-98.73525333">
        <ele>2214.0</ele>
        <time>2019-10-12T17:20:09.881Z</time>
      </trkpt>
      <trkpt lat="20.22470333" lon="-98.73526">
        <ele>2213.0</ele>
        <time>2019-10-12T17:20:10.882Z</time>
      </trkpt>
      <trkpt lat="20.22469" lon="-98.735265">
        <ele>2213.0</ele>
        <time>2019-10-12T17:20:11.883Z</time>
      </trkpt>
      <trkpt lat="20.22467667" lon="-98.73526833">
        <ele>2213.0</ele>
        <time>2019-10-12T17:20:12.883Z</time>
      </trkpt>
      <trkpt lat="20.22467" lon="-98.73526833">
        <ele>2213.0</ele>
        <time>2019-10-12T17:20:13.884Z</time>
      </trkpt>
      <trkpt lat="20.22466333" lon="-98.73526667">
        <ele>2214.0</ele>
        <time>2019-10-12T17:20:14.885Z</time>
      </trkpt>
      <trkpt lat="20.22466" lon="-98.73526">
        <ele>2213.0</ele>
        <time>2019-10-12T17:20:15.886Z</time>
      </trkpt>
      <trkpt lat="20.224665" lon="-98.73525">
        <ele>2214.0</ele>
        <time>2019-10-12T17:20:16.887Z</time>
      </trkpt>
      <trkpt lat="20.22467333" lon="-98.73524167">
        <ele>2215.0</ele>
        <time>2019-10-12T17:20:17.892Z</time>
      </trkpt>
      <trkpt lat="20.22467333" lon="-98.73523833">
        <ele>2216.0</ele>
        <time>2019-10-12T17:20:18.899Z</time>
      </trkpt>
      <trkpt lat="20.22467167" lon="-98.73523667">
        <ele>2216.0</ele>
        <time>2019-10-12T17:20:19.902Z</time>
      </trkpt>
      <trkpt lat="20.224675" lon="-98.73523667">
        <ele>2216.0</ele>
        <time>2019-10-12T17:20:20.907Z</time>
      </trkpt>
      <trkpt lat="20.22467667" lon="-98.73523333">
        <ele>2216.0</ele>
        <time>2019-10-12T17:20:21.909Z</time>
      </trkpt>
      <trkpt lat="20.22467833" lon="-98.73523667">
        <ele>2216.0</ele>
        <time>2019-10-12T17:20:22.911Z</time>
      </trkpt>
      <trkpt lat="20.22467833" lon="-98.73524333">
        <ele>2217.0</ele>
        <time>2019-10-12T17:20:23.911Z</time>
      </trkpt>
      <trkpt lat="20.22467" lon="-98.73525167">
        <ele>2217.0</ele>
        <time>2019-10-12T17:20:24.913Z</time>
      </trkpt>
      <trkpt lat="20.22466667" lon="-98.735255">
        <ele>2217.0</ele>
        <time>2019-10-12T17:20:25.916Z</time>
      </trkpt>
      <trkpt lat="20.22466167" lon="-98.73526">
        <ele>2218.0</ele>
        <time>2019-10-12T17:20:26.918Z</time>
      </trkpt>
      <trkpt lat="20.22465667" lon="-98.73526333">
        <ele>2218.0</ele>
        <time>2019-10-12T17:20:27.920Z</time>
      </trkpt>
      <trkpt lat="20.22465" lon="-98.73526667">
        <ele>2219.0</ele>
        <time>2019-10-12T17:20:28.925Z</time>
      </trkpt>
      <trkpt lat="20.22464833" lon="-98.73526833">
        <ele>2220.0</ele>
        <time>2019-10-12T17:20:29.931Z</time>
      </trkpt>
      <trkpt lat="20.22465167" lon="-98.735265">
        <ele>2220.0</ele>
        <time>2019-10-12T17:20:30.937Z</time>
      </trkpt>
      <trkpt lat="20.22465" lon="-98.73526833">
        <ele>2221.0</ele>
        <time>2019-10-12T17:20:31.942Z</time>
      </trkpt>
      <trkpt lat="20.22464667" lon="-98.73527167">
        <ele>2221.0</ele>
        <time>2019-10-12T17:20:32.947Z</time>
      </trkpt>
      <trkpt lat="20.22463667" lon="-98.73527667">
        <ele>2222.0</ele>
        <time>2019-10-12T17:20:33.953Z</time>
      </trkpt>
      <trkpt lat="20.22462833" lon="-98.73528167">
        <ele>2222.0</ele>
        <time>2019-10-12T17:20:34.832Z</time>
      </trkpt>
      <trkpt lat="20.22462" lon="-98.73529167">
        <ele>2222.0</ele>
        <time>2019-10-12T17:20:35.836Z</time>
      </trkpt>
      <trkpt lat="20.22461833" lon="-98.73529667">
        <ele>2222.0</ele>
        <time>2019-10-12T17:20:36.837Z</time>
      </trkpt>
      <trkpt lat="20.22461667" lon="-98.7353">
        <ele>2221.0</ele>
        <time>2019-10-12T17:20:37.838Z</time>
      </trkpt>
      <trkpt lat="20.22461667" lon="-98.73530167">
        <ele>2221.0</ele>
        <time>2019-10-12T17:20:38.838Z</time>
      </trkpt>
      <trkpt lat="20.224615" lon="-98.73530333">
        <ele>2221.0</ele>
        <time>2019-10-12T17:20:39.843Z</time>
      </trkpt>
      <trkpt lat="20.22461167" lon="-98.735305">
        <ele>2221.0</ele>
        <time>2019-10-12T17:20:40.849Z</time>
      </trkpt>
      <trkpt lat="20.22460667" lon="-98.73530833">
        <ele>2221.0</ele>
        <time>2019-10-12T17:20:41.854Z</time>
      </trkpt>
      <trkpt lat="20.22459833" lon="-98.73531167">
        <ele>2221.0</ele>
        <time>2019-10-12T17:20:42.858Z</time>
      </trkpt>
      <trkpt lat="20.22459167" lon="-98.735315">
        <ele>2221.0</ele>
        <time>2019-10-12T17:20:43.864Z</time>
      </trkpt>
      <trkpt lat="20.22458333" lon="-98.73532167">
        <ele>2221.0</ele>
        <time>2019-10-12T17:20:44.871Z</time>
      </trkpt>
      <trkpt lat="20.224575" lon="-98.735325">
        <ele>2221.0</ele>
        <time>2019-10-12T17:20:45.875Z</time>
      </trkpt>
      <trkpt lat="20.22456833" lon="-98.73532833">
        <ele>2221.0</ele>
        <time>2019-10-12T17:20:46.876Z</time>
      </trkpt>
      <trkpt lat="20.22456167" lon="-98.73533">
        <ele>2221.0</ele>
        <time>2019-10-12T17:20:47.878Z</time>
      </trkpt>
      <trkpt lat="20.22455" lon="-98.73533667">
        <ele>2221.0</ele>
        <time>2019-10-12T17:20:48.881Z</time>
      </trkpt>
      <trkpt lat="20.22454" lon="-98.73534333">
        <ele>2220.0</ele>
        <time>2019-10-12T17:20:49.888Z</time>
      </trkpt>
      <trkpt lat="20.22453" lon="-98.73534833">
        <ele>2220.0</ele>
        <time>2019-10-12T17:20:50.894Z</time>
      </trkpt>
      <trkpt lat="20.22452" lon="-98.73535333">
        <ele>2220.0</ele>
        <time>2019-10-12T17:20:51.901Z</time>
      </trkpt>
      <trkpt lat="20.22451167" lon="-98.73535833">
        <ele>2219.0</ele>
        <time>2019-10-12T17:20:52.909Z</time>
      </trkpt>
      <trkpt lat="20.22450833" lon="-98.73536">
        <ele>2219.0</ele>
        <time>2019-10-12T17:20:53.912Z</time>
      </trkpt>
      <trkpt lat="20.224505" lon="-98.73536167">
        <ele>2219.0</ele>
        <time>2019-10-12T17:20:54.914Z</time>
      </trkpt>
      <trkpt lat="20.22449833" lon="-98.73536333">
        <ele>2219.0</ele>
        <time>2019-10-12T17:20:55.915Z</time>
      </trkpt>
      <trkpt lat="20.22449167" lon="-98.735365">
        <ele>2219.0</ele>
        <time>2019-10-12T17:20:56.915Z</time>
      </trkpt>
      <trkpt lat="20.22448833" lon="-98.735365">
        <ele>2220.0</ele>
        <time>2019-10-12T17:20:57.916Z</time>
      </trkpt>
      <trkpt lat="20.224485" lon="-98.73536167">
        <ele>2220.0</ele>
        <time>2019-10-12T17:20:58.917Z</time>
      </trkpt>
      <trkpt lat="20.22448" lon="-98.73536">
        <ele>2220.0</ele>
        <time>2019-10-12T17:20:59.918Z</time>
      </trkpt>
      <trkpt lat="20.224475" lon="-98.73535833">
        <ele>2220.0</ele>
        <time>2019-10-12T17:21:00.919Z</time>
      </trkpt>
      <trkpt lat="20.22447167" lon="-98.73535167">
        <ele>2220.0</ele>
        <time>2019-10-12T17:21:01.922Z</time>
      </trkpt>
      <trkpt lat="20.22446833" lon="-98.73534667">
        <ele>2220.0</ele>
        <time>2019-10-12T17:21:02.927Z</time>
      </trkpt>
      <trkpt lat="20.22446333" lon="-98.73534333">
        <ele>2220.0</ele>
        <time>2019-10-12T17:21:03.930Z</time>
      </trkpt>
      <trkpt lat="20.22446" lon="-98.73534">
        <ele>2220.0</ele>
        <time>2019-10-12T17:21:04.935Z</time>
      </trkpt>
      <trkpt lat="20.224455" lon="-98.735335">
        <ele>2219.0</ele>
        <time>2019-10-12T17:21:05.941Z</time>
      </trkpt>
      <trkpt lat="20.224455" lon="-98.73533167">
        <ele>2219.0</ele>
        <time>2019-10-12T17:21:06.946Z</time>
      </trkpt>
      <trkpt lat="20.22445833" lon="-98.73532833">
        <ele>2219.0</ele>
        <time>2019-10-12T17:21:07.952Z</time>
      </trkpt>
      <trkpt lat="20.22446333" lon="-98.73532333">
        <ele>2219.0</ele>
        <time>2019-10-12T17:21:08.831Z</time>
      </trkpt>
      <trkpt lat="20.22447167" lon="-98.73531833">
        <ele>2220.0</ele>
        <time>2019-10-12T17:21:09.832Z</time>
      </trkpt>
      <trkpt lat="20.22447667" lon="-98.735315">
        <ele>2220.0</ele>
        <time>2019-10-12T17:21:10.834Z</time>
      </trkpt>
      <trkpt lat="20.22447667" lon="-98.73530833">
        <ele>2221.0</ele>
        <time>2019-10-12T17:21:11.838Z</time>
      </trkpt>
      <trkpt lat="20.22447833" lon="-98.73530333">
        <ele>2222.0</ele>
        <time>2019-10-12T17:21:12.845Z</time>
      </trkpt>
      <trkpt lat="20.22448" lon="-98.73529667">
        <ele>2222.0</ele>
        <time>2019-10-12T17:21:13.851Z</time>
      </trkpt>
      <trkpt lat="20.22448667" lon="-98.73528833">
        <ele>2223.0</ele>
        <time>2019-10-12T17:21:14.857Z</time>
      </trkpt>
      <trkpt lat="20.22448667" lon="-98.73528">
        <ele>2224.0</ele>
        <time>2019-10-12T17:21:15.861Z</time>
      </trkpt>
      <trkpt lat="20.22449" lon="-98.73527333">
        <ele>2225.0</ele>
        <time>2019-10-12T17:21:16.865Z</time>
      </trkpt>
      <trkpt lat="20.22449" lon="-98.73527167">
        <ele>2225.0</ele>
        <time>2019-10-12T17:21:17.869Z</time>
      </trkpt>
      <trkpt lat="20.22448833" lon="-98.73527">
        <ele>2226.0</ele>
        <time>2019-10-12T17:21:18.870Z</time>
      </trkpt>
      <trkpt lat="20.224485" lon="-98.73527167">
        <ele>2227.0</ele>
        <time>2019-10-12T17:21:19.873Z</time>
      </trkpt>
      <trkpt lat="20.22447833" lon="-98.73527333">
        <ele>2228.0</ele>
        <time>2019-10-12T17:21:20.878Z</time>
      </trkpt>
      <trkpt lat="20.22447167" lon="-98.73527667">
        <ele>2228.0</ele>
        <time>2019-10-12T17:21:21.883Z</time>
      </trkpt>
      <trkpt lat="20.22446167" lon="-98.73527667">
        <ele>2228.0</ele>
        <time>2019-10-12T17:21:22.890Z</time>
      </trkpt>
      <trkpt lat="20.22445" lon="-98.735275">
        <ele>2229.0</ele>
        <time>2019-10-12T17:21:23.896Z</time>
      </trkpt>
      <trkpt lat="20.22444167" lon="-98.73527167">
        <ele>2229.0</ele>
        <time>2019-10-12T17:21:24.902Z</time>
      </trkpt>
      <trkpt lat="20.22443333" lon="-98.73527167">
        <ele>2229.0</ele>
        <time>2019-10-12T17:21:25.908Z</time>
      </trkpt>
      <trkpt lat="20.224425" lon="-98.73526667">
        <ele>2229.0</ele>
        <time>2019-10-12T17:21:26.914Z</time>
      </trkpt>
      <trkpt lat="20.224415" lon="-98.73526167">
        <ele>2228.0</ele>
        <time>2019-10-12T17:21:27.917Z</time>
      </trkpt>
      <trkpt lat="20.22440667" lon="-98.73525833">
        <ele>2228.0</ele>
        <time>2019-10-12T17:21:28.922Z</time>
      </trkpt>
      <trkpt lat="20.224405" lon="-98.73525333">
        <ele>2228.0</ele>
        <time>2019-10-12T17:21:29.928Z</time>
      </trkpt>
      <trkpt lat="20.22440667" lon="-98.73524833">
        <ele>2228.0</ele>
        <time>2019-10-12T17:21:30.934Z</time>
      </trkpt>
      <trkpt lat="20.224405" lon="-98.73524167">
        <ele>2227.0</ele>
        <time>2019-10-12T17:21:31.939Z</time>
      </trkpt>
      <trkpt lat="20.22440833" lon="-98.73523333">
        <ele>2227.0</ele>
        <time>2019-10-12T17:21:32.940Z</time>
      </trkpt>
      <trkpt lat="20.22440667" lon="-98.735225">
        <ele>2227.0</ele>
        <time>2019-10-12T17:21:33.942Z</time>
      </trkpt>
      <trkpt lat="20.22441" lon="-98.73522">
        <ele>2228.0</ele>
        <time>2019-10-12T17:21:34.945Z</time>
      </trkpt>
      <trkpt lat="20.22441" lon="-98.73521833">
        <ele>2229.0</ele>
        <time>2019-10-12T17:21:35.946Z</time>
      </trkpt>
      <trkpt lat="20.224415" lon="-98.73521667">
        <ele>2229.0</ele>
        <time>2019-10-12T17:21:36.946Z</time>
      </trkpt>
      <trkpt lat="20.22441333" lon="-98.735215">
        <ele>2230.0</ele>
        <time>2019-10-12T17:21:37.947Z</time>
      </trkpt>
      <trkpt lat="20.22440833" lon="-98.73520833">
        <ele>2230.0</ele>
        <time>2019-10-12T17:21:38.948Z</time>
      </trkpt>
      <trkpt lat="20.22439833" lon="-98.7352">
        <ele>2229.0</ele>
        <time>2019-10-12T17:21:39.949Z</time>
      </trkpt>
      <trkpt lat="20.22439" lon="-98.73519333">
        <ele>2230.0</ele>
        <time>2019-10-12T17:21:40.951Z</time>
      </trkpt>
      <trkpt lat="20.22438833" lon="-98.73518833">
        <ele>2230.0</ele>
        <time>2019-10-12T17:21:41.832Z</time>
      </trkpt>
      <trkpt lat="20.22438833" lon="-98.73518333">
        <ele>2230.0</ele>
        <time>2019-10-12T17:21:42.837Z</time>
      </trkpt>
      <trkpt lat="20.22439167" lon="-98.73518">
        <ele>2230.0</ele>
        <time>2019-10-12T17:21:43.838Z</time>
      </trkpt>
      <trkpt lat="20.224395" lon="-98.735175">
        <ele>2230.0</ele>
        <time>2019-10-12T17:21:44.844Z</time>
      </trkpt>
      <trkpt lat="20.22439833" lon="-98.73516667">
        <ele>2230.0</ele>
        <time>2019-10-12T17:21:45.849Z</time>
      </trkpt>
      <trkpt lat="20.22440333" lon="-98.73516">
        <ele>2230.0</ele>
        <time>2019-10-12T17:21:46.850Z</time>
      </trkpt>
      <trkpt lat="20.22440333" lon="-98.73515167">
        <ele>2230.0</ele>
        <time>2019-10-12T17:21:47.852Z</time>
      </trkpt>
      <trkpt lat="20.22440167" lon="-98.735145">
        <ele>2230.0</ele>
        <time>2019-10-12T17:21:48.859Z</time>
      </trkpt>
      <trkpt lat="20.22439833" lon="-98.73514">
        <ele>2230.0</ele>
        <time>2019-10-12T17:21:49.861Z</time>
      </trkpt>
      <trkpt lat="20.22439167" lon="-98.73513833">
        <ele>2230.0</ele>
        <time>2019-10-12T17:21:50.866Z</time>
      </trkpt>
      <trkpt lat="20.224385" lon="-98.73513667">
        <ele>2230.0</ele>
        <time>2019-10-12T17:21:51.872Z</time>
      </trkpt>
      <trkpt lat="20.22437667" lon="-98.735135">
        <ele>2229.0</ele>
        <time>2019-10-12T17:21:52.878Z</time>
      </trkpt>
      <trkpt lat="20.22437" lon="-98.73513333">
        <ele>2229.0</ele>
        <time>2019-10-12T17:21:53.884Z</time>
      </trkpt>
      <trkpt lat="20.22436333" lon="-98.73513">
        <ele>2229.0</ele>
        <time>2019-10-12T17:21:54.888Z</time>
      </trkpt>
      <trkpt lat="20.22435833" lon="-98.73512833">
        <ele>2229.0</ele>
        <time>2019-10-12T17:21:55.890Z</time>
      </trkpt>
      <trkpt lat="20.22435" lon="-98.735125">
        <ele>2229.0</ele>
        <time>2019-10-12T17:21:56.896Z</time>
      </trkpt>
      <trkpt lat="20.22434167" lon="-98.73512667">
        <ele>2230.0</ele>
        <time>2019-10-12T17:21:57.900Z</time>
      </trkpt>
      <trkpt lat="20.22433333" lon="-98.73513333">
        <ele>2230.0</ele>
        <time>2019-10-12T17:21:58.901Z</time>
      </trkpt>
      <trkpt lat="20.22432667" lon="-98.73513667">
        <ele>2231.0</ele>
        <time>2019-10-12T17:21:59.902Z</time>
      </trkpt>
      <trkpt lat="20.22431833" lon="-98.73513833">
        <ele>2231.0</ele>
        <time>2019-10-12T17:22:00.903Z</time>
      </trkpt>
      <trkpt lat="20.22431" lon="-98.73514333">
        <ele>2231.0</ele>
        <time>2019-10-12T17:22:01.904Z</time>
      </trkpt>
      <trkpt lat="20.2243" lon="-98.735145">
        <ele>2231.0</ele>
        <time>2019-10-12T17:22:02.905Z</time>
      </trkpt>
      <trkpt lat="20.224295" lon="-98.73514833">
        <ele>2231.0</ele>
        <time>2019-10-12T17:22:03.905Z</time>
      </trkpt>
      <trkpt lat="20.22428833" lon="-98.73515">
        <ele>2231.0</ele>
        <time>2019-10-12T17:22:04.906Z</time>
      </trkpt>
      <trkpt lat="20.22428333" lon="-98.735155">
        <ele>2232.0</ele>
        <time>2019-10-12T17:22:05.906Z</time>
      </trkpt>
      <trkpt lat="20.22428" lon="-98.73515833">
        <ele>2233.0</ele>
        <time>2019-10-12T17:22:06.907Z</time>
      </trkpt>
      <trkpt lat="20.22427333" lon="-98.73516">
        <ele>2233.0</ele>
        <time>2019-10-12T17:22:07.907Z</time>
      </trkpt>
      <trkpt lat="20.22426667" lon="-98.73515667">
        <ele>2234.0</ele>
        <time>2019-10-12T17:22:08.907Z</time>
      </trkpt>
      <trkpt lat="20.22426667" lon="-98.735155">
        <ele>2234.0</ele>
        <time>2019-10-12T17:22:09.908Z</time>
      </trkpt>
      <trkpt lat="20.22426" lon="-98.73515">
        <ele>2234.0</ele>
        <time>2019-10-12T17:22:10.908Z</time>
      </trkpt>
      <trkpt lat="20.22425" lon="-98.73514333">
        <ele>2233.0</ele>
        <time>2019-10-12T17:22:11.908Z</time>
      </trkpt>
      <trkpt lat="20.22424" lon="-98.73514167">
        <ele>2232.0</ele>
        <time>2019-10-12T17:22:12.908Z</time>
      </trkpt>
      <trkpt lat="20.22423167" lon="-98.73514333">
        <ele>2233.0</ele>
        <time>2019-10-12T17:22:13.908Z</time>
      </trkpt>
      <trkpt lat="20.22422667" lon="-98.73513833">
        <ele>2232.0</ele>
        <time>2019-10-12T17:22:14.911Z</time>
      </trkpt>
      <trkpt lat="20.22422167" lon="-98.735135">
        <ele>2233.0</ele>
        <time>2019-10-12T17:22:15.919Z</time>
      </trkpt>
      <trkpt lat="20.224215" lon="-98.73513167">
        <ele>2233.0</ele>
        <time>2019-10-12T17:22:16.925Z</time>
      </trkpt>
      <trkpt lat="20.22421667" lon="-98.73513167">
        <ele>2233.0</ele>
        <time>2019-10-12T17:22:17.931Z</time>
      </trkpt>
      <trkpt lat="20.22421833" lon="-98.73512833">
        <ele>2233.0</ele>
        <time>2019-10-12T17:22:18.931Z</time>
      </trkpt>
      <trkpt lat="20.22421667" lon="-98.735125">
        <ele>2233.0</ele>
        <time>2019-10-12T17:22:19.932Z</time>
      </trkpt>
      <trkpt lat="20.22420833" lon="-98.73512167">
        <ele>2233.0</ele>
        <time>2019-10-12T17:22:20.933Z</time>
      </trkpt>
      <trkpt lat="20.224205" lon="-98.73511833">
        <ele>2233.0</ele>
        <time>2019-10-12T17:22:21.933Z</time>
      </trkpt>
      <trkpt lat="20.2242" lon="-98.73511833">
        <ele>2233.0</ele>
        <time>2019-10-12T17:22:22.935Z</time>
      </trkpt>
      <trkpt lat="20.224195" lon="-98.73512">
        <ele>2233.0</ele>
        <time>2019-10-12T17:22:23.939Z</time>
      </trkpt>
      <trkpt lat="20.22418167" lon="-98.73512167">
        <ele>2233.0</ele>
        <time>2019-10-12T17:22:24.945Z</time>
      </trkpt>
      <trkpt lat="20.224175" lon="-98.73512333">
        <ele>2233.0</ele>
        <time>2019-10-12T17:22:25.949Z</time>
      </trkpt>
      <trkpt lat="20.22415833" lon="-98.73512833">
        <ele>2234.0</ele>
        <time>2019-10-12T17:22:26.830Z</time>
      </trkpt>
      <trkpt lat="20.22415333" lon="-98.73513167">
        <ele>2234.0</ele>
        <time>2019-10-12T17:22:27.833Z</time>
      </trkpt>
      <trkpt lat="20.22415167" lon="-98.73513333">
        <ele>2235.0</ele>
        <time>2019-10-12T17:22:28.833Z</time>
      </trkpt>
      <trkpt lat="20.22414667" lon="-98.73513333">
        <ele>2236.0</ele>
        <time>2019-10-12T17:22:29.837Z</time>
      </trkpt>
      <trkpt lat="20.22415" lon="-98.73513167">
        <ele>2237.0</ele>
        <time>2019-10-12T17:22:30.843Z</time>
      </trkpt>
      <trkpt lat="20.22414667" lon="-98.73512333">
        <ele>2238.0</ele>
        <time>2019-10-12T17:22:31.849Z</time>
      </trkpt>
      <trkpt lat="20.22414" lon="-98.73512">
        <ele>2238.0</ele>
        <time>2019-10-12T17:22:32.856Z</time>
      </trkpt>
      <trkpt lat="20.22413333" lon="-98.73511833">
        <ele>2238.0</ele>
        <time>2019-10-12T17:22:33.859Z</time>
      </trkpt>
      <trkpt lat="20.224125" lon="-98.73512">
        <ele>2238.0</ele>
        <time>2019-10-12T17:22:34.863Z</time>
      </trkpt>
      <trkpt lat="20.22411667" lon="-98.73512333">
        <ele>2239.0</ele>
        <time>2019-10-12T17:22:35.870Z</time>
      </trkpt>
      <trkpt lat="20.22411" lon="-98.73512667">
        <ele>2239.0</ele>
        <time>2019-10-12T17:22:36.876Z</time>
      </trkpt>
      <trkpt lat="20.22410667" lon="-98.73513333">
        <ele>2239.0</ele>
        <time>2019-10-12T17:22:37.879Z</time>
      </trkpt>
      <trkpt lat="20.224105" lon="-98.73514">
        <ele>2239.0</ele>
        <time>2019-10-12T17:22:38.881Z</time>
      </trkpt>
      <trkpt lat="20.22410333" lon="-98.735145">
        <ele>2239.0</ele>
        <time>2019-10-12T17:22:39.886Z</time>
      </trkpt>
      <trkpt lat="20.22409833" lon="-98.73515167">
        <ele>2240.0</ele>
        <time>2019-10-12T17:22:40.888Z</time>
      </trkpt>
      <trkpt lat="20.22409333" lon="-98.73515833">
        <ele>2240.0</ele>
        <time>2019-10-12T17:22:41.895Z</time>
      </trkpt>
      <trkpt lat="20.22408833" lon="-98.735165">
        <ele>2240.0</ele>
        <time>2019-10-12T17:22:42.902Z</time>
      </trkpt>
      <trkpt lat="20.22408167" lon="-98.73517">
        <ele>2240.0</ele>
        <time>2019-10-12T17:22:43.904Z</time>
      </trkpt>
      <trkpt lat="20.22407167" lon="-98.73517333">
        <ele>2240.0</ele>
        <time>2019-10-12T17:22:44.907Z</time>
      </trkpt>
      <trkpt lat="20.22405833" lon="-98.73518">
        <ele>2240.0</ele>
        <time>2019-10-12T17:22:45.913Z</time>
      </trkpt>
      <trkpt lat="20.22405167" lon="-98.73518333">
        <ele>2241.0</ele>
        <time>2019-10-12T17:22:46.917Z</time>
      </trkpt>
      <trkpt lat="20.22404333" lon="-98.73518333">
        <ele>2241.0</ele>
        <time>2019-10-12T17:22:47.922Z</time>
      </trkpt>
      <trkpt lat="20.22404" lon="-98.73517667">
        <ele>2241.0</ele>
        <time>2019-10-12T17:22:48.924Z</time>
      </trkpt>
      <trkpt lat="20.22403667" lon="-98.73517">
        <ele>2242.0</ele>
        <time>2019-10-12T17:22:49.930Z</time>
      </trkpt>
      <trkpt lat="20.22404" lon="-98.73516333">
        <ele>2242.0</ele>
        <time>2019-10-12T17:22:50.935Z</time>
      </trkpt>
      <trkpt lat="20.22404167" lon="-98.73515833">
        <ele>2242.0</ele>
        <time>2019-10-12T17:22:51.936Z</time>
      </trkpt>
      <trkpt lat="20.22404167" lon="-98.735155">
        <ele>2242.0</ele>
        <time>2019-10-12T17:22:52.937Z</time>
      </trkpt>
      <trkpt lat="20.22404167" lon="-98.73514833">
        <ele>2242.0</ele>
        <time>2019-10-12T17:22:53.938Z</time>
      </trkpt>
      <trkpt lat="20.22403833" lon="-98.735145">
        <ele>2243.0</ele>
        <time>2019-10-12T17:22:54.939Z</time>
      </trkpt>
      <trkpt lat="20.22403333" lon="-98.73514167">
        <ele>2243.0</ele>
        <time>2019-10-12T17:22:55.940Z</time>
      </trkpt>
      <trkpt lat="20.22402833" lon="-98.73514167">
        <ele>2243.0</ele>
        <time>2019-10-12T17:22:56.940Z</time>
      </trkpt>
      <trkpt lat="20.22402167" lon="-98.73514333">
        <ele>2244.0</ele>
        <time>2019-10-12T17:22:57.941Z</time>
      </trkpt>
      <trkpt lat="20.22401833" lon="-98.735145">
        <ele>2244.0</ele>
        <time>2019-10-12T17:22:58.942Z</time>
      </trkpt>
      <trkpt lat="20.22401167" lon="-98.73514833">
        <ele>2245.0</ele>
        <time>2019-10-12T17:22:59.943Z</time>
      </trkpt>
      <trkpt lat="20.22400667" lon="-98.73515167">
        <ele>2245.0</ele>
        <time>2019-10-12T17:23:00.948Z</time>
      </trkpt>
      <trkpt lat="20.224" lon="-98.73515167">
        <ele>2245.0</ele>
        <time>2019-10-12T17:23:01.954Z</time>
      </trkpt>
      <trkpt lat="20.22399333" lon="-98.73515167">
        <ele>2245.0</ele>
        <time>2019-10-12T17:23:02.831Z</time>
      </trkpt>
      <trkpt lat="20.22398667" lon="-98.73515167">
        <ele>2245.0</ele>
        <time>2019-10-12T17:23:03.835Z</time>
      </trkpt>
      <trkpt lat="20.22398" lon="-98.73515167">
        <ele>2246.0</ele>
        <time>2019-10-12T17:23:04.839Z</time>
      </trkpt>
      <trkpt lat="20.22397167" lon="-98.73514833">
        <ele>2246.0</ele>
        <time>2019-10-12T17:23:05.845Z</time>
      </trkpt>
      <trkpt lat="20.22396667" lon="-98.73514667">
        <ele>2247.0</ele>
        <time>2019-10-12T17:23:06.852Z</time>
      </trkpt>
      <trkpt lat="20.22396833" lon="-98.73514833">
        <ele>2247.0</ele>
        <time>2019-10-12T17:23:07.857Z</time>
      </trkpt>
      <trkpt lat="20.22397167" lon="-98.73514333">
        <ele>2248.0</ele>
        <time>2019-10-12T17:23:08.862Z</time>
      </trkpt>
      <trkpt lat="20.22397333" lon="-98.73514167">
        <ele>2248.0</ele>
        <time>2019-10-12T17:23:09.866Z</time>
      </trkpt>
      <trkpt lat="20.22397167" lon="-98.73513667">
        <ele>2248.0</ele>
        <time>2019-10-12T17:23:10.870Z</time>
      </trkpt>
      <trkpt lat="20.22396667" lon="-98.73513167">
        <ele>2248.0</ele>
        <time>2019-10-12T17:23:11.875Z</time>
      </trkpt>
      <trkpt lat="20.223965" lon="-98.73512667">
        <ele>2248.0</ele>
        <time>2019-10-12T17:23:12.880Z</time>
      </trkpt>
      <trkpt lat="20.22396333" lon="-98.73511833">
        <ele>2249.0</ele>
        <time>2019-10-12T17:23:13.885Z</time>
      </trkpt>
      <trkpt lat="20.22395833" lon="-98.73511167">
        <ele>2249.0</ele>
        <time>2019-10-12T17:23:14.891Z</time>
      </trkpt>
      <trkpt lat="20.22395333" lon="-98.735105">
        <ele>2249.0</ele>
        <time>2019-10-12T17:23:15.892Z</time>
      </trkpt>
      <trkpt lat="20.22394833" lon="-98.73510167">
        <ele>2249.0</ele>
        <time>2019-10-12T17:23:16.893Z</time>
      </trkpt>
      <trkpt lat="20.22394167" lon="-98.73509833">
        <ele>2249.0</ele>
        <time>2019-10-12T17:23:17.894Z</time>
      </trkpt>
      <trkpt lat="20.22393167" lon="-98.73509833">
        <ele>2249.0</ele>
        <time>2019-10-12T17:23:18.895Z</time>
      </trkpt>
      <trkpt lat="20.223925" lon="-98.73510167">
        <ele>2250.0</ele>
        <time>2019-10-12T17:23:19.896Z</time>
      </trkpt>
      <trkpt lat="20.22391833" lon="-98.73510333">
        <ele>2250.0</ele>
        <time>2019-10-12T17:23:20.896Z</time>
      </trkpt>
      <trkpt lat="20.22391333" lon="-98.7351">
        <ele>2250.0</ele>
        <time>2019-10-12T17:23:21.897Z</time>
      </trkpt>
      <trkpt lat="20.22390833" lon="-98.73509833">
        <ele>2250.0</ele>
        <time>2019-10-12T17:23:22.898Z</time>
      </trkpt>
      <trkpt lat="20.22390833" lon="-98.73509667">
        <ele>2251.0</ele>
        <time>2019-10-12T17:23:23.899Z</time>
      </trkpt>
      <trkpt lat="20.22390667" lon="-98.73509">
        <ele>2251.0</ele>
        <time>2019-10-12T17:23:24.900Z</time>
      </trkpt>
      <trkpt lat="20.223905" lon="-98.73508667">
        <ele>2251.0</ele>
        <time>2019-10-12T17:23:25.900Z</time>
      </trkpt>
      <trkpt lat="20.2239" lon="-98.73508333">
        <ele>2251.0</ele>
        <time>2019-10-12T17:23:26.901Z</time>
      </trkpt>
      <trkpt lat="20.223895" lon="-98.73507833">
        <ele>2251.0</ele>
        <time>2019-10-12T17:23:27.902Z</time>
      </trkpt>
      <trkpt lat="20.22389167" lon="-98.73507167">
        <ele>2251.0</ele>
        <time>2019-10-12T17:23:28.903Z</time>
      </trkpt>
      <trkpt lat="20.22389" lon="-98.73506667">
        <ele>2251.0</ele>
        <time>2019-10-12T17:23:29.904Z</time>
      </trkpt>
      <trkpt lat="20.22388833" lon="-98.73506167">
        <ele>2251.0</ele>
        <time>2019-10-12T17:23:30.904Z</time>
      </trkpt>
      <trkpt lat="20.22388833" lon="-98.73505667">
        <ele>2252.0</ele>
        <time>2019-10-12T17:23:31.905Z</time>
      </trkpt>
      <trkpt lat="20.22389" lon="-98.735055">
        <ele>2252.0</ele>
        <time>2019-10-12T17:23:32.906Z</time>
      </trkpt>
      <trkpt lat="20.22389" lon="-98.73505333">
        <ele>2252.0</ele>
        <time>2019-10-12T17:23:33.907Z</time>
      </trkpt>
      <trkpt lat="20.22388167" lon="-98.73505167">
        <ele>2253.0</ele>
        <time>2019-10-12T17:23:34.908Z</time>
      </trkpt>
      <trkpt lat="20.22387667" lon="-98.73505333">
        <ele>2253.0</ele>
        <time>2019-10-12T17:23:35.908Z</time>
      </trkpt>
      <trkpt lat="20.22387333" lon="-98.735055">
        <ele>2254.0</ele>
        <time>2019-10-12T17:23:36.909Z</time>
      </trkpt>
      <trkpt lat="20.22386833" lon="-98.73505667">
        <ele>2254.0</ele>
        <time>2019-10-12T17:23:37.910Z</time>
      </trkpt>
      <trkpt lat="20.22386333" lon="-98.73505833">
        <ele>2254.0</ele>
        <time>2019-10-12T17:23:38.911Z</time>
      </trkpt>
      <trkpt lat="20.22386" lon="-98.73505667">
        <ele>2254.0</ele>
        <time>2019-10-12T17:23:39.912Z</time>
      </trkpt>
      <trkpt lat="20.22385667" lon="-98.73505333">
        <ele>2254.0</ele>
        <time>2019-10-12T17:23:40.913Z</time>
      </trkpt>
      <trkpt lat="20.22385167" lon="-98.73504833">
        <ele>2255.0</ele>
        <time>2019-10-12T17:23:41.913Z</time>
      </trkpt>
      <trkpt lat="20.223845" lon="-98.73504667">
        <ele>2255.0</ele>
        <time>2019-10-12T17:23:42.914Z</time>
      </trkpt>
      <trkpt lat="20.22384333" lon="-98.73504667">
        <ele>2255.0</ele>
        <time>2019-10-12T17:23:43.915Z</time>
      </trkpt>
      <trkpt lat="20.22383833" lon="-98.73505">
        <ele>2256.0</ele>
        <time>2019-10-12T17:23:44.916Z</time>
      </trkpt>
      <trkpt lat="20.22383" lon="-98.73505667">
        <ele>2256.0</ele>
        <time>2019-10-12T17:23:45.917Z</time>
      </trkpt>
      <trkpt lat="20.223825" lon="-98.73505833">
        <ele>2256.0</ele>
        <time>2019-10-12T17:23:46.917Z</time>
      </trkpt>
      <trkpt lat="20.223825" lon="-98.73506">
        <ele>2256.0</ele>
        <time>2019-10-12T17:23:47.918Z</time>
      </trkpt>
      <trkpt lat="20.22382167" lon="-98.73505833">
        <ele>2256.0</ele>
        <time>2019-10-12T17:23:48.919Z</time>
      </trkpt>
      <trkpt lat="20.22382" lon="-98.73505833">
        <ele>2256.0</ele>
        <time>2019-10-12T17:23:49.920Z</time>
      </trkpt>
      <trkpt lat="20.22381667" lon="-98.73505667">
        <ele>2256.0</ele>
        <time>2019-10-12T17:23:50.921Z</time>
      </trkpt>
      <trkpt lat="20.22381" lon="-98.73505667">
        <ele>2256.0</ele>
        <time>2019-10-12T17:23:51.921Z</time>
      </trkpt>
      <trkpt lat="20.22380333" lon="-98.73506167">
        <ele>2257.0</ele>
        <time>2019-10-12T17:23:52.922Z</time>
      </trkpt>
      <trkpt lat="20.22379833" lon="-98.73506833">
        <ele>2256.0</ele>
        <time>2019-10-12T17:23:53.922Z</time>
      </trkpt>
      <trkpt lat="20.22379167" lon="-98.73507167">
        <ele>2256.0</ele>
        <time>2019-10-12T17:23:54.922Z</time>
      </trkpt>
      <trkpt lat="20.223785" lon="-98.73507167">
        <ele>2256.0</ele>
        <time>2019-10-12T17:23:55.924Z</time>
      </trkpt>
      <trkpt lat="20.22377333" lon="-98.73507333">
        <ele>2256.0</ele>
        <time>2019-10-12T17:23:56.928Z</time>
      </trkpt>
      <trkpt lat="20.223765" lon="-98.73507833">
        <ele>2257.0</ele>
        <time>2019-10-12T17:23:57.933Z</time>
      </trkpt>
      <trkpt lat="20.22375667" lon="-98.73508167">
        <ele>2257.0</ele>
        <time>2019-10-12T17:23:58.936Z</time>
      </trkpt>
      <trkpt lat="20.22374833" lon="-98.73508333">
        <ele>2257.0</ele>
        <time>2019-10-12T17:23:59.937Z</time>
      </trkpt>
      <trkpt lat="20.22374333" lon="-98.735085">
        <ele>2257.0</ele>
        <time>2019-10-12T17:24:00.937Z</time>
      </trkpt>
      <trkpt lat="20.22373833" lon="-98.73508333">
        <ele>2257.0</ele>
        <time>2019-10-12T17:24:01.937Z</time>
      </trkpt>
      <trkpt lat="20.22373333" lon="-98.73508333">
        <ele>2257.0</ele>
        <time>2019-10-12T17:24:02.942Z</time>
      </trkpt>
      <trkpt lat="20.22372667" lon="-98.73508333">
        <ele>2257.0</ele>
        <time>2019-10-12T17:24:03.946Z</time>
      </trkpt>
      <trkpt lat="20.22371833" lon="-98.73508333">
        <ele>2257.0</ele>
        <time>2019-10-12T17:24:04.949Z</time>
      </trkpt>
      <trkpt lat="20.223715" lon="-98.73508167">
        <ele>2257.0</ele>
        <time>2019-10-12T17:24:05.951Z</time>
      </trkpt>
      <trkpt lat="20.22371167" lon="-98.73508333">
        <ele>2257.0</ele>
        <time>2019-10-12T17:24:06.831Z</time>
      </trkpt>
      <trkpt lat="20.22370667" lon="-98.735085">
        <ele>2257.0</ele>
        <time>2019-10-12T17:24:07.837Z</time>
      </trkpt>
      <trkpt lat="20.22370333" lon="-98.73508667">
        <ele>2257.0</ele>
        <time>2019-10-12T17:24:08.841Z</time>
      </trkpt>
      <trkpt lat="20.22369667" lon="-98.73509">
        <ele>2257.0</ele>
        <time>2019-10-12T17:24:09.844Z</time>
      </trkpt>
      <trkpt lat="20.22368833" lon="-98.73509167">
        <ele>2258.0</ele>
        <time>2019-10-12T17:24:10.848Z</time>
      </trkpt>
      <trkpt lat="20.22368167" lon="-98.73509">
        <ele>2258.0</ele>
        <time>2019-10-12T17:24:11.849Z</time>
      </trkpt>
      <trkpt lat="20.223675" lon="-98.73508667">
        <ele>2258.0</ele>
        <time>2019-10-12T17:24:12.854Z</time>
      </trkpt>
      <trkpt lat="20.22367" lon="-98.73508667">
        <ele>2258.0</ele>
        <time>2019-10-12T17:24:13.860Z</time>
      </trkpt>
      <trkpt lat="20.223665" lon="-98.73509167">
        <ele>2259.0</ele>
        <time>2019-10-12T17:24:14.867Z</time>
      </trkpt>
      <trkpt lat="20.22366667" lon="-98.7351">
        <ele>2259.0</ele>
        <time>2019-10-12T17:24:15.871Z</time>
      </trkpt>
      <trkpt lat="20.223665" lon="-98.73511">
        <ele>2260.0</ele>
        <time>2019-10-12T17:24:16.876Z</time>
      </trkpt>
      <trkpt lat="20.22365833" lon="-98.73511167">
        <ele>2260.0</ele>
        <time>2019-10-12T17:24:17.878Z</time>
      </trkpt>
      <trkpt lat="20.22365833" lon="-98.73511167">
        <ele>2260.0</ele>
        <time>2019-10-12T17:24:18.884Z</time>
      </trkpt>
      <trkpt lat="20.22363667" lon="-98.73511167">
        <ele>2260.0</ele>
        <time>2019-10-12T17:24:19.887Z</time>
      </trkpt>
      <trkpt lat="20.22362333" lon="-98.73511333">
        <ele>2260.0</ele>
        <time>2019-10-12T17:24:20.891Z</time>
      </trkpt>
      <trkpt lat="20.22360833" lon="-98.73511667">
        <ele>2261.0</ele>
        <time>2019-10-12T17:24:21.899Z</time>
      </trkpt>
      <trkpt lat="20.22359333" lon="-98.73512">
        <ele>2261.0</ele>
        <time>2019-10-12T17:24:22.907Z</time>
      </trkpt>
      <trkpt lat="20.22358" lon="-98.73512667">
        <ele>2261.0</ele>
        <time>2019-10-12T17:24:23.914Z</time>
      </trkpt>
      <trkpt lat="20.22357" lon="-98.73513167">
        <ele>2262.0</ele>
        <time>2019-10-12T17:24:24.920Z</time>
      </trkpt>
      <trkpt lat="20.22356167" lon="-98.73513667">
        <ele>2262.0</ele>
        <time>2019-10-12T17:24:25.926Z</time>
      </trkpt>
      <trkpt lat="20.22355" lon="-98.73514333">
        <ele>2263.0</ele>
        <time>2019-10-12T17:24:26.929Z</time>
      </trkpt>
      <trkpt lat="20.22354667" lon="-98.73514667">
        <ele>2263.0</ele>
        <time>2019-10-12T17:24:27.933Z</time>
      </trkpt>
      <trkpt lat="20.22354167" lon="-98.73514833">
        <ele>2262.0</ele>
        <time>2019-10-12T17:24:28.941Z</time>
      </trkpt>
      <trkpt lat="20.22353667" lon="-98.73514667">
        <ele>2262.0</ele>
        <time>2019-10-12T17:24:29.948Z</time>
      </trkpt>
      <trkpt lat="20.22353167" lon="-98.73515">
        <ele>2262.0</ele>
        <time>2019-10-12T17:24:30.949Z</time>
      </trkpt>
      <trkpt lat="20.223525" lon="-98.73515">
        <ele>2262.0</ele>
        <time>2019-10-12T17:24:31.950Z</time>
      </trkpt>
      <trkpt lat="20.22351833" lon="-98.73515333">
        <ele>2261.0</ele>
        <time>2019-10-12T17:24:32.951Z</time>
      </trkpt>
      <trkpt lat="20.22351" lon="-98.73515667">
        <ele>2261.0</ele>
        <time>2019-10-12T17:24:33.952Z</time>
      </trkpt>
      <trkpt lat="20.22350167" lon="-98.73515833">
        <ele>2261.0</ele>
        <time>2019-10-12T17:24:34.952Z</time>
      </trkpt>
      <trkpt lat="20.22349167" lon="-98.73516333">
        <ele>2261.0</ele>
        <time>2019-10-12T17:24:35.953Z</time>
      </trkpt>
      <trkpt lat="20.22348167" lon="-98.735165">
        <ele>2260.0</ele>
        <time>2019-10-12T17:24:36.953Z</time>
      </trkpt>
      <trkpt lat="20.223475" lon="-98.73516833">
        <ele>2260.0</ele>
        <time>2019-10-12T17:24:37.953Z</time>
      </trkpt>
      <trkpt lat="20.22346833" lon="-98.73517">
        <ele>2259.0</ele>
        <time>2019-10-12T17:24:38.954Z</time>
      </trkpt>
      <trkpt lat="20.22345667" lon="-98.73517167">
        <ele>2259.0</ele>
        <time>2019-10-12T17:24:39.830Z</time>
      </trkpt>
      <trkpt lat="20.22344833" lon="-98.73517">
        <ele>2260.0</ele>
        <time>2019-10-12T17:24:40.831Z</time>
      </trkpt>
      <trkpt lat="20.22343833" lon="-98.73517333">
        <ele>2260.0</ele>
        <time>2019-10-12T17:24:41.831Z</time>
      </trkpt>
      <trkpt lat="20.22343" lon="-98.73517667">
        <ele>2261.0</ele>
        <time>2019-10-12T17:24:42.832Z</time>
      </trkpt>
      <trkpt lat="20.22342167" lon="-98.73518">
        <ele>2261.0</ele>
        <time>2019-10-12T17:24:43.833Z</time>
      </trkpt>
      <trkpt lat="20.22341333" lon="-98.73518167">
        <ele>2261.0</ele>
        <time>2019-10-12T17:24:44.834Z</time>
      </trkpt>
      <trkpt lat="20.22340167" lon="-98.73518167">
        <ele>2262.0</ele>
        <time>2019-10-12T17:24:45.835Z</time>
      </trkpt>
      <trkpt lat="20.22339333" lon="-98.73518167">
        <ele>2261.0</ele>
        <time>2019-10-12T17:24:46.839Z</time>
      </trkpt>
      <trkpt lat="20.22338667" lon="-98.73517833">
        <ele>2261.0</ele>
        <time>2019-10-12T17:24:47.843Z</time>
      </trkpt>
      <trkpt lat="20.22337833" lon="-98.73517333">
        <ele>2262.0</ele>
        <time>2019-10-12T17:24:48.847Z</time>
      </trkpt>
      <trkpt lat="20.22336833" lon="-98.73517">
        <ele>2262.0</ele>
        <time>2019-10-12T17:24:49.852Z</time>
      </trkpt>
      <trkpt lat="20.22336167" lon="-98.73516833">
        <ele>2263.0</ele>
        <time>2019-10-12T17:24:50.858Z</time>
      </trkpt>
      <trkpt lat="20.22335333" lon="-98.73516667">
        <ele>2263.0</ele>
        <time>2019-10-12T17:24:51.860Z</time>
      </trkpt>
      <trkpt lat="20.22334667" lon="-98.735165">
        <ele>2264.0</ele>
        <time>2019-10-12T17:24:52.861Z</time>
      </trkpt>
      <trkpt lat="20.22334333" lon="-98.735165">
        <ele>2265.0</ele>
        <time>2019-10-12T17:24:53.864Z</time>
      </trkpt>
      <trkpt lat="20.22334" lon="-98.73517">
        <ele>2265.0</ele>
        <time>2019-10-12T17:24:54.870Z</time>
      </trkpt>
      <trkpt lat="20.22334" lon="-98.735175">
        <ele>2266.0</ele>
        <time>2019-10-12T17:24:55.873Z</time>
      </trkpt>
      <trkpt lat="20.22334167" lon="-98.73517667">
        <ele>2266.0</ele>
        <time>2019-10-12T17:24:56.874Z</time>
      </trkpt>
      <trkpt lat="20.22334833" lon="-98.73517333">
        <ele>2266.0</ele>
        <time>2019-10-12T17:24:57.880Z</time>
      </trkpt>
      <trkpt lat="20.22335333" lon="-98.73517">
        <ele>2265.0</ele>
        <time>2019-10-12T17:24:58.884Z</time>
      </trkpt>
      <trkpt lat="20.22336167" lon="-98.73516833">
        <ele>2266.0</ele>
        <time>2019-10-12T17:24:59.891Z</time>
      </trkpt>
      <trkpt lat="20.22336333" lon="-98.73516667">
        <ele>2266.0</ele>
        <time>2019-10-12T17:25:00.899Z</time>
      </trkpt>
      <trkpt lat="20.223365" lon="-98.73516">
        <ele>2267.0</ele>
        <time>2019-10-12T17:25:01.907Z</time>
      </trkpt>
      <trkpt lat="20.22337333" lon="-98.73515333">
        <ele>2267.0</ele>
        <time>2019-10-12T17:25:02.910Z</time>
      </trkpt>
      <trkpt lat="20.22337333" lon="-98.73514833">
        <ele>2268.0</ele>
        <time>2019-10-12T17:25:03.916Z</time>
      </trkpt>
      <trkpt lat="20.22337167" lon="-98.73514667">
        <ele>2268.0</ele>
        <time>2019-10-12T17:25:04.920Z</time>
      </trkpt>
      <trkpt lat="20.22337167" lon="-98.735145">
        <ele>2268.0</ele>
        <time>2019-10-12T17:25:05.922Z</time>
      </trkpt>
      <trkpt lat="20.22337167" lon="-98.73514167">
        <ele>2268.0</ele>
        <time>2019-10-12T17:25:06.928Z</time>
      </trkpt>
      <trkpt lat="20.22337" lon="-98.73513833">
        <ele>2268.0</ele>
        <time>2019-10-12T17:25:07.934Z</time>
      </trkpt>
      <trkpt lat="20.223365" lon="-98.73513333">
        <ele>2268.0</ele>
        <time>2019-10-12T17:25:08.937Z</time>
      </trkpt>
      <trkpt lat="20.22335833" lon="-98.73513">
        <ele>2268.0</ele>
        <time>2019-10-12T17:25:09.944Z</time>
      </trkpt>
      <trkpt lat="20.22335333" lon="-98.735125">
        <ele>2267.0</ele>
        <time>2019-10-12T17:25:10.952Z</time>
      </trkpt>
      <trkpt lat="20.22334833" lon="-98.73512">
        <ele>2267.0</ele>
        <time>2019-10-12T17:25:11.830Z</time>
      </trkpt>
      <trkpt lat="20.22334667" lon="-98.735115">
        <ele>2267.0</ele>
        <time>2019-10-12T17:25:12.833Z</time>
      </trkpt>
      <trkpt lat="20.22334667" lon="-98.73511167">
        <ele>2267.0</ele>
        <time>2019-10-12T17:25:13.838Z</time>
      </trkpt>
      <trkpt lat="20.22335167" lon="-98.73510833">
        <ele>2267.0</ele>
        <time>2019-10-12T17:25:14.841Z</time>
      </trkpt>
      <trkpt lat="20.22335833" lon="-98.73510667">
        <ele>2266.0</ele>
        <time>2019-10-12T17:25:15.847Z</time>
      </trkpt>
      <trkpt lat="20.22336667" lon="-98.73510167">
        <ele>2266.0</ele>
        <time>2019-10-12T17:25:16.853Z</time>
      </trkpt>
      <trkpt lat="20.22337167" lon="-98.73509667">
        <ele>2267.0</ele>
        <time>2019-10-12T17:25:17.855Z</time>
      </trkpt>
      <trkpt lat="20.22337667" lon="-98.73509167">
        <ele>2267.0</ele>
        <time>2019-10-12T17:25:18.860Z</time>
      </trkpt>
      <trkpt lat="20.22338" lon="-98.73508833">
        <ele>2267.0</ele>
        <time>2019-10-12T17:25:19.860Z</time>
      </trkpt>
      <trkpt lat="20.22338333" lon="-98.73508167">
        <ele>2267.0</ele>
        <time>2019-10-12T17:25:20.861Z</time>
      </trkpt>
      <trkpt lat="20.22338667" lon="-98.73507667">
        <ele>2267.0</ele>
        <time>2019-10-12T17:25:21.862Z</time>
      </trkpt>
      <trkpt lat="20.22338833" lon="-98.735075">
        <ele>2267.0</ele>
        <time>2019-10-12T17:25:22.863Z</time>
      </trkpt>
      <trkpt lat="20.22339167" lon="-98.73507167">
        <ele>2267.0</ele>
        <time>2019-10-12T17:25:23.864Z</time>
      </trkpt>
      <trkpt lat="20.22339667" lon="-98.73506833">
        <ele>2268.0</ele>
        <time>2019-10-12T17:25:24.865Z</time>
      </trkpt>
      <trkpt lat="20.2234" lon="-98.73506333">
        <ele>2268.0</ele>
        <time>2019-10-12T17:25:25.865Z</time>
      </trkpt>
      <trkpt lat="20.2234" lon="-98.73505833">
        <ele>2268.0</ele>
        <time>2019-10-12T17:25:26.866Z</time>
      </trkpt>
      <trkpt lat="20.22340333" lon="-98.73505333">
        <ele>2269.0</ele>
        <time>2019-10-12T17:25:27.867Z</time>
      </trkpt>
      <trkpt lat="20.223405" lon="-98.73504833">
        <ele>2269.0</ele>
        <time>2019-10-12T17:25:28.868Z</time>
      </trkpt>
      <trkpt lat="20.22340833" lon="-98.735045">
        <ele>2269.0</ele>
        <time>2019-10-12T17:25:29.869Z</time>
      </trkpt>
      <trkpt lat="20.22341167" lon="-98.73504167">
        <ele>2268.0</ele>
        <time>2019-10-12T17:25:30.870Z</time>
      </trkpt>
      <trkpt lat="20.22341833" lon="-98.73503833">
        <ele>2268.0</ele>
        <time>2019-10-12T17:25:31.870Z</time>
      </trkpt>
      <trkpt lat="20.22342333" lon="-98.735035">
        <ele>2268.0</ele>
        <time>2019-10-12T17:25:32.871Z</time>
      </trkpt>
      <trkpt lat="20.22342667" lon="-98.73503">
        <ele>2268.0</ele>
        <time>2019-10-12T17:25:33.872Z</time>
      </trkpt>
      <trkpt lat="20.22342833" lon="-98.73502167">
        <ele>2268.0</ele>
        <time>2019-10-12T17:25:34.873Z</time>
      </trkpt>
      <trkpt lat="20.22342167" lon="-98.73501667">
        <ele>2269.0</ele>
        <time>2019-10-12T17:25:35.873Z</time>
      </trkpt>
      <trkpt lat="20.22342" lon="-98.73501">
        <ele>2269.0</ele>
        <time>2019-10-12T17:25:36.874Z</time>
      </trkpt>
      <trkpt lat="20.22342333" lon="-98.73500167">
        <ele>2269.0</ele>
        <time>2019-10-12T17:25:37.875Z</time>
      </trkpt>
      <trkpt lat="20.22342333" lon="-98.734995">
        <ele>2269.0</ele>
        <time>2019-10-12T17:25:38.880Z</time>
      </trkpt>
      <trkpt lat="20.22342333" lon="-98.73498667">
        <ele>2269.0</ele>
        <time>2019-10-12T17:25:39.885Z</time>
      </trkpt>
      <trkpt lat="20.22342333" lon="-98.73497833">
        <ele>2269.0</ele>
        <time>2019-10-12T17:25:40.892Z</time>
      </trkpt>
      <trkpt lat="20.223425" lon="-98.73497167">
        <ele>2269.0</ele>
        <time>2019-10-12T17:25:41.895Z</time>
      </trkpt>
      <trkpt lat="20.22342833" lon="-98.73496333">
        <ele>2270.0</ele>
        <time>2019-10-12T17:25:42.903Z</time>
      </trkpt>
      <trkpt lat="20.22342833" lon="-98.734955">
        <ele>2270.0</ele>
        <time>2019-10-12T17:25:43.910Z</time>
      </trkpt>
      <trkpt lat="20.22342833" lon="-98.73494833">
        <ele>2270.0</ele>
        <time>2019-10-12T17:25:44.914Z</time>
      </trkpt>
      <trkpt lat="20.22342833" lon="-98.73494167">
        <ele>2270.0</ele>
        <time>2019-10-12T17:25:45.918Z</time>
      </trkpt>
      <trkpt lat="20.22342833" lon="-98.73493333">
        <ele>2271.0</ele>
        <time>2019-10-12T17:25:46.924Z</time>
      </trkpt>
      <trkpt lat="20.22342667" lon="-98.73492333">
        <ele>2271.0</ele>
        <time>2019-10-12T17:25:47.929Z</time>
      </trkpt>
      <trkpt lat="20.22342667" lon="-98.73491667">
        <ele>2271.0</ele>
        <time>2019-10-12T17:25:48.932Z</time>
      </trkpt>
      <trkpt lat="20.223425" lon="-98.73491333">
        <ele>2271.0</ele>
        <time>2019-10-12T17:25:49.937Z</time>
      </trkpt>
      <trkpt lat="20.22342333" lon="-98.73491333">
        <ele>2272.0</ele>
        <time>2019-10-12T17:25:50.942Z</time>
      </trkpt>
      <trkpt lat="20.22342" lon="-98.734915">
        <ele>2272.0</ele>
        <time>2019-10-12T17:25:51.948Z</time>
      </trkpt>
      <trkpt lat="20.22341333" lon="-98.73491167">
        <ele>2272.0</ele>
        <time>2019-10-12T17:25:52.949Z</time>
      </trkpt>
      <trkpt lat="20.22340333" lon="-98.73491167">
        <ele>2273.0</ele>
        <time>2019-10-12T17:25:53.950Z</time>
      </trkpt>
      <trkpt lat="20.22339" lon="-98.73491667">
        <ele>2273.0</ele>
        <time>2019-10-12T17:25:54.951Z</time>
      </trkpt>
      <trkpt lat="20.22338167" lon="-98.73491833">
        <ele>2274.0</ele>
        <time>2019-10-12T17:25:55.952Z</time>
      </trkpt>
      <trkpt lat="20.22337333" lon="-98.734925">
        <ele>2275.0</ele>
        <time>2019-10-12T17:25:56.955Z</time>
      </trkpt>
      <trkpt lat="20.22336333" lon="-98.73493">
        <ele>2276.0</ele>
        <time>2019-10-12T17:25:57.834Z</time>
      </trkpt>
      <trkpt lat="20.223355" lon="-98.734935">
        <ele>2276.0</ele>
        <time>2019-10-12T17:25:58.837Z</time>
      </trkpt>
      <trkpt lat="20.223345" lon="-98.73493333">
        <ele>2275.0</ele>
        <time>2019-10-12T17:25:59.842Z</time>
      </trkpt>
      <trkpt lat="20.22333667" lon="-98.73493167">
        <ele>2275.0</ele>
        <time>2019-10-12T17:26:00.851Z</time>
      </trkpt>
      <trkpt lat="20.22332667" lon="-98.73493">
        <ele>2275.0</ele>
        <time>2019-10-12T17:26:01.853Z</time>
      </trkpt>
      <trkpt lat="20.22331833" lon="-98.73492833">
        <ele>2275.0</ele>
        <time>2019-10-12T17:26:02.860Z</time>
      </trkpt>
      <trkpt lat="20.22331167" lon="-98.73492667">
        <ele>2276.0</ele>
        <time>2019-10-12T17:26:03.865Z</time>
      </trkpt>
      <trkpt lat="20.22330667" lon="-98.73492667">
        <ele>2277.0</ele>
        <time>2019-10-12T17:26:04.871Z</time>
      </trkpt>
      <trkpt lat="20.22330333" lon="-98.734925">
        <ele>2277.0</ele>
        <time>2019-10-12T17:26:05.874Z</time>
      </trkpt>
      <trkpt lat="20.2233" lon="-98.73492">
        <ele>2277.0</ele>
        <time>2019-10-12T17:26:06.881Z</time>
      </trkpt>
      <trkpt lat="20.2233" lon="-98.73491667">
        <ele>2277.0</ele>
        <time>2019-10-12T17:26:07.884Z</time>
      </trkpt>
      <trkpt lat="20.22330333" lon="-98.73491333">
        <ele>2277.0</ele>
        <time>2019-10-12T17:26:08.891Z</time>
      </trkpt>
      <trkpt lat="20.22330333" lon="-98.73491">
        <ele>2277.0</ele>
        <time>2019-10-12T17:26:09.896Z</time>
      </trkpt>
      <trkpt lat="20.22330667" lon="-98.73490833">
        <ele>2278.0</ele>
        <time>2019-10-12T17:26:10.901Z</time>
      </trkpt>
      <trkpt lat="20.22330833" lon="-98.734905">
        <ele>2277.0</ele>
        <time>2019-10-12T17:26:11.908Z</time>
      </trkpt>
      <trkpt lat="20.22330667" lon="-98.73490167">
        <ele>2278.0</ele>
        <time>2019-10-12T17:26:12.914Z</time>
      </trkpt>
      <trkpt lat="20.22330167" lon="-98.73489833">
        <ele>2278.0</ele>
        <time>2019-10-12T17:26:13.920Z</time>
      </trkpt>
      <trkpt lat="20.22329833" lon="-98.73489333">
        <ele>2278.0</ele>
        <time>2019-10-12T17:26:14.923Z</time>
      </trkpt>
      <trkpt lat="20.22328833" lon="-98.73488833">
        <ele>2278.0</ele>
        <time>2019-10-12T17:26:15.928Z</time>
      </trkpt>
      <trkpt lat="20.22328333" lon="-98.73488167">
        <ele>2278.0</ele>
        <time>2019-10-12T17:26:16.931Z</time>
      </trkpt>
      <trkpt lat="20.22327667" lon="-98.73488167">
        <ele>2278.0</ele>
        <time>2019-10-12T17:26:17.936Z</time>
      </trkpt>
      <trkpt lat="20.22327167" lon="-98.73488333">
        <ele>2278.0</ele>
        <time>2019-10-12T17:26:18.941Z</time>
      </trkpt>
      <trkpt lat="20.22326333" lon="-98.73488">
        <ele>2279.0</ele>
        <time>2019-10-12T17:26:19.945Z</time>
      </trkpt>
      <trkpt lat="20.22326167" lon="-98.734875">
        <ele>2279.0</ele>
        <time>2019-10-12T17:26:20.951Z</time>
      </trkpt>
      <trkpt lat="20.22326" lon="-98.73486667">
        <ele>2279.0</ele>
        <time>2019-10-12T17:26:21.954Z</time>
      </trkpt>
      <trkpt lat="20.22325667" lon="-98.73485667">
        <ele>2279.0</ele>
        <time>2019-10-12T17:26:22.832Z</time>
      </trkpt>
      <trkpt lat="20.22325667" lon="-98.73485">
        <ele>2279.0</ele>
        <time>2019-10-12T17:26:23.836Z</time>
      </trkpt>
      <trkpt lat="20.22325667" lon="-98.73484667">
        <ele>2280.0</ele>
        <time>2019-10-12T17:26:24.839Z</time>
      </trkpt>
      <trkpt lat="20.22325667" lon="-98.73484167">
        <ele>2281.0</ele>
        <time>2019-10-12T17:26:25.841Z</time>
      </trkpt>
      <trkpt lat="20.22325667" lon="-98.734835">
        <ele>2282.0</ele>
        <time>2019-10-12T17:26:26.847Z</time>
      </trkpt>
      <trkpt lat="20.22325833" lon="-98.734825">
        <ele>2282.0</ele>
        <time>2019-10-12T17:26:27.852Z</time>
      </trkpt>
      <trkpt lat="20.22326" lon="-98.73482">
        <ele>2283.0</ele>
        <time>2019-10-12T17:26:28.856Z</time>
      </trkpt>
      <trkpt lat="20.223255" lon="-98.73481667">
        <ele>2284.0</ele>
        <time>2019-10-12T17:26:29.862Z</time>
      </trkpt>
      <trkpt lat="20.22324833" lon="-98.73481667">
        <ele>2284.0</ele>
        <time>2019-10-12T17:26:30.864Z</time>
      </trkpt>
      <trkpt lat="20.223245" lon="-98.73481333">
        <ele>2285.0</ele>
        <time>2019-10-12T17:26:31.865Z</time>
      </trkpt>
      <trkpt lat="20.22323667" lon="-98.73481167">
        <ele>2285.0</ele>
        <time>2019-10-12T17:26:32.868Z</time>
      </trkpt>
      <trkpt lat="20.22323167" lon="-98.73480833">
        <ele>2285.0</ele>
        <time>2019-10-12T17:26:33.874Z</time>
      </trkpt>
      <trkpt lat="20.22322667" lon="-98.734805">
        <ele>2285.0</ele>
        <time>2019-10-12T17:26:34.880Z</time>
      </trkpt>
      <trkpt lat="20.22322" lon="-98.73480167">
        <ele>2285.0</ele>
        <time>2019-10-12T17:26:35.887Z</time>
      </trkpt>
      <trkpt lat="20.22321667" lon="-98.73479667">
        <ele>2284.0</ele>
        <time>2019-10-12T17:26:36.892Z</time>
      </trkpt>
      <trkpt lat="20.22320667" lon="-98.73478833">
        <ele>2284.0</ele>
        <time>2019-10-12T17:26:37.895Z</time>
      </trkpt>
      <trkpt lat="20.223205" lon="-98.73477833">
        <ele>2284.0</ele>
        <time>2019-10-12T17:26:38.902Z</time>
      </trkpt>
      <trkpt lat="20.223215" lon="-98.73476833">
        <ele>2287.0</ele>
        <time>2019-10-12T17:26:39.908Z</time>
      </trkpt>
      <trkpt lat="20.22321833" lon="-98.73475667">
        <ele>2288.0</ele>
        <time>2019-10-12T17:26:40.913Z</time>
      </trkpt>
      <trkpt lat="20.22322333" lon="-98.73474667">
        <ele>2289.0</ele>
        <time>2019-10-12T17:26:41.914Z</time>
      </trkpt>
      <trkpt lat="20.22322" lon="-98.73473833">
        <ele>2289.0</ele>
        <time>2019-10-12T17:26:42.915Z</time>
      </trkpt>
      <trkpt lat="20.223215" lon="-98.73473167">
        <ele>2289.0</ele>
        <time>2019-10-12T17:26:43.916Z</time>
      </trkpt>
      <trkpt lat="20.22320667" lon="-98.734725">
        <ele>2289.0</ele>
        <time>2019-10-12T17:26:44.918Z</time>
      </trkpt>
      <trkpt lat="20.22320333" lon="-98.73471667">
        <ele>2289.0</ele>
        <time>2019-10-12T17:26:45.923Z</time>
      </trkpt>
      <trkpt lat="20.22319167" lon="-98.73470833">
        <ele>2288.0</ele>
        <time>2019-10-12T17:26:46.927Z</time>
      </trkpt>
      <trkpt lat="20.22318833" lon="-98.7347">
        <ele>2288.0</ele>
        <time>2019-10-12T17:26:47.929Z</time>
      </trkpt>
      <trkpt lat="20.22318667" lon="-98.734695">
        <ele>2288.0</ele>
        <time>2019-10-12T17:26:48.936Z</time>
      </trkpt>
      <trkpt lat="20.22318667" lon="-98.73469">
        <ele>2289.0</ele>
        <time>2019-10-12T17:26:49.941Z</time>
      </trkpt>
      <trkpt lat="20.223185" lon="-98.73468333">
        <ele>2289.0</ele>
        <time>2019-10-12T17:26:50.944Z</time>
      </trkpt>
      <trkpt lat="20.22317667" lon="-98.73468">
        <ele>2289.0</ele>
        <time>2019-10-12T17:26:51.950Z</time>
      </trkpt>
      <trkpt lat="20.22317167" lon="-98.73467333">
        <ele>2290.0</ele>
        <time>2019-10-12T17:26:52.833Z</time>
      </trkpt>
      <trkpt lat="20.223165" lon="-98.73466667">
        <ele>2289.0</ele>
        <time>2019-10-12T17:26:53.839Z</time>
      </trkpt>
      <trkpt lat="20.22316167" lon="-98.73466333">
        <ele>2290.0</ele>
        <time>2019-10-12T17:26:54.845Z</time>
      </trkpt>
      <trkpt lat="20.22315833" lon="-98.73465833">
        <ele>2289.0</ele>
        <time>2019-10-12T17:26:55.848Z</time>
      </trkpt>
      <trkpt lat="20.22315333" lon="-98.73465333">
        <ele>2289.0</ele>
        <time>2019-10-12T17:26:56.852Z</time>
      </trkpt>
      <trkpt lat="20.22315" lon="-98.73464833">
        <ele>2290.0</ele>
        <time>2019-10-12T17:26:57.855Z</time>
      </trkpt>
      <trkpt lat="20.223145" lon="-98.73464333">
        <ele>2290.0</ele>
        <time>2019-10-12T17:26:58.863Z</time>
      </trkpt>
      <trkpt lat="20.22313667" lon="-98.73463833">
        <ele>2290.0</ele>
        <time>2019-10-12T17:26:59.865Z</time>
      </trkpt>
      <trkpt lat="20.22312833" lon="-98.73463">
        <ele>2290.0</ele>
        <time>2019-10-12T17:27:00.866Z</time>
      </trkpt>
      <trkpt lat="20.22312167" lon="-98.73462">
        <ele>2290.0</ele>
        <time>2019-10-12T17:27:01.867Z</time>
      </trkpt>
      <trkpt lat="20.22311333" lon="-98.73461333">
        <ele>2289.0</ele>
        <time>2019-10-12T17:27:02.870Z</time>
      </trkpt>
      <trkpt lat="20.22310667" lon="-98.73460167">
        <ele>2289.0</ele>
        <time>2019-10-12T17:27:03.878Z</time>
      </trkpt>
      <trkpt lat="20.22310333" lon="-98.73459333">
        <ele>2290.0</ele>
        <time>2019-10-12T17:27:04.883Z</time>
      </trkpt>
      <trkpt lat="20.22310667" lon="-98.73458833">
        <ele>2291.0</ele>
        <time>2019-10-12T17:27:05.885Z</time>
      </trkpt>
      <trkpt lat="20.22310667" lon="-98.73458">
        <ele>2291.0</ele>
        <time>2019-10-12T17:27:06.893Z</time>
      </trkpt>
      <trkpt lat="20.223105" lon="-98.73456833">
        <ele>2291.0</ele>
        <time>2019-10-12T17:27:07.896Z</time>
      </trkpt>
      <trkpt lat="20.22310333" lon="-98.73456">
        <ele>2292.0</ele>
        <time>2019-10-12T17:27:08.901Z</time>
      </trkpt>
      <trkpt lat="20.2231" lon="-98.73455167">
        <ele>2292.0</ele>
        <time>2019-10-12T17:27:09.906Z</time>
      </trkpt>
      <trkpt lat="20.223095" lon="-98.73454167">
        <ele>2293.0</ele>
        <time>2019-10-12T17:27:10.913Z</time>
      </trkpt>
      <trkpt lat="20.223085" lon="-98.734535">
        <ele>2293.0</ele>
        <time>2019-10-12T17:27:11.919Z</time>
      </trkpt>
      <trkpt lat="20.22307667" lon="-98.73452833">
        <ele>2293.0</ele>
        <time>2019-10-12T17:27:12.922Z</time>
      </trkpt>
      <trkpt lat="20.22306833" lon="-98.73452167">
        <ele>2293.0</ele>
        <time>2019-10-12T17:27:13.927Z</time>
      </trkpt>
      <trkpt lat="20.22306" lon="-98.73451333">
        <ele>2293.0</ele>
        <time>2019-10-12T17:27:14.932Z</time>
      </trkpt>
      <trkpt lat="20.22305333" lon="-98.73450167">
        <ele>2293.0</ele>
        <time>2019-10-12T17:27:15.937Z</time>
      </trkpt>
      <trkpt lat="20.223055" lon="-98.73449333">
        <ele>2294.0</ele>
        <time>2019-10-12T17:27:16.941Z</time>
      </trkpt>
      <trkpt lat="20.22305333" lon="-98.73449">
        <ele>2294.0</ele>
        <time>2019-10-12T17:27:17.942Z</time>
      </trkpt>
      <trkpt lat="20.22304833" lon="-98.73448333">
        <ele>2294.0</ele>
        <time>2019-10-12T17:27:18.943Z</time>
      </trkpt>
      <trkpt lat="20.22303667" lon="-98.73447333">
        <ele>2294.0</ele>
        <time>2019-10-12T17:27:19.943Z</time>
      </trkpt>
      <trkpt lat="20.22302833" lon="-98.73446167">
        <ele>2295.0</ele>
        <time>2019-10-12T17:27:20.944Z</time>
      </trkpt>
      <trkpt lat="20.22301667" lon="-98.734455">
        <ele>2295.0</ele>
        <time>2019-10-12T17:27:21.945Z</time>
      </trkpt>
      <trkpt lat="20.22300667" lon="-98.73445167">
        <ele>2295.0</ele>
        <time>2019-10-12T17:27:22.945Z</time>
      </trkpt>
      <trkpt lat="20.223005" lon="-98.73445167">
        <ele>2296.0</ele>
        <time>2019-10-12T17:27:23.946Z</time>
      </trkpt>
      <trkpt lat="20.22300167" lon="-98.73444833">
        <ele>2295.0</ele>
        <time>2019-10-12T17:27:24.947Z</time>
      </trkpt>
      <trkpt lat="20.22300167" lon="-98.73444">
        <ele>2295.0</ele>
        <time>2019-10-12T17:27:25.948Z</time>
      </trkpt>
      <trkpt lat="20.223" lon="-98.73443167">
        <ele>2296.0</ele>
        <time>2019-10-12T17:27:26.949Z</time>
      </trkpt>
      <trkpt lat="20.22298667" lon="-98.734425">
        <ele>2296.0</ele>
        <time>2019-10-12T17:27:27.950Z</time>
      </trkpt>
      <trkpt lat="20.222975" lon="-98.73441833">
        <ele>2295.0</ele>
        <time>2019-10-12T17:27:28.950Z</time>
      </trkpt>
      <trkpt lat="20.22296833" lon="-98.734415">
        <ele>2295.0</ele>
        <time>2019-10-12T17:27:29.951Z</time>
      </trkpt>
      <trkpt lat="20.22296333" lon="-98.73441333">
        <ele>2295.0</ele>
        <time>2019-10-12T17:27:30.952Z</time>
      </trkpt>
      <trkpt lat="20.22296" lon="-98.73440833">
        <ele>2296.0</ele>
        <time>2019-10-12T17:27:31.953Z</time>
      </trkpt>
      <trkpt lat="20.22295667" lon="-98.734405">
        <ele>2296.0</ele>
        <time>2019-10-12T17:27:32.954Z</time>
      </trkpt>
      <trkpt lat="20.22295167" lon="-98.73439833">
        <ele>2296.0</ele>
        <time>2019-10-12T17:27:33.834Z</time>
      </trkpt>
      <trkpt lat="20.222945" lon="-98.73439333">
        <ele>2296.0</ele>
        <time>2019-10-12T17:27:34.840Z</time>
      </trkpt>
      <trkpt lat="20.22294" lon="-98.73439">
        <ele>2297.0</ele>
        <time>2019-10-12T17:27:35.842Z</time>
      </trkpt>
      <trkpt lat="20.222935" lon="-98.73438667">
        <ele>2297.0</ele>
        <time>2019-10-12T17:27:36.848Z</time>
      </trkpt>
      <trkpt lat="20.22293167" lon="-98.734385">
        <ele>2298.0</ele>
        <time>2019-10-12T17:27:37.853Z</time>
      </trkpt>
      <trkpt lat="20.22292667" lon="-98.73438333">
        <ele>2299.0</ele>
        <time>2019-10-12T17:27:38.858Z</time>
      </trkpt>
      <trkpt lat="20.22292" lon="-98.73438167">
        <ele>2299.0</ele>
        <time>2019-10-12T17:27:39.864Z</time>
      </trkpt>
      <trkpt lat="20.22291667" lon="-98.73437667">
        <ele>2299.0</ele>
        <time>2019-10-12T17:27:40.868Z</time>
      </trkpt>
      <trkpt lat="20.22290833" lon="-98.73437667">
        <ele>2300.0</ele>
        <time>2019-10-12T17:27:41.872Z</time>
      </trkpt>
      <trkpt lat="20.22289833" lon="-98.73437333">
        <ele>2300.0</ele>
        <time>2019-10-12T17:27:42.874Z</time>
      </trkpt>
      <trkpt lat="20.22289" lon="-98.73437167">
        <ele>2300.0</ele>
        <time>2019-10-12T17:27:43.880Z</time>
      </trkpt>
      <trkpt lat="20.22287833" lon="-98.73436833">
        <ele>2301.0</ele>
        <time>2019-10-12T17:27:44.884Z</time>
      </trkpt>
      <trkpt lat="20.222865" lon="-98.73436667">
        <ele>2301.0</ele>
        <time>2019-10-12T17:27:45.889Z</time>
      </trkpt>
      <trkpt lat="20.22285167" lon="-98.734365">
        <ele>2301.0</ele>
        <time>2019-10-12T17:27:46.894Z</time>
      </trkpt>
      <trkpt lat="20.22284333" lon="-98.73436667">
        <ele>2302.0</ele>
        <time>2019-10-12T17:27:47.899Z</time>
      </trkpt>
      <trkpt lat="20.22283833" lon="-98.734365">
        <ele>2302.0</ele>
        <time>2019-10-12T17:27:48.904Z</time>
      </trkpt>
      <trkpt lat="20.22283667" lon="-98.73436333">
        <ele>2303.0</ele>
        <time>2019-10-12T17:27:49.905Z</time>
      </trkpt>
      <trkpt lat="20.22283167" lon="-98.73435833">
        <ele>2304.0</ele>
        <time>2019-10-12T17:27:50.905Z</time>
      </trkpt>
      <trkpt lat="20.22282333" lon="-98.73435333">
        <ele>2304.0</ele>
        <time>2019-10-12T17:27:51.906Z</time>
      </trkpt>
      <trkpt lat="20.22281167" lon="-98.73434333">
        <ele>2304.0</ele>
        <time>2019-10-12T17:27:52.907Z</time>
      </trkpt>
      <trkpt lat="20.222805" lon="-98.73434">
        <ele>2304.0</ele>
        <time>2019-10-12T17:27:53.907Z</time>
      </trkpt>
      <trkpt lat="20.22279667" lon="-98.73433667">
        <ele>2305.0</ele>
        <time>2019-10-12T17:27:54.907Z</time>
      </trkpt>
      <trkpt lat="20.22279" lon="-98.73433333">
        <ele>2305.0</ele>
        <time>2019-10-12T17:27:55.908Z</time>
      </trkpt>
      <trkpt lat="20.22277667" lon="-98.73433333">
        <ele>2305.0</ele>
        <time>2019-10-12T17:27:56.908Z</time>
      </trkpt>
      <trkpt lat="20.22276333" lon="-98.73433333">
        <ele>2305.0</ele>
        <time>2019-10-12T17:27:57.908Z</time>
      </trkpt>
      <trkpt lat="20.22275333" lon="-98.73433">
        <ele>2306.0</ele>
        <time>2019-10-12T17:27:58.909Z</time>
      </trkpt>
      <trkpt lat="20.22273833" lon="-98.73433">
        <ele>2306.0</ele>
        <time>2019-10-12T17:27:59.909Z</time>
      </trkpt>
      <trkpt lat="20.22272667" lon="-98.734335">
        <ele>2307.0</ele>
        <time>2019-10-12T17:28:00.909Z</time>
      </trkpt>
      <trkpt lat="20.22271333" lon="-98.73433833">
        <ele>2307.0</ele>
        <time>2019-10-12T17:28:01.909Z</time>
      </trkpt>
      <trkpt lat="20.22270167" lon="-98.73434">
        <ele>2308.0</ele>
        <time>2019-10-12T17:28:02.910Z</time>
      </trkpt>
      <trkpt lat="20.22269333" lon="-98.73434">
        <ele>2309.0</ele>
        <time>2019-10-12T17:28:03.910Z</time>
      </trkpt>
      <trkpt lat="20.22268167" lon="-98.73433833">
        <ele>2309.0</ele>
        <time>2019-10-12T17:28:04.910Z</time>
      </trkpt>
      <trkpt lat="20.22267333" lon="-98.73433167">
        <ele>2310.0</ele>
        <time>2019-10-12T17:28:05.910Z</time>
      </trkpt>
      <trkpt lat="20.22266" lon="-98.73433167">
        <ele>2311.0</ele>
        <time>2019-10-12T17:28:06.910Z</time>
      </trkpt>
      <trkpt lat="20.22264333" lon="-98.73433667">
        <ele>2311.0</ele>
        <time>2019-10-12T17:28:07.911Z</time>
      </trkpt>
      <trkpt lat="20.22263167" lon="-98.73434333">
        <ele>2311.0</ele>
        <time>2019-10-12T17:28:08.911Z</time>
      </trkpt>
      <trkpt lat="20.22262" lon="-98.73434833">
        <ele>2312.0</ele>
        <time>2019-10-12T17:28:09.912Z</time>
      </trkpt>
      <trkpt lat="20.22260333" lon="-98.73435333">
        <ele>2312.0</ele>
        <time>2019-10-12T17:28:10.912Z</time>
      </trkpt>
      <trkpt lat="20.22259333" lon="-98.734355">
        <ele>2312.0</ele>
        <time>2019-10-12T17:28:11.913Z</time>
      </trkpt>
      <trkpt lat="20.22258167" lon="-98.73435667">
        <ele>2312.0</ele>
        <time>2019-10-12T17:28:12.914Z</time>
      </trkpt>
      <trkpt lat="20.22257167" lon="-98.734355">
        <ele>2313.0</ele>
        <time>2019-10-12T17:28:13.915Z</time>
      </trkpt>
      <trkpt lat="20.22255667" lon="-98.73435167">
        <ele>2313.0</ele>
        <time>2019-10-12T17:28:14.916Z</time>
      </trkpt>
      <trkpt lat="20.22254167" lon="-98.73435167">
        <ele>2314.0</ele>
        <time>2019-10-12T17:28:15.917Z</time>
      </trkpt>
      <trkpt lat="20.22253333" lon="-98.734355">
        <ele>2314.0</ele>
        <time>2019-10-12T17:28:16.917Z</time>
      </trkpt>
      <trkpt lat="20.22252" lon="-98.73436167">
        <ele>2314.0</ele>
        <time>2019-10-12T17:28:17.918Z</time>
      </trkpt>
      <trkpt lat="20.22251" lon="-98.73436167">
        <ele>2314.0</ele>
        <time>2019-10-12T17:28:18.919Z</time>
      </trkpt>
      <trkpt lat="20.22249833" lon="-98.73436">
        <ele>2314.0</ele>
        <time>2019-10-12T17:28:19.920Z</time>
      </trkpt>
      <trkpt lat="20.22247167" lon="-98.734355">
        <ele>2314.0</ele>
        <time>2019-10-12T17:28:20.921Z</time>
      </trkpt>
      <trkpt lat="20.22244667" lon="-98.73434833">
        <ele>2314.0</ele>
        <time>2019-10-12T17:28:21.921Z</time>
      </trkpt>
      <trkpt lat="20.22242833" lon="-98.73434167">
        <ele>2315.0</ele>
        <time>2019-10-12T17:28:22.922Z</time>
      </trkpt>
      <trkpt lat="20.22241167" lon="-98.73433667">
        <ele>2315.0</ele>
        <time>2019-10-12T17:28:23.922Z</time>
      </trkpt>
      <trkpt lat="20.22238667" lon="-98.734335">
        <ele>2316.0</ele>
        <time>2019-10-12T17:28:24.923Z</time>
      </trkpt>
      <trkpt lat="20.22237" lon="-98.73433167">
        <ele>2316.0</ele>
        <time>2019-10-12T17:28:25.927Z</time>
      </trkpt>
      <trkpt lat="20.222355" lon="-98.73433167">
        <ele>2316.0</ele>
        <time>2019-10-12T17:28:26.934Z</time>
      </trkpt>
      <trkpt lat="20.22234667" lon="-98.73433">
        <ele>2316.0</ele>
        <time>2019-10-12T17:28:27.939Z</time>
      </trkpt>
      <trkpt lat="20.22233833" lon="-98.73433333">
        <ele>2316.0</ele>
        <time>2019-10-12T17:28:28.942Z</time>
      </trkpt>
      <trkpt lat="20.222335" lon="-98.73433333">
        <ele>2316.0</ele>
        <time>2019-10-12T17:28:29.948Z</time>
      </trkpt>
      <trkpt lat="20.222325" lon="-98.734335">
        <ele>2316.0</ele>
        <time>2019-10-12T17:28:30.953Z</time>
      </trkpt>
      <trkpt lat="20.222305" lon="-98.73433167">
        <ele>2316.0</ele>
        <time>2019-10-12T17:28:31.835Z</time>
      </trkpt>
      <trkpt lat="20.22228333" lon="-98.73433">
        <ele>2316.0</ele>
        <time>2019-10-12T17:28:32.836Z</time>
      </trkpt>
      <trkpt lat="20.22226833" lon="-98.73433">
        <ele>2316.0</ele>
        <time>2019-10-12T17:28:33.841Z</time>
      </trkpt>
      <trkpt lat="20.22225833" lon="-98.73433">
        <ele>2317.0</ele>
        <time>2019-10-12T17:28:34.848Z</time>
      </trkpt>
      <trkpt lat="20.22225" lon="-98.73433667">
        <ele>2318.0</ele>
        <time>2019-10-12T17:28:35.852Z</time>
      </trkpt>
      <trkpt lat="20.22224" lon="-98.73434333">
        <ele>2318.0</ele>
        <time>2019-10-12T17:28:36.859Z</time>
      </trkpt>
      <trkpt lat="20.222225" lon="-98.73435333">
        <ele>2318.0</ele>
        <time>2019-10-12T17:28:37.864Z</time>
      </trkpt>
      <trkpt lat="20.22221333" lon="-98.73436167">
        <ele>2319.0</ele>
        <time>2019-10-12T17:28:38.870Z</time>
      </trkpt>
      <trkpt lat="20.22220167" lon="-98.734365">
        <ele>2319.0</ele>
        <time>2019-10-12T17:28:39.873Z</time>
      </trkpt>
      <trkpt lat="20.22219" lon="-98.73436333">
        <ele>2319.0</ele>
        <time>2019-10-12T17:28:40.874Z</time>
      </trkpt>
      <trkpt lat="20.22217667" lon="-98.73436167">
        <ele>2320.0</ele>
        <time>2019-10-12T17:28:41.875Z</time>
      </trkpt>
      <trkpt lat="20.222165" lon="-98.734365">
        <ele>2320.0</ele>
        <time>2019-10-12T17:28:42.875Z</time>
      </trkpt>
      <trkpt lat="20.22214833" lon="-98.73437167">
        <ele>2320.0</ele>
        <time>2019-10-12T17:28:43.876Z</time>
      </trkpt>
      <trkpt lat="20.22213833" lon="-98.73437167">
        <ele>2321.0</ele>
        <time>2019-10-12T17:28:44.877Z</time>
      </trkpt>
      <trkpt lat="20.22212667" lon="-98.73437167">
        <ele>2321.0</ele>
        <time>2019-10-12T17:28:45.877Z</time>
      </trkpt>
      <trkpt lat="20.222115" lon="-98.734375">
        <ele>2322.0</ele>
        <time>2019-10-12T17:28:46.879Z</time>
      </trkpt>
      <trkpt lat="20.222105" lon="-98.73438">
        <ele>2322.0</ele>
        <time>2019-10-12T17:28:47.882Z</time>
      </trkpt>
      <trkpt lat="20.222095" lon="-98.73439">
        <ele>2321.0</ele>
        <time>2019-10-12T17:28:48.888Z</time>
      </trkpt>
      <trkpt lat="20.222085" lon="-98.73440167">
        <ele>2321.0</ele>
        <time>2019-10-12T17:28:49.894Z</time>
      </trkpt>
      <trkpt lat="20.222075" lon="-98.73441167">
        <ele>2322.0</ele>
        <time>2019-10-12T17:28:50.896Z</time>
      </trkpt>
      <trkpt lat="20.22206" lon="-98.73441833">
        <ele>2322.0</ele>
        <time>2019-10-12T17:28:51.903Z</time>
      </trkpt>
      <trkpt lat="20.22204333" lon="-98.73442333">
        <ele>2323.0</ele>
        <time>2019-10-12T17:28:52.907Z</time>
      </trkpt>
      <trkpt lat="20.22203667" lon="-98.73442667">
        <ele>2323.0</ele>
        <time>2019-10-12T17:28:53.915Z</time>
      </trkpt>
      <trkpt lat="20.22202667" lon="-98.73443">
        <ele>2324.0</ele>
        <time>2019-10-12T17:28:54.921Z</time>
      </trkpt>
      <trkpt lat="20.22201667" lon="-98.73443167">
        <ele>2324.0</ele>
        <time>2019-10-12T17:28:55.926Z</time>
      </trkpt>
      <trkpt lat="20.222005" lon="-98.73443333">
        <ele>2324.0</ele>
        <time>2019-10-12T17:28:56.930Z</time>
      </trkpt>
      <trkpt lat="20.22199167" lon="-98.73443667">
        <ele>2324.0</ele>
        <time>2019-10-12T17:28:57.934Z</time>
      </trkpt>
      <trkpt lat="20.22197833" lon="-98.73443167">
        <ele>2325.0</ele>
        <time>2019-10-12T17:28:58.940Z</time>
      </trkpt>
      <trkpt lat="20.221965" lon="-98.734425">
        <ele>2325.0</ele>
        <time>2019-10-12T17:28:59.947Z</time>
      </trkpt>
      <trkpt lat="20.22195333" lon="-98.73442333">
        <ele>2326.0</ele>
        <time>2019-10-12T17:29:00.952Z</time>
      </trkpt>
      <trkpt lat="20.22193333" lon="-98.73442833">
        <ele>2326.0</ele>
        <time>2019-10-12T17:29:01.952Z</time>
      </trkpt>
      <trkpt lat="20.22192167" lon="-98.734435">
        <ele>2326.0</ele>
        <time>2019-10-12T17:29:02.953Z</time>
      </trkpt>
      <trkpt lat="20.22191333" lon="-98.73444167">
        <ele>2326.0</ele>
        <time>2019-10-12T17:29:03.954Z</time>
      </trkpt>
      <trkpt lat="20.22189" lon="-98.73444333">
        <ele>2326.0</ele>
        <time>2019-10-12T17:29:04.830Z</time>
      </trkpt>
      <trkpt lat="20.22188" lon="-98.73444167">
        <ele>2326.0</ele>
        <time>2019-10-12T17:29:05.833Z</time>
      </trkpt>
      <trkpt lat="20.22186667" lon="-98.73444">
        <ele>2326.0</ele>
        <time>2019-10-12T17:29:06.839Z</time>
      </trkpt>
      <trkpt lat="20.22184667" lon="-98.73444667">
        <ele>2326.0</ele>
        <time>2019-10-12T17:29:07.844Z</time>
      </trkpt>
      <trkpt lat="20.22182333" lon="-98.73444833">
        <ele>2326.0</ele>
        <time>2019-10-12T17:29:08.851Z</time>
      </trkpt>
      <trkpt lat="20.22180167" lon="-98.73444833">
        <ele>2326.0</ele>
        <time>2019-10-12T17:29:09.857Z</time>
      </trkpt>
      <trkpt lat="20.22178667" lon="-98.73445167">
        <ele>2326.0</ele>
        <time>2019-10-12T17:29:10.864Z</time>
      </trkpt>
      <trkpt lat="20.22177167" lon="-98.73445333">
        <ele>2326.0</ele>
        <time>2019-10-12T17:29:11.870Z</time>
      </trkpt>
      <trkpt lat="20.22175833" lon="-98.73445333">
        <ele>2325.0</ele>
        <time>2019-10-12T17:29:12.877Z</time>
      </trkpt>
      <trkpt lat="20.22174333" lon="-98.73445">
        <ele>2324.0</ele>
        <time>2019-10-12T17:29:13.881Z</time>
      </trkpt>
      <trkpt lat="20.22172833" lon="-98.73444333">
        <ele>2322.0</ele>
        <time>2019-10-12T17:29:14.883Z</time>
      </trkpt>
      <trkpt lat="20.22171167" lon="-98.73444">
        <ele>2322.0</ele>
        <time>2019-10-12T17:29:15.890Z</time>
      </trkpt>
      <trkpt lat="20.22169833" lon="-98.73444333">
        <ele>2321.0</ele>
        <time>2019-10-12T17:29:16.896Z</time>
      </trkpt>
      <trkpt lat="20.22168" lon="-98.73444833">
        <ele>2320.0</ele>
        <time>2019-10-12T17:29:17.902Z</time>
      </trkpt>
      <trkpt lat="20.22166167" lon="-98.73445">
        <ele>2320.0</ele>
        <time>2019-10-12T17:29:18.903Z</time>
      </trkpt>
      <trkpt lat="20.22164667" lon="-98.73445">
        <ele>2320.0</ele>
        <time>2019-10-12T17:29:19.904Z</time>
      </trkpt>
      <trkpt lat="20.22163833" lon="-98.73445">
        <ele>2320.0</ele>
        <time>2019-10-12T17:29:20.905Z</time>
      </trkpt>
      <trkpt lat="20.22163" lon="-98.73444333">
        <ele>2319.0</ele>
        <time>2019-10-12T17:29:21.906Z</time>
      </trkpt>
      <trkpt lat="20.22162333" lon="-98.73444333">
        <ele>2319.0</ele>
        <time>2019-10-12T17:29:22.906Z</time>
      </trkpt>
      <trkpt lat="20.22162" lon="-98.73443667">
        <ele>2319.0</ele>
        <time>2019-10-12T17:29:23.907Z</time>
      </trkpt>
      <trkpt lat="20.22160833" lon="-98.73442833">
        <ele>2319.0</ele>
        <time>2019-10-12T17:29:24.908Z</time>
      </trkpt>
      <trkpt lat="20.221595" lon="-98.734415">
        <ele>2318.0</ele>
        <time>2019-10-12T17:29:25.909Z</time>
      </trkpt>
      <trkpt lat="20.22158667" lon="-98.73439667">
        <ele>2318.0</ele>
        <time>2019-10-12T17:29:26.912Z</time>
      </trkpt>
      <trkpt lat="20.22157167" lon="-98.73438333">
        <ele>2316.0</ele>
        <time>2019-10-12T17:29:27.918Z</time>
      </trkpt>
      <trkpt lat="20.221565" lon="-98.73437">
        <ele>2316.0</ele>
        <time>2019-10-12T17:29:28.925Z</time>
      </trkpt>
      <trkpt lat="20.22156667" lon="-98.73435667">
        <ele>2316.0</ele>
        <time>2019-10-12T17:29:29.930Z</time>
      </trkpt>
      <trkpt lat="20.22155833" lon="-98.73434667">
        <ele>2316.0</ele>
        <time>2019-10-12T17:29:30.932Z</time>
      </trkpt>
      <trkpt lat="20.22155167" lon="-98.73433667">
        <ele>2316.0</ele>
        <time>2019-10-12T17:29:31.938Z</time>
      </trkpt>
      <trkpt lat="20.22154" lon="-98.73432833">
        <ele>2316.0</ele>
        <time>2019-10-12T17:29:32.943Z</time>
      </trkpt>
      <trkpt lat="20.22153" lon="-98.73431667">
        <ele>2315.0</ele>
        <time>2019-10-12T17:29:33.945Z</time>
      </trkpt>
      <trkpt lat="20.22152167" lon="-98.73430333">
        <ele>2315.0</ele>
        <time>2019-10-12T17:29:34.948Z</time>
      </trkpt>
      <trkpt lat="20.221515" lon="-98.73428833">
        <ele>2315.0</ele>
        <time>2019-10-12T17:29:35.953Z</time>
      </trkpt>
      <trkpt lat="20.22151333" lon="-98.73426667">
        <ele>2314.0</ele>
        <time>2019-10-12T17:29:36.833Z</time>
      </trkpt>
      <trkpt lat="20.22150667" lon="-98.73425167">
        <ele>2314.0</ele>
        <time>2019-10-12T17:29:37.837Z</time>
      </trkpt>
      <trkpt lat="20.22149333" lon="-98.73424">
        <ele>2314.0</ele>
        <time>2019-10-12T17:29:38.839Z</time>
      </trkpt>
      <trkpt lat="20.22149" lon="-98.734225">
        <ele>2314.0</ele>
        <time>2019-10-12T17:29:39.844Z</time>
      </trkpt>
      <trkpt lat="20.22148667" lon="-98.734215">
        <ele>2314.0</ele>
        <time>2019-10-12T17:29:40.849Z</time>
      </trkpt>
      <trkpt lat="20.22147833" lon="-98.73420667">
        <ele>2315.0</ele>
        <time>2019-10-12T17:29:41.852Z</time>
      </trkpt>
      <trkpt lat="20.22147167" lon="-98.73419167">
        <ele>2315.0</ele>
        <time>2019-10-12T17:29:42.853Z</time>
      </trkpt>
      <trkpt lat="20.22146" lon="-98.73418167">
        <ele>2315.0</ele>
        <time>2019-10-12T17:29:43.853Z</time>
      </trkpt>
      <trkpt lat="20.22144667" lon="-98.73418">
        <ele>2316.0</ele>
        <time>2019-10-12T17:29:44.854Z</time>
      </trkpt>
      <trkpt lat="20.22143167" lon="-98.73418333">
        <ele>2317.0</ele>
        <time>2019-10-12T17:29:45.854Z</time>
      </trkpt>
      <trkpt lat="20.221415" lon="-98.73419">
        <ele>2317.0</ele>
        <time>2019-10-12T17:29:46.854Z</time>
      </trkpt>
      <trkpt lat="20.221405" lon="-98.73419167">
        <ele>2318.0</ele>
        <time>2019-10-12T17:29:47.854Z</time>
      </trkpt>
      <trkpt lat="20.221395" lon="-98.73419667">
        <ele>2318.0</ele>
        <time>2019-10-12T17:29:48.857Z</time>
      </trkpt>
      <trkpt lat="20.22137667" lon="-98.73420333">
        <ele>2319.0</ele>
        <time>2019-10-12T17:29:49.863Z</time>
      </trkpt>
      <trkpt lat="20.22136833" lon="-98.7342">
        <ele>2319.0</ele>
        <time>2019-10-12T17:29:50.869Z</time>
      </trkpt>
      <trkpt lat="20.22135833" lon="-98.73419333">
        <ele>2318.0</ele>
        <time>2019-10-12T17:29:51.875Z</time>
      </trkpt>
      <trkpt lat="20.22135167" lon="-98.73418833">
        <ele>2318.0</ele>
        <time>2019-10-12T17:29:52.880Z</time>
      </trkpt>
      <trkpt lat="20.22134" lon="-98.73418667">
        <ele>2319.0</ele>
        <time>2019-10-12T17:29:53.882Z</time>
      </trkpt>
      <trkpt lat="20.221325" lon="-98.73419">
        <ele>2319.0</ele>
        <time>2019-10-12T17:29:54.882Z</time>
      </trkpt>
      <trkpt lat="20.22131333" lon="-98.73418667">
        <ele>2319.0</ele>
        <time>2019-10-12T17:29:55.882Z</time>
      </trkpt>
      <trkpt lat="20.22129833" lon="-98.73418">
        <ele>2319.0</ele>
        <time>2019-10-12T17:29:56.882Z</time>
      </trkpt>
      <trkpt lat="20.22128" lon="-98.734175">
        <ele>2320.0</ele>
        <time>2019-10-12T17:29:57.884Z</time>
      </trkpt>
      <trkpt lat="20.22126" lon="-98.73417333">
        <ele>2320.0</ele>
        <time>2019-10-12T17:29:58.885Z</time>
      </trkpt>
      <trkpt lat="20.22124333" lon="-98.73417167">
        <ele>2321.0</ele>
        <time>2019-10-12T17:29:59.888Z</time>
      </trkpt>
      <trkpt lat="20.22123333" lon="-98.73417167">
        <ele>2321.0</ele>
        <time>2019-10-12T17:30:00.892Z</time>
      </trkpt>
      <trkpt lat="20.22122" lon="-98.734175">
        <ele>2321.0</ele>
        <time>2019-10-12T17:30:01.900Z</time>
      </trkpt>
      <trkpt lat="20.22120333" lon="-98.73417667">
        <ele>2321.0</ele>
        <time>2019-10-12T17:30:02.906Z</time>
      </trkpt>
      <trkpt lat="20.22119" lon="-98.73418">
        <ele>2321.0</ele>
        <time>2019-10-12T17:30:03.912Z</time>
      </trkpt>
      <trkpt lat="20.22117167" lon="-98.73418167">
        <ele>2322.0</ele>
        <time>2019-10-12T17:30:04.919Z</time>
      </trkpt>
      <trkpt lat="20.22116333" lon="-98.73417667">
        <ele>2321.0</ele>
        <time>2019-10-12T17:30:05.923Z</time>
      </trkpt>
      <trkpt lat="20.22115333" lon="-98.73417667">
        <ele>2321.0</ele>
        <time>2019-10-12T17:30:06.925Z</time>
      </trkpt>
      <trkpt lat="20.22114167" lon="-98.73417833">
        <ele>2321.0</ele>
        <time>2019-10-12T17:30:07.926Z</time>
      </trkpt>
      <trkpt lat="20.22113167" lon="-98.734175">
        <ele>2321.0</ele>
        <time>2019-10-12T17:30:08.927Z</time>
      </trkpt>
      <trkpt lat="20.22111667" lon="-98.73417167">
        <ele>2321.0</ele>
        <time>2019-10-12T17:30:09.928Z</time>
      </trkpt>
      <trkpt lat="20.22109667" lon="-98.73417333">
        <ele>2322.0</ele>
        <time>2019-10-12T17:30:10.928Z</time>
      </trkpt>
      <trkpt lat="20.22108167" lon="-98.73417167">
        <ele>2322.0</ele>
        <time>2019-10-12T17:30:11.929Z</time>
      </trkpt>
      <trkpt lat="20.22106833" lon="-98.73417">
        <ele>2322.0</ele>
        <time>2019-10-12T17:30:12.929Z</time>
      </trkpt>
      <trkpt lat="20.22104333" lon="-98.73417">
        <ele>2323.0</ele>
        <time>2019-10-12T17:30:13.931Z</time>
      </trkpt>
      <trkpt lat="20.22101833" lon="-98.73417">
        <ele>2324.0</ele>
        <time>2019-10-12T17:30:14.932Z</time>
      </trkpt>
      <trkpt lat="20.22099667" lon="-98.73415833">
        <ele>2323.0</ele>
        <time>2019-10-12T17:30:15.938Z</time>
      </trkpt>
      <trkpt lat="20.22098167" lon="-98.73414833">
        <ele>2323.0</ele>
        <time>2019-10-12T17:30:16.945Z</time>
      </trkpt>
      <trkpt lat="20.22096833" lon="-98.73413833">
        <ele>2324.0</ele>
        <time>2019-10-12T17:30:17.952Z</time>
      </trkpt>
      <trkpt lat="20.22096333" lon="-98.73412833">
        <ele>2323.0</ele>
        <time>2019-10-12T17:30:18.832Z</time>
      </trkpt>
      <trkpt lat="20.22095667" lon="-98.734115">
        <ele>2323.0</ele>
        <time>2019-10-12T17:30:19.834Z</time>
      </trkpt>
      <trkpt lat="20.220945" lon="-98.73410833">
        <ele>2324.0</ele>
        <time>2019-10-12T17:30:20.840Z</time>
      </trkpt>
      <trkpt lat="20.22093667" lon="-98.73410333">
        <ele>2325.0</ele>
        <time>2019-10-12T17:30:21.848Z</time>
      </trkpt>
      <trkpt lat="20.22093333" lon="-98.734095">
        <ele>2325.0</ele>
        <time>2019-10-12T17:30:22.852Z</time>
      </trkpt>
      <trkpt lat="20.22092833" lon="-98.73408333">
        <ele>2325.0</ele>
        <time>2019-10-12T17:30:23.856Z</time>
      </trkpt>
      <trkpt lat="20.22092167" lon="-98.73407">
        <ele>2325.0</ele>
        <time>2019-10-12T17:30:24.859Z</time>
      </trkpt>
      <trkpt lat="20.22092333" lon="-98.73405333">
        <ele>2325.0</ele>
        <time>2019-10-12T17:30:25.865Z</time>
      </trkpt>
      <trkpt lat="20.22092167" lon="-98.73403833">
        <ele>2326.0</ele>
        <time>2019-10-12T17:30:26.871Z</time>
      </trkpt>
      <trkpt lat="20.22092667" lon="-98.73402333">
        <ele>2326.0</ele>
        <time>2019-10-12T17:30:27.877Z</time>
      </trkpt>
      <trkpt lat="20.22092667" lon="-98.73401">
        <ele>2326.0</ele>
        <time>2019-10-12T17:30:28.880Z</time>
      </trkpt>
      <trkpt lat="20.22093" lon="-98.73399667">
        <ele>2326.0</ele>
        <time>2019-10-12T17:30:29.881Z</time>
      </trkpt>
      <trkpt lat="20.22093167" lon="-98.73398333">
        <ele>2326.0</ele>
        <time>2019-10-12T17:30:30.885Z</time>
      </trkpt>
      <trkpt lat="20.22093333" lon="-98.733975">
        <ele>2327.0</ele>
        <time>2019-10-12T17:30:31.892Z</time>
      </trkpt>
      <trkpt lat="20.220935" lon="-98.73396833">
        <ele>2327.0</ele>
        <time>2019-10-12T17:30:32.897Z</time>
      </trkpt>
      <trkpt lat="20.22093667" lon="-98.73396333">
        <ele>2327.0</ele>
        <time>2019-10-12T17:30:33.901Z</time>
      </trkpt>
      <trkpt lat="20.22093833" lon="-98.73395667">
        <ele>2327.0</ele>
        <time>2019-10-12T17:30:34.908Z</time>
      </trkpt>
      <trkpt lat="20.22093667" lon="-98.73394667">
        <ele>2327.0</ele>
        <time>2019-10-12T17:30:35.915Z</time>
      </trkpt>
      <trkpt lat="20.22093333" lon="-98.73394">
        <ele>2327.0</ele>
        <time>2019-10-12T17:30:36.918Z</time>
      </trkpt>
      <trkpt lat="20.22093167" lon="-98.73393">
        <ele>2326.0</ele>
        <time>2019-10-12T17:30:37.919Z</time>
      </trkpt>
      <trkpt lat="20.22093333" lon="-98.73392167">
        <ele>2326.0</ele>
        <time>2019-10-12T17:30:38.923Z</time>
      </trkpt>
      <trkpt lat="20.22093833" lon="-98.73391167">
        <ele>2327.0</ele>
        <time>2019-10-12T17:30:39.928Z</time>
      </trkpt>
      <trkpt lat="20.22093833" lon="-98.73390333">
        <ele>2328.0</ele>
        <time>2019-10-12T17:30:40.931Z</time>
      </trkpt>
      <trkpt lat="20.22094333" lon="-98.73389333">
        <ele>2328.0</ele>
        <time>2019-10-12T17:30:41.937Z</time>
      </trkpt>
      <trkpt lat="20.22094333" lon="-98.733885">
        <ele>2328.0</ele>
        <time>2019-10-12T17:30:42.942Z</time>
      </trkpt>
      <trkpt lat="20.22094167" lon="-98.73387667">
        <ele>2328.0</ele>
        <time>2019-10-12T17:30:43.950Z</time>
      </trkpt>
      <trkpt lat="20.22093833" lon="-98.73386333">
        <ele>2328.0</ele>
        <time>2019-10-12T17:30:44.831Z</time>
      </trkpt>
      <trkpt lat="20.22093333" lon="-98.73385">
        <ele>2328.0</ele>
        <time>2019-10-12T17:30:45.832Z</time>
      </trkpt>
      <trkpt lat="20.22093" lon="-98.73384">
        <ele>2329.0</ele>
        <time>2019-10-12T17:30:46.835Z</time>
      </trkpt>
      <trkpt lat="20.22092833" lon="-98.73383">
        <ele>2329.0</ele>
        <time>2019-10-12T17:30:47.841Z</time>
      </trkpt>
      <trkpt lat="20.22093" lon="-98.73382">
        <ele>2329.0</ele>
        <time>2019-10-12T17:30:48.847Z</time>
      </trkpt>
      <trkpt lat="20.22093167" lon="-98.73381667">
        <ele>2329.0</ele>
        <time>2019-10-12T17:30:49.852Z</time>
      </trkpt>
      <trkpt lat="20.220935" lon="-98.73381333">
        <ele>2329.0</ele>
        <time>2019-10-12T17:30:50.857Z</time>
      </trkpt>
      <trkpt lat="20.22094" lon="-98.73380667">
        <ele>2328.0</ele>
        <time>2019-10-12T17:30:51.859Z</time>
      </trkpt>
      <trkpt lat="20.220945" lon="-98.73379833">
        <ele>2328.0</ele>
        <time>2019-10-12T17:30:52.866Z</time>
      </trkpt>
      <trkpt lat="20.22094833" lon="-98.73378667">
        <ele>2329.0</ele>
        <time>2019-10-12T17:30:53.869Z</time>
      </trkpt>
      <trkpt lat="20.22094833" lon="-98.73377667">
        <ele>2329.0</ele>
        <time>2019-10-12T17:30:54.874Z</time>
      </trkpt>
      <trkpt lat="20.22094667" lon="-98.73376667">
        <ele>2330.0</ele>
        <time>2019-10-12T17:30:55.880Z</time>
      </trkpt>
      <trkpt lat="20.22094667" lon="-98.73375667">
        <ele>2330.0</ele>
        <time>2019-10-12T17:30:56.886Z</time>
      </trkpt>
      <trkpt lat="20.22094667" lon="-98.73374833">
        <ele>2331.0</ele>
        <time>2019-10-12T17:30:57.889Z</time>
      </trkpt>
      <trkpt lat="20.22094833" lon="-98.73373833">
        <ele>2331.0</ele>
        <time>2019-10-12T17:30:58.897Z</time>
      </trkpt>
      <trkpt lat="20.22095" lon="-98.73372833">
        <ele>2332.0</ele>
        <time>2019-10-12T17:30:59.901Z</time>
      </trkpt>
      <trkpt lat="20.220945" lon="-98.733715">
        <ele>2332.0</ele>
        <time>2019-10-12T17:31:00.905Z</time>
      </trkpt>
      <trkpt lat="20.220935" lon="-98.73370667">
        <ele>2332.0</ele>
        <time>2019-10-12T17:31:01.906Z</time>
      </trkpt>
      <trkpt lat="20.22092667" lon="-98.73369833">
        <ele>2332.0</ele>
        <time>2019-10-12T17:31:02.907Z</time>
      </trkpt>
      <trkpt lat="20.22091333" lon="-98.73369167">
        <ele>2332.0</ele>
        <time>2019-10-12T17:31:03.908Z</time>
      </trkpt>
      <trkpt lat="20.2209" lon="-98.73368667">
        <ele>2332.0</ele>
        <time>2019-10-12T17:31:04.910Z</time>
      </trkpt>
      <trkpt lat="20.22088833" lon="-98.73368167">
        <ele>2332.0</ele>
        <time>2019-10-12T17:31:05.918Z</time>
      </trkpt>
      <trkpt lat="20.22087333" lon="-98.73368">
        <ele>2332.0</ele>
        <time>2019-10-12T17:31:06.925Z</time>
      </trkpt>
      <trkpt lat="20.220855" lon="-98.73367667">
        <ele>2333.0</ele>
        <time>2019-10-12T17:31:07.931Z</time>
      </trkpt>
      <trkpt lat="20.22084" lon="-98.73368">
        <ele>2333.0</ele>
        <time>2019-10-12T17:31:08.938Z</time>
      </trkpt>
      <trkpt lat="20.22083" lon="-98.73368167">
        <ele>2334.0</ele>
        <time>2019-10-12T17:31:09.944Z</time>
      </trkpt>
      <trkpt lat="20.22081833" lon="-98.73367833">
        <ele>2334.0</ele>
        <time>2019-10-12T17:31:10.947Z</time>
      </trkpt>
      <trkpt lat="20.22080333" lon="-98.73367">
        <ele>2334.0</ele>
        <time>2019-10-12T17:31:11.951Z</time>
      </trkpt>
      <trkpt lat="20.22078833" lon="-98.73365667">
        <ele>2334.0</ele>
        <time>2019-10-12T17:31:12.831Z</time>
      </trkpt>
      <trkpt lat="20.220775" lon="-98.73364167">
        <ele>2333.0</ele>
        <time>2019-10-12T17:31:13.838Z</time>
      </trkpt>
      <trkpt lat="20.22075833" lon="-98.73363">
        <ele>2332.0</ele>
        <time>2019-10-12T17:31:14.846Z</time>
      </trkpt>
      <trkpt lat="20.22074" lon="-98.73362333">
        <ele>2332.0</ele>
        <time>2019-10-12T17:31:15.851Z</time>
      </trkpt>
      <trkpt lat="20.22072667" lon="-98.73361167">
        <ele>2332.0</ele>
        <time>2019-10-12T17:31:16.853Z</time>
      </trkpt>
      <trkpt lat="20.22072" lon="-98.73360167">
        <ele>2331.0</ele>
        <time>2019-10-12T17:31:17.856Z</time>
      </trkpt>
      <trkpt lat="20.22071333" lon="-98.73358833">
        <ele>2331.0</ele>
        <time>2019-10-12T17:31:18.856Z</time>
      </trkpt>
      <trkpt lat="20.2207" lon="-98.73357667">
        <ele>2331.0</ele>
        <time>2019-10-12T17:31:19.857Z</time>
      </trkpt>
      <trkpt lat="20.22068833" lon="-98.73356667">
        <ele>2331.0</ele>
        <time>2019-10-12T17:31:20.858Z</time>
      </trkpt>
      <trkpt lat="20.220685" lon="-98.73356">
        <ele>2332.0</ele>
        <time>2019-10-12T17:31:21.859Z</time>
      </trkpt>
      <trkpt lat="20.22068333" lon="-98.73355333">
        <ele>2333.0</ele>
        <time>2019-10-12T17:31:22.860Z</time>
      </trkpt>
      <trkpt lat="20.22068" lon="-98.733545">
        <ele>2334.0</ele>
        <time>2019-10-12T17:31:23.860Z</time>
      </trkpt>
      <trkpt lat="20.22067167" lon="-98.73353">
        <ele>2334.0</ele>
        <time>2019-10-12T17:31:24.861Z</time>
      </trkpt>
      <trkpt lat="20.22065667" lon="-98.73351833">
        <ele>2334.0</ele>
        <time>2019-10-12T17:31:25.862Z</time>
      </trkpt>
      <trkpt lat="20.22064667" lon="-98.73350167">
        <ele>2334.0</ele>
        <time>2019-10-12T17:31:26.862Z</time>
      </trkpt>
      <trkpt lat="20.220635" lon="-98.73349">
        <ele>2334.0</ele>
        <time>2019-10-12T17:31:27.864Z</time>
      </trkpt>
      <trkpt lat="20.22062667" lon="-98.73348">
        <ele>2333.0</ele>
        <time>2019-10-12T17:31:28.867Z</time>
      </trkpt>
      <trkpt lat="20.22061667" lon="-98.73346833">
        <ele>2333.0</ele>
        <time>2019-10-12T17:31:29.873Z</time>
      </trkpt>
      <trkpt lat="20.220605" lon="-98.73345833">
        <ele>2332.0</ele>
        <time>2019-10-12T17:31:30.879Z</time>
      </trkpt>
      <trkpt lat="20.22059167" lon="-98.73345">
        <ele>2332.0</ele>
        <time>2019-10-12T17:31:31.880Z</time>
      </trkpt>
      <trkpt lat="20.22057833" lon="-98.73344667">
        <ele>2332.0</ele>
        <time>2019-10-12T17:31:32.886Z</time>
      </trkpt>
      <trkpt lat="20.22056" lon="-98.73344333">
        <ele>2331.0</ele>
        <time>2019-10-12T17:31:33.892Z</time>
      </trkpt>
      <trkpt lat="20.22053833" lon="-98.73344">
        <ele>2331.0</ele>
        <time>2019-10-12T17:31:34.899Z</time>
      </trkpt>
      <trkpt lat="20.22051667" lon="-98.73343667">
        <ele>2331.0</ele>
        <time>2019-10-12T17:31:35.905Z</time>
      </trkpt>
      <trkpt lat="20.220495" lon="-98.73342833">
        <ele>2330.0</ele>
        <time>2019-10-12T17:31:36.911Z</time>
      </trkpt>
      <trkpt lat="20.22047667" lon="-98.73341667">
        <ele>2330.0</ele>
        <time>2019-10-12T17:31:37.915Z</time>
      </trkpt>
      <trkpt lat="20.22046" lon="-98.73340833">
        <ele>2329.0</ele>
        <time>2019-10-12T17:31:38.917Z</time>
      </trkpt>
      <trkpt lat="20.22044" lon="-98.73339833">
        <ele>2328.0</ele>
        <time>2019-10-12T17:31:39.921Z</time>
      </trkpt>
      <trkpt lat="20.22041833" lon="-98.73339">
        <ele>2327.0</ele>
        <time>2019-10-12T17:31:40.926Z</time>
      </trkpt>
      <trkpt lat="20.22040167" lon="-98.73338">
        <ele>2327.0</ele>
        <time>2019-10-12T17:31:41.932Z</time>
      </trkpt>
      <trkpt lat="20.22038167" lon="-98.73336833">
        <ele>2327.0</ele>
        <time>2019-10-12T17:31:42.937Z</time>
      </trkpt>
      <trkpt lat="20.220365" lon="-98.73335333">
        <ele>2327.0</ele>
        <time>2019-10-12T17:31:43.939Z</time>
      </trkpt>
      <trkpt lat="20.22035167" lon="-98.73333833">
        <ele>2328.0</ele>
        <time>2019-10-12T17:31:44.945Z</time>
      </trkpt>
      <trkpt lat="20.22033667" lon="-98.73332167">
        <ele>2328.0</ele>
        <time>2019-10-12T17:31:45.952Z</time>
      </trkpt>
      <trkpt lat="20.22032333" lon="-98.73330667">
        <ele>2328.0</ele>
        <time>2019-10-12T17:31:46.831Z</time>
      </trkpt>
      <trkpt lat="20.22031167" lon="-98.73328833">
        <ele>2328.0</ele>
        <time>2019-10-12T17:31:47.835Z</time>
      </trkpt>
      <trkpt lat="20.22030667" lon="-98.73327">
        <ele>2328.0</ele>
        <time>2019-10-12T17:31:48.840Z</time>
      </trkpt>
      <trkpt lat="20.22030333" lon="-98.73324833">
        <ele>2328.0</ele>
        <time>2019-10-12T17:31:49.847Z</time>
      </trkpt>
      <trkpt lat="20.22030333" lon="-98.73322667">
        <ele>2327.0</ele>
        <time>2019-10-12T17:31:50.852Z</time>
      </trkpt>
      <trkpt lat="20.2203" lon="-98.733205">
        <ele>2327.0</ele>
        <time>2019-10-12T17:31:51.858Z</time>
      </trkpt>
      <trkpt lat="20.220295" lon="-98.73318167">
        <ele>2326.0</ele>
        <time>2019-10-12T17:31:52.863Z</time>
      </trkpt>
      <trkpt lat="20.22028333" lon="-98.733165">
        <ele>2326.0</ele>
        <time>2019-10-12T17:31:53.866Z</time>
      </trkpt>
      <trkpt lat="20.22027167" lon="-98.73314333">
        <ele>2326.0</ele>
        <time>2019-10-12T17:31:54.872Z</time>
      </trkpt>
      <trkpt lat="20.22025833" lon="-98.73312333">
        <ele>2326.0</ele>
        <time>2019-10-12T17:31:55.878Z</time>
      </trkpt>
      <trkpt lat="20.22024167" lon="-98.733105">
        <ele>2327.0</ele>
        <time>2019-10-12T17:31:56.878Z</time>
      </trkpt>
      <trkpt lat="20.22022" lon="-98.73309">
        <ele>2327.0</ele>
        <time>2019-10-12T17:31:57.879Z</time>
      </trkpt>
      <trkpt lat="20.22019167" lon="-98.73307667">
        <ele>2327.0</ele>
        <time>2019-10-12T17:31:58.881Z</time>
      </trkpt>
      <trkpt lat="20.22016833" lon="-98.73306333">
        <ele>2327.0</ele>
        <time>2019-10-12T17:31:59.884Z</time>
      </trkpt>
      <trkpt lat="20.22014833" lon="-98.73305833">
        <ele>2327.0</ele>
        <time>2019-10-12T17:32:00.886Z</time>
      </trkpt>
      <trkpt lat="20.22012667" lon="-98.73306167">
        <ele>2328.0</ele>
        <time>2019-10-12T17:32:01.887Z</time>
      </trkpt>
      <trkpt lat="20.22010333" lon="-98.73306667">
        <ele>2329.0</ele>
        <time>2019-10-12T17:32:02.887Z</time>
      </trkpt>
      <trkpt lat="20.22007833" lon="-98.73307333">
        <ele>2329.0</ele>
        <time>2019-10-12T17:32:03.888Z</time>
      </trkpt>
      <trkpt lat="20.22005833" lon="-98.73307667">
        <ele>2328.0</ele>
        <time>2019-10-12T17:32:04.889Z</time>
      </trkpt>
      <trkpt lat="20.22004167" lon="-98.73307667">
        <ele>2328.0</ele>
        <time>2019-10-12T17:32:05.890Z</time>
      </trkpt>
      <trkpt lat="20.22002" lon="-98.73308333">
        <ele>2328.0</ele>
        <time>2019-10-12T17:32:06.890Z</time>
      </trkpt>
      <trkpt lat="20.22" lon="-98.73309167">
        <ele>2329.0</ele>
        <time>2019-10-12T17:32:07.891Z</time>
      </trkpt>
      <trkpt lat="20.21998333" lon="-98.73309333">
        <ele>2329.0</ele>
        <time>2019-10-12T17:32:08.892Z</time>
      </trkpt>
      <trkpt lat="20.219965" lon="-98.73309833">
        <ele>2330.0</ele>
        <time>2019-10-12T17:32:09.893Z</time>
      </trkpt>
      <trkpt lat="20.219945" lon="-98.73310833">
        <ele>2331.0</ele>
        <time>2019-10-12T17:32:10.894Z</time>
      </trkpt>
      <trkpt lat="20.219925" lon="-98.73311333">
        <ele>2332.0</ele>
        <time>2019-10-12T17:32:11.897Z</time>
      </trkpt>
      <trkpt lat="20.2199" lon="-98.733125">
        <ele>2332.0</ele>
        <time>2019-10-12T17:32:12.903Z</time>
      </trkpt>
      <trkpt lat="20.21988167" lon="-98.73313333">
        <ele>2332.0</ele>
        <time>2019-10-12T17:32:13.910Z</time>
      </trkpt>
      <trkpt lat="20.219855" lon="-98.73314167">
        <ele>2332.0</ele>
        <time>2019-10-12T17:32:14.914Z</time>
      </trkpt>
      <trkpt lat="20.21983167" lon="-98.733145">
        <ele>2332.0</ele>
        <time>2019-10-12T17:32:15.920Z</time>
      </trkpt>
      <trkpt lat="20.21980833" lon="-98.73315167">
        <ele>2333.0</ele>
        <time>2019-10-12T17:32:16.923Z</time>
      </trkpt>
      <trkpt lat="20.21978667" lon="-98.73315667">
        <ele>2333.0</ele>
        <time>2019-10-12T17:32:17.930Z</time>
      </trkpt>
      <trkpt lat="20.21976167" lon="-98.73316">
        <ele>2332.0</ele>
        <time>2019-10-12T17:32:18.937Z</time>
      </trkpt>
      <trkpt lat="20.219745" lon="-98.733165">
        <ele>2331.0</ele>
        <time>2019-10-12T17:32:19.944Z</time>
      </trkpt>
      <trkpt lat="20.21973" lon="-98.73317">
        <ele>2331.0</ele>
        <time>2019-10-12T17:32:20.950Z</time>
      </trkpt>
      <trkpt lat="20.21971" lon="-98.73317833">
        <ele>2331.0</ele>
        <time>2019-10-12T17:32:21.830Z</time>
      </trkpt>
      <trkpt lat="20.21969333" lon="-98.73318833">
        <ele>2331.0</ele>
        <time>2019-10-12T17:32:22.835Z</time>
      </trkpt>
      <trkpt lat="20.21968" lon="-98.733195">
        <ele>2331.0</ele>
        <time>2019-10-12T17:32:23.838Z</time>
      </trkpt>
      <trkpt lat="20.21966167" lon="-98.73320333">
        <ele>2332.0</ele>
        <time>2019-10-12T17:32:24.838Z</time>
      </trkpt>
      <trkpt lat="20.21964833" lon="-98.73320833">
        <ele>2332.0</ele>
        <time>2019-10-12T17:32:25.839Z</time>
      </trkpt>
      <trkpt lat="20.21962667" lon="-98.73321833">
        <ele>2332.0</ele>
        <time>2019-10-12T17:32:26.839Z</time>
      </trkpt>
      <trkpt lat="20.21961167" lon="-98.73321667">
        <ele>2332.0</ele>
        <time>2019-10-12T17:32:27.839Z</time>
      </trkpt>
      <trkpt lat="20.21958667" lon="-98.73321667">
        <ele>2332.0</ele>
        <time>2019-10-12T17:32:28.839Z</time>
      </trkpt>
      <trkpt lat="20.21957" lon="-98.73322">
        <ele>2333.0</ele>
        <time>2019-10-12T17:32:29.840Z</time>
      </trkpt>
      <trkpt lat="20.219555" lon="-98.73322">
        <ele>2333.0</ele>
        <time>2019-10-12T17:32:30.840Z</time>
      </trkpt>
      <trkpt lat="20.219545" lon="-98.73321833">
        <ele>2333.0</ele>
        <time>2019-10-12T17:32:31.840Z</time>
      </trkpt>
      <trkpt lat="20.21953" lon="-98.73321833">
        <ele>2332.0</ele>
        <time>2019-10-12T17:32:32.840Z</time>
      </trkpt>
      <trkpt lat="20.219505" lon="-98.73321833">
        <ele>2332.0</ele>
        <time>2019-10-12T17:32:33.840Z</time>
      </trkpt>
      <trkpt lat="20.21947833" lon="-98.73321833">
        <ele>2333.0</ele>
        <time>2019-10-12T17:32:34.841Z</time>
      </trkpt>
      <trkpt lat="20.219455" lon="-98.73321833">
        <ele>2333.0</ele>
        <time>2019-10-12T17:32:35.842Z</time>
      </trkpt>
      <trkpt lat="20.21943333" lon="-98.73321333">
        <ele>2334.0</ele>
        <time>2019-10-12T17:32:36.842Z</time>
      </trkpt>
      <trkpt lat="20.21940667" lon="-98.73320667">
        <ele>2334.0</ele>
        <time>2019-10-12T17:32:37.844Z</time>
      </trkpt>
      <trkpt lat="20.219385" lon="-98.733195">
        <ele>2333.0</ele>
        <time>2019-10-12T17:32:38.845Z</time>
      </trkpt>
      <trkpt lat="20.21937" lon="-98.73318333">
        <ele>2333.0</ele>
        <time>2019-10-12T17:32:39.845Z</time>
      </trkpt>
      <trkpt lat="20.21935333" lon="-98.733175">
        <ele>2333.0</ele>
        <time>2019-10-12T17:32:40.846Z</time>
      </trkpt>
      <trkpt lat="20.21933833" lon="-98.73316667">
        <ele>2334.0</ele>
        <time>2019-10-12T17:32:41.847Z</time>
      </trkpt>
      <trkpt lat="20.219325" lon="-98.73315833">
        <ele>2334.0</ele>
        <time>2019-10-12T17:32:42.848Z</time>
      </trkpt>
      <trkpt lat="20.21930833" lon="-98.73315">
        <ele>2334.0</ele>
        <time>2019-10-12T17:32:43.849Z</time>
      </trkpt>
      <trkpt lat="20.21929333" lon="-98.73313833">
        <ele>2334.0</ele>
        <time>2019-10-12T17:32:44.850Z</time>
      </trkpt>
      <trkpt lat="20.21927833" lon="-98.73312">
        <ele>2334.0</ele>
        <time>2019-10-12T17:32:45.851Z</time>
      </trkpt>
      <trkpt lat="20.21926" lon="-98.73310667">
        <ele>2334.0</ele>
        <time>2019-10-12T17:32:46.851Z</time>
      </trkpt>
      <trkpt lat="20.219235" lon="-98.73309667">
        <ele>2334.0</ele>
        <time>2019-10-12T17:32:47.852Z</time>
      </trkpt>
      <trkpt lat="20.21921333" lon="-98.73308667">
        <ele>2335.0</ele>
        <time>2019-10-12T17:32:48.853Z</time>
      </trkpt>
      <trkpt lat="20.21919333" lon="-98.73307333">
        <ele>2336.0</ele>
        <time>2019-10-12T17:32:49.854Z</time>
      </trkpt>
      <trkpt lat="20.21917167" lon="-98.73305333">
        <ele>2336.0</ele>
        <time>2019-10-12T17:32:50.854Z</time>
      </trkpt>
      <trkpt lat="20.21915167" lon="-98.73303">
        <ele>2336.0</ele>
        <time>2019-10-12T17:32:51.854Z</time>
      </trkpt>
      <trkpt lat="20.21913667" lon="-98.73301">
        <ele>2336.0</ele>
        <time>2019-10-12T17:32:52.856Z</time>
      </trkpt>
      <trkpt lat="20.21912833" lon="-98.73298833">
        <ele>2336.0</ele>
        <time>2019-10-12T17:32:53.857Z</time>
      </trkpt>
      <trkpt lat="20.21912333" lon="-98.732965">
        <ele>2336.0</ele>
        <time>2019-10-12T17:32:54.858Z</time>
      </trkpt>
      <trkpt lat="20.21912167" lon="-98.73294333">
        <ele>2336.0</ele>
        <time>2019-10-12T17:32:55.858Z</time>
      </trkpt>
      <trkpt lat="20.21912" lon="-98.73292">
        <ele>2337.0</ele>
        <time>2019-10-12T17:32:56.859Z</time>
      </trkpt>
      <trkpt lat="20.21912333" lon="-98.73289667">
        <ele>2337.0</ele>
        <time>2019-10-12T17:32:57.860Z</time>
      </trkpt>
      <trkpt lat="20.21912333" lon="-98.73286667">
        <ele>2336.0</ele>
        <time>2019-10-12T17:32:58.860Z</time>
      </trkpt>
      <trkpt lat="20.21911833" lon="-98.73283833">
        <ele>2336.0</ele>
        <time>2019-10-12T17:32:59.864Z</time>
      </trkpt>
      <trkpt lat="20.21911667" lon="-98.73281333">
        <ele>2336.0</ele>
        <time>2019-10-12T17:33:00.872Z</time>
      </trkpt>
      <trkpt lat="20.219115" lon="-98.73279167">
        <ele>2337.0</ele>
        <time>2019-10-12T17:33:01.879Z</time>
      </trkpt>
      <trkpt lat="20.21911167" lon="-98.73277333">
        <ele>2337.0</ele>
        <time>2019-10-12T17:33:02.880Z</time>
      </trkpt>
      <trkpt lat="20.21911167" lon="-98.73275333">
        <ele>2337.0</ele>
        <time>2019-10-12T17:33:03.885Z</time>
      </trkpt>
      <trkpt lat="20.21911167" lon="-98.73273167">
        <ele>2337.0</ele>
        <time>2019-10-12T17:33:04.888Z</time>
      </trkpt>
      <trkpt lat="20.21910333" lon="-98.73271333">
        <ele>2337.0</ele>
        <time>2019-10-12T17:33:05.895Z</time>
      </trkpt>
      <trkpt lat="20.21908833" lon="-98.732695">
        <ele>2336.0</ele>
        <time>2019-10-12T17:33:06.901Z</time>
      </trkpt>
      <trkpt lat="20.21907333" lon="-98.732685">
        <ele>2336.0</ele>
        <time>2019-10-12T17:33:07.909Z</time>
      </trkpt>
      <trkpt lat="20.21906" lon="-98.732675">
        <ele>2335.0</ele>
        <time>2019-10-12T17:33:08.914Z</time>
      </trkpt>
      <trkpt lat="20.21904333" lon="-98.73266333">
        <ele>2335.0</ele>
        <time>2019-10-12T17:33:09.918Z</time>
      </trkpt>
      <trkpt lat="20.21902833" lon="-98.73265333">
        <ele>2334.0</ele>
        <time>2019-10-12T17:33:10.924Z</time>
      </trkpt>
      <trkpt lat="20.219015" lon="-98.73264">
        <ele>2334.0</ele>
        <time>2019-10-12T17:33:11.932Z</time>
      </trkpt>
      <trkpt lat="20.21900333" lon="-98.73262833">
        <ele>2333.0</ele>
        <time>2019-10-12T17:33:12.933Z</time>
      </trkpt>
      <trkpt lat="20.21898833" lon="-98.73261667">
        <ele>2333.0</ele>
        <time>2019-10-12T17:33:13.934Z</time>
      </trkpt>
      <trkpt lat="20.21897833" lon="-98.732605">
        <ele>2333.0</ele>
        <time>2019-10-12T17:33:14.936Z</time>
      </trkpt>
      <trkpt lat="20.21896667" lon="-98.73258833">
        <ele>2333.0</ele>
        <time>2019-10-12T17:33:15.936Z</time>
      </trkpt>
      <trkpt lat="20.21895667" lon="-98.73257">
        <ele>2333.0</ele>
        <time>2019-10-12T17:33:16.937Z</time>
      </trkpt>
      <trkpt lat="20.21894667" lon="-98.73255167">
        <ele>2332.0</ele>
        <time>2019-10-12T17:33:17.938Z</time>
      </trkpt>
      <trkpt lat="20.21893667" lon="-98.732535">
        <ele>2332.0</ele>
        <time>2019-10-12T17:33:18.939Z</time>
      </trkpt>
      <trkpt lat="20.21892833" lon="-98.73251833">
        <ele>2332.0</ele>
        <time>2019-10-12T17:33:19.940Z</time>
      </trkpt>
      <trkpt lat="20.21891833" lon="-98.732505">
        <ele>2331.0</ele>
        <time>2019-10-12T17:33:20.941Z</time>
      </trkpt>
      <trkpt lat="20.21890833" lon="-98.73249667">
        <ele>2331.0</ele>
        <time>2019-10-12T17:33:21.943Z</time>
      </trkpt>
      <trkpt lat="20.21889667" lon="-98.73249">
        <ele>2331.0</ele>
        <time>2019-10-12T17:33:22.949Z</time>
      </trkpt>
      <trkpt lat="20.21888" lon="-98.73248833">
        <ele>2331.0</ele>
        <time>2019-10-12T17:33:23.831Z</time>
      </trkpt>
      <trkpt lat="20.21886667" lon="-98.73248833">
        <ele>2332.0</ele>
        <time>2019-10-12T17:33:24.836Z</time>
      </trkpt>
      <trkpt lat="20.21885" lon="-98.73249167">
        <ele>2332.0</ele>
        <time>2019-10-12T17:33:25.841Z</time>
      </trkpt>
      <trkpt lat="20.21883" lon="-98.73249667">
        <ele>2331.0</ele>
        <time>2019-10-12T17:33:26.843Z</time>
      </trkpt>
      <trkpt lat="20.21881167" lon="-98.732505">
        <ele>2331.0</ele>
        <time>2019-10-12T17:33:27.850Z</time>
      </trkpt>
      <trkpt lat="20.21879833" lon="-98.73251833">
        <ele>2332.0</ele>
        <time>2019-10-12T17:33:28.854Z</time>
      </trkpt>
      <trkpt lat="20.21878" lon="-98.73252833">
        <ele>2332.0</ele>
        <time>2019-10-12T17:33:29.857Z</time>
      </trkpt>
      <trkpt lat="20.21875667" lon="-98.732535">
        <ele>2332.0</ele>
        <time>2019-10-12T17:33:30.862Z</time>
      </trkpt>
      <trkpt lat="20.21873667" lon="-98.73253667">
        <ele>2332.0</ele>
        <time>2019-10-12T17:33:31.867Z</time>
      </trkpt>
      <trkpt lat="20.218715" lon="-98.73253833">
        <ele>2332.0</ele>
        <time>2019-10-12T17:33:32.872Z</time>
      </trkpt>
      <trkpt lat="20.21869333" lon="-98.73254167">
        <ele>2331.0</ele>
        <time>2019-10-12T17:33:33.880Z</time>
      </trkpt>
      <trkpt lat="20.21866667" lon="-98.73254333">
        <ele>2331.0</ele>
        <time>2019-10-12T17:33:34.886Z</time>
      </trkpt>
      <trkpt lat="20.21864667" lon="-98.73254333">
        <ele>2331.0</ele>
        <time>2019-10-12T17:33:35.889Z</time>
      </trkpt>
      <trkpt lat="20.218625" lon="-98.732545">
        <ele>2331.0</ele>
        <time>2019-10-12T17:33:36.890Z</time>
      </trkpt>
      <trkpt lat="20.21859833" lon="-98.732545">
        <ele>2331.0</ele>
        <time>2019-10-12T17:33:37.891Z</time>
      </trkpt>
      <trkpt lat="20.218575" lon="-98.73254333">
        <ele>2331.0</ele>
        <time>2019-10-12T17:33:38.892Z</time>
      </trkpt>
      <trkpt lat="20.218555" lon="-98.73253667">
        <ele>2330.0</ele>
        <time>2019-10-12T17:33:39.893Z</time>
      </trkpt>
      <trkpt lat="20.21853833" lon="-98.732525">
        <ele>2329.0</ele>
        <time>2019-10-12T17:33:40.893Z</time>
      </trkpt>
      <trkpt lat="20.21852167" lon="-98.73251167">
        <ele>2329.0</ele>
        <time>2019-10-12T17:33:41.894Z</time>
      </trkpt>
      <trkpt lat="20.21850667" lon="-98.73249833">
        <ele>2329.0</ele>
        <time>2019-10-12T17:33:42.895Z</time>
      </trkpt>
      <trkpt lat="20.21848333" lon="-98.73248333">
        <ele>2329.0</ele>
        <time>2019-10-12T17:33:43.896Z</time>
      </trkpt>
      <trkpt lat="20.21845833" lon="-98.732465">
        <ele>2329.0</ele>
        <time>2019-10-12T17:33:44.897Z</time>
      </trkpt>
      <trkpt lat="20.21843667" lon="-98.73245167">
        <ele>2329.0</ele>
        <time>2019-10-12T17:33:45.904Z</time>
      </trkpt>
      <trkpt lat="20.21842333" lon="-98.73243333">
        <ele>2330.0</ele>
        <time>2019-10-12T17:33:46.910Z</time>
      </trkpt>
      <trkpt lat="20.21841167" lon="-98.73241167">
        <ele>2330.0</ele>
        <time>2019-10-12T17:33:47.913Z</time>
      </trkpt>
      <trkpt lat="20.21840167" lon="-98.73238667">
        <ele>2330.0</ele>
        <time>2019-10-12T17:33:48.919Z</time>
      </trkpt>
      <trkpt lat="20.218395" lon="-98.73235833">
        <ele>2329.0</ele>
        <time>2019-10-12T17:33:49.924Z</time>
      </trkpt>
      <trkpt lat="20.21839167" lon="-98.73233167">
        <ele>2329.0</ele>
        <time>2019-10-12T17:33:50.930Z</time>
      </trkpt>
      <trkpt lat="20.218395" lon="-98.73231">
        <ele>2329.0</ele>
        <time>2019-10-12T17:33:51.936Z</time>
      </trkpt>
      <trkpt lat="20.21838333" lon="-98.73228333">
        <ele>2330.0</ele>
        <time>2019-10-12T17:33:52.940Z</time>
      </trkpt>
      <trkpt lat="20.21838167" lon="-98.73225833">
        <ele>2330.0</ele>
        <time>2019-10-12T17:33:53.944Z</time>
      </trkpt>
      <trkpt lat="20.218385" lon="-98.73223167">
        <ele>2330.0</ele>
        <time>2019-10-12T17:33:54.946Z</time>
      </trkpt>
      <trkpt lat="20.218385" lon="-98.73220333">
        <ele>2330.0</ele>
        <time>2019-10-12T17:33:55.953Z</time>
      </trkpt>
      <trkpt lat="20.21838167" lon="-98.73217333">
        <ele>2330.0</ele>
        <time>2019-10-12T17:33:56.834Z</time>
      </trkpt>
      <trkpt lat="20.21838" lon="-98.73214667">
        <ele>2330.0</ele>
        <time>2019-10-12T17:33:57.839Z</time>
      </trkpt>
      <trkpt lat="20.21838" lon="-98.73212333">
        <ele>2330.0</ele>
        <time>2019-10-12T17:33:58.845Z</time>
      </trkpt>
      <trkpt lat="20.21838167" lon="-98.73210667">
        <ele>2330.0</ele>
        <time>2019-10-12T17:33:59.846Z</time>
      </trkpt>
      <trkpt lat="20.21838667" lon="-98.73209167">
        <ele>2330.0</ele>
        <time>2019-10-12T17:34:00.847Z</time>
      </trkpt>
      <trkpt lat="20.21838667" lon="-98.73207667">
        <ele>2329.0</ele>
        <time>2019-10-12T17:34:01.847Z</time>
      </trkpt>
      <trkpt lat="20.218385" lon="-98.73206">
        <ele>2329.0</ele>
        <time>2019-10-12T17:34:02.848Z</time>
      </trkpt>
      <trkpt lat="20.21838" lon="-98.73204333">
        <ele>2329.0</ele>
        <time>2019-10-12T17:34:03.848Z</time>
      </trkpt>
      <trkpt lat="20.21837667" lon="-98.73202333">
        <ele>2328.0</ele>
        <time>2019-10-12T17:34:04.850Z</time>
      </trkpt>
      <trkpt lat="20.21836833" lon="-98.73200167">
        <ele>2328.0</ele>
        <time>2019-10-12T17:34:05.851Z</time>
      </trkpt>
      <trkpt lat="20.21835667" lon="-98.73198333">
        <ele>2327.0</ele>
        <time>2019-10-12T17:34:06.851Z</time>
      </trkpt>
      <trkpt lat="20.21834667" lon="-98.73196333">
        <ele>2327.0</ele>
        <time>2019-10-12T17:34:07.852Z</time>
      </trkpt>
      <trkpt lat="20.21833667" lon="-98.73194">
        <ele>2327.0</ele>
        <time>2019-10-12T17:34:08.853Z</time>
      </trkpt>
      <trkpt lat="20.21832833" lon="-98.73191833">
        <ele>2327.0</ele>
        <time>2019-10-12T17:34:09.854Z</time>
      </trkpt>
      <trkpt lat="20.21832167" lon="-98.73189667">
        <ele>2327.0</ele>
        <time>2019-10-12T17:34:10.855Z</time>
      </trkpt>
      <trkpt lat="20.21831167" lon="-98.73187667">
        <ele>2327.0</ele>
        <time>2019-10-12T17:34:11.855Z</time>
      </trkpt>
      <trkpt lat="20.21829833" lon="-98.73185833">
        <ele>2327.0</ele>
        <time>2019-10-12T17:34:12.856Z</time>
      </trkpt>
      <trkpt lat="20.21828667" lon="-98.73184167">
        <ele>2326.0</ele>
        <time>2019-10-12T17:34:13.857Z</time>
      </trkpt>
      <trkpt lat="20.21827667" lon="-98.73182167">
        <ele>2326.0</ele>
        <time>2019-10-12T17:34:14.858Z</time>
      </trkpt>
      <trkpt lat="20.21826167" lon="-98.73179833">
        <ele>2325.0</ele>
        <time>2019-10-12T17:34:15.858Z</time>
      </trkpt>
      <trkpt lat="20.21824667" lon="-98.731775">
        <ele>2325.0</ele>
        <time>2019-10-12T17:34:16.863Z</time>
      </trkpt>
      <trkpt lat="20.21823167" lon="-98.73175333">
        <ele>2325.0</ele>
        <time>2019-10-12T17:34:17.869Z</time>
      </trkpt>
      <trkpt lat="20.21821833" lon="-98.73173833">
        <ele>2325.0</ele>
        <time>2019-10-12T17:34:18.876Z</time>
      </trkpt>
      <trkpt lat="20.218205" lon="-98.73172333">
        <ele>2325.0</ele>
        <time>2019-10-12T17:34:19.878Z</time>
      </trkpt>
      <trkpt lat="20.21819167" lon="-98.73170667">
        <ele>2325.0</ele>
        <time>2019-10-12T17:34:20.879Z</time>
      </trkpt>
      <trkpt lat="20.21818167" lon="-98.73169167">
        <ele>2324.0</ele>
        <time>2019-10-12T17:34:21.885Z</time>
      </trkpt>
      <trkpt lat="20.21816833" lon="-98.731675">
        <ele>2323.0</ele>
        <time>2019-10-12T17:34:22.887Z</time>
      </trkpt>
      <trkpt lat="20.218155" lon="-98.73165667">
        <ele>2323.0</ele>
        <time>2019-10-12T17:34:23.893Z</time>
      </trkpt>
      <trkpt lat="20.21814333" lon="-98.73163667">
        <ele>2323.0</ele>
        <time>2019-10-12T17:34:24.897Z</time>
      </trkpt>
      <trkpt lat="20.21813167" lon="-98.731615">
        <ele>2322.0</ele>
        <time>2019-10-12T17:34:25.901Z</time>
      </trkpt>
      <trkpt lat="20.21811667" lon="-98.73159333">
        <ele>2321.0</ele>
        <time>2019-10-12T17:34:26.908Z</time>
      </trkpt>
      <trkpt lat="20.2181" lon="-98.73156833">
        <ele>2320.0</ele>
        <time>2019-10-12T17:34:27.911Z</time>
      </trkpt>
      <trkpt lat="20.21808667" lon="-98.73154667">
        <ele>2320.0</ele>
        <time>2019-10-12T17:34:28.917Z</time>
      </trkpt>
      <trkpt lat="20.218075" lon="-98.731525">
        <ele>2319.0</ele>
        <time>2019-10-12T17:34:29.924Z</time>
      </trkpt>
      <trkpt lat="20.21807167" lon="-98.73150167">
        <ele>2319.0</ele>
        <time>2019-10-12T17:34:30.930Z</time>
      </trkpt>
      <trkpt lat="20.21807333" lon="-98.73147833">
        <ele>2319.0</ele>
        <time>2019-10-12T17:34:31.933Z</time>
      </trkpt>
      <trkpt lat="20.21807333" lon="-98.73145333">
        <ele>2319.0</ele>
        <time>2019-10-12T17:34:32.935Z</time>
      </trkpt>
      <trkpt lat="20.21806833" lon="-98.73142667">
        <ele>2319.0</ele>
        <time>2019-10-12T17:34:33.935Z</time>
      </trkpt>
      <trkpt lat="20.21805667" lon="-98.73140167">
        <ele>2319.0</ele>
        <time>2019-10-12T17:34:34.940Z</time>
      </trkpt>
      <trkpt lat="20.21804667" lon="-98.731375">
        <ele>2318.0</ele>
        <time>2019-10-12T17:34:35.942Z</time>
      </trkpt>
      <trkpt lat="20.218035" lon="-98.73135">
        <ele>2317.0</ele>
        <time>2019-10-12T17:34:36.948Z</time>
      </trkpt>
      <trkpt lat="20.21802" lon="-98.73132667">
        <ele>2316.0</ele>
        <time>2019-10-12T17:34:37.955Z</time>
      </trkpt>
      <trkpt lat="20.21800833" lon="-98.73129333">
        <ele>2315.0</ele>
        <time>2019-10-12T17:34:38.835Z</time>
      </trkpt>
      <trkpt lat="20.21799833" lon="-98.73126833">
        <ele>2315.0</ele>
        <time>2019-10-12T17:34:39.841Z</time>
      </trkpt>
      <trkpt lat="20.21799" lon="-98.73124667">
        <ele>2315.0</ele>
        <time>2019-10-12T17:34:40.847Z</time>
      </trkpt>
      <trkpt lat="20.21798167" lon="-98.73122">
        <ele>2315.0</ele>
        <time>2019-10-12T17:34:41.850Z</time>
      </trkpt>
      <trkpt lat="20.21797667" lon="-98.73119167">
        <ele>2315.0</ele>
        <time>2019-10-12T17:34:42.852Z</time>
      </trkpt>
      <trkpt lat="20.21796667" lon="-98.73116167">
        <ele>2315.0</ele>
        <time>2019-10-12T17:34:43.861Z</time>
      </trkpt>
      <trkpt lat="20.217965" lon="-98.73113">
        <ele>2315.0</ele>
        <time>2019-10-12T17:34:44.866Z</time>
      </trkpt>
      <trkpt lat="20.217965" lon="-98.7311">
        <ele>2315.0</ele>
        <time>2019-10-12T17:34:45.871Z</time>
      </trkpt>
      <trkpt lat="20.21795667" lon="-98.73107333">
        <ele>2315.0</ele>
        <time>2019-10-12T17:34:46.877Z</time>
      </trkpt>
      <trkpt lat="20.21795" lon="-98.731045">
        <ele>2315.0</ele>
        <time>2019-10-12T17:34:47.882Z</time>
      </trkpt>
      <trkpt lat="20.217945" lon="-98.73101333">
        <ele>2315.0</ele>
        <time>2019-10-12T17:34:48.885Z</time>
      </trkpt>
      <trkpt lat="20.21794167" lon="-98.73098667">
        <ele>2315.0</ele>
        <time>2019-10-12T17:34:49.886Z</time>
      </trkpt>
      <trkpt lat="20.21793833" lon="-98.73096833">
        <ele>2315.0</ele>
        <time>2019-10-12T17:34:50.886Z</time>
      </trkpt>
      <trkpt lat="20.21794" lon="-98.730945">
        <ele>2316.0</ele>
        <time>2019-10-12T17:34:51.887Z</time>
      </trkpt>
      <trkpt lat="20.21794833" lon="-98.73092167">
        <ele>2317.0</ele>
        <time>2019-10-12T17:34:52.887Z</time>
      </trkpt>
      <trkpt lat="20.21795667" lon="-98.730905">
        <ele>2317.0</ele>
        <time>2019-10-12T17:34:53.889Z</time>
      </trkpt>
      <trkpt lat="20.21795667" lon="-98.730885">
        <ele>2317.0</ele>
        <time>2019-10-12T17:34:54.889Z</time>
      </trkpt>
      <trkpt lat="20.217955" lon="-98.730865">
        <ele>2318.0</ele>
        <time>2019-10-12T17:34:55.890Z</time>
      </trkpt>
      <trkpt lat="20.21795167" lon="-98.73084333">
        <ele>2319.0</ele>
        <time>2019-10-12T17:34:56.891Z</time>
      </trkpt>
      <trkpt lat="20.21794667" lon="-98.73082167">
        <ele>2320.0</ele>
        <time>2019-10-12T17:34:57.892Z</time>
      </trkpt>
      <trkpt lat="20.21793667" lon="-98.73079833">
        <ele>2321.0</ele>
        <time>2019-10-12T17:34:58.893Z</time>
      </trkpt>
      <trkpt lat="20.21792333" lon="-98.73077667">
        <ele>2321.0</ele>
        <time>2019-10-12T17:34:59.894Z</time>
      </trkpt>
      <trkpt lat="20.217915" lon="-98.73074833">
        <ele>2322.0</ele>
        <time>2019-10-12T17:35:00.894Z</time>
      </trkpt>
      <trkpt lat="20.21790833" lon="-98.73071833">
        <ele>2322.0</ele>
        <time>2019-10-12T17:35:01.895Z</time>
      </trkpt>
      <trkpt lat="20.217905" lon="-98.73068167">
        <ele>2321.0</ele>
        <time>2019-10-12T17:35:02.895Z</time>
      </trkpt>
      <trkpt lat="20.21790167" lon="-98.730645">
        <ele>2320.0</ele>
        <time>2019-10-12T17:35:03.896Z</time>
      </trkpt>
      <trkpt lat="20.21789167" lon="-98.73061">
        <ele>2320.0</ele>
        <time>2019-10-12T17:35:04.898Z</time>
      </trkpt>
      <trkpt lat="20.21788333" lon="-98.73057667">
        <ele>2319.0</ele>
        <time>2019-10-12T17:35:05.898Z</time>
      </trkpt>
      <trkpt lat="20.21787667" lon="-98.730545">
        <ele>2319.0</ele>
        <time>2019-10-12T17:35:06.899Z</time>
      </trkpt>
      <trkpt lat="20.217875" lon="-98.73051333">
        <ele>2319.0</ele>
        <time>2019-10-12T17:35:07.899Z</time>
      </trkpt>
      <trkpt lat="20.21787333" lon="-98.73048333">
        <ele>2319.0</ele>
        <time>2019-10-12T17:35:08.900Z</time>
      </trkpt>
      <trkpt lat="20.21787333" lon="-98.73045833">
        <ele>2319.0</ele>
        <time>2019-10-12T17:35:09.902Z</time>
      </trkpt>
      <trkpt lat="20.21787167" lon="-98.73043667">
        <ele>2320.0</ele>
        <time>2019-10-12T17:35:10.903Z</time>
      </trkpt>
      <trkpt lat="20.21786833" lon="-98.73041167">
        <ele>2320.0</ele>
        <time>2019-10-12T17:35:11.904Z</time>
      </trkpt>
      <trkpt lat="20.21786167" lon="-98.73038667">
        <ele>2320.0</ele>
        <time>2019-10-12T17:35:12.905Z</time>
      </trkpt>
      <trkpt lat="20.21785" lon="-98.73036167">
        <ele>2321.0</ele>
        <time>2019-10-12T17:35:13.905Z</time>
      </trkpt>
      <trkpt lat="20.21784167" lon="-98.73033333">
        <ele>2320.0</ele>
        <time>2019-10-12T17:35:14.906Z</time>
      </trkpt>
      <trkpt lat="20.217835" lon="-98.73030333">
        <ele>2320.0</ele>
        <time>2019-10-12T17:35:15.907Z</time>
      </trkpt>
      <trkpt lat="20.21783333" lon="-98.73027667">
        <ele>2320.0</ele>
        <time>2019-10-12T17:35:16.907Z</time>
      </trkpt>
      <trkpt lat="20.21783333" lon="-98.73025167">
        <ele>2320.0</ele>
        <time>2019-10-12T17:35:17.908Z</time>
      </trkpt>
      <trkpt lat="20.21783333" lon="-98.73023167">
        <ele>2320.0</ele>
        <time>2019-10-12T17:35:18.908Z</time>
      </trkpt>
      <trkpt lat="20.21783167" lon="-98.73021167">
        <ele>2321.0</ele>
        <time>2019-10-12T17:35:19.908Z</time>
      </trkpt>
      <trkpt lat="20.21781667" lon="-98.73019333">
        <ele>2321.0</ele>
        <time>2019-10-12T17:35:20.909Z</time>
      </trkpt>
      <trkpt lat="20.21781167" lon="-98.73017667">
        <ele>2321.0</ele>
        <time>2019-10-12T17:35:21.909Z</time>
      </trkpt>
      <trkpt lat="20.21780167" lon="-98.73016333">
        <ele>2321.0</ele>
        <time>2019-10-12T17:35:22.910Z</time>
      </trkpt>
      <trkpt lat="20.217795" lon="-98.73014833">
        <ele>2322.0</ele>
        <time>2019-10-12T17:35:23.910Z</time>
      </trkpt>
      <trkpt lat="20.21778167" lon="-98.73013333">
        <ele>2321.0</ele>
        <time>2019-10-12T17:35:24.910Z</time>
      </trkpt>
      <trkpt lat="20.217765" lon="-98.73011667">
        <ele>2320.0</ele>
        <time>2019-10-12T17:35:25.911Z</time>
      </trkpt>
      <trkpt lat="20.21775667" lon="-98.73010167">
        <ele>2319.0</ele>
        <time>2019-10-12T17:35:26.913Z</time>
      </trkpt>
      <trkpt lat="20.21774833" lon="-98.73009333">
        <ele>2318.0</ele>
        <time>2019-10-12T17:35:27.920Z</time>
      </trkpt>
      <trkpt lat="20.21773833" lon="-98.73007833">
        <ele>2318.0</ele>
        <time>2019-10-12T17:35:28.924Z</time>
      </trkpt>
      <trkpt lat="20.21773" lon="-98.73006">
        <ele>2318.0</ele>
        <time>2019-10-12T17:35:29.931Z</time>
      </trkpt>
      <trkpt lat="20.21771833" lon="-98.73004333">
        <ele>2319.0</ele>
        <time>2019-10-12T17:35:30.933Z</time>
      </trkpt>
      <trkpt lat="20.21770833" lon="-98.73002">
        <ele>2318.0</ele>
        <time>2019-10-12T17:35:31.934Z</time>
      </trkpt>
      <trkpt lat="20.2177" lon="-98.73">
        <ele>2318.0</ele>
        <time>2019-10-12T17:35:32.941Z</time>
      </trkpt>
      <trkpt lat="20.21769" lon="-98.72997667">
        <ele>2317.0</ele>
        <time>2019-10-12T17:35:33.945Z</time>
      </trkpt>
      <trkpt lat="20.21768" lon="-98.72995333">
        <ele>2317.0</ele>
        <time>2019-10-12T17:35:34.950Z</time>
      </trkpt>
      <trkpt lat="20.21767167" lon="-98.72993333">
        <ele>2317.0</ele>
        <time>2019-10-12T17:35:35.832Z</time>
      </trkpt>
      <trkpt lat="20.21765667" lon="-98.72991667">
        <ele>2317.0</ele>
        <time>2019-10-12T17:35:36.838Z</time>
      </trkpt>
      <trkpt lat="20.21764" lon="-98.72990167">
        <ele>2318.0</ele>
        <time>2019-10-12T17:35:37.843Z</time>
      </trkpt>
      <trkpt lat="20.21762833" lon="-98.72988667">
        <ele>2318.0</ele>
        <time>2019-10-12T17:35:38.850Z</time>
      </trkpt>
      <trkpt lat="20.217615" lon="-98.729875">
        <ele>2318.0</ele>
        <time>2019-10-12T17:35:39.851Z</time>
      </trkpt>
      <trkpt lat="20.217605" lon="-98.72986333">
        <ele>2319.0</ele>
        <time>2019-10-12T17:35:40.851Z</time>
      </trkpt>
      <trkpt lat="20.217595" lon="-98.72985333">
        <ele>2319.0</ele>
        <time>2019-10-12T17:35:41.852Z</time>
      </trkpt>
      <trkpt lat="20.21758" lon="-98.72984667">
        <ele>2320.0</ele>
        <time>2019-10-12T17:35:42.852Z</time>
      </trkpt>
      <trkpt lat="20.21756333" lon="-98.72984">
        <ele>2320.0</ele>
        <time>2019-10-12T17:35:43.852Z</time>
      </trkpt>
      <trkpt lat="20.21754833" lon="-98.72983833">
        <ele>2320.0</ele>
        <time>2019-10-12T17:35:44.852Z</time>
      </trkpt>
      <trkpt lat="20.21753" lon="-98.72984">
        <ele>2321.0</ele>
        <time>2019-10-12T17:35:45.853Z</time>
      </trkpt>
      <trkpt lat="20.21750667" lon="-98.729845">
        <ele>2321.0</ele>
        <time>2019-10-12T17:35:46.853Z</time>
      </trkpt>
      <trkpt lat="20.21748833" lon="-98.729845">
        <ele>2321.0</ele>
        <time>2019-10-12T17:35:47.853Z</time>
      </trkpt>
      <trkpt lat="20.21747" lon="-98.72984333">
        <ele>2320.0</ele>
        <time>2019-10-12T17:35:48.854Z</time>
      </trkpt>
      <trkpt lat="20.21745333" lon="-98.72984833">
        <ele>2320.0</ele>
        <time>2019-10-12T17:35:49.854Z</time>
      </trkpt>
      <trkpt lat="20.21743167" lon="-98.72985">
        <ele>2321.0</ele>
        <time>2019-10-12T17:35:50.854Z</time>
      </trkpt>
      <trkpt lat="20.21740667" lon="-98.72985167">
        <ele>2320.0</ele>
        <time>2019-10-12T17:35:51.855Z</time>
      </trkpt>
      <trkpt lat="20.217385" lon="-98.72985167">
        <ele>2320.0</ele>
        <time>2019-10-12T17:35:52.855Z</time>
      </trkpt>
      <trkpt lat="20.21737167" lon="-98.72985">
        <ele>2320.0</ele>
        <time>2019-10-12T17:35:53.855Z</time>
      </trkpt>
      <trkpt lat="20.21736333" lon="-98.729845">
        <ele>2320.0</ele>
        <time>2019-10-12T17:35:54.862Z</time>
      </trkpt>
      <trkpt lat="20.21734833" lon="-98.72984">
        <ele>2321.0</ele>
        <time>2019-10-12T17:35:55.866Z</time>
      </trkpt>
      <trkpt lat="20.21733" lon="-98.72983167">
        <ele>2321.0</ele>
        <time>2019-10-12T17:35:56.869Z</time>
      </trkpt>
      <trkpt lat="20.21731167" lon="-98.72982167">
        <ele>2322.0</ele>
        <time>2019-10-12T17:35:57.874Z</time>
      </trkpt>
      <trkpt lat="20.21729" lon="-98.72981167">
        <ele>2321.0</ele>
        <time>2019-10-12T17:35:58.878Z</time>
      </trkpt>
      <trkpt lat="20.21727833" lon="-98.72980667">
        <ele>2322.0</ele>
        <time>2019-10-12T17:35:59.883Z</time>
      </trkpt>
      <trkpt lat="20.217265" lon="-98.729805">
        <ele>2323.0</ele>
        <time>2019-10-12T17:36:00.889Z</time>
      </trkpt>
      <trkpt lat="20.21725167" lon="-98.729805">
        <ele>2323.0</ele>
        <time>2019-10-12T17:36:01.891Z</time>
      </trkpt>
      <trkpt lat="20.217235" lon="-98.729805">
        <ele>2323.0</ele>
        <time>2019-10-12T17:36:02.896Z</time>
      </trkpt>
      <trkpt lat="20.21722" lon="-98.72980667">
        <ele>2323.0</ele>
        <time>2019-10-12T17:36:03.902Z</time>
      </trkpt>
      <trkpt lat="20.21720167" lon="-98.72980667">
        <ele>2322.0</ele>
        <time>2019-10-12T17:36:04.905Z</time>
      </trkpt>
      <trkpt lat="20.21718167" lon="-98.729805">
        <ele>2322.0</ele>
        <time>2019-10-12T17:36:05.912Z</time>
      </trkpt>
      <trkpt lat="20.217165" lon="-98.72980833">
        <ele>2322.0</ele>
        <time>2019-10-12T17:36:06.919Z</time>
      </trkpt>
      <trkpt lat="20.21714667" lon="-98.72981167">
        <ele>2322.0</ele>
        <time>2019-10-12T17:36:07.922Z</time>
      </trkpt>
      <trkpt lat="20.21713333" lon="-98.729815">
        <ele>2322.0</ele>
        <time>2019-10-12T17:36:08.923Z</time>
      </trkpt>
      <trkpt lat="20.217125" lon="-98.72982333">
        <ele>2322.0</ele>
        <time>2019-10-12T17:36:09.928Z</time>
      </trkpt>
      <trkpt lat="20.21712" lon="-98.72983667">
        <ele>2322.0</ele>
        <time>2019-10-12T17:36:10.934Z</time>
      </trkpt>
      <trkpt lat="20.21712" lon="-98.72985333">
        <ele>2323.0</ele>
        <time>2019-10-12T17:36:11.941Z</time>
      </trkpt>
      <trkpt lat="20.217125" lon="-98.72986667">
        <ele>2324.0</ele>
        <time>2019-10-12T17:36:12.946Z</time>
      </trkpt>
      <trkpt lat="20.21712667" lon="-98.72987833">
        <ele>2325.0</ele>
        <time>2019-10-12T17:36:13.948Z</time>
      </trkpt>
      <trkpt lat="20.21713167" lon="-98.72988667">
        <ele>2325.0</ele>
        <time>2019-10-12T17:36:14.951Z</time>
      </trkpt>
      <trkpt lat="20.21713667" lon="-98.72989333">
        <ele>2325.0</ele>
        <time>2019-10-12T17:36:15.830Z</time>
      </trkpt>
      <trkpt lat="20.21713833" lon="-98.72990167">
        <ele>2326.0</ele>
        <time>2019-10-12T17:36:16.836Z</time>
      </trkpt>
      <trkpt lat="20.217145" lon="-98.72991">
        <ele>2325.0</ele>
        <time>2019-10-12T17:36:17.841Z</time>
      </trkpt>
      <trkpt lat="20.21715" lon="-98.72992333">
        <ele>2326.0</ele>
        <time>2019-10-12T17:36:18.847Z</time>
      </trkpt>
      <trkpt lat="20.21715333" lon="-98.72993667">
        <ele>2326.0</ele>
        <time>2019-10-12T17:36:19.853Z</time>
      </trkpt>
      <trkpt lat="20.21715333" lon="-98.72994833">
        <ele>2326.0</ele>
        <time>2019-10-12T17:36:20.858Z</time>
      </trkpt>
      <trkpt lat="20.21715" lon="-98.72995833">
        <ele>2326.0</ele>
        <time>2019-10-12T17:36:21.864Z</time>
      </trkpt>
      <trkpt lat="20.21714833" lon="-98.72996667">
        <ele>2326.0</ele>
        <time>2019-10-12T17:36:22.865Z</time>
      </trkpt>
      <trkpt lat="20.21714833" lon="-98.72997667">
        <ele>2327.0</ele>
        <time>2019-10-12T17:36:23.865Z</time>
      </trkpt>
      <trkpt lat="20.21714833" lon="-98.729985">
        <ele>2327.0</ele>
        <time>2019-10-12T17:36:24.866Z</time>
      </trkpt>
      <trkpt lat="20.21715167" lon="-98.72999667">
        <ele>2327.0</ele>
        <time>2019-10-12T17:36:25.872Z</time>
      </trkpt>
      <trkpt lat="20.21715333" lon="-98.73000667">
        <ele>2327.0</ele>
        <time>2019-10-12T17:36:26.876Z</time>
      </trkpt>
      <trkpt lat="20.217155" lon="-98.73001667">
        <ele>2326.0</ele>
        <time>2019-10-12T17:36:27.882Z</time>
      </trkpt>
      <trkpt lat="20.217155" lon="-98.730025">
        <ele>2326.0</ele>
        <time>2019-10-12T17:36:28.888Z</time>
      </trkpt>
      <trkpt lat="20.21715833" lon="-98.73003667">
        <ele>2327.0</ele>
        <time>2019-10-12T17:36:29.889Z</time>
      </trkpt>
      <trkpt lat="20.21716" lon="-98.73004667">
        <ele>2327.0</ele>
        <time>2019-10-12T17:36:30.894Z</time>
      </trkpt>
      <trkpt lat="20.21715833" lon="-98.73005667">
        <ele>2327.0</ele>
        <time>2019-10-12T17:36:31.899Z</time>
      </trkpt>
      <trkpt lat="20.21715667" lon="-98.73006833">
        <ele>2327.0</ele>
        <time>2019-10-12T17:36:32.901Z</time>
      </trkpt>
      <trkpt lat="20.21715667" lon="-98.73007667">
        <ele>2328.0</ele>
        <time>2019-10-12T17:36:33.907Z</time>
      </trkpt>
      <trkpt lat="20.21715667" lon="-98.73008833">
        <ele>2328.0</ele>
        <time>2019-10-12T17:36:34.914Z</time>
      </trkpt>
      <trkpt lat="20.217155" lon="-98.73009667">
        <ele>2327.0</ele>
        <time>2019-10-12T17:36:35.916Z</time>
      </trkpt>
      <trkpt lat="20.21715333" lon="-98.730105">
        <ele>2327.0</ele>
        <time>2019-10-12T17:36:36.918Z</time>
      </trkpt>
      <trkpt lat="20.217155" lon="-98.73011">
        <ele>2327.0</ele>
        <time>2019-10-12T17:36:37.922Z</time>
      </trkpt>
      <trkpt lat="20.217155" lon="-98.73011667">
        <ele>2327.0</ele>
        <time>2019-10-12T17:36:38.928Z</time>
      </trkpt>
      <trkpt lat="20.21715167" lon="-98.730125">
        <ele>2327.0</ele>
        <time>2019-10-12T17:36:39.933Z</time>
      </trkpt>
      <trkpt lat="20.21715333" lon="-98.730135">
        <ele>2327.0</ele>
        <time>2019-10-12T17:36:40.933Z</time>
      </trkpt>
      <trkpt lat="20.217155" lon="-98.73014667">
        <ele>2328.0</ele>
        <time>2019-10-12T17:36:41.933Z</time>
      </trkpt>
      <trkpt lat="20.21715333" lon="-98.73016">
        <ele>2328.0</ele>
        <time>2019-10-12T17:36:42.934Z</time>
      </trkpt>
      <trkpt lat="20.21715333" lon="-98.73017167">
        <ele>2327.0</ele>
        <time>2019-10-12T17:36:43.934Z</time>
      </trkpt>
      <trkpt lat="20.21714833" lon="-98.73018333">
        <ele>2327.0</ele>
        <time>2019-10-12T17:36:44.934Z</time>
      </trkpt>
      <trkpt lat="20.21714667" lon="-98.73019167">
        <ele>2327.0</ele>
        <time>2019-10-12T17:36:45.935Z</time>
      </trkpt>
      <trkpt lat="20.21714833" lon="-98.73019667">
        <ele>2327.0</ele>
        <time>2019-10-12T17:36:46.935Z</time>
      </trkpt>
      <trkpt lat="20.21715167" lon="-98.7302">
        <ele>2327.0</ele>
        <time>2019-10-12T17:36:47.936Z</time>
      </trkpt>
      <trkpt lat="20.21715333" lon="-98.73020167">
        <ele>2327.0</ele>
        <time>2019-10-12T17:36:48.943Z</time>
      </trkpt>
      <trkpt lat="20.21715" lon="-98.7302">
        <ele>2328.0</ele>
        <time>2019-10-12T17:36:49.950Z</time>
      </trkpt>
      <trkpt lat="20.21714833" lon="-98.73019667">
        <ele>2328.0</ele>
        <time>2019-10-12T17:36:50.952Z</time>
      </trkpt>
      <trkpt lat="20.21715" lon="-98.7302">
        <ele>2328.0</ele>
        <time>2019-10-12T17:36:51.831Z</time>
      </trkpt>
      <trkpt lat="20.21715" lon="-98.73020333">
        <ele>2327.0</ele>
        <time>2019-10-12T17:36:52.836Z</time>
      </trkpt>
      <trkpt lat="20.21715167" lon="-98.73021167">
        <ele>2327.0</ele>
        <time>2019-10-12T17:36:53.840Z</time>
      </trkpt>
      <trkpt lat="20.217155" lon="-98.73021833">
        <ele>2327.0</ele>
        <time>2019-10-12T17:36:54.846Z</time>
      </trkpt>
      <trkpt lat="20.21716167" lon="-98.73022667">
        <ele>2328.0</ele>
        <time>2019-10-12T17:36:55.847Z</time>
      </trkpt>
      <trkpt lat="20.21716667" lon="-98.73023667">
        <ele>2328.0</ele>
        <time>2019-10-12T17:36:56.852Z</time>
      </trkpt>
      <trkpt lat="20.21717333" lon="-98.73024667">
        <ele>2328.0</ele>
        <time>2019-10-12T17:36:57.858Z</time>
      </trkpt>
      <trkpt lat="20.21718" lon="-98.73025667">
        <ele>2329.0</ele>
        <time>2019-10-12T17:36:58.860Z</time>
      </trkpt>
      <trkpt lat="20.21718833" lon="-98.73026667">
        <ele>2329.0</ele>
        <time>2019-10-12T17:36:59.862Z</time>
      </trkpt>
      <trkpt lat="20.21719667" lon="-98.73027833">
        <ele>2330.0</ele>
        <time>2019-10-12T17:37:00.868Z</time>
      </trkpt>
      <trkpt lat="20.21720333" lon="-98.73029">
        <ele>2331.0</ele>
        <time>2019-10-12T17:37:01.873Z</time>
      </trkpt>
      <trkpt lat="20.21721" lon="-98.73030167">
        <ele>2332.0</ele>
        <time>2019-10-12T17:37:02.878Z</time>
      </trkpt>
      <trkpt lat="20.21721333" lon="-98.73031667">
        <ele>2333.0</ele>
        <time>2019-10-12T17:37:03.879Z</time>
      </trkpt>
      <trkpt lat="20.217215" lon="-98.73033">
        <ele>2333.0</ele>
        <time>2019-10-12T17:37:04.879Z</time>
      </trkpt>
      <trkpt lat="20.21721667" lon="-98.730345">
        <ele>2333.0</ele>
        <time>2019-10-12T17:37:05.879Z</time>
      </trkpt>
      <trkpt lat="20.21721667" lon="-98.73035833">
        <ele>2333.0</ele>
        <time>2019-10-12T17:37:06.883Z</time>
      </trkpt>
      <trkpt lat="20.21722" lon="-98.73037333">
        <ele>2333.0</ele>
        <time>2019-10-12T17:37:07.889Z</time>
      </trkpt>
      <trkpt lat="20.21722333" lon="-98.73038667">
        <ele>2333.0</ele>
        <time>2019-10-12T17:37:08.892Z</time>
      </trkpt>
      <trkpt lat="20.21722333" lon="-98.73039833">
        <ele>2333.0</ele>
        <time>2019-10-12T17:37:09.899Z</time>
      </trkpt>
      <trkpt lat="20.217225" lon="-98.73040833">
        <ele>2333.0</ele>
        <time>2019-10-12T17:37:10.902Z</time>
      </trkpt>
      <trkpt lat="20.217225" lon="-98.73041833">
        <ele>2333.0</ele>
        <time>2019-10-12T17:37:11.902Z</time>
      </trkpt>
      <trkpt lat="20.21722833" lon="-98.73043">
        <ele>2333.0</ele>
        <time>2019-10-12T17:37:12.905Z</time>
      </trkpt>
      <trkpt lat="20.21722833" lon="-98.73044167">
        <ele>2333.0</ele>
        <time>2019-10-12T17:37:13.907Z</time>
      </trkpt>
      <trkpt lat="20.21722833" lon="-98.73045333">
        <ele>2333.0</ele>
        <time>2019-10-12T17:37:14.914Z</time>
      </trkpt>
      <trkpt lat="20.21722667" lon="-98.730465">
        <ele>2333.0</ele>
        <time>2019-10-12T17:37:15.921Z</time>
      </trkpt>
      <trkpt lat="20.21722333" lon="-98.730475">
        <ele>2332.0</ele>
        <time>2019-10-12T17:37:16.923Z</time>
      </trkpt>
      <trkpt lat="20.21722" lon="-98.73048333">
        <ele>2332.0</ele>
        <time>2019-10-12T17:37:17.930Z</time>
      </trkpt>
      <trkpt lat="20.217215" lon="-98.73049167">
        <ele>2332.0</ele>
        <time>2019-10-12T17:37:18.936Z</time>
      </trkpt>
      <trkpt lat="20.21721333" lon="-98.73050167">
        <ele>2332.0</ele>
        <time>2019-10-12T17:37:19.939Z</time>
      </trkpt>
      <trkpt lat="20.21721" lon="-98.730515">
        <ele>2332.0</ele>
        <time>2019-10-12T17:37:20.945Z</time>
      </trkpt>
      <trkpt lat="20.21720833" lon="-98.73053">
        <ele>2332.0</ele>
        <time>2019-10-12T17:37:21.947Z</time>
      </trkpt>
      <trkpt lat="20.21719833" lon="-98.73054167">
        <ele>2332.0</ele>
        <time>2019-10-12T17:37:22.947Z</time>
      </trkpt>
      <trkpt lat="20.21719333" lon="-98.73055167">
        <ele>2332.0</ele>
        <time>2019-10-12T17:37:23.948Z</time>
      </trkpt>
      <trkpt lat="20.217195" lon="-98.730565">
        <ele>2333.0</ele>
        <time>2019-10-12T17:37:24.948Z</time>
      </trkpt>
      <trkpt lat="20.21718833" lon="-98.73058167">
        <ele>2334.0</ele>
        <time>2019-10-12T17:37:25.948Z</time>
      </trkpt>
      <trkpt lat="20.217185" lon="-98.73060167">
        <ele>2334.0</ele>
        <time>2019-10-12T17:37:26.949Z</time>
      </trkpt>
      <trkpt lat="20.21717667" lon="-98.73061333">
        <ele>2334.0</ele>
        <time>2019-10-12T17:37:27.949Z</time>
      </trkpt>
      <trkpt lat="20.21717" lon="-98.730625">
        <ele>2334.0</ele>
        <time>2019-10-12T17:37:28.949Z</time>
      </trkpt>
      <trkpt lat="20.21716167" lon="-98.730635">
        <ele>2334.0</ele>
        <time>2019-10-12T17:37:29.950Z</time>
      </trkpt>
      <trkpt lat="20.21715167" lon="-98.73064833">
        <ele>2334.0</ele>
        <time>2019-10-12T17:37:30.950Z</time>
      </trkpt>
      <trkpt lat="20.21715" lon="-98.73065667">
        <ele>2334.0</ele>
        <time>2019-10-12T17:37:31.950Z</time>
      </trkpt>
      <trkpt lat="20.21715" lon="-98.73066167">
        <ele>2334.0</ele>
        <time>2019-10-12T17:37:32.954Z</time>
      </trkpt>
      <trkpt lat="20.21714167" lon="-98.73067833">
        <ele>2335.0</ele>
        <time>2019-10-12T17:37:33.833Z</time>
      </trkpt>
      <trkpt lat="20.21713667" lon="-98.730695">
        <ele>2335.0</ele>
        <time>2019-10-12T17:37:34.838Z</time>
      </trkpt>
      <trkpt lat="20.21713333" lon="-98.73071333">
        <ele>2336.0</ele>
        <time>2019-10-12T17:37:35.845Z</time>
      </trkpt>
      <trkpt lat="20.21712667" lon="-98.730725">
        <ele>2335.0</ele>
        <time>2019-10-12T17:37:36.847Z</time>
      </trkpt>
      <trkpt lat="20.21712" lon="-98.730735">
        <ele>2335.0</ele>
        <time>2019-10-12T17:37:37.848Z</time>
      </trkpt>
      <trkpt lat="20.217115" lon="-98.730745">
        <ele>2336.0</ele>
        <time>2019-10-12T17:37:38.849Z</time>
      </trkpt>
      <trkpt lat="20.21710667" lon="-98.73075667">
        <ele>2335.0</ele>
        <time>2019-10-12T17:37:39.855Z</time>
      </trkpt>
      <trkpt lat="20.2171" lon="-98.73076833">
        <ele>2335.0</ele>
        <time>2019-10-12T17:37:40.856Z</time>
      </trkpt>
      <trkpt lat="20.21709333" lon="-98.73078">
        <ele>2335.0</ele>
        <time>2019-10-12T17:37:41.860Z</time>
      </trkpt>
      <trkpt lat="20.21708667" lon="-98.73079667">
        <ele>2335.0</ele>
        <time>2019-10-12T17:37:42.866Z</time>
      </trkpt>
      <trkpt lat="20.217085" lon="-98.73081">
        <ele>2336.0</ele>
        <time>2019-10-12T17:37:43.869Z</time>
      </trkpt>
      <trkpt lat="20.21708" lon="-98.73082667">
        <ele>2336.0</ele>
        <time>2019-10-12T17:37:44.875Z</time>
      </trkpt>
      <trkpt lat="20.217075" lon="-98.73084">
        <ele>2336.0</ele>
        <time>2019-10-12T17:37:45.880Z</time>
      </trkpt>
      <trkpt lat="20.21707167" lon="-98.73085667">
        <ele>2336.0</ele>
        <time>2019-10-12T17:37:46.884Z</time>
      </trkpt>
      <trkpt lat="20.21706333" lon="-98.730865">
        <ele>2337.0</ele>
        <time>2019-10-12T17:37:47.890Z</time>
      </trkpt>
      <trkpt lat="20.21705667" lon="-98.73086833">
        <ele>2337.0</ele>
        <time>2019-10-12T17:37:48.893Z</time>
      </trkpt>
      <trkpt lat="20.21704833" lon="-98.73087167">
        <ele>2337.0</ele>
        <time>2019-10-12T17:37:49.893Z</time>
      </trkpt>
      <trkpt lat="20.21704" lon="-98.73087167">
        <ele>2337.0</ele>
        <time>2019-10-12T17:37:50.893Z</time>
      </trkpt>
      <trkpt lat="20.21703167" lon="-98.73086667">
        <ele>2337.0</ele>
        <time>2019-10-12T17:37:51.897Z</time>
      </trkpt>
      <trkpt lat="20.21702333" lon="-98.73086667">
        <ele>2337.0</ele>
        <time>2019-10-12T17:37:52.903Z</time>
      </trkpt>
      <trkpt lat="20.21701333" lon="-98.73087">
        <ele>2337.0</ele>
        <time>2019-10-12T17:37:53.905Z</time>
      </trkpt>
      <trkpt lat="20.217005" lon="-98.730875">
        <ele>2338.0</ele>
        <time>2019-10-12T17:37:54.912Z</time>
      </trkpt>
      <trkpt lat="20.216995" lon="-98.73088167">
        <ele>2338.0</ele>
        <time>2019-10-12T17:37:55.917Z</time>
      </trkpt>
      <trkpt lat="20.216985" lon="-98.73088833">
        <ele>2338.0</ele>
        <time>2019-10-12T17:37:56.917Z</time>
      </trkpt>
      <trkpt lat="20.216975" lon="-98.73089167">
        <ele>2337.0</ele>
        <time>2019-10-12T17:37:57.919Z</time>
      </trkpt>
      <trkpt lat="20.21696167" lon="-98.730895">
        <ele>2337.0</ele>
        <time>2019-10-12T17:37:58.924Z</time>
      </trkpt>
      <trkpt lat="20.21694667" lon="-98.730895">
        <ele>2336.0</ele>
        <time>2019-10-12T17:37:59.927Z</time>
      </trkpt>
      <trkpt lat="20.21693333" lon="-98.73089667">
        <ele>2336.0</ele>
        <time>2019-10-12T17:38:00.928Z</time>
      </trkpt>
      <trkpt lat="20.21691833" lon="-98.7309">
        <ele>2336.0</ele>
        <time>2019-10-12T17:38:01.935Z</time>
      </trkpt>
      <trkpt lat="20.21690833" lon="-98.73090333">
        <ele>2336.0</ele>
        <time>2019-10-12T17:38:02.944Z</time>
      </trkpt>
      <trkpt lat="20.21689833" lon="-98.730905">
        <ele>2336.0</ele>
        <time>2019-10-12T17:38:03.946Z</time>
      </trkpt>
      <trkpt lat="20.21688833" lon="-98.730905">
        <ele>2336.0</ele>
        <time>2019-10-12T17:38:04.953Z</time>
      </trkpt>
      <trkpt lat="20.21687833" lon="-98.730905">
        <ele>2335.0</ele>
        <time>2019-10-12T17:38:05.831Z</time>
      </trkpt>
      <trkpt lat="20.21686833" lon="-98.73090667">
        <ele>2335.0</ele>
        <time>2019-10-12T17:38:06.836Z</time>
      </trkpt>
      <trkpt lat="20.21685833" lon="-98.73090833">
        <ele>2335.0</ele>
        <time>2019-10-12T17:38:07.837Z</time>
      </trkpt>
      <trkpt lat="20.21685" lon="-98.73091">
        <ele>2336.0</ele>
        <time>2019-10-12T17:38:08.837Z</time>
      </trkpt>
      <trkpt lat="20.21683833" lon="-98.73091">
        <ele>2336.0</ele>
        <time>2019-10-12T17:38:09.837Z</time>
      </trkpt>
      <trkpt lat="20.21682833" lon="-98.73091167">
        <ele>2336.0</ele>
        <time>2019-10-12T17:38:10.837Z</time>
      </trkpt>
      <trkpt lat="20.21682" lon="-98.73091667">
        <ele>2336.0</ele>
        <time>2019-10-12T17:38:11.838Z</time>
      </trkpt>
      <trkpt lat="20.21682167" lon="-98.73092167">
        <ele>2337.0</ele>
        <time>2019-10-12T17:38:12.838Z</time>
      </trkpt>
      <trkpt lat="20.21682333" lon="-98.73092833">
        <ele>2337.0</ele>
        <time>2019-10-12T17:38:13.838Z</time>
      </trkpt>
      <trkpt lat="20.21682167" lon="-98.730935">
        <ele>2337.0</ele>
        <time>2019-10-12T17:38:14.838Z</time>
      </trkpt>
      <trkpt lat="20.21681833" lon="-98.73093833">
        <ele>2337.0</ele>
        <time>2019-10-12T17:38:15.838Z</time>
      </trkpt>
      <trkpt lat="20.21681667" lon="-98.73094333">
        <ele>2337.0</ele>
        <time>2019-10-12T17:38:16.838Z</time>
      </trkpt>
      <trkpt lat="20.21681333" lon="-98.73095167">
        <ele>2337.0</ele>
        <time>2019-10-12T17:38:17.838Z</time>
      </trkpt>
      <trkpt lat="20.21681333" lon="-98.73095167">
        <ele>2338.0</ele>
        <time>2019-10-12T17:38:18.838Z</time>
      </trkpt>
      <trkpt lat="20.21681167" lon="-98.73095333">
        <ele>2338.0</ele>
        <time>2019-10-12T17:38:19.838Z</time>
      </trkpt>
      <trkpt lat="20.21681667" lon="-98.73095667">
        <ele>2339.0</ele>
        <time>2019-10-12T17:38:20.838Z</time>
      </trkpt>
      <trkpt lat="20.21682833" lon="-98.73095667">
        <ele>2339.0</ele>
        <time>2019-10-12T17:38:21.840Z</time>
      </trkpt>
      <trkpt lat="20.21684167" lon="-98.73095167">
        <ele>2338.0</ele>
        <time>2019-10-12T17:38:22.847Z</time>
      </trkpt>
      <trkpt lat="20.21685833" lon="-98.73094833">
        <ele>2338.0</ele>
        <time>2019-10-12T17:38:23.854Z</time>
      </trkpt>
      <trkpt lat="20.21687167" lon="-98.73094667">
        <ele>2338.0</ele>
        <time>2019-10-12T17:38:24.855Z</time>
      </trkpt>
      <trkpt lat="20.21688" lon="-98.73094333">
        <ele>2338.0</ele>
        <time>2019-10-12T17:38:25.857Z</time>
      </trkpt>
      <trkpt lat="20.21688333" lon="-98.73094333">
        <ele>2337.0</ele>
        <time>2019-10-12T17:38:26.864Z</time>
      </trkpt>
      <trkpt lat="20.21688333" lon="-98.73094333">
        <ele>2337.0</ele>
        <time>2019-10-12T17:38:27.865Z</time>
      </trkpt>
      <trkpt lat="20.21688667" lon="-98.73093833">
        <ele>2337.0</ele>
        <time>2019-10-12T17:38:28.873Z</time>
      </trkpt>
      <trkpt lat="20.21688" lon="-98.730935">
        <ele>2337.0</ele>
        <time>2019-10-12T17:38:29.879Z</time>
      </trkpt>
      <trkpt lat="20.21687167" lon="-98.73093667">
        <ele>2337.0</ele>
        <time>2019-10-12T17:38:30.885Z</time>
      </trkpt>
      <trkpt lat="20.21686167" lon="-98.73093667">
        <ele>2337.0</ele>
        <time>2019-10-12T17:38:31.886Z</time>
      </trkpt>
      <trkpt lat="20.21685167" lon="-98.73093833">
        <ele>2337.0</ele>
        <time>2019-10-12T17:38:32.889Z</time>
      </trkpt>
      <trkpt lat="20.21684" lon="-98.73094">
        <ele>2337.0</ele>
        <time>2019-10-12T17:38:33.896Z</time>
      </trkpt>
      <trkpt lat="20.21683167" lon="-98.73094">
        <ele>2338.0</ele>
        <time>2019-10-12T17:38:34.903Z</time>
      </trkpt>
      <trkpt lat="20.21682333" lon="-98.73094">
        <ele>2338.0</ele>
        <time>2019-10-12T17:38:35.905Z</time>
      </trkpt>
      <trkpt lat="20.216815" lon="-98.73094">
        <ele>2338.0</ele>
        <time>2019-10-12T17:38:36.905Z</time>
      </trkpt>
      <trkpt lat="20.21681" lon="-98.73094167">
        <ele>2339.0</ele>
        <time>2019-10-12T17:38:37.905Z</time>
      </trkpt>
      <trkpt lat="20.21680167" lon="-98.73094333">
        <ele>2339.0</ele>
        <time>2019-10-12T17:38:38.905Z</time>
      </trkpt>
      <trkpt lat="20.21679333" lon="-98.730945">
        <ele>2339.0</ele>
        <time>2019-10-12T17:38:39.906Z</time>
      </trkpt>
      <trkpt lat="20.216785" lon="-98.730945">
        <ele>2339.0</ele>
        <time>2019-10-12T17:38:40.906Z</time>
      </trkpt>
      <trkpt lat="20.216775" lon="-98.73094333">
        <ele>2339.0</ele>
        <time>2019-10-12T17:38:41.906Z</time>
      </trkpt>
      <trkpt lat="20.216765" lon="-98.73094">
        <ele>2340.0</ele>
        <time>2019-10-12T17:38:42.906Z</time>
      </trkpt>
      <trkpt lat="20.21675167" lon="-98.73093667">
        <ele>2339.0</ele>
        <time>2019-10-12T17:38:43.906Z</time>
      </trkpt>
      <trkpt lat="20.21673833" lon="-98.730935">
        <ele>2339.0</ele>
        <time>2019-10-12T17:38:44.907Z</time>
      </trkpt>
      <trkpt lat="20.21672333" lon="-98.73093333">
        <ele>2339.0</ele>
        <time>2019-10-12T17:38:45.907Z</time>
      </trkpt>
      <trkpt lat="20.21671" lon="-98.730935">
        <ele>2339.0</ele>
        <time>2019-10-12T17:38:46.907Z</time>
      </trkpt>
      <trkpt lat="20.21669667" lon="-98.73093833">
        <ele>2339.0</ele>
        <time>2019-10-12T17:38:47.907Z</time>
      </trkpt>
      <trkpt lat="20.21668667" lon="-98.73094167">
        <ele>2339.0</ele>
        <time>2019-10-12T17:38:48.908Z</time>
      </trkpt>
      <trkpt lat="20.21667667" lon="-98.730945">
        <ele>2339.0</ele>
        <time>2019-10-12T17:38:49.908Z</time>
      </trkpt>
      <trkpt lat="20.21666333" lon="-98.73094833">
        <ele>2339.0</ele>
        <time>2019-10-12T17:38:50.908Z</time>
      </trkpt>
      <trkpt lat="20.21665" lon="-98.73095333">
        <ele>2339.0</ele>
        <time>2019-10-12T17:38:51.908Z</time>
      </trkpt>
      <trkpt lat="20.21663667" lon="-98.730955">
        <ele>2340.0</ele>
        <time>2019-10-12T17:38:52.909Z</time>
      </trkpt>
      <trkpt lat="20.216625" lon="-98.73095167">
        <ele>2340.0</ele>
        <time>2019-10-12T17:38:53.909Z</time>
      </trkpt>
      <trkpt lat="20.21661667" lon="-98.73094667">
        <ele>2341.0</ele>
        <time>2019-10-12T17:38:54.909Z</time>
      </trkpt>
      <trkpt lat="20.216605" lon="-98.73094167">
        <ele>2341.0</ele>
        <time>2019-10-12T17:38:55.909Z</time>
      </trkpt>
      <trkpt lat="20.21659333" lon="-98.73093833">
        <ele>2341.0</ele>
        <time>2019-10-12T17:38:56.909Z</time>
      </trkpt>
      <trkpt lat="20.21658667" lon="-98.73094167">
        <ele>2341.0</ele>
        <time>2019-10-12T17:38:57.910Z</time>
      </trkpt>
      <trkpt lat="20.216585" lon="-98.73095167">
        <ele>2340.0</ele>
        <time>2019-10-12T17:38:58.910Z</time>
      </trkpt>
      <trkpt lat="20.21657667" lon="-98.73096333">
        <ele>2341.0</ele>
        <time>2019-10-12T17:38:59.910Z</time>
      </trkpt>
      <trkpt lat="20.216565" lon="-98.73096667">
        <ele>2341.0</ele>
        <time>2019-10-12T17:39:00.910Z</time>
      </trkpt>
      <trkpt lat="20.21655333" lon="-98.73096333">
        <ele>2341.0</ele>
        <time>2019-10-12T17:39:01.910Z</time>
      </trkpt>
      <trkpt lat="20.21654" lon="-98.73096833">
        <ele>2341.0</ele>
        <time>2019-10-12T17:39:02.911Z</time>
      </trkpt>
      <trkpt lat="20.21652833" lon="-98.73097167">
        <ele>2342.0</ele>
        <time>2019-10-12T17:39:03.911Z</time>
      </trkpt>
      <trkpt lat="20.21651333" lon="-98.730975">
        <ele>2342.0</ele>
        <time>2019-10-12T17:39:04.911Z</time>
      </trkpt>
      <trkpt lat="20.21649667" lon="-98.73097667">
        <ele>2342.0</ele>
        <time>2019-10-12T17:39:05.911Z</time>
      </trkpt>
      <trkpt lat="20.216475" lon="-98.73097667">
        <ele>2342.0</ele>
        <time>2019-10-12T17:39:06.911Z</time>
      </trkpt>
      <trkpt lat="20.21645667" lon="-98.73097833">
        <ele>2342.0</ele>
        <time>2019-10-12T17:39:07.912Z</time>
      </trkpt>
      <trkpt lat="20.21644333" lon="-98.73098167">
        <ele>2342.0</ele>
        <time>2019-10-12T17:39:08.912Z</time>
      </trkpt>
      <trkpt lat="20.21642167" lon="-98.73098167">
        <ele>2343.0</ele>
        <time>2019-10-12T17:39:09.912Z</time>
      </trkpt>
      <trkpt lat="20.216405" lon="-98.73097833">
        <ele>2344.0</ele>
        <time>2019-10-12T17:39:10.912Z</time>
      </trkpt>
      <trkpt lat="20.21638333" lon="-98.73097333">
        <ele>2345.0</ele>
        <time>2019-10-12T17:39:11.918Z</time>
      </trkpt>
      <trkpt lat="20.21636833" lon="-98.73096333">
        <ele>2346.0</ele>
        <time>2019-10-12T17:39:12.924Z</time>
      </trkpt>
      <trkpt lat="20.216355" lon="-98.73096167">
        <ele>2346.0</ele>
        <time>2019-10-12T17:39:13.930Z</time>
      </trkpt>
      <trkpt lat="20.21634" lon="-98.73096167">
        <ele>2346.0</ele>
        <time>2019-10-12T17:39:14.930Z</time>
      </trkpt>
      <trkpt lat="20.21632333" lon="-98.73096167">
        <ele>2346.0</ele>
        <time>2019-10-12T17:39:15.934Z</time>
      </trkpt>
      <trkpt lat="20.21631167" lon="-98.73096667">
        <ele>2346.0</ele>
        <time>2019-10-12T17:39:16.934Z</time>
      </trkpt>
      <trkpt lat="20.216295" lon="-98.730975">
        <ele>2347.0</ele>
        <time>2019-10-12T17:39:17.939Z</time>
      </trkpt>
      <trkpt lat="20.21627833" lon="-98.73097667">
        <ele>2347.0</ele>
        <time>2019-10-12T17:39:18.942Z</time>
      </trkpt>
      <trkpt lat="20.21626667" lon="-98.73098">
        <ele>2347.0</ele>
        <time>2019-10-12T17:39:19.945Z</time>
      </trkpt>
      <trkpt lat="20.216255" lon="-98.73098167">
        <ele>2346.0</ele>
        <time>2019-10-12T17:39:20.952Z</time>
      </trkpt>
      <trkpt lat="20.21624333" lon="-98.73098333">
        <ele>2346.0</ele>
        <time>2019-10-12T17:39:21.833Z</time>
      </trkpt>
      <trkpt lat="20.21623167" lon="-98.73098667">
        <ele>2346.0</ele>
        <time>2019-10-12T17:39:22.834Z</time>
      </trkpt>
      <trkpt lat="20.21621667" lon="-98.73099167">
        <ele>2346.0</ele>
        <time>2019-10-12T17:39:23.837Z</time>
      </trkpt>
      <trkpt lat="20.216205" lon="-98.730995">
        <ele>2346.0</ele>
        <time>2019-10-12T17:39:24.838Z</time>
      </trkpt>
      <trkpt lat="20.21619333" lon="-98.73099833">
        <ele>2346.0</ele>
        <time>2019-10-12T17:39:25.843Z</time>
      </trkpt>
      <trkpt lat="20.21618167" lon="-98.73100167">
        <ele>2346.0</ele>
        <time>2019-10-12T17:39:26.846Z</time>
      </trkpt>
      <trkpt lat="20.21617" lon="-98.73100667">
        <ele>2346.0</ele>
        <time>2019-10-12T17:39:27.851Z</time>
      </trkpt>
      <trkpt lat="20.21616167" lon="-98.73101">
        <ele>2346.0</ele>
        <time>2019-10-12T17:39:28.853Z</time>
      </trkpt>
      <trkpt lat="20.21615" lon="-98.731015">
        <ele>2346.0</ele>
        <time>2019-10-12T17:39:29.858Z</time>
      </trkpt>
      <trkpt lat="20.21613833" lon="-98.73102">
        <ele>2346.0</ele>
        <time>2019-10-12T17:39:30.863Z</time>
      </trkpt>
      <trkpt lat="20.21612167" lon="-98.73102333">
        <ele>2347.0</ele>
        <time>2019-10-12T17:39:31.870Z</time>
      </trkpt>
      <trkpt lat="20.21611667" lon="-98.73102667">
        <ele>2347.0</ele>
        <time>2019-10-12T17:39:32.872Z</time>
      </trkpt>
      <trkpt lat="20.21610667" lon="-98.73102833">
        <ele>2348.0</ele>
        <time>2019-10-12T17:39:33.877Z</time>
      </trkpt>
      <trkpt lat="20.21609667" lon="-98.73103">
        <ele>2348.0</ele>
        <time>2019-10-12T17:39:34.882Z</time>
      </trkpt>
      <trkpt lat="20.216085" lon="-98.73103333">
        <ele>2348.0</ele>
        <time>2019-10-12T17:39:35.887Z</time>
      </trkpt>
      <trkpt lat="20.216075" lon="-98.73103667">
        <ele>2349.0</ele>
        <time>2019-10-12T17:39:36.894Z</time>
      </trkpt>
      <trkpt lat="20.216065" lon="-98.73104">
        <ele>2349.0</ele>
        <time>2019-10-12T17:39:37.900Z</time>
      </trkpt>
      <trkpt lat="20.21605667" lon="-98.731045">
        <ele>2350.0</ele>
        <time>2019-10-12T17:39:38.906Z</time>
      </trkpt>
      <trkpt lat="20.21605167" lon="-98.73104833">
        <ele>2350.0</ele>
        <time>2019-10-12T17:39:39.910Z</time>
      </trkpt>
      <trkpt lat="20.21605" lon="-98.73105333">
        <ele>2350.0</ele>
        <time>2019-10-12T17:39:40.917Z</time>
      </trkpt>
      <trkpt lat="20.216045" lon="-98.73105833">
        <ele>2351.0</ele>
        <time>2019-10-12T17:39:41.920Z</time>
      </trkpt>
      <trkpt lat="20.21604" lon="-98.731065">
        <ele>2351.0</ele>
        <time>2019-10-12T17:39:42.920Z</time>
      </trkpt>
      <trkpt lat="20.21603333" lon="-98.73106833">
        <ele>2351.0</ele>
        <time>2019-10-12T17:39:43.921Z</time>
      </trkpt>
      <trkpt lat="20.21602667" lon="-98.73107333">
        <ele>2352.0</ele>
        <time>2019-10-12T17:39:44.921Z</time>
      </trkpt>
      <trkpt lat="20.21602" lon="-98.73107">
        <ele>2352.0</ele>
        <time>2019-10-12T17:39:45.922Z</time>
      </trkpt>
      <trkpt lat="20.21601333" lon="-98.731065">
        <ele>2353.0</ele>
        <time>2019-10-12T17:39:46.926Z</time>
      </trkpt>
      <trkpt lat="20.21600167" lon="-98.73106667">
        <ele>2353.0</ele>
        <time>2019-10-12T17:39:47.933Z</time>
      </trkpt>
      <trkpt lat="20.21599167" lon="-98.73106833">
        <ele>2353.0</ele>
        <time>2019-10-12T17:39:48.937Z</time>
      </trkpt>
      <trkpt lat="20.21598" lon="-98.73107167">
        <ele>2353.0</ele>
        <time>2019-10-12T17:39:49.939Z</time>
      </trkpt>
      <trkpt lat="20.21596833" lon="-98.73107333">
        <ele>2353.0</ele>
        <time>2019-10-12T17:39:50.945Z</time>
      </trkpt>
      <trkpt lat="20.21595833" lon="-98.73107833">
        <ele>2353.0</ele>
        <time>2019-10-12T17:39:51.953Z</time>
      </trkpt>
      <trkpt lat="20.21594833" lon="-98.731085">
        <ele>2354.0</ele>
        <time>2019-10-12T17:39:52.835Z</time>
      </trkpt>
      <trkpt lat="20.21593833" lon="-98.73109167">
        <ele>2355.0</ele>
        <time>2019-10-12T17:39:53.840Z</time>
      </trkpt>
      <trkpt lat="20.21592833" lon="-98.73109833">
        <ele>2355.0</ele>
        <time>2019-10-12T17:39:54.845Z</time>
      </trkpt>
      <trkpt lat="20.21591667" lon="-98.7311">
        <ele>2356.0</ele>
        <time>2019-10-12T17:39:55.852Z</time>
      </trkpt>
      <trkpt lat="20.215905" lon="-98.73110167">
        <ele>2356.0</ele>
        <time>2019-10-12T17:39:56.860Z</time>
      </trkpt>
      <trkpt lat="20.215895" lon="-98.7311">
        <ele>2356.0</ele>
        <time>2019-10-12T17:39:57.861Z</time>
      </trkpt>
      <trkpt lat="20.215885" lon="-98.7311">
        <ele>2357.0</ele>
        <time>2019-10-12T17:39:58.861Z</time>
      </trkpt>
      <trkpt lat="20.21587667" lon="-98.7311">
        <ele>2358.0</ele>
        <time>2019-10-12T17:39:59.861Z</time>
      </trkpt>
      <trkpt lat="20.21586833" lon="-98.73109833">
        <ele>2359.0</ele>
        <time>2019-10-12T17:40:00.865Z</time>
      </trkpt>
      <trkpt lat="20.21585667" lon="-98.73109833">
        <ele>2359.0</ele>
        <time>2019-10-12T17:40:01.871Z</time>
      </trkpt>
      <trkpt lat="20.21584167" lon="-98.731095">
        <ele>2359.0</ele>
        <time>2019-10-12T17:40:02.878Z</time>
      </trkpt>
      <trkpt lat="20.21582833" lon="-98.73109333">
        <ele>2358.0</ele>
        <time>2019-10-12T17:40:03.878Z</time>
      </trkpt>
      <trkpt lat="20.21581667" lon="-98.73108833">
        <ele>2358.0</ele>
        <time>2019-10-12T17:40:04.879Z</time>
      </trkpt>
      <trkpt lat="20.21581" lon="-98.73108333">
        <ele>2358.0</ele>
        <time>2019-10-12T17:40:05.884Z</time>
      </trkpt>
      <trkpt lat="20.2158" lon="-98.73108167">
        <ele>2357.0</ele>
        <time>2019-10-12T17:40:06.893Z</time>
      </trkpt>
      <trkpt lat="20.21578833" lon="-98.73108167">
        <ele>2357.0</ele>
        <time>2019-10-12T17:40:07.900Z</time>
      </trkpt>
      <trkpt lat="20.21577833" lon="-98.731085">
        <ele>2358.0</ele>
        <time>2019-10-12T17:40:08.906Z</time>
      </trkpt>
      <trkpt lat="20.21576833" lon="-98.73108833">
        <ele>2358.0</ele>
        <time>2019-10-12T17:40:09.913Z</time>
      </trkpt>
      <trkpt lat="20.21576167" lon="-98.73109333">
        <ele>2359.0</ele>
        <time>2019-10-12T17:40:10.919Z</time>
      </trkpt>
      <trkpt lat="20.21574667" lon="-98.731095">
        <ele>2359.0</ele>
        <time>2019-10-12T17:40:11.924Z</time>
      </trkpt>
      <trkpt lat="20.215735" lon="-98.73109667">
        <ele>2359.0</ele>
        <time>2019-10-12T17:40:12.927Z</time>
      </trkpt>
      <trkpt lat="20.21572333" lon="-98.73109333">
        <ele>2359.0</ele>
        <time>2019-10-12T17:40:13.927Z</time>
      </trkpt>
      <trkpt lat="20.21571333" lon="-98.73108833">
        <ele>2359.0</ele>
        <time>2019-10-12T17:40:14.927Z</time>
      </trkpt>
      <trkpt lat="20.21570333" lon="-98.73108">
        <ele>2360.0</ele>
        <time>2019-10-12T17:40:15.928Z</time>
      </trkpt>
      <trkpt lat="20.21568833" lon="-98.731075">
        <ele>2360.0</ele>
        <time>2019-10-12T17:40:16.933Z</time>
      </trkpt>
      <trkpt lat="20.215675" lon="-98.73107">
        <ele>2360.0</ele>
        <time>2019-10-12T17:40:17.941Z</time>
      </trkpt>
      <trkpt lat="20.21566167" lon="-98.731065">
        <ele>2360.0</ele>
        <time>2019-10-12T17:40:18.948Z</time>
      </trkpt>
      <trkpt lat="20.21564667" lon="-98.73106">
        <ele>2360.0</ele>
        <time>2019-10-12T17:40:19.950Z</time>
      </trkpt>
      <trkpt lat="20.21563167" lon="-98.731055">
        <ele>2360.0</ele>
        <time>2019-10-12T17:40:20.954Z</time>
      </trkpt>
      <trkpt lat="20.21561667" lon="-98.73104833">
        <ele>2360.0</ele>
        <time>2019-10-12T17:40:21.831Z</time>
      </trkpt>
      <trkpt lat="20.21560833" lon="-98.73104167">
        <ele>2359.0</ele>
        <time>2019-10-12T17:40:22.837Z</time>
      </trkpt>
      <trkpt lat="20.215595" lon="-98.73103333">
        <ele>2359.0</ele>
        <time>2019-10-12T17:40:23.843Z</time>
      </trkpt>
      <trkpt lat="20.215585" lon="-98.73103">
        <ele>2359.0</ele>
        <time>2019-10-12T17:40:24.849Z</time>
      </trkpt>
      <trkpt lat="20.215575" lon="-98.731025">
        <ele>2359.0</ele>
        <time>2019-10-12T17:40:25.857Z</time>
      </trkpt>
      <trkpt lat="20.21556167" lon="-98.73102167">
        <ele>2359.0</ele>
        <time>2019-10-12T17:40:26.859Z</time>
      </trkpt>
      <trkpt lat="20.215545" lon="-98.73102">
        <ele>2360.0</ele>
        <time>2019-10-12T17:40:27.866Z</time>
      </trkpt>
      <trkpt lat="20.21552833" lon="-98.73102167">
        <ele>2361.0</ele>
        <time>2019-10-12T17:40:28.868Z</time>
      </trkpt>
      <trkpt lat="20.21551167" lon="-98.73103">
        <ele>2361.0</ele>
        <time>2019-10-12T17:40:29.869Z</time>
      </trkpt>
      <trkpt lat="20.21549833" lon="-98.731035">
        <ele>2361.0</ele>
        <time>2019-10-12T17:40:30.869Z</time>
      </trkpt>
      <trkpt lat="20.21548" lon="-98.73103333">
        <ele>2361.0</ele>
        <time>2019-10-12T17:40:31.869Z</time>
      </trkpt>
      <trkpt lat="20.21546167" lon="-98.73103167">
        <ele>2361.0</ele>
        <time>2019-10-12T17:40:32.869Z</time>
      </trkpt>
      <trkpt lat="20.21544667" lon="-98.73103167">
        <ele>2361.0</ele>
        <time>2019-10-12T17:40:33.870Z</time>
      </trkpt>
      <trkpt lat="20.21543167" lon="-98.73103">
        <ele>2361.0</ele>
        <time>2019-10-12T17:40:34.870Z</time>
      </trkpt>
      <trkpt lat="20.21541833" lon="-98.73103">
        <ele>2360.0</ele>
        <time>2019-10-12T17:40:35.870Z</time>
      </trkpt>
      <trkpt lat="20.21540167" lon="-98.73103167">
        <ele>2360.0</ele>
        <time>2019-10-12T17:40:36.870Z</time>
      </trkpt>
      <trkpt lat="20.21538667" lon="-98.73103167">
        <ele>2359.0</ele>
        <time>2019-10-12T17:40:37.871Z</time>
      </trkpt>
      <trkpt lat="20.215375" lon="-98.73103167">
        <ele>2359.0</ele>
        <time>2019-10-12T17:40:38.871Z</time>
      </trkpt>
      <trkpt lat="20.21536" lon="-98.73103667">
        <ele>2359.0</ele>
        <time>2019-10-12T17:40:39.871Z</time>
      </trkpt>
      <trkpt lat="20.21534667" lon="-98.73103833">
        <ele>2358.0</ele>
        <time>2019-10-12T17:40:40.871Z</time>
      </trkpt>
      <trkpt lat="20.21533167" lon="-98.73103833">
        <ele>2357.0</ele>
        <time>2019-10-12T17:40:41.871Z</time>
      </trkpt>
      <trkpt lat="20.21531667" lon="-98.73103333">
        <ele>2356.0</ele>
        <time>2019-10-12T17:40:42.872Z</time>
      </trkpt>
      <trkpt lat="20.215305" lon="-98.731025">
        <ele>2356.0</ele>
        <time>2019-10-12T17:40:43.872Z</time>
      </trkpt>
      <trkpt lat="20.215285" lon="-98.73102167">
        <ele>2357.0</ele>
        <time>2019-10-12T17:40:44.872Z</time>
      </trkpt>
      <trkpt lat="20.21527167" lon="-98.73101667">
        <ele>2356.0</ele>
        <time>2019-10-12T17:40:45.872Z</time>
      </trkpt>
      <trkpt lat="20.21526" lon="-98.731005">
        <ele>2357.0</ele>
        <time>2019-10-12T17:40:46.872Z</time>
      </trkpt>
      <trkpt lat="20.21525" lon="-98.73099667">
        <ele>2357.0</ele>
        <time>2019-10-12T17:40:47.873Z</time>
      </trkpt>
      <trkpt lat="20.21523333" lon="-98.73099333">
        <ele>2358.0</ele>
        <time>2019-10-12T17:40:48.873Z</time>
      </trkpt>
      <trkpt lat="20.21521833" lon="-98.73099167">
        <ele>2359.0</ele>
        <time>2019-10-12T17:40:49.873Z</time>
      </trkpt>
      <trkpt lat="20.21520333" lon="-98.73099333">
        <ele>2360.0</ele>
        <time>2019-10-12T17:40:50.873Z</time>
      </trkpt>
      <trkpt lat="20.21518833" lon="-98.73098833">
        <ele>2360.0</ele>
        <time>2019-10-12T17:40:51.873Z</time>
      </trkpt>
      <trkpt lat="20.21516833" lon="-98.73098667">
        <ele>2361.0</ele>
        <time>2019-10-12T17:40:52.875Z</time>
      </trkpt>
      <trkpt lat="20.21468667" lon="-98.73087">
        <ele>2375.0</ele>
        <time>2019-10-12T14:34:47.834Z</time>
      </trkpt>
      <trkpt lat="20.2147" lon="-98.73086667">
        <ele>2376.0</ele>
        <time>2019-10-12T14:34:48.835Z</time>
      </trkpt>
      <trkpt lat="20.21471667" lon="-98.73086333">
        <ele>2376.0</ele>
        <time>2019-10-12T14:34:49.840Z</time>
      </trkpt>
      <trkpt lat="20.21473" lon="-98.73085667">
        <ele>2376.0</ele>
        <time>2019-10-12T14:34:50.845Z</time>
      </trkpt>
      <trkpt lat="20.21474333" lon="-98.73085">
        <ele>2376.0</ele>
        <time>2019-10-12T14:34:51.845Z</time>
      </trkpt>
      <trkpt lat="20.21475667" lon="-98.73085">
        <ele>2377.0</ele>
        <time>2019-10-12T14:34:52.846Z</time>
      </trkpt>
      <trkpt lat="20.21477" lon="-98.73085167">
        <ele>2377.0</ele>
        <time>2019-10-12T14:34:53.850Z</time>
      </trkpt>
      <trkpt lat="20.21478167" lon="-98.73085">
        <ele>2376.0</ele>
        <time>2019-10-12T14:34:54.853Z</time>
      </trkpt>
      <trkpt lat="20.214795" lon="-98.73084667">
        <ele>2376.0</ele>
        <time>2019-10-12T14:34:55.857Z</time>
      </trkpt>
      <trkpt lat="20.21481" lon="-98.73084167">
        <ele>2376.0</ele>
        <time>2019-10-12T14:34:56.859Z</time>
      </trkpt>
      <trkpt lat="20.21482667" lon="-98.73084167">
        <ele>2376.0</ele>
        <time>2019-10-12T14:34:57.862Z</time>
      </trkpt>
      <trkpt lat="20.21484667" lon="-98.73084167">
        <ele>2375.0</ele>
        <time>2019-10-12T14:34:58.868Z</time>
      </trkpt>
      <trkpt lat="20.214865" lon="-98.73084167">
        <ele>2375.0</ele>
        <time>2019-10-12T14:34:59.871Z</time>
      </trkpt>
      <trkpt lat="20.21488" lon="-98.73084167">
        <ele>2375.0</ele>
        <time>2019-10-12T14:35:00.876Z</time>
      </trkpt>
      <trkpt lat="20.21490167" lon="-98.730845">
        <ele>2375.0</ele>
        <time>2019-10-12T14:35:01.881Z</time>
      </trkpt>
      <trkpt lat="20.21491667" lon="-98.73084667">
        <ele>2375.0</ele>
        <time>2019-10-12T14:35:02.882Z</time>
      </trkpt>
      <trkpt lat="20.21493" lon="-98.73085167">
        <ele>2374.0</ele>
        <time>2019-10-12T14:35:03.883Z</time>
      </trkpt>
      <trkpt lat="20.214945" lon="-98.73085667">
        <ele>2374.0</ele>
        <time>2019-10-12T14:35:04.884Z</time>
      </trkpt>
      <trkpt lat="20.21496167" lon="-98.73085833">
        <ele>2374.0</ele>
        <time>2019-10-12T14:35:05.884Z</time>
      </trkpt>
      <trkpt lat="20.21498167" lon="-98.73086">
        <ele>2374.0</ele>
        <time>2019-10-12T14:35:06.885Z</time>
      </trkpt>
      <trkpt lat="20.21500167" lon="-98.73086167">
        <ele>2374.0</ele>
        <time>2019-10-12T14:35:07.888Z</time>
      </trkpt>
      <trkpt lat="20.21502167" lon="-98.73087">
        <ele>2375.0</ele>
        <time>2019-10-12T14:35:08.894Z</time>
      </trkpt>
      <trkpt lat="20.21504333" lon="-98.730875">
        <ele>2375.0</ele>
        <time>2019-10-12T14:35:09.896Z</time>
      </trkpt>
      <trkpt lat="20.21506333" lon="-98.73088">
        <ele>2375.0</ele>
        <time>2019-10-12T14:35:10.903Z</time>
      </trkpt>
      <trkpt lat="20.21508333" lon="-98.73088833">
        <ele>2375.0</ele>
        <time>2019-10-12T14:35:11.909Z</time>
      </trkpt>
      <trkpt lat="20.215105" lon="-98.73089833">
        <ele>2375.0</ele>
        <time>2019-10-12T14:35:12.911Z</time>
      </trkpt>
      <trkpt lat="20.21512833" lon="-98.73091167">
        <ele>2376.0</ele>
        <time>2019-10-12T14:35:13.912Z</time>
      </trkpt>
      <trkpt lat="20.21515167" lon="-98.73092333">
        <ele>2376.0</ele>
        <time>2019-10-12T14:35:14.912Z</time>
      </trkpt>
      <trkpt lat="20.21517333" lon="-98.730935">
        <ele>2376.0</ele>
        <time>2019-10-12T14:35:15.916Z</time>
      </trkpt>
      <trkpt lat="20.21519833" lon="-98.73094667">
        <ele>2376.0</ele>
        <time>2019-10-12T14:35:16.921Z</time>
      </trkpt>
      <trkpt lat="20.21522333" lon="-98.73096">
        <ele>2378.0</ele>
        <time>2019-10-12T14:35:17.928Z</time>
      </trkpt>
      <trkpt lat="20.21524333" lon="-98.73096667">
        <ele>2379.0</ele>
        <time>2019-10-12T14:35:18.933Z</time>
      </trkpt>
      <trkpt lat="20.215265" lon="-98.73097167">
        <ele>2381.0</ele>
        <time>2019-10-12T14:35:19.940Z</time>
      </trkpt>
      <trkpt lat="20.215285" lon="-98.73097333">
        <ele>2381.0</ele>
        <time>2019-10-12T14:35:20.944Z</time>
      </trkpt>
      <trkpt lat="20.21530833" lon="-98.730975">
        <ele>2382.0</ele>
        <time>2019-10-12T14:35:21.951Z</time>
      </trkpt>
      <trkpt lat="20.215335" lon="-98.73098167">
        <ele>2383.0</ele>
        <time>2019-10-12T14:35:22.831Z</time>
      </trkpt>
      <trkpt lat="20.21536" lon="-98.73098333">
        <ele>2384.0</ele>
        <time>2019-10-12T14:35:23.836Z</time>
      </trkpt>
      <trkpt lat="20.21538333" lon="-98.73098667">
        <ele>2384.0</ele>
        <time>2019-10-12T14:35:24.837Z</time>
      </trkpt>
      <trkpt lat="20.21540667" lon="-98.73098667">
        <ele>2384.0</ele>
        <time>2019-10-12T14:35:25.838Z</time>
      </trkpt>
      <trkpt lat="20.21543" lon="-98.73098667">
        <ele>2383.0</ele>
        <time>2019-10-12T14:35:26.840Z</time>
      </trkpt>
      <trkpt lat="20.21545667" lon="-98.73099">
        <ele>2382.0</ele>
        <time>2019-10-12T14:35:27.847Z</time>
      </trkpt>
      <trkpt lat="20.21548333" lon="-98.73099667">
        <ele>2382.0</ele>
        <time>2019-10-12T14:35:28.850Z</time>
      </trkpt>
      <trkpt lat="20.21551167" lon="-98.73100167">
        <ele>2381.0</ele>
        <time>2019-10-12T14:35:29.855Z</time>
      </trkpt>
      <trkpt lat="20.21553833" lon="-98.73100833">
        <ele>2381.0</ele>
        <time>2019-10-12T14:35:30.862Z</time>
      </trkpt>
      <trkpt lat="20.21556667" lon="-98.731015">
        <ele>2382.0</ele>
        <time>2019-10-12T14:35:31.865Z</time>
      </trkpt>
      <trkpt lat="20.21560167" lon="-98.731025">
        <ele>2383.0</ele>
        <time>2019-10-12T14:35:32.869Z</time>
      </trkpt>
      <trkpt lat="20.21563" lon="-98.73103">
        <ele>2383.0</ele>
        <time>2019-10-12T14:35:33.874Z</time>
      </trkpt>
      <trkpt lat="20.21565667" lon="-98.731035">
        <ele>2383.0</ele>
        <time>2019-10-12T14:35:34.880Z</time>
      </trkpt>
      <trkpt lat="20.21568167" lon="-98.73103667">
        <ele>2383.0</ele>
        <time>2019-10-12T14:35:35.885Z</time>
      </trkpt>
      <trkpt lat="20.21570667" lon="-98.73104167">
        <ele>2382.0</ele>
        <time>2019-10-12T14:35:36.892Z</time>
      </trkpt>
      <trkpt lat="20.21573" lon="-98.73104833">
        <ele>2382.0</ele>
        <time>2019-10-12T14:35:37.893Z</time>
      </trkpt>
      <trkpt lat="20.215755" lon="-98.73106">
        <ele>2382.0</ele>
        <time>2019-10-12T14:35:38.901Z</time>
      </trkpt>
      <trkpt lat="20.21578167" lon="-98.73106833">
        <ele>2382.0</ele>
        <time>2019-10-12T14:35:39.908Z</time>
      </trkpt>
      <trkpt lat="20.215805" lon="-98.73107167">
        <ele>2382.0</ele>
        <time>2019-10-12T14:35:40.911Z</time>
      </trkpt>
      <trkpt lat="20.21582833" lon="-98.73107333">
        <ele>2381.0</ele>
        <time>2019-10-12T14:35:41.912Z</time>
      </trkpt>
      <trkpt lat="20.21585167" lon="-98.731075">
        <ele>2380.0</ele>
        <time>2019-10-12T14:35:42.913Z</time>
      </trkpt>
      <trkpt lat="20.21587667" lon="-98.73107833">
        <ele>2379.0</ele>
        <time>2019-10-12T14:35:43.913Z</time>
      </trkpt>
      <trkpt lat="20.21590167" lon="-98.73108">
        <ele>2379.0</ele>
        <time>2019-10-12T14:35:44.914Z</time>
      </trkpt>
      <trkpt lat="20.215925" lon="-98.73108333">
        <ele>2378.0</ele>
        <time>2019-10-12T14:35:45.914Z</time>
      </trkpt>
      <trkpt lat="20.21594833" lon="-98.73108833">
        <ele>2378.0</ele>
        <time>2019-10-12T14:35:46.915Z</time>
      </trkpt>
      <trkpt lat="20.21597167" lon="-98.73108833">
        <ele>2377.0</ele>
        <time>2019-10-12T14:35:47.921Z</time>
      </trkpt>
      <trkpt lat="20.21599333" lon="-98.73109">
        <ele>2376.0</ele>
        <time>2019-10-12T14:35:48.928Z</time>
      </trkpt>
      <trkpt lat="20.21601667" lon="-98.73109">
        <ele>2376.0</ele>
        <time>2019-10-12T14:35:49.928Z</time>
      </trkpt>
      <trkpt lat="20.21604" lon="-98.73108833">
        <ele>2375.0</ele>
        <time>2019-10-12T14:35:50.934Z</time>
      </trkpt>
      <trkpt lat="20.21606833" lon="-98.73108333">
        <ele>2375.0</ele>
        <time>2019-10-12T14:35:51.941Z</time>
      </trkpt>
      <trkpt lat="20.21609333" lon="-98.73107833">
        <ele>2374.0</ele>
        <time>2019-10-12T14:35:52.945Z</time>
      </trkpt>
      <trkpt lat="20.21611833" lon="-98.73107333">
        <ele>2374.0</ele>
        <time>2019-10-12T14:35:53.951Z</time>
      </trkpt>
      <trkpt lat="20.216145" lon="-98.73106667">
        <ele>2373.0</ele>
        <time>2019-10-12T14:35:54.953Z</time>
      </trkpt>
      <trkpt lat="20.21617333" lon="-98.73106">
        <ele>2373.0</ele>
        <time>2019-10-12T14:35:55.832Z</time>
      </trkpt>
      <trkpt lat="20.2162" lon="-98.73105333">
        <ele>2372.0</ele>
        <time>2019-10-12T14:35:56.836Z</time>
      </trkpt>
      <trkpt lat="20.216225" lon="-98.731045">
        <ele>2371.0</ele>
        <time>2019-10-12T14:35:57.842Z</time>
      </trkpt>
      <trkpt lat="20.21625" lon="-98.731035">
        <ele>2371.0</ele>
        <time>2019-10-12T14:35:58.847Z</time>
      </trkpt>
      <trkpt lat="20.21627667" lon="-98.73102667">
        <ele>2371.0</ele>
        <time>2019-10-12T14:35:59.852Z</time>
      </trkpt>
      <trkpt lat="20.2163" lon="-98.73101667">
        <ele>2370.0</ele>
        <time>2019-10-12T14:36:00.858Z</time>
      </trkpt>
      <trkpt lat="20.21632333" lon="-98.73100667">
        <ele>2370.0</ele>
        <time>2019-10-12T14:36:01.862Z</time>
      </trkpt>
      <trkpt lat="20.21634833" lon="-98.73099667">
        <ele>2370.0</ele>
        <time>2019-10-12T14:36:02.865Z</time>
      </trkpt>
      <trkpt lat="20.21637167" lon="-98.730985">
        <ele>2370.0</ele>
        <time>2019-10-12T14:36:03.866Z</time>
      </trkpt>
      <trkpt lat="20.21639167" lon="-98.730975">
        <ele>2369.0</ele>
        <time>2019-10-12T14:36:04.867Z</time>
      </trkpt>
      <trkpt lat="20.21641167" lon="-98.73096667">
        <ele>2368.0</ele>
        <time>2019-10-12T14:36:05.869Z</time>
      </trkpt>
      <trkpt lat="20.21643333" lon="-98.73095833">
        <ele>2368.0</ele>
        <time>2019-10-12T14:36:06.874Z</time>
      </trkpt>
      <trkpt lat="20.216455" lon="-98.73095">
        <ele>2367.0</ele>
        <time>2019-10-12T14:36:07.880Z</time>
      </trkpt>
      <trkpt lat="20.216475" lon="-98.73094167">
        <ele>2367.0</ele>
        <time>2019-10-12T14:36:08.886Z</time>
      </trkpt>
      <trkpt lat="20.21649833" lon="-98.730935">
        <ele>2367.0</ele>
        <time>2019-10-12T14:36:09.887Z</time>
      </trkpt>
      <trkpt lat="20.21652" lon="-98.73092667">
        <ele>2368.0</ele>
        <time>2019-10-12T14:36:10.887Z</time>
      </trkpt>
      <trkpt lat="20.216545" lon="-98.73092833">
        <ele>2368.0</ele>
        <time>2019-10-12T14:36:11.893Z</time>
      </trkpt>
      <trkpt lat="20.21656667" lon="-98.73093">
        <ele>2368.0</ele>
        <time>2019-10-12T14:36:12.895Z</time>
      </trkpt>
      <trkpt lat="20.216585" lon="-98.73092667">
        <ele>2368.0</ele>
        <time>2019-10-12T14:36:13.901Z</time>
      </trkpt>
      <trkpt lat="20.216605" lon="-98.730925">
        <ele>2368.0</ele>
        <time>2019-10-12T14:36:14.908Z</time>
      </trkpt>
      <trkpt lat="20.21662667" lon="-98.73092167">
        <ele>2368.0</ele>
        <time>2019-10-12T14:36:15.915Z</time>
      </trkpt>
      <trkpt lat="20.21664333" lon="-98.730915">
        <ele>2367.0</ele>
        <time>2019-10-12T14:36:16.922Z</time>
      </trkpt>
      <trkpt lat="20.21666667" lon="-98.730915">
        <ele>2366.0</ele>
        <time>2019-10-12T14:36:17.924Z</time>
      </trkpt>
      <trkpt lat="20.21668667" lon="-98.73091333">
        <ele>2366.0</ele>
        <time>2019-10-12T14:36:18.929Z</time>
      </trkpt>
      <trkpt lat="20.21670833" lon="-98.73091167">
        <ele>2365.0</ele>
        <time>2019-10-12T14:36:19.934Z</time>
      </trkpt>
      <trkpt lat="20.21672667" lon="-98.73091167">
        <ele>2365.0</ele>
        <time>2019-10-12T14:36:20.939Z</time>
      </trkpt>
      <trkpt lat="20.21675333" lon="-98.73090833">
        <ele>2364.0</ele>
        <time>2019-10-12T14:36:21.942Z</time>
      </trkpt>
      <trkpt lat="20.21677833" lon="-98.73090833">
        <ele>2364.0</ele>
        <time>2019-10-12T14:36:22.943Z</time>
      </trkpt>
      <trkpt lat="20.21680333" lon="-98.73091">
        <ele>2364.0</ele>
        <time>2019-10-12T14:36:23.944Z</time>
      </trkpt>
      <trkpt lat="20.21683333" lon="-98.73091167">
        <ele>2364.0</ele>
        <time>2019-10-12T14:36:24.945Z</time>
      </trkpt>
      <trkpt lat="20.21685833" lon="-98.73091167">
        <ele>2364.0</ele>
        <time>2019-10-12T14:36:25.949Z</time>
      </trkpt>
      <trkpt lat="20.21688167" lon="-98.73091167">
        <ele>2363.0</ele>
        <time>2019-10-12T14:36:26.952Z</time>
      </trkpt>
      <trkpt lat="20.21690333" lon="-98.73090667">
        <ele>2363.0</ele>
        <time>2019-10-12T14:36:27.833Z</time>
      </trkpt>
      <trkpt lat="20.21692667" lon="-98.73090333">
        <ele>2362.0</ele>
        <time>2019-10-12T14:36:28.839Z</time>
      </trkpt>
      <trkpt lat="20.21695" lon="-98.73089833">
        <ele>2362.0</ele>
        <time>2019-10-12T14:36:29.844Z</time>
      </trkpt>
      <trkpt lat="20.21697333" lon="-98.730895">
        <ele>2362.0</ele>
        <time>2019-10-12T14:36:30.849Z</time>
      </trkpt>
      <trkpt lat="20.216995" lon="-98.73089333">
        <ele>2361.0</ele>
        <time>2019-10-12T14:36:31.851Z</time>
      </trkpt>
      <trkpt lat="20.21701667" lon="-98.73089167">
        <ele>2361.0</ele>
        <time>2019-10-12T14:36:32.854Z</time>
      </trkpt>
      <trkpt lat="20.21704" lon="-98.730885">
        <ele>2361.0</ele>
        <time>2019-10-12T14:36:33.860Z</time>
      </trkpt>
      <trkpt lat="20.21706333" lon="-98.73087833">
        <ele>2361.0</ele>
        <time>2019-10-12T14:36:34.866Z</time>
      </trkpt>
      <trkpt lat="20.217085" lon="-98.73087167">
        <ele>2360.0</ele>
        <time>2019-10-12T14:36:35.871Z</time>
      </trkpt>
      <trkpt lat="20.21709833" lon="-98.73086">
        <ele>2359.0</ele>
        <time>2019-10-12T14:36:36.876Z</time>
      </trkpt>
      <trkpt lat="20.217115" lon="-98.73084833">
        <ele>2358.0</ele>
        <time>2019-10-12T14:36:37.882Z</time>
      </trkpt>
      <trkpt lat="20.21713167" lon="-98.73083167">
        <ele>2357.0</ele>
        <time>2019-10-12T14:36:38.887Z</time>
      </trkpt>
      <trkpt lat="20.217145" lon="-98.73081167">
        <ele>2356.0</ele>
        <time>2019-10-12T14:36:39.891Z</time>
      </trkpt>
      <trkpt lat="20.21715167" lon="-98.73078833">
        <ele>2355.0</ele>
        <time>2019-10-12T14:36:40.892Z</time>
      </trkpt>
      <trkpt lat="20.21715333" lon="-98.73076333">
        <ele>2353.0</ele>
        <time>2019-10-12T14:36:41.893Z</time>
      </trkpt>
      <trkpt lat="20.21715833" lon="-98.73074167">
        <ele>2352.0</ele>
        <time>2019-10-12T14:36:42.896Z</time>
      </trkpt>
      <trkpt lat="20.21716" lon="-98.73071833">
        <ele>2351.0</ele>
        <time>2019-10-12T14:36:43.904Z</time>
      </trkpt>
      <trkpt lat="20.21716333" lon="-98.73069667">
        <ele>2350.0</ele>
        <time>2019-10-12T14:36:44.906Z</time>
      </trkpt>
      <trkpt lat="20.21716833" lon="-98.73067833">
        <ele>2349.0</ele>
        <time>2019-10-12T14:36:45.912Z</time>
      </trkpt>
      <trkpt lat="20.21717333" lon="-98.73066">
        <ele>2349.0</ele>
        <time>2019-10-12T14:36:46.917Z</time>
      </trkpt>
      <trkpt lat="20.21718167" lon="-98.73064">
        <ele>2348.0</ele>
        <time>2019-10-12T14:36:47.919Z</time>
      </trkpt>
      <trkpt lat="20.21718833" lon="-98.73061667">
        <ele>2348.0</ele>
        <time>2019-10-12T14:36:48.920Z</time>
      </trkpt>
      <trkpt lat="20.217195" lon="-98.73059333">
        <ele>2347.0</ele>
        <time>2019-10-12T14:36:49.921Z</time>
      </trkpt>
      <trkpt lat="20.2172" lon="-98.73056833">
        <ele>2346.0</ele>
        <time>2019-10-12T14:36:50.928Z</time>
      </trkpt>
      <trkpt lat="20.21720167" lon="-98.730545">
        <ele>2346.0</ele>
        <time>2019-10-12T14:36:51.930Z</time>
      </trkpt>
      <trkpt lat="20.217205" lon="-98.73052167">
        <ele>2346.0</ele>
        <time>2019-10-12T14:36:52.935Z</time>
      </trkpt>
      <trkpt lat="20.217215" lon="-98.730505">
        <ele>2346.0</ele>
        <time>2019-10-12T14:36:53.940Z</time>
      </trkpt>
      <trkpt lat="20.21723" lon="-98.73049">
        <ele>2347.0</ele>
        <time>2019-10-12T14:36:54.945Z</time>
      </trkpt>
      <trkpt lat="20.217245" lon="-98.73047167">
        <ele>2347.0</ele>
        <time>2019-10-12T14:36:55.951Z</time>
      </trkpt>
      <trkpt lat="20.21725167" lon="-98.73045">
        <ele>2347.0</ele>
        <time>2019-10-12T14:36:56.831Z</time>
      </trkpt>
      <trkpt lat="20.21725833" lon="-98.73042667">
        <ele>2347.0</ele>
        <time>2019-10-12T14:36:57.835Z</time>
      </trkpt>
      <trkpt lat="20.21726" lon="-98.73040333">
        <ele>2347.0</ele>
        <time>2019-10-12T14:36:58.836Z</time>
      </trkpt>
      <trkpt lat="20.21726167" lon="-98.73037833">
        <ele>2347.0</ele>
        <time>2019-10-12T14:36:59.837Z</time>
      </trkpt>
      <trkpt lat="20.21726167" lon="-98.73035167">
        <ele>2347.0</ele>
        <time>2019-10-12T14:37:00.841Z</time>
      </trkpt>
      <trkpt lat="20.21726167" lon="-98.73032667">
        <ele>2347.0</ele>
        <time>2019-10-12T14:37:01.842Z</time>
      </trkpt>
      <trkpt lat="20.21726" lon="-98.73030333">
        <ele>2346.0</ele>
        <time>2019-10-12T14:37:02.844Z</time>
      </trkpt>
      <trkpt lat="20.21725667" lon="-98.73027667">
        <ele>2346.0</ele>
        <time>2019-10-12T14:37:03.844Z</time>
      </trkpt>
      <trkpt lat="20.21725" lon="-98.73025">
        <ele>2345.0</ele>
        <time>2019-10-12T14:37:04.845Z</time>
      </trkpt>
      <trkpt lat="20.21723833" lon="-98.73022333">
        <ele>2344.0</ele>
        <time>2019-10-12T14:37:05.851Z</time>
      </trkpt>
      <trkpt lat="20.21722833" lon="-98.73019833">
        <ele>2343.0</ele>
        <time>2019-10-12T14:37:06.854Z</time>
      </trkpt>
      <trkpt lat="20.21722" lon="-98.73017">
        <ele>2342.0</ele>
        <time>2019-10-12T14:37:07.855Z</time>
      </trkpt>
      <trkpt lat="20.21721167" lon="-98.73014333">
        <ele>2341.0</ele>
        <time>2019-10-12T14:37:08.862Z</time>
      </trkpt>
      <trkpt lat="20.217205" lon="-98.730115">
        <ele>2341.0</ele>
        <time>2019-10-12T14:37:09.866Z</time>
      </trkpt>
      <trkpt lat="20.217195" lon="-98.73009">
        <ele>2341.0</ele>
        <time>2019-10-12T14:37:10.867Z</time>
      </trkpt>
      <trkpt lat="20.21719" lon="-98.73006667">
        <ele>2340.0</ele>
        <time>2019-10-12T14:37:11.873Z</time>
      </trkpt>
      <trkpt lat="20.21719" lon="-98.73004333">
        <ele>2340.0</ele>
        <time>2019-10-12T14:37:12.877Z</time>
      </trkpt>
      <trkpt lat="20.21718833" lon="-98.73002">
        <ele>2340.0</ele>
        <time>2019-10-12T14:37:13.881Z</time>
      </trkpt>
      <trkpt lat="20.217185" lon="-98.72999667">
        <ele>2339.0</ele>
        <time>2019-10-12T14:37:14.888Z</time>
      </trkpt>
      <trkpt lat="20.21718167" lon="-98.72997167">
        <ele>2338.0</ele>
        <time>2019-10-12T14:37:15.888Z</time>
      </trkpt>
      <trkpt lat="20.21717667" lon="-98.72994667">
        <ele>2337.0</ele>
        <time>2019-10-12T14:37:16.893Z</time>
      </trkpt>
      <trkpt lat="20.21717333" lon="-98.72992333">
        <ele>2337.0</ele>
        <time>2019-10-12T14:37:17.899Z</time>
      </trkpt>
      <trkpt lat="20.21717" lon="-98.7299">
        <ele>2337.0</ele>
        <time>2019-10-12T14:37:18.902Z</time>
      </trkpt>
      <trkpt lat="20.21717167" lon="-98.72987833">
        <ele>2337.0</ele>
        <time>2019-10-12T14:37:19.909Z</time>
      </trkpt>
      <trkpt lat="20.21717333" lon="-98.72986167">
        <ele>2337.0</ele>
        <time>2019-10-12T14:37:20.912Z</time>
      </trkpt>
      <trkpt lat="20.217175" lon="-98.729845">
        <ele>2337.0</ele>
        <time>2019-10-12T14:37:21.913Z</time>
      </trkpt>
      <trkpt lat="20.217175" lon="-98.72982833">
        <ele>2337.0</ele>
        <time>2019-10-12T14:37:22.913Z</time>
      </trkpt>
      <trkpt lat="20.217175" lon="-98.72980167">
        <ele>2336.0</ele>
        <time>2019-10-12T14:37:23.913Z</time>
      </trkpt>
      <trkpt lat="20.21718" lon="-98.72978">
        <ele>2336.0</ele>
        <time>2019-10-12T14:37:24.917Z</time>
      </trkpt>
      <trkpt lat="20.21719167" lon="-98.72976">
        <ele>2336.0</ele>
        <time>2019-10-12T14:37:25.918Z</time>
      </trkpt>
      <trkpt lat="20.21720833" lon="-98.72974833">
        <ele>2337.0</ele>
        <time>2019-10-12T14:37:26.922Z</time>
      </trkpt>
      <trkpt lat="20.21722833" lon="-98.729745">
        <ele>2337.0</ele>
        <time>2019-10-12T14:37:27.926Z</time>
      </trkpt>
      <trkpt lat="20.21725333" lon="-98.72974833">
        <ele>2338.0</ele>
        <time>2019-10-12T14:37:28.930Z</time>
      </trkpt>
      <trkpt lat="20.21727833" lon="-98.729755">
        <ele>2338.0</ele>
        <time>2019-10-12T14:37:29.937Z</time>
      </trkpt>
      <trkpt lat="20.21730167" lon="-98.72976667">
        <ele>2338.0</ele>
        <time>2019-10-12T14:37:30.942Z</time>
      </trkpt>
      <trkpt lat="20.21732167" lon="-98.72977833">
        <ele>2338.0</ele>
        <time>2019-10-12T14:37:31.948Z</time>
      </trkpt>
      <trkpt lat="20.21734333" lon="-98.72979167">
        <ele>2338.0</ele>
        <time>2019-10-12T14:37:32.952Z</time>
      </trkpt>
      <trkpt lat="20.21736833" lon="-98.72980333">
        <ele>2339.0</ele>
        <time>2019-10-12T14:37:33.833Z</time>
      </trkpt>
      <trkpt lat="20.217395" lon="-98.72981167">
        <ele>2339.0</ele>
        <time>2019-10-12T14:37:34.837Z</time>
      </trkpt>
      <trkpt lat="20.217425" lon="-98.72981167">
        <ele>2339.0</ele>
        <time>2019-10-12T14:37:35.842Z</time>
      </trkpt>
      <trkpt lat="20.21746" lon="-98.72981167">
        <ele>2339.0</ele>
        <time>2019-10-12T14:37:36.845Z</time>
      </trkpt>
      <trkpt lat="20.21749" lon="-98.72980667">
        <ele>2339.0</ele>
        <time>2019-10-12T14:37:37.850Z</time>
      </trkpt>
      <trkpt lat="20.21751667" lon="-98.72979667">
        <ele>2339.0</ele>
        <time>2019-10-12T14:37:38.858Z</time>
      </trkpt>
      <trkpt lat="20.217545" lon="-98.72978333">
        <ele>2339.0</ele>
        <time>2019-10-12T14:37:39.860Z</time>
      </trkpt>
      <trkpt lat="20.21756833" lon="-98.72976833">
        <ele>2340.0</ele>
        <time>2019-10-12T14:37:40.861Z</time>
      </trkpt>
      <trkpt lat="20.21759167" lon="-98.729765">
        <ele>2340.0</ele>
        <time>2019-10-12T14:37:41.865Z</time>
      </trkpt>
      <trkpt lat="20.21761167" lon="-98.729765">
        <ele>2340.0</ele>
        <time>2019-10-12T14:37:42.871Z</time>
      </trkpt>
      <trkpt lat="20.21763333" lon="-98.72977">
        <ele>2340.0</ele>
        <time>2019-10-12T14:37:43.877Z</time>
      </trkpt>
      <trkpt lat="20.217655" lon="-98.72978">
        <ele>2340.0</ele>
        <time>2019-10-12T14:37:44.882Z</time>
      </trkpt>
      <trkpt lat="20.21767833" lon="-98.72979167">
        <ele>2340.0</ele>
        <time>2019-10-12T14:37:45.886Z</time>
      </trkpt>
      <trkpt lat="20.21770167" lon="-98.7298">
        <ele>2340.0</ele>
        <time>2019-10-12T14:37:46.887Z</time>
      </trkpt>
      <trkpt lat="20.21772" lon="-98.72981333">
        <ele>2341.0</ele>
        <time>2019-10-12T14:37:47.891Z</time>
      </trkpt>
      <trkpt lat="20.21773833" lon="-98.72982833">
        <ele>2340.0</ele>
        <time>2019-10-12T14:37:48.896Z</time>
      </trkpt>
      <trkpt lat="20.217755" lon="-98.72984333">
        <ele>2340.0</ele>
        <time>2019-10-12T14:37:49.904Z</time>
      </trkpt>
      <trkpt lat="20.21777167" lon="-98.72986">
        <ele>2340.0</ele>
        <time>2019-10-12T14:37:50.911Z</time>
      </trkpt>
      <trkpt lat="20.217785" lon="-98.72987833">
        <ele>2340.0</ele>
        <time>2019-10-12T14:37:51.914Z</time>
      </trkpt>
      <trkpt lat="20.21779667" lon="-98.72990167">
        <ele>2340.0</ele>
        <time>2019-10-12T14:37:52.919Z</time>
      </trkpt>
      <trkpt lat="20.21780667" lon="-98.729925">
        <ele>2340.0</ele>
        <time>2019-10-12T14:37:53.926Z</time>
      </trkpt>
      <trkpt lat="20.21781333" lon="-98.72994833">
        <ele>2340.0</ele>
        <time>2019-10-12T14:37:54.932Z</time>
      </trkpt>
      <trkpt lat="20.21781667" lon="-98.72997167">
        <ele>2339.0</ele>
        <time>2019-10-12T14:37:55.934Z</time>
      </trkpt>
      <trkpt lat="20.21781833" lon="-98.729995">
        <ele>2339.0</ele>
        <time>2019-10-12T14:37:56.941Z</time>
      </trkpt>
      <trkpt lat="20.21782833" lon="-98.73001667">
        <ele>2339.0</ele>
        <time>2019-10-12T14:37:57.947Z</time>
      </trkpt>
      <trkpt lat="20.21784" lon="-98.73004">
        <ele>2338.0</ele>
        <time>2019-10-12T14:37:58.948Z</time>
      </trkpt>
      <trkpt lat="20.21785" lon="-98.73006333">
        <ele>2338.0</ele>
        <time>2019-10-12T14:37:59.951Z</time>
      </trkpt>
      <trkpt lat="20.217855" lon="-98.73008833">
        <ele>2338.0</ele>
        <time>2019-10-12T14:38:00.831Z</time>
      </trkpt>
      <trkpt lat="20.217855" lon="-98.73011333">
        <ele>2337.0</ele>
        <time>2019-10-12T14:38:01.838Z</time>
      </trkpt>
      <trkpt lat="20.21785833" lon="-98.73013833">
        <ele>2337.0</ele>
        <time>2019-10-12T14:38:02.843Z</time>
      </trkpt>
      <trkpt lat="20.21786167" lon="-98.730165">
        <ele>2336.0</ele>
        <time>2019-10-12T14:38:03.845Z</time>
      </trkpt>
      <trkpt lat="20.21786167" lon="-98.730195">
        <ele>2335.0</ele>
        <time>2019-10-12T14:38:04.849Z</time>
      </trkpt>
      <trkpt lat="20.21786167" lon="-98.73022333">
        <ele>2335.0</ele>
        <time>2019-10-12T14:38:05.852Z</time>
      </trkpt>
      <trkpt lat="20.21786333" lon="-98.73025167">
        <ele>2335.0</ele>
        <time>2019-10-12T14:38:06.858Z</time>
      </trkpt>
      <trkpt lat="20.21786667" lon="-98.73028167">
        <ele>2335.0</ele>
        <time>2019-10-12T14:38:07.864Z</time>
      </trkpt>
      <trkpt lat="20.21787167" lon="-98.73031">
        <ele>2335.0</ele>
        <time>2019-10-12T14:38:08.870Z</time>
      </trkpt>
      <trkpt lat="20.21787333" lon="-98.73034">
        <ele>2335.0</ele>
        <time>2019-10-12T14:38:09.877Z</time>
      </trkpt>
      <trkpt lat="20.217875" lon="-98.73037">
        <ele>2335.0</ele>
        <time>2019-10-12T14:38:10.878Z</time>
      </trkpt>
      <trkpt lat="20.21787833" lon="-98.73039833">
        <ele>2335.0</ele>
        <time>2019-10-12T14:38:11.883Z</time>
      </trkpt>
      <trkpt lat="20.217885" lon="-98.730425">
        <ele>2335.0</ele>
        <time>2019-10-12T14:38:12.887Z</time>
      </trkpt>
      <trkpt lat="20.21788333" lon="-98.73045667">
        <ele>2335.0</ele>
        <time>2019-10-12T14:38:13.894Z</time>
      </trkpt>
      <trkpt lat="20.21787833" lon="-98.73049167">
        <ele>2335.0</ele>
        <time>2019-10-12T14:38:14.901Z</time>
      </trkpt>
      <trkpt lat="20.21787667" lon="-98.73052667">
        <ele>2336.0</ele>
        <time>2019-10-12T14:38:15.908Z</time>
      </trkpt>
      <trkpt lat="20.217875" lon="-98.73055833">
        <ele>2336.0</ele>
        <time>2019-10-12T14:38:16.913Z</time>
      </trkpt>
      <trkpt lat="20.21787833" lon="-98.73057833">
        <ele>2336.0</ele>
        <time>2019-10-12T14:38:17.919Z</time>
      </trkpt>
      <trkpt lat="20.21789" lon="-98.73059667">
        <ele>2336.0</ele>
        <time>2019-10-12T14:38:18.923Z</time>
      </trkpt>
      <trkpt lat="20.21789833" lon="-98.73061333">
        <ele>2336.0</ele>
        <time>2019-10-12T14:38:19.931Z</time>
      </trkpt>
      <trkpt lat="20.2179" lon="-98.73063333">
        <ele>2335.0</ele>
        <time>2019-10-12T14:38:20.934Z</time>
      </trkpt>
      <trkpt lat="20.217905" lon="-98.73064833">
        <ele>2333.0</ele>
        <time>2019-10-12T14:38:21.942Z</time>
      </trkpt>
      <trkpt lat="20.21790833" lon="-98.730665">
        <ele>2332.0</ele>
        <time>2019-10-12T14:38:22.950Z</time>
      </trkpt>
      <trkpt lat="20.21791" lon="-98.73068667">
        <ele>2331.0</ele>
        <time>2019-10-12T14:38:23.955Z</time>
      </trkpt>
      <trkpt lat="20.21790667" lon="-98.73071">
        <ele>2331.0</ele>
        <time>2019-10-12T14:38:24.830Z</time>
      </trkpt>
      <trkpt lat="20.21790333" lon="-98.73072833">
        <ele>2331.0</ele>
        <time>2019-10-12T14:38:25.831Z</time>
      </trkpt>
      <trkpt lat="20.21790333" lon="-98.73074667">
        <ele>2332.0</ele>
        <time>2019-10-12T14:38:26.832Z</time>
      </trkpt>
      <trkpt lat="20.21789667" lon="-98.73076833">
        <ele>2333.0</ele>
        <time>2019-10-12T14:38:27.836Z</time>
      </trkpt>
      <trkpt lat="20.21788667" lon="-98.73079333">
        <ele>2333.0</ele>
        <time>2019-10-12T14:38:28.837Z</time>
      </trkpt>
      <trkpt lat="20.21788" lon="-98.73080833">
        <ele>2333.0</ele>
        <time>2019-10-12T14:38:29.839Z</time>
      </trkpt>
      <trkpt lat="20.21787167" lon="-98.73083333">
        <ele>2333.0</ele>
        <time>2019-10-12T14:38:30.846Z</time>
      </trkpt>
      <trkpt lat="20.21787" lon="-98.730855">
        <ele>2333.0</ele>
        <time>2019-10-12T14:38:31.850Z</time>
      </trkpt>
      <trkpt lat="20.21786833" lon="-98.730885">
        <ele>2333.0</ele>
        <time>2019-10-12T14:38:32.853Z</time>
      </trkpt>
      <trkpt lat="20.21786167" lon="-98.73091833">
        <ele>2334.0</ele>
        <time>2019-10-12T14:38:33.856Z</time>
      </trkpt>
      <trkpt lat="20.21786167" lon="-98.73094333">
        <ele>2335.0</ele>
        <time>2019-10-12T14:38:34.858Z</time>
      </trkpt>
      <trkpt lat="20.21786167" lon="-98.73096667">
        <ele>2335.0</ele>
        <time>2019-10-12T14:38:35.864Z</time>
      </trkpt>
      <trkpt lat="20.21786" lon="-98.73098">
        <ele>2336.0</ele>
        <time>2019-10-12T14:38:36.871Z</time>
      </trkpt>
      <trkpt lat="20.21785667" lon="-98.73099833">
        <ele>2337.0</ele>
        <time>2019-10-12T14:38:37.878Z</time>
      </trkpt>
      <trkpt lat="20.21785167" lon="-98.73102">
        <ele>2338.0</ele>
        <time>2019-10-12T14:38:38.884Z</time>
      </trkpt>
      <trkpt lat="20.21785167" lon="-98.73104167">
        <ele>2339.0</ele>
        <time>2019-10-12T14:38:39.885Z</time>
      </trkpt>
      <trkpt lat="20.21784833" lon="-98.73106333">
        <ele>2338.0</ele>
        <time>2019-10-12T14:38:40.887Z</time>
      </trkpt>
      <trkpt lat="20.21784833" lon="-98.73109167">
        <ele>2338.0</ele>
        <time>2019-10-12T14:38:41.894Z</time>
      </trkpt>
      <trkpt lat="20.21784833" lon="-98.73111333">
        <ele>2338.0</ele>
        <time>2019-10-12T14:38:42.899Z</time>
      </trkpt>
      <trkpt lat="20.21785667" lon="-98.73113167">
        <ele>2338.0</ele>
        <time>2019-10-12T14:38:43.903Z</time>
      </trkpt>
      <trkpt lat="20.21786" lon="-98.73115167">
        <ele>2338.0</ele>
        <time>2019-10-12T14:38:44.908Z</time>
      </trkpt>
      <trkpt lat="20.21786833" lon="-98.73116833">
        <ele>2338.0</ele>
        <time>2019-10-12T14:38:45.916Z</time>
      </trkpt>
      <trkpt lat="20.217875" lon="-98.73118667">
        <ele>2338.0</ele>
        <time>2019-10-12T14:38:46.923Z</time>
      </trkpt>
      <trkpt lat="20.21788" lon="-98.731205">
        <ele>2339.0</ele>
        <time>2019-10-12T14:38:47.929Z</time>
      </trkpt>
      <trkpt lat="20.217885" lon="-98.73122">
        <ele>2339.0</ele>
        <time>2019-10-12T14:38:48.935Z</time>
      </trkpt>
      <trkpt lat="20.21788833" lon="-98.731235">
        <ele>2339.0</ele>
        <time>2019-10-12T14:38:49.936Z</time>
      </trkpt>
      <trkpt lat="20.21789" lon="-98.73125">
        <ele>2339.0</ele>
        <time>2019-10-12T14:38:50.942Z</time>
      </trkpt>
      <trkpt lat="20.21788833" lon="-98.73126333">
        <ele>2339.0</ele>
        <time>2019-10-12T14:38:51.947Z</time>
      </trkpt>
      <trkpt lat="20.217885" lon="-98.73127667">
        <ele>2338.0</ele>
        <time>2019-10-12T14:38:52.954Z</time>
      </trkpt>
      <trkpt lat="20.21789" lon="-98.73129">
        <ele>2337.0</ele>
        <time>2019-10-12T14:38:53.832Z</time>
      </trkpt>
      <trkpt lat="20.21789667" lon="-98.7313">
        <ele>2337.0</ele>
        <time>2019-10-12T14:38:54.833Z</time>
      </trkpt>
      <trkpt lat="20.217905" lon="-98.73131167">
        <ele>2337.0</ele>
        <time>2019-10-12T14:38:55.836Z</time>
      </trkpt>
      <trkpt lat="20.21791333" lon="-98.731325">
        <ele>2337.0</ele>
        <time>2019-10-12T14:38:56.840Z</time>
      </trkpt>
      <trkpt lat="20.21792167" lon="-98.73133833">
        <ele>2337.0</ele>
        <time>2019-10-12T14:38:57.843Z</time>
      </trkpt>
      <trkpt lat="20.21793" lon="-98.73134833">
        <ele>2337.0</ele>
        <time>2019-10-12T14:38:58.845Z</time>
      </trkpt>
      <trkpt lat="20.21793667" lon="-98.73136167">
        <ele>2338.0</ele>
        <time>2019-10-12T14:38:59.847Z</time>
      </trkpt>
      <trkpt lat="20.21794667" lon="-98.731375">
        <ele>2339.0</ele>
        <time>2019-10-12T14:39:00.847Z</time>
      </trkpt>
      <trkpt lat="20.217955" lon="-98.73138667">
        <ele>2339.0</ele>
        <time>2019-10-12T14:39:01.848Z</time>
      </trkpt>
      <trkpt lat="20.21796667" lon="-98.73139667">
        <ele>2339.0</ele>
        <time>2019-10-12T14:39:02.849Z</time>
      </trkpt>
      <trkpt lat="20.21797167" lon="-98.73140833">
        <ele>2339.0</ele>
        <time>2019-10-12T14:39:03.850Z</time>
      </trkpt>
      <trkpt lat="20.21798167" lon="-98.73142167">
        <ele>2339.0</ele>
        <time>2019-10-12T14:39:04.851Z</time>
      </trkpt>
      <trkpt lat="20.21799167" lon="-98.73143167">
        <ele>2338.0</ele>
        <time>2019-10-12T14:39:05.851Z</time>
      </trkpt>
      <trkpt lat="20.218" lon="-98.73144333">
        <ele>2338.0</ele>
        <time>2019-10-12T14:39:06.851Z</time>
      </trkpt>
      <trkpt lat="20.21800333" lon="-98.73145833">
        <ele>2338.0</ele>
        <time>2019-10-12T14:39:07.854Z</time>
      </trkpt>
      <trkpt lat="20.21801" lon="-98.731475">
        <ele>2339.0</ele>
        <time>2019-10-12T14:39:08.858Z</time>
      </trkpt>
      <trkpt lat="20.21802" lon="-98.731495">
        <ele>2339.0</ele>
        <time>2019-10-12T14:39:09.863Z</time>
      </trkpt>
      <trkpt lat="20.21803" lon="-98.73150667">
        <ele>2339.0</ele>
        <time>2019-10-12T14:39:10.866Z</time>
      </trkpt>
      <trkpt lat="20.21803667" lon="-98.73152">
        <ele>2338.0</ele>
        <time>2019-10-12T14:39:11.869Z</time>
      </trkpt>
      <trkpt lat="20.218045" lon="-98.73153">
        <ele>2337.0</ele>
        <time>2019-10-12T14:39:12.874Z</time>
      </trkpt>
      <trkpt lat="20.21805167" lon="-98.73154167">
        <ele>2337.0</ele>
        <time>2019-10-12T14:39:13.878Z</time>
      </trkpt>
      <trkpt lat="20.21806333" lon="-98.73155167">
        <ele>2336.0</ele>
        <time>2019-10-12T14:39:14.886Z</time>
      </trkpt>
      <trkpt lat="20.21807333" lon="-98.73156667">
        <ele>2336.0</ele>
        <time>2019-10-12T14:39:15.889Z</time>
      </trkpt>
      <trkpt lat="20.21808" lon="-98.73157833">
        <ele>2336.0</ele>
        <time>2019-10-12T14:39:16.896Z</time>
      </trkpt>
      <trkpt lat="20.21809" lon="-98.73159">
        <ele>2335.0</ele>
        <time>2019-10-12T14:39:17.902Z</time>
      </trkpt>
      <trkpt lat="20.21810167" lon="-98.7316">
        <ele>2335.0</ele>
        <time>2019-10-12T14:39:18.904Z</time>
      </trkpt>
      <trkpt lat="20.21811" lon="-98.73161333">
        <ele>2336.0</ele>
        <time>2019-10-12T14:39:19.904Z</time>
      </trkpt>
      <trkpt lat="20.21812" lon="-98.73163167">
        <ele>2336.0</ele>
        <time>2019-10-12T14:39:20.907Z</time>
      </trkpt>
      <trkpt lat="20.21813167" lon="-98.73164833">
        <ele>2336.0</ele>
        <time>2019-10-12T14:39:21.910Z</time>
      </trkpt>
      <trkpt lat="20.21814167" lon="-98.73166333">
        <ele>2336.0</ele>
        <time>2019-10-12T14:39:22.914Z</time>
      </trkpt>
      <trkpt lat="20.218155" lon="-98.73167">
        <ele>2336.0</ele>
        <time>2019-10-12T14:39:23.917Z</time>
      </trkpt>
      <trkpt lat="20.21817" lon="-98.73168">
        <ele>2336.0</ele>
        <time>2019-10-12T14:39:24.918Z</time>
      </trkpt>
      <trkpt lat="20.21818333" lon="-98.73169">
        <ele>2336.0</ele>
        <time>2019-10-12T14:39:25.923Z</time>
      </trkpt>
      <trkpt lat="20.21819833" lon="-98.73170333">
        <ele>2336.0</ele>
        <time>2019-10-12T14:39:26.926Z</time>
      </trkpt>
      <trkpt lat="20.21821833" lon="-98.731715">
        <ele>2336.0</ele>
        <time>2019-10-12T14:39:27.932Z</time>
      </trkpt>
      <trkpt lat="20.21823333" lon="-98.73172833">
        <ele>2336.0</ele>
        <time>2019-10-12T14:39:28.939Z</time>
      </trkpt>
      <trkpt lat="20.21824833" lon="-98.73174333">
        <ele>2336.0</ele>
        <time>2019-10-12T14:39:29.942Z</time>
      </trkpt>
      <trkpt lat="20.21826" lon="-98.73175333">
        <ele>2336.0</ele>
        <time>2019-10-12T14:39:30.943Z</time>
      </trkpt>
      <trkpt lat="20.218275" lon="-98.73176667">
        <ele>2336.0</ele>
        <time>2019-10-12T14:39:31.946Z</time>
      </trkpt>
      <trkpt lat="20.21828333" lon="-98.73178333">
        <ele>2336.0</ele>
        <time>2019-10-12T14:39:32.948Z</time>
      </trkpt>
      <trkpt lat="20.21829" lon="-98.7318">
        <ele>2336.0</ele>
        <time>2019-10-12T14:39:33.948Z</time>
      </trkpt>
      <trkpt lat="20.21829667" lon="-98.73182">
        <ele>2335.0</ele>
        <time>2019-10-12T14:39:34.949Z</time>
      </trkpt>
      <trkpt lat="20.21830667" lon="-98.73184">
        <ele>2334.0</ele>
        <time>2019-10-12T14:39:35.949Z</time>
      </trkpt>
      <trkpt lat="20.21831167" lon="-98.73185333">
        <ele>2334.0</ele>
        <time>2019-10-12T14:39:36.952Z</time>
      </trkpt>
      <trkpt lat="20.21831833" lon="-98.73187">
        <ele>2334.0</ele>
        <time>2019-10-12T14:39:37.832Z</time>
      </trkpt>
      <trkpt lat="20.21832333" lon="-98.731885">
        <ele>2335.0</ele>
        <time>2019-10-12T14:39:38.837Z</time>
      </trkpt>
      <trkpt lat="20.21832333" lon="-98.731905">
        <ele>2334.0</ele>
        <time>2019-10-12T14:39:39.843Z</time>
      </trkpt>
      <trkpt lat="20.21832833" lon="-98.731925">
        <ele>2334.0</ele>
        <time>2019-10-12T14:39:40.849Z</time>
      </trkpt>
      <trkpt lat="20.218335" lon="-98.73194">
        <ele>2334.0</ele>
        <time>2019-10-12T14:39:41.852Z</time>
      </trkpt>
      <trkpt lat="20.21833667" lon="-98.73195333">
        <ele>2334.0</ele>
        <time>2019-10-12T14:39:42.854Z</time>
      </trkpt>
      <trkpt lat="20.21834" lon="-98.73197">
        <ele>2335.0</ele>
        <time>2019-10-12T14:39:43.860Z</time>
      </trkpt>
      <trkpt lat="20.218345" lon="-98.73198833">
        <ele>2335.0</ele>
        <time>2019-10-12T14:39:44.864Z</time>
      </trkpt>
      <trkpt lat="20.21834333" lon="-98.73201167">
        <ele>2335.0</ele>
        <time>2019-10-12T14:39:45.869Z</time>
      </trkpt>
      <trkpt lat="20.21834" lon="-98.73203333">
        <ele>2335.0</ele>
        <time>2019-10-12T14:39:46.870Z</time>
      </trkpt>
      <trkpt lat="20.218335" lon="-98.73204667">
        <ele>2336.0</ele>
        <time>2019-10-12T14:39:47.871Z</time>
      </trkpt>
      <trkpt lat="20.21833833" lon="-98.73206667">
        <ele>2336.0</ele>
        <time>2019-10-12T14:39:48.872Z</time>
      </trkpt>
      <trkpt lat="20.21834333" lon="-98.73209167">
        <ele>2337.0</ele>
        <time>2019-10-12T14:39:49.872Z</time>
      </trkpt>
      <trkpt lat="20.21834833" lon="-98.73210833">
        <ele>2337.0</ele>
        <time>2019-10-12T14:39:50.875Z</time>
      </trkpt>
      <trkpt lat="20.218355" lon="-98.732125">
        <ele>2337.0</ele>
        <time>2019-10-12T14:39:51.881Z</time>
      </trkpt>
      <trkpt lat="20.21835833" lon="-98.73214167">
        <ele>2337.0</ele>
        <time>2019-10-12T14:39:52.884Z</time>
      </trkpt>
      <trkpt lat="20.21836167" lon="-98.73215667">
        <ele>2338.0</ele>
        <time>2019-10-12T14:39:53.888Z</time>
      </trkpt>
      <trkpt lat="20.218365" lon="-98.73217">
        <ele>2338.0</ele>
        <time>2019-10-12T14:39:54.893Z</time>
      </trkpt>
      <trkpt lat="20.218365" lon="-98.73218667">
        <ele>2338.0</ele>
        <time>2019-10-12T14:39:55.896Z</time>
      </trkpt>
      <trkpt lat="20.21836667" lon="-98.73220833">
        <ele>2337.0</ele>
        <time>2019-10-12T14:39:56.903Z</time>
      </trkpt>
      <trkpt lat="20.21836667" lon="-98.73222833">
        <ele>2338.0</ele>
        <time>2019-10-12T14:39:57.908Z</time>
      </trkpt>
      <trkpt lat="20.21837" lon="-98.73224667">
        <ele>2338.0</ele>
        <time>2019-10-12T14:39:58.915Z</time>
      </trkpt>
      <trkpt lat="20.21837167" lon="-98.73227">
        <ele>2339.0</ele>
        <time>2019-10-12T14:39:59.917Z</time>
      </trkpt>
      <trkpt lat="20.21837" lon="-98.73229333">
        <ele>2339.0</ele>
        <time>2019-10-12T14:40:00.925Z</time>
      </trkpt>
      <trkpt lat="20.21836833" lon="-98.73231833">
        <ele>2339.0</ele>
        <time>2019-10-12T14:40:01.930Z</time>
      </trkpt>
      <trkpt lat="20.21837" lon="-98.732345">
        <ele>2339.0</ele>
        <time>2019-10-12T14:40:02.937Z</time>
      </trkpt>
      <trkpt lat="20.21837667" lon="-98.732365">
        <ele>2339.0</ele>
        <time>2019-10-12T14:40:03.938Z</time>
      </trkpt>
      <trkpt lat="20.218385" lon="-98.73238833">
        <ele>2338.0</ele>
        <time>2019-10-12T14:40:04.938Z</time>
      </trkpt>
      <trkpt lat="20.21840167" lon="-98.73240167">
        <ele>2338.0</ele>
        <time>2019-10-12T14:40:05.938Z</time>
      </trkpt>
      <trkpt lat="20.21841667" lon="-98.73241333">
        <ele>2338.0</ele>
        <time>2019-10-12T14:40:06.938Z</time>
      </trkpt>
      <trkpt lat="20.21843833" lon="-98.73243167">
        <ele>2339.0</ele>
        <time>2019-10-12T14:40:07.939Z</time>
      </trkpt>
      <trkpt lat="20.21845333" lon="-98.732445">
        <ele>2338.0</ele>
        <time>2019-10-12T14:40:08.939Z</time>
      </trkpt>
      <trkpt lat="20.21846667" lon="-98.73245667">
        <ele>2339.0</ele>
        <time>2019-10-12T14:40:09.939Z</time>
      </trkpt>
      <trkpt lat="20.21848667" lon="-98.73246667">
        <ele>2339.0</ele>
        <time>2019-10-12T14:40:10.940Z</time>
      </trkpt>
      <trkpt lat="20.21851333" lon="-98.73247667">
        <ele>2339.0</ele>
        <time>2019-10-12T14:40:11.941Z</time>
      </trkpt>
      <trkpt lat="20.21852667" lon="-98.73248">
        <ele>2339.0</ele>
        <time>2019-10-12T14:40:12.942Z</time>
      </trkpt>
      <trkpt lat="20.21854167" lon="-98.73247833">
        <ele>2338.0</ele>
        <time>2019-10-12T14:40:13.942Z</time>
      </trkpt>
      <trkpt lat="20.218555" lon="-98.73247167">
        <ele>2339.0</ele>
        <time>2019-10-12T14:40:14.943Z</time>
      </trkpt>
      <trkpt lat="20.21857167" lon="-98.73247167">
        <ele>2338.0</ele>
        <time>2019-10-12T14:40:15.948Z</time>
      </trkpt>
      <trkpt lat="20.21858667" lon="-98.732475">
        <ele>2338.0</ele>
        <time>2019-10-12T14:40:16.952Z</time>
      </trkpt>
      <trkpt lat="20.21860667" lon="-98.73247333">
        <ele>2337.0</ele>
        <time>2019-10-12T14:40:17.831Z</time>
      </trkpt>
      <trkpt lat="20.21862333" lon="-98.73247">
        <ele>2337.0</ele>
        <time>2019-10-12T14:40:18.838Z</time>
      </trkpt>
      <trkpt lat="20.21863833" lon="-98.73246333">
        <ele>2336.0</ele>
        <time>2019-10-12T14:40:19.840Z</time>
      </trkpt>
      <trkpt lat="20.218655" lon="-98.73245">
        <ele>2336.0</ele>
        <time>2019-10-12T14:40:20.844Z</time>
      </trkpt>
      <trkpt lat="20.21867" lon="-98.73244667">
        <ele>2336.0</ele>
        <time>2019-10-12T14:40:21.847Z</time>
      </trkpt>
      <trkpt lat="20.21868333" lon="-98.732445">
        <ele>2336.0</ele>
        <time>2019-10-12T14:40:22.854Z</time>
      </trkpt>
      <trkpt lat="20.218695" lon="-98.73243833">
        <ele>2336.0</ele>
        <time>2019-10-12T14:40:23.859Z</time>
      </trkpt>
      <trkpt lat="20.21871167" lon="-98.73242833">
        <ele>2336.0</ele>
        <time>2019-10-12T14:40:24.866Z</time>
      </trkpt>
      <trkpt lat="20.218735" lon="-98.73241333">
        <ele>2336.0</ele>
        <time>2019-10-12T14:40:25.871Z</time>
      </trkpt>
      <trkpt lat="20.218755" lon="-98.73240667">
        <ele>2336.0</ele>
        <time>2019-10-12T14:40:26.876Z</time>
      </trkpt>
      <trkpt lat="20.21877667" lon="-98.73240667">
        <ele>2336.0</ele>
        <time>2019-10-12T14:40:27.883Z</time>
      </trkpt>
      <trkpt lat="20.218795" lon="-98.73241">
        <ele>2336.0</ele>
        <time>2019-10-12T14:40:28.888Z</time>
      </trkpt>
      <trkpt lat="20.21880833" lon="-98.732415">
        <ele>2336.0</ele>
        <time>2019-10-12T14:40:29.891Z</time>
      </trkpt>
      <trkpt lat="20.21881833" lon="-98.73242333">
        <ele>2335.0</ele>
        <time>2019-10-12T14:40:30.892Z</time>
      </trkpt>
      <trkpt lat="20.21883333" lon="-98.732435">
        <ele>2335.0</ele>
        <time>2019-10-12T14:40:31.892Z</time>
      </trkpt>
      <trkpt lat="20.218845" lon="-98.73245">
        <ele>2335.0</ele>
        <time>2019-10-12T14:40:32.897Z</time>
      </trkpt>
      <trkpt lat="20.21885333" lon="-98.73246333">
        <ele>2335.0</ele>
        <time>2019-10-12T14:40:33.902Z</time>
      </trkpt>
      <trkpt lat="20.218865" lon="-98.73247667">
        <ele>2334.0</ele>
        <time>2019-10-12T14:40:34.906Z</time>
      </trkpt>
      <trkpt lat="20.21887667" lon="-98.73249167">
        <ele>2333.0</ele>
        <time>2019-10-12T14:40:35.911Z</time>
      </trkpt>
      <trkpt lat="20.21889" lon="-98.73250333">
        <ele>2333.0</ele>
        <time>2019-10-12T14:40:36.917Z</time>
      </trkpt>
      <trkpt lat="20.21889833" lon="-98.732515">
        <ele>2333.0</ele>
        <time>2019-10-12T14:40:37.923Z</time>
      </trkpt>
      <trkpt lat="20.21890833" lon="-98.73252667">
        <ele>2333.0</ele>
        <time>2019-10-12T14:40:38.927Z</time>
      </trkpt>
      <trkpt lat="20.21892" lon="-98.73254">
        <ele>2333.0</ele>
        <time>2019-10-12T14:40:39.930Z</time>
      </trkpt>
      <trkpt lat="20.21893" lon="-98.73255167">
        <ele>2333.0</ele>
        <time>2019-10-12T14:40:40.931Z</time>
      </trkpt>
      <trkpt lat="20.21894" lon="-98.732565">
        <ele>2333.0</ele>
        <time>2019-10-12T14:40:41.933Z</time>
      </trkpt>
      <trkpt lat="20.21895333" lon="-98.73257667">
        <ele>2333.0</ele>
        <time>2019-10-12T14:40:42.939Z</time>
      </trkpt>
      <trkpt lat="20.21896833" lon="-98.73258167">
        <ele>2332.0</ele>
        <time>2019-10-12T14:40:43.945Z</time>
      </trkpt>
      <trkpt lat="20.21898" lon="-98.73259">
        <ele>2332.0</ele>
        <time>2019-10-12T14:40:44.950Z</time>
      </trkpt>
      <trkpt lat="20.21899667" lon="-98.73260333">
        <ele>2331.0</ele>
        <time>2019-10-12T14:40:45.951Z</time>
      </trkpt>
      <trkpt lat="20.21900833" lon="-98.73261167">
        <ele>2330.0</ele>
        <time>2019-10-12T14:40:46.953Z</time>
      </trkpt>
      <trkpt lat="20.219025" lon="-98.73263">
        <ele>2329.0</ele>
        <time>2019-10-12T14:40:47.833Z</time>
      </trkpt>
      <trkpt lat="20.21903667" lon="-98.73265167">
        <ele>2329.0</ele>
        <time>2019-10-12T14:40:48.840Z</time>
      </trkpt>
      <trkpt lat="20.21904667" lon="-98.73267667">
        <ele>2329.0</ele>
        <time>2019-10-12T14:40:49.845Z</time>
      </trkpt>
      <trkpt lat="20.21904667" lon="-98.73270167">
        <ele>2330.0</ele>
        <time>2019-10-12T14:40:50.845Z</time>
      </trkpt>
      <trkpt lat="20.21905667" lon="-98.73272167">
        <ele>2330.0</ele>
        <time>2019-10-12T14:40:51.846Z</time>
      </trkpt>
      <trkpt lat="20.21906333" lon="-98.73273167">
        <ele>2331.0</ele>
        <time>2019-10-12T14:40:52.846Z</time>
      </trkpt>
      <trkpt lat="20.21907333" lon="-98.73274833">
        <ele>2332.0</ele>
        <time>2019-10-12T14:40:53.846Z</time>
      </trkpt>
      <trkpt lat="20.21908" lon="-98.73276833">
        <ele>2333.0</ele>
        <time>2019-10-12T14:40:54.847Z</time>
      </trkpt>
      <trkpt lat="20.219085" lon="-98.73278333">
        <ele>2333.0</ele>
        <time>2019-10-12T14:40:55.848Z</time>
      </trkpt>
      <trkpt lat="20.21908667" lon="-98.732815">
        <ele>2333.0</ele>
        <time>2019-10-12T14:40:56.849Z</time>
      </trkpt>
      <trkpt lat="20.21908667" lon="-98.73284333">
        <ele>2333.0</ele>
        <time>2019-10-12T14:40:57.850Z</time>
      </trkpt>
      <trkpt lat="20.219085" lon="-98.73287">
        <ele>2333.0</ele>
        <time>2019-10-12T14:40:58.856Z</time>
      </trkpt>
      <trkpt lat="20.219085" lon="-98.732895">
        <ele>2333.0</ele>
        <time>2019-10-12T14:40:59.864Z</time>
      </trkpt>
      <trkpt lat="20.21908333" lon="-98.73293">
        <ele>2332.0</ele>
        <time>2019-10-12T14:41:00.870Z</time>
      </trkpt>
      <trkpt lat="20.21908833" lon="-98.73295667">
        <ele>2332.0</ele>
        <time>2019-10-12T14:41:01.873Z</time>
      </trkpt>
      <trkpt lat="20.21909833" lon="-98.73297833">
        <ele>2332.0</ele>
        <time>2019-10-12T14:41:02.876Z</time>
      </trkpt>
      <trkpt lat="20.21910833" lon="-98.733005">
        <ele>2332.0</ele>
        <time>2019-10-12T14:41:03.880Z</time>
      </trkpt>
      <trkpt lat="20.21911333" lon="-98.73302167">
        <ele>2332.0</ele>
        <time>2019-10-12T14:41:04.886Z</time>
      </trkpt>
      <trkpt lat="20.21913167" lon="-98.73303667">
        <ele>2332.0</ele>
        <time>2019-10-12T14:41:05.890Z</time>
      </trkpt>
      <trkpt lat="20.21915167" lon="-98.73305">
        <ele>2332.0</ele>
        <time>2019-10-12T14:41:06.894Z</time>
      </trkpt>
      <trkpt lat="20.219175" lon="-98.733065">
        <ele>2332.0</ele>
        <time>2019-10-12T14:41:07.899Z</time>
      </trkpt>
      <trkpt lat="20.21919667" lon="-98.73307833">
        <ele>2333.0</ele>
        <time>2019-10-12T14:41:08.900Z</time>
      </trkpt>
      <trkpt lat="20.21921667" lon="-98.733095">
        <ele>2333.0</ele>
        <time>2019-10-12T14:41:09.902Z</time>
      </trkpt>
      <trkpt lat="20.21923333" lon="-98.73311333">
        <ele>2333.0</ele>
        <time>2019-10-12T14:41:10.906Z</time>
      </trkpt>
      <trkpt lat="20.219255" lon="-98.73312">
        <ele>2333.0</ele>
        <time>2019-10-12T14:41:11.911Z</time>
      </trkpt>
      <trkpt lat="20.21927833" lon="-98.733125">
        <ele>2334.0</ele>
        <time>2019-10-12T14:41:12.916Z</time>
      </trkpt>
      <trkpt lat="20.21930167" lon="-98.73313667">
        <ele>2334.0</ele>
        <time>2019-10-12T14:41:13.922Z</time>
      </trkpt>
      <trkpt lat="20.219315" lon="-98.733145">
        <ele>2335.0</ele>
        <time>2019-10-12T14:41:14.924Z</time>
      </trkpt>
      <trkpt lat="20.21932333" lon="-98.73315333">
        <ele>2335.0</ele>
        <time>2019-10-12T14:41:15.927Z</time>
      </trkpt>
      <trkpt lat="20.21933333" lon="-98.73316167">
        <ele>2335.0</ele>
        <time>2019-10-12T14:41:16.928Z</time>
      </trkpt>
      <trkpt lat="20.21933" lon="-98.733175">
        <ele>2334.0</ele>
        <time>2019-10-12T14:41:17.928Z</time>
      </trkpt>
      <trkpt lat="20.21932167" lon="-98.73318167">
        <ele>2334.0</ele>
        <time>2019-10-12T14:41:18.928Z</time>
      </trkpt>
      <trkpt lat="20.21931667" lon="-98.73318667">
        <ele>2334.0</ele>
        <time>2019-10-12T14:41:19.928Z</time>
      </trkpt>
      <trkpt lat="20.21931" lon="-98.73319167">
        <ele>2334.0</ele>
        <time>2019-10-12T14:41:20.929Z</time>
      </trkpt>
      <trkpt lat="20.219305" lon="-98.73319167">
        <ele>2334.0</ele>
        <time>2019-10-12T14:41:21.929Z</time>
      </trkpt>
      <trkpt lat="20.21930167" lon="-98.733195">
        <ele>2334.0</ele>
        <time>2019-10-12T14:41:22.933Z</time>
      </trkpt>
      <trkpt lat="20.21929333" lon="-98.73319833">
        <ele>2334.0</ele>
        <time>2019-10-12T14:41:23.937Z</time>
      </trkpt>
      <trkpt lat="20.21928333" lon="-98.73321">
        <ele>2333.0</ele>
        <time>2019-10-12T14:41:24.937Z</time>
      </trkpt>
      <trkpt lat="20.21928333" lon="-98.73321">
        <ele>2333.0</ele>
        <time>2019-10-12T14:41:25.941Z</time>
      </trkpt>
      <trkpt lat="20.21928" lon="-98.73321333">
        <ele>2333.0</ele>
        <time>2019-10-12T14:41:26.943Z</time>
      </trkpt>
      <trkpt lat="20.21927833" lon="-98.73321333">
        <ele>2334.0</ele>
        <time>2019-10-12T14:41:27.951Z</time>
      </trkpt>
      <trkpt lat="20.21927667" lon="-98.73321667">
        <ele>2334.0</ele>
        <time>2019-10-12T14:41:28.832Z</time>
      </trkpt>
      <trkpt lat="20.21926833" lon="-98.73322333">
        <ele>2333.0</ele>
        <time>2019-10-12T14:41:29.838Z</time>
      </trkpt>
      <trkpt lat="20.21926667" lon="-98.73322833">
        <ele>2333.0</ele>
        <time>2019-10-12T14:41:30.840Z</time>
      </trkpt>
      <trkpt lat="20.21927" lon="-98.73322667">
        <ele>2333.0</ele>
        <time>2019-10-12T14:41:31.841Z</time>
      </trkpt>
      <trkpt lat="20.21927" lon="-98.73322667">
        <ele>2333.0</ele>
        <time>2019-10-12T14:41:32.842Z</time>
      </trkpt>
      <trkpt lat="20.21927" lon="-98.73322667">
        <ele>2333.0</ele>
        <time>2019-10-12T14:41:33.843Z</time>
      </trkpt>
      <trkpt lat="20.21927" lon="-98.73322667">
        <ele>2333.0</ele>
        <time>2019-10-12T14:41:34.848Z</time>
      </trkpt>
      <trkpt lat="20.21927" lon="-98.73322667">
        <ele>2333.0</ele>
        <time>2019-10-12T14:41:35.855Z</time>
      </trkpt>
      <trkpt lat="20.21927" lon="-98.73322667">
        <ele>2333.0</ele>
        <time>2019-10-12T14:41:36.860Z</time>
      </trkpt>
      <trkpt lat="20.21927" lon="-98.73322667">
        <ele>2333.0</ele>
        <time>2019-10-12T14:41:37.864Z</time>
      </trkpt>
      <trkpt lat="20.21927" lon="-98.73322667">
        <ele>2333.0</ele>
        <time>2019-10-12T14:41:38.867Z</time>
      </trkpt>
      <trkpt lat="20.21927" lon="-98.73322667">
        <ele>2333.0</ele>
        <time>2019-10-12T14:41:39.874Z</time>
      </trkpt>
      <trkpt lat="20.219275" lon="-98.73322833">
        <ele>2333.0</ele>
        <time>2019-10-12T14:41:40.879Z</time>
      </trkpt>
      <trkpt lat="20.21930167" lon="-98.733235">
        <ele>2333.0</ele>
        <time>2019-10-12T14:41:41.880Z</time>
      </trkpt>
      <trkpt lat="20.21933333" lon="-98.73323833">
        <ele>2333.0</ele>
        <time>2019-10-12T14:41:42.881Z</time>
      </trkpt>
      <trkpt lat="20.21936" lon="-98.73324167">
        <ele>2333.0</ele>
        <time>2019-10-12T14:41:43.881Z</time>
      </trkpt>
      <trkpt lat="20.21939" lon="-98.733245">
        <ele>2332.0</ele>
        <time>2019-10-12T14:41:44.883Z</time>
      </trkpt>
      <trkpt lat="20.21942333" lon="-98.73324167">
        <ele>2332.0</ele>
        <time>2019-10-12T14:41:45.884Z</time>
      </trkpt>
      <trkpt lat="20.21945333" lon="-98.73323667">
        <ele>2332.0</ele>
        <time>2019-10-12T14:41:46.884Z</time>
      </trkpt>
      <trkpt lat="20.219485" lon="-98.733235">
        <ele>2331.0</ele>
        <time>2019-10-12T14:41:47.885Z</time>
      </trkpt>
      <trkpt lat="20.21951" lon="-98.73323167">
        <ele>2331.0</ele>
        <time>2019-10-12T14:41:48.886Z</time>
      </trkpt>
      <trkpt lat="20.219545" lon="-98.73322667">
        <ele>2330.0</ele>
        <time>2019-10-12T14:41:49.887Z</time>
      </trkpt>
      <trkpt lat="20.21957167" lon="-98.73322">
        <ele>2330.0</ele>
        <time>2019-10-12T14:41:50.887Z</time>
      </trkpt>
      <trkpt lat="20.21959833" lon="-98.73320833">
        <ele>2329.0</ele>
        <time>2019-10-12T14:41:51.891Z</time>
      </trkpt>
      <trkpt lat="20.21961833" lon="-98.733195">
        <ele>2329.0</ele>
        <time>2019-10-12T14:41:52.897Z</time>
      </trkpt>
      <trkpt lat="20.21964667" lon="-98.73318333">
        <ele>2329.0</ele>
        <time>2019-10-12T14:41:53.902Z</time>
      </trkpt>
      <trkpt lat="20.21967333" lon="-98.73316833">
        <ele>2329.0</ele>
        <time>2019-10-12T14:41:54.907Z</time>
      </trkpt>
      <trkpt lat="20.2197" lon="-98.73315333">
        <ele>2329.0</ele>
        <time>2019-10-12T14:41:55.914Z</time>
      </trkpt>
      <trkpt lat="20.21972667" lon="-98.73313833">
        <ele>2329.0</ele>
        <time>2019-10-12T14:41:56.914Z</time>
      </trkpt>
      <trkpt lat="20.21975167" lon="-98.73312">
        <ele>2329.0</ele>
        <time>2019-10-12T14:41:57.918Z</time>
      </trkpt>
      <trkpt lat="20.21978" lon="-98.73311167">
        <ele>2329.0</ele>
        <time>2019-10-12T14:41:58.921Z</time>
      </trkpt>
      <trkpt lat="20.21980667" lon="-98.73310167">
        <ele>2330.0</ele>
        <time>2019-10-12T14:41:59.925Z</time>
      </trkpt>
      <trkpt lat="20.21983333" lon="-98.73309833">
        <ele>2330.0</ele>
        <time>2019-10-12T14:42:00.927Z</time>
      </trkpt>
      <trkpt lat="20.21986" lon="-98.73309667">
        <ele>2329.0</ele>
        <time>2019-10-12T14:42:01.929Z</time>
      </trkpt>
      <trkpt lat="20.219885" lon="-98.73309833">
        <ele>2329.0</ele>
        <time>2019-10-12T14:42:02.930Z</time>
      </trkpt>
      <trkpt lat="20.21991167" lon="-98.73309667">
        <ele>2329.0</ele>
        <time>2019-10-12T14:42:03.933Z</time>
      </trkpt>
      <trkpt lat="20.219935" lon="-98.73309667">
        <ele>2329.0</ele>
        <time>2019-10-12T14:42:04.941Z</time>
      </trkpt>
      <trkpt lat="20.21997" lon="-98.73310167">
        <ele>2331.0</ele>
        <time>2019-10-12T14:42:05.944Z</time>
      </trkpt>
      <trkpt lat="20.219995" lon="-98.73310167">
        <ele>2331.0</ele>
        <time>2019-10-12T14:42:06.949Z</time>
      </trkpt>
      <trkpt lat="20.220025" lon="-98.73310167">
        <ele>2331.0</ele>
        <time>2019-10-12T14:42:07.830Z</time>
      </trkpt>
      <trkpt lat="20.22004333" lon="-98.7331">
        <ele>2330.0</ele>
        <time>2019-10-12T14:42:08.835Z</time>
      </trkpt>
      <trkpt lat="20.220065" lon="-98.73309667">
        <ele>2329.0</ele>
        <time>2019-10-12T14:42:09.836Z</time>
      </trkpt>
      <trkpt lat="20.22008333" lon="-98.73309167">
        <ele>2328.0</ele>
        <time>2019-10-12T14:42:10.837Z</time>
      </trkpt>
      <trkpt lat="20.22010833" lon="-98.73308333">
        <ele>2327.0</ele>
        <time>2019-10-12T14:42:11.841Z</time>
      </trkpt>
      <trkpt lat="20.22013333" lon="-98.733075">
        <ele>2327.0</ele>
        <time>2019-10-12T14:42:12.847Z</time>
      </trkpt>
      <trkpt lat="20.220155" lon="-98.73307167">
        <ele>2328.0</ele>
        <time>2019-10-12T14:42:13.853Z</time>
      </trkpt>
      <trkpt lat="20.22017667" lon="-98.73307667">
        <ele>2328.0</ele>
        <time>2019-10-12T14:42:14.860Z</time>
      </trkpt>
      <trkpt lat="20.22019667" lon="-98.73307667">
        <ele>2328.0</ele>
        <time>2019-10-12T14:42:15.863Z</time>
      </trkpt>
      <trkpt lat="20.22022" lon="-98.73307833">
        <ele>2328.0</ele>
        <time>2019-10-12T14:42:16.869Z</time>
      </trkpt>
      <trkpt lat="20.22024167" lon="-98.73308333">
        <ele>2328.0</ele>
        <time>2019-10-12T14:42:17.875Z</time>
      </trkpt>
      <trkpt lat="20.22025667" lon="-98.73309167">
        <ele>2328.0</ele>
        <time>2019-10-12T14:42:18.881Z</time>
      </trkpt>
      <trkpt lat="20.22026833" lon="-98.733105">
        <ele>2328.0</ele>
        <time>2019-10-12T14:42:19.887Z</time>
      </trkpt>
      <trkpt lat="20.22027333" lon="-98.73311667">
        <ele>2329.0</ele>
        <time>2019-10-12T14:42:20.894Z</time>
      </trkpt>
      <trkpt lat="20.220275" lon="-98.73313167">
        <ele>2329.0</ele>
        <time>2019-10-12T14:42:21.897Z</time>
      </trkpt>
      <trkpt lat="20.22027833" lon="-98.733145">
        <ele>2329.0</ele>
        <time>2019-10-12T14:42:22.902Z</time>
      </trkpt>
      <trkpt lat="20.22028167" lon="-98.73316">
        <ele>2330.0</ele>
        <time>2019-10-12T14:42:23.905Z</time>
      </trkpt>
      <trkpt lat="20.22028833" lon="-98.733175">
        <ele>2330.0</ele>
        <time>2019-10-12T14:42:24.906Z</time>
      </trkpt>
      <trkpt lat="20.220295" lon="-98.73319333">
        <ele>2330.0</ele>
        <time>2019-10-12T14:42:25.906Z</time>
      </trkpt>
      <trkpt lat="20.22030333" lon="-98.73321667">
        <ele>2330.0</ele>
        <time>2019-10-12T14:42:26.906Z</time>
      </trkpt>
      <trkpt lat="20.22031167" lon="-98.73323333">
        <ele>2330.0</ele>
        <time>2019-10-12T14:42:27.906Z</time>
      </trkpt>
      <trkpt lat="20.22032167" lon="-98.73325167">
        <ele>2330.0</ele>
        <time>2019-10-12T14:42:28.910Z</time>
      </trkpt>
      <trkpt lat="20.22033167" lon="-98.73327333">
        <ele>2330.0</ele>
        <time>2019-10-12T14:42:29.916Z</time>
      </trkpt>
      <trkpt lat="20.22034333" lon="-98.73329333">
        <ele>2330.0</ele>
        <time>2019-10-12T14:42:30.921Z</time>
      </trkpt>
      <trkpt lat="20.22035833" lon="-98.73330833">
        <ele>2330.0</ele>
        <time>2019-10-12T14:42:31.924Z</time>
      </trkpt>
      <trkpt lat="20.220375" lon="-98.73331833">
        <ele>2329.0</ele>
        <time>2019-10-12T14:42:32.929Z</time>
      </trkpt>
      <trkpt lat="20.22039" lon="-98.73333">
        <ele>2328.0</ele>
        <time>2019-10-12T14:42:33.934Z</time>
      </trkpt>
      <trkpt lat="20.220405" lon="-98.73334">
        <ele>2328.0</ele>
        <time>2019-10-12T14:42:34.937Z</time>
      </trkpt>
      <trkpt lat="20.22042" lon="-98.73334333">
        <ele>2328.0</ele>
        <time>2019-10-12T14:42:35.942Z</time>
      </trkpt>
      <trkpt lat="20.220435" lon="-98.73334667">
        <ele>2327.0</ele>
        <time>2019-10-12T14:42:36.947Z</time>
      </trkpt>
      <trkpt lat="20.22045" lon="-98.73334833">
        <ele>2327.0</ele>
        <time>2019-10-12T14:42:37.954Z</time>
      </trkpt>
      <trkpt lat="20.22047167" lon="-98.73335">
        <ele>2327.0</ele>
        <time>2019-10-12T14:42:38.831Z</time>
      </trkpt>
      <trkpt lat="20.22048667" lon="-98.73335333">
        <ele>2326.0</ele>
        <time>2019-10-12T14:42:39.834Z</time>
      </trkpt>
      <trkpt lat="20.22049833" lon="-98.733355">
        <ele>2326.0</ele>
        <time>2019-10-12T14:42:40.838Z</time>
      </trkpt>
      <trkpt lat="20.22051" lon="-98.733355">
        <ele>2326.0</ele>
        <time>2019-10-12T14:42:41.844Z</time>
      </trkpt>
      <trkpt lat="20.22052333" lon="-98.73336167">
        <ele>2326.0</ele>
        <time>2019-10-12T14:42:42.847Z</time>
      </trkpt>
      <trkpt lat="20.22053833" lon="-98.73337333">
        <ele>2326.0</ele>
        <time>2019-10-12T14:42:43.847Z</time>
      </trkpt>
      <trkpt lat="20.22055167" lon="-98.733385">
        <ele>2326.0</ele>
        <time>2019-10-12T14:42:44.847Z</time>
      </trkpt>
      <trkpt lat="20.22056333" lon="-98.73339333">
        <ele>2326.0</ele>
        <time>2019-10-12T14:42:45.848Z</time>
      </trkpt>
      <trkpt lat="20.220575" lon="-98.73340333">
        <ele>2326.0</ele>
        <time>2019-10-12T14:42:46.849Z</time>
      </trkpt>
      <trkpt lat="20.22058833" lon="-98.733415">
        <ele>2326.0</ele>
        <time>2019-10-12T14:42:47.850Z</time>
      </trkpt>
      <trkpt lat="20.2206" lon="-98.73342833">
        <ele>2326.0</ele>
        <time>2019-10-12T14:42:48.850Z</time>
      </trkpt>
      <trkpt lat="20.22061333" lon="-98.73344833">
        <ele>2326.0</ele>
        <time>2019-10-12T14:42:49.851Z</time>
      </trkpt>
      <trkpt lat="20.22062" lon="-98.733465">
        <ele>2326.0</ele>
        <time>2019-10-12T14:42:50.852Z</time>
      </trkpt>
      <trkpt lat="20.22063" lon="-98.733485">
        <ele>2326.0</ele>
        <time>2019-10-12T14:42:51.853Z</time>
      </trkpt>
      <trkpt lat="20.22064333" lon="-98.733505">
        <ele>2325.0</ele>
        <time>2019-10-12T14:42:52.858Z</time>
      </trkpt>
      <trkpt lat="20.22066167" lon="-98.73352">
        <ele>2325.0</ele>
        <time>2019-10-12T14:42:53.865Z</time>
      </trkpt>
      <trkpt lat="20.22068167" lon="-98.73353">
        <ele>2325.0</ele>
        <time>2019-10-12T14:42:54.867Z</time>
      </trkpt>
      <trkpt lat="20.220695" lon="-98.73353667">
        <ele>2325.0</ele>
        <time>2019-10-12T14:42:55.872Z</time>
      </trkpt>
      <trkpt lat="20.220715" lon="-98.73354833">
        <ele>2325.0</ele>
        <time>2019-10-12T14:42:56.877Z</time>
      </trkpt>
      <trkpt lat="20.22073667" lon="-98.73355833">
        <ele>2324.0</ele>
        <time>2019-10-12T14:42:57.879Z</time>
      </trkpt>
      <trkpt lat="20.22076333" lon="-98.733565">
        <ele>2324.0</ele>
        <time>2019-10-12T14:42:58.880Z</time>
      </trkpt>
      <trkpt lat="20.22078333" lon="-98.73357333">
        <ele>2324.0</ele>
        <time>2019-10-12T14:42:59.882Z</time>
      </trkpt>
      <trkpt lat="20.22080167" lon="-98.73357333">
        <ele>2323.0</ele>
        <time>2019-10-12T14:43:00.887Z</time>
      </trkpt>
      <trkpt lat="20.22081667" lon="-98.73357667">
        <ele>2323.0</ele>
        <time>2019-10-12T14:43:01.890Z</time>
      </trkpt>
      <trkpt lat="20.22083667" lon="-98.733585">
        <ele>2322.0</ele>
        <time>2019-10-12T14:43:02.896Z</time>
      </trkpt>
      <trkpt lat="20.22085" lon="-98.73359333">
        <ele>2322.0</ele>
        <time>2019-10-12T14:43:03.903Z</time>
      </trkpt>
      <trkpt lat="20.22087" lon="-98.73359333">
        <ele>2321.0</ele>
        <time>2019-10-12T14:43:04.908Z</time>
      </trkpt>
      <trkpt lat="20.22088333" lon="-98.73360167">
        <ele>2321.0</ele>
        <time>2019-10-12T14:43:05.911Z</time>
      </trkpt>
      <trkpt lat="20.22089167" lon="-98.73361167">
        <ele>2321.0</ele>
        <time>2019-10-12T14:43:06.917Z</time>
      </trkpt>
      <trkpt lat="20.22089333" lon="-98.73363">
        <ele>2321.0</ele>
        <time>2019-10-12T14:43:07.923Z</time>
      </trkpt>
      <trkpt lat="20.22089667" lon="-98.73365333">
        <ele>2321.0</ele>
        <time>2019-10-12T14:43:08.928Z</time>
      </trkpt>
      <trkpt lat="20.22090167" lon="-98.733675">
        <ele>2322.0</ele>
        <time>2019-10-12T14:43:09.929Z</time>
      </trkpt>
      <trkpt lat="20.22090333" lon="-98.733705">
        <ele>2322.0</ele>
        <time>2019-10-12T14:43:10.930Z</time>
      </trkpt>
      <trkpt lat="20.22090333" lon="-98.73373333">
        <ele>2323.0</ele>
        <time>2019-10-12T14:43:11.936Z</time>
      </trkpt>
      <trkpt lat="20.22090167" lon="-98.73375667">
        <ele>2324.0</ele>
        <time>2019-10-12T14:43:12.943Z</time>
      </trkpt>
      <trkpt lat="20.22088833" lon="-98.73378333">
        <ele>2325.0</ele>
        <time>2019-10-12T14:43:13.948Z</time>
      </trkpt>
      <trkpt lat="20.22087167" lon="-98.73380333">
        <ele>2326.0</ele>
        <time>2019-10-12T14:43:14.954Z</time>
      </trkpt>
      <trkpt lat="20.22086" lon="-98.73382667">
        <ele>2327.0</ele>
        <time>2019-10-12T14:43:15.831Z</time>
      </trkpt>
      <trkpt lat="20.22085833" lon="-98.73385667">
        <ele>2328.0</ele>
        <time>2019-10-12T14:43:16.835Z</time>
      </trkpt>
      <trkpt lat="20.220855" lon="-98.73389">
        <ele>2329.0</ele>
        <time>2019-10-12T14:43:17.840Z</time>
      </trkpt>
      <trkpt lat="20.22085333" lon="-98.73393167">
        <ele>2330.0</ele>
        <time>2019-10-12T14:43:18.845Z</time>
      </trkpt>
      <trkpt lat="20.22085333" lon="-98.733965">
        <ele>2330.0</ele>
        <time>2019-10-12T14:43:19.847Z</time>
      </trkpt>
      <trkpt lat="20.22085" lon="-98.733995">
        <ele>2331.0</ele>
        <time>2019-10-12T14:43:20.852Z</time>
      </trkpt>
      <trkpt lat="20.22084667" lon="-98.73401667">
        <ele>2331.0</ele>
        <time>2019-10-12T14:43:21.853Z</time>
      </trkpt>
      <trkpt lat="20.22085333" lon="-98.73404333">
        <ele>2332.0</ele>
        <time>2019-10-12T14:43:22.855Z</time>
      </trkpt>
      <trkpt lat="20.22086167" lon="-98.73407333">
        <ele>2332.0</ele>
        <time>2019-10-12T14:43:23.857Z</time>
      </trkpt>
      <trkpt lat="20.22087667" lon="-98.73409833">
        <ele>2331.0</ele>
        <time>2019-10-12T14:43:24.860Z</time>
      </trkpt>
      <trkpt lat="20.220895" lon="-98.73412833">
        <ele>2331.0</ele>
        <time>2019-10-12T14:43:25.864Z</time>
      </trkpt>
      <trkpt lat="20.220915" lon="-98.73414833">
        <ele>2330.0</ele>
        <time>2019-10-12T14:43:26.869Z</time>
      </trkpt>
      <trkpt lat="20.22094" lon="-98.734165">
        <ele>2330.0</ele>
        <time>2019-10-12T14:43:27.873Z</time>
      </trkpt>
      <trkpt lat="20.22096667" lon="-98.73417833">
        <ele>2330.0</ele>
        <time>2019-10-12T14:43:28.876Z</time>
      </trkpt>
      <trkpt lat="20.22099" lon="-98.734175">
        <ele>2329.0</ele>
        <time>2019-10-12T14:43:29.879Z</time>
      </trkpt>
      <trkpt lat="20.22101833" lon="-98.73417167">
        <ele>2329.0</ele>
        <time>2019-10-12T14:43:30.880Z</time>
      </trkpt>
      <trkpt lat="20.22105167" lon="-98.73417167">
        <ele>2330.0</ele>
        <time>2019-10-12T14:43:31.880Z</time>
      </trkpt>
      <trkpt lat="20.22107833" lon="-98.73417">
        <ele>2330.0</ele>
        <time>2019-10-12T14:43:32.881Z</time>
      </trkpt>
      <trkpt lat="20.22110167" lon="-98.73417833">
        <ele>2330.0</ele>
        <time>2019-10-12T14:43:33.882Z</time>
      </trkpt>
      <trkpt lat="20.22112667" lon="-98.73418167">
        <ele>2330.0</ele>
        <time>2019-10-12T14:43:34.883Z</time>
      </trkpt>
      <trkpt lat="20.22114667" lon="-98.73418167">
        <ele>2329.0</ele>
        <time>2019-10-12T14:43:35.884Z</time>
      </trkpt>
      <trkpt lat="20.22117" lon="-98.73418667">
        <ele>2328.0</ele>
        <time>2019-10-12T14:43:36.885Z</time>
      </trkpt>
      <trkpt lat="20.22119" lon="-98.73419833">
        <ele>2327.0</ele>
        <time>2019-10-12T14:43:37.885Z</time>
      </trkpt>
      <trkpt lat="20.22121" lon="-98.734205">
        <ele>2326.0</ele>
        <time>2019-10-12T14:43:38.886Z</time>
      </trkpt>
      <trkpt lat="20.22123" lon="-98.734215">
        <ele>2325.0</ele>
        <time>2019-10-12T14:43:39.887Z</time>
      </trkpt>
      <trkpt lat="20.22125333" lon="-98.73422667">
        <ele>2325.0</ele>
        <time>2019-10-12T14:43:40.887Z</time>
      </trkpt>
      <trkpt lat="20.22128" lon="-98.734235">
        <ele>2326.0</ele>
        <time>2019-10-12T14:43:41.888Z</time>
      </trkpt>
      <trkpt lat="20.22130667" lon="-98.73423833">
        <ele>2326.0</ele>
        <time>2019-10-12T14:43:42.888Z</time>
      </trkpt>
      <trkpt lat="20.22133333" lon="-98.73424">
        <ele>2326.0</ele>
        <time>2019-10-12T14:43:43.889Z</time>
      </trkpt>
      <trkpt lat="20.22135333" lon="-98.73424333">
        <ele>2326.0</ele>
        <time>2019-10-12T14:43:44.890Z</time>
      </trkpt>
      <trkpt lat="20.22137333" lon="-98.73424167">
        <ele>2325.0</ele>
        <time>2019-10-12T14:43:45.891Z</time>
      </trkpt>
      <trkpt lat="20.22139" lon="-98.734245">
        <ele>2324.0</ele>
        <time>2019-10-12T14:43:46.892Z</time>
      </trkpt>
      <trkpt lat="20.22140833" lon="-98.734245">
        <ele>2322.0</ele>
        <time>2019-10-12T14:43:47.892Z</time>
      </trkpt>
      <trkpt lat="20.22142667" lon="-98.73424667">
        <ele>2320.0</ele>
        <time>2019-10-12T14:43:48.893Z</time>
      </trkpt>
      <trkpt lat="20.22144333" lon="-98.734255">
        <ele>2319.0</ele>
        <time>2019-10-12T14:43:49.894Z</time>
      </trkpt>
      <trkpt lat="20.22145667" lon="-98.734265">
        <ele>2318.0</ele>
        <time>2019-10-12T14:43:50.895Z</time>
      </trkpt>
      <trkpt lat="20.22147" lon="-98.73427333">
        <ele>2317.0</ele>
        <time>2019-10-12T14:43:51.896Z</time>
      </trkpt>
      <trkpt lat="20.22147833" lon="-98.73428833">
        <ele>2316.0</ele>
        <time>2019-10-12T14:43:52.900Z</time>
      </trkpt>
      <trkpt lat="20.221485" lon="-98.73430333">
        <ele>2315.0</ele>
        <time>2019-10-12T14:43:53.906Z</time>
      </trkpt>
      <trkpt lat="20.22149167" lon="-98.73432333">
        <ele>2315.0</ele>
        <time>2019-10-12T14:43:54.911Z</time>
      </trkpt>
      <trkpt lat="20.221495" lon="-98.73434">
        <ele>2314.0</ele>
        <time>2019-10-12T14:43:55.917Z</time>
      </trkpt>
      <trkpt lat="20.22149833" lon="-98.73436">
        <ele>2314.0</ele>
        <time>2019-10-12T14:43:56.921Z</time>
      </trkpt>
      <trkpt lat="20.221505" lon="-98.73438167">
        <ele>2314.0</ele>
        <time>2019-10-12T14:43:57.922Z</time>
      </trkpt>
      <trkpt lat="20.22151" lon="-98.73440333">
        <ele>2314.0</ele>
        <time>2019-10-12T14:43:58.923Z</time>
      </trkpt>
      <trkpt lat="20.22152167" lon="-98.73443333">
        <ele>2314.0</ele>
        <time>2019-10-12T14:43:59.926Z</time>
      </trkpt>
      <trkpt lat="20.22153833" lon="-98.73445667">
        <ele>2314.0</ele>
        <time>2019-10-12T14:44:00.929Z</time>
      </trkpt>
      <trkpt lat="20.22155333" lon="-98.73447667">
        <ele>2314.0</ele>
        <time>2019-10-12T14:44:01.934Z</time>
      </trkpt>
      <trkpt lat="20.22157" lon="-98.73449">
        <ele>2314.0</ele>
        <time>2019-10-12T14:44:02.941Z</time>
      </trkpt>
      <trkpt lat="20.22159167" lon="-98.73449333">
        <ele>2314.0</ele>
        <time>2019-10-12T14:44:03.948Z</time>
      </trkpt>
      <trkpt lat="20.22161167" lon="-98.73449167">
        <ele>2313.0</ele>
        <time>2019-10-12T14:44:04.953Z</time>
      </trkpt>
      <trkpt lat="20.22163333" lon="-98.73449">
        <ele>2312.0</ele>
        <time>2019-10-12T14:44:05.954Z</time>
      </trkpt>
      <trkpt lat="20.22165833" lon="-98.734485">
        <ele>2311.0</ele>
        <time>2019-10-12T14:44:06.831Z</time>
      </trkpt>
      <trkpt lat="20.22168333" lon="-98.73448">
        <ele>2311.0</ele>
        <time>2019-10-12T14:44:07.834Z</time>
      </trkpt>
      <trkpt lat="20.22171333" lon="-98.73447333">
        <ele>2311.0</ele>
        <time>2019-10-12T14:44:08.841Z</time>
      </trkpt>
      <trkpt lat="20.22173833" lon="-98.73447167">
        <ele>2311.0</ele>
        <time>2019-10-12T14:44:09.846Z</time>
      </trkpt>
      <trkpt lat="20.22176167" lon="-98.73447">
        <ele>2310.0</ele>
        <time>2019-10-12T14:44:10.848Z</time>
      </trkpt>
      <trkpt lat="20.22178167" lon="-98.73446833">
        <ele>2309.0</ele>
        <time>2019-10-12T14:44:11.849Z</time>
      </trkpt>
      <trkpt lat="20.22180167" lon="-98.73447667">
        <ele>2308.0</ele>
        <time>2019-10-12T14:44:12.850Z</time>
      </trkpt>
      <trkpt lat="20.22182333" lon="-98.73448">
        <ele>2307.0</ele>
        <time>2019-10-12T14:44:13.854Z</time>
      </trkpt>
      <trkpt lat="20.22184333" lon="-98.734475">
        <ele>2305.0</ele>
        <time>2019-10-12T14:44:14.859Z</time>
      </trkpt>
      <trkpt lat="20.22186833" lon="-98.73447">
        <ele>2303.0</ele>
        <time>2019-10-12T14:44:15.865Z</time>
      </trkpt>
      <trkpt lat="20.22189833" lon="-98.73447167">
        <ele>2303.0</ele>
        <time>2019-10-12T14:44:16.870Z</time>
      </trkpt>
      <trkpt lat="20.22192" lon="-98.73447333">
        <ele>2303.0</ele>
        <time>2019-10-12T14:44:17.875Z</time>
      </trkpt>
      <trkpt lat="20.22194167" lon="-98.73447167">
        <ele>2303.0</ele>
        <time>2019-10-12T14:44:18.879Z</time>
      </trkpt>
      <trkpt lat="20.22196333" lon="-98.734465">
        <ele>2302.0</ele>
        <time>2019-10-12T14:44:19.883Z</time>
      </trkpt>
      <trkpt lat="20.221985" lon="-98.73445833">
        <ele>2301.0</ele>
        <time>2019-10-12T14:44:20.886Z</time>
      </trkpt>
      <trkpt lat="20.22200167" lon="-98.73445167">
        <ele>2301.0</ele>
        <time>2019-10-12T14:44:21.893Z</time>
      </trkpt>
      <trkpt lat="20.22203" lon="-98.73444">
        <ele>2300.0</ele>
        <time>2019-10-12T14:44:22.897Z</time>
      </trkpt>
      <trkpt lat="20.22205167" lon="-98.73443">
        <ele>2300.0</ele>
        <time>2019-10-12T14:44:23.903Z</time>
      </trkpt>
      <trkpt lat="20.22207333" lon="-98.73441833">
        <ele>2299.0</ele>
        <time>2019-10-12T14:44:24.906Z</time>
      </trkpt>
      <trkpt lat="20.222095" lon="-98.73440833">
        <ele>2299.0</ele>
        <time>2019-10-12T14:44:25.908Z</time>
      </trkpt>
      <trkpt lat="20.22211667" lon="-98.73440167">
        <ele>2300.0</ele>
        <time>2019-10-12T14:44:26.913Z</time>
      </trkpt>
      <trkpt lat="20.22214" lon="-98.73439667">
        <ele>2301.0</ele>
        <time>2019-10-12T14:44:27.920Z</time>
      </trkpt>
      <trkpt lat="20.22216167" lon="-98.73439833">
        <ele>2303.0</ele>
        <time>2019-10-12T14:44:28.925Z</time>
      </trkpt>
      <trkpt lat="20.22218333" lon="-98.7344">
        <ele>2304.0</ele>
        <time>2019-10-12T14:44:29.926Z</time>
      </trkpt>
      <trkpt lat="20.22220667" lon="-98.73439833">
        <ele>2304.0</ele>
        <time>2019-10-12T14:44:30.927Z</time>
      </trkpt>
      <trkpt lat="20.22223333" lon="-98.73439833">
        <ele>2304.0</ele>
        <time>2019-10-12T14:44:31.929Z</time>
      </trkpt>
      <trkpt lat="20.22225333" lon="-98.734395">
        <ele>2305.0</ele>
        <time>2019-10-12T14:44:32.933Z</time>
      </trkpt>
      <trkpt lat="20.22227333" lon="-98.73439167">
        <ele>2305.0</ele>
        <time>2019-10-12T14:44:33.936Z</time>
      </trkpt>
      <trkpt lat="20.222295" lon="-98.73439333">
        <ele>2305.0</ele>
        <time>2019-10-12T14:44:34.941Z</time>
      </trkpt>
      <trkpt lat="20.22232" lon="-98.73440167">
        <ele>2305.0</ele>
        <time>2019-10-12T14:44:35.947Z</time>
      </trkpt>
      <trkpt lat="20.22234667" lon="-98.73440167">
        <ele>2304.0</ele>
        <time>2019-10-12T14:44:36.952Z</time>
      </trkpt>
      <trkpt lat="20.22237333" lon="-98.73439667">
        <ele>2304.0</ele>
        <time>2019-10-12T14:44:37.830Z</time>
      </trkpt>
      <trkpt lat="20.2224" lon="-98.734395">
        <ele>2303.0</ele>
        <time>2019-10-12T14:44:38.836Z</time>
      </trkpt>
      <trkpt lat="20.22242333" lon="-98.734395">
        <ele>2303.0</ele>
        <time>2019-10-12T14:44:39.843Z</time>
      </trkpt>
      <trkpt lat="20.22244167" lon="-98.73439333">
        <ele>2302.0</ele>
        <time>2019-10-12T14:44:40.845Z</time>
      </trkpt>
      <trkpt lat="20.22246667" lon="-98.73439">
        <ele>2303.0</ele>
        <time>2019-10-12T14:44:41.849Z</time>
      </trkpt>
      <trkpt lat="20.22248833" lon="-98.73438167">
        <ele>2303.0</ele>
        <time>2019-10-12T14:44:42.855Z</time>
      </trkpt>
      <trkpt lat="20.222515" lon="-98.73437833">
        <ele>2304.0</ele>
        <time>2019-10-12T14:44:43.860Z</time>
      </trkpt>
      <trkpt lat="20.22254167" lon="-98.73437333">
        <ele>2303.0</ele>
        <time>2019-10-12T14:44:44.866Z</time>
      </trkpt>
      <trkpt lat="20.22256833" lon="-98.73437333">
        <ele>2302.0</ele>
        <time>2019-10-12T14:44:45.870Z</time>
      </trkpt>
      <trkpt lat="20.222595" lon="-98.73437333">
        <ele>2301.0</ele>
        <time>2019-10-12T14:44:46.876Z</time>
      </trkpt>
      <trkpt lat="20.22262167" lon="-98.73437333">
        <ele>2301.0</ele>
        <time>2019-10-12T14:44:47.878Z</time>
      </trkpt>
      <trkpt lat="20.22265333" lon="-98.73437667">
        <ele>2301.0</ele>
        <time>2019-10-12T14:44:48.878Z</time>
      </trkpt>
      <trkpt lat="20.22268333" lon="-98.73439">
        <ele>2302.0</ele>
        <time>2019-10-12T14:44:49.879Z</time>
      </trkpt>
      <trkpt lat="20.22271" lon="-98.73439667">
        <ele>2302.0</ele>
        <time>2019-10-12T14:44:50.880Z</time>
      </trkpt>
      <trkpt lat="20.222735" lon="-98.73440167">
        <ele>2301.0</ele>
        <time>2019-10-12T14:44:51.881Z</time>
      </trkpt>
      <trkpt lat="20.22275" lon="-98.73441667">
        <ele>2300.0</ele>
        <time>2019-10-12T14:44:52.882Z</time>
      </trkpt>
      <trkpt lat="20.22278" lon="-98.73443333">
        <ele>2301.0</ele>
        <time>2019-10-12T14:44:53.883Z</time>
      </trkpt>
      <trkpt lat="20.22280833" lon="-98.73443667">
        <ele>2299.0</ele>
        <time>2019-10-12T14:44:54.888Z</time>
      </trkpt>
      <trkpt lat="20.22283833" lon="-98.73443667">
        <ele>2298.0</ele>
        <time>2019-10-12T14:44:55.894Z</time>
      </trkpt>
      <trkpt lat="20.222865" lon="-98.73443333">
        <ele>2296.0</ele>
        <time>2019-10-12T14:44:56.896Z</time>
      </trkpt>
      <trkpt lat="20.22288667" lon="-98.73443167">
        <ele>2296.0</ele>
        <time>2019-10-12T14:44:57.900Z</time>
      </trkpt>
      <trkpt lat="20.22291333" lon="-98.734445">
        <ele>2296.0</ele>
        <time>2019-10-12T14:44:58.905Z</time>
      </trkpt>
      <trkpt lat="20.222935" lon="-98.734455">
        <ele>2297.0</ele>
        <time>2019-10-12T14:44:59.910Z</time>
      </trkpt>
      <trkpt lat="20.22295167" lon="-98.73447333">
        <ele>2297.0</ele>
        <time>2019-10-12T14:45:00.918Z</time>
      </trkpt>
      <trkpt lat="20.22296833" lon="-98.73449">
        <ele>2298.0</ele>
        <time>2019-10-12T14:45:01.926Z</time>
      </trkpt>
      <trkpt lat="20.222975" lon="-98.73450833">
        <ele>2298.0</ele>
        <time>2019-10-12T14:45:02.930Z</time>
      </trkpt>
      <trkpt lat="20.22298667" lon="-98.73452167">
        <ele>2298.0</ele>
        <time>2019-10-12T14:45:03.935Z</time>
      </trkpt>
      <trkpt lat="20.22299667" lon="-98.73453667">
        <ele>2298.0</ele>
        <time>2019-10-12T14:45:04.942Z</time>
      </trkpt>
      <trkpt lat="20.22300833" lon="-98.73454833">
        <ele>2297.0</ele>
        <time>2019-10-12T14:45:05.950Z</time>
      </trkpt>
      <trkpt lat="20.22302167" lon="-98.73456167">
        <ele>2297.0</ele>
        <time>2019-10-12T14:45:06.830Z</time>
      </trkpt>
      <trkpt lat="20.22303" lon="-98.73457333">
        <ele>2296.0</ele>
        <time>2019-10-12T14:45:07.830Z</time>
      </trkpt>
      <trkpt lat="20.22303667" lon="-98.73458667">
        <ele>2296.0</ele>
        <time>2019-10-12T14:45:08.830Z</time>
      </trkpt>
      <trkpt lat="20.22303833" lon="-98.73459667">
        <ele>2295.0</ele>
        <time>2019-10-12T14:45:09.833Z</time>
      </trkpt>
      <trkpt lat="20.22304167" lon="-98.73460667">
        <ele>2295.0</ele>
        <time>2019-10-12T14:45:10.839Z</time>
      </trkpt>
      <trkpt lat="20.223045" lon="-98.734615">
        <ele>2295.0</ele>
        <time>2019-10-12T14:45:11.843Z</time>
      </trkpt>
      <trkpt lat="20.22304833" lon="-98.73462333">
        <ele>2294.0</ele>
        <time>2019-10-12T14:45:12.846Z</time>
      </trkpt>
      <trkpt lat="20.223055" lon="-98.734635">
        <ele>2292.0</ele>
        <time>2019-10-12T14:45:13.851Z</time>
      </trkpt>
      <trkpt lat="20.22306333" lon="-98.73464333">
        <ele>2291.0</ele>
        <time>2019-10-12T14:45:14.854Z</time>
      </trkpt>
      <trkpt lat="20.223075" lon="-98.73465333">
        <ele>2290.0</ele>
        <time>2019-10-12T14:45:15.859Z</time>
      </trkpt>
      <trkpt lat="20.22309" lon="-98.734665">
        <ele>2290.0</ele>
        <time>2019-10-12T14:45:16.866Z</time>
      </trkpt>
      <trkpt lat="20.22310667" lon="-98.73467667">
        <ele>2289.0</ele>
        <time>2019-10-12T14:45:17.874Z</time>
      </trkpt>
      <trkpt lat="20.22312333" lon="-98.73468833">
        <ele>2287.0</ele>
        <time>2019-10-12T14:45:18.878Z</time>
      </trkpt>
      <trkpt lat="20.22313667" lon="-98.73470333">
        <ele>2286.0</ele>
        <time>2019-10-12T14:45:19.882Z</time>
      </trkpt>
      <trkpt lat="20.223145" lon="-98.73471667">
        <ele>2286.0</ele>
        <time>2019-10-12T14:45:20.887Z</time>
      </trkpt>
      <trkpt lat="20.22315" lon="-98.734735">
        <ele>2285.0</ele>
        <time>2019-10-12T14:45:21.893Z</time>
      </trkpt>
      <trkpt lat="20.22315667" lon="-98.73475333">
        <ele>2284.0</ele>
        <time>2019-10-12T14:45:22.896Z</time>
      </trkpt>
      <trkpt lat="20.22316667" lon="-98.73477833">
        <ele>2285.0</ele>
        <time>2019-10-12T14:45:23.898Z</time>
      </trkpt>
      <trkpt lat="20.22318167" lon="-98.7348">
        <ele>2286.0</ele>
        <time>2019-10-12T14:45:24.902Z</time>
      </trkpt>
      <trkpt lat="20.22319667" lon="-98.73481333">
        <ele>2285.0</ele>
        <time>2019-10-12T14:45:25.909Z</time>
      </trkpt>
      <trkpt lat="20.22321333" lon="-98.734825">
        <ele>2285.0</ele>
        <time>2019-10-12T14:45:26.917Z</time>
      </trkpt>
      <trkpt lat="20.22323167" lon="-98.734835">
        <ele>2284.0</ele>
        <time>2019-10-12T14:45:27.921Z</time>
      </trkpt>
      <trkpt lat="20.22324" lon="-98.73484667">
        <ele>2283.0</ele>
        <time>2019-10-12T14:45:28.922Z</time>
      </trkpt>
      <trkpt lat="20.223245" lon="-98.73486">
        <ele>2282.0</ele>
        <time>2019-10-12T14:45:29.923Z</time>
      </trkpt>
      <trkpt lat="20.22325833" lon="-98.73487333">
        <ele>2282.0</ele>
        <time>2019-10-12T14:45:30.924Z</time>
      </trkpt>
      <trkpt lat="20.22328333" lon="-98.73488167">
        <ele>2282.0</ele>
        <time>2019-10-12T14:45:31.927Z</time>
      </trkpt>
      <trkpt lat="20.22330833" lon="-98.73488">
        <ele>2283.0</ele>
        <time>2019-10-12T14:45:32.933Z</time>
      </trkpt>
      <trkpt lat="20.22333" lon="-98.734875">
        <ele>2283.0</ele>
        <time>2019-10-12T14:45:33.940Z</time>
      </trkpt>
      <trkpt lat="20.22335167" lon="-98.73487167">
        <ele>2284.0</ele>
        <time>2019-10-12T14:45:34.946Z</time>
      </trkpt>
      <trkpt lat="20.22336667" lon="-98.73486833">
        <ele>2283.0</ele>
        <time>2019-10-12T14:45:35.951Z</time>
      </trkpt>
      <trkpt lat="20.22337167" lon="-98.734865">
        <ele>2283.0</ele>
        <time>2019-10-12T14:45:36.831Z</time>
      </trkpt>
      <trkpt lat="20.22337667" lon="-98.73486667">
        <ele>2283.0</ele>
        <time>2019-10-12T14:45:37.839Z</time>
      </trkpt>
      <trkpt lat="20.22338" lon="-98.73488167">
        <ele>2282.0</ele>
        <time>2019-10-12T14:45:38.840Z</time>
      </trkpt>
      <trkpt lat="20.22338333" lon="-98.73489833">
        <ele>2282.0</ele>
        <time>2019-10-12T14:45:39.841Z</time>
      </trkpt>
      <trkpt lat="20.22338167" lon="-98.73492333">
        <ele>2282.0</ele>
        <time>2019-10-12T14:45:40.843Z</time>
      </trkpt>
      <trkpt lat="20.22337" lon="-98.73495167">
        <ele>2281.0</ele>
        <time>2019-10-12T14:45:41.847Z</time>
      </trkpt>
      <trkpt lat="20.22337" lon="-98.73498167">
        <ele>2281.0</ele>
        <time>2019-10-12T14:45:42.853Z</time>
      </trkpt>
      <trkpt lat="20.223365" lon="-98.73500333">
        <ele>2281.0</ele>
        <time>2019-10-12T14:45:43.858Z</time>
      </trkpt>
      <trkpt lat="20.22336167" lon="-98.73501">
        <ele>2280.0</ele>
        <time>2019-10-12T14:45:44.863Z</time>
      </trkpt>
      <trkpt lat="20.223355" lon="-98.73501667">
        <ele>2279.0</ele>
        <time>2019-10-12T14:45:45.869Z</time>
      </trkpt>
      <trkpt lat="20.22334333" lon="-98.73502">
        <ele>2278.0</ele>
        <time>2019-10-12T14:45:46.874Z</time>
      </trkpt>
      <trkpt lat="20.223325" lon="-98.735025">
        <ele>2277.0</ele>
        <time>2019-10-12T14:45:47.880Z</time>
      </trkpt>
      <trkpt lat="20.22330667" lon="-98.73502667">
        <ele>2276.0</ele>
        <time>2019-10-12T14:45:48.885Z</time>
      </trkpt>
      <trkpt lat="20.22329833" lon="-98.73503333">
        <ele>2275.0</ele>
        <time>2019-10-12T14:45:49.888Z</time>
      </trkpt>
      <trkpt lat="20.22329167" lon="-98.73504333">
        <ele>2274.0</ele>
        <time>2019-10-12T14:45:50.892Z</time>
      </trkpt>
      <trkpt lat="20.223285" lon="-98.73505333">
        <ele>2274.0</ele>
        <time>2019-10-12T14:45:51.898Z</time>
      </trkpt>
      <trkpt lat="20.22328" lon="-98.73506167">
        <ele>2274.0</ele>
        <time>2019-10-12T14:45:52.907Z</time>
      </trkpt>
      <trkpt lat="20.22328" lon="-98.73507667">
        <ele>2274.0</ele>
        <time>2019-10-12T14:45:53.914Z</time>
      </trkpt>
      <trkpt lat="20.223285" lon="-98.73509">
        <ele>2273.0</ele>
        <time>2019-10-12T14:45:54.917Z</time>
      </trkpt>
      <trkpt lat="20.22329" lon="-98.73509667">
        <ele>2273.0</ele>
        <time>2019-10-12T14:45:55.918Z</time>
      </trkpt>
      <trkpt lat="20.22329167" lon="-98.735105">
        <ele>2272.0</ele>
        <time>2019-10-12T14:45:56.919Z</time>
      </trkpt>
      <trkpt lat="20.22329" lon="-98.73511333">
        <ele>2272.0</ele>
        <time>2019-10-12T14:45:57.919Z</time>
      </trkpt>
      <trkpt lat="20.22328333" lon="-98.73512833">
        <ele>2272.0</ele>
        <time>2019-10-12T14:45:58.920Z</time>
      </trkpt>
      <trkpt lat="20.22327667" lon="-98.73514167">
        <ele>2272.0</ele>
        <time>2019-10-12T14:45:59.921Z</time>
      </trkpt>
      <trkpt lat="20.22328167" lon="-98.73515833">
        <ele>2273.0</ele>
        <time>2019-10-12T14:46:00.922Z</time>
      </trkpt>
      <trkpt lat="20.22329333" lon="-98.735175">
        <ele>2274.0</ele>
        <time>2019-10-12T14:46:01.923Z</time>
      </trkpt>
      <trkpt lat="20.22330667" lon="-98.73518667">
        <ele>2274.0</ele>
        <time>2019-10-12T14:46:02.924Z</time>
      </trkpt>
      <trkpt lat="20.22332333" lon="-98.7352">
        <ele>2274.0</ele>
        <time>2019-10-12T14:46:03.924Z</time>
      </trkpt>
      <trkpt lat="20.22333833" lon="-98.73520167">
        <ele>2274.0</ele>
        <time>2019-10-12T14:46:04.925Z</time>
      </trkpt>
      <trkpt lat="20.22335667" lon="-98.73520333">
        <ele>2274.0</ele>
        <time>2019-10-12T14:46:05.926Z</time>
      </trkpt>
      <trkpt lat="20.22337167" lon="-98.73520167">
        <ele>2273.0</ele>
        <time>2019-10-12T14:46:06.927Z</time>
      </trkpt>
      <trkpt lat="20.22338833" lon="-98.7352">
        <ele>2272.0</ele>
        <time>2019-10-12T14:46:07.928Z</time>
      </trkpt>
      <trkpt lat="20.223405" lon="-98.735195">
        <ele>2271.0</ele>
        <time>2019-10-12T14:46:08.928Z</time>
      </trkpt>
      <trkpt lat="20.22342167" lon="-98.735185">
        <ele>2269.0</ele>
        <time>2019-10-12T14:46:09.929Z</time>
      </trkpt>
      <trkpt lat="20.22343833" lon="-98.73517667">
        <ele>2268.0</ele>
        <time>2019-10-12T14:46:10.929Z</time>
      </trkpt>
      <trkpt lat="20.223455" lon="-98.73516833">
        <ele>2266.0</ele>
        <time>2019-10-12T14:46:11.930Z</time>
      </trkpt>
      <trkpt lat="20.22347333" lon="-98.73515833">
        <ele>2265.0</ele>
        <time>2019-10-12T14:46:12.931Z</time>
      </trkpt>
      <trkpt lat="20.22348833" lon="-98.73515167">
        <ele>2263.0</ele>
        <time>2019-10-12T14:46:13.931Z</time>
      </trkpt>
      <trkpt lat="20.22350833" lon="-98.735145">
        <ele>2262.0</ele>
        <time>2019-10-12T14:46:14.932Z</time>
      </trkpt>
      <trkpt lat="20.22352833" lon="-98.73514167">
        <ele>2261.0</ele>
        <time>2019-10-12T14:46:15.933Z</time>
      </trkpt>
      <trkpt lat="20.223545" lon="-98.73514">
        <ele>2260.0</ele>
        <time>2019-10-12T14:46:16.934Z</time>
      </trkpt>
      <trkpt lat="20.22355833" lon="-98.73514167">
        <ele>2260.0</ele>
        <time>2019-10-12T14:46:17.939Z</time>
      </trkpt>
      <trkpt lat="20.22357667" lon="-98.73514167">
        <ele>2258.0</ele>
        <time>2019-10-12T14:46:18.944Z</time>
      </trkpt>
      <trkpt lat="20.223595" lon="-98.73514333">
        <ele>2257.0</ele>
        <time>2019-10-12T14:46:19.951Z</time>
      </trkpt>
      <trkpt lat="20.22361333" lon="-98.73515167">
        <ele>2256.0</ele>
        <time>2019-10-12T14:46:20.953Z</time>
      </trkpt>
      <trkpt lat="20.223635" lon="-98.73516">
        <ele>2255.0</ele>
        <time>2019-10-12T14:46:21.831Z</time>
      </trkpt>
      <trkpt lat="20.22365833" lon="-98.73516167">
        <ele>2254.0</ele>
        <time>2019-10-12T14:46:22.836Z</time>
      </trkpt>
      <trkpt lat="20.22367667" lon="-98.73514667">
        <ele>2253.0</ele>
        <time>2019-10-12T14:46:23.838Z</time>
      </trkpt>
      <trkpt lat="20.22368833" lon="-98.73513167">
        <ele>2252.0</ele>
        <time>2019-10-12T14:46:24.844Z</time>
      </trkpt>
      <trkpt lat="20.22370833" lon="-98.73512333">
        <ele>2251.0</ele>
        <time>2019-10-12T14:46:25.847Z</time>
      </trkpt>
      <trkpt lat="20.22372833" lon="-98.73510833">
        <ele>2251.0</ele>
        <time>2019-10-12T14:46:26.853Z</time>
      </trkpt>
      <trkpt lat="20.22375167" lon="-98.735095">
        <ele>2252.0</ele>
        <time>2019-10-12T14:46:27.860Z</time>
      </trkpt>
      <trkpt lat="20.22376667" lon="-98.73509167">
        <ele>2252.0</ele>
        <time>2019-10-12T14:46:28.864Z</time>
      </trkpt>
      <trkpt lat="20.22378" lon="-98.735105">
        <ele>2252.0</ele>
        <time>2019-10-12T14:46:29.869Z</time>
      </trkpt>
      <trkpt lat="20.22379167" lon="-98.73512167">
        <ele>2253.0</ele>
        <time>2019-10-12T14:46:30.873Z</time>
      </trkpt>
      <trkpt lat="20.22379667" lon="-98.735135">
        <ele>2254.0</ele>
        <time>2019-10-12T14:46:31.880Z</time>
      </trkpt>
      <trkpt lat="20.22381" lon="-98.73514167">
        <ele>2256.0</ele>
        <time>2019-10-12T14:46:32.885Z</time>
      </trkpt>
      <trkpt lat="20.22382833" lon="-98.73514667">
        <ele>2256.0</ele>
        <time>2019-10-12T14:46:33.888Z</time>
      </trkpt>
      <trkpt lat="20.22384333" lon="-98.73515">
        <ele>2255.0</ele>
        <time>2019-10-12T14:46:34.894Z</time>
      </trkpt>
      <trkpt lat="20.22384667" lon="-98.73516">
        <ele>2254.0</ele>
        <time>2019-10-12T14:46:35.898Z</time>
      </trkpt>
      <trkpt lat="20.22384833" lon="-98.73516333">
        <ele>2253.0</ele>
        <time>2019-10-12T14:46:36.901Z</time>
      </trkpt>
      <trkpt lat="20.22386167" lon="-98.735165">
        <ele>2253.0</ele>
        <time>2019-10-12T14:46:37.907Z</time>
      </trkpt>
      <trkpt lat="20.223885" lon="-98.73515667">
        <ele>2252.0</ele>
        <time>2019-10-12T14:46:38.912Z</time>
      </trkpt>
      <trkpt lat="20.22390167" lon="-98.73515">
        <ele>2251.0</ele>
        <time>2019-10-12T14:46:39.917Z</time>
      </trkpt>
      <trkpt lat="20.22391333" lon="-98.735145">
        <ele>2252.0</ele>
        <time>2019-10-12T14:46:40.924Z</time>
      </trkpt>
      <trkpt lat="20.22391833" lon="-98.735145">
        <ele>2252.0</ele>
        <time>2019-10-12T14:46:41.930Z</time>
      </trkpt>
      <trkpt lat="20.22392" lon="-98.73514833">
        <ele>2252.0</ele>
        <time>2019-10-12T14:46:42.935Z</time>
      </trkpt>
      <trkpt lat="20.22392" lon="-98.73515167">
        <ele>2252.0</ele>
        <time>2019-10-12T14:46:43.939Z</time>
      </trkpt>
      <trkpt lat="20.22392" lon="-98.73515667">
        <ele>2252.0</ele>
        <time>2019-10-12T14:46:44.944Z</time>
      </trkpt>
      <trkpt lat="20.223925" lon="-98.73516667">
        <ele>2252.0</ele>
        <time>2019-10-12T14:46:45.949Z</time>
      </trkpt>
      <trkpt lat="20.22393667" lon="-98.73517333">
        <ele>2252.0</ele>
        <time>2019-10-12T14:46:46.830Z</time>
      </trkpt>
      <trkpt lat="20.22394667" lon="-98.735175">
        <ele>2252.0</ele>
        <time>2019-10-12T14:46:47.834Z</time>
      </trkpt>
      <trkpt lat="20.223965" lon="-98.735175">
        <ele>2252.0</ele>
        <time>2019-10-12T14:46:48.835Z</time>
      </trkpt>
      <trkpt lat="20.223975" lon="-98.73517333">
        <ele>2251.0</ele>
        <time>2019-10-12T14:46:49.836Z</time>
      </trkpt>
      <trkpt lat="20.22398833" lon="-98.73517333">
        <ele>2250.0</ele>
        <time>2019-10-12T14:46:50.840Z</time>
      </trkpt>
      <trkpt lat="20.22400167" lon="-98.73517333">
        <ele>2250.0</ele>
        <time>2019-10-12T14:46:51.846Z</time>
      </trkpt>
      <trkpt lat="20.224015" lon="-98.73517167">
        <ele>2250.0</ele>
        <time>2019-10-12T14:46:52.851Z</time>
      </trkpt>
      <trkpt lat="20.22403167" lon="-98.73516667">
        <ele>2250.0</ele>
        <time>2019-10-12T14:46:53.854Z</time>
      </trkpt>
      <trkpt lat="20.22404333" lon="-98.73515833">
        <ele>2249.0</ele>
        <time>2019-10-12T14:46:54.861Z</time>
      </trkpt>
      <trkpt lat="20.22405333" lon="-98.73514333">
        <ele>2247.0</ele>
        <time>2019-10-12T14:46:55.865Z</time>
      </trkpt>
      <trkpt lat="20.22406333" lon="-98.73513">
        <ele>2246.0</ele>
        <time>2019-10-12T14:46:56.872Z</time>
      </trkpt>
      <trkpt lat="20.22407167" lon="-98.73512833">
        <ele>2245.0</ele>
        <time>2019-10-12T14:46:57.877Z</time>
      </trkpt>
      <trkpt lat="20.22408167" lon="-98.73513333">
        <ele>2245.0</ele>
        <time>2019-10-12T14:46:58.881Z</time>
      </trkpt>
      <trkpt lat="20.224095" lon="-98.73513833">
        <ele>2245.0</ele>
        <time>2019-10-12T14:46:59.887Z</time>
      </trkpt>
      <trkpt lat="20.224105" lon="-98.73514167">
        <ele>2245.0</ele>
        <time>2019-10-12T14:47:00.891Z</time>
      </trkpt>
      <trkpt lat="20.22411333" lon="-98.73514333">
        <ele>2245.0</ele>
        <time>2019-10-12T14:47:01.898Z</time>
      </trkpt>
      <trkpt lat="20.22412333" lon="-98.73514667">
        <ele>2245.0</ele>
        <time>2019-10-12T14:47:02.905Z</time>
      </trkpt>
      <trkpt lat="20.224135" lon="-98.73514667">
        <ele>2245.0</ele>
        <time>2019-10-12T14:47:03.909Z</time>
      </trkpt>
      <trkpt lat="20.22414667" lon="-98.73514333">
        <ele>2244.0</ele>
        <time>2019-10-12T14:47:04.910Z</time>
      </trkpt>
      <trkpt lat="20.22415333" lon="-98.73514333">
        <ele>2243.0</ele>
        <time>2019-10-12T14:47:05.913Z</time>
      </trkpt>
      <trkpt lat="20.224165" lon="-98.73514167">
        <ele>2242.0</ele>
        <time>2019-10-12T14:47:06.921Z</time>
      </trkpt>
      <trkpt lat="20.224175" lon="-98.73514833">
        <ele>2242.0</ele>
        <time>2019-10-12T14:47:07.925Z</time>
      </trkpt>
      <trkpt lat="20.22418667" lon="-98.73516167">
        <ele>2241.0</ele>
        <time>2019-10-12T14:47:08.929Z</time>
      </trkpt>
      <trkpt lat="20.22420167" lon="-98.735175">
        <ele>2242.0</ele>
        <time>2019-10-12T14:47:09.935Z</time>
      </trkpt>
      <trkpt lat="20.22421833" lon="-98.735185">
        <ele>2243.0</ele>
        <time>2019-10-12T14:47:10.939Z</time>
      </trkpt>
      <trkpt lat="20.224235" lon="-98.73519333">
        <ele>2244.0</ele>
        <time>2019-10-12T14:47:11.945Z</time>
      </trkpt>
      <trkpt lat="20.22425833" lon="-98.73519833">
        <ele>2244.0</ele>
        <time>2019-10-12T14:47:12.952Z</time>
      </trkpt>
      <trkpt lat="20.22428333" lon="-98.73519833">
        <ele>2244.0</ele>
        <time>2019-10-12T14:47:13.833Z</time>
      </trkpt>
      <trkpt lat="20.22430833" lon="-98.73519667">
        <ele>2244.0</ele>
        <time>2019-10-12T14:47:14.838Z</time>
      </trkpt>
      <trkpt lat="20.22432833" lon="-98.73519">
        <ele>2244.0</ele>
        <time>2019-10-12T14:47:15.843Z</time>
      </trkpt>
      <trkpt lat="20.22434333" lon="-98.73518333">
        <ele>2244.0</ele>
        <time>2019-10-12T14:47:16.848Z</time>
      </trkpt>
      <trkpt lat="20.22436" lon="-98.73518167">
        <ele>2244.0</ele>
        <time>2019-10-12T14:47:17.854Z</time>
      </trkpt>
      <trkpt lat="20.22437833" lon="-98.735185">
        <ele>2244.0</ele>
        <time>2019-10-12T14:47:18.858Z</time>
      </trkpt>
      <trkpt lat="20.22439" lon="-98.73518333">
        <ele>2243.0</ele>
        <time>2019-10-12T14:47:19.859Z</time>
      </trkpt>
      <trkpt lat="20.2244" lon="-98.735185">
        <ele>2242.0</ele>
        <time>2019-10-12T14:47:20.859Z</time>
      </trkpt>
      <trkpt lat="20.224405" lon="-98.73519333">
        <ele>2242.0</ele>
        <time>2019-10-12T14:47:21.863Z</time>
      </trkpt>
      <trkpt lat="20.22440333" lon="-98.7352">
        <ele>2241.0</ele>
        <time>2019-10-12T14:47:22.870Z</time>
      </trkpt>
      <trkpt lat="20.22440167" lon="-98.73521">
        <ele>2241.0</ele>
        <time>2019-10-12T14:47:23.878Z</time>
      </trkpt>
      <trkpt lat="20.2244" lon="-98.73521833">
        <ele>2240.0</ele>
        <time>2019-10-12T14:47:24.881Z</time>
      </trkpt>
      <trkpt lat="20.2244" lon="-98.73522667">
        <ele>2240.0</ele>
        <time>2019-10-12T14:47:25.883Z</time>
      </trkpt>
      <trkpt lat="20.22439667" lon="-98.73523333">
        <ele>2238.0</ele>
        <time>2019-10-12T14:47:26.889Z</time>
      </trkpt>
      <trkpt lat="20.224395" lon="-98.73524">
        <ele>2237.0</ele>
        <time>2019-10-12T14:47:27.894Z</time>
      </trkpt>
      <trkpt lat="20.224395" lon="-98.73525167">
        <ele>2237.0</ele>
        <time>2019-10-12T14:47:28.901Z</time>
      </trkpt>
      <trkpt lat="20.22440167" lon="-98.73526167">
        <ele>2237.0</ele>
        <time>2019-10-12T14:47:29.908Z</time>
      </trkpt>
      <trkpt lat="20.22441" lon="-98.73527">
        <ele>2237.0</ele>
        <time>2019-10-12T14:47:30.914Z</time>
      </trkpt>
      <trkpt lat="20.22442167" lon="-98.73528">
        <ele>2237.0</ele>
        <time>2019-10-12T14:47:31.918Z</time>
      </trkpt>
      <trkpt lat="20.22443167" lon="-98.73528333">
        <ele>2236.0</ele>
        <time>2019-10-12T14:47:32.923Z</time>
      </trkpt>
      <trkpt lat="20.22444167" lon="-98.73528833">
        <ele>2235.0</ele>
        <time>2019-10-12T14:47:33.930Z</time>
      </trkpt>
      <trkpt lat="20.224455" lon="-98.73529167">
        <ele>2235.0</ele>
        <time>2019-10-12T14:47:34.933Z</time>
      </trkpt>
      <trkpt lat="20.22447" lon="-98.73529333">
        <ele>2235.0</ele>
        <time>2019-10-12T14:47:35.934Z</time>
      </trkpt>
      <trkpt lat="20.22448667" lon="-98.73529">
        <ele>2235.0</ele>
        <time>2019-10-12T14:47:36.935Z</time>
      </trkpt>
      <trkpt lat="20.22450167" lon="-98.735285">
        <ele>2235.0</ele>
        <time>2019-10-12T14:47:37.937Z</time>
      </trkpt>
      <trkpt lat="20.22451167" lon="-98.73528333">
        <ele>2235.0</ele>
        <time>2019-10-12T14:47:38.944Z</time>
      </trkpt>
      <trkpt lat="20.22452167" lon="-98.73528333">
        <ele>2235.0</ele>
        <time>2019-10-12T14:47:39.948Z</time>
      </trkpt>
      <trkpt lat="20.22453167" lon="-98.73527667">
        <ele>2234.0</ele>
        <time>2019-10-12T14:47:40.953Z</time>
      </trkpt>
      <trkpt lat="20.22454333" lon="-98.73527167">
        <ele>2232.0</ele>
        <time>2019-10-12T14:47:41.834Z</time>
      </trkpt>
      <trkpt lat="20.22455333" lon="-98.73527333">
        <ele>2232.0</ele>
        <time>2019-10-12T14:47:42.840Z</time>
      </trkpt>
      <trkpt lat="20.22456167" lon="-98.73527667">
        <ele>2232.0</ele>
        <time>2019-10-12T14:47:43.845Z</time>
      </trkpt>
      <trkpt lat="20.22457" lon="-98.73527833">
        <ele>2232.0</ele>
        <time>2019-10-12T14:47:44.852Z</time>
      </trkpt>
      <trkpt lat="20.22457833" lon="-98.73528167">
        <ele>2232.0</ele>
        <time>2019-10-12T14:47:45.859Z</time>
      </trkpt>
      <trkpt lat="20.22459" lon="-98.73528667">
        <ele>2233.0</ele>
        <time>2019-10-12T14:47:46.864Z</time>
      </trkpt>
      <trkpt lat="20.22459667" lon="-98.73528833">
        <ele>2232.0</ele>
        <time>2019-10-12T14:47:47.867Z</time>
      </trkpt>
      <trkpt lat="20.22461" lon="-98.73528833">
        <ele>2233.0</ele>
        <time>2019-10-12T14:47:48.872Z</time>
      </trkpt>
      <trkpt lat="20.22462333" lon="-98.73528667">
        <ele>2233.0</ele>
        <time>2019-10-12T14:47:49.877Z</time>
      </trkpt>
      <trkpt lat="20.22463667" lon="-98.73528333">
        <ele>2234.0</ele>
        <time>2019-10-12T14:47:50.883Z</time>
      </trkpt>
      <trkpt lat="20.22465" lon="-98.73527333">
        <ele>2233.0</ele>
        <time>2019-10-12T14:47:51.885Z</time>
      </trkpt>
      <trkpt lat="20.22466167" lon="-98.73527167">
        <ele>2233.0</ele>
        <time>2019-10-12T14:47:52.886Z</time>
      </trkpt>
      <trkpt lat="20.22466833" lon="-98.73527">
        <ele>2232.0</ele>
        <time>2019-10-12T14:47:53.887Z</time>
      </trkpt>
      <trkpt lat="20.22467167" lon="-98.73526667">
        <ele>2231.0</ele>
        <time>2019-10-12T14:47:54.887Z</time>
      </trkpt>
      <trkpt lat="20.22468" lon="-98.735265">
        <ele>2230.0</ele>
        <time>2019-10-12T14:47:55.894Z</time>
      </trkpt>
      <trkpt lat="20.22468667" lon="-98.735265">
        <ele>2229.0</ele>
        <time>2019-10-12T14:47:56.898Z</time>
      </trkpt>
      <trkpt lat="20.22468667" lon="-98.73526667">
        <ele>2228.0</ele>
        <time>2019-10-12T14:47:57.900Z</time>
      </trkpt>
      <trkpt lat="20.22468833" lon="-98.73526667">
        <ele>2227.0</ele>
        <time>2019-10-12T14:47:58.906Z</time>
      </trkpt>
      <trkpt lat="20.22469" lon="-98.73526667">
        <ele>2226.0</ele>
        <time>2019-10-12T14:47:59.912Z</time>
      </trkpt>
      <trkpt lat="20.22469167" lon="-98.735265">
        <ele>2224.0</ele>
        <time>2019-10-12T14:48:00.916Z</time>
      </trkpt>
      <trkpt lat="20.22469167" lon="-98.73526">
        <ele>2223.0</ele>
        <time>2019-10-12T14:48:01.922Z</time>
      </trkpt>
      <trkpt lat="20.224695" lon="-98.73526">
        <ele>2222.0</ele>
        <time>2019-10-12T14:48:02.929Z</time>
      </trkpt>
      <trkpt lat="20.224695" lon="-98.73526667">
        <ele>2221.0</ele>
        <time>2019-10-12T14:48:03.936Z</time>
      </trkpt>
      <trkpt lat="20.224695" lon="-98.73527">
        <ele>2221.0</ele>
        <time>2019-10-12T14:48:04.941Z</time>
      </trkpt>
      <trkpt lat="20.22469667" lon="-98.73527667">
        <ele>2220.0</ele>
        <time>2019-10-12T14:48:05.943Z</time>
      </trkpt>
      <trkpt lat="20.22469833" lon="-98.73529">
        <ele>2220.0</ele>
        <time>2019-10-12T14:48:06.946Z</time>
      </trkpt>
      <trkpt lat="20.224705" lon="-98.735305">
        <ele>2221.0</ele>
        <time>2019-10-12T14:48:07.953Z</time>
      </trkpt>
      <trkpt lat="20.22471833" lon="-98.73531167">
        <ele>2221.0</ele>
        <time>2019-10-12T14:48:08.834Z</time>
      </trkpt>
      <trkpt lat="20.22473" lon="-98.73531167">
        <ele>2220.0</ele>
        <time>2019-10-12T14:48:09.836Z</time>
      </trkpt>
      <trkpt lat="20.22474167" lon="-98.73530333">
        <ele>2219.0</ele>
        <time>2019-10-12T14:48:10.837Z</time>
      </trkpt>
      <trkpt lat="20.22475333" lon="-98.73529">
        <ele>2219.0</ele>
        <time>2019-10-12T14:48:11.838Z</time>
      </trkpt>
      <trkpt lat="20.22476167" lon="-98.735285">
        <ele>2219.0</ele>
        <time>2019-10-12T14:48:12.845Z</time>
      </trkpt>
      <trkpt lat="20.22477167" lon="-98.73528">
        <ele>2218.0</ele>
        <time>2019-10-12T14:48:13.852Z</time>
      </trkpt>
      <trkpt lat="20.22478" lon="-98.73528167">
        <ele>2217.0</ele>
        <time>2019-10-12T14:48:14.858Z</time>
      </trkpt>
      <trkpt lat="20.224785" lon="-98.73529333">
        <ele>2217.0</ele>
        <time>2019-10-12T14:48:15.863Z</time>
      </trkpt>
      <trkpt lat="20.22479" lon="-98.7353">
        <ele>2215.0</ele>
        <time>2019-10-12T14:48:16.867Z</time>
      </trkpt>
      <trkpt lat="20.22479833" lon="-98.73531167">
        <ele>2214.0</ele>
        <time>2019-10-12T14:48:17.873Z</time>
      </trkpt>
      <trkpt lat="20.224805" lon="-98.735325">
        <ele>2213.0</ele>
        <time>2019-10-12T14:48:18.880Z</time>
      </trkpt>
      <trkpt lat="20.22481333" lon="-98.73533333">
        <ele>2211.0</ele>
        <time>2019-10-12T14:48:19.885Z</time>
      </trkpt>
      <trkpt lat="20.22481667" lon="-98.73532167">
        <ele>2210.0</ele>
        <time>2019-10-12T14:48:20.889Z</time>
      </trkpt>
      <trkpt lat="20.22482" lon="-98.73530667">
        <ele>2209.0</ele>
        <time>2019-10-12T14:48:21.893Z</time>
      </trkpt>
      <trkpt lat="20.22482" lon="-98.73529333">
        <ele>2208.0</ele>
        <time>2019-10-12T14:48:22.899Z</time>
      </trkpt>
      <trkpt lat="20.22482167" lon="-98.73527667">
        <ele>2208.0</ele>
        <time>2019-10-12T14:48:23.905Z</time>
      </trkpt>
      <trkpt lat="20.22483167" lon="-98.73525">
        <ele>2208.0</ele>
        <time>2019-10-12T14:48:24.910Z</time>
      </trkpt>
      <trkpt lat="20.22484" lon="-98.73522333">
        <ele>2208.0</ele>
        <time>2019-10-12T14:48:25.911Z</time>
      </trkpt>
      <trkpt lat="20.22484167" lon="-98.7352">
        <ele>2208.0</ele>
        <time>2019-10-12T14:48:26.912Z</time>
      </trkpt>
      <trkpt lat="20.22483833" lon="-98.73517667">
        <ele>2207.0</ele>
        <time>2019-10-12T14:48:27.913Z</time>
      </trkpt>
      <trkpt lat="20.22484" lon="-98.73515667">
        <ele>2207.0</ele>
        <time>2019-10-12T14:48:28.917Z</time>
      </trkpt>
      <trkpt lat="20.224845" lon="-98.73514333">
        <ele>2207.0</ele>
        <time>2019-10-12T14:48:29.924Z</time>
      </trkpt>
      <trkpt lat="20.22484833" lon="-98.73514">
        <ele>2206.0</ele>
        <time>2019-10-12T14:48:30.928Z</time>
      </trkpt>
      <trkpt lat="20.22484333" lon="-98.73513">
        <ele>2206.0</ele>
        <time>2019-10-12T14:48:31.931Z</time>
      </trkpt>
      <trkpt lat="20.22485833" lon="-98.73510833">
        <ele>2208.0</ele>
        <time>2019-10-12T14:48:32.937Z</time>
      </trkpt>
      <trkpt lat="20.22486667" lon="-98.73510667">
        <ele>2208.0</ele>
        <time>2019-10-12T14:48:33.941Z</time>
      </trkpt>
      <trkpt lat="20.22487667" lon="-98.73511">
        <ele>2208.0</ele>
        <time>2019-10-12T14:48:34.948Z</time>
      </trkpt>
      <trkpt lat="20.22489167" lon="-98.735105">
        <ele>2208.0</ele>
        <time>2019-10-12T14:48:35.951Z</time>
      </trkpt>
      <trkpt lat="20.22490333" lon="-98.73510833">
        <ele>2209.0</ele>
        <time>2019-10-12T14:48:36.831Z</time>
      </trkpt>
      <trkpt lat="20.22491167" lon="-98.73511333">
        <ele>2209.0</ele>
        <time>2019-10-12T14:48:37.838Z</time>
      </trkpt>
      <trkpt lat="20.22491" lon="-98.73511667">
        <ele>2206.0</ele>
        <time>2019-10-12T14:48:38.843Z</time>
      </trkpt>
      <trkpt lat="20.224915" lon="-98.735135">
        <ele>2207.0</ele>
        <time>2019-10-12T14:48:39.849Z</time>
      </trkpt>
      <trkpt lat="20.224925" lon="-98.73513833">
        <ele>2208.0</ele>
        <time>2019-10-12T14:48:40.854Z</time>
      </trkpt>
      <trkpt lat="20.22494" lon="-98.73513167">
        <ele>2210.0</ele>
        <time>2019-10-12T14:48:41.860Z</time>
      </trkpt>
      <trkpt lat="20.22495833" lon="-98.73512667">
        <ele>2211.0</ele>
        <time>2019-10-12T14:48:42.862Z</time>
      </trkpt>
      <trkpt lat="20.22497833" lon="-98.73512">
        <ele>2212.0</ele>
        <time>2019-10-12T14:48:43.864Z</time>
      </trkpt>
      <trkpt lat="20.22499333" lon="-98.73511333">
        <ele>2213.0</ele>
        <time>2019-10-12T14:48:44.867Z</time>
      </trkpt>
      <trkpt lat="20.22500667" lon="-98.73510333">
        <ele>2213.0</ele>
        <time>2019-10-12T14:48:45.869Z</time>
      </trkpt>
      <trkpt lat="20.22502" lon="-98.73509833">
        <ele>2213.0</ele>
        <time>2019-10-12T14:48:46.874Z</time>
      </trkpt>
      <trkpt lat="20.22502833" lon="-98.73509">
        <ele>2213.0</ele>
        <time>2019-10-12T14:48:47.880Z</time>
      </trkpt>
      <trkpt lat="20.22503" lon="-98.73508">
        <ele>2213.0</ele>
        <time>2019-10-12T14:48:48.887Z</time>
      </trkpt>
      <trkpt lat="20.22503667" lon="-98.73508333">
        <ele>2212.0</ele>
        <time>2019-10-12T14:48:49.888Z</time>
      </trkpt>
      <trkpt lat="20.22505" lon="-98.735075">
        <ele>2213.0</ele>
        <time>2019-10-12T14:48:50.889Z</time>
      </trkpt>
      <trkpt lat="20.225065" lon="-98.73506667">
        <ele>2214.0</ele>
        <time>2019-10-12T14:48:51.891Z</time>
      </trkpt>
      <trkpt lat="20.225075" lon="-98.73504667">
        <ele>2214.0</ele>
        <time>2019-10-12T14:48:52.894Z</time>
      </trkpt>
      <trkpt lat="20.22508833" lon="-98.73503167">
        <ele>2215.0</ele>
        <time>2019-10-12T14:48:53.900Z</time>
      </trkpt>
      <trkpt lat="20.22509833" lon="-98.73501833">
        <ele>2214.0</ele>
        <time>2019-10-12T14:48:54.902Z</time>
      </trkpt>
      <trkpt lat="20.22510667" lon="-98.73501">
        <ele>2214.0</ele>
        <time>2019-10-12T14:48:55.904Z</time>
      </trkpt>
      <trkpt lat="20.22511167" lon="-98.73499667">
        <ele>2214.0</ele>
        <time>2019-10-12T14:48:56.908Z</time>
      </trkpt>
      <trkpt lat="20.22511833" lon="-98.734985">
        <ele>2213.0</ele>
        <time>2019-10-12T14:48:57.912Z</time>
      </trkpt>
      <trkpt lat="20.22512833" lon="-98.73497833">
        <ele>2213.0</ele>
        <time>2019-10-12T14:48:58.918Z</time>
      </trkpt>
      <trkpt lat="20.22513833" lon="-98.73497">
        <ele>2213.0</ele>
        <time>2019-10-12T14:48:59.921Z</time>
      </trkpt>
      <trkpt lat="20.22514333" lon="-98.734975">
        <ele>2212.0</ele>
        <time>2019-10-12T14:49:00.924Z</time>
      </trkpt>
      <trkpt lat="20.22514833" lon="-98.73497833">
        <ele>2212.0</ele>
        <time>2019-10-12T14:49:01.929Z</time>
      </trkpt>
      <trkpt lat="20.225145" lon="-98.73498167">
        <ele>2213.0</ele>
        <time>2019-10-12T14:49:02.934Z</time>
      </trkpt>
      <trkpt lat="20.22512833" lon="-98.734985">
        <ele>2213.0</ele>
        <time>2019-10-12T14:49:03.937Z</time>
      </trkpt>
      <trkpt lat="20.22510833" lon="-98.73499667">
        <ele>2213.0</ele>
        <time>2019-10-12T14:49:04.938Z</time>
      </trkpt>
      <trkpt lat="20.22510833" lon="-98.73501">
        <ele>2213.0</ele>
        <time>2019-10-12T14:49:05.946Z</time>
      </trkpt>
      <trkpt lat="20.22526667" lon="-98.73542333">
        <ele>2223.0</ele>
        <time>2019-10-12T14:49:07.830Z</time>
      </trkpt>
      <trkpt lat="20.225275" lon="-98.73542167">
        <ele>2222.0</ele>
        <time>2019-10-12T14:49:08.837Z</time>
      </trkpt>
      <trkpt lat="20.22527667" lon="-98.73542833">
        <ele>2222.0</ele>
        <time>2019-10-12T14:49:09.843Z</time>
      </trkpt>
      <trkpt lat="20.225275" lon="-98.73543167">
        <ele>2222.0</ele>
        <time>2019-10-12T14:49:10.848Z</time>
      </trkpt>
      <trkpt lat="20.22528" lon="-98.73543833">
        <ele>2221.0</ele>
        <time>2019-10-12T14:49:11.849Z</time>
      </trkpt>
      <trkpt lat="20.22529" lon="-98.73545333">
        <ele>2221.0</ele>
        <time>2019-10-12T14:49:12.855Z</time>
      </trkpt>
      <trkpt lat="20.22529833" lon="-98.73546667">
        <ele>2221.0</ele>
        <time>2019-10-12T14:49:13.862Z</time>
      </trkpt>
      <trkpt lat="20.22530333" lon="-98.73548167">
        <ele>2219.0</ele>
        <time>2019-10-12T14:49:14.867Z</time>
      </trkpt>
      <trkpt lat="20.22531667" lon="-98.73550167">
        <ele>2218.0</ele>
        <time>2019-10-12T14:49:15.873Z</time>
      </trkpt>
      <trkpt lat="20.22533333" lon="-98.73551167">
        <ele>2217.0</ele>
        <time>2019-10-12T14:49:16.875Z</time>
      </trkpt>
      <trkpt lat="20.22535" lon="-98.73552167">
        <ele>2217.0</ele>
        <time>2019-10-12T14:49:17.879Z</time>
      </trkpt>
      <trkpt lat="20.22536333" lon="-98.73553333">
        <ele>2216.0</ele>
        <time>2019-10-12T14:49:18.885Z</time>
      </trkpt>
      <trkpt lat="20.22538167" lon="-98.73555167">
        <ele>2216.0</ele>
        <time>2019-10-12T14:49:19.891Z</time>
      </trkpt>
      <trkpt lat="20.22539667" lon="-98.73556833">
        <ele>2215.0</ele>
        <time>2019-10-12T14:49:20.897Z</time>
      </trkpt>
      <trkpt lat="20.225415" lon="-98.73557167">
        <ele>2215.0</ele>
        <time>2019-10-12T14:49:21.898Z</time>
      </trkpt>
      <trkpt lat="20.22543333" lon="-98.73556667">
        <ele>2214.0</ele>
        <time>2019-10-12T14:49:22.899Z</time>
      </trkpt>
      <trkpt lat="20.22545167" lon="-98.73555833">
        <ele>2214.0</ele>
        <time>2019-10-12T14:49:23.905Z</time>
      </trkpt>
      <trkpt lat="20.225465" lon="-98.73554833">
        <ele>2214.0</ele>
        <time>2019-10-12T14:49:24.909Z</time>
      </trkpt>
      <trkpt lat="20.22547833" lon="-98.73554">
        <ele>2213.0</ele>
        <time>2019-10-12T14:49:25.911Z</time>
      </trkpt>
      <trkpt lat="20.22550167" lon="-98.73553167">
        <ele>2213.0</ele>
        <time>2019-10-12T14:49:26.917Z</time>
      </trkpt>
      <trkpt lat="20.22552333" lon="-98.73553167">
        <ele>2213.0</ele>
        <time>2019-10-12T14:49:27.922Z</time>
      </trkpt>
      <trkpt lat="20.225545" lon="-98.73553333">
        <ele>2213.0</ele>
        <time>2019-10-12T14:49:28.925Z</time>
      </trkpt>
      <trkpt lat="20.22555667" lon="-98.73553833">
        <ele>2213.0</ele>
        <time>2019-10-12T14:49:29.932Z</time>
      </trkpt>
      <trkpt lat="20.22556167" lon="-98.73554833">
        <ele>2213.0</ele>
        <time>2019-10-12T14:49:30.938Z</time>
      </trkpt>
      <trkpt lat="20.22556333" lon="-98.73556333">
        <ele>2212.0</ele>
        <time>2019-10-12T14:49:31.944Z</time>
      </trkpt>
      <trkpt lat="20.22556667" lon="-98.73558167">
        <ele>2212.0</ele>
        <time>2019-10-12T14:49:32.948Z</time>
      </trkpt>
      <trkpt lat="20.22557333" lon="-98.73559833">
        <ele>2212.0</ele>
        <time>2019-10-12T14:49:33.952Z</time>
      </trkpt>
      <trkpt lat="20.225585" lon="-98.73561333">
        <ele>2212.0</ele>
        <time>2019-10-12T14:49:34.832Z</time>
      </trkpt>
      <trkpt lat="20.22560333" lon="-98.73563167">
        <ele>2211.0</ele>
        <time>2019-10-12T14:49:35.836Z</time>
      </trkpt>
      <trkpt lat="20.22562167" lon="-98.735645">
        <ele>2210.0</ele>
        <time>2019-10-12T14:49:36.841Z</time>
      </trkpt>
      <trkpt lat="20.22564167" lon="-98.73565833">
        <ele>2210.0</ele>
        <time>2019-10-12T14:49:37.844Z</time>
      </trkpt>
      <trkpt lat="20.22566333" lon="-98.73567">
        <ele>2209.0</ele>
        <time>2019-10-12T14:49:38.845Z</time>
      </trkpt>
      <trkpt lat="20.22568333" lon="-98.73568333">
        <ele>2208.0</ele>
        <time>2019-10-12T14:49:39.845Z</time>
      </trkpt>
      <trkpt lat="20.22570333" lon="-98.73569833">
        <ele>2207.0</ele>
        <time>2019-10-12T14:49:40.845Z</time>
      </trkpt>
      <trkpt lat="20.22572167" lon="-98.73571667">
        <ele>2207.0</ele>
        <time>2019-10-12T14:49:41.845Z</time>
      </trkpt>
      <trkpt lat="20.22574" lon="-98.73573">
        <ele>2207.0</ele>
        <time>2019-10-12T14:49:42.846Z</time>
      </trkpt>
      <trkpt lat="20.22576167" lon="-98.73574167">
        <ele>2207.0</ele>
        <time>2019-10-12T14:49:43.851Z</time>
      </trkpt>
      <trkpt lat="20.22578667" lon="-98.73576333">
        <ele>2208.0</ele>
        <time>2019-10-12T14:49:44.858Z</time>
      </trkpt>
      <trkpt lat="20.22580667" lon="-98.73577333">
        <ele>2207.0</ele>
        <time>2019-10-12T14:49:45.862Z</time>
      </trkpt>
      <trkpt lat="20.225825" lon="-98.73579">
        <ele>2207.0</ele>
        <time>2019-10-12T14:49:46.866Z</time>
      </trkpt>
      <trkpt lat="20.22584667" lon="-98.73580333">
        <ele>2206.0</ele>
        <time>2019-10-12T14:49:47.871Z</time>
      </trkpt>
      <trkpt lat="20.22587" lon="-98.73581">
        <ele>2206.0</ele>
        <time>2019-10-12T14:49:48.878Z</time>
      </trkpt>
      <trkpt lat="20.22589667" lon="-98.735815">
        <ele>2206.0</ele>
        <time>2019-10-12T14:49:49.884Z</time>
      </trkpt>
      <trkpt lat="20.22592167" lon="-98.73582">
        <ele>2205.0</ele>
        <time>2019-10-12T14:49:50.890Z</time>
      </trkpt>
      <trkpt lat="20.22595" lon="-98.73582833">
        <ele>2206.0</ele>
        <time>2019-10-12T14:49:51.894Z</time>
      </trkpt>
      <trkpt lat="20.22597667" lon="-98.73583167">
        <ele>2206.0</ele>
        <time>2019-10-12T14:49:52.897Z</time>
      </trkpt>
      <trkpt lat="20.22600667" lon="-98.73583333">
        <ele>2206.0</ele>
        <time>2019-10-12T14:49:53.901Z</time>
      </trkpt>
      <trkpt lat="20.22603333" lon="-98.73583167">
        <ele>2207.0</ele>
        <time>2019-10-12T14:49:54.907Z</time>
      </trkpt>
      <trkpt lat="20.22605833" lon="-98.73583333">
        <ele>2207.0</ele>
        <time>2019-10-12T14:49:55.915Z</time>
      </trkpt>
      <trkpt lat="20.22608" lon="-98.73584167">
        <ele>2207.0</ele>
        <time>2019-10-12T14:49:56.916Z</time>
      </trkpt>
      <trkpt lat="20.22609333" lon="-98.73586">
        <ele>2208.0</ele>
        <time>2019-10-12T14:49:57.917Z</time>
      </trkpt>
      <trkpt lat="20.226115" lon="-98.735875">
        <ele>2208.0</ele>
        <time>2019-10-12T14:49:58.923Z</time>
      </trkpt>
      <trkpt lat="20.22613167" lon="-98.735885">
        <ele>2208.0</ele>
        <time>2019-10-12T14:49:59.931Z</time>
      </trkpt>
      <trkpt lat="20.22615" lon="-98.73588667">
        <ele>2208.0</ele>
        <time>2019-10-12T14:50:00.934Z</time>
      </trkpt>
      <trkpt lat="20.22617333" lon="-98.73589667">
        <ele>2210.0</ele>
        <time>2019-10-12T14:50:01.938Z</time>
      </trkpt>
      <trkpt lat="20.226205" lon="-98.73588833">
        <ele>2209.0</ele>
        <time>2019-10-12T14:50:02.943Z</time>
      </trkpt>
      <trkpt lat="20.22622833" lon="-98.73588">
        <ele>2209.0</ele>
        <time>2019-10-12T14:50:03.948Z</time>
      </trkpt>
      <trkpt lat="20.22624667" lon="-98.735875">
        <ele>2208.0</ele>
        <time>2019-10-12T14:50:04.953Z</time>
      </trkpt>
      <trkpt lat="20.22625833" lon="-98.73586167">
        <ele>2208.0</ele>
        <time>2019-10-12T14:50:05.831Z</time>
      </trkpt>
      <trkpt lat="20.22627667" lon="-98.73585333">
        <ele>2208.0</ele>
        <time>2019-10-12T14:50:06.837Z</time>
      </trkpt>
      <trkpt lat="20.22629667" lon="-98.73584833">
        <ele>2209.0</ele>
        <time>2019-10-12T14:50:07.843Z</time>
      </trkpt>
      <trkpt lat="20.22631667" lon="-98.73584833">
        <ele>2209.0</ele>
        <time>2019-10-12T14:50:08.847Z</time>
      </trkpt>
      <trkpt lat="20.22632833" lon="-98.73586">
        <ele>2208.0</ele>
        <time>2019-10-12T14:50:09.853Z</time>
      </trkpt>
      <trkpt lat="20.22633667" lon="-98.735875">
        <ele>2208.0</ele>
        <time>2019-10-12T14:50:10.860Z</time>
      </trkpt>
      <trkpt lat="20.226345" lon="-98.73589833">
        <ele>2208.0</ele>
        <time>2019-10-12T14:50:11.865Z</time>
      </trkpt>
      <trkpt lat="20.22636167" lon="-98.73591">
        <ele>2208.0</ele>
        <time>2019-10-12T14:50:12.866Z</time>
      </trkpt>
      <trkpt lat="20.22637833" lon="-98.735925">
        <ele>2208.0</ele>
        <time>2019-10-12T14:50:13.867Z</time>
      </trkpt>
      <trkpt lat="20.2264" lon="-98.73593833">
        <ele>2208.0</ele>
        <time>2019-10-12T14:50:14.868Z</time>
      </trkpt>
      <trkpt lat="20.22642167" lon="-98.735945">
        <ele>2207.0</ele>
        <time>2019-10-12T14:50:15.868Z</time>
      </trkpt>
      <trkpt lat="20.22644" lon="-98.73595333">
        <ele>2206.0</ele>
        <time>2019-10-12T14:50:16.869Z</time>
      </trkpt>
      <trkpt lat="20.226455" lon="-98.73596167">
        <ele>2203.0</ele>
        <time>2019-10-12T14:50:17.870Z</time>
      </trkpt>
      <trkpt lat="20.22646833" lon="-98.73597">
        <ele>2202.0</ele>
        <time>2019-10-12T14:50:18.871Z</time>
      </trkpt>
      <trkpt lat="20.22648167" lon="-98.73598333">
        <ele>2201.0</ele>
        <time>2019-10-12T14:50:19.872Z</time>
      </trkpt>
      <trkpt lat="20.22649167" lon="-98.73600333">
        <ele>2200.0</ele>
        <time>2019-10-12T14:50:20.873Z</time>
      </trkpt>
      <trkpt lat="20.226495" lon="-98.736025">
        <ele>2200.0</ele>
        <time>2019-10-12T14:50:21.873Z</time>
      </trkpt>
      <trkpt lat="20.226495" lon="-98.73604667">
        <ele>2200.0</ele>
        <time>2019-10-12T14:50:22.874Z</time>
      </trkpt>
      <trkpt lat="20.226495" lon="-98.73606833">
        <ele>2200.0</ele>
        <time>2019-10-12T14:50:23.875Z</time>
      </trkpt>
      <trkpt lat="20.22649167" lon="-98.73609167">
        <ele>2201.0</ele>
        <time>2019-10-12T14:50:24.876Z</time>
      </trkpt>
      <trkpt lat="20.226495" lon="-98.73611667">
        <ele>2201.0</ele>
        <time>2019-10-12T14:50:25.882Z</time>
      </trkpt>
      <trkpt lat="20.226505" lon="-98.73613833">
        <ele>2201.0</ele>
        <time>2019-10-12T14:50:26.890Z</time>
      </trkpt>
      <trkpt lat="20.22651" lon="-98.73616667">
        <ele>2202.0</ele>
        <time>2019-10-12T14:50:27.893Z</time>
      </trkpt>
      <trkpt lat="20.22651167" lon="-98.73619167">
        <ele>2202.0</ele>
        <time>2019-10-12T14:50:28.897Z</time>
      </trkpt>
      <trkpt lat="20.22651167" lon="-98.73622167">
        <ele>2202.0</ele>
        <time>2019-10-12T14:50:29.902Z</time>
      </trkpt>
      <trkpt lat="20.226515" lon="-98.736255">
        <ele>2203.0</ele>
        <time>2019-10-12T14:50:30.905Z</time>
      </trkpt>
      <trkpt lat="20.22651167" lon="-98.73628833">
        <ele>2204.0</ele>
        <time>2019-10-12T14:50:31.911Z</time>
      </trkpt>
      <trkpt lat="20.22650667" lon="-98.73631833">
        <ele>2204.0</ele>
        <time>2019-10-12T14:50:32.917Z</time>
      </trkpt>
      <trkpt lat="20.22650833" lon="-98.73635833">
        <ele>2205.0</ele>
        <time>2019-10-12T14:50:33.919Z</time>
      </trkpt>
      <trkpt lat="20.22651667" lon="-98.73639">
        <ele>2206.0</ele>
        <time>2019-10-12T14:50:34.923Z</time>
      </trkpt>
      <trkpt lat="20.22652833" lon="-98.73641167">
        <ele>2207.0</ele>
        <time>2019-10-12T14:50:35.929Z</time>
      </trkpt>
      <trkpt lat="20.22654333" lon="-98.73643">
        <ele>2208.0</ele>
        <time>2019-10-12T14:50:36.934Z</time>
      </trkpt>
      <trkpt lat="20.22654833" lon="-98.73645167">
        <ele>2209.0</ele>
        <time>2019-10-12T14:50:37.939Z</time>
      </trkpt>
      <trkpt lat="20.22654833" lon="-98.73647">
        <ele>2210.0</ele>
        <time>2019-10-12T14:50:38.946Z</time>
      </trkpt>
      <trkpt lat="20.22654167" lon="-98.73648667">
        <ele>2211.0</ele>
        <time>2019-10-12T14:50:39.950Z</time>
      </trkpt>
      <trkpt lat="20.22653167" lon="-98.73649833">
        <ele>2211.0</ele>
        <time>2019-10-12T14:50:40.951Z</time>
      </trkpt>
      <trkpt lat="20.22651667" lon="-98.73652667">
        <ele>2210.0</ele>
        <time>2019-10-12T14:50:41.831Z</time>
      </trkpt>
      <trkpt lat="20.22651167" lon="-98.73655167">
        <ele>2210.0</ele>
        <time>2019-10-12T14:50:42.836Z</time>
      </trkpt>
      <trkpt lat="20.22650833" lon="-98.73658167">
        <ele>2210.0</ele>
        <time>2019-10-12T14:50:43.839Z</time>
      </trkpt>
      <trkpt lat="20.22651" lon="-98.73660667">
        <ele>2210.0</ele>
        <time>2019-10-12T14:50:44.844Z</time>
      </trkpt>
      <trkpt lat="20.22651833" lon="-98.73663333">
        <ele>2211.0</ele>
        <time>2019-10-12T14:50:45.850Z</time>
      </trkpt>
      <trkpt lat="20.22653" lon="-98.736655">
        <ele>2211.0</ele>
        <time>2019-10-12T14:50:46.856Z</time>
      </trkpt>
      <trkpt lat="20.22654667" lon="-98.736675">
        <ele>2210.0</ele>
        <time>2019-10-12T14:50:47.863Z</time>
      </trkpt>
      <trkpt lat="20.226565" lon="-98.73668667">
        <ele>2209.0</ele>
        <time>2019-10-12T14:50:48.863Z</time>
      </trkpt>
      <trkpt lat="20.22658167" lon="-98.73669667">
        <ele>2209.0</ele>
        <time>2019-10-12T14:50:49.865Z</time>
      </trkpt>
      <trkpt lat="20.22660167" lon="-98.7367">
        <ele>2208.0</ele>
        <time>2019-10-12T14:50:50.869Z</time>
      </trkpt>
      <trkpt lat="20.22662333" lon="-98.73670667">
        <ele>2208.0</ele>
        <time>2019-10-12T14:50:51.873Z</time>
      </trkpt>
      <trkpt lat="20.22664" lon="-98.736715">
        <ele>2207.0</ele>
        <time>2019-10-12T14:50:52.879Z</time>
      </trkpt>
      <trkpt lat="20.22666333" lon="-98.73671167">
        <ele>2207.0</ele>
        <time>2019-10-12T14:50:53.885Z</time>
      </trkpt>
      <trkpt lat="20.22668833" lon="-98.7367">
        <ele>2205.0</ele>
        <time>2019-10-12T14:50:54.888Z</time>
      </trkpt>
      <trkpt lat="20.22671" lon="-98.73669167">
        <ele>2204.0</ele>
        <time>2019-10-12T14:50:55.896Z</time>
      </trkpt>
      <trkpt lat="20.22672833" lon="-98.73668333">
        <ele>2204.0</ele>
        <time>2019-10-12T14:50:56.901Z</time>
      </trkpt>
      <trkpt lat="20.22674833" lon="-98.73667167">
        <ele>2203.0</ele>
        <time>2019-10-12T14:50:57.902Z</time>
      </trkpt>
      <trkpt lat="20.22676833" lon="-98.73665">
        <ele>2203.0</ele>
        <time>2019-10-12T14:50:58.902Z</time>
      </trkpt>
      <trkpt lat="20.22678833" lon="-98.73663333">
        <ele>2202.0</ele>
        <time>2019-10-12T14:50:59.902Z</time>
      </trkpt>
      <trkpt lat="20.22681167" lon="-98.736625">
        <ele>2202.0</ele>
        <time>2019-10-12T14:51:00.902Z</time>
      </trkpt>
      <trkpt lat="20.22683667" lon="-98.73662833">
        <ele>2202.0</ele>
        <time>2019-10-12T14:51:01.902Z</time>
      </trkpt>
      <trkpt lat="20.22685833" lon="-98.73663167">
        <ele>2201.0</ele>
        <time>2019-10-12T14:51:02.904Z</time>
      </trkpt>
      <trkpt lat="20.22687333" lon="-98.736645">
        <ele>2201.0</ele>
        <time>2019-10-12T14:51:03.904Z</time>
      </trkpt>
      <trkpt lat="20.22689167" lon="-98.73666333">
        <ele>2200.0</ele>
        <time>2019-10-12T14:51:04.908Z</time>
      </trkpt>
      <trkpt lat="20.22691333" lon="-98.73668333">
        <ele>2200.0</ele>
        <time>2019-10-12T14:51:05.912Z</time>
      </trkpt>
      <trkpt lat="20.22693167" lon="-98.73670333">
        <ele>2200.0</ele>
        <time>2019-10-12T14:51:06.917Z</time>
      </trkpt>
      <trkpt lat="20.226945" lon="-98.73672">
        <ele>2199.0</ele>
        <time>2019-10-12T14:51:07.917Z</time>
      </trkpt>
      <trkpt lat="20.22695667" lon="-98.73674667">
        <ele>2199.0</ele>
        <time>2019-10-12T14:51:08.921Z</time>
      </trkpt>
      <trkpt lat="20.22697167" lon="-98.73677">
        <ele>2199.0</ele>
        <time>2019-10-12T14:51:09.927Z</time>
      </trkpt>
      <trkpt lat="20.22698667" lon="-98.736795">
        <ele>2200.0</ele>
        <time>2019-10-12T14:51:10.928Z</time>
      </trkpt>
      <trkpt lat="20.227" lon="-98.73681833">
        <ele>2200.0</ele>
        <time>2019-10-12T14:51:11.929Z</time>
      </trkpt>
      <trkpt lat="20.22700833" lon="-98.73684333">
        <ele>2199.0</ele>
        <time>2019-10-12T14:51:12.929Z</time>
      </trkpt>
      <trkpt lat="20.22701833" lon="-98.73686833">
        <ele>2198.0</ele>
        <time>2019-10-12T14:51:13.932Z</time>
      </trkpt>
      <trkpt lat="20.22702333" lon="-98.73689">
        <ele>2196.0</ele>
        <time>2019-10-12T14:51:14.935Z</time>
      </trkpt>
      <trkpt lat="20.22703667" lon="-98.73692167">
        <ele>2195.0</ele>
        <time>2019-10-12T14:51:15.940Z</time>
      </trkpt>
      <trkpt lat="20.22705333" lon="-98.73693833">
        <ele>2195.0</ele>
        <time>2019-10-12T14:51:16.943Z</time>
      </trkpt>
      <trkpt lat="20.22708167" lon="-98.73694833">
        <ele>2193.0</ele>
        <time>2019-10-12T14:51:17.946Z</time>
      </trkpt>
      <trkpt lat="20.22710333" lon="-98.73695833">
        <ele>2192.0</ele>
        <time>2019-10-12T14:51:18.952Z</time>
      </trkpt>
      <trkpt lat="20.227125" lon="-98.73697">
        <ele>2190.0</ele>
        <time>2019-10-12T14:51:19.832Z</time>
      </trkpt>
      <trkpt lat="20.227145" lon="-98.736985">
        <ele>2189.0</ele>
        <time>2019-10-12T14:51:20.837Z</time>
      </trkpt>
      <trkpt lat="20.22716667" lon="-98.73699333">
        <ele>2189.0</ele>
        <time>2019-10-12T14:51:21.844Z</time>
      </trkpt>
      <trkpt lat="20.227185" lon="-98.737">
        <ele>2188.0</ele>
        <time>2019-10-12T14:51:22.851Z</time>
      </trkpt>
      <trkpt lat="20.22720833" lon="-98.73701833">
        <ele>2188.0</ele>
        <time>2019-10-12T14:51:23.855Z</time>
      </trkpt>
      <trkpt lat="20.22722833" lon="-98.73704">
        <ele>2188.0</ele>
        <time>2019-10-12T14:51:24.860Z</time>
      </trkpt>
      <trkpt lat="20.22725" lon="-98.73705333">
        <ele>2187.0</ele>
        <time>2019-10-12T14:51:25.865Z</time>
      </trkpt>
      <trkpt lat="20.22726667" lon="-98.73707">
        <ele>2187.0</ele>
        <time>2019-10-12T14:51:26.871Z</time>
      </trkpt>
      <trkpt lat="20.22728333" lon="-98.737085">
        <ele>2186.0</ele>
        <time>2019-10-12T14:51:27.878Z</time>
      </trkpt>
      <trkpt lat="20.22729667" lon="-98.737105">
        <ele>2186.0</ele>
        <time>2019-10-12T14:51:28.884Z</time>
      </trkpt>
      <trkpt lat="20.22731" lon="-98.73712">
        <ele>2186.0</ele>
        <time>2019-10-12T14:51:29.890Z</time>
      </trkpt>
      <trkpt lat="20.22731833" lon="-98.73714">
        <ele>2185.0</ele>
        <time>2019-10-12T14:51:30.895Z</time>
      </trkpt>
      <trkpt lat="20.22733667" lon="-98.73716667">
        <ele>2185.0</ele>
        <time>2019-10-12T14:51:31.901Z</time>
      </trkpt>
      <trkpt lat="20.227355" lon="-98.73718667">
        <ele>2185.0</ele>
        <time>2019-10-12T14:51:32.905Z</time>
      </trkpt>
      <trkpt lat="20.22737" lon="-98.73719833">
        <ele>2185.0</ele>
        <time>2019-10-12T14:51:33.907Z</time>
      </trkpt>
      <trkpt lat="20.22738833" lon="-98.73721167">
        <ele>2185.0</ele>
        <time>2019-10-12T14:51:34.912Z</time>
      </trkpt>
      <trkpt lat="20.22741167" lon="-98.73723333">
        <ele>2185.0</ele>
        <time>2019-10-12T14:51:35.919Z</time>
      </trkpt>
      <trkpt lat="20.22742833" lon="-98.737245">
        <ele>2185.0</ele>
        <time>2019-10-12T14:51:36.926Z</time>
      </trkpt>
      <trkpt lat="20.227455" lon="-98.73725833">
        <ele>2186.0</ele>
        <time>2019-10-12T14:51:37.928Z</time>
      </trkpt>
      <trkpt lat="20.22747333" lon="-98.73726">
        <ele>2185.0</ele>
        <time>2019-10-12T14:51:38.929Z</time>
      </trkpt>
      <trkpt lat="20.22750333" lon="-98.73725667">
        <ele>2185.0</ele>
        <time>2019-10-12T14:51:39.930Z</time>
      </trkpt>
      <trkpt lat="20.227525" lon="-98.73725">
        <ele>2184.0</ele>
        <time>2019-10-12T14:51:40.931Z</time>
      </trkpt>
      <trkpt lat="20.22754667" lon="-98.73724833">
        <ele>2184.0</ele>
        <time>2019-10-12T14:51:41.931Z</time>
      </trkpt>
      <trkpt lat="20.22757" lon="-98.73724667">
        <ele>2184.0</ele>
        <time>2019-10-12T14:51:42.932Z</time>
      </trkpt>
      <trkpt lat="20.22759" lon="-98.73724">
        <ele>2184.0</ele>
        <time>2019-10-12T14:51:43.933Z</time>
      </trkpt>
      <trkpt lat="20.22760833" lon="-98.73722167">
        <ele>2183.0</ele>
        <time>2019-10-12T14:51:44.934Z</time>
      </trkpt>
      <trkpt lat="20.22763167" lon="-98.73720167">
        <ele>2183.0</ele>
        <time>2019-10-12T14:51:45.940Z</time>
      </trkpt>
      <trkpt lat="20.22765667" lon="-98.73718">
        <ele>2183.0</ele>
        <time>2019-10-12T14:51:46.946Z</time>
      </trkpt>
      <trkpt lat="20.22768167" lon="-98.737165">
        <ele>2183.0</ele>
        <time>2019-10-12T14:51:47.952Z</time>
      </trkpt>
      <trkpt lat="20.22770667" lon="-98.73715">
        <ele>2183.0</ele>
        <time>2019-10-12T14:51:48.833Z</time>
      </trkpt>
      <trkpt lat="20.22773333" lon="-98.73714167">
        <ele>2182.0</ele>
        <time>2019-10-12T14:51:49.835Z</time>
      </trkpt>
      <trkpt lat="20.22776333" lon="-98.73714167">
        <ele>2182.0</ele>
        <time>2019-10-12T14:51:50.839Z</time>
      </trkpt>
      <trkpt lat="20.22778667" lon="-98.73713667">
        <ele>2182.0</ele>
        <time>2019-10-12T14:51:51.844Z</time>
      </trkpt>
      <trkpt lat="20.22782" lon="-98.737125">
        <ele>2181.0</ele>
        <time>2019-10-12T14:51:52.846Z</time>
      </trkpt>
      <trkpt lat="20.227845" lon="-98.737115">
        <ele>2181.0</ele>
        <time>2019-10-12T14:51:53.849Z</time>
      </trkpt>
      <trkpt lat="20.227865" lon="-98.73709667">
        <ele>2182.0</ele>
        <time>2019-10-12T14:51:54.855Z</time>
      </trkpt>
      <trkpt lat="20.22788333" lon="-98.73707">
        <ele>2182.0</ele>
        <time>2019-10-12T14:51:55.861Z</time>
      </trkpt>
      <trkpt lat="20.22789667" lon="-98.73704333">
        <ele>2182.0</ele>
        <time>2019-10-12T14:51:56.865Z</time>
      </trkpt>
      <trkpt lat="20.22790833" lon="-98.73701833">
        <ele>2183.0</ele>
        <time>2019-10-12T14:51:57.871Z</time>
      </trkpt>
      <trkpt lat="20.22792" lon="-98.73699667">
        <ele>2184.0</ele>
        <time>2019-10-12T14:51:58.875Z</time>
      </trkpt>
      <trkpt lat="20.22793" lon="-98.73697667">
        <ele>2185.0</ele>
        <time>2019-10-12T14:51:59.878Z</time>
      </trkpt>
      <trkpt lat="20.22794167" lon="-98.73695333">
        <ele>2185.0</ele>
        <time>2019-10-12T14:52:00.883Z</time>
      </trkpt>
      <trkpt lat="20.22795167" lon="-98.736925">
        <ele>2185.0</ele>
        <time>2019-10-12T14:52:01.886Z</time>
      </trkpt>
      <trkpt lat="20.22795833" lon="-98.73689667">
        <ele>2185.0</ele>
        <time>2019-10-12T14:52:02.888Z</time>
      </trkpt>
      <trkpt lat="20.22796667" lon="-98.73687833">
        <ele>2185.0</ele>
        <time>2019-10-12T14:52:03.891Z</time>
      </trkpt>
      <trkpt lat="20.227975" lon="-98.736865">
        <ele>2185.0</ele>
        <time>2019-10-12T14:52:04.897Z</time>
      </trkpt>
      <trkpt lat="20.22797667" lon="-98.73684333">
        <ele>2185.0</ele>
        <time>2019-10-12T14:52:05.903Z</time>
      </trkpt>
      <trkpt lat="20.22797833" lon="-98.736815">
        <ele>2185.0</ele>
        <time>2019-10-12T14:52:06.908Z</time>
      </trkpt>
      <trkpt lat="20.22798667" lon="-98.736795">
        <ele>2185.0</ele>
        <time>2019-10-12T14:52:07.909Z</time>
      </trkpt>
      <trkpt lat="20.228" lon="-98.73677333">
        <ele>2187.0</ele>
        <time>2019-10-12T14:52:08.911Z</time>
      </trkpt>
      <trkpt lat="20.22801667" lon="-98.73675167">
        <ele>2188.0</ele>
        <time>2019-10-12T14:52:09.912Z</time>
      </trkpt>
      <trkpt lat="20.22802667" lon="-98.73673">
        <ele>2189.0</ele>
        <time>2019-10-12T14:52:10.916Z</time>
      </trkpt>
      <trkpt lat="20.22803333" lon="-98.73671">
        <ele>2190.0</ele>
        <time>2019-10-12T14:52:11.922Z</time>
      </trkpt>
      <trkpt lat="20.22803667" lon="-98.73669">
        <ele>2190.0</ele>
        <time>2019-10-12T14:52:12.929Z</time>
      </trkpt>
      <trkpt lat="20.22804" lon="-98.73666667">
        <ele>2190.0</ele>
        <time>2019-10-12T14:52:13.935Z</time>
      </trkpt>
      <trkpt lat="20.22804167" lon="-98.73664167">
        <ele>2190.0</ele>
        <time>2019-10-12T14:52:14.940Z</time>
      </trkpt>
      <trkpt lat="20.22804833" lon="-98.73661667">
        <ele>2190.0</ele>
        <time>2019-10-12T14:52:15.945Z</time>
      </trkpt>
      <trkpt lat="20.22805" lon="-98.73659833">
        <ele>2190.0</ele>
        <time>2019-10-12T14:52:16.952Z</time>
      </trkpt>
      <trkpt lat="20.22806" lon="-98.736585">
        <ele>2191.0</ele>
        <time>2019-10-12T14:52:17.833Z</time>
      </trkpt>
      <trkpt lat="20.22806833" lon="-98.73656833">
        <ele>2192.0</ele>
        <time>2019-10-12T14:52:18.834Z</time>
      </trkpt>
      <trkpt lat="20.22807333" lon="-98.73654667">
        <ele>2192.0</ele>
        <time>2019-10-12T14:52:19.834Z</time>
      </trkpt>
      <trkpt lat="20.22808333" lon="-98.73652667">
        <ele>2192.0</ele>
        <time>2019-10-12T14:52:20.836Z</time>
      </trkpt>
      <trkpt lat="20.22809" lon="-98.73651333">
        <ele>2193.0</ele>
        <time>2019-10-12T14:52:21.837Z</time>
      </trkpt>
      <trkpt lat="20.2281" lon="-98.736505">
        <ele>2193.0</ele>
        <time>2019-10-12T14:52:22.837Z</time>
      </trkpt>
      <trkpt lat="20.22810833" lon="-98.73650333">
        <ele>2194.0</ele>
        <time>2019-10-12T14:52:23.838Z</time>
      </trkpt>
      <trkpt lat="20.22811" lon="-98.736495">
        <ele>2194.0</ele>
        <time>2019-10-12T14:52:24.839Z</time>
      </trkpt>
      <trkpt lat="20.22810167" lon="-98.73648167">
        <ele>2193.0</ele>
        <time>2019-10-12T14:52:25.840Z</time>
      </trkpt>
      <trkpt lat="20.22809833" lon="-98.73647167">
        <ele>2193.0</ele>
        <time>2019-10-12T14:52:26.841Z</time>
      </trkpt>
      <trkpt lat="20.22809833" lon="-98.73645167">
        <ele>2193.0</ele>
        <time>2019-10-12T14:52:27.842Z</time>
      </trkpt>
      <trkpt lat="20.2281" lon="-98.73642833">
        <ele>2192.0</ele>
        <time>2019-10-12T14:52:28.842Z</time>
      </trkpt>
      <trkpt lat="20.22809667" lon="-98.73641167">
        <ele>2192.0</ele>
        <time>2019-10-12T14:52:29.843Z</time>
      </trkpt>
      <trkpt lat="20.22809667" lon="-98.736395">
        <ele>2191.0</ele>
        <time>2019-10-12T14:52:30.844Z</time>
      </trkpt>
      <trkpt lat="20.22809667" lon="-98.73638333">
        <ele>2191.0</ele>
        <time>2019-10-12T14:52:31.845Z</time>
      </trkpt>
      <trkpt lat="20.22809833" lon="-98.736365">
        <ele>2191.0</ele>
        <time>2019-10-12T14:52:32.846Z</time>
      </trkpt>
      <trkpt lat="20.228095" lon="-98.736345">
        <ele>2190.0</ele>
        <time>2019-10-12T14:52:33.853Z</time>
      </trkpt>
      <trkpt lat="20.22809333" lon="-98.73632833">
        <ele>2190.0</ele>
        <time>2019-10-12T14:52:34.858Z</time>
      </trkpt>
      <trkpt lat="20.22809333" lon="-98.736315">
        <ele>2191.0</ele>
        <time>2019-10-12T14:52:35.861Z</time>
      </trkpt>
      <trkpt lat="20.22809167" lon="-98.736305">
        <ele>2191.0</ele>
        <time>2019-10-12T14:52:36.864Z</time>
      </trkpt>
      <trkpt lat="20.228095" lon="-98.73628833">
        <ele>2191.0</ele>
        <time>2019-10-12T14:52:37.867Z</time>
      </trkpt>
      <trkpt lat="20.22809667" lon="-98.73627333">
        <ele>2192.0</ele>
        <time>2019-10-12T14:52:38.868Z</time>
      </trkpt>
      <trkpt lat="20.22809833" lon="-98.736255">
        <ele>2192.0</ele>
        <time>2019-10-12T14:52:39.868Z</time>
      </trkpt>
      <trkpt lat="20.2281" lon="-98.73623333">
        <ele>2192.0</ele>
        <time>2019-10-12T14:52:40.869Z</time>
      </trkpt>
      <trkpt lat="20.22809167" lon="-98.73621333">
        <ele>2192.0</ele>
        <time>2019-10-12T14:52:41.869Z</time>
      </trkpt>
      <trkpt lat="20.22808833" lon="-98.736195">
        <ele>2191.0</ele>
        <time>2019-10-12T14:52:42.870Z</time>
      </trkpt>
      <trkpt lat="20.22808667" lon="-98.73617333">
        <ele>2191.0</ele>
        <time>2019-10-12T14:52:43.871Z</time>
      </trkpt>
      <trkpt lat="20.22808667" lon="-98.73615167">
        <ele>2191.0</ele>
        <time>2019-10-12T14:52:44.874Z</time>
      </trkpt>
      <trkpt lat="20.22808667" lon="-98.73613">
        <ele>2191.0</ele>
        <time>2019-10-12T14:52:45.877Z</time>
      </trkpt>
      <trkpt lat="20.22809167" lon="-98.73611833">
        <ele>2192.0</ele>
        <time>2019-10-12T14:52:46.879Z</time>
      </trkpt>
      <trkpt lat="20.22809333" lon="-98.736105">
        <ele>2192.0</ele>
        <time>2019-10-12T14:52:47.884Z</time>
      </trkpt>
      <trkpt lat="20.22809667" lon="-98.73609">
        <ele>2192.0</ele>
        <time>2019-10-12T14:52:48.889Z</time>
      </trkpt>
      <trkpt lat="20.22810167" lon="-98.73607333">
        <ele>2192.0</ele>
        <time>2019-10-12T14:52:49.890Z</time>
      </trkpt>
      <trkpt lat="20.22810167" lon="-98.736055">
        <ele>2193.0</ele>
        <time>2019-10-12T14:52:50.891Z</time>
      </trkpt>
      <trkpt lat="20.22810833" lon="-98.73603833">
        <ele>2193.0</ele>
        <time>2019-10-12T14:52:51.894Z</time>
      </trkpt>
      <trkpt lat="20.22812333" lon="-98.73602167">
        <ele>2193.0</ele>
        <time>2019-10-12T14:52:52.899Z</time>
      </trkpt>
      <trkpt lat="20.22813667" lon="-98.73600833">
        <ele>2193.0</ele>
        <time>2019-10-12T14:52:53.900Z</time>
      </trkpt>
      <trkpt lat="20.22815" lon="-98.73598333">
        <ele>2194.0</ele>
        <time>2019-10-12T14:52:54.902Z</time>
      </trkpt>
      <trkpt lat="20.22816" lon="-98.73596">
        <ele>2194.0</ele>
        <time>2019-10-12T14:52:55.907Z</time>
      </trkpt>
      <trkpt lat="20.228175" lon="-98.735935">
        <ele>2194.0</ele>
        <time>2019-10-12T14:52:56.909Z</time>
      </trkpt>
      <trkpt lat="20.22818833" lon="-98.73591667">
        <ele>2195.0</ele>
        <time>2019-10-12T14:52:57.913Z</time>
      </trkpt>
      <trkpt lat="20.228195" lon="-98.73590167">
        <ele>2195.0</ele>
        <time>2019-10-12T14:52:58.918Z</time>
      </trkpt>
      <trkpt lat="20.228195" lon="-98.73588333">
        <ele>2196.0</ele>
        <time>2019-10-12T14:52:59.921Z</time>
      </trkpt>
      <trkpt lat="20.22819667" lon="-98.73586833">
        <ele>2196.0</ele>
        <time>2019-10-12T14:53:00.922Z</time>
      </trkpt>
      <trkpt lat="20.22819167" lon="-98.73585167">
        <ele>2195.0</ele>
        <time>2019-10-12T14:53:01.923Z</time>
      </trkpt>
      <trkpt lat="20.22819167" lon="-98.73583667">
        <ele>2194.0</ele>
        <time>2019-10-12T14:53:02.924Z</time>
      </trkpt>
      <trkpt lat="20.22819167" lon="-98.73581667">
        <ele>2194.0</ele>
        <time>2019-10-12T14:53:03.929Z</time>
      </trkpt>
      <trkpt lat="20.228195" lon="-98.73579333">
        <ele>2195.0</ele>
        <time>2019-10-12T14:53:04.935Z</time>
      </trkpt>
      <trkpt lat="20.22819833" lon="-98.73577833">
        <ele>2195.0</ele>
        <time>2019-10-12T14:53:05.939Z</time>
      </trkpt>
      <trkpt lat="20.2282" lon="-98.73577">
        <ele>2196.0</ele>
        <time>2019-10-12T14:53:06.944Z</time>
      </trkpt>
      <trkpt lat="20.22820333" lon="-98.73575333">
        <ele>2196.0</ele>
        <time>2019-10-12T14:53:07.951Z</time>
      </trkpt>
      <trkpt lat="20.228205" lon="-98.73573333">
        <ele>2197.0</ele>
        <time>2019-10-12T14:53:08.953Z</time>
      </trkpt>
      <trkpt lat="20.22821" lon="-98.73572">
        <ele>2197.0</ele>
        <time>2019-10-12T14:53:09.830Z</time>
      </trkpt>
      <trkpt lat="20.22821833" lon="-98.73570667">
        <ele>2198.0</ele>
        <time>2019-10-12T14:53:10.830Z</time>
      </trkpt>
      <trkpt lat="20.22823" lon="-98.73569667">
        <ele>2198.0</ele>
        <time>2019-10-12T14:53:11.831Z</time>
      </trkpt>
      <trkpt lat="20.228245" lon="-98.73568333">
        <ele>2198.0</ele>
        <time>2019-10-12T14:53:12.831Z</time>
      </trkpt>
      <trkpt lat="20.22826833" lon="-98.73567167">
        <ele>2198.0</ele>
        <time>2019-10-12T14:53:13.833Z</time>
      </trkpt>
      <trkpt lat="20.22829333" lon="-98.73566333">
        <ele>2198.0</ele>
        <time>2019-10-12T14:53:14.834Z</time>
      </trkpt>
      <trkpt lat="20.22831333" lon="-98.73564833">
        <ele>2198.0</ele>
        <time>2019-10-12T14:53:15.837Z</time>
      </trkpt>
      <trkpt lat="20.22833167" lon="-98.73563667">
        <ele>2199.0</ele>
        <time>2019-10-12T14:53:16.842Z</time>
      </trkpt>
      <trkpt lat="20.22835" lon="-98.73562333">
        <ele>2199.0</ele>
        <time>2019-10-12T14:53:17.848Z</time>
      </trkpt>
      <trkpt lat="20.22836333" lon="-98.73561167">
        <ele>2199.0</ele>
        <time>2019-10-12T14:53:18.854Z</time>
      </trkpt>
      <trkpt lat="20.22837667" lon="-98.73559667">
        <ele>2198.0</ele>
        <time>2019-10-12T14:53:19.860Z</time>
      </trkpt>
      <trkpt lat="20.22839" lon="-98.73558">
        <ele>2197.0</ele>
        <time>2019-10-12T14:53:20.864Z</time>
      </trkpt>
      <trkpt lat="20.228405" lon="-98.73556">
        <ele>2197.0</ele>
        <time>2019-10-12T14:53:21.869Z</time>
      </trkpt>
      <trkpt lat="20.22841833" lon="-98.73553833">
        <ele>2197.0</ele>
        <time>2019-10-12T14:53:22.873Z</time>
      </trkpt>
      <trkpt lat="20.22842833" lon="-98.73552167">
        <ele>2198.0</ele>
        <time>2019-10-12T14:53:23.873Z</time>
      </trkpt>
      <trkpt lat="20.22843667" lon="-98.73549833">
        <ele>2199.0</ele>
        <time>2019-10-12T14:53:24.874Z</time>
      </trkpt>
      <trkpt lat="20.22844833" lon="-98.73547333">
        <ele>2200.0</ele>
        <time>2019-10-12T14:53:25.875Z</time>
      </trkpt>
      <trkpt lat="20.22846167" lon="-98.73545333">
        <ele>2200.0</ele>
        <time>2019-10-12T14:53:26.876Z</time>
      </trkpt>
      <trkpt lat="20.22847" lon="-98.73543833">
        <ele>2201.0</ele>
        <time>2019-10-12T14:53:27.877Z</time>
      </trkpt>
      <trkpt lat="20.22848333" lon="-98.73541667">
        <ele>2201.0</ele>
        <time>2019-10-12T14:53:28.878Z</time>
      </trkpt>
      <trkpt lat="20.22849333" lon="-98.73538833">
        <ele>2200.0</ele>
        <time>2019-10-12T14:53:29.884Z</time>
      </trkpt>
      <trkpt lat="20.22850167" lon="-98.73536667">
        <ele>2201.0</ele>
        <time>2019-10-12T14:53:30.890Z</time>
      </trkpt>
      <trkpt lat="20.22850833" lon="-98.73534333">
        <ele>2201.0</ele>
        <time>2019-10-12T14:53:31.895Z</time>
      </trkpt>
      <trkpt lat="20.228515" lon="-98.73532333">
        <ele>2201.0</ele>
        <time>2019-10-12T14:53:32.900Z</time>
      </trkpt>
      <trkpt lat="20.22851667" lon="-98.73531167">
        <ele>2202.0</ele>
        <time>2019-10-12T14:53:33.907Z</time>
      </trkpt>
      <trkpt lat="20.228515" lon="-98.73529167">
        <ele>2202.0</ele>
        <time>2019-10-12T14:53:34.912Z</time>
      </trkpt>
      <trkpt lat="20.22851167" lon="-98.73528">
        <ele>2203.0</ele>
        <time>2019-10-12T14:53:35.916Z</time>
      </trkpt>
      <trkpt lat="20.22851" lon="-98.735265">
        <ele>2203.0</ele>
        <time>2019-10-12T14:53:36.923Z</time>
      </trkpt>
      <trkpt lat="20.22851333" lon="-98.73525667">
        <ele>2204.0</ele>
        <time>2019-10-12T14:53:37.930Z</time>
      </trkpt>
      <trkpt lat="20.22852333" lon="-98.73526">
        <ele>2205.0</ele>
        <time>2019-10-12T14:53:38.936Z</time>
      </trkpt>
      <trkpt lat="20.22852333" lon="-98.73526667">
        <ele>2205.0</ele>
        <time>2019-10-12T14:53:39.942Z</time>
      </trkpt>
      <trkpt lat="20.22853167" lon="-98.73528833">
        <ele>2206.0</ele>
        <time>2019-10-12T14:53:40.946Z</time>
      </trkpt>
      <trkpt lat="20.228545" lon="-98.73531167">
        <ele>2207.0</ele>
        <time>2019-10-12T14:53:41.947Z</time>
      </trkpt>
      <trkpt lat="20.228555" lon="-98.73533167">
        <ele>2208.0</ele>
        <time>2019-10-12T14:53:42.947Z</time>
      </trkpt>
      <trkpt lat="20.22857333" lon="-98.73535667">
        <ele>2208.0</ele>
        <time>2019-10-12T14:53:43.947Z</time>
      </trkpt>
      <trkpt lat="20.22859167" lon="-98.73538">
        <ele>2209.0</ele>
        <time>2019-10-12T14:53:44.948Z</time>
      </trkpt>
      <trkpt lat="20.228615" lon="-98.73538167">
        <ele>2210.0</ele>
        <time>2019-10-12T14:53:45.948Z</time>
      </trkpt>
      <trkpt lat="20.228635" lon="-98.73539">
        <ele>2211.0</ele>
        <time>2019-10-12T14:53:46.948Z</time>
      </trkpt>
      <trkpt lat="20.22865333" lon="-98.735395">
        <ele>2212.0</ele>
        <time>2019-10-12T14:53:47.948Z</time>
      </trkpt>
      <trkpt lat="20.22867333" lon="-98.7354">
        <ele>2213.0</ele>
        <time>2019-10-12T14:53:48.949Z</time>
      </trkpt>
      <trkpt lat="20.228685" lon="-98.73540333">
        <ele>2215.0</ele>
        <time>2019-10-12T14:53:49.949Z</time>
      </trkpt>
      <trkpt lat="20.22869333" lon="-98.73541333">
        <ele>2215.0</ele>
        <time>2019-10-12T14:53:50.949Z</time>
      </trkpt>
      <trkpt lat="20.22869667" lon="-98.735435">
        <ele>2217.0</ele>
        <time>2019-10-12T14:53:51.949Z</time>
      </trkpt>
      <trkpt lat="20.22869667" lon="-98.73545833">
        <ele>2218.0</ele>
        <time>2019-10-12T14:53:52.950Z</time>
      </trkpt>
      <trkpt lat="20.22869667" lon="-98.735485">
        <ele>2218.0</ele>
        <time>2019-10-12T14:53:53.950Z</time>
      </trkpt>
      <trkpt lat="20.228705" lon="-98.73551333">
        <ele>2219.0</ele>
        <time>2019-10-12T14:53:54.950Z</time>
      </trkpt>
      <trkpt lat="20.22871833" lon="-98.73553833">
        <ele>2219.0</ele>
        <time>2019-10-12T14:53:55.950Z</time>
      </trkpt>
      <trkpt lat="20.22872833" lon="-98.73556667">
        <ele>2220.0</ele>
        <time>2019-10-12T14:53:56.950Z</time>
      </trkpt>
      <trkpt lat="20.22874167" lon="-98.735585">
        <ele>2220.0</ele>
        <time>2019-10-12T14:53:57.951Z</time>
      </trkpt>
      <trkpt lat="20.22876167" lon="-98.73559333">
        <ele>2221.0</ele>
        <time>2019-10-12T14:53:58.951Z</time>
      </trkpt>
      <trkpt lat="20.22878167" lon="-98.735605">
        <ele>2221.0</ele>
        <time>2019-10-12T14:53:59.952Z</time>
      </trkpt>
      <trkpt lat="20.22879667" lon="-98.73561167">
        <ele>2221.0</ele>
        <time>2019-10-12T14:54:00.952Z</time>
      </trkpt>
      <trkpt lat="20.22881" lon="-98.735625">
        <ele>2222.0</ele>
        <time>2019-10-12T14:54:01.953Z</time>
      </trkpt>
      <trkpt lat="20.22881833" lon="-98.735635">
        <ele>2223.0</ele>
        <time>2019-10-12T14:54:02.954Z</time>
      </trkpt>
      <trkpt lat="20.228825" lon="-98.73564833">
        <ele>2223.0</ele>
        <time>2019-10-12T14:54:03.830Z</time>
      </trkpt>
      <trkpt lat="20.22882667" lon="-98.73566">
        <ele>2223.0</ele>
        <time>2019-10-12T14:54:04.831Z</time>
      </trkpt>
      <trkpt lat="20.228825" lon="-98.73566833">
        <ele>2224.0</ele>
        <time>2019-10-12T14:54:05.831Z</time>
      </trkpt>
      <trkpt lat="20.22882667" lon="-98.73568167">
        <ele>2224.0</ele>
        <time>2019-10-12T14:54:06.832Z</time>
      </trkpt>
      <trkpt lat="20.22882167" lon="-98.73569667">
        <ele>2224.0</ele>
        <time>2019-10-12T14:54:07.833Z</time>
      </trkpt>
      <trkpt lat="20.22881833" lon="-98.73571833">
        <ele>2224.0</ele>
        <time>2019-10-12T14:54:08.834Z</time>
      </trkpt>
      <trkpt lat="20.22882" lon="-98.73574167">
        <ele>2223.0</ele>
        <time>2019-10-12T14:54:09.835Z</time>
      </trkpt>
      <trkpt lat="20.22883" lon="-98.73576">
        <ele>2223.0</ele>
        <time>2019-10-12T14:54:10.835Z</time>
      </trkpt>
      <trkpt lat="20.228845" lon="-98.73578">
        <ele>2223.0</ele>
        <time>2019-10-12T14:54:11.836Z</time>
      </trkpt>
      <trkpt lat="20.22886333" lon="-98.73580333">
        <ele>2223.0</ele>
        <time>2019-10-12T14:54:12.837Z</time>
      </trkpt>
      <trkpt lat="20.22888333" lon="-98.73582167">
        <ele>2223.0</ele>
        <time>2019-10-12T14:54:13.837Z</time>
      </trkpt>
      <trkpt lat="20.22889667" lon="-98.73584167">
        <ele>2223.0</ele>
        <time>2019-10-12T14:54:14.839Z</time>
      </trkpt>
      <trkpt lat="20.22891833" lon="-98.73585167">
        <ele>2223.0</ele>
        <time>2019-10-12T14:54:15.840Z</time>
      </trkpt>
      <trkpt lat="20.22894167" lon="-98.73586167">
        <ele>2223.0</ele>
        <time>2019-10-12T14:54:16.840Z</time>
      </trkpt>
      <trkpt lat="20.22896167" lon="-98.735875">
        <ele>2223.0</ele>
        <time>2019-10-12T14:54:17.841Z</time>
      </trkpt>
      <trkpt lat="20.22898333" lon="-98.73588833">
        <ele>2224.0</ele>
        <time>2019-10-12T14:54:18.842Z</time>
      </trkpt>
      <trkpt lat="20.229005" lon="-98.735895">
        <ele>2223.0</ele>
        <time>2019-10-12T14:54:19.843Z</time>
      </trkpt>
      <trkpt lat="20.22902833" lon="-98.73590667">
        <ele>2224.0</ele>
        <time>2019-10-12T14:54:20.846Z</time>
      </trkpt>
      <trkpt lat="20.22905167" lon="-98.73592">
        <ele>2225.0</ele>
        <time>2019-10-12T14:54:21.852Z</time>
      </trkpt>
      <trkpt lat="20.22907667" lon="-98.735925">
        <ele>2225.0</ele>
        <time>2019-10-12T14:54:22.857Z</time>
      </trkpt>
      <trkpt lat="20.22909667" lon="-98.735935">
        <ele>2226.0</ele>
        <time>2019-10-12T14:54:23.860Z</time>
      </trkpt>
      <trkpt lat="20.22911833" lon="-98.73594167">
        <ele>2226.0</ele>
        <time>2019-10-12T14:54:24.864Z</time>
      </trkpt>
      <trkpt lat="20.22913" lon="-98.73595">
        <ele>2226.0</ele>
        <time>2019-10-12T14:54:25.869Z</time>
      </trkpt>
      <trkpt lat="20.229135" lon="-98.735955">
        <ele>2227.0</ele>
        <time>2019-10-12T14:54:26.872Z</time>
      </trkpt>
      <trkpt lat="20.22913167" lon="-98.73596333">
        <ele>2227.0</ele>
        <time>2019-10-12T14:54:27.873Z</time>
      </trkpt>
      <trkpt lat="20.22912833" lon="-98.73597333">
        <ele>2227.0</ele>
        <time>2019-10-12T14:54:28.874Z</time>
      </trkpt>
      <trkpt lat="20.229125" lon="-98.73598333">
        <ele>2227.0</ele>
        <time>2019-10-12T14:54:29.875Z</time>
      </trkpt>
      <trkpt lat="20.22912167" lon="-98.73599333">
        <ele>2227.0</ele>
        <time>2019-10-12T14:54:30.876Z</time>
      </trkpt>
      <trkpt lat="20.22911667" lon="-98.736005">
        <ele>2226.0</ele>
        <time>2019-10-12T14:54:31.878Z</time>
      </trkpt>
      <trkpt lat="20.22911667" lon="-98.73602333">
        <ele>2227.0</ele>
        <time>2019-10-12T14:54:32.881Z</time>
      </trkpt>
      <trkpt lat="20.22912" lon="-98.73604833">
        <ele>2227.0</ele>
        <time>2019-10-12T14:54:33.881Z</time>
      </trkpt>
      <trkpt lat="20.22912167" lon="-98.73607167">
        <ele>2227.0</ele>
        <time>2019-10-12T14:54:34.885Z</time>
      </trkpt>
      <trkpt lat="20.22911833" lon="-98.73609167">
        <ele>2227.0</ele>
        <time>2019-10-12T14:54:35.891Z</time>
      </trkpt>
      <trkpt lat="20.229115" lon="-98.73611167">
        <ele>2227.0</ele>
        <time>2019-10-12T14:54:36.895Z</time>
      </trkpt>
      <trkpt lat="20.22911333" lon="-98.73612667">
        <ele>2226.0</ele>
        <time>2019-10-12T14:54:37.899Z</time>
      </trkpt>
      <trkpt lat="20.22911667" lon="-98.73613667">
        <ele>2225.0</ele>
        <time>2019-10-12T14:54:38.902Z</time>
      </trkpt>
      <trkpt lat="20.22912167" lon="-98.73614167">
        <ele>2223.0</ele>
        <time>2019-10-12T14:54:39.906Z</time>
      </trkpt>
      <trkpt lat="20.22913" lon="-98.73614833">
        <ele>2222.0</ele>
        <time>2019-10-12T14:54:40.909Z</time>
      </trkpt>
      <trkpt lat="20.22914333" lon="-98.73615833">
        <ele>2221.0</ele>
        <time>2019-10-12T14:54:41.914Z</time>
      </trkpt>
      <trkpt lat="20.22915833" lon="-98.736165">
        <ele>2219.0</ele>
        <time>2019-10-12T14:54:42.918Z</time>
      </trkpt>
      <trkpt lat="20.22917" lon="-98.73617667">
        <ele>2218.0</ele>
        <time>2019-10-12T14:54:43.922Z</time>
      </trkpt>
      <trkpt lat="20.22917833" lon="-98.73619833">
        <ele>2218.0</ele>
        <time>2019-10-12T14:54:44.928Z</time>
      </trkpt>
      <trkpt lat="20.22918167" lon="-98.73622333">
        <ele>2218.0</ele>
        <time>2019-10-12T14:54:45.933Z</time>
      </trkpt>
      <trkpt lat="20.22918333" lon="-98.73624167">
        <ele>2218.0</ele>
        <time>2019-10-12T14:54:46.938Z</time>
      </trkpt>
      <trkpt lat="20.22917833" lon="-98.73626">
        <ele>2219.0</ele>
        <time>2019-10-12T14:54:47.943Z</time>
      </trkpt>
      <trkpt lat="20.229175" lon="-98.736275">
        <ele>2219.0</ele>
        <time>2019-10-12T14:54:48.946Z</time>
      </trkpt>
      <trkpt lat="20.22917333" lon="-98.73629667">
        <ele>2219.0</ele>
        <time>2019-10-12T14:54:49.952Z</time>
      </trkpt>
      <trkpt lat="20.22917" lon="-98.73632167">
        <ele>2220.0</ele>
        <time>2019-10-12T14:54:50.831Z</time>
      </trkpt>
      <trkpt lat="20.22917167" lon="-98.73635">
        <ele>2220.0</ele>
        <time>2019-10-12T14:54:51.835Z</time>
      </trkpt>
      <trkpt lat="20.22917833" lon="-98.736375">
        <ele>2220.0</ele>
        <time>2019-10-12T14:54:52.841Z</time>
      </trkpt>
      <trkpt lat="20.22918667" lon="-98.736395">
        <ele>2220.0</ele>
        <time>2019-10-12T14:54:53.847Z</time>
      </trkpt>
      <trkpt lat="20.22919333" lon="-98.73641333">
        <ele>2220.0</ele>
        <time>2019-10-12T14:54:54.851Z</time>
      </trkpt>
      <trkpt lat="20.2292" lon="-98.73642333">
        <ele>2220.0</ele>
        <time>2019-10-12T14:54:55.857Z</time>
      </trkpt>
      <trkpt lat="20.22920333" lon="-98.73643333">
        <ele>2220.0</ele>
        <time>2019-10-12T14:54:56.861Z</time>
      </trkpt>
      <trkpt lat="20.22920833" lon="-98.736445">
        <ele>2220.0</ele>
        <time>2019-10-12T14:54:57.861Z</time>
      </trkpt>
      <trkpt lat="20.22921167" lon="-98.736465">
        <ele>2220.0</ele>
        <time>2019-10-12T14:54:58.863Z</time>
      </trkpt>
      <trkpt lat="20.229215" lon="-98.73648333">
        <ele>2220.0</ele>
        <time>2019-10-12T14:54:59.867Z</time>
      </trkpt>
      <trkpt lat="20.22922" lon="-98.7365">
        <ele>2221.0</ele>
        <time>2019-10-12T14:55:00.872Z</time>
      </trkpt>
      <trkpt lat="20.229225" lon="-98.73651667">
        <ele>2221.0</ele>
        <time>2019-10-12T14:55:01.875Z</time>
      </trkpt>
      <trkpt lat="20.22923167" lon="-98.73653333">
        <ele>2221.0</ele>
        <time>2019-10-12T14:55:02.881Z</time>
      </trkpt>
      <trkpt lat="20.22924167" lon="-98.73654667">
        <ele>2221.0</ele>
        <time>2019-10-12T14:55:03.884Z</time>
      </trkpt>
      <trkpt lat="20.229255" lon="-98.73656">
        <ele>2221.0</ele>
        <time>2019-10-12T14:55:04.884Z</time>
      </trkpt>
      <trkpt lat="20.22926833" lon="-98.73657333">
        <ele>2220.0</ele>
        <time>2019-10-12T14:55:05.886Z</time>
      </trkpt>
      <trkpt lat="20.22928" lon="-98.73658667">
        <ele>2221.0</ele>
        <time>2019-10-12T14:55:06.889Z</time>
      </trkpt>
      <trkpt lat="20.229285" lon="-98.7366">
        <ele>2221.0</ele>
        <time>2019-10-12T14:55:07.896Z</time>
      </trkpt>
      <trkpt lat="20.22929" lon="-98.73661333">
        <ele>2222.0</ele>
        <time>2019-10-12T14:55:08.901Z</time>
      </trkpt>
      <trkpt lat="20.229295" lon="-98.73662">
        <ele>2223.0</ele>
        <time>2019-10-12T14:55:09.905Z</time>
      </trkpt>
      <trkpt lat="20.22929833" lon="-98.73663333">
        <ele>2223.0</ele>
        <time>2019-10-12T14:55:10.910Z</time>
      </trkpt>
      <trkpt lat="20.22930333" lon="-98.73665167">
        <ele>2224.0</ele>
        <time>2019-10-12T14:55:11.917Z</time>
      </trkpt>
      <trkpt lat="20.22931333" lon="-98.736665">
        <ele>2224.0</ele>
        <time>2019-10-12T14:55:12.920Z</time>
      </trkpt>
      <trkpt lat="20.22932333" lon="-98.73668167">
        <ele>2225.0</ele>
        <time>2019-10-12T14:55:13.922Z</time>
      </trkpt>
      <trkpt lat="20.22933333" lon="-98.73669667">
        <ele>2226.0</ele>
        <time>2019-10-12T14:55:14.925Z</time>
      </trkpt>
      <trkpt lat="20.229345" lon="-98.73670833">
        <ele>2226.0</ele>
        <time>2019-10-12T14:55:15.929Z</time>
      </trkpt>
      <trkpt lat="20.229355" lon="-98.73672167">
        <ele>2225.0</ele>
        <time>2019-10-12T14:55:16.929Z</time>
      </trkpt>
      <trkpt lat="20.229365" lon="-98.736735">
        <ele>2225.0</ele>
        <time>2019-10-12T14:55:17.929Z</time>
      </trkpt>
      <trkpt lat="20.229375" lon="-98.73675167">
        <ele>2224.0</ele>
        <time>2019-10-12T14:55:18.929Z</time>
      </trkpt>
      <trkpt lat="20.22938667" lon="-98.736765">
        <ele>2225.0</ele>
        <time>2019-10-12T14:55:19.930Z</time>
      </trkpt>
      <trkpt lat="20.2294" lon="-98.73677833">
        <ele>2225.0</ele>
        <time>2019-10-12T14:55:20.930Z</time>
      </trkpt>
      <trkpt lat="20.22941167" lon="-98.73679">
        <ele>2225.0</ele>
        <time>2019-10-12T14:55:21.930Z</time>
      </trkpt>
      <trkpt lat="20.22942167" lon="-98.73679833">
        <ele>2226.0</ele>
        <time>2019-10-12T14:55:22.931Z</time>
      </trkpt>
      <trkpt lat="20.22942667" lon="-98.73681167">
        <ele>2226.0</ele>
        <time>2019-10-12T14:55:23.931Z</time>
      </trkpt>
      <trkpt lat="20.22943167" lon="-98.73682667">
        <ele>2227.0</ele>
        <time>2019-10-12T14:55:24.931Z</time>
      </trkpt>
      <trkpt lat="20.22944" lon="-98.73684">
        <ele>2227.0</ele>
        <time>2019-10-12T14:55:25.932Z</time>
      </trkpt>
      <trkpt lat="20.22944833" lon="-98.73685333">
        <ele>2228.0</ele>
        <time>2019-10-12T14:55:26.932Z</time>
      </trkpt>
      <trkpt lat="20.22945333" lon="-98.73686833">
        <ele>2228.0</ele>
        <time>2019-10-12T14:55:27.932Z</time>
      </trkpt>
      <trkpt lat="20.22946" lon="-98.73688333">
        <ele>2229.0</ele>
        <time>2019-10-12T14:55:28.932Z</time>
      </trkpt>
      <trkpt lat="20.229465" lon="-98.7369">
        <ele>2229.0</ele>
        <time>2019-10-12T14:55:29.933Z</time>
      </trkpt>
      <trkpt lat="20.22947167" lon="-98.73692">
        <ele>2229.0</ele>
        <time>2019-10-12T14:55:30.934Z</time>
      </trkpt>
      <trkpt lat="20.22948" lon="-98.73693833">
        <ele>2228.0</ele>
        <time>2019-10-12T14:55:31.938Z</time>
      </trkpt>
      <trkpt lat="20.22948833" lon="-98.73695833">
        <ele>2229.0</ele>
        <time>2019-10-12T14:55:32.942Z</time>
      </trkpt>
      <trkpt lat="20.22949667" lon="-98.73697667">
        <ele>2228.0</ele>
        <time>2019-10-12T14:55:33.944Z</time>
      </trkpt>
      <trkpt lat="20.22950667" lon="-98.73699">
        <ele>2228.0</ele>
        <time>2019-10-12T14:55:34.946Z</time>
      </trkpt>
      <trkpt lat="20.229515" lon="-98.73700667">
        <ele>2228.0</ele>
        <time>2019-10-12T14:55:35.949Z</time>
      </trkpt>
      <trkpt lat="20.22952333" lon="-98.737025">
        <ele>2228.0</ele>
        <time>2019-10-12T14:55:36.955Z</time>
      </trkpt>
      <trkpt lat="20.22952667" lon="-98.737045">
        <ele>2229.0</ele>
        <time>2019-10-12T14:55:37.831Z</time>
      </trkpt>
      <trkpt lat="20.22953" lon="-98.73706333">
        <ele>2229.0</ele>
        <time>2019-10-12T14:55:38.840Z</time>
      </trkpt>
      <trkpt lat="20.22953333" lon="-98.73708333">
        <ele>2229.0</ele>
        <time>2019-10-12T14:55:39.842Z</time>
      </trkpt>
      <trkpt lat="20.22953833" lon="-98.7371">
        <ele>2229.0</ele>
        <time>2019-10-12T14:55:40.847Z</time>
      </trkpt>
      <trkpt lat="20.22954167" lon="-98.73711333">
        <ele>2229.0</ele>
        <time>2019-10-12T14:55:41.854Z</time>
      </trkpt>
      <trkpt lat="20.22955" lon="-98.73712833">
        <ele>2228.0</ele>
        <time>2019-10-12T14:55:42.861Z</time>
      </trkpt>
      <trkpt lat="20.22955833" lon="-98.737145">
        <ele>2228.0</ele>
        <time>2019-10-12T14:55:43.867Z</time>
      </trkpt>
      <trkpt lat="20.22956833" lon="-98.73715833">
        <ele>2227.0</ele>
        <time>2019-10-12T14:55:44.874Z</time>
      </trkpt>
      <trkpt lat="20.22957833" lon="-98.73717667">
        <ele>2226.0</ele>
        <time>2019-10-12T14:55:45.876Z</time>
      </trkpt>
      <trkpt lat="20.22959" lon="-98.737195">
        <ele>2226.0</ele>
        <time>2019-10-12T14:55:46.883Z</time>
      </trkpt>
      <trkpt lat="20.2296" lon="-98.73721">
        <ele>2225.0</ele>
        <time>2019-10-12T14:55:47.891Z</time>
      </trkpt>
      <trkpt lat="20.22961333" lon="-98.73722667">
        <ele>2225.0</ele>
        <time>2019-10-12T14:55:48.896Z</time>
      </trkpt>
      <trkpt lat="20.229625" lon="-98.737245">
        <ele>2224.0</ele>
        <time>2019-10-12T14:55:49.898Z</time>
      </trkpt>
      <trkpt lat="20.22963833" lon="-98.73725333">
        <ele>2224.0</ele>
        <time>2019-10-12T14:55:50.898Z</time>
      </trkpt>
      <trkpt lat="20.22965167" lon="-98.73726333">
        <ele>2224.0</ele>
        <time>2019-10-12T14:55:51.899Z</time>
      </trkpt>
      <trkpt lat="20.22966667" lon="-98.73727333">
        <ele>2224.0</ele>
        <time>2019-10-12T14:55:52.903Z</time>
      </trkpt>
      <trkpt lat="20.229685" lon="-98.73727667">
        <ele>2224.0</ele>
        <time>2019-10-12T14:55:53.905Z</time>
      </trkpt>
      <trkpt lat="20.229705" lon="-98.73727833">
        <ele>2224.0</ele>
        <time>2019-10-12T14:55:54.910Z</time>
      </trkpt>
      <trkpt lat="20.22972333" lon="-98.73727833">
        <ele>2224.0</ele>
        <time>2019-10-12T14:55:55.917Z</time>
      </trkpt>
      <trkpt lat="20.22974333" lon="-98.73727833">
        <ele>2225.0</ele>
        <time>2019-10-12T14:55:56.925Z</time>
      </trkpt>
      <trkpt lat="20.22976333" lon="-98.73727833">
        <ele>2225.0</ele>
        <time>2019-10-12T14:55:57.927Z</time>
      </trkpt>
      <trkpt lat="20.22978167" lon="-98.73727667">
        <ele>2225.0</ele>
        <time>2019-10-12T14:55:58.935Z</time>
      </trkpt>
      <trkpt lat="20.2298" lon="-98.73728167">
        <ele>2225.0</ele>
        <time>2019-10-12T14:55:59.942Z</time>
      </trkpt>
      <trkpt lat="20.22982" lon="-98.73728667">
        <ele>2225.0</ele>
        <time>2019-10-12T14:56:00.943Z</time>
      </trkpt>
      <trkpt lat="20.22984167" lon="-98.73729167">
        <ele>2225.0</ele>
        <time>2019-10-12T14:56:01.943Z</time>
      </trkpt>
      <trkpt lat="20.22985833" lon="-98.73729667">
        <ele>2225.0</ele>
        <time>2019-10-12T14:56:02.943Z</time>
      </trkpt>
      <trkpt lat="20.22987667" lon="-98.73730167">
        <ele>2226.0</ele>
        <time>2019-10-12T14:56:03.944Z</time>
      </trkpt>
      <trkpt lat="20.22989333" lon="-98.73730667">
        <ele>2226.0</ele>
        <time>2019-10-12T14:56:04.944Z</time>
      </trkpt>
      <trkpt lat="20.22990833" lon="-98.73731">
        <ele>2226.0</ele>
        <time>2019-10-12T14:56:05.944Z</time>
      </trkpt>
      <trkpt lat="20.22992" lon="-98.737305">
        <ele>2226.0</ele>
        <time>2019-10-12T14:56:06.945Z</time>
      </trkpt>
      <trkpt lat="20.229935" lon="-98.7373">
        <ele>2226.0</ele>
        <time>2019-10-12T14:56:07.945Z</time>
      </trkpt>
      <trkpt lat="20.22995" lon="-98.73729167">
        <ele>2225.0</ele>
        <time>2019-10-12T14:56:08.945Z</time>
      </trkpt>
      <trkpt lat="20.229965" lon="-98.73728333">
        <ele>2224.0</ele>
        <time>2019-10-12T14:56:09.946Z</time>
      </trkpt>
      <trkpt lat="20.22998" lon="-98.73728167">
        <ele>2223.0</ele>
        <time>2019-10-12T14:56:10.946Z</time>
      </trkpt>
      <trkpt lat="20.22999833" lon="-98.73728">
        <ele>2222.0</ele>
        <time>2019-10-12T14:56:11.946Z</time>
      </trkpt>
      <trkpt lat="20.23001833" lon="-98.73728">
        <ele>2222.0</ele>
        <time>2019-10-12T14:56:12.946Z</time>
      </trkpt>
      <trkpt lat="20.23003667" lon="-98.73727667">
        <ele>2222.0</ele>
        <time>2019-10-12T14:56:13.946Z</time>
      </trkpt>
      <trkpt lat="20.23005333" lon="-98.737275">
        <ele>2222.0</ele>
        <time>2019-10-12T14:56:14.946Z</time>
      </trkpt>
      <trkpt lat="20.23007167" lon="-98.73727167">
        <ele>2222.0</ele>
        <time>2019-10-12T14:56:15.947Z</time>
      </trkpt>
      <trkpt lat="20.23009167" lon="-98.73727333">
        <ele>2222.0</ele>
        <time>2019-10-12T14:56:16.947Z</time>
      </trkpt>
      <trkpt lat="20.23011" lon="-98.73727667">
        <ele>2222.0</ele>
        <time>2019-10-12T14:56:17.947Z</time>
      </trkpt>
      <trkpt lat="20.23012667" lon="-98.737285">
        <ele>2221.0</ele>
        <time>2019-10-12T14:56:18.948Z</time>
      </trkpt>
      <trkpt lat="20.230145" lon="-98.73729167">
        <ele>2220.0</ele>
        <time>2019-10-12T14:56:19.948Z</time>
      </trkpt>
      <trkpt lat="20.23016167" lon="-98.73730333">
        <ele>2220.0</ele>
        <time>2019-10-12T14:56:20.948Z</time>
      </trkpt>
      <trkpt lat="20.230175" lon="-98.73732167">
        <ele>2220.0</ele>
        <time>2019-10-12T14:56:21.949Z</time>
      </trkpt>
      <trkpt lat="20.23018833" lon="-98.73734667">
        <ele>2220.0</ele>
        <time>2019-10-12T14:56:22.949Z</time>
      </trkpt>
      <trkpt lat="20.23020167" lon="-98.73736833">
        <ele>2219.0</ele>
        <time>2019-10-12T14:56:23.949Z</time>
      </trkpt>
      <trkpt lat="20.23021667" lon="-98.73738833">
        <ele>2219.0</ele>
        <time>2019-10-12T14:56:24.950Z</time>
      </trkpt>
      <trkpt lat="20.230235" lon="-98.73740333">
        <ele>2220.0</ele>
        <time>2019-10-12T14:56:25.950Z</time>
      </trkpt>
      <trkpt lat="20.23025333" lon="-98.73741667">
        <ele>2220.0</ele>
        <time>2019-10-12T14:56:26.951Z</time>
      </trkpt>
      <trkpt lat="20.23027333" lon="-98.73743333">
        <ele>2221.0</ele>
        <time>2019-10-12T14:56:27.834Z</time>
      </trkpt>
      <trkpt lat="20.23029167" lon="-98.73744833">
        <ele>2221.0</ele>
        <time>2019-10-12T14:56:28.837Z</time>
      </trkpt>
      <trkpt lat="20.23031167" lon="-98.73746167">
        <ele>2222.0</ele>
        <time>2019-10-12T14:56:29.840Z</time>
      </trkpt>
      <trkpt lat="20.23033167" lon="-98.73746333">
        <ele>2222.0</ele>
        <time>2019-10-12T14:56:30.842Z</time>
      </trkpt>
      <trkpt lat="20.23035333" lon="-98.73746">
        <ele>2221.0</ele>
        <time>2019-10-12T14:56:31.847Z</time>
      </trkpt>
      <trkpt lat="20.23037833" lon="-98.73745333">
        <ele>2220.0</ele>
        <time>2019-10-12T14:56:32.851Z</time>
      </trkpt>
      <trkpt lat="20.23040167" lon="-98.73744333">
        <ele>2220.0</ele>
        <time>2019-10-12T14:56:33.852Z</time>
      </trkpt>
      <trkpt lat="20.23042833" lon="-98.73742833">
        <ele>2220.0</ele>
        <time>2019-10-12T14:56:34.854Z</time>
      </trkpt>
      <trkpt lat="20.23045333" lon="-98.737415">
        <ele>2220.0</ele>
        <time>2019-10-12T14:56:35.858Z</time>
      </trkpt>
      <trkpt lat="20.23047833" lon="-98.73739667">
        <ele>2219.0</ele>
        <time>2019-10-12T14:56:36.863Z</time>
      </trkpt>
      <trkpt lat="20.23049667" lon="-98.73737833">
        <ele>2219.0</ele>
        <time>2019-10-12T14:56:37.864Z</time>
      </trkpt>
      <trkpt lat="20.23051833" lon="-98.73736167">
        <ele>2219.0</ele>
        <time>2019-10-12T14:56:38.866Z</time>
      </trkpt>
      <trkpt lat="20.23053333" lon="-98.73734333">
        <ele>2218.0</ele>
        <time>2019-10-12T14:56:39.867Z</time>
      </trkpt>
      <trkpt lat="20.23055167" lon="-98.737325">
        <ele>2218.0</ele>
        <time>2019-10-12T14:56:40.869Z</time>
      </trkpt>
      <trkpt lat="20.23057" lon="-98.73731667">
        <ele>2217.0</ele>
        <time>2019-10-12T14:56:41.876Z</time>
      </trkpt>
      <trkpt lat="20.23058833" lon="-98.73731167">
        <ele>2217.0</ele>
        <time>2019-10-12T14:56:42.880Z</time>
      </trkpt>
      <trkpt lat="20.23061167" lon="-98.73731167">
        <ele>2217.0</ele>
        <time>2019-10-12T14:56:43.884Z</time>
      </trkpt>
      <trkpt lat="20.23063667" lon="-98.73730667">
        <ele>2217.0</ele>
        <time>2019-10-12T14:56:44.890Z</time>
      </trkpt>
      <trkpt lat="20.23066333" lon="-98.73730333">
        <ele>2217.0</ele>
        <time>2019-10-12T14:56:45.894Z</time>
      </trkpt>
      <trkpt lat="20.23069167" lon="-98.737295">
        <ele>2217.0</ele>
        <time>2019-10-12T14:56:46.894Z</time>
      </trkpt>
      <trkpt lat="20.23071667" lon="-98.73728333">
        <ele>2218.0</ele>
        <time>2019-10-12T14:56:47.895Z</time>
      </trkpt>
      <trkpt lat="20.23073833" lon="-98.73728">
        <ele>2217.0</ele>
        <time>2019-10-12T14:56:48.895Z</time>
      </trkpt>
      <trkpt lat="20.23076" lon="-98.73726667">
        <ele>2217.0</ele>
        <time>2019-10-12T14:56:49.895Z</time>
      </trkpt>
      <trkpt lat="20.23078167" lon="-98.73725167">
        <ele>2216.0</ele>
        <time>2019-10-12T14:56:50.896Z</time>
      </trkpt>
      <trkpt lat="20.23080333" lon="-98.73723833">
        <ele>2215.0</ele>
        <time>2019-10-12T14:56:51.896Z</time>
      </trkpt>
      <trkpt lat="20.23082333" lon="-98.73722667">
        <ele>2213.0</ele>
        <time>2019-10-12T14:56:52.896Z</time>
      </trkpt>
      <trkpt lat="20.23085333" lon="-98.73721167">
        <ele>2211.0</ele>
        <time>2019-10-12T14:56:53.897Z</time>
      </trkpt>
      <trkpt lat="20.23087667" lon="-98.73719667">
        <ele>2210.0</ele>
        <time>2019-10-12T14:56:54.897Z</time>
      </trkpt>
      <trkpt lat="20.2309" lon="-98.73717333">
        <ele>2209.0</ele>
        <time>2019-10-12T14:56:55.897Z</time>
      </trkpt>
      <trkpt lat="20.23092167" lon="-98.73716">
        <ele>2208.0</ele>
        <time>2019-10-12T14:56:56.898Z</time>
      </trkpt>
      <trkpt lat="20.230945" lon="-98.73714833">
        <ele>2207.0</ele>
        <time>2019-10-12T14:56:57.898Z</time>
      </trkpt>
      <trkpt lat="20.23096667" lon="-98.737135">
        <ele>2206.0</ele>
        <time>2019-10-12T14:56:58.898Z</time>
      </trkpt>
      <trkpt lat="20.23098333" lon="-98.73712167">
        <ele>2206.0</ele>
        <time>2019-10-12T14:56:59.899Z</time>
      </trkpt>
      <trkpt lat="20.23099833" lon="-98.73710833">
        <ele>2205.0</ele>
        <time>2019-10-12T14:57:00.899Z</time>
      </trkpt>
      <trkpt lat="20.231005" lon="-98.73709833">
        <ele>2205.0</ele>
        <time>2019-10-12T14:57:01.900Z</time>
      </trkpt>
      <trkpt lat="20.23100667" lon="-98.73708167">
        <ele>2205.0</ele>
        <time>2019-10-12T14:57:02.900Z</time>
      </trkpt>
      <trkpt lat="20.23101" lon="-98.73707667">
        <ele>2205.0</ele>
        <time>2019-10-12T14:57:03.900Z</time>
      </trkpt>
      <trkpt lat="20.23101667" lon="-98.73707333">
        <ele>2205.0</ele>
        <time>2019-10-12T14:57:04.901Z</time>
      </trkpt>
      <trkpt lat="20.23102667" lon="-98.73707167">
        <ele>2205.0</ele>
        <time>2019-10-12T14:57:05.901Z</time>
      </trkpt>
      <trkpt lat="20.231035" lon="-98.73706167">
        <ele>2204.0</ele>
        <time>2019-10-12T14:57:06.901Z</time>
      </trkpt>
      <trkpt lat="20.23104" lon="-98.73705167">
        <ele>2203.0</ele>
        <time>2019-10-12T14:57:07.902Z</time>
      </trkpt>
      <trkpt lat="20.23104667" lon="-98.737045">
        <ele>2204.0</ele>
        <time>2019-10-12T14:57:08.902Z</time>
      </trkpt>
      <trkpt lat="20.23105167" lon="-98.73704167">
        <ele>2204.0</ele>
        <time>2019-10-12T14:57:09.902Z</time>
      </trkpt>
      <trkpt lat="20.23105667" lon="-98.73704">
        <ele>2205.0</ele>
        <time>2019-10-12T14:57:10.902Z</time>
      </trkpt>
      <trkpt lat="20.23106167" lon="-98.73703833">
        <ele>2206.0</ele>
        <time>2019-10-12T14:57:11.903Z</time>
      </trkpt>
      <trkpt lat="20.23106333" lon="-98.73703667">
        <ele>2207.0</ele>
        <time>2019-10-12T14:57:12.903Z</time>
      </trkpt>
      <trkpt lat="20.23106833" lon="-98.73703667">
        <ele>2207.0</ele>
        <time>2019-10-12T14:57:13.903Z</time>
      </trkpt>
      <trkpt lat="20.23107333" lon="-98.73703667">
        <ele>2207.0</ele>
        <time>2019-10-12T14:57:14.904Z</time>
      </trkpt>
      <trkpt lat="20.23107667" lon="-98.73703833">
        <ele>2208.0</ele>
        <time>2019-10-12T14:57:15.904Z</time>
      </trkpt>
      <trkpt lat="20.23108333" lon="-98.73704">
        <ele>2209.0</ele>
        <time>2019-10-12T14:57:16.904Z</time>
      </trkpt>
      <trkpt lat="20.23109333" lon="-98.73704">
        <ele>2210.0</ele>
        <time>2019-10-12T14:57:17.905Z</time>
      </trkpt>
      <trkpt lat="20.23110333" lon="-98.73704">
        <ele>2211.0</ele>
        <time>2019-10-12T14:57:18.905Z</time>
      </trkpt>
      <trkpt lat="20.23111667" lon="-98.73704333">
        <ele>2211.0</ele>
        <time>2019-10-12T14:57:19.905Z</time>
      </trkpt>
      <trkpt lat="20.23112667" lon="-98.73705167">
        <ele>2211.0</ele>
        <time>2019-10-12T14:57:20.905Z</time>
      </trkpt>
      <trkpt lat="20.23113833" lon="-98.73706333">
        <ele>2211.0</ele>
        <time>2019-10-12T14:57:21.905Z</time>
      </trkpt>
      <trkpt lat="20.23115333" lon="-98.73707167">
        <ele>2211.0</ele>
        <time>2019-10-12T14:57:22.906Z</time>
      </trkpt>
      <trkpt lat="20.23117333" lon="-98.73708">
        <ele>2213.0</ele>
        <time>2019-10-12T14:57:23.906Z</time>
      </trkpt>
      <trkpt lat="20.23118833" lon="-98.73709667">
        <ele>2214.0</ele>
        <time>2019-10-12T14:57:24.906Z</time>
      </trkpt>
      <trkpt lat="20.231205" lon="-98.73711667">
        <ele>2216.0</ele>
        <time>2019-10-12T14:57:25.907Z</time>
      </trkpt>
      <trkpt lat="20.231225" lon="-98.73713167">
        <ele>2217.0</ele>
        <time>2019-10-12T14:57:26.909Z</time>
      </trkpt>
      <trkpt lat="20.23124833" lon="-98.73714333">
        <ele>2218.0</ele>
        <time>2019-10-12T14:57:27.909Z</time>
      </trkpt>
      <trkpt lat="20.23127" lon="-98.73715833">
        <ele>2218.0</ele>
        <time>2019-10-12T14:57:28.913Z</time>
      </trkpt>
      <trkpt lat="20.231285" lon="-98.73717">
        <ele>2219.0</ele>
        <time>2019-10-12T14:57:29.919Z</time>
      </trkpt>
      <trkpt lat="20.23130167" lon="-98.73718333">
        <ele>2220.0</ele>
        <time>2019-10-12T14:57:30.925Z</time>
      </trkpt>
      <trkpt lat="20.231315" lon="-98.73719167">
        <ele>2220.0</ele>
        <time>2019-10-12T14:57:31.930Z</time>
      </trkpt>
      <trkpt lat="20.23133333" lon="-98.73719667">
        <ele>2220.0</ele>
        <time>2019-10-12T14:57:32.931Z</time>
      </trkpt>
      <trkpt lat="20.23135833" lon="-98.73721333">
        <ele>2220.0</ele>
        <time>2019-10-12T14:57:33.935Z</time>
      </trkpt>
      <trkpt lat="20.23137833" lon="-98.73723">
        <ele>2220.0</ele>
        <time>2019-10-12T14:57:34.938Z</time>
      </trkpt>
      <trkpt lat="20.23140167" lon="-98.73724833">
        <ele>2219.0</ele>
        <time>2019-10-12T14:57:35.942Z</time>
      </trkpt>
      <trkpt lat="20.23142167" lon="-98.73726333">
        <ele>2219.0</ele>
        <time>2019-10-12T14:57:36.945Z</time>
      </trkpt>
      <trkpt lat="20.231445" lon="-98.73728">
        <ele>2219.0</ele>
        <time>2019-10-12T14:57:37.950Z</time>
      </trkpt>
      <trkpt lat="20.23146667" lon="-98.737295">
        <ele>2218.0</ele>
        <time>2019-10-12T14:57:38.954Z</time>
      </trkpt>
      <trkpt lat="20.23148833" lon="-98.73730167">
        <ele>2218.0</ele>
        <time>2019-10-12T14:57:39.834Z</time>
      </trkpt>
      <trkpt lat="20.23151" lon="-98.73730667">
        <ele>2217.0</ele>
        <time>2019-10-12T14:57:40.840Z</time>
      </trkpt>
      <trkpt lat="20.23152833" lon="-98.73731667">
        <ele>2215.0</ele>
        <time>2019-10-12T14:57:41.847Z</time>
      </trkpt>
      <trkpt lat="20.231545" lon="-98.73732333">
        <ele>2214.0</ele>
        <time>2019-10-12T14:57:42.850Z</time>
      </trkpt>
      <trkpt lat="20.23156167" lon="-98.73734">
        <ele>2214.0</ele>
        <time>2019-10-12T14:57:43.850Z</time>
      </trkpt>
      <trkpt lat="20.23157333" lon="-98.737365">
        <ele>2215.0</ele>
        <time>2019-10-12T14:57:44.850Z</time>
      </trkpt>
      <trkpt lat="20.23158" lon="-98.737385">
        <ele>2215.0</ele>
        <time>2019-10-12T14:57:45.851Z</time>
      </trkpt>
      <trkpt lat="20.23158667" lon="-98.73741167">
        <ele>2216.0</ele>
        <time>2019-10-12T14:57:46.851Z</time>
      </trkpt>
      <trkpt lat="20.23159333" lon="-98.73743667">
        <ele>2217.0</ele>
        <time>2019-10-12T14:57:47.851Z</time>
      </trkpt>
      <trkpt lat="20.2316" lon="-98.73746167">
        <ele>2218.0</ele>
        <time>2019-10-12T14:57:48.851Z</time>
      </trkpt>
      <trkpt lat="20.23161333" lon="-98.737495">
        <ele>2219.0</ele>
        <time>2019-10-12T14:57:49.851Z</time>
      </trkpt>
      <trkpt lat="20.23162667" lon="-98.73752333">
        <ele>2220.0</ele>
        <time>2019-10-12T14:57:50.852Z</time>
      </trkpt>
      <trkpt lat="20.23163667" lon="-98.737545">
        <ele>2220.0</ele>
        <time>2019-10-12T14:57:51.852Z</time>
      </trkpt>
      <trkpt lat="20.23164667" lon="-98.737565">
        <ele>2221.0</ele>
        <time>2019-10-12T14:57:52.852Z</time>
      </trkpt>
      <trkpt lat="20.23165167" lon="-98.73758333">
        <ele>2221.0</ele>
        <time>2019-10-12T14:57:53.852Z</time>
      </trkpt>
      <trkpt lat="20.23166" lon="-98.73760667">
        <ele>2222.0</ele>
        <time>2019-10-12T14:57:54.853Z</time>
      </trkpt>
      <trkpt lat="20.23167333" lon="-98.737625">
        <ele>2221.0</ele>
        <time>2019-10-12T14:57:55.858Z</time>
      </trkpt>
      <trkpt lat="20.23169" lon="-98.73764333">
        <ele>2220.0</ele>
        <time>2019-10-12T14:57:56.864Z</time>
      </trkpt>
      <trkpt lat="20.23171" lon="-98.737665">
        <ele>2219.0</ele>
        <time>2019-10-12T14:57:57.868Z</time>
      </trkpt>
      <trkpt lat="20.23173" lon="-98.73768333">
        <ele>2219.0</ele>
        <time>2019-10-12T14:57:58.873Z</time>
      </trkpt>
      <trkpt lat="20.23174667" lon="-98.73770333">
        <ele>2218.0</ele>
        <time>2019-10-12T14:57:59.877Z</time>
      </trkpt>
      <trkpt lat="20.23176333" lon="-98.73771667">
        <ele>2218.0</ele>
        <time>2019-10-12T14:58:00.880Z</time>
      </trkpt>
      <trkpt lat="20.23178" lon="-98.73773667">
        <ele>2219.0</ele>
        <time>2019-10-12T14:58:01.885Z</time>
      </trkpt>
      <trkpt lat="20.23179667" lon="-98.737755">
        <ele>2219.0</ele>
        <time>2019-10-12T14:58:02.892Z</time>
      </trkpt>
      <trkpt lat="20.23181167" lon="-98.737775">
        <ele>2219.0</ele>
        <time>2019-10-12T14:58:03.899Z</time>
      </trkpt>
      <trkpt lat="20.23183" lon="-98.73779333">
        <ele>2219.0</ele>
        <time>2019-10-12T14:58:04.905Z</time>
      </trkpt>
      <trkpt lat="20.23185167" lon="-98.73781">
        <ele>2219.0</ele>
        <time>2019-10-12T14:58:05.909Z</time>
      </trkpt>
      <trkpt lat="20.23187333" lon="-98.73782333">
        <ele>2219.0</ele>
        <time>2019-10-12T14:58:06.915Z</time>
      </trkpt>
      <trkpt lat="20.23189667" lon="-98.73783333">
        <ele>2219.0</ele>
        <time>2019-10-12T14:58:07.920Z</time>
      </trkpt>
      <trkpt lat="20.23192167" lon="-98.73784333">
        <ele>2219.0</ele>
        <time>2019-10-12T14:58:08.927Z</time>
      </trkpt>
      <trkpt lat="20.231945" lon="-98.73784667">
        <ele>2219.0</ele>
        <time>2019-10-12T14:58:09.935Z</time>
      </trkpt>
      <trkpt lat="20.231965" lon="-98.73785333">
        <ele>2219.0</ele>
        <time>2019-10-12T14:58:10.940Z</time>
      </trkpt>
      <trkpt lat="20.23198333" lon="-98.737865">
        <ele>2220.0</ele>
        <time>2019-10-12T14:58:11.940Z</time>
      </trkpt>
      <trkpt lat="20.23200167" lon="-98.73787833">
        <ele>2220.0</ele>
        <time>2019-10-12T14:58:12.941Z</time>
      </trkpt>
      <trkpt lat="20.23201833" lon="-98.73789333">
        <ele>2219.0</ele>
        <time>2019-10-12T14:58:13.945Z</time>
      </trkpt>
      <trkpt lat="20.23203167" lon="-98.73790667">
        <ele>2219.0</ele>
        <time>2019-10-12T14:58:14.951Z</time>
      </trkpt>
      <trkpt lat="20.23204667" lon="-98.737925">
        <ele>2219.0</ele>
        <time>2019-10-12T14:58:15.832Z</time>
      </trkpt>
      <trkpt lat="20.23206167" lon="-98.73793833">
        <ele>2218.0</ele>
        <time>2019-10-12T14:58:16.838Z</time>
      </trkpt>
      <trkpt lat="20.23207833" lon="-98.73794667">
        <ele>2217.0</ele>
        <time>2019-10-12T14:58:17.847Z</time>
      </trkpt>
      <trkpt lat="20.23209" lon="-98.73796333">
        <ele>2217.0</ele>
        <time>2019-10-12T14:58:18.852Z</time>
      </trkpt>
      <trkpt lat="20.23210333" lon="-98.73798">
        <ele>2217.0</ele>
        <time>2019-10-12T14:58:19.856Z</time>
      </trkpt>
      <trkpt lat="20.232115" lon="-98.738">
        <ele>2217.0</ele>
        <time>2019-10-12T14:58:20.858Z</time>
      </trkpt>
      <trkpt lat="20.23213" lon="-98.738015">
        <ele>2216.0</ele>
        <time>2019-10-12T14:58:21.859Z</time>
      </trkpt>
      <trkpt lat="20.23214667" lon="-98.73803167">
        <ele>2216.0</ele>
        <time>2019-10-12T14:58:22.859Z</time>
      </trkpt>
      <trkpt lat="20.23216333" lon="-98.738045">
        <ele>2216.0</ele>
        <time>2019-10-12T14:58:23.859Z</time>
      </trkpt>
      <trkpt lat="20.23217833" lon="-98.73806167">
        <ele>2216.0</ele>
        <time>2019-10-12T14:58:24.859Z</time>
      </trkpt>
      <trkpt lat="20.23219167" lon="-98.73808167">
        <ele>2215.0</ele>
        <time>2019-10-12T14:58:25.860Z</time>
      </trkpt>
      <trkpt lat="20.23220167" lon="-98.7381">
        <ele>2214.0</ele>
        <time>2019-10-12T14:58:26.860Z</time>
      </trkpt>
      <trkpt lat="20.232215" lon="-98.73811667">
        <ele>2214.0</ele>
        <time>2019-10-12T14:58:27.860Z</time>
      </trkpt>
      <trkpt lat="20.23223" lon="-98.73813167">
        <ele>2213.0</ele>
        <time>2019-10-12T14:58:28.860Z</time>
      </trkpt>
      <trkpt lat="20.23224833" lon="-98.73815">
        <ele>2213.0</ele>
        <time>2019-10-12T14:58:29.860Z</time>
      </trkpt>
      <trkpt lat="20.23226667" lon="-98.73816333">
        <ele>2213.0</ele>
        <time>2019-10-12T14:58:30.861Z</time>
      </trkpt>
      <trkpt lat="20.23228667" lon="-98.73817167">
        <ele>2212.0</ele>
        <time>2019-10-12T14:58:31.861Z</time>
      </trkpt>
      <trkpt lat="20.23230667" lon="-98.73817833">
        <ele>2211.0</ele>
        <time>2019-10-12T14:58:32.861Z</time>
      </trkpt>
      <trkpt lat="20.23232667" lon="-98.73819">
        <ele>2211.0</ele>
        <time>2019-10-12T14:58:33.861Z</time>
      </trkpt>
      <trkpt lat="20.23234667" lon="-98.73819833">
        <ele>2211.0</ele>
        <time>2019-10-12T14:58:34.861Z</time>
      </trkpt>
      <trkpt lat="20.23236667" lon="-98.73820667">
        <ele>2211.0</ele>
        <time>2019-10-12T14:58:35.862Z</time>
      </trkpt>
      <trkpt lat="20.23238333" lon="-98.73821167">
        <ele>2210.0</ele>
        <time>2019-10-12T14:58:36.862Z</time>
      </trkpt>
      <trkpt lat="20.23240333" lon="-98.738215">
        <ele>2210.0</ele>
        <time>2019-10-12T14:58:37.862Z</time>
      </trkpt>
      <trkpt lat="20.232425" lon="-98.738215">
        <ele>2210.0</ele>
        <time>2019-10-12T14:58:38.862Z</time>
      </trkpt>
      <trkpt lat="20.232445" lon="-98.73821">
        <ele>2211.0</ele>
        <time>2019-10-12T14:58:39.863Z</time>
      </trkpt>
      <trkpt lat="20.23246333" lon="-98.738205">
        <ele>2212.0</ele>
        <time>2019-10-12T14:58:40.863Z</time>
      </trkpt>
      <trkpt lat="20.23247667" lon="-98.7382">
        <ele>2212.0</ele>
        <time>2019-10-12T14:58:41.863Z</time>
      </trkpt>
      <trkpt lat="20.232485" lon="-98.73819833">
        <ele>2213.0</ele>
        <time>2019-10-12T14:58:42.863Z</time>
      </trkpt>
      <trkpt lat="20.23249333" lon="-98.73819667">
        <ele>2213.0</ele>
        <time>2019-10-12T14:58:43.863Z</time>
      </trkpt>
      <trkpt lat="20.23250167" lon="-98.73819167">
        <ele>2214.0</ele>
        <time>2019-10-12T14:58:44.866Z</time>
      </trkpt>
      <trkpt lat="20.23251167" lon="-98.738185">
        <ele>2214.0</ele>
        <time>2019-10-12T14:58:45.873Z</time>
      </trkpt>
      <trkpt lat="20.23252667" lon="-98.73817667">
        <ele>2214.0</ele>
        <time>2019-10-12T14:58:46.877Z</time>
      </trkpt>
      <trkpt lat="20.23254167" lon="-98.73816833">
        <ele>2214.0</ele>
        <time>2019-10-12T14:58:47.879Z</time>
      </trkpt>
      <trkpt lat="20.23255833" lon="-98.73816333">
        <ele>2214.0</ele>
        <time>2019-10-12T14:58:48.883Z</time>
      </trkpt>
      <trkpt lat="20.232575" lon="-98.73815667">
        <ele>2214.0</ele>
        <time>2019-10-12T14:58:49.887Z</time>
      </trkpt>
      <trkpt lat="20.23259167" lon="-98.738145">
        <ele>2213.0</ele>
        <time>2019-10-12T14:58:50.892Z</time>
      </trkpt>
      <trkpt lat="20.23260833" lon="-98.73814">
        <ele>2213.0</ele>
        <time>2019-10-12T14:58:51.896Z</time>
      </trkpt>
      <trkpt lat="20.23262833" lon="-98.738135">
        <ele>2214.0</ele>
        <time>2019-10-12T14:58:52.902Z</time>
      </trkpt>
      <trkpt lat="20.23264667" lon="-98.73813167">
        <ele>2213.0</ele>
        <time>2019-10-12T14:58:53.907Z</time>
      </trkpt>
      <trkpt lat="20.23267" lon="-98.73812667">
        <ele>2213.0</ele>
        <time>2019-10-12T14:58:54.913Z</time>
      </trkpt>
      <trkpt lat="20.23269333" lon="-98.73811167">
        <ele>2212.0</ele>
        <time>2019-10-12T14:58:55.917Z</time>
      </trkpt>
      <trkpt lat="20.232715" lon="-98.73809167">
        <ele>2212.0</ele>
        <time>2019-10-12T14:58:56.924Z</time>
      </trkpt>
      <trkpt lat="20.232735" lon="-98.73807333">
        <ele>2212.0</ele>
        <time>2019-10-12T14:58:57.931Z</time>
      </trkpt>
      <trkpt lat="20.23275333" lon="-98.73805333">
        <ele>2211.0</ele>
        <time>2019-10-12T14:58:58.937Z</time>
      </trkpt>
      <trkpt lat="20.23276833" lon="-98.73803667">
        <ele>2211.0</ele>
        <time>2019-10-12T14:58:59.945Z</time>
      </trkpt>
      <trkpt lat="20.23278333" lon="-98.738015">
        <ele>2210.0</ele>
        <time>2019-10-12T14:59:00.948Z</time>
      </trkpt>
      <trkpt lat="20.23280333" lon="-98.73799833">
        <ele>2210.0</ele>
        <time>2019-10-12T14:59:01.950Z</time>
      </trkpt>
      <trkpt lat="20.232825" lon="-98.73798">
        <ele>2211.0</ele>
        <time>2019-10-12T14:59:02.831Z</time>
      </trkpt>
      <trkpt lat="20.23285167" lon="-98.737965">
        <ele>2212.0</ele>
        <time>2019-10-12T14:59:03.837Z</time>
      </trkpt>
      <trkpt lat="20.23288" lon="-98.73795">
        <ele>2212.0</ele>
        <time>2019-10-12T14:59:04.839Z</time>
      </trkpt>
      <trkpt lat="20.23290667" lon="-98.73793833">
        <ele>2213.0</ele>
        <time>2019-10-12T14:59:05.844Z</time>
      </trkpt>
      <trkpt lat="20.232935" lon="-98.73793667">
        <ele>2214.0</ele>
        <time>2019-10-12T14:59:06.851Z</time>
      </trkpt>
      <trkpt lat="20.232965" lon="-98.73794667">
        <ele>2215.0</ele>
        <time>2019-10-12T14:59:07.857Z</time>
      </trkpt>
      <trkpt lat="20.23298833" lon="-98.73795833">
        <ele>2216.0</ele>
        <time>2019-10-12T14:59:08.861Z</time>
      </trkpt>
      <trkpt lat="20.23301" lon="-98.73797">
        <ele>2215.0</ele>
        <time>2019-10-12T14:59:09.865Z</time>
      </trkpt>
      <trkpt lat="20.233025" lon="-98.73797">
        <ele>2213.0</ele>
        <time>2019-10-12T14:59:10.868Z</time>
      </trkpt>
      <trkpt lat="20.233045" lon="-98.73797">
        <ele>2212.0</ele>
        <time>2019-10-12T14:59:11.869Z</time>
      </trkpt>
      <trkpt lat="20.23307167" lon="-98.73797167">
        <ele>2212.0</ele>
        <time>2019-10-12T14:59:12.869Z</time>
      </trkpt>
      <trkpt lat="20.2331" lon="-98.73797833">
        <ele>2213.0</ele>
        <time>2019-10-12T14:59:13.869Z</time>
      </trkpt>
      <trkpt lat="20.23312333" lon="-98.73797833">
        <ele>2214.0</ele>
        <time>2019-10-12T14:59:14.869Z</time>
      </trkpt>
      <trkpt lat="20.233145" lon="-98.73798167">
        <ele>2215.0</ele>
        <time>2019-10-12T14:59:15.870Z</time>
      </trkpt>
      <trkpt lat="20.23316667" lon="-98.737985">
        <ele>2216.0</ele>
        <time>2019-10-12T14:59:16.877Z</time>
      </trkpt>
      <trkpt lat="20.23318833" lon="-98.73798667">
        <ele>2216.0</ele>
        <time>2019-10-12T14:59:17.883Z</time>
      </trkpt>
      <trkpt lat="20.23321" lon="-98.73798833">
        <ele>2216.0</ele>
        <time>2019-10-12T14:59:18.886Z</time>
      </trkpt>
      <trkpt lat="20.23323333" lon="-98.73799333">
        <ele>2216.0</ele>
        <time>2019-10-12T14:59:19.886Z</time>
      </trkpt>
      <trkpt lat="20.23325667" lon="-98.737995">
        <ele>2217.0</ele>
        <time>2019-10-12T14:59:20.890Z</time>
      </trkpt>
      <trkpt lat="20.23327667" lon="-98.738">
        <ele>2216.0</ele>
        <time>2019-10-12T14:59:21.893Z</time>
      </trkpt>
      <trkpt lat="20.233295" lon="-98.73800667">
        <ele>2216.0</ele>
        <time>2019-10-12T14:59:22.893Z</time>
      </trkpt>
      <trkpt lat="20.23331" lon="-98.73801667">
        <ele>2215.0</ele>
        <time>2019-10-12T14:59:23.893Z</time>
      </trkpt>
      <trkpt lat="20.233335" lon="-98.73803667">
        <ele>2214.0</ele>
        <time>2019-10-12T14:59:24.895Z</time>
      </trkpt>
      <trkpt lat="20.23335833" lon="-98.73805667">
        <ele>2214.0</ele>
        <time>2019-10-12T14:59:25.896Z</time>
      </trkpt>
      <trkpt lat="20.23338333" lon="-98.73807667">
        <ele>2214.0</ele>
        <time>2019-10-12T14:59:26.899Z</time>
      </trkpt>
      <trkpt lat="20.23341167" lon="-98.73809">
        <ele>2214.0</ele>
        <time>2019-10-12T14:59:27.900Z</time>
      </trkpt>
      <trkpt lat="20.233435" lon="-98.73810333">
        <ele>2215.0</ele>
        <time>2019-10-12T14:59:28.901Z</time>
      </trkpt>
      <trkpt lat="20.233455" lon="-98.73811667">
        <ele>2216.0</ele>
        <time>2019-10-12T14:59:29.902Z</time>
      </trkpt>
      <trkpt lat="20.233475" lon="-98.73813167">
        <ele>2216.0</ele>
        <time>2019-10-12T14:59:30.904Z</time>
      </trkpt>
      <trkpt lat="20.23349667" lon="-98.738145">
        <ele>2217.0</ele>
        <time>2019-10-12T14:59:31.907Z</time>
      </trkpt>
      <trkpt lat="20.23352" lon="-98.73815">
        <ele>2216.0</ele>
        <time>2019-10-12T14:59:32.914Z</time>
      </trkpt>
      <trkpt lat="20.233545" lon="-98.73815667">
        <ele>2216.0</ele>
        <time>2019-10-12T14:59:33.918Z</time>
      </trkpt>
      <trkpt lat="20.23356833" lon="-98.73816167">
        <ele>2215.0</ele>
        <time>2019-10-12T14:59:34.921Z</time>
      </trkpt>
      <trkpt lat="20.23358833" lon="-98.73816667">
        <ele>2214.0</ele>
        <time>2019-10-12T14:59:35.925Z</time>
      </trkpt>
      <trkpt lat="20.23361167" lon="-98.738175">
        <ele>2214.0</ele>
        <time>2019-10-12T14:59:36.929Z</time>
      </trkpt>
      <trkpt lat="20.23363667" lon="-98.73818167">
        <ele>2214.0</ele>
        <time>2019-10-12T14:59:37.936Z</time>
      </trkpt>
      <trkpt lat="20.23366" lon="-98.73818667">
        <ele>2213.0</ele>
        <time>2019-10-12T14:59:38.938Z</time>
      </trkpt>
      <trkpt lat="20.23368167" lon="-98.73820333">
        <ele>2212.0</ele>
        <time>2019-10-12T14:59:39.938Z</time>
      </trkpt>
      <trkpt lat="20.23370167" lon="-98.73822667">
        <ele>2211.0</ele>
        <time>2019-10-12T14:59:40.938Z</time>
      </trkpt>
      <trkpt lat="20.23372" lon="-98.73824">
        <ele>2210.0</ele>
        <time>2019-10-12T14:59:41.938Z</time>
      </trkpt>
      <trkpt lat="20.23374333" lon="-98.738255">
        <ele>2209.0</ele>
        <time>2019-10-12T14:59:42.938Z</time>
      </trkpt>
      <trkpt lat="20.233765" lon="-98.73826333">
        <ele>2209.0</ele>
        <time>2019-10-12T14:59:43.939Z</time>
      </trkpt>
      <trkpt lat="20.23379" lon="-98.73826833">
        <ele>2209.0</ele>
        <time>2019-10-12T14:59:44.939Z</time>
      </trkpt>
      <trkpt lat="20.23381333" lon="-98.73828833">
        <ele>2209.0</ele>
        <time>2019-10-12T14:59:45.939Z</time>
      </trkpt>
      <trkpt lat="20.23383167" lon="-98.73829667">
        <ele>2208.0</ele>
        <time>2019-10-12T14:59:46.939Z</time>
      </trkpt>
      <trkpt lat="20.23384667" lon="-98.73830333">
        <ele>2207.0</ele>
        <time>2019-10-12T14:59:47.940Z</time>
      </trkpt>
      <trkpt lat="20.233865" lon="-98.73831333">
        <ele>2206.0</ele>
        <time>2019-10-12T14:59:48.940Z</time>
      </trkpt>
      <trkpt lat="20.233885" lon="-98.738325">
        <ele>2206.0</ele>
        <time>2019-10-12T14:59:49.940Z</time>
      </trkpt>
      <trkpt lat="20.23390333" lon="-98.73832833">
        <ele>2206.0</ele>
        <time>2019-10-12T14:59:50.940Z</time>
      </trkpt>
      <trkpt lat="20.23391833" lon="-98.73833667">
        <ele>2205.0</ele>
        <time>2019-10-12T14:59:51.940Z</time>
      </trkpt>
      <trkpt lat="20.23393333" lon="-98.73835">
        <ele>2205.0</ele>
        <time>2019-10-12T14:59:52.943Z</time>
      </trkpt>
      <trkpt lat="20.23394833" lon="-98.73836667">
        <ele>2204.0</ele>
        <time>2019-10-12T14:59:53.950Z</time>
      </trkpt>
      <trkpt lat="20.23396" lon="-98.73838167">
        <ele>2204.0</ele>
        <time>2019-10-12T14:59:54.831Z</time>
      </trkpt>
      <trkpt lat="20.23397667" lon="-98.73840333">
        <ele>2203.0</ele>
        <time>2019-10-12T14:59:55.835Z</time>
      </trkpt>
      <trkpt lat="20.23399" lon="-98.73841667">
        <ele>2202.0</ele>
        <time>2019-10-12T14:59:56.837Z</time>
      </trkpt>
      <trkpt lat="20.234005" lon="-98.73843">
        <ele>2203.0</ele>
        <time>2019-10-12T14:59:57.841Z</time>
      </trkpt>
      <trkpt lat="20.23401833" lon="-98.738435">
        <ele>2202.0</ele>
        <time>2019-10-12T14:59:58.845Z</time>
      </trkpt>
      <trkpt lat="20.234035" lon="-98.73843667">
        <ele>2201.0</ele>
        <time>2019-10-12T14:59:59.848Z</time>
      </trkpt>
      <trkpt lat="20.23405167" lon="-98.73843667">
        <ele>2201.0</ele>
        <time>2019-10-12T15:00:00.856Z</time>
      </trkpt>
      <trkpt lat="20.23406833" lon="-98.73844167">
        <ele>2201.0</ele>
        <time>2019-10-12T15:00:01.863Z</time>
      </trkpt>
      <trkpt lat="20.23408333" lon="-98.73845167">
        <ele>2200.0</ele>
        <time>2019-10-12T15:00:02.868Z</time>
      </trkpt>
      <trkpt lat="20.2341" lon="-98.738465">
        <ele>2200.0</ele>
        <time>2019-10-12T15:00:03.870Z</time>
      </trkpt>
      <trkpt lat="20.23412167" lon="-98.738475">
        <ele>2200.0</ele>
        <time>2019-10-12T15:00:04.872Z</time>
      </trkpt>
      <trkpt lat="20.23413833" lon="-98.738485">
        <ele>2201.0</ele>
        <time>2019-10-12T15:00:05.877Z</time>
      </trkpt>
      <trkpt lat="20.23415333" lon="-98.73849333">
        <ele>2201.0</ele>
        <time>2019-10-12T15:00:06.881Z</time>
      </trkpt>
      <trkpt lat="20.23417333" lon="-98.73850333">
        <ele>2201.0</ele>
        <time>2019-10-12T15:00:07.881Z</time>
      </trkpt>
      <trkpt lat="20.23419333" lon="-98.738505">
        <ele>2201.0</ele>
        <time>2019-10-12T15:00:08.881Z</time>
      </trkpt>
      <trkpt lat="20.234215" lon="-98.73850333">
        <ele>2201.0</ele>
        <time>2019-10-12T15:00:09.881Z</time>
      </trkpt>
      <trkpt lat="20.23423333" lon="-98.738495">
        <ele>2201.0</ele>
        <time>2019-10-12T15:00:10.883Z</time>
      </trkpt>
      <trkpt lat="20.23425" lon="-98.73848667">
        <ele>2201.0</ele>
        <time>2019-10-12T15:00:11.889Z</time>
      </trkpt>
      <trkpt lat="20.23426167" lon="-98.73848333">
        <ele>2201.0</ele>
        <time>2019-10-12T15:00:12.894Z</time>
      </trkpt>
      <trkpt lat="20.23427667" lon="-98.73847833">
        <ele>2202.0</ele>
        <time>2019-10-12T15:00:13.898Z</time>
      </trkpt>
      <trkpt lat="20.23428333" lon="-98.73847667">
        <ele>2202.0</ele>
        <time>2019-10-12T15:00:14.899Z</time>
      </trkpt>
      <trkpt lat="20.23428667" lon="-98.73847667">
        <ele>2202.0</ele>
        <time>2019-10-12T15:00:15.904Z</time>
      </trkpt>
      <trkpt lat="20.23428833" lon="-98.73847333">
        <ele>2202.0</ele>
        <time>2019-10-12T15:00:16.905Z</time>
      </trkpt>
      <trkpt lat="20.23428667" lon="-98.73847">
        <ele>2202.0</ele>
        <time>2019-10-12T15:00:17.905Z</time>
      </trkpt>
      <trkpt lat="20.23429167" lon="-98.738475">
        <ele>2203.0</ele>
        <time>2019-10-12T15:00:18.909Z</time>
      </trkpt>
      <trkpt lat="20.23430333" lon="-98.73848333">
        <ele>2203.0</ele>
        <time>2019-10-12T15:00:19.912Z</time>
      </trkpt>
      <trkpt lat="20.23431833" lon="-98.738485">
        <ele>2203.0</ele>
        <time>2019-10-12T15:00:20.919Z</time>
      </trkpt>
      <trkpt lat="20.23433833" lon="-98.73848333">
        <ele>2203.0</ele>
        <time>2019-10-12T15:00:21.922Z</time>
      </trkpt>
      <trkpt lat="20.23436" lon="-98.73848">
        <ele>2203.0</ele>
        <time>2019-10-12T15:00:22.928Z</time>
      </trkpt>
      <trkpt lat="20.23437833" lon="-98.73846833">
        <ele>2203.0</ele>
        <time>2019-10-12T15:00:23.934Z</time>
      </trkpt>
      <trkpt lat="20.23439667" lon="-98.73846">
        <ele>2203.0</ele>
        <time>2019-10-12T15:00:24.940Z</time>
      </trkpt>
      <trkpt lat="20.23441333" lon="-98.73844833">
        <ele>2203.0</ele>
        <time>2019-10-12T15:00:25.943Z</time>
      </trkpt>
      <trkpt lat="20.23443167" lon="-98.73843667">
        <ele>2202.0</ele>
        <time>2019-10-12T15:00:26.948Z</time>
      </trkpt>
      <trkpt lat="20.23445" lon="-98.73842833">
        <ele>2202.0</ele>
        <time>2019-10-12T15:00:27.948Z</time>
      </trkpt>
      <trkpt lat="20.23446667" lon="-98.738425">
        <ele>2201.0</ele>
        <time>2019-10-12T15:00:28.949Z</time>
      </trkpt>
      <trkpt lat="20.23448167" lon="-98.738415">
        <ele>2200.0</ele>
        <time>2019-10-12T15:00:29.949Z</time>
      </trkpt>
      <trkpt lat="20.23449667" lon="-98.7384">
        <ele>2199.0</ele>
        <time>2019-10-12T15:00:30.949Z</time>
      </trkpt>
      <trkpt lat="20.23451333" lon="-98.73838667">
        <ele>2199.0</ele>
        <time>2019-10-12T15:00:31.949Z</time>
      </trkpt>
      <trkpt lat="20.23452833" lon="-98.73836667">
        <ele>2198.0</ele>
        <time>2019-10-12T15:00:32.950Z</time>
      </trkpt>
      <trkpt lat="20.23454333" lon="-98.73834833">
        <ele>2197.0</ele>
        <time>2019-10-12T15:00:33.832Z</time>
      </trkpt>
      <trkpt lat="20.234555" lon="-98.73833333">
        <ele>2197.0</ele>
        <time>2019-10-12T15:00:34.840Z</time>
      </trkpt>
      <trkpt lat="20.23456333" lon="-98.73832167">
        <ele>2196.0</ele>
        <time>2019-10-12T15:00:35.847Z</time>
      </trkpt>
      <trkpt lat="20.23457333" lon="-98.73831333">
        <ele>2195.0</ele>
        <time>2019-10-12T15:00:36.851Z</time>
      </trkpt>
      <trkpt lat="20.23458667" lon="-98.73830833">
        <ele>2194.0</ele>
        <time>2019-10-12T15:00:37.858Z</time>
      </trkpt>
      <trkpt lat="20.23460333" lon="-98.73829833">
        <ele>2194.0</ele>
        <time>2019-10-12T15:00:38.863Z</time>
      </trkpt>
      <trkpt lat="20.23461667" lon="-98.73828">
        <ele>2193.0</ele>
        <time>2019-10-12T15:00:39.867Z</time>
      </trkpt>
      <trkpt lat="20.234625" lon="-98.73827">
        <ele>2193.0</ele>
        <time>2019-10-12T15:00:40.873Z</time>
      </trkpt>
      <trkpt lat="20.234635" lon="-98.738255">
        <ele>2192.0</ele>
        <time>2019-10-12T15:00:41.878Z</time>
      </trkpt>
      <trkpt lat="20.234645" lon="-98.73823167">
        <ele>2190.0</ele>
        <time>2019-10-12T15:00:42.882Z</time>
      </trkpt>
      <trkpt lat="20.23465167" lon="-98.738205">
        <ele>2189.0</ele>
        <time>2019-10-12T15:00:43.889Z</time>
      </trkpt>
      <trkpt lat="20.23465667" lon="-98.73818">
        <ele>2188.0</ele>
        <time>2019-10-12T15:00:44.892Z</time>
      </trkpt>
      <trkpt lat="20.23466333" lon="-98.73815667">
        <ele>2187.0</ele>
        <time>2019-10-12T15:00:45.892Z</time>
      </trkpt>
      <trkpt lat="20.23467333" lon="-98.73812833">
        <ele>2187.0</ele>
        <time>2019-10-12T15:00:46.893Z</time>
      </trkpt>
      <trkpt lat="20.23468833" lon="-98.73810667">
        <ele>2187.0</ele>
        <time>2019-10-12T15:00:47.893Z</time>
      </trkpt>
      <trkpt lat="20.23469833" lon="-98.73808667">
        <ele>2187.0</ele>
        <time>2019-10-12T15:00:48.893Z</time>
      </trkpt>
      <trkpt lat="20.23470833" lon="-98.73806">
        <ele>2188.0</ele>
        <time>2019-10-12T15:00:49.894Z</time>
      </trkpt>
      <trkpt lat="20.23471167" lon="-98.738035">
        <ele>2188.0</ele>
        <time>2019-10-12T15:00:50.894Z</time>
      </trkpt>
      <trkpt lat="20.23471333" lon="-98.73801333">
        <ele>2187.0</ele>
        <time>2019-10-12T15:00:51.894Z</time>
      </trkpt>
      <trkpt lat="20.23471833" lon="-98.73799">
        <ele>2187.0</ele>
        <time>2019-10-12T15:00:52.894Z</time>
      </trkpt>
      <trkpt lat="20.23471833" lon="-98.737965">
        <ele>2186.0</ele>
        <time>2019-10-12T15:00:53.895Z</time>
      </trkpt>
      <trkpt lat="20.234715" lon="-98.73793667">
        <ele>2184.0</ele>
        <time>2019-10-12T15:00:54.895Z</time>
      </trkpt>
      <trkpt lat="20.23471667" lon="-98.73791833">
        <ele>2183.0</ele>
        <time>2019-10-12T15:00:55.896Z</time>
      </trkpt>
      <trkpt lat="20.234715" lon="-98.73790333">
        <ele>2183.0</ele>
        <time>2019-10-12T15:00:56.896Z</time>
      </trkpt>
      <trkpt lat="20.23470333" lon="-98.7379">
        <ele>2183.0</ele>
        <time>2019-10-12T15:00:57.896Z</time>
      </trkpt>
      <trkpt lat="20.234695" lon="-98.73789167">
        <ele>2182.0</ele>
        <time>2019-10-12T15:00:58.897Z</time>
      </trkpt>
      <trkpt lat="20.23469167" lon="-98.73789">
        <ele>2182.0</ele>
        <time>2019-10-12T15:00:59.901Z</time>
      </trkpt>
      <trkpt lat="20.23469333" lon="-98.737885">
        <ele>2182.0</ele>
        <time>2019-10-12T15:01:00.904Z</time>
      </trkpt>
      <trkpt lat="20.23469167" lon="-98.73788667">
        <ele>2182.0</ele>
        <time>2019-10-12T15:01:01.910Z</time>
      </trkpt>
      <trkpt lat="20.23469833" lon="-98.73788833">
        <ele>2181.0</ele>
        <time>2019-10-12T15:01:02.914Z</time>
      </trkpt>
      <trkpt lat="20.23470167" lon="-98.737885">
        <ele>2180.0</ele>
        <time>2019-10-12T15:01:03.921Z</time>
      </trkpt>
      <trkpt lat="20.23470167" lon="-98.73788">
        <ele>2180.0</ele>
        <time>2019-10-12T15:01:04.924Z</time>
      </trkpt>
      <trkpt lat="20.23469833" lon="-98.73787167">
        <ele>2180.0</ele>
        <time>2019-10-12T15:01:05.930Z</time>
      </trkpt>
      <trkpt lat="20.23468833" lon="-98.737855">
        <ele>2180.0</ele>
        <time>2019-10-12T15:01:06.933Z</time>
      </trkpt>
      <trkpt lat="20.23468333" lon="-98.73784">
        <ele>2178.0</ele>
        <time>2019-10-12T15:01:07.938Z</time>
      </trkpt>
      <trkpt lat="20.23468333" lon="-98.737825">
        <ele>2178.0</ele>
        <time>2019-10-12T15:01:08.944Z</time>
      </trkpt>
      <trkpt lat="20.23468333" lon="-98.737815">
        <ele>2177.0</ele>
        <time>2019-10-12T15:01:09.949Z</time>
      </trkpt>
      <trkpt lat="20.234685" lon="-98.73780833">
        <ele>2176.0</ele>
        <time>2019-10-12T15:01:10.955Z</time>
      </trkpt>
      <trkpt lat="20.23468833" lon="-98.73780333">
        <ele>2176.0</ele>
        <time>2019-10-12T15:01:11.836Z</time>
      </trkpt>
      <trkpt lat="20.23469167" lon="-98.73779667">
        <ele>2175.0</ele>
        <time>2019-10-12T15:01:12.843Z</time>
      </trkpt>
      <trkpt lat="20.23469167" lon="-98.73779">
        <ele>2174.0</ele>
        <time>2019-10-12T15:01:13.844Z</time>
      </trkpt>
      <trkpt lat="20.23469167" lon="-98.73777667">
        <ele>2174.0</ele>
        <time>2019-10-12T15:01:14.845Z</time>
      </trkpt>
      <trkpt lat="20.23469" lon="-98.73777">
        <ele>2174.0</ele>
        <time>2019-10-12T15:01:15.846Z</time>
      </trkpt>
      <trkpt lat="20.23469" lon="-98.73776333">
        <ele>2173.0</ele>
        <time>2019-10-12T15:01:16.848Z</time>
      </trkpt>
      <trkpt lat="20.23468667" lon="-98.737755">
        <ele>2172.0</ele>
        <time>2019-10-12T15:01:17.852Z</time>
      </trkpt>
      <trkpt lat="20.23468833" lon="-98.737745">
        <ele>2172.0</ele>
        <time>2019-10-12T15:01:18.856Z</time>
      </trkpt>
      <trkpt lat="20.23469333" lon="-98.73773333">
        <ele>2171.0</ele>
        <time>2019-10-12T15:01:19.862Z</time>
      </trkpt>
      <trkpt lat="20.2347" lon="-98.73772167">
        <ele>2172.0</ele>
        <time>2019-10-12T15:01:20.864Z</time>
      </trkpt>
      <trkpt lat="20.23471333" lon="-98.73770833">
        <ele>2172.0</ele>
        <time>2019-10-12T15:01:21.870Z</time>
      </trkpt>
      <trkpt lat="20.23473" lon="-98.73769167">
        <ele>2173.0</ele>
        <time>2019-10-12T15:01:22.876Z</time>
      </trkpt>
      <trkpt lat="20.23474833" lon="-98.73768167">
        <ele>2173.0</ele>
        <time>2019-10-12T15:01:23.883Z</time>
      </trkpt>
      <trkpt lat="20.23476667" lon="-98.73767">
        <ele>2172.0</ele>
        <time>2019-10-12T15:01:24.888Z</time>
      </trkpt>
      <trkpt lat="20.23478167" lon="-98.73765667">
        <ele>2172.0</ele>
        <time>2019-10-12T15:01:25.893Z</time>
      </trkpt>
      <trkpt lat="20.2348" lon="-98.73763833">
        <ele>2172.0</ele>
        <time>2019-10-12T15:01:26.898Z</time>
      </trkpt>
      <trkpt lat="20.234815" lon="-98.73762167">
        <ele>2171.0</ele>
        <time>2019-10-12T15:01:27.904Z</time>
      </trkpt>
      <trkpt lat="20.23483167" lon="-98.737605">
        <ele>2171.0</ele>
        <time>2019-10-12T15:01:28.909Z</time>
      </trkpt>
      <trkpt lat="20.234845" lon="-98.73758333">
        <ele>2171.0</ele>
        <time>2019-10-12T15:01:29.914Z</time>
      </trkpt>
      <trkpt lat="20.23486167" lon="-98.73756333">
        <ele>2171.0</ele>
        <time>2019-10-12T15:01:30.917Z</time>
      </trkpt>
      <trkpt lat="20.23488" lon="-98.73754333">
        <ele>2171.0</ele>
        <time>2019-10-12T15:01:31.918Z</time>
      </trkpt>
      <trkpt lat="20.23489667" lon="-98.737535">
        <ele>2171.0</ele>
        <time>2019-10-12T15:01:32.919Z</time>
      </trkpt>
      <trkpt lat="20.23491833" lon="-98.73752">
        <ele>2171.0</ele>
        <time>2019-10-12T15:01:33.920Z</time>
      </trkpt>
      <trkpt lat="20.23494333" lon="-98.73750167">
        <ele>2171.0</ele>
        <time>2019-10-12T15:01:34.920Z</time>
      </trkpt>
      <trkpt lat="20.23496333" lon="-98.73748333">
        <ele>2172.0</ele>
        <time>2019-10-12T15:01:35.921Z</time>
      </trkpt>
      <trkpt lat="20.234985" lon="-98.73746667">
        <ele>2172.0</ele>
        <time>2019-10-12T15:01:36.922Z</time>
      </trkpt>
      <trkpt lat="20.23501333" lon="-98.73745833">
        <ele>2172.0</ele>
        <time>2019-10-12T15:01:37.928Z</time>
      </trkpt>
      <trkpt lat="20.23503667" lon="-98.73745">
        <ele>2171.0</ele>
        <time>2019-10-12T15:01:38.933Z</time>
      </trkpt>
      <trkpt lat="20.23506" lon="-98.73744833">
        <ele>2171.0</ele>
        <time>2019-10-12T15:01:39.935Z</time>
      </trkpt>
      <trkpt lat="20.235085" lon="-98.73743833">
        <ele>2171.0</ele>
        <time>2019-10-12T15:01:40.940Z</time>
      </trkpt>
      <trkpt lat="20.23511167" lon="-98.737425">
        <ele>2171.0</ele>
        <time>2019-10-12T15:01:41.946Z</time>
      </trkpt>
      <trkpt lat="20.23514" lon="-98.73740333">
        <ele>2172.0</ele>
        <time>2019-10-12T15:01:42.947Z</time>
      </trkpt>
      <trkpt lat="20.23516833" lon="-98.73739833">
        <ele>2172.0</ele>
        <time>2019-10-12T15:01:43.948Z</time>
      </trkpt>
      <trkpt lat="20.23519667" lon="-98.73739167">
        <ele>2171.0</ele>
        <time>2019-10-12T15:01:44.950Z</time>
      </trkpt>
      <trkpt lat="20.23521833" lon="-98.73739">
        <ele>2170.0</ele>
        <time>2019-10-12T15:01:45.952Z</time>
      </trkpt>
      <trkpt lat="20.235245" lon="-98.73738833">
        <ele>2169.0</ele>
        <time>2019-10-12T15:01:46.954Z</time>
      </trkpt>
      <trkpt lat="20.235265" lon="-98.73739">
        <ele>2168.0</ele>
        <time>2019-10-12T15:01:47.833Z</time>
      </trkpt>
      <trkpt lat="20.23528667" lon="-98.73738667">
        <ele>2166.0</ele>
        <time>2019-10-12T15:01:48.836Z</time>
      </trkpt>
      <trkpt lat="20.23530667" lon="-98.73737667">
        <ele>2165.0</ele>
        <time>2019-10-12T15:01:49.839Z</time>
      </trkpt>
      <trkpt lat="20.23533" lon="-98.73736333">
        <ele>2164.0</ele>
        <time>2019-10-12T15:01:50.846Z</time>
      </trkpt>
      <trkpt lat="20.23534833" lon="-98.73735">
        <ele>2164.0</ele>
        <time>2019-10-12T15:01:51.852Z</time>
      </trkpt>
      <trkpt lat="20.23536667" lon="-98.737335">
        <ele>2163.0</ele>
        <time>2019-10-12T15:01:52.857Z</time>
      </trkpt>
      <trkpt lat="20.23538333" lon="-98.73731667">
        <ele>2162.0</ele>
        <time>2019-10-12T15:01:53.861Z</time>
      </trkpt>
      <trkpt lat="20.23540167" lon="-98.73729833">
        <ele>2162.0</ele>
        <time>2019-10-12T15:01:54.863Z</time>
      </trkpt>
      <trkpt lat="20.23541667" lon="-98.73727833">
        <ele>2161.0</ele>
        <time>2019-10-12T15:01:55.866Z</time>
      </trkpt>
      <trkpt lat="20.23543167" lon="-98.73725833">
        <ele>2160.0</ele>
        <time>2019-10-12T15:01:56.868Z</time>
      </trkpt>
      <trkpt lat="20.235445" lon="-98.737235">
        <ele>2160.0</ele>
        <time>2019-10-12T15:01:57.869Z</time>
      </trkpt>
      <trkpt lat="20.235455" lon="-98.73720833">
        <ele>2159.0</ele>
        <time>2019-10-12T15:01:58.869Z</time>
      </trkpt>
      <trkpt lat="20.23546667" lon="-98.73718667">
        <ele>2159.0</ele>
        <time>2019-10-12T15:01:59.869Z</time>
      </trkpt>
      <trkpt lat="20.23548333" lon="-98.73716167">
        <ele>2159.0</ele>
        <time>2019-10-12T15:02:00.870Z</time>
      </trkpt>
      <trkpt lat="20.2355" lon="-98.73714">
        <ele>2159.0</ele>
        <time>2019-10-12T15:02:01.870Z</time>
      </trkpt>
      <trkpt lat="20.23551667" lon="-98.737125">
        <ele>2158.0</ele>
        <time>2019-10-12T15:02:02.874Z</time>
      </trkpt>
      <trkpt lat="20.23553167" lon="-98.73712">
        <ele>2158.0</ele>
        <time>2019-10-12T15:02:03.881Z</time>
      </trkpt>
      <trkpt lat="20.23554667" lon="-98.73712667">
        <ele>2158.0</ele>
        <time>2019-10-12T15:02:04.889Z</time>
      </trkpt>
      <trkpt lat="20.23556167" lon="-98.73714167">
        <ele>2157.0</ele>
        <time>2019-10-12T15:02:05.892Z</time>
      </trkpt>
      <trkpt lat="20.23557667" lon="-98.73716">
        <ele>2157.0</ele>
        <time>2019-10-12T15:02:06.892Z</time>
      </trkpt>
      <trkpt lat="20.235595" lon="-98.73718167">
        <ele>2156.0</ele>
        <time>2019-10-12T15:02:07.894Z</time>
      </trkpt>
      <trkpt lat="20.235615" lon="-98.73719833">
        <ele>2155.0</ele>
        <time>2019-10-12T15:02:08.896Z</time>
      </trkpt>
      <trkpt lat="20.23563333" lon="-98.73721167">
        <ele>2155.0</ele>
        <time>2019-10-12T15:02:09.900Z</time>
      </trkpt>
      <trkpt lat="20.23565167" lon="-98.73722333">
        <ele>2154.0</ele>
        <time>2019-10-12T15:02:10.903Z</time>
      </trkpt>
      <trkpt lat="20.23567" lon="-98.73724">
        <ele>2153.0</ele>
        <time>2019-10-12T15:02:11.908Z</time>
      </trkpt>
      <trkpt lat="20.23568833" lon="-98.73725833">
        <ele>2153.0</ele>
        <time>2019-10-12T15:02:12.914Z</time>
      </trkpt>
      <trkpt lat="20.23570833" lon="-98.737275">
        <ele>2152.0</ele>
        <time>2019-10-12T15:02:13.920Z</time>
      </trkpt>
      <trkpt lat="20.23572833" lon="-98.73728667">
        <ele>2152.0</ele>
        <time>2019-10-12T15:02:14.920Z</time>
      </trkpt>
      <trkpt lat="20.23574833" lon="-98.73729333">
        <ele>2150.0</ele>
        <time>2019-10-12T15:02:15.925Z</time>
      </trkpt>
      <trkpt lat="20.23577" lon="-98.73729167">
        <ele>2150.0</ele>
        <time>2019-10-12T15:02:16.931Z</time>
      </trkpt>
      <trkpt lat="20.235795" lon="-98.73729">
        <ele>2149.0</ele>
        <time>2019-10-12T15:02:17.938Z</time>
      </trkpt>
      <trkpt lat="20.23581667" lon="-98.737285">
        <ele>2149.0</ele>
        <time>2019-10-12T15:02:18.940Z</time>
      </trkpt>
      <trkpt lat="20.23583333" lon="-98.737275">
        <ele>2149.0</ele>
        <time>2019-10-12T15:02:19.941Z</time>
      </trkpt>
      <trkpt lat="20.23584833" lon="-98.73726333">
        <ele>2149.0</ele>
        <time>2019-10-12T15:02:20.941Z</time>
      </trkpt>
      <trkpt lat="20.23586" lon="-98.73725">
        <ele>2149.0</ele>
        <time>2019-10-12T15:02:21.942Z</time>
      </trkpt>
      <trkpt lat="20.23587" lon="-98.73724">
        <ele>2149.0</ele>
        <time>2019-10-12T15:02:22.943Z</time>
      </trkpt>
      <trkpt lat="20.23588" lon="-98.73722833">
        <ele>2149.0</ele>
        <time>2019-10-12T15:02:23.944Z</time>
      </trkpt>
      <trkpt lat="20.23588667" lon="-98.737215">
        <ele>2148.0</ele>
        <time>2019-10-12T15:02:24.945Z</time>
      </trkpt>
      <trkpt lat="20.235895" lon="-98.73720333">
        <ele>2148.0</ele>
        <time>2019-10-12T15:02:25.945Z</time>
      </trkpt>
      <trkpt lat="20.235905" lon="-98.73719333">
        <ele>2148.0</ele>
        <time>2019-10-12T15:02:26.946Z</time>
      </trkpt>
      <trkpt lat="20.23592" lon="-98.73718833">
        <ele>2148.0</ele>
        <time>2019-10-12T15:02:27.946Z</time>
      </trkpt>
      <trkpt lat="20.23593667" lon="-98.737185">
        <ele>2148.0</ele>
        <time>2019-10-12T15:02:28.947Z</time>
      </trkpt>
      <trkpt lat="20.235955" lon="-98.73718333">
        <ele>2147.0</ele>
        <time>2019-10-12T15:02:29.948Z</time>
      </trkpt>
      <trkpt lat="20.23597333" lon="-98.73718">
        <ele>2146.0</ele>
        <time>2019-10-12T15:02:30.949Z</time>
      </trkpt>
      <trkpt lat="20.23599167" lon="-98.737175">
        <ele>2146.0</ele>
        <time>2019-10-12T15:02:31.949Z</time>
      </trkpt>
      <trkpt lat="20.23601167" lon="-98.73716667">
        <ele>2146.0</ele>
        <time>2019-10-12T15:02:32.950Z</time>
      </trkpt>
      <trkpt lat="20.23603" lon="-98.73716333">
        <ele>2145.0</ele>
        <time>2019-10-12T15:02:33.950Z</time>
      </trkpt>
      <trkpt lat="20.23605" lon="-98.737155">
        <ele>2145.0</ele>
        <time>2019-10-12T15:02:34.951Z</time>
      </trkpt>
      <trkpt lat="20.23607167" lon="-98.73715167">
        <ele>2145.0</ele>
        <time>2019-10-12T15:02:35.952Z</time>
      </trkpt>
      <trkpt lat="20.23609" lon="-98.73714">
        <ele>2145.0</ele>
        <time>2019-10-12T15:02:36.953Z</time>
      </trkpt>
      <trkpt lat="20.23610667" lon="-98.73712833">
        <ele>2145.0</ele>
        <time>2019-10-12T15:02:37.953Z</time>
      </trkpt>
      <trkpt lat="20.23612" lon="-98.73711333">
        <ele>2145.0</ele>
        <time>2019-10-12T15:02:38.954Z</time>
      </trkpt>
      <trkpt lat="20.23612667" lon="-98.73709667">
        <ele>2145.0</ele>
        <time>2019-10-12T15:02:39.830Z</time>
      </trkpt>
      <trkpt lat="20.23613333" lon="-98.73708333">
        <ele>2144.0</ele>
        <time>2019-10-12T15:02:40.831Z</time>
      </trkpt>
      <trkpt lat="20.23614333" lon="-98.73707333">
        <ele>2143.0</ele>
        <time>2019-10-12T15:02:41.832Z</time>
      </trkpt>
      <trkpt lat="20.23615333" lon="-98.73706333">
        <ele>2142.0</ele>
        <time>2019-10-12T15:02:42.833Z</time>
      </trkpt>
      <trkpt lat="20.236165" lon="-98.73705333">
        <ele>2141.0</ele>
        <time>2019-10-12T15:02:43.833Z</time>
      </trkpt>
      <trkpt lat="20.23617667" lon="-98.737045">
        <ele>2141.0</ele>
        <time>2019-10-12T15:02:44.834Z</time>
      </trkpt>
      <trkpt lat="20.23619" lon="-98.73703667">
        <ele>2140.0</ele>
        <time>2019-10-12T15:02:45.835Z</time>
      </trkpt>
      <trkpt lat="20.2362" lon="-98.73702667">
        <ele>2139.0</ele>
        <time>2019-10-12T15:02:46.836Z</time>
      </trkpt>
      <trkpt lat="20.23621333" lon="-98.73701833">
        <ele>2138.0</ele>
        <time>2019-10-12T15:02:47.837Z</time>
      </trkpt>
      <trkpt lat="20.23622833" lon="-98.73701167">
        <ele>2137.0</ele>
        <time>2019-10-12T15:02:48.837Z</time>
      </trkpt>
      <trkpt lat="20.23624333" lon="-98.73700333">
        <ele>2136.0</ele>
        <time>2019-10-12T15:02:49.838Z</time>
      </trkpt>
      <trkpt lat="20.23625833" lon="-98.736995">
        <ele>2135.0</ele>
        <time>2019-10-12T15:02:50.839Z</time>
      </trkpt>
      <trkpt lat="20.23627667" lon="-98.736985">
        <ele>2135.0</ele>
        <time>2019-10-12T15:02:51.840Z</time>
      </trkpt>
      <trkpt lat="20.23629167" lon="-98.736975">
        <ele>2133.0</ele>
        <time>2019-10-12T15:02:52.841Z</time>
      </trkpt>
      <trkpt lat="20.23631" lon="-98.736965">
        <ele>2133.0</ele>
        <time>2019-10-12T15:02:53.842Z</time>
      </trkpt>
      <trkpt lat="20.23633" lon="-98.73695833">
        <ele>2132.0</ele>
        <time>2019-10-12T15:02:54.842Z</time>
      </trkpt>
      <trkpt lat="20.23635167" lon="-98.73695333">
        <ele>2131.0</ele>
        <time>2019-10-12T15:02:55.843Z</time>
      </trkpt>
      <trkpt lat="20.23637333" lon="-98.736945">
        <ele>2131.0</ele>
        <time>2019-10-12T15:02:56.844Z</time>
      </trkpt>
      <trkpt lat="20.23639167" lon="-98.73693333">
        <ele>2131.0</ele>
        <time>2019-10-12T15:02:57.844Z</time>
      </trkpt>
      <trkpt lat="20.23640833" lon="-98.73691667">
        <ele>2130.0</ele>
        <time>2019-10-12T15:02:58.846Z</time>
      </trkpt>
      <trkpt lat="20.23642" lon="-98.7369">
        <ele>2130.0</ele>
        <time>2019-10-12T15:02:59.847Z</time>
      </trkpt>
      <trkpt lat="20.23643333" lon="-98.73688833">
        <ele>2130.0</ele>
        <time>2019-10-12T15:03:00.850Z</time>
      </trkpt>
      <trkpt lat="20.23644833" lon="-98.73687667">
        <ele>2129.0</ele>
        <time>2019-10-12T15:03:01.857Z</time>
      </trkpt>
      <trkpt lat="20.23646333" lon="-98.73686667">
        <ele>2129.0</ele>
        <time>2019-10-12T15:03:02.863Z</time>
      </trkpt>
      <trkpt lat="20.23647" lon="-98.73686167">
        <ele>2129.0</ele>
        <time>2019-10-12T15:03:03.866Z</time>
      </trkpt>
      <trkpt lat="20.23648667" lon="-98.736855">
        <ele>2129.0</ele>
        <time>2019-10-12T15:03:04.868Z</time>
      </trkpt>
      <trkpt lat="20.23650333" lon="-98.73684833">
        <ele>2129.0</ele>
        <time>2019-10-12T15:03:05.872Z</time>
      </trkpt>
      <trkpt lat="20.23651667" lon="-98.73683833">
        <ele>2129.0</ele>
        <time>2019-10-12T15:03:06.874Z</time>
      </trkpt>
      <trkpt lat="20.23653" lon="-98.73683">
        <ele>2129.0</ele>
        <time>2019-10-12T15:03:07.876Z</time>
      </trkpt>
      <trkpt lat="20.23653833" lon="-98.73682167">
        <ele>2129.0</ele>
        <time>2019-10-12T15:03:08.878Z</time>
      </trkpt>
      <trkpt lat="20.236545" lon="-98.73682167">
        <ele>2130.0</ele>
        <time>2019-10-12T15:03:09.885Z</time>
      </trkpt>
      <trkpt lat="20.23655" lon="-98.73681667">
        <ele>2131.0</ele>
        <time>2019-10-12T15:03:10.888Z</time>
      </trkpt>
      <trkpt lat="20.23655167" lon="-98.73681">
        <ele>2131.0</ele>
        <time>2019-10-12T15:03:11.893Z</time>
      </trkpt>
      <trkpt lat="20.23655333" lon="-98.73679833">
        <ele>2130.0</ele>
        <time>2019-10-12T15:03:12.898Z</time>
      </trkpt>
      <trkpt lat="20.23655833" lon="-98.736785">
        <ele>2130.0</ele>
        <time>2019-10-12T15:03:13.904Z</time>
      </trkpt>
      <trkpt lat="20.23657167" lon="-98.73677167">
        <ele>2131.0</ele>
        <time>2019-10-12T15:03:14.908Z</time>
      </trkpt>
      <trkpt lat="20.23659" lon="-98.73676">
        <ele>2130.0</ele>
        <time>2019-10-12T15:03:15.914Z</time>
      </trkpt>
      <trkpt lat="20.23661" lon="-98.73675">
        <ele>2130.0</ele>
        <time>2019-10-12T15:03:16.916Z</time>
      </trkpt>
      <trkpt lat="20.23663333" lon="-98.73674333">
        <ele>2130.0</ele>
        <time>2019-10-12T15:03:17.921Z</time>
      </trkpt>
      <trkpt lat="20.236655" lon="-98.73673333">
        <ele>2130.0</ele>
        <time>2019-10-12T15:03:18.922Z</time>
      </trkpt>
      <trkpt lat="20.236675" lon="-98.73672333">
        <ele>2130.0</ele>
        <time>2019-10-12T15:03:19.923Z</time>
      </trkpt>
      <trkpt lat="20.236695" lon="-98.73670667">
        <ele>2130.0</ele>
        <time>2019-10-12T15:03:20.924Z</time>
      </trkpt>
      <trkpt lat="20.23670833" lon="-98.73669333">
        <ele>2130.0</ele>
        <time>2019-10-12T15:03:21.927Z</time>
      </trkpt>
      <trkpt lat="20.23672333" lon="-98.73667667">
        <ele>2129.0</ele>
        <time>2019-10-12T15:03:22.935Z</time>
      </trkpt>
      <trkpt lat="20.23673833" lon="-98.73666167">
        <ele>2129.0</ele>
        <time>2019-10-12T15:03:23.940Z</time>
      </trkpt>
      <trkpt lat="20.23675167" lon="-98.73665167">
        <ele>2129.0</ele>
        <time>2019-10-12T15:03:24.943Z</time>
      </trkpt>
      <trkpt lat="20.23676167" lon="-98.73664333">
        <ele>2128.0</ele>
        <time>2019-10-12T15:03:25.947Z</time>
      </trkpt>
      <trkpt lat="20.23677833" lon="-98.73663833">
        <ele>2127.0</ele>
        <time>2019-10-12T15:03:26.953Z</time>
      </trkpt>
      <trkpt lat="20.23679667" lon="-98.73663833">
        <ele>2126.0</ele>
        <time>2019-10-12T15:03:27.831Z</time>
      </trkpt>
      <trkpt lat="20.23682333" lon="-98.73664">
        <ele>2126.0</ele>
        <time>2019-10-12T15:03:28.836Z</time>
      </trkpt>
      <trkpt lat="20.23683833" lon="-98.73664">
        <ele>2126.0</ele>
        <time>2019-10-12T15:03:29.841Z</time>
      </trkpt>
      <trkpt lat="20.23685167" lon="-98.73664">
        <ele>2125.0</ele>
        <time>2019-10-12T15:03:30.848Z</time>
      </trkpt>
      <trkpt lat="20.23686" lon="-98.73664167">
        <ele>2125.0</ele>
        <time>2019-10-12T15:03:31.854Z</time>
      </trkpt>
      <trkpt lat="20.23686833" lon="-98.736635">
        <ele>2124.0</ele>
        <time>2019-10-12T15:03:32.856Z</time>
      </trkpt>
      <trkpt lat="20.23688167" lon="-98.73663167">
        <ele>2124.0</ele>
        <time>2019-10-12T15:03:33.860Z</time>
      </trkpt>
      <trkpt lat="20.23690167" lon="-98.73662667">
        <ele>2124.0</ele>
        <time>2019-10-12T15:03:34.864Z</time>
      </trkpt>
      <trkpt lat="20.23692167" lon="-98.73661333">
        <ele>2124.0</ele>
        <time>2019-10-12T15:03:35.870Z</time>
      </trkpt>
      <trkpt lat="20.236935" lon="-98.73660167">
        <ele>2124.0</ele>
        <time>2019-10-12T15:03:36.873Z</time>
      </trkpt>
      <trkpt lat="20.23694833" lon="-98.73659333">
        <ele>2123.0</ele>
        <time>2019-10-12T15:03:37.876Z</time>
      </trkpt>
      <trkpt lat="20.23696" lon="-98.73658667">
        <ele>2122.0</ele>
        <time>2019-10-12T15:03:38.877Z</time>
      </trkpt>
      <trkpt lat="20.23697667" lon="-98.736585">
        <ele>2121.0</ele>
        <time>2019-10-12T15:03:39.882Z</time>
      </trkpt>
      <trkpt lat="20.23699833" lon="-98.73658333">
        <ele>2121.0</ele>
        <time>2019-10-12T15:03:40.886Z</time>
      </trkpt>
      <trkpt lat="20.23701667" lon="-98.73658">
        <ele>2120.0</ele>
        <time>2019-10-12T15:03:41.892Z</time>
      </trkpt>
      <trkpt lat="20.23704333" lon="-98.73657667">
        <ele>2119.0</ele>
        <time>2019-10-12T15:03:42.898Z</time>
      </trkpt>
      <trkpt lat="20.23706167" lon="-98.73657667">
        <ele>2119.0</ele>
        <time>2019-10-12T15:03:43.900Z</time>
      </trkpt>
      <trkpt lat="20.23709167" lon="-98.73658">
        <ele>2118.0</ele>
        <time>2019-10-12T15:03:44.901Z</time>
      </trkpt>
      <trkpt lat="20.23711333" lon="-98.73658">
        <ele>2118.0</ele>
        <time>2019-10-12T15:03:45.905Z</time>
      </trkpt>
      <trkpt lat="20.23714" lon="-98.73657667">
        <ele>2117.0</ele>
        <time>2019-10-12T15:03:46.909Z</time>
      </trkpt>
      <trkpt lat="20.237175" lon="-98.73657833">
        <ele>2117.0</ele>
        <time>2019-10-12T15:03:47.910Z</time>
      </trkpt>
      <trkpt lat="20.23719667" lon="-98.73658167">
        <ele>2117.0</ele>
        <time>2019-10-12T15:03:48.917Z</time>
      </trkpt>
      <trkpt lat="20.23722833" lon="-98.73658333">
        <ele>2116.0</ele>
        <time>2019-10-12T15:03:49.921Z</time>
      </trkpt>
      <trkpt lat="20.237255" lon="-98.73658333">
        <ele>2115.0</ele>
        <time>2019-10-12T15:03:50.926Z</time>
      </trkpt>
      <trkpt lat="20.23728667" lon="-98.73658333">
        <ele>2115.0</ele>
        <time>2019-10-12T15:03:51.932Z</time>
      </trkpt>
      <trkpt lat="20.23730833" lon="-98.73658167">
        <ele>2115.0</ele>
        <time>2019-10-12T15:03:52.934Z</time>
      </trkpt>
      <trkpt lat="20.23734" lon="-98.73658">
        <ele>2114.0</ele>
        <time>2019-10-12T15:03:53.940Z</time>
      </trkpt>
      <trkpt lat="20.23736667" lon="-98.736575">
        <ele>2113.0</ele>
        <time>2019-10-12T15:03:54.946Z</time>
      </trkpt>
      <trkpt lat="20.23739167" lon="-98.736565">
        <ele>2112.0</ele>
        <time>2019-10-12T15:03:55.950Z</time>
      </trkpt>
      <trkpt lat="20.23742" lon="-98.736555">
        <ele>2111.0</ele>
        <time>2019-10-12T15:03:56.951Z</time>
      </trkpt>
      <trkpt lat="20.237445" lon="-98.73654667">
        <ele>2110.0</ele>
        <time>2019-10-12T15:03:57.952Z</time>
      </trkpt>
      <trkpt lat="20.23747" lon="-98.73653167">
        <ele>2109.0</ele>
        <time>2019-10-12T15:03:58.954Z</time>
      </trkpt>
      <trkpt lat="20.23749167" lon="-98.73652333">
        <ele>2108.0</ele>
        <time>2019-10-12T15:03:59.834Z</time>
      </trkpt>
      <trkpt lat="20.23751833" lon="-98.73651833">
        <ele>2108.0</ele>
        <time>2019-10-12T15:04:00.840Z</time>
      </trkpt>
      <trkpt lat="20.23754667" lon="-98.73650833">
        <ele>2107.0</ele>
        <time>2019-10-12T15:04:01.844Z</time>
      </trkpt>
      <trkpt lat="20.23757167" lon="-98.73649667">
        <ele>2106.0</ele>
        <time>2019-10-12T15:04:02.850Z</time>
      </trkpt>
      <trkpt lat="20.23759667" lon="-98.73648333">
        <ele>2105.0</ele>
        <time>2019-10-12T15:04:03.856Z</time>
      </trkpt>
      <trkpt lat="20.23762167" lon="-98.73647333">
        <ele>2105.0</ele>
        <time>2019-10-12T15:04:04.862Z</time>
      </trkpt>
      <trkpt lat="20.23764667" lon="-98.73646167">
        <ele>2104.0</ele>
        <time>2019-10-12T15:04:05.864Z</time>
      </trkpt>
      <trkpt lat="20.23767333" lon="-98.73645333">
        <ele>2104.0</ele>
        <time>2019-10-12T15:04:06.868Z</time>
      </trkpt>
      <trkpt lat="20.23769833" lon="-98.73644">
        <ele>2103.0</ele>
        <time>2019-10-12T15:04:07.873Z</time>
      </trkpt>
      <trkpt lat="20.237725" lon="-98.73642667">
        <ele>2103.0</ele>
        <time>2019-10-12T15:04:08.876Z</time>
      </trkpt>
      <trkpt lat="20.23774833" lon="-98.73641333">
        <ele>2102.0</ele>
        <time>2019-10-12T15:04:09.880Z</time>
      </trkpt>
      <trkpt lat="20.23777333" lon="-98.73639667">
        <ele>2101.0</ele>
        <time>2019-10-12T15:04:10.884Z</time>
      </trkpt>
      <trkpt lat="20.23779667" lon="-98.73638333">
        <ele>2100.0</ele>
        <time>2019-10-12T15:04:11.890Z</time>
      </trkpt>
      <trkpt lat="20.23782167" lon="-98.73636667">
        <ele>2100.0</ele>
        <time>2019-10-12T15:04:12.895Z</time>
      </trkpt>
      <trkpt lat="20.23784667" lon="-98.73634833">
        <ele>2100.0</ele>
        <time>2019-10-12T15:04:13.900Z</time>
      </trkpt>
      <trkpt lat="20.23787167" lon="-98.73633">
        <ele>2100.0</ele>
        <time>2019-10-12T15:04:14.904Z</time>
      </trkpt>
      <trkpt lat="20.23789333" lon="-98.73631">
        <ele>2099.0</ele>
        <time>2019-10-12T15:04:15.909Z</time>
      </trkpt>
      <trkpt lat="20.23791333" lon="-98.73628833">
        <ele>2098.0</ele>
        <time>2019-10-12T15:04:16.913Z</time>
      </trkpt>
      <trkpt lat="20.23793167" lon="-98.73626667">
        <ele>2098.0</ele>
        <time>2019-10-12T15:04:17.915Z</time>
      </trkpt>
      <trkpt lat="20.23794833" lon="-98.73624333">
        <ele>2098.0</ele>
        <time>2019-10-12T15:04:18.920Z</time>
      </trkpt>
      <trkpt lat="20.23796833" lon="-98.73621333">
        <ele>2097.0</ele>
        <time>2019-10-12T15:04:19.926Z</time>
      </trkpt>
      <trkpt lat="20.23797667" lon="-98.73619167">
        <ele>2097.0</ele>
        <time>2019-10-12T15:04:20.933Z</time>
      </trkpt>
      <trkpt lat="20.23799" lon="-98.73616333">
        <ele>2096.0</ele>
        <time>2019-10-12T15:04:21.939Z</time>
      </trkpt>
      <trkpt lat="20.23800333" lon="-98.73613">
        <ele>2095.0</ele>
        <time>2019-10-12T15:04:22.944Z</time>
      </trkpt>
      <trkpt lat="20.23801" lon="-98.73610833">
        <ele>2095.0</ele>
        <time>2019-10-12T15:04:23.948Z</time>
      </trkpt>
      <trkpt lat="20.23802" lon="-98.73608">
        <ele>2095.0</ele>
        <time>2019-10-12T15:04:24.951Z</time>
      </trkpt>
      <trkpt lat="20.23803167" lon="-98.73604667">
        <ele>2094.0</ele>
        <time>2019-10-12T15:04:25.831Z</time>
      </trkpt>
      <trkpt lat="20.23804" lon="-98.73602">
        <ele>2094.0</ele>
        <time>2019-10-12T15:04:26.838Z</time>
      </trkpt>
      <trkpt lat="20.23804667" lon="-98.735985">
        <ele>2094.0</ele>
        <time>2019-10-12T15:04:27.845Z</time>
      </trkpt>
      <trkpt lat="20.23805167" lon="-98.73596167">
        <ele>2093.0</ele>
        <time>2019-10-12T15:04:28.850Z</time>
      </trkpt>
      <trkpt lat="20.23805667" lon="-98.73593">
        <ele>2093.0</ele>
        <time>2019-10-12T15:04:29.853Z</time>
      </trkpt>
      <trkpt lat="20.23805667" lon="-98.73590167">
        <ele>2093.0</ele>
        <time>2019-10-12T15:04:30.854Z</time>
      </trkpt>
      <trkpt lat="20.23805333" lon="-98.73587333">
        <ele>2093.0</ele>
        <time>2019-10-12T15:04:31.859Z</time>
      </trkpt>
      <trkpt lat="20.23804667" lon="-98.73583667">
        <ele>2092.0</ele>
        <time>2019-10-12T15:04:32.864Z</time>
      </trkpt>
      <trkpt lat="20.23803833" lon="-98.73581333">
        <ele>2092.0</ele>
        <time>2019-10-12T15:04:33.868Z</time>
      </trkpt>
      <trkpt lat="20.23802833" lon="-98.73578333">
        <ele>2092.0</ele>
        <time>2019-10-12T15:04:34.873Z</time>
      </trkpt>
      <trkpt lat="20.23801667" lon="-98.735755">
        <ele>2092.0</ele>
        <time>2019-10-12T15:04:35.878Z</time>
      </trkpt>
      <trkpt lat="20.238005" lon="-98.735725">
        <ele>2091.0</ele>
        <time>2019-10-12T15:04:36.883Z</time>
      </trkpt>
      <trkpt lat="20.23799667" lon="-98.735695">
        <ele>2091.0</ele>
        <time>2019-10-12T15:04:37.890Z</time>
      </trkpt>
      <trkpt lat="20.237995" lon="-98.73566667">
        <ele>2090.0</ele>
        <time>2019-10-12T15:04:38.894Z</time>
      </trkpt>
      <trkpt lat="20.23799833" lon="-98.73564167">
        <ele>2090.0</ele>
        <time>2019-10-12T15:04:39.895Z</time>
      </trkpt>
      <trkpt lat="20.23800833" lon="-98.73562167">
        <ele>2089.0</ele>
        <time>2019-10-12T15:04:40.898Z</time>
      </trkpt>
      <trkpt lat="20.23802667" lon="-98.73560667">
        <ele>2088.0</ele>
        <time>2019-10-12T15:04:41.903Z</time>
      </trkpt>
      <trkpt lat="20.23804667" lon="-98.73559333">
        <ele>2087.0</ele>
        <time>2019-10-12T15:04:42.908Z</time>
      </trkpt>
      <trkpt lat="20.23807" lon="-98.735585">
        <ele>2086.0</ele>
        <time>2019-10-12T15:04:43.910Z</time>
      </trkpt>
      <trkpt lat="20.23809333" lon="-98.73557667">
        <ele>2084.0</ele>
        <time>2019-10-12T15:04:44.911Z</time>
      </trkpt>
      <trkpt lat="20.23812" lon="-98.73557">
        <ele>2083.0</ele>
        <time>2019-10-12T15:04:45.916Z</time>
      </trkpt>
      <trkpt lat="20.23815" lon="-98.73556667">
        <ele>2083.0</ele>
        <time>2019-10-12T15:04:46.922Z</time>
      </trkpt>
      <trkpt lat="20.23817833" lon="-98.73555833">
        <ele>2082.0</ele>
        <time>2019-10-12T15:04:47.929Z</time>
      </trkpt>
      <trkpt lat="20.23820667" lon="-98.73555">
        <ele>2081.0</ele>
        <time>2019-10-12T15:04:48.930Z</time>
      </trkpt>
      <trkpt lat="20.23823333" lon="-98.735535">
        <ele>2081.0</ele>
        <time>2019-10-12T15:04:49.931Z</time>
      </trkpt>
      <trkpt lat="20.23825667" lon="-98.73552167">
        <ele>2081.0</ele>
        <time>2019-10-12T15:04:50.932Z</time>
      </trkpt>
      <trkpt lat="20.23827833" lon="-98.73551167">
        <ele>2081.0</ele>
        <time>2019-10-12T15:04:51.933Z</time>
      </trkpt>
      <trkpt lat="20.2383" lon="-98.73549667">
        <ele>2081.0</ele>
        <time>2019-10-12T15:04:52.933Z</time>
      </trkpt>
      <trkpt lat="20.23832" lon="-98.73547667">
        <ele>2081.0</ele>
        <time>2019-10-12T15:04:53.934Z</time>
      </trkpt>
      <trkpt lat="20.23833833" lon="-98.73545667">
        <ele>2081.0</ele>
        <time>2019-10-12T15:04:54.935Z</time>
      </trkpt>
      <trkpt lat="20.23835667" lon="-98.73543667">
        <ele>2080.0</ele>
        <time>2019-10-12T15:04:55.935Z</time>
      </trkpt>
      <trkpt lat="20.23837333" lon="-98.735415">
        <ele>2081.0</ele>
        <time>2019-10-12T15:04:56.935Z</time>
      </trkpt>
      <trkpt lat="20.23838833" lon="-98.735395">
        <ele>2081.0</ele>
        <time>2019-10-12T15:04:57.937Z</time>
      </trkpt>
      <trkpt lat="20.23840167" lon="-98.73537333">
        <ele>2082.0</ele>
        <time>2019-10-12T15:04:58.937Z</time>
      </trkpt>
      <trkpt lat="20.238415" lon="-98.735355">
        <ele>2082.0</ele>
        <time>2019-10-12T15:04:59.938Z</time>
      </trkpt>
      <trkpt lat="20.23842667" lon="-98.73533333">
        <ele>2083.0</ele>
        <time>2019-10-12T15:05:00.939Z</time>
      </trkpt>
      <trkpt lat="20.23843833" lon="-98.73530667">
        <ele>2082.0</ele>
        <time>2019-10-12T15:05:01.943Z</time>
      </trkpt>
      <trkpt lat="20.23845" lon="-98.73528">
        <ele>2083.0</ele>
        <time>2019-10-12T15:05:02.949Z</time>
      </trkpt>
      <trkpt lat="20.23845833" lon="-98.73525167">
        <ele>2083.0</ele>
        <time>2019-10-12T15:05:03.954Z</time>
      </trkpt>
      <trkpt lat="20.23846167" lon="-98.73522167">
        <ele>2084.0</ele>
        <time>2019-10-12T15:05:04.954Z</time>
      </trkpt>
      <trkpt lat="20.23846167" lon="-98.73519167">
        <ele>2084.0</ele>
        <time>2019-10-12T15:05:05.831Z</time>
      </trkpt>
      <trkpt lat="20.23845667" lon="-98.735165">
        <ele>2084.0</ele>
        <time>2019-10-12T15:05:06.836Z</time>
      </trkpt>
      <trkpt lat="20.23843833" lon="-98.73514167">
        <ele>2084.0</ele>
        <time>2019-10-12T15:05:07.836Z</time>
      </trkpt>
      <trkpt lat="20.238415" lon="-98.73512">
        <ele>2084.0</ele>
        <time>2019-10-12T15:05:08.836Z</time>
      </trkpt>
      <trkpt lat="20.23838833" lon="-98.73510167">
        <ele>2084.0</ele>
        <time>2019-10-12T15:05:09.838Z</time>
      </trkpt>
      <trkpt lat="20.23836" lon="-98.73509167">
        <ele>2083.0</ele>
        <time>2019-10-12T15:05:10.844Z</time>
      </trkpt>
      <trkpt lat="20.23833167" lon="-98.73508833">
        <ele>2083.0</ele>
        <time>2019-10-12T15:05:11.846Z</time>
      </trkpt>
      <trkpt lat="20.238305" lon="-98.73508833">
        <ele>2081.0</ele>
        <time>2019-10-12T15:05:12.847Z</time>
      </trkpt>
      <trkpt lat="20.23827667" lon="-98.73509333">
        <ele>2080.0</ele>
        <time>2019-10-12T15:05:13.851Z</time>
      </trkpt>
      <trkpt lat="20.23825333" lon="-98.73509667">
        <ele>2079.0</ele>
        <time>2019-10-12T15:05:14.857Z</time>
      </trkpt>
      <trkpt lat="20.23822167" lon="-98.73510667">
        <ele>2079.0</ele>
        <time>2019-10-12T15:05:15.862Z</time>
      </trkpt>
      <trkpt lat="20.23819333" lon="-98.73511667">
        <ele>2079.0</ele>
        <time>2019-10-12T15:05:16.864Z</time>
      </trkpt>
      <trkpt lat="20.238165" lon="-98.73513167">
        <ele>2079.0</ele>
        <time>2019-10-12T15:05:17.871Z</time>
      </trkpt>
      <trkpt lat="20.238145" lon="-98.73515167">
        <ele>2079.0</ele>
        <time>2019-10-12T15:05:18.878Z</time>
      </trkpt>
      <trkpt lat="20.23813" lon="-98.735175">
        <ele>2079.0</ele>
        <time>2019-10-12T15:05:19.884Z</time>
      </trkpt>
      <trkpt lat="20.23811167" lon="-98.73520833">
        <ele>2078.0</ele>
        <time>2019-10-12T15:05:20.885Z</time>
      </trkpt>
      <trkpt lat="20.23809667" lon="-98.73523833">
        <ele>2078.0</ele>
        <time>2019-10-12T15:05:21.886Z</time>
      </trkpt>
      <trkpt lat="20.23808167" lon="-98.73527">
        <ele>2078.0</ele>
        <time>2019-10-12T15:05:22.888Z</time>
      </trkpt>
      <trkpt lat="20.23806833" lon="-98.7353">
        <ele>2077.0</ele>
        <time>2019-10-12T15:05:23.895Z</time>
      </trkpt>
      <trkpt lat="20.23805333" lon="-98.73532">
        <ele>2077.0</ele>
        <time>2019-10-12T15:05:24.897Z</time>
      </trkpt>
      <trkpt lat="20.23804" lon="-98.73533333">
        <ele>2077.0</ele>
        <time>2019-10-12T15:05:25.902Z</time>
      </trkpt>
      <trkpt lat="20.23802333" lon="-98.73533167">
        <ele>2076.0</ele>
        <time>2019-10-12T15:05:26.907Z</time>
      </trkpt>
      <trkpt lat="20.23800667" lon="-98.73532">
        <ele>2075.0</ele>
        <time>2019-10-12T15:05:27.911Z</time>
      </trkpt>
      <trkpt lat="20.23798833" lon="-98.73530333">
        <ele>2074.0</ele>
        <time>2019-10-12T15:05:28.912Z</time>
      </trkpt>
      <trkpt lat="20.23797" lon="-98.73528667">
        <ele>2074.0</ele>
        <time>2019-10-12T15:05:29.913Z</time>
      </trkpt>
      <trkpt lat="20.23794833" lon="-98.73527667">
        <ele>2074.0</ele>
        <time>2019-10-12T15:05:30.914Z</time>
      </trkpt>
      <trkpt lat="20.23792667" lon="-98.73527167">
        <ele>2074.0</ele>
        <time>2019-10-12T15:05:31.916Z</time>
      </trkpt>
      <trkpt lat="20.23790167" lon="-98.73526333">
        <ele>2074.0</ele>
        <time>2019-10-12T15:05:32.920Z</time>
      </trkpt>
      <trkpt lat="20.23787333" lon="-98.735255">
        <ele>2074.0</ele>
        <time>2019-10-12T15:05:33.926Z</time>
      </trkpt>
      <trkpt lat="20.23784667" lon="-98.73524667">
        <ele>2074.0</ele>
        <time>2019-10-12T15:05:34.931Z</time>
      </trkpt>
      <trkpt lat="20.23781667" lon="-98.735235">
        <ele>2074.0</ele>
        <time>2019-10-12T15:05:35.937Z</time>
      </trkpt>
      <trkpt lat="20.23779" lon="-98.73524">
        <ele>2073.0</ele>
        <time>2019-10-12T15:05:36.944Z</time>
      </trkpt>
      <trkpt lat="20.23776167" lon="-98.73523833">
        <ele>2073.0</ele>
        <time>2019-10-12T15:05:37.946Z</time>
      </trkpt>
      <trkpt lat="20.237735" lon="-98.73524">
        <ele>2073.0</ele>
        <time>2019-10-12T15:05:38.951Z</time>
      </trkpt>
      <trkpt lat="20.237715" lon="-98.73524667">
        <ele>2073.0</ele>
        <time>2019-10-12T15:05:39.832Z</time>
      </trkpt>
      <trkpt lat="20.23769667" lon="-98.735245">
        <ele>2072.0</ele>
        <time>2019-10-12T15:05:40.837Z</time>
      </trkpt>
      <trkpt lat="20.23767167" lon="-98.73524167">
        <ele>2070.0</ele>
        <time>2019-10-12T15:05:41.838Z</time>
      </trkpt>
      <trkpt lat="20.23765333" lon="-98.73523333">
        <ele>2069.0</ele>
        <time>2019-10-12T15:05:42.838Z</time>
      </trkpt>
      <trkpt lat="20.23763333" lon="-98.735215">
        <ele>2069.0</ele>
        <time>2019-10-12T15:05:43.839Z</time>
      </trkpt>
      <trkpt lat="20.23761667" lon="-98.735195">
        <ele>2068.0</ele>
        <time>2019-10-12T15:05:44.840Z</time>
      </trkpt>
      <trkpt lat="20.23760667" lon="-98.73517167">
        <ele>2067.0</ele>
        <time>2019-10-12T15:05:45.840Z</time>
      </trkpt>
      <trkpt lat="20.23759833" lon="-98.73514667">
        <ele>2066.0</ele>
        <time>2019-10-12T15:05:46.840Z</time>
      </trkpt>
      <trkpt lat="20.23759333" lon="-98.73512">
        <ele>2065.0</ele>
        <time>2019-10-12T15:05:47.841Z</time>
      </trkpt>
      <trkpt lat="20.23759167" lon="-98.73509">
        <ele>2065.0</ele>
        <time>2019-10-12T15:05:48.841Z</time>
      </trkpt>
      <trkpt lat="20.23759167" lon="-98.73506167">
        <ele>2065.0</ele>
        <time>2019-10-12T15:05:49.841Z</time>
      </trkpt>
      <trkpt lat="20.23759333" lon="-98.73503167">
        <ele>2065.0</ele>
        <time>2019-10-12T15:05:50.846Z</time>
      </trkpt>
      <trkpt lat="20.23759667" lon="-98.73500167">
        <ele>2065.0</ele>
        <time>2019-10-12T15:05:51.850Z</time>
      </trkpt>
      <trkpt lat="20.2376" lon="-98.734975">
        <ele>2065.0</ele>
        <time>2019-10-12T15:05:52.852Z</time>
      </trkpt>
      <trkpt lat="20.23760167" lon="-98.73494667">
        <ele>2065.0</ele>
        <time>2019-10-12T15:05:53.856Z</time>
      </trkpt>
      <trkpt lat="20.237605" lon="-98.73491833">
        <ele>2065.0</ele>
        <time>2019-10-12T15:05:54.863Z</time>
      </trkpt>
      <trkpt lat="20.23760667" lon="-98.73488667">
        <ele>2065.0</ele>
        <time>2019-10-12T15:05:55.867Z</time>
      </trkpt>
      <trkpt lat="20.23761" lon="-98.73485667">
        <ele>2065.0</ele>
        <time>2019-10-12T15:05:56.873Z</time>
      </trkpt>
      <trkpt lat="20.23761333" lon="-98.73483">
        <ele>2065.0</ele>
        <time>2019-10-12T15:05:57.875Z</time>
      </trkpt>
      <trkpt lat="20.237615" lon="-98.734805">
        <ele>2065.0</ele>
        <time>2019-10-12T15:05:58.880Z</time>
      </trkpt>
      <trkpt lat="20.23761833" lon="-98.73478167">
        <ele>2065.0</ele>
        <time>2019-10-12T15:05:59.882Z</time>
      </trkpt>
      <trkpt lat="20.23762" lon="-98.73475667">
        <ele>2065.0</ele>
        <time>2019-10-12T15:06:00.890Z</time>
      </trkpt>
      <trkpt lat="20.23761833" lon="-98.73473167">
        <ele>2064.0</ele>
        <time>2019-10-12T15:06:01.897Z</time>
      </trkpt>
      <trkpt lat="20.23761667" lon="-98.73470833">
        <ele>2065.0</ele>
        <time>2019-10-12T15:06:02.902Z</time>
      </trkpt>
      <trkpt lat="20.23761833" lon="-98.73468833">
        <ele>2066.0</ele>
        <time>2019-10-12T15:06:03.907Z</time>
      </trkpt>
      <trkpt lat="20.23761667" lon="-98.73466833">
        <ele>2067.0</ele>
        <time>2019-10-12T15:06:04.908Z</time>
      </trkpt>
      <trkpt lat="20.237615" lon="-98.73464833">
        <ele>2068.0</ele>
        <time>2019-10-12T15:06:05.913Z</time>
      </trkpt>
      <trkpt lat="20.237615" lon="-98.73462667">
        <ele>2068.0</ele>
        <time>2019-10-12T15:06:06.915Z</time>
      </trkpt>
      <trkpt lat="20.23761167" lon="-98.73460833">
        <ele>2068.0</ele>
        <time>2019-10-12T15:06:07.917Z</time>
      </trkpt>
      <trkpt lat="20.23761333" lon="-98.73459">
        <ele>2068.0</ele>
        <time>2019-10-12T15:06:08.922Z</time>
      </trkpt>
      <trkpt lat="20.237615" lon="-98.734575">
        <ele>2068.0</ele>
        <time>2019-10-12T15:06:09.929Z</time>
      </trkpt>
      <trkpt lat="20.23761167" lon="-98.73455833">
        <ele>2068.0</ele>
        <time>2019-10-12T15:06:10.935Z</time>
      </trkpt>
      <trkpt lat="20.23760833" lon="-98.73453833">
        <ele>2068.0</ele>
        <time>2019-10-12T15:06:11.941Z</time>
      </trkpt>
      <trkpt lat="20.23760833" lon="-98.73451833">
        <ele>2069.0</ele>
        <time>2019-10-12T15:06:12.946Z</time>
      </trkpt>
      <trkpt lat="20.23760833" lon="-98.73449667">
        <ele>2069.0</ele>
        <time>2019-10-12T15:06:13.951Z</time>
      </trkpt>
      <trkpt lat="20.23761" lon="-98.73447667">
        <ele>2069.0</ele>
        <time>2019-10-12T15:06:14.955Z</time>
      </trkpt>
      <trkpt lat="20.23760833" lon="-98.73445167">
        <ele>2070.0</ele>
        <time>2019-10-12T15:06:15.833Z</time>
      </trkpt>
      <trkpt lat="20.23760667" lon="-98.73442833">
        <ele>2069.0</ele>
        <time>2019-10-12T15:06:16.839Z</time>
      </trkpt>
      <trkpt lat="20.23760833" lon="-98.73441">
        <ele>2069.0</ele>
        <time>2019-10-12T15:06:17.845Z</time>
      </trkpt>
      <trkpt lat="20.23761333" lon="-98.734385">
        <ele>2069.0</ele>
        <time>2019-10-12T15:06:18.848Z</time>
      </trkpt>
      <trkpt lat="20.237615" lon="-98.73436833">
        <ele>2069.0</ele>
        <time>2019-10-12T15:06:19.854Z</time>
      </trkpt>
      <trkpt lat="20.23761667" lon="-98.73434833">
        <ele>2069.0</ele>
        <time>2019-10-12T15:06:20.858Z</time>
      </trkpt>
      <trkpt lat="20.23761833" lon="-98.73433">
        <ele>2069.0</ele>
        <time>2019-10-12T15:06:21.863Z</time>
      </trkpt>
      <trkpt lat="20.23762" lon="-98.73430833">
        <ele>2070.0</ele>
        <time>2019-10-12T15:06:22.864Z</time>
      </trkpt>
      <trkpt lat="20.23762333" lon="-98.734285">
        <ele>2070.0</ele>
        <time>2019-10-12T15:06:23.865Z</time>
      </trkpt>
      <trkpt lat="20.23762667" lon="-98.73426333">
        <ele>2070.0</ele>
        <time>2019-10-12T15:06:24.865Z</time>
      </trkpt>
      <trkpt lat="20.23763333" lon="-98.734245">
        <ele>2071.0</ele>
        <time>2019-10-12T15:06:25.871Z</time>
      </trkpt>
      <trkpt lat="20.23763833" lon="-98.73423">
        <ele>2071.0</ele>
        <time>2019-10-12T15:06:26.877Z</time>
      </trkpt>
      <trkpt lat="20.23764167" lon="-98.73421167">
        <ele>2072.0</ele>
        <time>2019-10-12T15:06:27.879Z</time>
      </trkpt>
      <trkpt lat="20.23764167" lon="-98.734205">
        <ele>2072.0</ele>
        <time>2019-10-12T15:06:28.887Z</time>
      </trkpt>
      <trkpt lat="20.23764167" lon="-98.73419667">
        <ele>2072.0</ele>
        <time>2019-10-12T15:06:29.893Z</time>
      </trkpt>
      <trkpt lat="20.23764667" lon="-98.73418333">
        <ele>2072.0</ele>
        <time>2019-10-12T15:06:30.901Z</time>
      </trkpt>
      <trkpt lat="20.23765333" lon="-98.73416667">
        <ele>2071.0</ele>
        <time>2019-10-12T15:06:31.906Z</time>
      </trkpt>
      <trkpt lat="20.23766167" lon="-98.73414833">
        <ele>2072.0</ele>
        <time>2019-10-12T15:06:32.912Z</time>
      </trkpt>
      <trkpt lat="20.23767167" lon="-98.73413167">
        <ele>2072.0</ele>
        <time>2019-10-12T15:06:33.917Z</time>
      </trkpt>
      <trkpt lat="20.23768" lon="-98.73411833">
        <ele>2072.0</ele>
        <time>2019-10-12T15:06:34.918Z</time>
      </trkpt>
      <trkpt lat="20.237685" lon="-98.73410667">
        <ele>2073.0</ele>
        <time>2019-10-12T15:06:35.923Z</time>
      </trkpt>
      <trkpt lat="20.23769333" lon="-98.73409333">
        <ele>2073.0</ele>
        <time>2019-10-12T15:06:36.930Z</time>
      </trkpt>
      <trkpt lat="20.23770167" lon="-98.73408333">
        <ele>2074.0</ele>
        <time>2019-10-12T15:06:37.936Z</time>
      </trkpt>
      <trkpt lat="20.23771" lon="-98.73406833">
        <ele>2074.0</ele>
        <time>2019-10-12T15:06:38.940Z</time>
      </trkpt>
      <trkpt lat="20.23771833" lon="-98.73405667">
        <ele>2074.0</ele>
        <time>2019-10-12T15:06:39.941Z</time>
      </trkpt>
      <trkpt lat="20.237725" lon="-98.73404">
        <ele>2075.0</ele>
        <time>2019-10-12T15:06:40.942Z</time>
      </trkpt>
      <trkpt lat="20.23773333" lon="-98.73402167">
        <ele>2075.0</ele>
        <time>2019-10-12T15:06:41.947Z</time>
      </trkpt>
      <trkpt lat="20.23773833" lon="-98.73400333">
        <ele>2075.0</ele>
        <time>2019-10-12T15:06:42.955Z</time>
      </trkpt>
      <trkpt lat="20.23774" lon="-98.73398667">
        <ele>2075.0</ele>
        <time>2019-10-12T15:06:43.835Z</time>
      </trkpt>
      <trkpt lat="20.23774167" lon="-98.73397">
        <ele>2075.0</ele>
        <time>2019-10-12T15:06:44.840Z</time>
      </trkpt>
      <trkpt lat="20.23774667" lon="-98.73395167">
        <ele>2076.0</ele>
        <time>2019-10-12T15:06:45.845Z</time>
      </trkpt>
      <trkpt lat="20.23774833" lon="-98.733935">
        <ele>2076.0</ele>
        <time>2019-10-12T15:06:46.852Z</time>
      </trkpt>
      <trkpt lat="20.23774667" lon="-98.733925">
        <ele>2077.0</ele>
        <time>2019-10-12T15:06:47.857Z</time>
      </trkpt>
      <trkpt lat="20.23774667" lon="-98.73390833">
        <ele>2077.0</ele>
        <time>2019-10-12T15:06:48.862Z</time>
      </trkpt>
      <trkpt lat="20.23774667" lon="-98.73389167">
        <ele>2077.0</ele>
        <time>2019-10-12T15:06:49.864Z</time>
      </trkpt>
      <trkpt lat="20.23774833" lon="-98.73387667">
        <ele>2078.0</ele>
        <time>2019-10-12T15:06:50.869Z</time>
      </trkpt>
      <trkpt lat="20.23774833" lon="-98.73386167">
        <ele>2078.0</ele>
        <time>2019-10-12T15:06:51.875Z</time>
      </trkpt>
      <trkpt lat="20.23774833" lon="-98.73384667">
        <ele>2078.0</ele>
        <time>2019-10-12T15:06:52.881Z</time>
      </trkpt>
      <trkpt lat="20.23774833" lon="-98.73383333">
        <ele>2078.0</ele>
        <time>2019-10-12T15:06:53.886Z</time>
      </trkpt>
      <trkpt lat="20.23775167" lon="-98.73382">
        <ele>2078.0</ele>
        <time>2019-10-12T15:06:54.889Z</time>
      </trkpt>
      <trkpt lat="20.237755" lon="-98.733805">
        <ele>2078.0</ele>
        <time>2019-10-12T15:06:55.891Z</time>
      </trkpt>
      <trkpt lat="20.23775833" lon="-98.73378833">
        <ele>2079.0</ele>
        <time>2019-10-12T15:06:56.891Z</time>
      </trkpt>
      <trkpt lat="20.23776" lon="-98.733775">
        <ele>2079.0</ele>
        <time>2019-10-12T15:06:57.898Z</time>
      </trkpt>
      <trkpt lat="20.23776" lon="-98.73376167">
        <ele>2079.0</ele>
        <time>2019-10-12T15:06:58.904Z</time>
      </trkpt>
      <trkpt lat="20.23776167" lon="-98.73374667">
        <ele>2079.0</ele>
        <time>2019-10-12T15:06:59.905Z</time>
      </trkpt>
      <trkpt lat="20.23776333" lon="-98.73373333">
        <ele>2080.0</ele>
        <time>2019-10-12T15:07:00.908Z</time>
      </trkpt>
      <trkpt lat="20.23777" lon="-98.73372">
        <ele>2080.0</ele>
        <time>2019-10-12T15:07:01.914Z</time>
      </trkpt>
      <trkpt lat="20.237775" lon="-98.733705">
        <ele>2080.0</ele>
        <time>2019-10-12T15:07:02.917Z</time>
      </trkpt>
      <trkpt lat="20.23778333" lon="-98.73369">
        <ele>2081.0</ele>
        <time>2019-10-12T15:07:03.918Z</time>
      </trkpt>
      <trkpt lat="20.23779" lon="-98.73367333">
        <ele>2081.0</ele>
        <time>2019-10-12T15:07:04.918Z</time>
      </trkpt>
      <trkpt lat="20.23779833" lon="-98.73366">
        <ele>2082.0</ele>
        <time>2019-10-12T15:07:05.922Z</time>
      </trkpt>
      <trkpt lat="20.237805" lon="-98.73364833">
        <ele>2082.0</ele>
        <time>2019-10-12T15:07:06.925Z</time>
      </trkpt>
      <trkpt lat="20.23781333" lon="-98.73363833">
        <ele>2083.0</ele>
        <time>2019-10-12T15:07:07.931Z</time>
      </trkpt>
      <trkpt lat="20.23782167" lon="-98.73362667">
        <ele>2083.0</ele>
        <time>2019-10-12T15:07:08.936Z</time>
      </trkpt>
      <trkpt lat="20.23783" lon="-98.733615">
        <ele>2083.0</ele>
        <time>2019-10-12T15:07:09.943Z</time>
      </trkpt>
      <trkpt lat="20.23783667" lon="-98.733605">
        <ele>2082.0</ele>
        <time>2019-10-12T15:07:10.948Z</time>
      </trkpt>
      <trkpt lat="20.23784833" lon="-98.7336">
        <ele>2082.0</ele>
        <time>2019-10-12T15:07:11.952Z</time>
      </trkpt>
      <trkpt lat="20.23786" lon="-98.73360333">
        <ele>2083.0</ele>
        <time>2019-10-12T15:07:12.833Z</time>
      </trkpt>
      <trkpt lat="20.23787167" lon="-98.73360667">
        <ele>2083.0</ele>
        <time>2019-10-12T15:07:13.839Z</time>
      </trkpt>
      <trkpt lat="20.237885" lon="-98.73361">
        <ele>2083.0</ele>
        <time>2019-10-12T15:07:14.843Z</time>
      </trkpt>
      <trkpt lat="20.237895" lon="-98.73361833">
        <ele>2082.0</ele>
        <time>2019-10-12T15:07:15.844Z</time>
      </trkpt>
      <trkpt lat="20.23790333" lon="-98.73362833">
        <ele>2082.0</ele>
        <time>2019-10-12T15:07:16.845Z</time>
      </trkpt>
      <trkpt lat="20.23791" lon="-98.73364333">
        <ele>2082.0</ele>
        <time>2019-10-12T15:07:17.846Z</time>
      </trkpt>
      <trkpt lat="20.23791667" lon="-98.73366">
        <ele>2082.0</ele>
        <time>2019-10-12T15:07:18.851Z</time>
      </trkpt>
      <trkpt lat="20.23792333" lon="-98.733675">
        <ele>2082.0</ele>
        <time>2019-10-12T15:07:19.857Z</time>
      </trkpt>
      <trkpt lat="20.23793" lon="-98.73369167">
        <ele>2081.0</ele>
        <time>2019-10-12T15:07:20.859Z</time>
      </trkpt>
      <trkpt lat="20.23793667" lon="-98.73370833">
        <ele>2081.0</ele>
        <time>2019-10-12T15:07:21.864Z</time>
      </trkpt>
      <trkpt lat="20.23794" lon="-98.73372333">
        <ele>2081.0</ele>
        <time>2019-10-12T15:07:22.870Z</time>
      </trkpt>
      <trkpt lat="20.237945" lon="-98.73374167">
        <ele>2081.0</ele>
        <time>2019-10-12T15:07:23.876Z</time>
      </trkpt>
      <trkpt lat="20.23794833" lon="-98.733755">
        <ele>2081.0</ele>
        <time>2019-10-12T15:07:24.882Z</time>
      </trkpt>
      <trkpt lat="20.23795833" lon="-98.73377667">
        <ele>2081.0</ele>
        <time>2019-10-12T15:07:25.886Z</time>
      </trkpt>
      <trkpt lat="20.23797167" lon="-98.73379333">
        <ele>2080.0</ele>
        <time>2019-10-12T15:07:26.889Z</time>
      </trkpt>
      <trkpt lat="20.23798167" lon="-98.73381167">
        <ele>2080.0</ele>
        <time>2019-10-12T15:07:27.892Z</time>
      </trkpt>
      <trkpt lat="20.23799333" lon="-98.73382333">
        <ele>2080.0</ele>
        <time>2019-10-12T15:07:28.897Z</time>
      </trkpt>
      <trkpt lat="20.23800167" lon="-98.73383667">
        <ele>2080.0</ele>
        <time>2019-10-12T15:07:29.902Z</time>
      </trkpt>
      <trkpt lat="20.238015" lon="-98.73385833">
        <ele>2081.0</ele>
        <time>2019-10-12T15:07:30.904Z</time>
      </trkpt>
      <trkpt lat="20.238025" lon="-98.73387333">
        <ele>2081.0</ele>
        <time>2019-10-12T15:07:31.908Z</time>
      </trkpt>
      <trkpt lat="20.238035" lon="-98.73389">
        <ele>2081.0</ele>
        <time>2019-10-12T15:07:32.909Z</time>
      </trkpt>
      <trkpt lat="20.23804333" lon="-98.73390167">
        <ele>2082.0</ele>
        <time>2019-10-12T15:07:33.915Z</time>
      </trkpt>
      <trkpt lat="20.23804833" lon="-98.733915">
        <ele>2081.0</ele>
        <time>2019-10-12T15:07:34.921Z</time>
      </trkpt>
      <trkpt lat="20.238055" lon="-98.733935">
        <ele>2081.0</ele>
        <time>2019-10-12T15:07:35.922Z</time>
      </trkpt>
      <trkpt lat="20.23806333" lon="-98.73395167">
        <ele>2081.0</ele>
        <time>2019-10-12T15:07:36.923Z</time>
      </trkpt>
      <trkpt lat="20.23807167" lon="-98.73397">
        <ele>2082.0</ele>
        <time>2019-10-12T15:07:37.924Z</time>
      </trkpt>
      <trkpt lat="20.23807833" lon="-98.733985">
        <ele>2082.0</ele>
        <time>2019-10-12T15:07:38.925Z</time>
      </trkpt>
      <trkpt lat="20.23809" lon="-98.73400333">
        <ele>2082.0</ele>
        <time>2019-10-12T15:07:39.925Z</time>
      </trkpt>
      <trkpt lat="20.23809833" lon="-98.73401333">
        <ele>2082.0</ele>
        <time>2019-10-12T15:07:40.926Z</time>
      </trkpt>
      <trkpt lat="20.23811167" lon="-98.734025">
        <ele>2082.0</ele>
        <time>2019-10-12T15:07:41.927Z</time>
      </trkpt>
      <trkpt lat="20.23812667" lon="-98.734035">
        <ele>2082.0</ele>
        <time>2019-10-12T15:07:42.932Z</time>
      </trkpt>
      <trkpt lat="20.23814167" lon="-98.73404333">
        <ele>2083.0</ele>
        <time>2019-10-12T15:07:43.940Z</time>
      </trkpt>
      <trkpt lat="20.23815833" lon="-98.73405167">
        <ele>2083.0</ele>
        <time>2019-10-12T15:07:44.944Z</time>
      </trkpt>
      <trkpt lat="20.23817667" lon="-98.73405833">
        <ele>2082.0</ele>
        <time>2019-10-12T15:07:45.946Z</time>
      </trkpt>
      <trkpt lat="20.23819667" lon="-98.73405667">
        <ele>2082.0</ele>
        <time>2019-10-12T15:07:46.950Z</time>
      </trkpt>
      <trkpt lat="20.23821" lon="-98.73405333">
        <ele>2082.0</ele>
        <time>2019-10-12T15:07:47.951Z</time>
      </trkpt>
      <trkpt lat="20.23823167" lon="-98.73404667">
        <ele>2082.0</ele>
        <time>2019-10-12T15:07:48.951Z</time>
      </trkpt>
      <trkpt lat="20.23825" lon="-98.73403833">
        <ele>2083.0</ele>
        <time>2019-10-12T15:07:49.954Z</time>
      </trkpt>
      <trkpt lat="20.238265" lon="-98.73403">
        <ele>2084.0</ele>
        <time>2019-10-12T15:07:50.832Z</time>
      </trkpt>
      <trkpt lat="20.23828333" lon="-98.73402">
        <ele>2084.0</ele>
        <time>2019-10-12T15:07:51.834Z</time>
      </trkpt>
      <trkpt lat="20.23830167" lon="-98.734005">
        <ele>2084.0</ele>
        <time>2019-10-12T15:07:52.839Z</time>
      </trkpt>
      <trkpt lat="20.23831833" lon="-98.73399167">
        <ele>2084.0</ele>
        <time>2019-10-12T15:07:53.846Z</time>
      </trkpt>
      <trkpt lat="20.23833333" lon="-98.73397667">
        <ele>2085.0</ele>
        <time>2019-10-12T15:07:54.848Z</time>
      </trkpt>
      <trkpt lat="20.23835" lon="-98.73396333">
        <ele>2085.0</ele>
        <time>2019-10-12T15:07:55.853Z</time>
      </trkpt>
      <trkpt lat="20.238365" lon="-98.73394833">
        <ele>2086.0</ele>
        <time>2019-10-12T15:07:56.861Z</time>
      </trkpt>
      <trkpt lat="20.23838" lon="-98.733935">
        <ele>2087.0</ele>
        <time>2019-10-12T15:07:57.866Z</time>
      </trkpt>
      <trkpt lat="20.23839667" lon="-98.73392">
        <ele>2087.0</ele>
        <time>2019-10-12T15:07:58.873Z</time>
      </trkpt>
      <trkpt lat="20.23841333" lon="-98.73390667">
        <ele>2088.0</ele>
        <time>2019-10-12T15:07:59.874Z</time>
      </trkpt>
      <trkpt lat="20.23843167" lon="-98.73389333">
        <ele>2088.0</ele>
        <time>2019-10-12T15:08:00.881Z</time>
      </trkpt>
      <trkpt lat="20.23844667" lon="-98.73388167">
        <ele>2089.0</ele>
        <time>2019-10-12T15:08:01.888Z</time>
      </trkpt>
      <trkpt lat="20.23846333" lon="-98.73386833">
        <ele>2089.0</ele>
        <time>2019-10-12T15:08:02.892Z</time>
      </trkpt>
      <trkpt lat="20.23848167" lon="-98.733855">
        <ele>2090.0</ele>
        <time>2019-10-12T15:08:03.896Z</time>
      </trkpt>
      <trkpt lat="20.23850333" lon="-98.73384667">
        <ele>2090.0</ele>
        <time>2019-10-12T15:08:04.899Z</time>
      </trkpt>
      <trkpt lat="20.23852167" lon="-98.73384167">
        <ele>2090.0</ele>
        <time>2019-10-12T15:08:05.905Z</time>
      </trkpt>
      <trkpt lat="20.23854" lon="-98.73383833">
        <ele>2090.0</ele>
        <time>2019-10-12T15:08:06.910Z</time>
      </trkpt>
      <trkpt lat="20.238565" lon="-98.733835">
        <ele>2091.0</ele>
        <time>2019-10-12T15:08:07.915Z</time>
      </trkpt>
      <trkpt lat="20.23858833" lon="-98.73382667">
        <ele>2091.0</ele>
        <time>2019-10-12T15:08:08.921Z</time>
      </trkpt>
      <trkpt lat="20.23861167" lon="-98.73382167">
        <ele>2091.0</ele>
        <time>2019-10-12T15:08:09.924Z</time>
      </trkpt>
      <trkpt lat="20.23862667" lon="-98.73381667">
        <ele>2091.0</ele>
        <time>2019-10-12T15:08:10.926Z</time>
      </trkpt>
      <trkpt lat="20.23864833" lon="-98.73381">
        <ele>2091.0</ele>
        <time>2019-10-12T15:08:11.933Z</time>
      </trkpt>
      <trkpt lat="20.23867167" lon="-98.73380667">
        <ele>2091.0</ele>
        <time>2019-10-12T15:08:12.939Z</time>
      </trkpt>
      <trkpt lat="20.23869833" lon="-98.73379833">
        <ele>2091.0</ele>
        <time>2019-10-12T15:08:13.945Z</time>
      </trkpt>
      <trkpt lat="20.23872" lon="-98.73379">
        <ele>2092.0</ele>
        <time>2019-10-12T15:08:14.948Z</time>
      </trkpt>
      <trkpt lat="20.23873667" lon="-98.73378167">
        <ele>2092.0</ele>
        <time>2019-10-12T15:08:15.949Z</time>
      </trkpt>
      <trkpt lat="20.23876" lon="-98.73376333">
        <ele>2092.0</ele>
        <time>2019-10-12T15:08:16.950Z</time>
      </trkpt>
      <trkpt lat="20.23877833" lon="-98.73374667">
        <ele>2092.0</ele>
        <time>2019-10-12T15:08:17.950Z</time>
      </trkpt>
      <trkpt lat="20.23879667" lon="-98.73373667">
        <ele>2093.0</ele>
        <time>2019-10-12T15:08:18.951Z</time>
      </trkpt>
      <trkpt lat="20.238815" lon="-98.73372833">
        <ele>2093.0</ele>
        <time>2019-10-12T15:08:19.951Z</time>
      </trkpt>
      <trkpt lat="20.23883" lon="-98.73372333">
        <ele>2093.0</ele>
        <time>2019-10-12T15:08:20.953Z</time>
      </trkpt>
      <trkpt lat="20.23885333" lon="-98.73371333">
        <ele>2094.0</ele>
        <time>2019-10-12T15:08:21.954Z</time>
      </trkpt>
      <trkpt lat="20.23887167" lon="-98.733705">
        <ele>2093.0</ele>
        <time>2019-10-12T15:08:22.954Z</time>
      </trkpt>
      <trkpt lat="20.23889" lon="-98.73369667">
        <ele>2094.0</ele>
        <time>2019-10-12T15:08:23.833Z</time>
      </trkpt>
      <trkpt lat="20.23890833" lon="-98.73368667">
        <ele>2094.0</ele>
        <time>2019-10-12T15:08:24.839Z</time>
      </trkpt>
      <trkpt lat="20.23892333" lon="-98.73367167">
        <ele>2094.0</ele>
        <time>2019-10-12T15:08:25.843Z</time>
      </trkpt>
      <trkpt lat="20.23893833" lon="-98.73365667">
        <ele>2094.0</ele>
        <time>2019-10-12T15:08:26.850Z</time>
      </trkpt>
      <trkpt lat="20.23895" lon="-98.73363833">
        <ele>2094.0</ele>
        <time>2019-10-12T15:08:27.857Z</time>
      </trkpt>
      <trkpt lat="20.23895833" lon="-98.73362333">
        <ele>2093.0</ele>
        <time>2019-10-12T15:08:28.863Z</time>
      </trkpt>
      <trkpt lat="20.23897" lon="-98.73360333">
        <ele>2093.0</ele>
        <time>2019-10-12T15:08:29.865Z</time>
      </trkpt>
      <trkpt lat="20.23898167" lon="-98.73358333">
        <ele>2093.0</ele>
        <time>2019-10-12T15:08:30.871Z</time>
      </trkpt>
      <trkpt lat="20.23899167" lon="-98.73356333">
        <ele>2092.0</ele>
        <time>2019-10-12T15:08:31.874Z</time>
      </trkpt>
      <trkpt lat="20.23900167" lon="-98.73354333">
        <ele>2092.0</ele>
        <time>2019-10-12T15:08:32.880Z</time>
      </trkpt>
      <trkpt lat="20.23901" lon="-98.73352667">
        <ele>2092.0</ele>
        <time>2019-10-12T15:08:33.887Z</time>
      </trkpt>
      <trkpt lat="20.239025" lon="-98.73350333">
        <ele>2092.0</ele>
        <time>2019-10-12T15:08:34.891Z</time>
      </trkpt>
      <trkpt lat="20.23903667" lon="-98.733485">
        <ele>2092.0</ele>
        <time>2019-10-12T15:08:35.893Z</time>
      </trkpt>
      <trkpt lat="20.23905167" lon="-98.73346833">
        <ele>2092.0</ele>
        <time>2019-10-12T15:08:36.899Z</time>
      </trkpt>
      <trkpt lat="20.239065" lon="-98.73345667">
        <ele>2092.0</ele>
        <time>2019-10-12T15:08:37.904Z</time>
      </trkpt>
      <trkpt lat="20.23908333" lon="-98.73343667">
        <ele>2093.0</ele>
        <time>2019-10-12T15:08:38.905Z</time>
      </trkpt>
      <trkpt lat="20.2391" lon="-98.73342">
        <ele>2093.0</ele>
        <time>2019-10-12T15:08:39.905Z</time>
      </trkpt>
      <trkpt lat="20.239115" lon="-98.733405">
        <ele>2093.0</ele>
        <time>2019-10-12T15:08:40.906Z</time>
      </trkpt>
      <trkpt lat="20.23913" lon="-98.73339">
        <ele>2093.0</ele>
        <time>2019-10-12T15:08:41.907Z</time>
      </trkpt>
      <trkpt lat="20.23914" lon="-98.73337667">
        <ele>2093.0</ele>
        <time>2019-10-12T15:08:42.907Z</time>
      </trkpt>
      <trkpt lat="20.23916" lon="-98.73335833">
        <ele>2093.0</ele>
        <time>2019-10-12T15:08:43.908Z</time>
      </trkpt>
      <trkpt lat="20.239175" lon="-98.73334833">
        <ele>2093.0</ele>
        <time>2019-10-12T15:08:44.909Z</time>
      </trkpt>
      <trkpt lat="20.239195" lon="-98.73333333">
        <ele>2093.0</ele>
        <time>2019-10-12T15:08:45.910Z</time>
      </trkpt>
      <trkpt lat="20.23921" lon="-98.733325">
        <ele>2092.0</ele>
        <time>2019-10-12T15:08:46.913Z</time>
      </trkpt>
      <trkpt lat="20.23923" lon="-98.73331833">
        <ele>2092.0</ele>
        <time>2019-10-12T15:08:47.918Z</time>
      </trkpt>
      <trkpt lat="20.239255" lon="-98.73330833">
        <ele>2092.0</ele>
        <time>2019-10-12T15:08:48.921Z</time>
      </trkpt>
      <trkpt lat="20.23927667" lon="-98.733305">
        <ele>2091.0</ele>
        <time>2019-10-12T15:08:49.927Z</time>
      </trkpt>
      <trkpt lat="20.23929833" lon="-98.73329833">
        <ele>2091.0</ele>
        <time>2019-10-12T15:08:50.934Z</time>
      </trkpt>
      <trkpt lat="20.23931667" lon="-98.73329667">
        <ele>2091.0</ele>
        <time>2019-10-12T15:08:51.938Z</time>
      </trkpt>
      <trkpt lat="20.23934167" lon="-98.73329">
        <ele>2091.0</ele>
        <time>2019-10-12T15:08:52.944Z</time>
      </trkpt>
      <trkpt lat="20.23935667" lon="-98.73328333">
        <ele>2090.0</ele>
        <time>2019-10-12T15:08:53.947Z</time>
      </trkpt>
      <trkpt lat="20.23938167" lon="-98.733275">
        <ele>2090.0</ele>
        <time>2019-10-12T15:08:54.950Z</time>
      </trkpt>
      <trkpt lat="20.23940167" lon="-98.733265">
        <ele>2090.0</ele>
        <time>2019-10-12T15:08:55.954Z</time>
      </trkpt>
      <trkpt lat="20.23941667" lon="-98.73326">
        <ele>2091.0</ele>
        <time>2019-10-12T15:08:56.834Z</time>
      </trkpt>
      <trkpt lat="20.23944167" lon="-98.73325">
        <ele>2092.0</ele>
        <time>2019-10-12T15:08:57.841Z</time>
      </trkpt>
      <trkpt lat="20.23945833" lon="-98.733235">
        <ele>2092.0</ele>
        <time>2019-10-12T15:08:58.848Z</time>
      </trkpt>
      <trkpt lat="20.23947167" lon="-98.733215">
        <ele>2091.0</ele>
        <time>2019-10-12T15:08:59.854Z</time>
      </trkpt>
      <trkpt lat="20.239485" lon="-98.7332">
        <ele>2091.0</ele>
        <time>2019-10-12T15:09:00.857Z</time>
      </trkpt>
      <trkpt lat="20.2395" lon="-98.73318167">
        <ele>2091.0</ele>
        <time>2019-10-12T15:09:01.859Z</time>
      </trkpt>
      <trkpt lat="20.23951333" lon="-98.73316167">
        <ele>2091.0</ele>
        <time>2019-10-12T15:09:02.864Z</time>
      </trkpt>
      <trkpt lat="20.23952833" lon="-98.73314167">
        <ele>2092.0</ele>
        <time>2019-10-12T15:09:03.872Z</time>
      </trkpt>
      <trkpt lat="20.23954167" lon="-98.73312">
        <ele>2092.0</ele>
        <time>2019-10-12T15:09:04.877Z</time>
      </trkpt>
      <trkpt lat="20.23955667" lon="-98.7331">
        <ele>2092.0</ele>
        <time>2019-10-12T15:09:05.879Z</time>
      </trkpt>
      <trkpt lat="20.23957167" lon="-98.73308">
        <ele>2093.0</ele>
        <time>2019-10-12T15:09:06.882Z</time>
      </trkpt>
      <trkpt lat="20.23958667" lon="-98.733055">
        <ele>2093.0</ele>
        <time>2019-10-12T15:09:07.888Z</time>
      </trkpt>
      <trkpt lat="20.23959833" lon="-98.73303333">
        <ele>2093.0</ele>
        <time>2019-10-12T15:09:08.895Z</time>
      </trkpt>
      <trkpt lat="20.23961" lon="-98.73300833">
        <ele>2093.0</ele>
        <time>2019-10-12T15:09:09.902Z</time>
      </trkpt>
      <trkpt lat="20.23962" lon="-98.73298667">
        <ele>2094.0</ele>
        <time>2019-10-12T15:09:10.905Z</time>
      </trkpt>
      <trkpt lat="20.23963" lon="-98.73296167">
        <ele>2093.0</ele>
        <time>2019-10-12T15:09:11.909Z</time>
      </trkpt>
      <trkpt lat="20.23964" lon="-98.73293667">
        <ele>2093.0</ele>
        <time>2019-10-12T15:09:12.915Z</time>
      </trkpt>
      <trkpt lat="20.23964833" lon="-98.73291167">
        <ele>2093.0</ele>
        <time>2019-10-12T15:09:13.921Z</time>
      </trkpt>
      <trkpt lat="20.239655" lon="-98.73288833">
        <ele>2093.0</ele>
        <time>2019-10-12T15:09:14.923Z</time>
      </trkpt>
      <trkpt lat="20.239665" lon="-98.73286167">
        <ele>2093.0</ele>
        <time>2019-10-12T15:09:15.926Z</time>
      </trkpt>
      <trkpt lat="20.23967667" lon="-98.73283833">
        <ele>2093.0</ele>
        <time>2019-10-12T15:09:16.926Z</time>
      </trkpt>
      <trkpt lat="20.23969167" lon="-98.73282">
        <ele>2092.0</ele>
        <time>2019-10-12T15:09:17.927Z</time>
      </trkpt>
      <trkpt lat="20.23970833" lon="-98.73281333">
        <ele>2092.0</ele>
        <time>2019-10-12T15:09:18.928Z</time>
      </trkpt>
      <trkpt lat="20.23972667" lon="-98.732815">
        <ele>2092.0</ele>
        <time>2019-10-12T15:09:19.929Z</time>
      </trkpt>
      <trkpt lat="20.23974167" lon="-98.73282333">
        <ele>2092.0</ele>
        <time>2019-10-12T15:09:20.934Z</time>
      </trkpt>
      <trkpt lat="20.23975167" lon="-98.73283333">
        <ele>2093.0</ele>
        <time>2019-10-12T15:09:21.941Z</time>
      </trkpt>
      <trkpt lat="20.23976" lon="-98.732845">
        <ele>2093.0</ele>
        <time>2019-10-12T15:09:22.944Z</time>
      </trkpt>
      <trkpt lat="20.23976833" lon="-98.732855">
        <ele>2094.0</ele>
        <time>2019-10-12T15:09:23.948Z</time>
      </trkpt>
      <trkpt lat="20.23977833" lon="-98.73287">
        <ele>2095.0</ele>
        <time>2019-10-12T15:09:24.955Z</time>
      </trkpt>
      <trkpt lat="20.23979" lon="-98.73288167">
        <ele>2095.0</ele>
        <time>2019-10-12T15:09:25.836Z</time>
      </trkpt>
      <trkpt lat="20.239805" lon="-98.73289667">
        <ele>2094.0</ele>
        <time>2019-10-12T15:09:26.844Z</time>
      </trkpt>
      <trkpt lat="20.23982167" lon="-98.732915">
        <ele>2094.0</ele>
        <time>2019-10-12T15:09:27.850Z</time>
      </trkpt>
      <trkpt lat="20.23983833" lon="-98.73293333">
        <ele>2093.0</ele>
        <time>2019-10-12T15:09:28.857Z</time>
      </trkpt>
      <trkpt lat="20.23986167" lon="-98.73294167">
        <ele>2092.0</ele>
        <time>2019-10-12T15:09:29.859Z</time>
      </trkpt>
      <trkpt lat="20.23988667" lon="-98.73295">
        <ele>2092.0</ele>
        <time>2019-10-12T15:09:30.864Z</time>
      </trkpt>
      <trkpt lat="20.23990333" lon="-98.73296333">
        <ele>2092.0</ele>
        <time>2019-10-12T15:09:31.871Z</time>
      </trkpt>
      <trkpt lat="20.239925" lon="-98.732985">
        <ele>2091.0</ele>
        <time>2019-10-12T15:09:32.875Z</time>
      </trkpt>
      <trkpt lat="20.23994167" lon="-98.733">
        <ele>2091.0</ele>
        <time>2019-10-12T15:09:33.876Z</time>
      </trkpt>
      <trkpt lat="20.23995833" lon="-98.73301833">
        <ele>2090.0</ele>
        <time>2019-10-12T15:09:34.877Z</time>
      </trkpt>
      <trkpt lat="20.23998" lon="-98.733045">
        <ele>2090.0</ele>
        <time>2019-10-12T15:09:35.878Z</time>
      </trkpt>
      <trkpt lat="20.23999667" lon="-98.733065">
        <ele>2090.0</ele>
        <time>2019-10-12T15:09:36.879Z</time>
      </trkpt>
      <trkpt lat="20.24001333" lon="-98.73308">
        <ele>2090.0</ele>
        <time>2019-10-12T15:09:37.880Z</time>
      </trkpt>
      <trkpt lat="20.240035" lon="-98.73309167">
        <ele>2090.0</ele>
        <time>2019-10-12T15:09:38.880Z</time>
      </trkpt>
      <trkpt lat="20.24005333" lon="-98.7331">
        <ele>2090.0</ele>
        <time>2019-10-12T15:09:39.881Z</time>
      </trkpt>
      <trkpt lat="20.240075" lon="-98.73310333">
        <ele>2090.0</ele>
        <time>2019-10-12T15:09:40.881Z</time>
      </trkpt>
      <trkpt lat="20.24009333" lon="-98.73310667">
        <ele>2090.0</ele>
        <time>2019-10-12T15:09:41.881Z</time>
      </trkpt>
      <trkpt lat="20.24011167" lon="-98.73310833">
        <ele>2090.0</ele>
        <time>2019-10-12T15:09:42.882Z</time>
      </trkpt>
      <trkpt lat="20.24014167" lon="-98.73311">
        <ele>2089.0</ele>
        <time>2019-10-12T15:09:43.882Z</time>
      </trkpt>
      <trkpt lat="20.240165" lon="-98.73311167">
        <ele>2088.0</ele>
        <time>2019-10-12T15:09:44.882Z</time>
      </trkpt>
      <trkpt lat="20.24019" lon="-98.73311167">
        <ele>2089.0</ele>
        <time>2019-10-12T15:09:45.882Z</time>
      </trkpt>
      <trkpt lat="20.24021333" lon="-98.73311">
        <ele>2089.0</ele>
        <time>2019-10-12T15:09:46.882Z</time>
      </trkpt>
      <trkpt lat="20.24023667" lon="-98.73311">
        <ele>2088.0</ele>
        <time>2019-10-12T15:09:47.883Z</time>
      </trkpt>
      <trkpt lat="20.24026167" lon="-98.73311833">
        <ele>2087.0</ele>
        <time>2019-10-12T15:09:48.883Z</time>
      </trkpt>
      <trkpt lat="20.24028167" lon="-98.73314167">
        <ele>2086.0</ele>
        <time>2019-10-12T15:09:49.883Z</time>
      </trkpt>
      <trkpt lat="20.2403" lon="-98.73317167">
        <ele>2085.0</ele>
        <time>2019-10-12T15:09:50.883Z</time>
      </trkpt>
      <trkpt lat="20.24030833" lon="-98.73318833">
        <ele>2085.0</ele>
        <time>2019-10-12T15:09:51.883Z</time>
      </trkpt>
      <trkpt lat="20.240325" lon="-98.73321333">
        <ele>2085.0</ele>
        <time>2019-10-12T15:09:52.884Z</time>
      </trkpt>
      <trkpt lat="20.24033667" lon="-98.73323667">
        <ele>2084.0</ele>
        <time>2019-10-12T15:09:53.884Z</time>
      </trkpt>
      <trkpt lat="20.24035333" lon="-98.73326333">
        <ele>2083.0</ele>
        <time>2019-10-12T15:09:54.886Z</time>
      </trkpt>
      <trkpt lat="20.24036667" lon="-98.73328833">
        <ele>2082.0</ele>
        <time>2019-10-12T15:09:55.891Z</time>
      </trkpt>
      <trkpt lat="20.24037167" lon="-98.73331333">
        <ele>2081.0</ele>
        <time>2019-10-12T15:09:56.896Z</time>
      </trkpt>
      <trkpt lat="20.240385" lon="-98.733345">
        <ele>2080.0</ele>
        <time>2019-10-12T15:09:57.901Z</time>
      </trkpt>
      <trkpt lat="20.24039667" lon="-98.733385">
        <ele>2079.0</ele>
        <time>2019-10-12T15:09:58.905Z</time>
      </trkpt>
      <trkpt lat="20.24041333" lon="-98.73341167">
        <ele>2078.0</ele>
        <time>2019-10-12T15:09:59.905Z</time>
      </trkpt>
      <trkpt lat="20.240435" lon="-98.73343667">
        <ele>2077.0</ele>
        <time>2019-10-12T15:10:00.907Z</time>
      </trkpt>
      <trkpt lat="20.240455" lon="-98.73345667">
        <ele>2077.0</ele>
        <time>2019-10-12T15:10:01.910Z</time>
      </trkpt>
      <trkpt lat="20.24048167" lon="-98.73347333">
        <ele>2077.0</ele>
        <time>2019-10-12T15:10:02.911Z</time>
      </trkpt>
      <trkpt lat="20.24051167" lon="-98.73349167">
        <ele>2076.0</ele>
        <time>2019-10-12T15:10:03.913Z</time>
      </trkpt>
      <trkpt lat="20.24053667" lon="-98.7335">
        <ele>2076.0</ele>
        <time>2019-10-12T15:10:04.915Z</time>
      </trkpt>
      <trkpt lat="20.240565" lon="-98.73351">
        <ele>2075.0</ele>
        <time>2019-10-12T15:10:05.919Z</time>
      </trkpt>
      <trkpt lat="20.24059" lon="-98.73352333">
        <ele>2074.0</ele>
        <time>2019-10-12T15:10:06.921Z</time>
      </trkpt>
      <trkpt lat="20.24061833" lon="-98.73353833">
        <ele>2074.0</ele>
        <time>2019-10-12T15:10:07.923Z</time>
      </trkpt>
      <trkpt lat="20.240645" lon="-98.733555">
        <ele>2073.0</ele>
        <time>2019-10-12T15:10:08.925Z</time>
      </trkpt>
      <trkpt lat="20.240665" lon="-98.73356667">
        <ele>2073.0</ele>
        <time>2019-10-12T15:10:09.927Z</time>
      </trkpt>
      <trkpt lat="20.24068833" lon="-98.73357833">
        <ele>2072.0</ele>
        <time>2019-10-12T15:10:10.935Z</time>
      </trkpt>
      <trkpt lat="20.24072167" lon="-98.73358167">
        <ele>2072.0</ele>
        <time>2019-10-12T15:10:11.938Z</time>
      </trkpt>
      <trkpt lat="20.24075" lon="-98.73358167">
        <ele>2072.0</ele>
        <time>2019-10-12T15:10:12.941Z</time>
      </trkpt>
      <trkpt lat="20.24077833" lon="-98.73357667">
        <ele>2071.0</ele>
        <time>2019-10-12T15:10:13.943Z</time>
      </trkpt>
      <trkpt lat="20.24080167" lon="-98.73357167">
        <ele>2071.0</ele>
        <time>2019-10-12T15:10:14.948Z</time>
      </trkpt>
      <trkpt lat="20.24083" lon="-98.73356333">
        <ele>2071.0</ele>
        <time>2019-10-12T15:10:15.954Z</time>
      </trkpt>
      <trkpt lat="20.24086167" lon="-98.73355333">
        <ele>2070.0</ele>
        <time>2019-10-12T15:10:16.830Z</time>
      </trkpt>
      <trkpt lat="20.24089" lon="-98.733545">
        <ele>2069.0</ele>
        <time>2019-10-12T15:10:17.831Z</time>
      </trkpt>
      <trkpt lat="20.24091833" lon="-98.733535">
        <ele>2069.0</ele>
        <time>2019-10-12T15:10:18.831Z</time>
      </trkpt>
      <trkpt lat="20.24094167" lon="-98.73352667">
        <ele>2068.0</ele>
        <time>2019-10-12T15:10:19.832Z</time>
      </trkpt>
      <trkpt lat="20.24096833" lon="-98.73352167">
        <ele>2068.0</ele>
        <time>2019-10-12T15:10:20.833Z</time>
      </trkpt>
      <trkpt lat="20.24100333" lon="-98.73351667">
        <ele>2067.0</ele>
        <time>2019-10-12T15:10:21.842Z</time>
      </trkpt>
      <trkpt lat="20.241035" lon="-98.73351833">
        <ele>2067.0</ele>
        <time>2019-10-12T15:10:22.846Z</time>
      </trkpt>
      <trkpt lat="20.241065" lon="-98.733515">
        <ele>2066.0</ele>
        <time>2019-10-12T15:10:23.850Z</time>
      </trkpt>
      <trkpt lat="20.24109" lon="-98.73350667">
        <ele>2066.0</ele>
        <time>2019-10-12T15:10:24.854Z</time>
      </trkpt>
      <trkpt lat="20.241125" lon="-98.733495">
        <ele>2066.0</ele>
        <time>2019-10-12T15:10:25.857Z</time>
      </trkpt>
      <trkpt lat="20.24114667" lon="-98.73348333">
        <ele>2066.0</ele>
        <time>2019-10-12T15:10:26.860Z</time>
      </trkpt>
      <trkpt lat="20.24117333" lon="-98.73347">
        <ele>2066.0</ele>
        <time>2019-10-12T15:10:27.865Z</time>
      </trkpt>
      <trkpt lat="20.24119833" lon="-98.73345">
        <ele>2067.0</ele>
        <time>2019-10-12T15:10:28.872Z</time>
      </trkpt>
      <trkpt lat="20.24122167" lon="-98.73342167">
        <ele>2066.0</ele>
        <time>2019-10-12T15:10:29.878Z</time>
      </trkpt>
      <trkpt lat="20.24124" lon="-98.73339833">
        <ele>2067.0</ele>
        <time>2019-10-12T15:10:30.884Z</time>
      </trkpt>
      <trkpt lat="20.24125" lon="-98.73336833">
        <ele>2067.0</ele>
        <time>2019-10-12T15:10:31.888Z</time>
      </trkpt>
      <trkpt lat="20.241255" lon="-98.73333333">
        <ele>2068.0</ele>
        <time>2019-10-12T15:10:32.893Z</time>
      </trkpt>
      <trkpt lat="20.24125833" lon="-98.7333">
        <ele>2068.0</ele>
        <time>2019-10-12T15:10:33.899Z</time>
      </trkpt>
      <trkpt lat="20.24126167" lon="-98.73327167">
        <ele>2068.0</ele>
        <time>2019-10-12T15:10:34.905Z</time>
      </trkpt>
      <trkpt lat="20.24126667" lon="-98.73325">
        <ele>2068.0</ele>
        <time>2019-10-12T15:10:35.906Z</time>
      </trkpt>
      <trkpt lat="20.24127667" lon="-98.733225">
        <ele>2067.0</ele>
        <time>2019-10-12T15:10:36.907Z</time>
      </trkpt>
      <trkpt lat="20.24129333" lon="-98.73320333">
        <ele>2068.0</ele>
        <time>2019-10-12T15:10:37.907Z</time>
      </trkpt>
      <trkpt lat="20.24131" lon="-98.73317333">
        <ele>2068.0</ele>
        <time>2019-10-12T15:10:38.908Z</time>
      </trkpt>
      <trkpt lat="20.24132667" lon="-98.73314833">
        <ele>2068.0</ele>
        <time>2019-10-12T15:10:39.909Z</time>
      </trkpt>
      <trkpt lat="20.24135167" lon="-98.733135">
        <ele>2067.0</ele>
        <time>2019-10-12T15:10:40.910Z</time>
      </trkpt>
      <trkpt lat="20.24138167" lon="-98.73312667">
        <ele>2067.0</ele>
        <time>2019-10-12T15:10:41.911Z</time>
      </trkpt>
      <trkpt lat="20.24141" lon="-98.733115">
        <ele>2067.0</ele>
        <time>2019-10-12T15:10:42.911Z</time>
      </trkpt>
      <trkpt lat="20.24143167" lon="-98.73310167">
        <ele>2066.0</ele>
        <time>2019-10-12T15:10:43.913Z</time>
      </trkpt>
      <trkpt lat="20.241455" lon="-98.73308667">
        <ele>2065.0</ele>
        <time>2019-10-12T15:10:44.917Z</time>
      </trkpt>
      <trkpt lat="20.24148167" lon="-98.73307">
        <ele>2065.0</ele>
        <time>2019-10-12T15:10:45.923Z</time>
      </trkpt>
      <trkpt lat="20.24150833" lon="-98.733055">
        <ele>2065.0</ele>
        <time>2019-10-12T15:10:46.925Z</time>
      </trkpt>
      <trkpt lat="20.24153167" lon="-98.73304167">
        <ele>2066.0</ele>
        <time>2019-10-12T15:10:47.931Z</time>
      </trkpt>
      <trkpt lat="20.24155333" lon="-98.733025">
        <ele>2066.0</ele>
        <time>2019-10-12T15:10:48.936Z</time>
      </trkpt>
      <trkpt lat="20.241575" lon="-98.73300833">
        <ele>2066.0</ele>
        <time>2019-10-12T15:10:49.943Z</time>
      </trkpt>
      <trkpt lat="20.2416" lon="-98.732995">
        <ele>2066.0</ele>
        <time>2019-10-12T15:10:50.948Z</time>
      </trkpt>
      <trkpt lat="20.24162333" lon="-98.73297833">
        <ele>2066.0</ele>
        <time>2019-10-12T15:10:51.950Z</time>
      </trkpt>
      <trkpt lat="20.241645" lon="-98.73296167">
        <ele>2065.0</ele>
        <time>2019-10-12T15:10:52.954Z</time>
      </trkpt>
      <trkpt lat="20.24166667" lon="-98.73294333">
        <ele>2065.0</ele>
        <time>2019-10-12T15:10:53.830Z</time>
      </trkpt>
      <trkpt lat="20.24169" lon="-98.73292833">
        <ele>2065.0</ele>
        <time>2019-10-12T15:10:54.836Z</time>
      </trkpt>
      <trkpt lat="20.24171" lon="-98.73291333">
        <ele>2065.0</ele>
        <time>2019-10-12T15:10:55.843Z</time>
      </trkpt>
      <trkpt lat="20.24173" lon="-98.7329">
        <ele>2065.0</ele>
        <time>2019-10-12T15:10:56.848Z</time>
      </trkpt>
      <trkpt lat="20.24174833" lon="-98.73288333">
        <ele>2064.0</ele>
        <time>2019-10-12T15:10:57.854Z</time>
      </trkpt>
      <trkpt lat="20.241765" lon="-98.73286333">
        <ele>2063.0</ele>
        <time>2019-10-12T15:10:58.856Z</time>
      </trkpt>
      <trkpt lat="20.24177833" lon="-98.73284">
        <ele>2063.0</ele>
        <time>2019-10-12T15:10:59.861Z</time>
      </trkpt>
      <trkpt lat="20.24178833" lon="-98.73281667">
        <ele>2062.0</ele>
        <time>2019-10-12T15:11:00.863Z</time>
      </trkpt>
      <trkpt lat="20.24179167" lon="-98.73279">
        <ele>2061.0</ele>
        <time>2019-10-12T15:11:01.864Z</time>
      </trkpt>
      <trkpt lat="20.24179667" lon="-98.73275833">
        <ele>2060.0</ele>
        <time>2019-10-12T15:11:02.865Z</time>
      </trkpt>
      <trkpt lat="20.2418" lon="-98.73272333">
        <ele>2060.0</ele>
        <time>2019-10-12T15:11:03.866Z</time>
      </trkpt>
      <trkpt lat="20.24180333" lon="-98.73268833">
        <ele>2059.0</ele>
        <time>2019-10-12T15:11:04.867Z</time>
      </trkpt>
      <trkpt lat="20.24180333" lon="-98.73265333">
        <ele>2058.0</ele>
        <time>2019-10-12T15:11:05.871Z</time>
      </trkpt>
      <trkpt lat="20.24179833" lon="-98.73261833">
        <ele>2058.0</ele>
        <time>2019-10-12T15:11:06.877Z</time>
      </trkpt>
      <trkpt lat="20.24179333" lon="-98.73258667">
        <ele>2057.0</ele>
        <time>2019-10-12T15:11:07.879Z</time>
      </trkpt>
      <trkpt lat="20.24178833" lon="-98.73255667">
        <ele>2056.0</ele>
        <time>2019-10-12T15:11:08.885Z</time>
      </trkpt>
      <trkpt lat="20.24178333" lon="-98.73252833">
        <ele>2055.0</ele>
        <time>2019-10-12T15:11:09.886Z</time>
      </trkpt>
      <trkpt lat="20.24178333" lon="-98.73250167">
        <ele>2054.0</ele>
        <time>2019-10-12T15:11:10.887Z</time>
      </trkpt>
      <trkpt lat="20.24179" lon="-98.732475">
        <ele>2054.0</ele>
        <time>2019-10-12T15:11:11.893Z</time>
      </trkpt>
      <trkpt lat="20.24179667" lon="-98.73244833">
        <ele>2053.0</ele>
        <time>2019-10-12T15:11:12.898Z</time>
      </trkpt>
      <trkpt lat="20.24180833" lon="-98.732435">
        <ele>2052.0</ele>
        <time>2019-10-12T15:11:13.903Z</time>
      </trkpt>
      <trkpt lat="20.241825" lon="-98.73243667">
        <ele>2051.0</ele>
        <time>2019-10-12T15:11:14.909Z</time>
      </trkpt>
      <trkpt lat="20.24184167" lon="-98.73244667">
        <ele>2052.0</ele>
        <time>2019-10-12T15:11:15.913Z</time>
      </trkpt>
      <trkpt lat="20.24185833" lon="-98.73245833">
        <ele>2052.0</ele>
        <time>2019-10-12T15:11:16.915Z</time>
      </trkpt>
      <trkpt lat="20.24187333" lon="-98.732475">
        <ele>2052.0</ele>
        <time>2019-10-12T15:11:17.917Z</time>
      </trkpt>
      <trkpt lat="20.24188833" lon="-98.73249333">
        <ele>2052.0</ele>
        <time>2019-10-12T15:11:18.925Z</time>
      </trkpt>
      <trkpt lat="20.24190333" lon="-98.73251667">
        <ele>2052.0</ele>
        <time>2019-10-12T15:11:19.931Z</time>
      </trkpt>
      <trkpt lat="20.24192" lon="-98.73254167">
        <ele>2052.0</ele>
        <time>2019-10-12T15:11:20.937Z</time>
      </trkpt>
      <trkpt lat="20.24193667" lon="-98.73256167">
        <ele>2052.0</ele>
        <time>2019-10-12T15:11:21.943Z</time>
      </trkpt>
      <trkpt lat="20.241955" lon="-98.73258833">
        <ele>2052.0</ele>
        <time>2019-10-12T15:11:22.943Z</time>
      </trkpt>
      <trkpt lat="20.24197" lon="-98.73261167">
        <ele>2052.0</ele>
        <time>2019-10-12T15:11:23.944Z</time>
      </trkpt>
      <trkpt lat="20.24198" lon="-98.73262667">
        <ele>2052.0</ele>
        <time>2019-10-12T15:11:24.948Z</time>
      </trkpt>
      <trkpt lat="20.24199167" lon="-98.73264167">
        <ele>2051.0</ele>
        <time>2019-10-12T15:11:25.830Z</time>
      </trkpt>
      <trkpt lat="20.24200667" lon="-98.73265667">
        <ele>2051.0</ele>
        <time>2019-10-12T15:11:26.836Z</time>
      </trkpt>
      <trkpt lat="20.242025" lon="-98.73268">
        <ele>2051.0</ele>
        <time>2019-10-12T15:11:27.842Z</time>
      </trkpt>
      <trkpt lat="20.242035" lon="-98.73271">
        <ele>2052.0</ele>
        <time>2019-10-12T15:11:28.848Z</time>
      </trkpt>
      <trkpt lat="20.24204667" lon="-98.73273333">
        <ele>2052.0</ele>
        <time>2019-10-12T15:11:29.852Z</time>
      </trkpt>
      <trkpt lat="20.24205667" lon="-98.73275833">
        <ele>2053.0</ele>
        <time>2019-10-12T15:11:30.857Z</time>
      </trkpt>
      <trkpt lat="20.24207" lon="-98.73278">
        <ele>2055.0</ele>
        <time>2019-10-12T15:11:31.859Z</time>
      </trkpt>
      <trkpt lat="20.242085" lon="-98.732795">
        <ele>2055.0</ele>
        <time>2019-10-12T15:11:32.861Z</time>
      </trkpt>
      <trkpt lat="20.24209833" lon="-98.73280833">
        <ele>2056.0</ele>
        <time>2019-10-12T15:11:33.866Z</time>
      </trkpt>
      <trkpt lat="20.24210833" lon="-98.73283167">
        <ele>2057.0</ele>
        <time>2019-10-12T15:11:34.872Z</time>
      </trkpt>
      <trkpt lat="20.24211667" lon="-98.73285833">
        <ele>2058.0</ele>
        <time>2019-10-12T15:11:35.879Z</time>
      </trkpt>
      <trkpt lat="20.24212833" lon="-98.73288">
        <ele>2059.0</ele>
        <time>2019-10-12T15:11:36.885Z</time>
      </trkpt>
      <trkpt lat="20.24213667" lon="-98.73289833">
        <ele>2058.0</ele>
        <time>2019-10-12T15:11:37.888Z</time>
      </trkpt>
      <trkpt lat="20.24214667" lon="-98.73292">
        <ele>2059.0</ele>
        <time>2019-10-12T15:11:38.891Z</time>
      </trkpt>
      <trkpt lat="20.24215833" lon="-98.73293833">
        <ele>2058.0</ele>
        <time>2019-10-12T15:11:39.892Z</time>
      </trkpt>
      <trkpt lat="20.24217333" lon="-98.73295333">
        <ele>2058.0</ele>
        <time>2019-10-12T15:11:40.892Z</time>
      </trkpt>
      <trkpt lat="20.24219" lon="-98.73296833">
        <ele>2058.0</ele>
        <time>2019-10-12T15:11:41.894Z</time>
      </trkpt>
      <trkpt lat="20.24220167" lon="-98.73298833">
        <ele>2059.0</ele>
        <time>2019-10-12T15:11:42.897Z</time>
      </trkpt>
      <trkpt lat="20.24221333" lon="-98.73300833">
        <ele>2060.0</ele>
        <time>2019-10-12T15:11:43.903Z</time>
      </trkpt>
      <trkpt lat="20.242225" lon="-98.73302833">
        <ele>2061.0</ele>
        <time>2019-10-12T15:11:44.909Z</time>
      </trkpt>
      <trkpt lat="20.24223667" lon="-98.73305">
        <ele>2061.0</ele>
        <time>2019-10-12T15:11:45.912Z</time>
      </trkpt>
      <trkpt lat="20.24225" lon="-98.73306667">
        <ele>2061.0</ele>
        <time>2019-10-12T15:11:46.916Z</time>
      </trkpt>
      <trkpt lat="20.24226333" lon="-98.73308667">
        <ele>2061.0</ele>
        <time>2019-10-12T15:11:47.922Z</time>
      </trkpt>
      <trkpt lat="20.24227833" lon="-98.73310333">
        <ele>2061.0</ele>
        <time>2019-10-12T15:11:48.930Z</time>
      </trkpt>
      <trkpt lat="20.24229333" lon="-98.73312">
        <ele>2061.0</ele>
        <time>2019-10-12T15:11:49.936Z</time>
      </trkpt>
      <trkpt lat="20.24230833" lon="-98.733135">
        <ele>2061.0</ele>
        <time>2019-10-12T15:11:50.942Z</time>
      </trkpt>
      <trkpt lat="20.242325" lon="-98.73314833">
        <ele>2061.0</ele>
        <time>2019-10-12T15:11:51.948Z</time>
      </trkpt>
      <trkpt lat="20.24234" lon="-98.73316333">
        <ele>2061.0</ele>
        <time>2019-10-12T15:11:52.950Z</time>
      </trkpt>
      <trkpt lat="20.24235667" lon="-98.73318">
        <ele>2060.0</ele>
        <time>2019-10-12T15:11:53.830Z</time>
      </trkpt>
      <trkpt lat="20.242375" lon="-98.73319333">
        <ele>2060.0</ele>
        <time>2019-10-12T15:11:54.837Z</time>
      </trkpt>
      <trkpt lat="20.242395" lon="-98.73320667">
        <ele>2060.0</ele>
        <time>2019-10-12T15:11:55.841Z</time>
      </trkpt>
      <trkpt lat="20.24241333" lon="-98.73322">
        <ele>2059.0</ele>
        <time>2019-10-12T15:11:56.842Z</time>
      </trkpt>
      <trkpt lat="20.24243" lon="-98.733235">
        <ele>2059.0</ele>
        <time>2019-10-12T15:11:57.842Z</time>
      </trkpt>
      <trkpt lat="20.24244667" lon="-98.73325">
        <ele>2059.0</ele>
        <time>2019-10-12T15:11:58.843Z</time>
      </trkpt>
      <trkpt lat="20.242465" lon="-98.73326667">
        <ele>2059.0</ele>
        <time>2019-10-12T15:11:59.847Z</time>
      </trkpt>
      <trkpt lat="20.242485" lon="-98.733285">
        <ele>2059.0</ele>
        <time>2019-10-12T15:12:00.854Z</time>
      </trkpt>
      <trkpt lat="20.24250333" lon="-98.7333">
        <ele>2060.0</ele>
        <time>2019-10-12T15:12:01.858Z</time>
      </trkpt>
      <trkpt lat="20.24252333" lon="-98.73331167">
        <ele>2060.0</ele>
        <time>2019-10-12T15:12:02.864Z</time>
      </trkpt>
      <trkpt lat="20.24254333" lon="-98.733325">
        <ele>2061.0</ele>
        <time>2019-10-12T15:12:03.868Z</time>
      </trkpt>
      <trkpt lat="20.24256667" lon="-98.73333333">
        <ele>2061.0</ele>
        <time>2019-10-12T15:12:04.871Z</time>
      </trkpt>
      <trkpt lat="20.242585" lon="-98.73334833">
        <ele>2062.0</ele>
        <time>2019-10-12T15:12:05.878Z</time>
      </trkpt>
      <trkpt lat="20.24260833" lon="-98.73335833">
        <ele>2063.0</ele>
        <time>2019-10-12T15:12:06.884Z</time>
      </trkpt>
      <trkpt lat="20.24263333" lon="-98.73336333">
        <ele>2063.0</ele>
        <time>2019-10-12T15:12:07.886Z</time>
      </trkpt>
      <trkpt lat="20.24265667" lon="-98.733365">
        <ele>2063.0</ele>
        <time>2019-10-12T15:12:08.890Z</time>
      </trkpt>
      <trkpt lat="20.24268167" lon="-98.73337">
        <ele>2063.0</ele>
        <time>2019-10-12T15:12:09.897Z</time>
      </trkpt>
      <trkpt lat="20.24270833" lon="-98.73337167">
        <ele>2063.0</ele>
        <time>2019-10-12T15:12:10.903Z</time>
      </trkpt>
      <trkpt lat="20.24273667" lon="-98.73336667">
        <ele>2064.0</ele>
        <time>2019-10-12T15:12:11.910Z</time>
      </trkpt>
      <trkpt lat="20.24275833" lon="-98.73335333">
        <ele>2064.0</ele>
        <time>2019-10-12T15:12:12.914Z</time>
      </trkpt>
      <trkpt lat="20.24277167" lon="-98.73333333">
        <ele>2065.0</ele>
        <time>2019-10-12T15:12:13.917Z</time>
      </trkpt>
      <trkpt lat="20.24278167" lon="-98.73331">
        <ele>2066.0</ele>
        <time>2019-10-12T15:12:14.918Z</time>
      </trkpt>
      <trkpt lat="20.24278833" lon="-98.733285">
        <ele>2066.0</ele>
        <time>2019-10-12T15:12:15.921Z</time>
      </trkpt>
      <trkpt lat="20.24279667" lon="-98.73325667">
        <ele>2066.0</ele>
        <time>2019-10-12T15:12:16.923Z</time>
      </trkpt>
      <trkpt lat="20.242805" lon="-98.73322667">
        <ele>2067.0</ele>
        <time>2019-10-12T15:12:17.930Z</time>
      </trkpt>
      <trkpt lat="20.24281333" lon="-98.7332">
        <ele>2067.0</ele>
        <time>2019-10-12T15:12:18.936Z</time>
      </trkpt>
      <trkpt lat="20.24282" lon="-98.733175">
        <ele>2067.0</ele>
        <time>2019-10-12T15:12:19.941Z</time>
      </trkpt>
      <trkpt lat="20.24282667" lon="-98.73315167">
        <ele>2068.0</ele>
        <time>2019-10-12T15:12:20.946Z</time>
      </trkpt>
      <trkpt lat="20.242835" lon="-98.733125">
        <ele>2069.0</ele>
        <time>2019-10-12T15:12:21.952Z</time>
      </trkpt>
      <trkpt lat="20.24284333" lon="-98.73310167">
        <ele>2069.0</ele>
        <time>2019-10-12T15:12:22.832Z</time>
      </trkpt>
      <trkpt lat="20.242855" lon="-98.73308">
        <ele>2070.0</ele>
        <time>2019-10-12T15:12:23.835Z</time>
      </trkpt>
      <trkpt lat="20.242865" lon="-98.733055">
        <ele>2071.0</ele>
        <time>2019-10-12T15:12:24.841Z</time>
      </trkpt>
      <trkpt lat="20.24287667" lon="-98.73303833">
        <ele>2072.0</ele>
        <time>2019-10-12T15:12:25.847Z</time>
      </trkpt>
      <trkpt lat="20.24289" lon="-98.73301333">
        <ele>2072.0</ele>
        <time>2019-10-12T15:12:26.848Z</time>
      </trkpt>
      <trkpt lat="20.24289833" lon="-98.73299667">
        <ele>2073.0</ele>
        <time>2019-10-12T15:12:27.853Z</time>
      </trkpt>
      <trkpt lat="20.24291" lon="-98.73297833">
        <ele>2073.0</ele>
        <time>2019-10-12T15:12:28.855Z</time>
      </trkpt>
      <trkpt lat="20.24292333" lon="-98.73296">
        <ele>2074.0</ele>
        <time>2019-10-12T15:12:29.861Z</time>
      </trkpt>
      <trkpt lat="20.242935" lon="-98.73293833">
        <ele>2074.0</ele>
        <time>2019-10-12T15:12:30.867Z</time>
      </trkpt>
      <trkpt lat="20.24294667" lon="-98.73292">
        <ele>2075.0</ele>
        <time>2019-10-12T15:12:31.867Z</time>
      </trkpt>
      <trkpt lat="20.24295667" lon="-98.73289833">
        <ele>2076.0</ele>
        <time>2019-10-12T15:12:32.868Z</time>
      </trkpt>
      <trkpt lat="20.24296833" lon="-98.73288">
        <ele>2077.0</ele>
        <time>2019-10-12T15:12:33.869Z</time>
      </trkpt>
      <trkpt lat="20.24298167" lon="-98.73286167">
        <ele>2077.0</ele>
        <time>2019-10-12T15:12:34.869Z</time>
      </trkpt>
      <trkpt lat="20.24299167" lon="-98.732845">
        <ele>2077.0</ele>
        <time>2019-10-12T15:12:35.870Z</time>
      </trkpt>
      <trkpt lat="20.243" lon="-98.732835">
        <ele>2077.0</ele>
        <time>2019-10-12T15:12:36.870Z</time>
      </trkpt>
      <trkpt lat="20.243015" lon="-98.73282">
        <ele>2078.0</ele>
        <time>2019-10-12T15:12:37.871Z</time>
      </trkpt>
      <trkpt lat="20.24303167" lon="-98.73280833">
        <ele>2078.0</ele>
        <time>2019-10-12T15:12:38.871Z</time>
      </trkpt>
      <trkpt lat="20.24304833" lon="-98.73279333">
        <ele>2078.0</ele>
        <time>2019-10-12T15:12:39.872Z</time>
      </trkpt>
      <trkpt lat="20.243065" lon="-98.73278">
        <ele>2077.0</ele>
        <time>2019-10-12T15:12:40.877Z</time>
      </trkpt>
      <trkpt lat="20.243085" lon="-98.73276833">
        <ele>2077.0</ele>
        <time>2019-10-12T15:12:41.882Z</time>
      </trkpt>
      <trkpt lat="20.24310667" lon="-98.73275667">
        <ele>2076.0</ele>
        <time>2019-10-12T15:12:42.884Z</time>
      </trkpt>
      <trkpt lat="20.24312833" lon="-98.73274833">
        <ele>2076.0</ele>
        <time>2019-10-12T15:12:43.888Z</time>
      </trkpt>
      <trkpt lat="20.243155" lon="-98.73273667">
        <ele>2076.0</ele>
        <time>2019-10-12T15:12:44.895Z</time>
      </trkpt>
      <trkpt lat="20.24318" lon="-98.73272333">
        <ele>2076.0</ele>
        <time>2019-10-12T15:12:45.896Z</time>
      </trkpt>
      <trkpt lat="20.24320167" lon="-98.73271">
        <ele>2075.0</ele>
        <time>2019-10-12T15:12:46.898Z</time>
      </trkpt>
      <trkpt lat="20.243225" lon="-98.73269667">
        <ele>2075.0</ele>
        <time>2019-10-12T15:12:47.905Z</time>
      </trkpt>
      <trkpt lat="20.24325" lon="-98.732685">
        <ele>2074.0</ele>
        <time>2019-10-12T15:12:48.911Z</time>
      </trkpt>
      <trkpt lat="20.24327333" lon="-98.732675">
        <ele>2073.0</ele>
        <time>2019-10-12T15:12:49.915Z</time>
      </trkpt>
      <trkpt lat="20.24329833" lon="-98.73266667">
        <ele>2072.0</ele>
        <time>2019-10-12T15:12:50.921Z</time>
      </trkpt>
      <trkpt lat="20.243325" lon="-98.73265833">
        <ele>2071.0</ele>
        <time>2019-10-12T15:12:51.924Z</time>
      </trkpt>
      <trkpt lat="20.24335" lon="-98.73265167">
        <ele>2070.0</ele>
        <time>2019-10-12T15:12:52.930Z</time>
      </trkpt>
      <trkpt lat="20.24337667" lon="-98.73264667">
        <ele>2069.0</ele>
        <time>2019-10-12T15:12:53.937Z</time>
      </trkpt>
      <trkpt lat="20.24340333" lon="-98.732645">
        <ele>2068.0</ele>
        <time>2019-10-12T15:12:54.943Z</time>
      </trkpt>
      <trkpt lat="20.24343167" lon="-98.73263833">
        <ele>2068.0</ele>
        <time>2019-10-12T15:12:55.944Z</time>
      </trkpt>
      <trkpt lat="20.24345667" lon="-98.73263">
        <ele>2067.0</ele>
        <time>2019-10-12T15:12:56.944Z</time>
      </trkpt>
      <trkpt lat="20.24348" lon="-98.73262">
        <ele>2067.0</ele>
        <time>2019-10-12T15:12:57.946Z</time>
      </trkpt>
      <trkpt lat="20.24350333" lon="-98.73261">
        <ele>2067.0</ele>
        <time>2019-10-12T15:12:58.950Z</time>
      </trkpt>
      <trkpt lat="20.24352333" lon="-98.73260167">
        <ele>2066.0</ele>
        <time>2019-10-12T15:12:59.830Z</time>
      </trkpt>
      <trkpt lat="20.24355" lon="-98.732595">
        <ele>2066.0</ele>
        <time>2019-10-12T15:13:00.838Z</time>
      </trkpt>
      <trkpt lat="20.24358333" lon="-98.73259">
        <ele>2067.0</ele>
        <time>2019-10-12T15:13:01.844Z</time>
      </trkpt>
      <trkpt lat="20.24361333" lon="-98.73258667">
        <ele>2067.0</ele>
        <time>2019-10-12T15:13:02.851Z</time>
      </trkpt>
      <trkpt lat="20.24364667" lon="-98.73257833">
        <ele>2068.0</ele>
        <time>2019-10-12T15:13:03.859Z</time>
      </trkpt>
      <trkpt lat="20.24367667" lon="-98.73256333">
        <ele>2067.0</ele>
        <time>2019-10-12T15:13:04.865Z</time>
      </trkpt>
      <trkpt lat="20.243705" lon="-98.73255">
        <ele>2066.0</ele>
        <time>2019-10-12T15:13:05.871Z</time>
      </trkpt>
      <trkpt lat="20.24372667" lon="-98.73254">
        <ele>2065.0</ele>
        <time>2019-10-12T15:13:06.874Z</time>
      </trkpt>
      <trkpt lat="20.24374833" lon="-98.73253667">
        <ele>2064.0</ele>
        <time>2019-10-12T15:13:07.881Z</time>
      </trkpt>
      <trkpt lat="20.24377667" lon="-98.73252833">
        <ele>2064.0</ele>
        <time>2019-10-12T15:13:08.887Z</time>
      </trkpt>
      <trkpt lat="20.24380167" lon="-98.73251167">
        <ele>2065.0</ele>
        <time>2019-10-12T15:13:09.890Z</time>
      </trkpt>
      <trkpt lat="20.243825" lon="-98.73250167">
        <ele>2065.0</ele>
        <time>2019-10-12T15:13:10.892Z</time>
      </trkpt>
      <trkpt lat="20.24385167" lon="-98.73249">
        <ele>2066.0</ele>
        <time>2019-10-12T15:13:11.892Z</time>
      </trkpt>
      <trkpt lat="20.24387833" lon="-98.732485">
        <ele>2066.0</ele>
        <time>2019-10-12T15:13:12.893Z</time>
      </trkpt>
      <trkpt lat="20.24390833" lon="-98.73248167">
        <ele>2066.0</ele>
        <time>2019-10-12T15:13:13.893Z</time>
      </trkpt>
      <trkpt lat="20.243935" lon="-98.73247">
        <ele>2067.0</ele>
        <time>2019-10-12T15:13:14.894Z</time>
      </trkpt>
      <trkpt lat="20.24395333" lon="-98.73246667">
        <ele>2067.0</ele>
        <time>2019-10-12T15:13:15.895Z</time>
      </trkpt>
      <trkpt lat="20.24396667" lon="-98.73246833">
        <ele>2067.0</ele>
        <time>2019-10-12T15:13:16.895Z</time>
      </trkpt>
      <trkpt lat="20.24398167" lon="-98.73247833">
        <ele>2067.0</ele>
        <time>2019-10-12T15:13:17.896Z</time>
      </trkpt>
      <trkpt lat="20.244" lon="-98.73249">
        <ele>2066.0</ele>
        <time>2019-10-12T15:13:18.897Z</time>
      </trkpt>
      <trkpt lat="20.24402" lon="-98.7325">
        <ele>2065.0</ele>
        <time>2019-10-12T15:13:19.898Z</time>
      </trkpt>
      <trkpt lat="20.24404" lon="-98.73251167">
        <ele>2064.0</ele>
        <time>2019-10-12T15:13:20.898Z</time>
      </trkpt>
      <trkpt lat="20.244065" lon="-98.73251667">
        <ele>2064.0</ele>
        <time>2019-10-12T15:13:21.899Z</time>
      </trkpt>
      <trkpt lat="20.244095" lon="-98.73251333">
        <ele>2062.0</ele>
        <time>2019-10-12T15:13:22.905Z</time>
      </trkpt>
      <trkpt lat="20.24412167" lon="-98.73251">
        <ele>2062.0</ele>
        <time>2019-10-12T15:13:23.911Z</time>
      </trkpt>
      <trkpt lat="20.24415167" lon="-98.73251333">
        <ele>2061.0</ele>
        <time>2019-10-12T15:13:24.916Z</time>
      </trkpt>
      <trkpt lat="20.24417333" lon="-98.73251667">
        <ele>2060.0</ele>
        <time>2019-10-12T15:13:25.922Z</time>
      </trkpt>
      <trkpt lat="20.2442" lon="-98.73251667">
        <ele>2059.0</ele>
        <time>2019-10-12T15:13:26.927Z</time>
      </trkpt>
      <trkpt lat="20.244225" lon="-98.73250667">
        <ele>2059.0</ele>
        <time>2019-10-12T15:13:27.933Z</time>
      </trkpt>
      <trkpt lat="20.24425333" lon="-98.73249333">
        <ele>2059.0</ele>
        <time>2019-10-12T15:13:28.939Z</time>
      </trkpt>
      <trkpt lat="20.24428" lon="-98.73249">
        <ele>2058.0</ele>
        <time>2019-10-12T15:13:29.941Z</time>
      </trkpt>
      <trkpt lat="20.24431" lon="-98.73248833">
        <ele>2057.0</ele>
        <time>2019-10-12T15:13:30.943Z</time>
      </trkpt>
      <trkpt lat="20.24434167" lon="-98.73248667">
        <ele>2058.0</ele>
        <time>2019-10-12T15:13:31.949Z</time>
      </trkpt>
      <trkpt lat="20.24436667" lon="-98.73249">
        <ele>2058.0</ele>
        <time>2019-10-12T15:13:32.953Z</time>
      </trkpt>
      <trkpt lat="20.24439333" lon="-98.73248333">
        <ele>2057.0</ele>
        <time>2019-10-12T15:13:33.835Z</time>
      </trkpt>
      <trkpt lat="20.24442333" lon="-98.73247667">
        <ele>2057.0</ele>
        <time>2019-10-12T15:13:34.839Z</time>
      </trkpt>
      <trkpt lat="20.24444833" lon="-98.73246167">
        <ele>2057.0</ele>
        <time>2019-10-12T15:13:35.842Z</time>
      </trkpt>
      <trkpt lat="20.24447167" lon="-98.73245667">
        <ele>2058.0</ele>
        <time>2019-10-12T15:13:36.846Z</time>
      </trkpt>
      <trkpt lat="20.24449167" lon="-98.73245667">
        <ele>2059.0</ele>
        <time>2019-10-12T15:13:37.847Z</time>
      </trkpt>
      <trkpt lat="20.24451333" lon="-98.73245833">
        <ele>2059.0</ele>
        <time>2019-10-12T15:13:38.847Z</time>
      </trkpt>
      <trkpt lat="20.24454333" lon="-98.73245333">
        <ele>2057.0</ele>
        <time>2019-10-12T15:13:39.848Z</time>
      </trkpt>
      <trkpt lat="20.24457" lon="-98.732445">
        <ele>2057.0</ele>
        <time>2019-10-12T15:13:40.849Z</time>
      </trkpt>
      <trkpt lat="20.24459333" lon="-98.73243333">
        <ele>2056.0</ele>
        <time>2019-10-12T15:13:41.850Z</time>
      </trkpt>
      <trkpt lat="20.24461833" lon="-98.73242">
        <ele>2054.0</ele>
        <time>2019-10-12T15:13:42.851Z</time>
      </trkpt>
      <trkpt lat="20.24464333" lon="-98.73240833">
        <ele>2053.0</ele>
        <time>2019-10-12T15:13:43.851Z</time>
      </trkpt>
      <trkpt lat="20.24466833" lon="-98.73239333">
        <ele>2052.0</ele>
        <time>2019-10-12T15:13:44.852Z</time>
      </trkpt>
      <trkpt lat="20.24468833" lon="-98.73237833">
        <ele>2051.0</ele>
        <time>2019-10-12T15:13:45.853Z</time>
      </trkpt>
      <trkpt lat="20.24470833" lon="-98.73235833">
        <ele>2050.0</ele>
        <time>2019-10-12T15:13:46.854Z</time>
      </trkpt>
      <trkpt lat="20.24472667" lon="-98.73234">
        <ele>2050.0</ele>
        <time>2019-10-12T15:13:47.855Z</time>
      </trkpt>
      <trkpt lat="20.24474167" lon="-98.732315">
        <ele>2050.0</ele>
        <time>2019-10-12T15:13:48.855Z</time>
      </trkpt>
      <trkpt lat="20.24476" lon="-98.73229">
        <ele>2049.0</ele>
        <time>2019-10-12T15:13:49.856Z</time>
      </trkpt>
      <trkpt lat="20.24478333" lon="-98.73226833">
        <ele>2049.0</ele>
        <time>2019-10-12T15:13:50.856Z</time>
      </trkpt>
      <trkpt lat="20.24480667" lon="-98.732255">
        <ele>2048.0</ele>
        <time>2019-10-12T15:13:51.857Z</time>
      </trkpt>
      <trkpt lat="20.24482333" lon="-98.73225">
        <ele>2047.0</ele>
        <time>2019-10-12T15:13:52.858Z</time>
      </trkpt>
      <trkpt lat="20.24484167" lon="-98.73225">
        <ele>2047.0</ele>
        <time>2019-10-12T15:13:53.859Z</time>
      </trkpt>
      <trkpt lat="20.24486167" lon="-98.73226167">
        <ele>2047.0</ele>
        <time>2019-10-12T15:13:54.860Z</time>
      </trkpt>
      <trkpt lat="20.24488167" lon="-98.73227833">
        <ele>2048.0</ele>
        <time>2019-10-12T15:13:55.860Z</time>
      </trkpt>
      <trkpt lat="20.24490167" lon="-98.73230167">
        <ele>2048.0</ele>
        <time>2019-10-12T15:13:56.861Z</time>
      </trkpt>
      <trkpt lat="20.24492333" lon="-98.73232167">
        <ele>2049.0</ele>
        <time>2019-10-12T15:13:57.862Z</time>
      </trkpt>
      <trkpt lat="20.24494833" lon="-98.73234333">
        <ele>2049.0</ele>
        <time>2019-10-12T15:13:58.863Z</time>
      </trkpt>
      <trkpt lat="20.244975" lon="-98.73236667">
        <ele>2050.0</ele>
        <time>2019-10-12T15:13:59.863Z</time>
      </trkpt>
      <trkpt lat="20.245" lon="-98.732385">
        <ele>2051.0</ele>
        <time>2019-10-12T15:14:00.864Z</time>
      </trkpt>
      <trkpt lat="20.24502333" lon="-98.73240333">
        <ele>2051.0</ele>
        <time>2019-10-12T15:14:01.866Z</time>
      </trkpt>
      <trkpt lat="20.24504833" lon="-98.73241333">
        <ele>2051.0</ele>
        <time>2019-10-12T15:14:02.871Z</time>
      </trkpt>
      <trkpt lat="20.245075" lon="-98.73242167">
        <ele>2051.0</ele>
        <time>2019-10-12T15:14:03.878Z</time>
      </trkpt>
      <trkpt lat="20.2451" lon="-98.732435">
        <ele>2051.0</ele>
        <time>2019-10-12T15:14:04.884Z</time>
      </trkpt>
      <trkpt lat="20.24512833" lon="-98.73244667">
        <ele>2050.0</ele>
        <time>2019-10-12T15:14:05.889Z</time>
      </trkpt>
      <trkpt lat="20.24515667" lon="-98.732455">
        <ele>2050.0</ele>
        <time>2019-10-12T15:14:06.893Z</time>
      </trkpt>
      <trkpt lat="20.24518667" lon="-98.73245833">
        <ele>2049.0</ele>
        <time>2019-10-12T15:14:07.899Z</time>
      </trkpt>
      <trkpt lat="20.24521833" lon="-98.73246333">
        <ele>2048.0</ele>
        <time>2019-10-12T15:14:08.901Z</time>
      </trkpt>
      <trkpt lat="20.24525333" lon="-98.73247333">
        <ele>2049.0</ele>
        <time>2019-10-12T15:14:09.905Z</time>
      </trkpt>
      <trkpt lat="20.24528167" lon="-98.73247833">
        <ele>2048.0</ele>
        <time>2019-10-12T15:14:10.912Z</time>
      </trkpt>
      <trkpt lat="20.24530833" lon="-98.73249167">
        <ele>2047.0</ele>
        <time>2019-10-12T15:14:11.919Z</time>
      </trkpt>
      <trkpt lat="20.24532833" lon="-98.73250667">
        <ele>2047.0</ele>
        <time>2019-10-12T15:14:12.921Z</time>
      </trkpt>
      <trkpt lat="20.245345" lon="-98.73253167">
        <ele>2045.0</ele>
        <time>2019-10-12T15:14:13.928Z</time>
      </trkpt>
      <trkpt lat="20.24536833" lon="-98.73256333">
        <ele>2045.0</ele>
        <time>2019-10-12T15:14:14.934Z</time>
      </trkpt>
      <trkpt lat="20.24539167" lon="-98.73258833">
        <ele>2045.0</ele>
        <time>2019-10-12T15:14:15.936Z</time>
      </trkpt>
      <trkpt lat="20.24541333" lon="-98.73261">
        <ele>2045.0</ele>
        <time>2019-10-12T15:14:16.942Z</time>
      </trkpt>
      <trkpt lat="20.24544167" lon="-98.73263833">
        <ele>2044.0</ele>
        <time>2019-10-12T15:14:17.949Z</time>
      </trkpt>
      <trkpt lat="20.24546833" lon="-98.73266">
        <ele>2043.0</ele>
        <time>2019-10-12T15:14:18.830Z</time>
      </trkpt>
      <trkpt lat="20.24549167" lon="-98.73268333">
        <ele>2042.0</ele>
        <time>2019-10-12T15:14:19.834Z</time>
      </trkpt>
      <trkpt lat="20.24552167" lon="-98.73270667">
        <ele>2041.0</ele>
        <time>2019-10-12T15:14:20.839Z</time>
      </trkpt>
      <trkpt lat="20.24554833" lon="-98.732725">
        <ele>2041.0</ele>
        <time>2019-10-12T15:14:21.845Z</time>
      </trkpt>
      <trkpt lat="20.24557833" lon="-98.73273833">
        <ele>2040.0</ele>
        <time>2019-10-12T15:14:22.847Z</time>
      </trkpt>
      <trkpt lat="20.24560833" lon="-98.73274167">
        <ele>2040.0</ele>
        <time>2019-10-12T15:14:23.853Z</time>
      </trkpt>
      <trkpt lat="20.24563833" lon="-98.73274667">
        <ele>2041.0</ele>
        <time>2019-10-12T15:14:24.860Z</time>
      </trkpt>
      <trkpt lat="20.24566" lon="-98.732755">
        <ele>2040.0</ele>
        <time>2019-10-12T15:14:25.866Z</time>
      </trkpt>
      <trkpt lat="20.24569" lon="-98.73276833">
        <ele>2040.0</ele>
        <time>2019-10-12T15:14:26.871Z</time>
      </trkpt>
      <trkpt lat="20.24571667" lon="-98.732775">
        <ele>2040.0</ele>
        <time>2019-10-12T15:14:27.878Z</time>
      </trkpt>
      <trkpt lat="20.245745" lon="-98.73278667">
        <ele>2041.0</ele>
        <time>2019-10-12T15:14:28.882Z</time>
      </trkpt>
      <trkpt lat="20.24577167" lon="-98.73280167">
        <ele>2041.0</ele>
        <time>2019-10-12T15:14:29.883Z</time>
      </trkpt>
      <trkpt lat="20.24579" lon="-98.73281667">
        <ele>2041.0</ele>
        <time>2019-10-12T15:14:30.884Z</time>
      </trkpt>
      <trkpt lat="20.24581167" lon="-98.73283833">
        <ele>2041.0</ele>
        <time>2019-10-12T15:14:31.890Z</time>
      </trkpt>
      <trkpt lat="20.24583667" lon="-98.73285167">
        <ele>2041.0</ele>
        <time>2019-10-12T15:14:32.898Z</time>
      </trkpt>
      <trkpt lat="20.24586" lon="-98.73286333">
        <ele>2041.0</ele>
        <time>2019-10-12T15:14:33.902Z</time>
      </trkpt>
      <trkpt lat="20.24588167" lon="-98.73287667">
        <ele>2041.0</ele>
        <time>2019-10-12T15:14:34.906Z</time>
      </trkpt>
      <trkpt lat="20.24590333" lon="-98.73288833">
        <ele>2041.0</ele>
        <time>2019-10-12T15:14:35.910Z</time>
      </trkpt>
      <trkpt lat="20.24591833" lon="-98.73290667">
        <ele>2040.0</ele>
        <time>2019-10-12T15:14:36.917Z</time>
      </trkpt>
      <trkpt lat="20.24593833" lon="-98.732925">
        <ele>2039.0</ele>
        <time>2019-10-12T15:14:37.920Z</time>
      </trkpt>
      <trkpt lat="20.245955" lon="-98.73293833">
        <ele>2038.0</ele>
        <time>2019-10-12T15:14:38.926Z</time>
      </trkpt>
      <trkpt lat="20.24598" lon="-98.73295">
        <ele>2037.0</ele>
        <time>2019-10-12T15:14:39.931Z</time>
      </trkpt>
      <trkpt lat="20.24600667" lon="-98.73296">
        <ele>2035.0</ele>
        <time>2019-10-12T15:14:40.937Z</time>
      </trkpt>
      <trkpt lat="20.246025" lon="-98.732965">
        <ele>2035.0</ele>
        <time>2019-10-12T15:14:41.943Z</time>
      </trkpt>
      <trkpt lat="20.246045" lon="-98.73296667">
        <ele>2035.0</ele>
        <time>2019-10-12T15:14:42.948Z</time>
      </trkpt>
      <trkpt lat="20.24606167" lon="-98.73297333">
        <ele>2035.0</ele>
        <time>2019-10-12T15:14:43.955Z</time>
      </trkpt>
      <trkpt lat="20.24608667" lon="-98.73298833">
        <ele>2034.0</ele>
        <time>2019-10-12T15:14:44.832Z</time>
      </trkpt>
      <trkpt lat="20.24610667" lon="-98.733">
        <ele>2034.0</ele>
        <time>2019-10-12T15:14:45.833Z</time>
      </trkpt>
      <trkpt lat="20.246135" lon="-98.73301">
        <ele>2033.0</ele>
        <time>2019-10-12T15:14:46.834Z</time>
      </trkpt>
      <trkpt lat="20.24615833" lon="-98.73301333">
        <ele>2032.0</ele>
        <time>2019-10-12T15:14:47.835Z</time>
      </trkpt>
      <trkpt lat="20.24618333" lon="-98.73301333">
        <ele>2032.0</ele>
        <time>2019-10-12T15:14:48.835Z</time>
      </trkpt>
      <trkpt lat="20.24621167" lon="-98.73300667">
        <ele>2032.0</ele>
        <time>2019-10-12T15:14:49.836Z</time>
      </trkpt>
      <trkpt lat="20.246235" lon="-98.73299833">
        <ele>2032.0</ele>
        <time>2019-10-12T15:14:50.837Z</time>
      </trkpt>
      <trkpt lat="20.24625667" lon="-98.73299667">
        <ele>2033.0</ele>
        <time>2019-10-12T15:14:51.838Z</time>
      </trkpt>
      <trkpt lat="20.24626833" lon="-98.733">
        <ele>2034.0</ele>
        <time>2019-10-12T15:14:52.839Z</time>
      </trkpt>
      <trkpt lat="20.246275" lon="-98.73301167">
        <ele>2037.0</ele>
        <time>2019-10-12T15:14:53.840Z</time>
      </trkpt>
      <trkpt lat="20.24627833" lon="-98.73302667">
        <ele>2038.0</ele>
        <time>2019-10-12T15:14:54.840Z</time>
      </trkpt>
      <trkpt lat="20.24628333" lon="-98.73304">
        <ele>2039.0</ele>
        <time>2019-10-12T15:14:55.841Z</time>
      </trkpt>
      <trkpt lat="20.24628167" lon="-98.73305">
        <ele>2040.0</ele>
        <time>2019-10-12T15:14:56.842Z</time>
      </trkpt>
      <trkpt lat="20.24628" lon="-98.73306">
        <ele>2041.0</ele>
        <time>2019-10-12T15:14:57.843Z</time>
      </trkpt>
      <trkpt lat="20.24628333" lon="-98.73306667">
        <ele>2041.0</ele>
        <time>2019-10-12T15:14:58.844Z</time>
      </trkpt>
      <trkpt lat="20.24629" lon="-98.73308333">
        <ele>2040.0</ele>
        <time>2019-10-12T15:14:59.844Z</time>
      </trkpt>
      <trkpt lat="20.24629667" lon="-98.73310333">
        <ele>2040.0</ele>
        <time>2019-10-12T15:15:00.845Z</time>
      </trkpt>
      <trkpt lat="20.24630333" lon="-98.733125">
        <ele>2041.0</ele>
        <time>2019-10-12T15:15:01.846Z</time>
      </trkpt>
      <trkpt lat="20.24630833" lon="-98.73314">
        <ele>2041.0</ele>
        <time>2019-10-12T15:15:02.847Z</time>
      </trkpt>
      <trkpt lat="20.246315" lon="-98.73315667">
        <ele>2041.0</ele>
        <time>2019-10-12T15:15:03.848Z</time>
      </trkpt>
      <trkpt lat="20.24631833" lon="-98.73316667">
        <ele>2041.0</ele>
        <time>2019-10-12T15:15:04.848Z</time>
      </trkpt>
      <trkpt lat="20.24631833" lon="-98.73317167">
        <ele>2041.0</ele>
        <time>2019-10-12T15:15:05.849Z</time>
      </trkpt>
      <trkpt lat="20.24631667" lon="-98.733175">
        <ele>2042.0</ele>
        <time>2019-10-12T15:15:06.850Z</time>
      </trkpt>
      <trkpt lat="20.246315" lon="-98.73318">
        <ele>2042.0</ele>
        <time>2019-10-12T15:15:07.851Z</time>
      </trkpt>
      <trkpt lat="20.24631167" lon="-98.73318833">
        <ele>2043.0</ele>
        <time>2019-10-12T15:15:08.852Z</time>
      </trkpt>
      <trkpt lat="20.24630667" lon="-98.73319667">
        <ele>2044.0</ele>
        <time>2019-10-12T15:15:09.853Z</time>
      </trkpt>
      <trkpt lat="20.24630167" lon="-98.73320167">
        <ele>2045.0</ele>
        <time>2019-10-12T15:15:10.853Z</time>
      </trkpt>
      <trkpt lat="20.24629833" lon="-98.73321167">
        <ele>2046.0</ele>
        <time>2019-10-12T15:15:11.854Z</time>
      </trkpt>
      <trkpt lat="20.24629833" lon="-98.73321833">
        <ele>2047.0</ele>
        <time>2019-10-12T15:15:12.855Z</time>
      </trkpt>
      <trkpt lat="20.24630167" lon="-98.73322">
        <ele>2048.0</ele>
        <time>2019-10-12T15:15:13.856Z</time>
      </trkpt>
      <trkpt lat="20.24630167" lon="-98.73322333">
        <ele>2049.0</ele>
        <time>2019-10-12T15:15:14.863Z</time>
      </trkpt>
      <trkpt lat="20.24630333" lon="-98.73323">
        <ele>2050.0</ele>
        <time>2019-10-12T15:15:15.869Z</time>
      </trkpt>
      <trkpt lat="20.2463" lon="-98.73324167">
        <ele>2051.0</ele>
        <time>2019-10-12T15:15:16.872Z</time>
      </trkpt>
      <trkpt lat="20.24629833" lon="-98.73324833">
        <ele>2052.0</ele>
        <time>2019-10-12T15:15:17.877Z</time>
      </trkpt>
      <trkpt lat="20.24630333" lon="-98.73326167">
        <ele>2052.0</ele>
        <time>2019-10-12T15:15:18.881Z</time>
      </trkpt>
      <trkpt lat="20.24631333" lon="-98.733275">
        <ele>2052.0</ele>
        <time>2019-10-12T15:15:19.887Z</time>
      </trkpt>
      <trkpt lat="20.24632667" lon="-98.73328667">
        <ele>2052.0</ele>
        <time>2019-10-12T15:15:20.894Z</time>
      </trkpt>
      <trkpt lat="20.24634333" lon="-98.733305">
        <ele>2053.0</ele>
        <time>2019-10-12T15:15:21.901Z</time>
      </trkpt>
      <trkpt lat="20.24635667" lon="-98.73331833">
        <ele>2053.0</ele>
        <time>2019-10-12T15:15:22.907Z</time>
      </trkpt>
      <trkpt lat="20.24637167" lon="-98.73333667">
        <ele>2053.0</ele>
        <time>2019-10-12T15:15:23.910Z</time>
      </trkpt>
      <trkpt lat="20.24638167" lon="-98.73335167">
        <ele>2052.0</ele>
        <time>2019-10-12T15:15:24.914Z</time>
      </trkpt>
      <trkpt lat="20.24639" lon="-98.73335833">
        <ele>2052.0</ele>
        <time>2019-10-12T15:15:25.920Z</time>
      </trkpt>
      <trkpt lat="20.24639167" lon="-98.73338">
        <ele>2052.0</ele>
        <time>2019-10-12T15:15:26.925Z</time>
      </trkpt>
      <trkpt lat="20.24639667" lon="-98.733405">
        <ele>2052.0</ele>
        <time>2019-10-12T15:15:27.929Z</time>
      </trkpt>
      <trkpt lat="20.2464" lon="-98.73343667">
        <ele>2052.0</ele>
        <time>2019-10-12T15:15:28.930Z</time>
      </trkpt>
      <trkpt lat="20.24640833" lon="-98.73347167">
        <ele>2052.0</ele>
        <time>2019-10-12T15:15:29.931Z</time>
      </trkpt>
      <trkpt lat="20.246425" lon="-98.73350167">
        <ele>2051.0</ele>
        <time>2019-10-12T15:15:30.931Z</time>
      </trkpt>
      <trkpt lat="20.246435" lon="-98.73352">
        <ele>2051.0</ele>
        <time>2019-10-12T15:15:31.932Z</time>
      </trkpt>
      <trkpt lat="20.24644333" lon="-98.733535">
        <ele>2052.0</ele>
        <time>2019-10-12T15:15:32.938Z</time>
      </trkpt>
      <trkpt lat="20.24646" lon="-98.73355">
        <ele>2052.0</ele>
        <time>2019-10-12T15:15:33.944Z</time>
      </trkpt>
      <trkpt lat="20.24647833" lon="-98.733565">
        <ele>2051.0</ele>
        <time>2019-10-12T15:15:34.949Z</time>
      </trkpt>
      <trkpt lat="20.24649833" lon="-98.73357667">
        <ele>2050.0</ele>
        <time>2019-10-12T15:15:35.953Z</time>
      </trkpt>
      <trkpt lat="20.246515" lon="-98.73358833">
        <ele>2049.0</ele>
        <time>2019-10-12T15:15:36.832Z</time>
      </trkpt>
      <trkpt lat="20.24654" lon="-98.73359667">
        <ele>2048.0</ele>
        <time>2019-10-12T15:15:37.837Z</time>
      </trkpt>
      <trkpt lat="20.24655667" lon="-98.73360833">
        <ele>2046.0</ele>
        <time>2019-10-12T15:15:38.843Z</time>
      </trkpt>
      <trkpt lat="20.24657167" lon="-98.73362167">
        <ele>2046.0</ele>
        <time>2019-10-12T15:15:39.850Z</time>
      </trkpt>
      <trkpt lat="20.246575" lon="-98.73363">
        <ele>2046.0</ele>
        <time>2019-10-12T15:15:40.857Z</time>
      </trkpt>
      <trkpt lat="20.24656833" lon="-98.733635">
        <ele>2046.0</ele>
        <time>2019-10-12T15:15:41.861Z</time>
      </trkpt>
      <trkpt lat="20.24655333" lon="-98.733645">
        <ele>2047.0</ele>
        <time>2019-10-12T15:15:42.866Z</time>
      </trkpt>
      <trkpt lat="20.24654" lon="-98.733655">
        <ele>2048.0</ele>
        <time>2019-10-12T15:15:43.874Z</time>
      </trkpt>
      <trkpt lat="20.246525" lon="-98.73367">
        <ele>2049.0</ele>
        <time>2019-10-12T15:15:44.879Z</time>
      </trkpt>
      <trkpt lat="20.24651167" lon="-98.73369">
        <ele>2048.0</ele>
        <time>2019-10-12T15:15:45.880Z</time>
      </trkpt>
      <trkpt lat="20.24650333" lon="-98.73371833">
        <ele>2048.0</ele>
        <time>2019-10-12T15:15:46.881Z</time>
      </trkpt>
      <trkpt lat="20.24650167" lon="-98.73374167">
        <ele>2047.0</ele>
        <time>2019-10-12T15:15:47.882Z</time>
      </trkpt>
      <trkpt lat="20.2465" lon="-98.73376167">
        <ele>2047.0</ele>
        <time>2019-10-12T15:15:48.883Z</time>
      </trkpt>
      <trkpt lat="20.24650333" lon="-98.73377667">
        <ele>2047.0</ele>
        <time>2019-10-12T15:15:49.884Z</time>
      </trkpt>
      <trkpt lat="20.24651" lon="-98.73379833">
        <ele>2046.0</ele>
        <time>2019-10-12T15:15:50.884Z</time>
      </trkpt>
      <trkpt lat="20.24651833" lon="-98.73381667">
        <ele>2045.0</ele>
        <time>2019-10-12T15:15:51.885Z</time>
      </trkpt>
      <trkpt lat="20.24653167" lon="-98.73384667">
        <ele>2044.0</ele>
        <time>2019-10-12T15:15:52.886Z</time>
      </trkpt>
      <trkpt lat="20.24655167" lon="-98.73387167">
        <ele>2043.0</ele>
        <time>2019-10-12T15:15:53.887Z</time>
      </trkpt>
      <trkpt lat="20.24656833" lon="-98.73389">
        <ele>2043.0</ele>
        <time>2019-10-12T15:15:54.888Z</time>
      </trkpt>
      <trkpt lat="20.24658833" lon="-98.733905">
        <ele>2043.0</ele>
        <time>2019-10-12T15:15:55.888Z</time>
      </trkpt>
      <trkpt lat="20.24660833" lon="-98.73391667">
        <ele>2043.0</ele>
        <time>2019-10-12T15:15:56.889Z</time>
      </trkpt>
      <trkpt lat="20.24662833" lon="-98.73392833">
        <ele>2044.0</ele>
        <time>2019-10-12T15:15:57.890Z</time>
      </trkpt>
      <trkpt lat="20.24665167" lon="-98.73394">
        <ele>2044.0</ele>
        <time>2019-10-12T15:15:58.891Z</time>
      </trkpt>
      <trkpt lat="20.24667833" lon="-98.73394833">
        <ele>2043.0</ele>
        <time>2019-10-12T15:15:59.892Z</time>
      </trkpt>
      <trkpt lat="20.24669667" lon="-98.73395333">
        <ele>2043.0</ele>
        <time>2019-10-12T15:16:00.892Z</time>
      </trkpt>
      <trkpt lat="20.24672167" lon="-98.73395667">
        <ele>2043.0</ele>
        <time>2019-10-12T15:16:01.893Z</time>
      </trkpt>
      <trkpt lat="20.246745" lon="-98.73395833">
        <ele>2042.0</ele>
        <time>2019-10-12T15:16:02.894Z</time>
      </trkpt>
      <trkpt lat="20.24676333" lon="-98.73396167">
        <ele>2041.0</ele>
        <time>2019-10-12T15:16:03.894Z</time>
      </trkpt>
      <trkpt lat="20.24677333" lon="-98.73397">
        <ele>2041.0</ele>
        <time>2019-10-12T15:16:04.896Z</time>
      </trkpt>
      <trkpt lat="20.24677667" lon="-98.73398">
        <ele>2041.0</ele>
        <time>2019-10-12T15:16:05.897Z</time>
      </trkpt>
      <trkpt lat="20.24677333" lon="-98.73399167">
        <ele>2042.0</ele>
        <time>2019-10-12T15:16:06.897Z</time>
      </trkpt>
      <trkpt lat="20.24677" lon="-98.734">
        <ele>2041.0</ele>
        <time>2019-10-12T15:16:07.898Z</time>
      </trkpt>
      <trkpt lat="20.24676333" lon="-98.73400667">
        <ele>2041.0</ele>
        <time>2019-10-12T15:16:08.899Z</time>
      </trkpt>
      <trkpt lat="20.24675333" lon="-98.73401667">
        <ele>2040.0</ele>
        <time>2019-10-12T15:16:09.900Z</time>
      </trkpt>
      <trkpt lat="20.24674333" lon="-98.734025">
        <ele>2040.0</ele>
        <time>2019-10-12T15:16:10.904Z</time>
      </trkpt>
      <trkpt lat="20.24672833" lon="-98.73404167">
        <ele>2040.0</ele>
        <time>2019-10-12T15:16:11.911Z</time>
      </trkpt>
      <trkpt lat="20.24671833" lon="-98.73406167">
        <ele>2041.0</ele>
        <time>2019-10-12T15:16:12.913Z</time>
      </trkpt>
      <trkpt lat="20.24671333" lon="-98.73408833">
        <ele>2041.0</ele>
        <time>2019-10-12T15:16:13.918Z</time>
      </trkpt>
      <trkpt lat="20.24671333" lon="-98.734115">
        <ele>2041.0</ele>
        <time>2019-10-12T15:16:14.925Z</time>
      </trkpt>
      <trkpt lat="20.24670833" lon="-98.73414833">
        <ele>2041.0</ele>
        <time>2019-10-12T15:16:15.929Z</time>
      </trkpt>
      <trkpt lat="20.24670167" lon="-98.734175">
        <ele>2041.0</ele>
        <time>2019-10-12T15:16:16.934Z</time>
      </trkpt>
      <trkpt lat="20.2467" lon="-98.73419667">
        <ele>2041.0</ele>
        <time>2019-10-12T15:16:17.937Z</time>
      </trkpt>
      <trkpt lat="20.24669667" lon="-98.73421833">
        <ele>2042.0</ele>
        <time>2019-10-12T15:16:18.940Z</time>
      </trkpt>
      <trkpt lat="20.24668833" lon="-98.73423667">
        <ele>2042.0</ele>
        <time>2019-10-12T15:16:19.946Z</time>
      </trkpt>
      <trkpt lat="20.24668" lon="-98.73426">
        <ele>2043.0</ele>
        <time>2019-10-12T15:16:20.951Z</time>
      </trkpt>
      <trkpt lat="20.24667833" lon="-98.734285">
        <ele>2044.0</ele>
        <time>2019-10-12T15:16:21.831Z</time>
      </trkpt>
      <trkpt lat="20.24667833" lon="-98.734305">
        <ele>2044.0</ele>
        <time>2019-10-12T15:16:22.838Z</time>
      </trkpt>
      <trkpt lat="20.24668167" lon="-98.73433833">
        <ele>2045.0</ele>
        <time>2019-10-12T15:16:23.843Z</time>
      </trkpt>
      <trkpt lat="20.24669667" lon="-98.73437333">
        <ele>2045.0</ele>
        <time>2019-10-12T15:16:24.849Z</time>
      </trkpt>
      <trkpt lat="20.24671333" lon="-98.73439333">
        <ele>2045.0</ele>
        <time>2019-10-12T15:16:25.850Z</time>
      </trkpt>
      <trkpt lat="20.24672833" lon="-98.73441167">
        <ele>2046.0</ele>
        <time>2019-10-12T15:16:26.850Z</time>
      </trkpt>
      <trkpt lat="20.24673833" lon="-98.73443333">
        <ele>2047.0</ele>
        <time>2019-10-12T15:16:27.855Z</time>
      </trkpt>
      <trkpt lat="20.24674667" lon="-98.73445333">
        <ele>2047.0</ele>
        <time>2019-10-12T15:16:28.860Z</time>
      </trkpt>
      <trkpt lat="20.24675833" lon="-98.73447333">
        <ele>2047.0</ele>
        <time>2019-10-12T15:16:29.866Z</time>
      </trkpt>
      <trkpt lat="20.246775" lon="-98.73450167">
        <ele>2047.0</ele>
        <time>2019-10-12T15:16:30.869Z</time>
      </trkpt>
      <trkpt lat="20.24679167" lon="-98.73452333">
        <ele>2047.0</ele>
        <time>2019-10-12T15:16:31.874Z</time>
      </trkpt>
      <trkpt lat="20.24680667" lon="-98.73454167">
        <ele>2047.0</ele>
        <time>2019-10-12T15:16:32.876Z</time>
      </trkpt>
      <trkpt lat="20.246825" lon="-98.73456">
        <ele>2047.0</ele>
        <time>2019-10-12T15:16:33.879Z</time>
      </trkpt>
      <trkpt lat="20.24683667" lon="-98.734575">
        <ele>2048.0</ele>
        <time>2019-10-12T15:16:34.883Z</time>
      </trkpt>
      <trkpt lat="20.24684333" lon="-98.73458667">
        <ele>2048.0</ele>
        <time>2019-10-12T15:16:35.888Z</time>
      </trkpt>
      <trkpt lat="20.24684833" lon="-98.73460667">
        <ele>2048.0</ele>
        <time>2019-10-12T15:16:36.895Z</time>
      </trkpt>
      <trkpt lat="20.246855" lon="-98.73462833">
        <ele>2049.0</ele>
        <time>2019-10-12T15:16:37.903Z</time>
      </trkpt>
      <trkpt lat="20.24687667" lon="-98.73465333">
        <ele>2048.0</ele>
        <time>2019-10-12T15:16:38.905Z</time>
      </trkpt>
      <trkpt lat="20.24688167" lon="-98.734665">
        <ele>2047.0</ele>
        <time>2019-10-12T15:16:39.908Z</time>
      </trkpt>
      <trkpt lat="20.24689167" lon="-98.73467833">
        <ele>2047.0</ele>
        <time>2019-10-12T15:16:40.912Z</time>
      </trkpt>
      <trkpt lat="20.24691" lon="-98.73470333">
        <ele>2046.0</ele>
        <time>2019-10-12T15:16:41.915Z</time>
      </trkpt>
      <trkpt lat="20.24693" lon="-98.73472333">
        <ele>2045.0</ele>
        <time>2019-10-12T15:16:42.922Z</time>
      </trkpt>
      <trkpt lat="20.24695333" lon="-98.734745">
        <ele>2044.0</ele>
        <time>2019-10-12T15:16:43.926Z</time>
      </trkpt>
      <trkpt lat="20.24698" lon="-98.73476333">
        <ele>2043.0</ele>
        <time>2019-10-12T15:16:44.927Z</time>
      </trkpt>
      <trkpt lat="20.24700333" lon="-98.734775">
        <ele>2042.0</ele>
        <time>2019-10-12T15:16:45.928Z</time>
      </trkpt>
      <trkpt lat="20.24702167" lon="-98.73478">
        <ele>2042.0</ele>
        <time>2019-10-12T15:16:46.928Z</time>
      </trkpt>
      <trkpt lat="20.24705" lon="-98.73478167">
        <ele>2041.0</ele>
        <time>2019-10-12T15:16:47.929Z</time>
      </trkpt>
      <trkpt lat="20.247075" lon="-98.73478">
        <ele>2041.0</ele>
        <time>2019-10-12T15:16:48.931Z</time>
      </trkpt>
      <trkpt lat="20.247095" lon="-98.73478833">
        <ele>2041.0</ele>
        <time>2019-10-12T15:16:49.931Z</time>
      </trkpt>
      <trkpt lat="20.24711333" lon="-98.73479667">
        <ele>2040.0</ele>
        <time>2019-10-12T15:16:50.932Z</time>
      </trkpt>
      <trkpt lat="20.24713667" lon="-98.73480167">
        <ele>2039.0</ele>
        <time>2019-10-12T15:16:51.938Z</time>
      </trkpt>
      <trkpt lat="20.24717" lon="-98.734805">
        <ele>2039.0</ele>
        <time>2019-10-12T15:16:52.946Z</time>
      </trkpt>
      <trkpt lat="20.247195" lon="-98.73480667">
        <ele>2038.0</ele>
        <time>2019-10-12T15:16:53.947Z</time>
      </trkpt>
      <trkpt lat="20.24722" lon="-98.734815">
        <ele>2038.0</ele>
        <time>2019-10-12T15:16:54.953Z</time>
      </trkpt>
      <trkpt lat="20.24724167" lon="-98.73481833">
        <ele>2038.0</ele>
        <time>2019-10-12T15:16:55.954Z</time>
      </trkpt>
      <trkpt lat="20.24726333" lon="-98.73481667">
        <ele>2037.0</ele>
        <time>2019-10-12T15:16:56.830Z</time>
      </trkpt>
      <trkpt lat="20.24728" lon="-98.734815">
        <ele>2037.0</ele>
        <time>2019-10-12T15:16:57.832Z</time>
      </trkpt>
      <trkpt lat="20.2473" lon="-98.73481">
        <ele>2039.0</ele>
        <time>2019-10-12T15:16:58.838Z</time>
      </trkpt>
      <trkpt lat="20.24732333" lon="-98.73480667">
        <ele>2040.0</ele>
        <time>2019-10-12T15:16:59.846Z</time>
      </trkpt>
      <trkpt lat="20.24734" lon="-98.734805">
        <ele>2041.0</ele>
        <time>2019-10-12T15:17:00.851Z</time>
      </trkpt>
      <trkpt lat="20.247365" lon="-98.73480167">
        <ele>2041.0</ele>
        <time>2019-10-12T15:17:01.857Z</time>
      </trkpt>
      <trkpt lat="20.24738167" lon="-98.73480333">
        <ele>2041.0</ele>
        <time>2019-10-12T15:17:02.861Z</time>
      </trkpt>
      <trkpt lat="20.24739667" lon="-98.73480833">
        <ele>2040.0</ele>
        <time>2019-10-12T15:17:03.866Z</time>
      </trkpt>
      <trkpt lat="20.24741167" lon="-98.73481833">
        <ele>2041.0</ele>
        <time>2019-10-12T15:17:04.873Z</time>
      </trkpt>
      <trkpt lat="20.24743333" lon="-98.73482833">
        <ele>2041.0</ele>
        <time>2019-10-12T15:17:05.879Z</time>
      </trkpt>
      <trkpt lat="20.247455" lon="-98.73484">
        <ele>2042.0</ele>
        <time>2019-10-12T15:17:06.884Z</time>
      </trkpt>
      <trkpt lat="20.24747667" lon="-98.73485">
        <ele>2042.0</ele>
        <time>2019-10-12T15:17:07.886Z</time>
      </trkpt>
      <trkpt lat="20.2475" lon="-98.73485333">
        <ele>2042.0</ele>
        <time>2019-10-12T15:17:08.890Z</time>
      </trkpt>
      <trkpt lat="20.24752667" lon="-98.73485167">
        <ele>2042.0</ele>
        <time>2019-10-12T15:17:09.897Z</time>
      </trkpt>
      <trkpt lat="20.24755" lon="-98.73484833">
        <ele>2042.0</ele>
        <time>2019-10-12T15:17:10.904Z</time>
      </trkpt>
      <trkpt lat="20.24757167" lon="-98.73484667">
        <ele>2042.0</ele>
        <time>2019-10-12T15:17:11.911Z</time>
      </trkpt>
      <trkpt lat="20.24759333" lon="-98.73484667">
        <ele>2042.0</ele>
        <time>2019-10-12T15:17:12.915Z</time>
      </trkpt>
      <trkpt lat="20.24760833" lon="-98.73484667">
        <ele>2043.0</ele>
        <time>2019-10-12T15:17:13.919Z</time>
      </trkpt>
      <trkpt lat="20.24762667" lon="-98.734855">
        <ele>2043.0</ele>
        <time>2019-10-12T15:17:14.923Z</time>
      </trkpt>
      <trkpt lat="20.24765333" lon="-98.734865">
        <ele>2043.0</ele>
        <time>2019-10-12T15:17:15.928Z</time>
      </trkpt>
      <trkpt lat="20.24768167" lon="-98.73487667">
        <ele>2043.0</ele>
        <time>2019-10-12T15:17:16.935Z</time>
      </trkpt>
      <trkpt lat="20.24770333" lon="-98.73487667">
        <ele>2044.0</ele>
        <time>2019-10-12T15:17:17.941Z</time>
      </trkpt>
      <trkpt lat="20.24772167" lon="-98.73487">
        <ele>2044.0</ele>
        <time>2019-10-12T15:17:18.947Z</time>
      </trkpt>
      <trkpt lat="20.24774333" lon="-98.734855">
        <ele>2045.0</ele>
        <time>2019-10-12T15:17:19.951Z</time>
      </trkpt>
      <trkpt lat="20.24776833" lon="-98.73484833">
        <ele>2044.0</ele>
        <time>2019-10-12T15:17:20.952Z</time>
      </trkpt>
      <trkpt lat="20.24779" lon="-98.73484333">
        <ele>2044.0</ele>
        <time>2019-10-12T15:17:21.952Z</time>
      </trkpt>
      <trkpt lat="20.24781167" lon="-98.73484167">
        <ele>2045.0</ele>
        <time>2019-10-12T15:17:22.952Z</time>
      </trkpt>
      <trkpt lat="20.24783" lon="-98.73484">
        <ele>2046.0</ele>
        <time>2019-10-12T15:17:23.953Z</time>
      </trkpt>
      <trkpt lat="20.24785" lon="-98.73484">
        <ele>2047.0</ele>
        <time>2019-10-12T15:17:24.953Z</time>
      </trkpt>
      <trkpt lat="20.24786833" lon="-98.73483667">
        <ele>2047.0</ele>
        <time>2019-10-12T15:17:25.953Z</time>
      </trkpt>
      <trkpt lat="20.247885" lon="-98.73482167">
        <ele>2047.0</ele>
        <time>2019-10-12T15:17:26.833Z</time>
      </trkpt>
      <trkpt lat="20.24789833" lon="-98.7348">
        <ele>2048.0</ele>
        <time>2019-10-12T15:17:27.839Z</time>
      </trkpt>
      <trkpt lat="20.24791" lon="-98.73477333">
        <ele>2048.0</ele>
        <time>2019-10-12T15:17:28.843Z</time>
      </trkpt>
      <trkpt lat="20.247915" lon="-98.73475667">
        <ele>2049.0</ele>
        <time>2019-10-12T15:17:29.845Z</time>
      </trkpt>
      <trkpt lat="20.24792333" lon="-98.73474">
        <ele>2050.0</ele>
        <time>2019-10-12T15:17:30.852Z</time>
      </trkpt>
      <trkpt lat="20.24793167" lon="-98.73472333">
        <ele>2051.0</ele>
        <time>2019-10-12T15:17:31.857Z</time>
      </trkpt>
      <trkpt lat="20.24794" lon="-98.7347">
        <ele>2051.0</ele>
        <time>2019-10-12T15:17:32.859Z</time>
      </trkpt>
      <trkpt lat="20.24795" lon="-98.73467833">
        <ele>2052.0</ele>
        <time>2019-10-12T15:17:33.863Z</time>
      </trkpt>
      <trkpt lat="20.247955" lon="-98.73465833">
        <ele>2052.0</ele>
        <time>2019-10-12T15:17:34.867Z</time>
      </trkpt>
      <trkpt lat="20.247965" lon="-98.734635">
        <ele>2053.0</ele>
        <time>2019-10-12T15:17:35.870Z</time>
      </trkpt>
      <trkpt lat="20.24798167" lon="-98.73462">
        <ele>2054.0</ele>
        <time>2019-10-12T15:17:36.876Z</time>
      </trkpt>
      <trkpt lat="20.24799667" lon="-98.73461">
        <ele>2054.0</ele>
        <time>2019-10-12T15:17:37.882Z</time>
      </trkpt>
      <trkpt lat="20.24801167" lon="-98.73460833">
        <ele>2053.0</ele>
        <time>2019-10-12T15:17:38.888Z</time>
      </trkpt>
      <trkpt lat="20.24801833" lon="-98.73461">
        <ele>2053.0</ele>
        <time>2019-10-12T15:17:39.889Z</time>
      </trkpt>
      <trkpt lat="20.248025" lon="-98.734615">
        <ele>2054.0</ele>
        <time>2019-10-12T15:17:40.891Z</time>
      </trkpt>
      <trkpt lat="20.24804" lon="-98.73461333">
        <ele>2053.0</ele>
        <time>2019-10-12T15:17:41.896Z</time>
      </trkpt>
      <trkpt lat="20.24806" lon="-98.734615">
        <ele>2051.0</ele>
        <time>2019-10-12T15:17:42.901Z</time>
      </trkpt>
      <trkpt lat="20.24808167" lon="-98.73461333">
        <ele>2050.0</ele>
        <time>2019-10-12T15:17:43.902Z</time>
      </trkpt>
      <trkpt lat="20.24810333" lon="-98.73461">
        <ele>2049.0</ele>
        <time>2019-10-12T15:17:44.903Z</time>
      </trkpt>
      <trkpt lat="20.24812" lon="-98.73459667">
        <ele>2050.0</ele>
        <time>2019-10-12T15:17:45.904Z</time>
      </trkpt>
      <trkpt lat="20.24813667" lon="-98.73458">
        <ele>2050.0</ele>
        <time>2019-10-12T15:17:46.909Z</time>
      </trkpt>
      <trkpt lat="20.24814667" lon="-98.734565">
        <ele>2051.0</ele>
        <time>2019-10-12T15:17:47.914Z</time>
      </trkpt>
      <trkpt lat="20.24816" lon="-98.73455667">
        <ele>2050.0</ele>
        <time>2019-10-12T15:17:48.918Z</time>
      </trkpt>
      <trkpt lat="20.248175" lon="-98.73455333">
        <ele>2050.0</ele>
        <time>2019-10-12T15:17:49.923Z</time>
      </trkpt>
      <trkpt lat="20.24819" lon="-98.73454833">
        <ele>2050.0</ele>
        <time>2019-10-12T15:17:50.927Z</time>
      </trkpt>
      <trkpt lat="20.24820833" lon="-98.73454333">
        <ele>2049.0</ele>
        <time>2019-10-12T15:17:51.931Z</time>
      </trkpt>
      <trkpt lat="20.24823833" lon="-98.73452833">
        <ele>2049.0</ele>
        <time>2019-10-12T15:17:52.938Z</time>
      </trkpt>
      <trkpt lat="20.24826" lon="-98.734505">
        <ele>2050.0</ele>
        <time>2019-10-12T15:17:53.944Z</time>
      </trkpt>
      <trkpt lat="20.248275" lon="-98.73448">
        <ele>2050.0</ele>
        <time>2019-10-12T15:17:54.947Z</time>
      </trkpt>
      <trkpt lat="20.248285" lon="-98.734455">
        <ele>2049.0</ele>
        <time>2019-10-12T15:17:55.952Z</time>
      </trkpt>
      <trkpt lat="20.2483" lon="-98.73442333">
        <ele>2049.0</ele>
        <time>2019-10-12T15:17:56.832Z</time>
      </trkpt>
      <trkpt lat="20.24831167" lon="-98.73439167">
        <ele>2048.0</ele>
        <time>2019-10-12T15:17:57.835Z</time>
      </trkpt>
      <trkpt lat="20.248315" lon="-98.73436333">
        <ele>2048.0</ele>
        <time>2019-10-12T15:17:58.842Z</time>
      </trkpt>
      <trkpt lat="20.24831833" lon="-98.73433833">
        <ele>2048.0</ele>
        <time>2019-10-12T15:17:59.849Z</time>
      </trkpt>
      <trkpt lat="20.24832" lon="-98.73431">
        <ele>2048.0</ele>
        <time>2019-10-12T15:18:00.853Z</time>
      </trkpt>
      <trkpt lat="20.248325" lon="-98.734285">
        <ele>2049.0</ele>
        <time>2019-10-12T15:18:01.854Z</time>
      </trkpt>
      <trkpt lat="20.24832667" lon="-98.73426167">
        <ele>2049.0</ele>
        <time>2019-10-12T15:18:02.854Z</time>
      </trkpt>
      <trkpt lat="20.24832833" lon="-98.73424333">
        <ele>2049.0</ele>
        <time>2019-10-12T15:18:03.855Z</time>
      </trkpt>
      <trkpt lat="20.24833667" lon="-98.73422833">
        <ele>2049.0</ele>
        <time>2019-10-12T15:18:04.856Z</time>
      </trkpt>
      <trkpt lat="20.24834833" lon="-98.73421167">
        <ele>2050.0</ele>
        <time>2019-10-12T15:18:05.856Z</time>
      </trkpt>
      <trkpt lat="20.24836" lon="-98.73421167">
        <ele>2050.0</ele>
        <time>2019-10-12T15:18:06.856Z</time>
      </trkpt>
      <trkpt lat="20.24837167" lon="-98.73421833">
        <ele>2050.0</ele>
        <time>2019-10-12T15:18:07.856Z</time>
      </trkpt>
      <trkpt lat="20.24838" lon="-98.73423833">
        <ele>2050.0</ele>
        <time>2019-10-12T15:18:08.857Z</time>
      </trkpt>
      <trkpt lat="20.24838833" lon="-98.73426667">
        <ele>2051.0</ele>
        <time>2019-10-12T15:18:09.857Z</time>
      </trkpt>
      <trkpt lat="20.24840333" lon="-98.734295">
        <ele>2051.0</ele>
        <time>2019-10-12T15:18:10.857Z</time>
      </trkpt>
      <trkpt lat="20.24841667" lon="-98.73431333">
        <ele>2051.0</ele>
        <time>2019-10-12T15:18:11.857Z</time>
      </trkpt>
      <trkpt lat="20.24843333" lon="-98.73432167">
        <ele>2052.0</ele>
        <time>2019-10-12T15:18:12.858Z</time>
      </trkpt>
      <trkpt lat="20.248455" lon="-98.73431667">
        <ele>2053.0</ele>
        <time>2019-10-12T15:18:13.858Z</time>
      </trkpt>
      <trkpt lat="20.24848167" lon="-98.73431">
        <ele>2054.0</ele>
        <time>2019-10-12T15:18:14.858Z</time>
      </trkpt>
      <trkpt lat="20.24850833" lon="-98.73430167">
        <ele>2054.0</ele>
        <time>2019-10-12T15:18:15.858Z</time>
      </trkpt>
      <trkpt lat="20.248525" lon="-98.734305">
        <ele>2055.0</ele>
        <time>2019-10-12T15:18:16.859Z</time>
      </trkpt>
      <trkpt lat="20.24853333" lon="-98.73432667">
        <ele>2055.0</ele>
        <time>2019-10-12T15:18:17.859Z</time>
      </trkpt>
      <trkpt lat="20.24853833" lon="-98.73434833">
        <ele>2055.0</ele>
        <time>2019-10-12T15:18:18.859Z</time>
      </trkpt>
      <trkpt lat="20.24855167" lon="-98.73438333">
        <ele>2055.0</ele>
        <time>2019-10-12T15:18:19.859Z</time>
      </trkpt>
      <trkpt lat="20.24856833" lon="-98.73440167">
        <ele>2054.0</ele>
        <time>2019-10-12T15:18:20.863Z</time>
      </trkpt>
      <trkpt lat="20.24859" lon="-98.734415">
        <ele>2054.0</ele>
        <time>2019-10-12T15:18:21.869Z</time>
      </trkpt>
      <trkpt lat="20.24861333" lon="-98.73442667">
        <ele>2052.0</ele>
        <time>2019-10-12T15:18:22.875Z</time>
      </trkpt>
      <trkpt lat="20.24863167" lon="-98.73443333">
        <ele>2051.0</ele>
        <time>2019-10-12T15:18:23.882Z</time>
      </trkpt>
      <trkpt lat="20.24865333" lon="-98.73444">
        <ele>2050.0</ele>
        <time>2019-10-12T15:18:24.882Z</time>
      </trkpt>
      <trkpt lat="20.24867" lon="-98.73444333">
        <ele>2049.0</ele>
        <time>2019-10-12T15:18:25.887Z</time>
      </trkpt>
      <trkpt lat="20.24868833" lon="-98.73444667">
        <ele>2049.0</ele>
        <time>2019-10-12T15:18:26.890Z</time>
      </trkpt>
      <trkpt lat="20.24870667" lon="-98.73444833">
        <ele>2049.0</ele>
        <time>2019-10-12T15:18:27.894Z</time>
      </trkpt>
      <trkpt lat="20.24872167" lon="-98.73444833">
        <ele>2049.0</ele>
        <time>2019-10-12T15:18:28.900Z</time>
      </trkpt>
      <trkpt lat="20.24873667" lon="-98.73444667">
        <ele>2049.0</ele>
        <time>2019-10-12T15:18:29.905Z</time>
      </trkpt>
      <trkpt lat="20.24875833" lon="-98.73444">
        <ele>2049.0</ele>
        <time>2019-10-12T15:18:30.911Z</time>
      </trkpt>
      <trkpt lat="20.24877333" lon="-98.73443">
        <ele>2050.0</ele>
        <time>2019-10-12T15:18:31.913Z</time>
      </trkpt>
      <trkpt lat="20.24879833" lon="-98.73442833">
        <ele>2051.0</ele>
        <time>2019-10-12T15:18:32.918Z</time>
      </trkpt>
      <trkpt lat="20.24881667" lon="-98.73443333">
        <ele>2051.0</ele>
        <time>2019-10-12T15:18:33.923Z</time>
      </trkpt>
      <trkpt lat="20.24883667" lon="-98.73444">
        <ele>2051.0</ele>
        <time>2019-10-12T15:18:34.929Z</time>
      </trkpt>
      <trkpt lat="20.24885167" lon="-98.73445333">
        <ele>2050.0</ele>
        <time>2019-10-12T15:18:35.933Z</time>
      </trkpt>
      <trkpt lat="20.248865" lon="-98.734465">
        <ele>2049.0</ele>
        <time>2019-10-12T15:18:36.934Z</time>
      </trkpt>
      <trkpt lat="20.24888" lon="-98.73447667">
        <ele>2049.0</ele>
        <time>2019-10-12T15:18:37.935Z</time>
      </trkpt>
      <trkpt lat="20.24889333" lon="-98.73448833">
        <ele>2049.0</ele>
        <time>2019-10-12T15:18:38.936Z</time>
      </trkpt>
      <trkpt lat="20.2489" lon="-98.73450167">
        <ele>2049.0</ele>
        <time>2019-10-12T15:18:39.936Z</time>
      </trkpt>
      <trkpt lat="20.24890333" lon="-98.73451833">
        <ele>2049.0</ele>
        <time>2019-10-12T15:18:40.937Z</time>
      </trkpt>
      <trkpt lat="20.24890833" lon="-98.73453833">
        <ele>2050.0</ele>
        <time>2019-10-12T15:18:41.938Z</time>
      </trkpt>
      <trkpt lat="20.248915" lon="-98.73455167">
        <ele>2051.0</ele>
        <time>2019-10-12T15:18:42.939Z</time>
      </trkpt>
      <trkpt lat="20.24893167" lon="-98.73457167">
        <ele>2052.0</ele>
        <time>2019-10-12T15:18:43.940Z</time>
      </trkpt>
      <trkpt lat="20.24894167" lon="-98.73458333">
        <ele>2053.0</ele>
        <time>2019-10-12T15:18:44.940Z</time>
      </trkpt>
      <trkpt lat="20.24895833" lon="-98.7346">
        <ele>2054.0</ele>
        <time>2019-10-12T15:18:45.941Z</time>
      </trkpt>
      <trkpt lat="20.248975" lon="-98.73461167">
        <ele>2054.0</ele>
        <time>2019-10-12T15:18:46.942Z</time>
      </trkpt>
      <trkpt lat="20.24899" lon="-98.73461667">
        <ele>2054.0</ele>
        <time>2019-10-12T15:18:47.943Z</time>
      </trkpt>
      <trkpt lat="20.24900333" lon="-98.734625">
        <ele>2054.0</ele>
        <time>2019-10-12T15:18:48.948Z</time>
      </trkpt>
      <trkpt lat="20.24901167" lon="-98.73464167">
        <ele>2054.0</ele>
        <time>2019-10-12T15:18:49.830Z</time>
      </trkpt>
      <trkpt lat="20.24902167" lon="-98.73465667">
        <ele>2054.0</ele>
        <time>2019-10-12T15:18:50.835Z</time>
      </trkpt>
      <trkpt lat="20.24902667" lon="-98.73468167">
        <ele>2054.0</ele>
        <time>2019-10-12T15:18:51.837Z</time>
      </trkpt>
      <trkpt lat="20.24903667" lon="-98.73470167">
        <ele>2054.0</ele>
        <time>2019-10-12T15:18:52.843Z</time>
      </trkpt>
      <trkpt lat="20.24905" lon="-98.73471667">
        <ele>2054.0</ele>
        <time>2019-10-12T15:18:53.849Z</time>
      </trkpt>
      <trkpt lat="20.24906667" lon="-98.73473">
        <ele>2054.0</ele>
        <time>2019-10-12T15:18:54.856Z</time>
      </trkpt>
      <trkpt lat="20.249085" lon="-98.73473833">
        <ele>2054.0</ele>
        <time>2019-10-12T15:18:55.862Z</time>
      </trkpt>
      <trkpt lat="20.24910333" lon="-98.734745">
        <ele>2055.0</ele>
        <time>2019-10-12T15:18:56.869Z</time>
      </trkpt>
      <trkpt lat="20.24912" lon="-98.73475167">
        <ele>2054.0</ele>
        <time>2019-10-12T15:18:57.874Z</time>
      </trkpt>
      <trkpt lat="20.24913333" lon="-98.73476167">
        <ele>2053.0</ele>
        <time>2019-10-12T15:18:58.878Z</time>
      </trkpt>
      <trkpt lat="20.24914667" lon="-98.734775">
        <ele>2053.0</ele>
        <time>2019-10-12T15:18:59.884Z</time>
      </trkpt>
      <trkpt lat="20.24916167" lon="-98.73478833">
        <ele>2053.0</ele>
        <time>2019-10-12T15:19:00.890Z</time>
      </trkpt>
      <trkpt lat="20.24917667" lon="-98.7348">
        <ele>2053.0</ele>
        <time>2019-10-12T15:19:01.891Z</time>
      </trkpt>
      <trkpt lat="20.24919333" lon="-98.734815">
        <ele>2053.0</ele>
        <time>2019-10-12T15:19:02.892Z</time>
      </trkpt>
      <trkpt lat="20.24920833" lon="-98.73482833">
        <ele>2053.0</ele>
        <time>2019-10-12T15:19:03.893Z</time>
      </trkpt>
      <trkpt lat="20.24922333" lon="-98.73484">
        <ele>2052.0</ele>
        <time>2019-10-12T15:19:04.894Z</time>
      </trkpt>
      <trkpt lat="20.24924333" lon="-98.73485333">
        <ele>2052.0</ele>
        <time>2019-10-12T15:19:05.899Z</time>
      </trkpt>
      <trkpt lat="20.24926" lon="-98.73486167">
        <ele>2052.0</ele>
        <time>2019-10-12T15:19:06.905Z</time>
      </trkpt>
      <trkpt lat="20.24927333" lon="-98.73487">
        <ele>2051.0</ele>
        <time>2019-10-12T15:19:07.909Z</time>
      </trkpt>
      <trkpt lat="20.24929167" lon="-98.73488333">
        <ele>2051.0</ele>
        <time>2019-10-12T15:19:08.913Z</time>
      </trkpt>
      <trkpt lat="20.24930667" lon="-98.73489333">
        <ele>2051.0</ele>
        <time>2019-10-12T15:19:09.920Z</time>
      </trkpt>
      <trkpt lat="20.249325" lon="-98.73490333">
        <ele>2051.0</ele>
        <time>2019-10-12T15:19:10.925Z</time>
      </trkpt>
      <trkpt lat="20.24933833" lon="-98.73491">
        <ele>2051.0</ele>
        <time>2019-10-12T15:19:11.930Z</time>
      </trkpt>
      <trkpt lat="20.24935833" lon="-98.73492333">
        <ele>2051.0</ele>
        <time>2019-10-12T15:19:12.933Z</time>
      </trkpt>
      <trkpt lat="20.24937167" lon="-98.73493167">
        <ele>2051.0</ele>
        <time>2019-10-12T15:19:13.937Z</time>
      </trkpt>
      <trkpt lat="20.24939167" lon="-98.73494">
        <ele>2051.0</ele>
        <time>2019-10-12T15:19:14.945Z</time>
      </trkpt>
      <trkpt lat="20.24940833" lon="-98.73494833">
        <ele>2051.0</ele>
        <time>2019-10-12T15:19:15.951Z</time>
      </trkpt>
      <trkpt lat="20.249425" lon="-98.73495833">
        <ele>2051.0</ele>
        <time>2019-10-12T15:19:16.830Z</time>
      </trkpt>
      <trkpt lat="20.24944167" lon="-98.73497">
        <ele>2051.0</ele>
        <time>2019-10-12T15:19:17.836Z</time>
      </trkpt>
      <trkpt lat="20.24945333" lon="-98.73497667">
        <ele>2051.0</ele>
        <time>2019-10-12T15:19:18.840Z</time>
      </trkpt>
      <trkpt lat="20.24947667" lon="-98.73498667">
        <ele>2051.0</ele>
        <time>2019-10-12T15:19:19.847Z</time>
      </trkpt>
      <trkpt lat="20.24949667" lon="-98.73499167">
        <ele>2050.0</ele>
        <time>2019-10-12T15:19:20.852Z</time>
      </trkpt>
      <trkpt lat="20.24951667" lon="-98.73499333">
        <ele>2049.0</ele>
        <time>2019-10-12T15:19:21.858Z</time>
      </trkpt>
      <trkpt lat="20.24953" lon="-98.734995">
        <ele>2049.0</ele>
        <time>2019-10-12T15:19:22.859Z</time>
      </trkpt>
      <trkpt lat="20.24955167" lon="-98.735">
        <ele>2049.0</ele>
        <time>2019-10-12T15:19:23.864Z</time>
      </trkpt>
      <trkpt lat="20.24957167" lon="-98.735005">
        <ele>2049.0</ele>
        <time>2019-10-12T15:19:24.867Z</time>
      </trkpt>
      <trkpt lat="20.24959" lon="-98.73500667">
        <ele>2048.0</ele>
        <time>2019-10-12T15:19:25.869Z</time>
      </trkpt>
      <trkpt lat="20.24961" lon="-98.73501167">
        <ele>2048.0</ele>
        <time>2019-10-12T15:19:26.870Z</time>
      </trkpt>
      <trkpt lat="20.24962833" lon="-98.735015">
        <ele>2047.0</ele>
        <time>2019-10-12T15:19:27.873Z</time>
      </trkpt>
      <trkpt lat="20.24964833" lon="-98.73501667">
        <ele>2047.0</ele>
        <time>2019-10-12T15:19:28.874Z</time>
      </trkpt>
      <trkpt lat="20.24967" lon="-98.73502">
        <ele>2048.0</ele>
        <time>2019-10-12T15:19:29.877Z</time>
      </trkpt>
      <trkpt lat="20.24968833" lon="-98.73502">
        <ele>2048.0</ele>
        <time>2019-10-12T15:19:30.879Z</time>
      </trkpt>
      <trkpt lat="20.24970833" lon="-98.735015">
        <ele>2048.0</ele>
        <time>2019-10-12T15:19:31.883Z</time>
      </trkpt>
      <trkpt lat="20.24972667" lon="-98.73500667">
        <ele>2048.0</ele>
        <time>2019-10-12T15:19:32.888Z</time>
      </trkpt>
      <trkpt lat="20.24975" lon="-98.734995">
        <ele>2048.0</ele>
        <time>2019-10-12T15:19:33.892Z</time>
      </trkpt>
      <trkpt lat="20.24977" lon="-98.73498167">
        <ele>2047.0</ele>
        <time>2019-10-12T15:19:34.897Z</time>
      </trkpt>
      <trkpt lat="20.24978833" lon="-98.73496833">
        <ele>2048.0</ele>
        <time>2019-10-12T15:19:35.904Z</time>
      </trkpt>
      <trkpt lat="20.249805" lon="-98.73495">
        <ele>2048.0</ele>
        <time>2019-10-12T15:19:36.909Z</time>
      </trkpt>
      <trkpt lat="20.24982167" lon="-98.73493167">
        <ele>2048.0</ele>
        <time>2019-10-12T15:19:37.913Z</time>
      </trkpt>
      <trkpt lat="20.24983667" lon="-98.73491167">
        <ele>2049.0</ele>
        <time>2019-10-12T15:19:38.915Z</time>
      </trkpt>
      <trkpt lat="20.24985333" lon="-98.73489333">
        <ele>2049.0</ele>
        <time>2019-10-12T15:19:39.920Z</time>
      </trkpt>
      <trkpt lat="20.24987333" lon="-98.73487333">
        <ele>2049.0</ele>
        <time>2019-10-12T15:19:40.925Z</time>
      </trkpt>
      <trkpt lat="20.24989333" lon="-98.734855">
        <ele>2050.0</ele>
        <time>2019-10-12T15:19:41.932Z</time>
      </trkpt>
      <trkpt lat="20.24991333" lon="-98.73483333">
        <ele>2049.0</ele>
        <time>2019-10-12T15:19:42.938Z</time>
      </trkpt>
      <trkpt lat="20.24993333" lon="-98.73481333">
        <ele>2048.0</ele>
        <time>2019-10-12T15:19:43.945Z</time>
      </trkpt>
      <trkpt lat="20.24995167" lon="-98.73480167">
        <ele>2048.0</ele>
        <time>2019-10-12T15:19:44.949Z</time>
      </trkpt>
      <trkpt lat="20.24997667" lon="-98.73478833">
        <ele>2047.0</ele>
        <time>2019-10-12T15:19:45.951Z</time>
      </trkpt>
      <trkpt lat="20.249995" lon="-98.734785">
        <ele>2048.0</ele>
        <time>2019-10-12T15:19:46.832Z</time>
      </trkpt>
      <trkpt lat="20.25000833" lon="-98.73478333">
        <ele>2048.0</ele>
        <time>2019-10-12T15:19:47.839Z</time>
      </trkpt>
      <trkpt lat="20.25001667" lon="-98.73479167">
        <ele>2047.0</ele>
        <time>2019-10-12T15:19:48.848Z</time>
      </trkpt>
      <trkpt lat="20.25002833" lon="-98.73480333">
        <ele>2047.0</ele>
        <time>2019-10-12T15:19:49.854Z</time>
      </trkpt>
      <trkpt lat="20.25004333" lon="-98.73481333">
        <ele>2046.0</ele>
        <time>2019-10-12T15:19:50.859Z</time>
      </trkpt>
      <trkpt lat="20.25006167" lon="-98.73482167">
        <ele>2046.0</ele>
        <time>2019-10-12T15:19:51.863Z</time>
      </trkpt>
      <trkpt lat="20.25008167" lon="-98.73483">
        <ele>2047.0</ele>
        <time>2019-10-12T15:19:52.864Z</time>
      </trkpt>
      <trkpt lat="20.25010167" lon="-98.73483833">
        <ele>2047.0</ele>
        <time>2019-10-12T15:19:53.864Z</time>
      </trkpt>
      <trkpt lat="20.250125" lon="-98.73484">
        <ele>2048.0</ele>
        <time>2019-10-12T15:19:54.865Z</time>
      </trkpt>
      <trkpt lat="20.25014833" lon="-98.73484833">
        <ele>2048.0</ele>
        <time>2019-10-12T15:19:55.866Z</time>
      </trkpt>
      <trkpt lat="20.25017667" lon="-98.73486">
        <ele>2048.0</ele>
        <time>2019-10-12T15:19:56.871Z</time>
      </trkpt>
      <trkpt lat="20.2502" lon="-98.73485667">
        <ele>2048.0</ele>
        <time>2019-10-12T15:19:57.879Z</time>
      </trkpt>
      <trkpt lat="20.250225" lon="-98.73485167">
        <ele>2049.0</ele>
        <time>2019-10-12T15:19:58.883Z</time>
      </trkpt>
      <trkpt lat="20.250245" lon="-98.73485">
        <ele>2049.0</ele>
        <time>2019-10-12T15:19:59.888Z</time>
      </trkpt>
      <trkpt lat="20.25026667" lon="-98.73485167">
        <ele>2049.0</ele>
        <time>2019-10-12T15:20:00.893Z</time>
      </trkpt>
      <trkpt lat="20.25028333" lon="-98.73485">
        <ele>2049.0</ele>
        <time>2019-10-12T15:20:01.897Z</time>
      </trkpt>
      <trkpt lat="20.25030167" lon="-98.73485333">
        <ele>2048.0</ele>
        <time>2019-10-12T15:20:02.902Z</time>
      </trkpt>
      <trkpt lat="20.25032167" lon="-98.73486333">
        <ele>2047.0</ele>
        <time>2019-10-12T15:20:03.908Z</time>
      </trkpt>
      <trkpt lat="20.25034333" lon="-98.73487167">
        <ele>2047.0</ele>
        <time>2019-10-12T15:20:04.915Z</time>
      </trkpt>
      <trkpt lat="20.25037333" lon="-98.73488667">
        <ele>2046.0</ele>
        <time>2019-10-12T15:20:05.918Z</time>
      </trkpt>
      <trkpt lat="20.250395" lon="-98.73489167">
        <ele>2045.0</ele>
        <time>2019-10-12T15:20:06.923Z</time>
      </trkpt>
      <trkpt lat="20.250425" lon="-98.73489667">
        <ele>2043.0</ele>
        <time>2019-10-12T15:20:07.930Z</time>
      </trkpt>
      <trkpt lat="20.25045833" lon="-98.734895">
        <ele>2043.0</ele>
        <time>2019-10-12T15:20:08.937Z</time>
      </trkpt>
      <trkpt lat="20.25049" lon="-98.73488667">
        <ele>2044.0</ele>
        <time>2019-10-12T15:20:09.940Z</time>
      </trkpt>
      <trkpt lat="20.25051167" lon="-98.734885">
        <ele>2044.0</ele>
        <time>2019-10-12T15:20:10.941Z</time>
      </trkpt>
      <trkpt lat="20.25053833" lon="-98.73489333">
        <ele>2044.0</ele>
        <time>2019-10-12T15:20:11.942Z</time>
      </trkpt>
      <trkpt lat="20.25057167" lon="-98.73489333">
        <ele>2043.0</ele>
        <time>2019-10-12T15:20:12.943Z</time>
      </trkpt>
      <trkpt lat="20.25060167" lon="-98.73489">
        <ele>2043.0</ele>
        <time>2019-10-12T15:20:13.943Z</time>
      </trkpt>
      <trkpt lat="20.25063" lon="-98.73488667">
        <ele>2042.0</ele>
        <time>2019-10-12T15:20:14.944Z</time>
      </trkpt>
      <trkpt lat="20.250655" lon="-98.73488">
        <ele>2040.0</ele>
        <time>2019-10-12T15:20:15.945Z</time>
      </trkpt>
      <trkpt lat="20.25067167" lon="-98.73485833">
        <ele>2039.0</ele>
        <time>2019-10-12T15:20:16.945Z</time>
      </trkpt>
      <trkpt lat="20.250685" lon="-98.73482667">
        <ele>2039.0</ele>
        <time>2019-10-12T15:20:17.946Z</time>
      </trkpt>
      <trkpt lat="20.25069833" lon="-98.73479833">
        <ele>2040.0</ele>
        <time>2019-10-12T15:20:18.952Z</time>
      </trkpt>
      <trkpt lat="20.25071333" lon="-98.73477667">
        <ele>2040.0</ele>
        <time>2019-10-12T15:20:19.832Z</time>
      </trkpt>
      <trkpt lat="20.25073333" lon="-98.73476333">
        <ele>2039.0</ele>
        <time>2019-10-12T15:20:20.837Z</time>
      </trkpt>
      <trkpt lat="20.250755" lon="-98.73475333">
        <ele>2038.0</ele>
        <time>2019-10-12T15:20:21.842Z</time>
      </trkpt>
      <trkpt lat="20.25077167" lon="-98.73474333">
        <ele>2038.0</ele>
        <time>2019-10-12T15:20:22.847Z</time>
      </trkpt>
      <trkpt lat="20.250785" lon="-98.73473667">
        <ele>2038.0</ele>
        <time>2019-10-12T15:20:23.850Z</time>
      </trkpt>
      <trkpt lat="20.25080167" lon="-98.734735">
        <ele>2038.0</ele>
        <time>2019-10-12T15:20:24.857Z</time>
      </trkpt>
      <trkpt lat="20.25081333" lon="-98.73473833">
        <ele>2037.0</ele>
        <time>2019-10-12T15:20:25.859Z</time>
      </trkpt>
      <trkpt lat="20.250825" lon="-98.734745">
        <ele>2036.0</ele>
        <time>2019-10-12T15:20:26.863Z</time>
      </trkpt>
      <trkpt lat="20.25084" lon="-98.73475">
        <ele>2036.0</ele>
        <time>2019-10-12T15:20:27.867Z</time>
      </trkpt>
      <trkpt lat="20.250855" lon="-98.73475">
        <ele>2035.0</ele>
        <time>2019-10-12T15:20:28.871Z</time>
      </trkpt>
      <trkpt lat="20.250865" lon="-98.73474833">
        <ele>2035.0</ele>
        <time>2019-10-12T15:20:29.879Z</time>
      </trkpt>
      <trkpt lat="20.25086833" lon="-98.73474">
        <ele>2035.0</ele>
        <time>2019-10-12T15:20:30.885Z</time>
      </trkpt>
      <trkpt lat="20.25087167" lon="-98.73473333">
        <ele>2035.0</ele>
        <time>2019-10-12T15:20:31.888Z</time>
      </trkpt>
      <trkpt lat="20.250875" lon="-98.73472333">
        <ele>2035.0</ele>
        <time>2019-10-12T15:20:32.891Z</time>
      </trkpt>
      <trkpt lat="20.25087667" lon="-98.73471333">
        <ele>2036.0</ele>
        <time>2019-10-12T15:20:33.895Z</time>
      </trkpt>
      <trkpt lat="20.250875" lon="-98.734705">
        <ele>2035.0</ele>
        <time>2019-10-12T15:20:34.895Z</time>
      </trkpt>
      <trkpt lat="20.250875" lon="-98.73469">
        <ele>2035.0</ele>
        <time>2019-10-12T15:20:35.898Z</time>
      </trkpt>
      <trkpt lat="20.25087667" lon="-98.73467167">
        <ele>2034.0</ele>
        <time>2019-10-12T15:20:36.903Z</time>
      </trkpt>
      <trkpt lat="20.250885" lon="-98.73465">
        <ele>2033.0</ele>
        <time>2019-10-12T15:20:37.905Z</time>
      </trkpt>
      <trkpt lat="20.25089333" lon="-98.734625">
        <ele>2033.0</ele>
        <time>2019-10-12T15:20:38.909Z</time>
      </trkpt>
      <trkpt lat="20.25089833" lon="-98.7346">
        <ele>2032.0</ele>
        <time>2019-10-12T15:20:39.914Z</time>
      </trkpt>
      <trkpt lat="20.2509" lon="-98.73457333">
        <ele>2032.0</ele>
        <time>2019-10-12T15:20:40.918Z</time>
      </trkpt>
      <trkpt lat="20.25089667" lon="-98.73454167">
        <ele>2032.0</ele>
        <time>2019-10-12T15:20:41.923Z</time>
      </trkpt>
      <trkpt lat="20.25088833" lon="-98.73451667">
        <ele>2032.0</ele>
        <time>2019-10-12T15:20:42.926Z</time>
      </trkpt>
      <trkpt lat="20.25088" lon="-98.73448833">
        <ele>2032.0</ele>
        <time>2019-10-12T15:20:43.930Z</time>
      </trkpt>
      <trkpt lat="20.25087333" lon="-98.73446833">
        <ele>2032.0</ele>
        <time>2019-10-12T15:20:44.936Z</time>
      </trkpt>
      <trkpt lat="20.25086833" lon="-98.73444167">
        <ele>2032.0</ele>
        <time>2019-10-12T15:20:45.942Z</time>
      </trkpt>
      <trkpt lat="20.250875" lon="-98.73443">
        <ele>2033.0</ele>
        <time>2019-10-12T15:20:46.947Z</time>
      </trkpt>
      <trkpt lat="20.250885" lon="-98.734415">
        <ele>2032.0</ele>
        <time>2019-10-12T15:20:47.948Z</time>
      </trkpt>
      <trkpt lat="20.25089833" lon="-98.73441167">
        <ele>2031.0</ele>
        <time>2019-10-12T15:20:48.949Z</time>
      </trkpt>
      <trkpt lat="20.25091833" lon="-98.73441167">
        <ele>2031.0</ele>
        <time>2019-10-12T15:20:49.953Z</time>
      </trkpt>
      <trkpt lat="20.25094667" lon="-98.73440833">
        <ele>2031.0</ele>
        <time>2019-10-12T15:20:50.834Z</time>
      </trkpt>
      <trkpt lat="20.25096667" lon="-98.73440333">
        <ele>2031.0</ele>
        <time>2019-10-12T15:20:51.841Z</time>
      </trkpt>
      <trkpt lat="20.25098167" lon="-98.73439833">
        <ele>2030.0</ele>
        <time>2019-10-12T15:20:52.843Z</time>
      </trkpt>
      <trkpt lat="20.25099833" lon="-98.73438833">
        <ele>2031.0</ele>
        <time>2019-10-12T15:20:53.844Z</time>
      </trkpt>
      <trkpt lat="20.25100833" lon="-98.73437167">
        <ele>2031.0</ele>
        <time>2019-10-12T15:20:54.845Z</time>
      </trkpt>
      <trkpt lat="20.25101333" lon="-98.73435167">
        <ele>2031.0</ele>
        <time>2019-10-12T15:20:55.850Z</time>
      </trkpt>
      <trkpt lat="20.25101333" lon="-98.73433">
        <ele>2031.0</ele>
        <time>2019-10-12T15:20:56.857Z</time>
      </trkpt>
      <trkpt lat="20.25100833" lon="-98.73430667">
        <ele>2031.0</ele>
        <time>2019-10-12T15:20:57.861Z</time>
      </trkpt>
      <trkpt lat="20.251" lon="-98.73428333">
        <ele>2031.0</ele>
        <time>2019-10-12T15:20:58.865Z</time>
      </trkpt>
      <trkpt lat="20.25099167" lon="-98.73426167">
        <ele>2031.0</ele>
        <time>2019-10-12T15:20:59.870Z</time>
      </trkpt>
      <trkpt lat="20.250985" lon="-98.73424">
        <ele>2032.0</ele>
        <time>2019-10-12T15:21:00.873Z</time>
      </trkpt>
      <trkpt lat="20.25097667" lon="-98.73421833">
        <ele>2032.0</ele>
        <time>2019-10-12T15:21:01.878Z</time>
      </trkpt>
      <trkpt lat="20.25096833" lon="-98.73419667">
        <ele>2032.0</ele>
        <time>2019-10-12T15:21:02.881Z</time>
      </trkpt>
      <trkpt lat="20.25096333" lon="-98.73417667">
        <ele>2032.0</ele>
        <time>2019-10-12T15:21:03.882Z</time>
      </trkpt>
      <trkpt lat="20.25096333" lon="-98.73416">
        <ele>2032.0</ele>
        <time>2019-10-12T15:21:04.888Z</time>
      </trkpt>
      <trkpt lat="20.250965" lon="-98.73414">
        <ele>2032.0</ele>
        <time>2019-10-12T15:21:05.894Z</time>
      </trkpt>
      <trkpt lat="20.25097" lon="-98.73412167">
        <ele>2031.0</ele>
        <time>2019-10-12T15:21:06.901Z</time>
      </trkpt>
      <trkpt lat="20.250975" lon="-98.73409833">
        <ele>2030.0</ele>
        <time>2019-10-12T15:21:07.905Z</time>
      </trkpt>
      <trkpt lat="20.25098" lon="-98.73407833">
        <ele>2029.0</ele>
        <time>2019-10-12T15:21:08.911Z</time>
      </trkpt>
      <trkpt lat="20.250985" lon="-98.73405667">
        <ele>2027.0</ele>
        <time>2019-10-12T15:21:09.917Z</time>
      </trkpt>
      <trkpt lat="20.25099333" lon="-98.734035">
        <ele>2027.0</ele>
        <time>2019-10-12T15:21:10.919Z</time>
      </trkpt>
      <trkpt lat="20.25099667" lon="-98.73401333">
        <ele>2026.0</ele>
        <time>2019-10-12T15:21:11.920Z</time>
      </trkpt>
      <trkpt lat="20.251" lon="-98.73399">
        <ele>2025.0</ele>
        <time>2019-10-12T15:21:12.921Z</time>
      </trkpt>
      <trkpt lat="20.25100667" lon="-98.73396667">
        <ele>2024.0</ele>
        <time>2019-10-12T15:21:13.921Z</time>
      </trkpt>
      <trkpt lat="20.25101667" lon="-98.733945">
        <ele>2023.0</ele>
        <time>2019-10-12T15:21:14.922Z</time>
      </trkpt>
      <trkpt lat="20.25102667" lon="-98.73392667">
        <ele>2022.0</ele>
        <time>2019-10-12T15:21:15.923Z</time>
      </trkpt>
      <trkpt lat="20.251035" lon="-98.73390333">
        <ele>2022.0</ele>
        <time>2019-10-12T15:21:16.924Z</time>
      </trkpt>
      <trkpt lat="20.25104333" lon="-98.73387833">
        <ele>2022.0</ele>
        <time>2019-10-12T15:21:17.925Z</time>
      </trkpt>
      <trkpt lat="20.251045" lon="-98.73385333">
        <ele>2023.0</ele>
        <time>2019-10-12T15:21:18.925Z</time>
      </trkpt>
      <trkpt lat="20.251045" lon="-98.73383">
        <ele>2023.0</ele>
        <time>2019-10-12T15:21:19.926Z</time>
      </trkpt>
      <trkpt lat="20.25105" lon="-98.73381">
        <ele>2023.0</ele>
        <time>2019-10-12T15:21:20.927Z</time>
      </trkpt>
      <trkpt lat="20.25105833" lon="-98.73379">
        <ele>2023.0</ele>
        <time>2019-10-12T15:21:21.928Z</time>
      </trkpt>
      <trkpt lat="20.25106" lon="-98.733765">
        <ele>2022.0</ele>
        <time>2019-10-12T15:21:22.934Z</time>
      </trkpt>
      <trkpt lat="20.25106667" lon="-98.73374167">
        <ele>2022.0</ele>
        <time>2019-10-12T15:21:23.941Z</time>
      </trkpt>
      <trkpt lat="20.25107667" lon="-98.73372167">
        <ele>2021.0</ele>
        <time>2019-10-12T15:21:24.946Z</time>
      </trkpt>
      <trkpt lat="20.25108667" lon="-98.7337">
        <ele>2021.0</ele>
        <time>2019-10-12T15:21:25.949Z</time>
      </trkpt>
      <trkpt lat="20.251095" lon="-98.73367667">
        <ele>2020.0</ele>
        <time>2019-10-12T15:21:26.954Z</time>
      </trkpt>
      <trkpt lat="20.25110333" lon="-98.733655">
        <ele>2020.0</ele>
        <time>2019-10-12T15:21:27.833Z</time>
      </trkpt>
      <trkpt lat="20.25111333" lon="-98.73363333">
        <ele>2018.0</ele>
        <time>2019-10-12T15:21:28.839Z</time>
      </trkpt>
      <trkpt lat="20.251125" lon="-98.73361333">
        <ele>2018.0</ele>
        <time>2019-10-12T15:21:29.840Z</time>
      </trkpt>
      <trkpt lat="20.25113833" lon="-98.73359167">
        <ele>2017.0</ele>
        <time>2019-10-12T15:21:30.842Z</time>
      </trkpt>
      <trkpt lat="20.25114833" lon="-98.73357">
        <ele>2017.0</ele>
        <time>2019-10-12T15:21:31.847Z</time>
      </trkpt>
      <trkpt lat="20.251155" lon="-98.73354833">
        <ele>2016.0</ele>
        <time>2019-10-12T15:21:32.850Z</time>
      </trkpt>
      <trkpt lat="20.25115667" lon="-98.73352667">
        <ele>2016.0</ele>
        <time>2019-10-12T15:21:33.855Z</time>
      </trkpt>
      <trkpt lat="20.25115667" lon="-98.733505">
        <ele>2016.0</ele>
        <time>2019-10-12T15:21:34.862Z</time>
      </trkpt>
      <trkpt lat="20.25115333" lon="-98.73348333">
        <ele>2015.0</ele>
        <time>2019-10-12T15:21:35.868Z</time>
      </trkpt>
      <trkpt lat="20.25115" lon="-98.73346333">
        <ele>2014.0</ele>
        <time>2019-10-12T15:21:36.874Z</time>
      </trkpt>
      <trkpt lat="20.25115167" lon="-98.73344167">
        <ele>2014.0</ele>
        <time>2019-10-12T15:21:37.877Z</time>
      </trkpt>
      <trkpt lat="20.251155" lon="-98.73341833">
        <ele>2013.0</ele>
        <time>2019-10-12T15:21:38.879Z</time>
      </trkpt>
      <trkpt lat="20.25116" lon="-98.73339833">
        <ele>2013.0</ele>
        <time>2019-10-12T15:21:39.879Z</time>
      </trkpt>
      <trkpt lat="20.25116167" lon="-98.73337667">
        <ele>2012.0</ele>
        <time>2019-10-12T15:21:40.880Z</time>
      </trkpt>
      <trkpt lat="20.251165" lon="-98.73335667">
        <ele>2012.0</ele>
        <time>2019-10-12T15:21:41.881Z</time>
      </trkpt>
      <trkpt lat="20.25117" lon="-98.73333833">
        <ele>2012.0</ele>
        <time>2019-10-12T15:21:42.882Z</time>
      </trkpt>
      <trkpt lat="20.25117" lon="-98.73332">
        <ele>2012.0</ele>
        <time>2019-10-12T15:21:43.883Z</time>
      </trkpt>
      <trkpt lat="20.25116333" lon="-98.733305">
        <ele>2011.0</ele>
        <time>2019-10-12T15:21:44.883Z</time>
      </trkpt>
      <trkpt lat="20.25115333" lon="-98.73329167">
        <ele>2011.0</ele>
        <time>2019-10-12T15:21:45.884Z</time>
      </trkpt>
      <trkpt lat="20.25114167" lon="-98.73327833">
        <ele>2011.0</ele>
        <time>2019-10-12T15:21:46.885Z</time>
      </trkpt>
      <trkpt lat="20.251135" lon="-98.73326333">
        <ele>2011.0</ele>
        <time>2019-10-12T15:21:47.886Z</time>
      </trkpt>
      <trkpt lat="20.25112833" lon="-98.73325">
        <ele>2010.0</ele>
        <time>2019-10-12T15:21:48.887Z</time>
      </trkpt>
      <trkpt lat="20.25112667" lon="-98.73323333">
        <ele>2010.0</ele>
        <time>2019-10-12T15:21:49.890Z</time>
      </trkpt>
      <trkpt lat="20.25113" lon="-98.73321667">
        <ele>2009.0</ele>
        <time>2019-10-12T15:21:50.896Z</time>
      </trkpt>
      <trkpt lat="20.25113333" lon="-98.7332">
        <ele>2009.0</ele>
        <time>2019-10-12T15:21:51.900Z</time>
      </trkpt>
      <trkpt lat="20.25113167" lon="-98.733185">
        <ele>2009.0</ele>
        <time>2019-10-12T15:21:52.904Z</time>
      </trkpt>
      <trkpt lat="20.25112667" lon="-98.733175">
        <ele>2008.0</ele>
        <time>2019-10-12T15:21:53.909Z</time>
      </trkpt>
      <trkpt lat="20.25112167" lon="-98.73316333">
        <ele>2008.0</ele>
        <time>2019-10-12T15:21:54.912Z</time>
      </trkpt>
      <trkpt lat="20.25111667" lon="-98.733155">
        <ele>2007.0</ele>
        <time>2019-10-12T15:21:55.913Z</time>
      </trkpt>
      <trkpt lat="20.251115" lon="-98.73314667">
        <ele>2007.0</ele>
        <time>2019-10-12T15:21:56.914Z</time>
      </trkpt>
      <trkpt lat="20.25111333" lon="-98.73313833">
        <ele>2007.0</ele>
        <time>2019-10-12T15:21:57.914Z</time>
      </trkpt>
      <trkpt lat="20.25111667" lon="-98.73312667">
        <ele>2008.0</ele>
        <time>2019-10-12T15:21:58.916Z</time>
      </trkpt>
      <trkpt lat="20.25112167" lon="-98.73311667">
        <ele>2008.0</ele>
        <time>2019-10-12T15:21:59.918Z</time>
      </trkpt>
      <trkpt lat="20.25112667" lon="-98.73311">
        <ele>2008.0</ele>
        <time>2019-10-12T15:22:00.924Z</time>
      </trkpt>
      <trkpt lat="20.25112833" lon="-98.7331">
        <ele>2008.0</ele>
        <time>2019-10-12T15:22:01.931Z</time>
      </trkpt>
      <trkpt lat="20.25112833" lon="-98.73309">
        <ele>2008.0</ele>
        <time>2019-10-12T15:22:02.936Z</time>
      </trkpt>
      <trkpt lat="20.25113167" lon="-98.73307667">
        <ele>2008.0</ele>
        <time>2019-10-12T15:22:03.941Z</time>
      </trkpt>
      <trkpt lat="20.25113" lon="-98.73306667">
        <ele>2007.0</ele>
        <time>2019-10-12T15:22:04.944Z</time>
      </trkpt>
      <trkpt lat="20.25112667" lon="-98.73305833">
        <ele>2006.0</ele>
        <time>2019-10-12T15:22:05.947Z</time>
      </trkpt>
      <trkpt lat="20.25112167" lon="-98.73305333">
        <ele>2005.0</ele>
        <time>2019-10-12T15:22:06.952Z</time>
      </trkpt>
      <trkpt lat="20.25111833" lon="-98.73304667">
        <ele>2005.0</ele>
        <time>2019-10-12T15:22:07.832Z</time>
      </trkpt>
      <trkpt lat="20.25111833" lon="-98.73304">
        <ele>2004.0</ele>
        <time>2019-10-12T15:22:08.838Z</time>
      </trkpt>
      <trkpt lat="20.251125" lon="-98.73303333">
        <ele>2004.0</ele>
        <time>2019-10-12T15:22:09.841Z</time>
      </trkpt>
      <trkpt lat="20.25113333" lon="-98.73302">
        <ele>2004.0</ele>
        <time>2019-10-12T15:22:10.841Z</time>
      </trkpt>
      <trkpt lat="20.25113667" lon="-98.73300167">
        <ele>2003.0</ele>
        <time>2019-10-12T15:22:11.842Z</time>
      </trkpt>
      <trkpt lat="20.25113167" lon="-98.732985">
        <ele>2002.0</ele>
        <time>2019-10-12T15:22:12.843Z</time>
      </trkpt>
      <trkpt lat="20.25112333" lon="-98.73296667">
        <ele>2002.0</ele>
        <time>2019-10-12T15:22:13.844Z</time>
      </trkpt>
      <trkpt lat="20.25111667" lon="-98.73295167">
        <ele>2001.0</ele>
        <time>2019-10-12T15:22:14.845Z</time>
      </trkpt>
      <trkpt lat="20.25111167" lon="-98.73293167">
        <ele>2000.0</ele>
        <time>2019-10-12T15:22:15.853Z</time>
      </trkpt>
      <trkpt lat="20.25110667" lon="-98.73291167">
        <ele>1999.0</ele>
        <time>2019-10-12T15:22:16.858Z</time>
      </trkpt>
      <trkpt lat="20.25110167" lon="-98.73289167">
        <ele>1999.0</ele>
        <time>2019-10-12T15:22:17.862Z</time>
      </trkpt>
      <trkpt lat="20.25109333" lon="-98.73287">
        <ele>1999.0</ele>
        <time>2019-10-12T15:22:18.868Z</time>
      </trkpt>
      <trkpt lat="20.25108667" lon="-98.73285167">
        <ele>1999.0</ele>
        <time>2019-10-12T15:22:19.873Z</time>
      </trkpt>
      <trkpt lat="20.25108167" lon="-98.73283333">
        <ele>1999.0</ele>
        <time>2019-10-12T15:22:20.880Z</time>
      </trkpt>
      <trkpt lat="20.25107667" lon="-98.73281">
        <ele>1999.0</ele>
        <time>2019-10-12T15:22:21.887Z</time>
      </trkpt>
      <trkpt lat="20.251075" lon="-98.73278667">
        <ele>2000.0</ele>
        <time>2019-10-12T15:22:22.893Z</time>
      </trkpt>
      <trkpt lat="20.25107" lon="-98.73276333">
        <ele>2000.0</ele>
        <time>2019-10-12T15:22:23.897Z</time>
      </trkpt>
      <trkpt lat="20.25106667" lon="-98.73274167">
        <ele>2001.0</ele>
        <time>2019-10-12T15:22:24.902Z</time>
      </trkpt>
      <trkpt lat="20.25106167" lon="-98.73272">
        <ele>2000.0</ele>
        <time>2019-10-12T15:22:25.908Z</time>
      </trkpt>
      <trkpt lat="20.25105167" lon="-98.73269833">
        <ele>2000.0</ele>
        <time>2019-10-12T15:22:26.914Z</time>
      </trkpt>
      <trkpt lat="20.251045" lon="-98.732675">
        <ele>2001.0</ele>
        <time>2019-10-12T15:22:27.917Z</time>
      </trkpt>
      <trkpt lat="20.25104" lon="-98.73264833">
        <ele>2002.0</ele>
        <time>2019-10-12T15:22:28.918Z</time>
      </trkpt>
      <trkpt lat="20.25103667" lon="-98.73262167">
        <ele>2003.0</ele>
        <time>2019-10-12T15:22:29.919Z</time>
      </trkpt>
      <trkpt lat="20.25103667" lon="-98.732595">
        <ele>2003.0</ele>
        <time>2019-10-12T15:22:30.920Z</time>
      </trkpt>
      <trkpt lat="20.251035" lon="-98.73257333">
        <ele>2003.0</ele>
        <time>2019-10-12T15:22:31.920Z</time>
      </trkpt>
      <trkpt lat="20.25104167" lon="-98.732555">
        <ele>2003.0</ele>
        <time>2019-10-12T15:22:32.921Z</time>
      </trkpt>
      <trkpt lat="20.251055" lon="-98.73254333">
        <ele>2004.0</ele>
        <time>2019-10-12T15:22:33.922Z</time>
      </trkpt>
      <trkpt lat="20.25107333" lon="-98.732535">
        <ele>2003.0</ele>
        <time>2019-10-12T15:22:34.923Z</time>
      </trkpt>
      <trkpt lat="20.251085" lon="-98.73252833">
        <ele>2001.0</ele>
        <time>2019-10-12T15:22:35.924Z</time>
      </trkpt>
      <trkpt lat="20.25109333" lon="-98.732525">
        <ele>2000.0</ele>
        <time>2019-10-12T15:22:36.925Z</time>
      </trkpt>
      <trkpt lat="20.25110833" lon="-98.73252667">
        <ele>1999.0</ele>
        <time>2019-10-12T15:22:37.925Z</time>
      </trkpt>
      <trkpt lat="20.25111833" lon="-98.73253333">
        <ele>1997.0</ele>
        <time>2019-10-12T15:22:38.926Z</time>
      </trkpt>
      <trkpt lat="20.25112667" lon="-98.73254167">
        <ele>1997.0</ele>
        <time>2019-10-12T15:22:39.927Z</time>
      </trkpt>
      <trkpt lat="20.25113667" lon="-98.73254833">
        <ele>1996.0</ele>
        <time>2019-10-12T15:22:40.928Z</time>
      </trkpt>
      <trkpt lat="20.25115" lon="-98.73255833">
        <ele>1995.0</ele>
        <time>2019-10-12T15:22:41.929Z</time>
      </trkpt>
      <trkpt lat="20.25115667" lon="-98.73256667">
        <ele>1994.0</ele>
        <time>2019-10-12T15:22:42.929Z</time>
      </trkpt>
      <trkpt lat="20.251165" lon="-98.73258">
        <ele>1992.0</ele>
        <time>2019-10-12T15:22:43.930Z</time>
      </trkpt>
      <trkpt lat="20.25117667" lon="-98.73259167">
        <ele>1992.0</ele>
        <time>2019-10-12T15:22:44.931Z</time>
      </trkpt>
      <trkpt lat="20.25118333" lon="-98.7326">
        <ele>1991.0</ele>
        <time>2019-10-12T15:22:45.932Z</time>
      </trkpt>
      <trkpt lat="20.25119167" lon="-98.732615">
        <ele>1989.0</ele>
        <time>2019-10-12T15:22:46.933Z</time>
      </trkpt>
      <trkpt lat="20.25120167" lon="-98.73263">
        <ele>1988.0</ele>
        <time>2019-10-12T15:22:47.933Z</time>
      </trkpt>
      <trkpt lat="20.25121" lon="-98.73264167">
        <ele>1986.0</ele>
        <time>2019-10-12T15:22:48.934Z</time>
      </trkpt>
      <trkpt lat="20.25121833" lon="-98.73265333">
        <ele>1985.0</ele>
        <time>2019-10-12T15:22:49.935Z</time>
      </trkpt>
      <trkpt lat="20.25123333" lon="-98.73265667">
        <ele>1984.0</ele>
        <time>2019-10-12T15:22:50.936Z</time>
      </trkpt>
      <trkpt lat="20.25125" lon="-98.73265667">
        <ele>1984.0</ele>
        <time>2019-10-12T15:22:51.937Z</time>
      </trkpt>
      <trkpt lat="20.25126333" lon="-98.73265333">
        <ele>1985.0</ele>
        <time>2019-10-12T15:22:52.938Z</time>
      </trkpt>
      <trkpt lat="20.251275" lon="-98.73265">
        <ele>1986.0</ele>
        <time>2019-10-12T15:22:53.938Z</time>
      </trkpt>
      <trkpt lat="20.25128833" lon="-98.73264167">
        <ele>1986.0</ele>
        <time>2019-10-12T15:22:54.939Z</time>
      </trkpt>
      <trkpt lat="20.25130333" lon="-98.73263667">
        <ele>1987.0</ele>
        <time>2019-10-12T15:22:55.940Z</time>
      </trkpt>
      <trkpt lat="20.25131833" lon="-98.73262833">
        <ele>1987.0</ele>
        <time>2019-10-12T15:22:56.941Z</time>
      </trkpt>
      <trkpt lat="20.25133167" lon="-98.73262">
        <ele>1987.0</ele>
        <time>2019-10-12T15:22:57.942Z</time>
      </trkpt>
      <trkpt lat="20.25134333" lon="-98.73261167">
        <ele>1987.0</ele>
        <time>2019-10-12T15:22:58.942Z</time>
      </trkpt>
      <trkpt lat="20.25135333" lon="-98.73260333">
        <ele>1987.0</ele>
        <time>2019-10-12T15:22:59.943Z</time>
      </trkpt>
      <trkpt lat="20.25136667" lon="-98.73259167">
        <ele>1987.0</ele>
        <time>2019-10-12T15:23:00.946Z</time>
      </trkpt>
      <trkpt lat="20.25137833" lon="-98.73258">
        <ele>1988.0</ele>
        <time>2019-10-12T15:23:01.950Z</time>
      </trkpt>
      <trkpt lat="20.25139167" lon="-98.73257">
        <ele>1989.0</ele>
        <time>2019-10-12T15:23:02.831Z</time>
      </trkpt>
      <trkpt lat="20.2514" lon="-98.73255833">
        <ele>1989.0</ele>
        <time>2019-10-12T15:23:03.835Z</time>
      </trkpt>
      <trkpt lat="20.25141" lon="-98.73254833">
        <ele>1989.0</ele>
        <time>2019-10-12T15:23:04.836Z</time>
      </trkpt>
      <trkpt lat="20.25142167" lon="-98.73253833">
        <ele>1989.0</ele>
        <time>2019-10-12T15:23:05.838Z</time>
      </trkpt>
      <trkpt lat="20.25143333" lon="-98.73253667">
        <ele>1989.0</ele>
        <time>2019-10-12T15:23:06.844Z</time>
      </trkpt>
      <trkpt lat="20.25144667" lon="-98.73253333">
        <ele>1989.0</ele>
        <time>2019-10-12T15:23:07.844Z</time>
      </trkpt>
      <trkpt lat="20.25145833" lon="-98.73253">
        <ele>1989.0</ele>
        <time>2019-10-12T15:23:08.851Z</time>
      </trkpt>
      <trkpt lat="20.25147167" lon="-98.732525">
        <ele>1990.0</ele>
        <time>2019-10-12T15:23:09.862Z</time>
      </trkpt>
      <trkpt lat="20.25148333" lon="-98.73252667">
        <ele>1990.0</ele>
        <time>2019-10-12T15:23:10.869Z</time>
      </trkpt>
      <trkpt lat="20.25149333" lon="-98.73253333">
        <ele>1991.0</ele>
        <time>2019-10-12T15:23:11.873Z</time>
      </trkpt>
      <trkpt lat="20.251505" lon="-98.73253833">
        <ele>1991.0</ele>
        <time>2019-10-12T15:23:12.877Z</time>
      </trkpt>
      <trkpt lat="20.25151833" lon="-98.73254167">
        <ele>1992.0</ele>
        <time>2019-10-12T15:23:13.885Z</time>
      </trkpt>
      <trkpt lat="20.25153167" lon="-98.73254333">
        <ele>1993.0</ele>
        <time>2019-10-12T15:23:14.891Z</time>
      </trkpt>
      <trkpt lat="20.25154667" lon="-98.73254333">
        <ele>1994.0</ele>
        <time>2019-10-12T15:23:15.892Z</time>
      </trkpt>
      <trkpt lat="20.25156" lon="-98.73254333">
        <ele>1995.0</ele>
        <time>2019-10-12T15:23:16.896Z</time>
      </trkpt>
      <trkpt lat="20.25157333" lon="-98.73254333">
        <ele>1996.0</ele>
        <time>2019-10-12T15:23:17.903Z</time>
      </trkpt>
      <trkpt lat="20.25159" lon="-98.73254">
        <ele>1997.0</ele>
        <time>2019-10-12T15:23:18.909Z</time>
      </trkpt>
      <trkpt lat="20.25160167" lon="-98.732545">
        <ele>1997.0</ele>
        <time>2019-10-12T15:23:19.911Z</time>
      </trkpt>
      <trkpt lat="20.25161167" lon="-98.73254833">
        <ele>1997.0</ele>
        <time>2019-10-12T15:23:20.915Z</time>
      </trkpt>
      <trkpt lat="20.25162333" lon="-98.73255167">
        <ele>1998.0</ele>
        <time>2019-10-12T15:23:21.918Z</time>
      </trkpt>
      <trkpt lat="20.251635" lon="-98.73255833">
        <ele>1998.0</ele>
        <time>2019-10-12T15:23:22.919Z</time>
      </trkpt>
      <trkpt lat="20.251645" lon="-98.73256667">
        <ele>1998.0</ele>
        <time>2019-10-12T15:23:23.924Z</time>
      </trkpt>
      <trkpt lat="20.251655" lon="-98.732575">
        <ele>1999.0</ele>
        <time>2019-10-12T15:23:24.930Z</time>
      </trkpt>
      <trkpt lat="20.25166667" lon="-98.73258333">
        <ele>1999.0</ele>
        <time>2019-10-12T15:23:25.938Z</time>
      </trkpt>
      <trkpt lat="20.251675" lon="-98.73259">
        <ele>2000.0</ele>
        <time>2019-10-12T15:23:26.944Z</time>
      </trkpt>
      <trkpt lat="20.25168167" lon="-98.73259333">
        <ele>2000.0</ele>
        <time>2019-10-12T15:23:27.948Z</time>
      </trkpt>
      <trkpt lat="20.25169" lon="-98.73260333">
        <ele>2000.0</ele>
        <time>2019-10-12T15:23:28.830Z</time>
      </trkpt>
      <trkpt lat="20.25169667" lon="-98.73261">
        <ele>2000.0</ele>
        <time>2019-10-12T15:23:29.835Z</time>
      </trkpt>
      <trkpt lat="20.25170333" lon="-98.73261667">
        <ele>2001.0</ele>
        <time>2019-10-12T15:23:30.840Z</time>
      </trkpt>
      <trkpt lat="20.25171167" lon="-98.73263">
        <ele>2001.0</ele>
        <time>2019-10-12T15:23:31.841Z</time>
      </trkpt>
      <trkpt lat="20.25172" lon="-98.73264167">
        <ele>2001.0</ele>
        <time>2019-10-12T15:23:32.841Z</time>
      </trkpt>
      <trkpt lat="20.25172833" lon="-98.73265333">
        <ele>2001.0</ele>
        <time>2019-10-12T15:23:33.841Z</time>
      </trkpt>
      <trkpt lat="20.25173667" lon="-98.73265833">
        <ele>2002.0</ele>
        <time>2019-10-12T15:23:34.842Z</time>
      </trkpt>
      <trkpt lat="20.25174833" lon="-98.73266167">
        <ele>2002.0</ele>
        <time>2019-10-12T15:23:35.842Z</time>
      </trkpt>
      <trkpt lat="20.25175833" lon="-98.73266667">
        <ele>2003.0</ele>
        <time>2019-10-12T15:23:36.842Z</time>
      </trkpt>
      <trkpt lat="20.25176833" lon="-98.732675">
        <ele>2003.0</ele>
        <time>2019-10-12T15:23:37.843Z</time>
      </trkpt>
      <trkpt lat="20.25178" lon="-98.732685">
        <ele>2004.0</ele>
        <time>2019-10-12T15:23:38.843Z</time>
      </trkpt>
      <trkpt lat="20.25179167" lon="-98.7327">
        <ele>2004.0</ele>
        <time>2019-10-12T15:23:39.843Z</time>
      </trkpt>
      <trkpt lat="20.25180333" lon="-98.73270833">
        <ele>2004.0</ele>
        <time>2019-10-12T15:23:40.844Z</time>
      </trkpt>
      <trkpt lat="20.25181667" lon="-98.73272">
        <ele>2004.0</ele>
        <time>2019-10-12T15:23:41.844Z</time>
      </trkpt>
      <trkpt lat="20.251825" lon="-98.73272833">
        <ele>2004.0</ele>
        <time>2019-10-12T15:23:42.844Z</time>
      </trkpt>
      <trkpt lat="20.25183667" lon="-98.73273833">
        <ele>2004.0</ele>
        <time>2019-10-12T15:23:43.844Z</time>
      </trkpt>
      <trkpt lat="20.25185167" lon="-98.73274833">
        <ele>2003.0</ele>
        <time>2019-10-12T15:23:44.850Z</time>
      </trkpt>
      <trkpt lat="20.25186667" lon="-98.73276">
        <ele>2003.0</ele>
        <time>2019-10-12T15:23:45.857Z</time>
      </trkpt>
      <trkpt lat="20.25188167" lon="-98.73277333">
        <ele>2003.0</ele>
        <time>2019-10-12T15:23:46.862Z</time>
      </trkpt>
      <trkpt lat="20.25189667" lon="-98.73278667">
        <ele>2003.0</ele>
        <time>2019-10-12T15:23:47.864Z</time>
      </trkpt>
      <trkpt lat="20.25191333" lon="-98.7328">
        <ele>2004.0</ele>
        <time>2019-10-12T15:23:48.870Z</time>
      </trkpt>
      <trkpt lat="20.25193167" lon="-98.73281333">
        <ele>2004.0</ele>
        <time>2019-10-12T15:23:49.874Z</time>
      </trkpt>
      <trkpt lat="20.25194667" lon="-98.732825">
        <ele>2004.0</ele>
        <time>2019-10-12T15:23:50.876Z</time>
      </trkpt>
      <trkpt lat="20.25196333" lon="-98.73284">
        <ele>2004.0</ele>
        <time>2019-10-12T15:23:51.878Z</time>
      </trkpt>
      <trkpt lat="20.251975" lon="-98.73285667">
        <ele>2003.0</ele>
        <time>2019-10-12T15:23:52.882Z</time>
      </trkpt>
      <trkpt lat="20.25198667" lon="-98.732875">
        <ele>2003.0</ele>
        <time>2019-10-12T15:23:53.886Z</time>
      </trkpt>
      <trkpt lat="20.25199667" lon="-98.732895">
        <ele>2003.0</ele>
        <time>2019-10-12T15:23:54.894Z</time>
      </trkpt>
      <trkpt lat="20.25201167" lon="-98.73291167">
        <ele>2002.0</ele>
        <time>2019-10-12T15:23:55.902Z</time>
      </trkpt>
      <trkpt lat="20.25202667" lon="-98.73292667">
        <ele>2002.0</ele>
        <time>2019-10-12T15:23:56.909Z</time>
      </trkpt>
      <trkpt lat="20.25204333" lon="-98.73294">
        <ele>2002.0</ele>
        <time>2019-10-12T15:23:57.914Z</time>
      </trkpt>
      <trkpt lat="20.25205833" lon="-98.732955">
        <ele>2002.0</ele>
        <time>2019-10-12T15:23:58.915Z</time>
      </trkpt>
      <trkpt lat="20.252075" lon="-98.73296833">
        <ele>2002.0</ele>
        <time>2019-10-12T15:23:59.917Z</time>
      </trkpt>
      <trkpt lat="20.25209167" lon="-98.73298333">
        <ele>2001.0</ele>
        <time>2019-10-12T15:24:00.925Z</time>
      </trkpt>
      <trkpt lat="20.25210833" lon="-98.73299667">
        <ele>2001.0</ele>
        <time>2019-10-12T15:24:01.930Z</time>
      </trkpt>
      <trkpt lat="20.252125" lon="-98.73301">
        <ele>2002.0</ele>
        <time>2019-10-12T15:24:02.937Z</time>
      </trkpt>
      <trkpt lat="20.25213833" lon="-98.73301833">
        <ele>2002.0</ele>
        <time>2019-10-12T15:24:03.941Z</time>
      </trkpt>
      <trkpt lat="20.25215667" lon="-98.73302667">
        <ele>2003.0</ele>
        <time>2019-10-12T15:24:04.946Z</time>
      </trkpt>
      <trkpt lat="20.252175" lon="-98.73303167">
        <ele>2003.0</ele>
        <time>2019-10-12T15:24:05.951Z</time>
      </trkpt>
      <trkpt lat="20.25219333" lon="-98.73304167">
        <ele>2003.0</ele>
        <time>2019-10-12T15:24:06.831Z</time>
      </trkpt>
      <trkpt lat="20.25220833" lon="-98.73304833">
        <ele>2002.0</ele>
        <time>2019-10-12T15:24:07.838Z</time>
      </trkpt>
      <trkpt lat="20.25222333" lon="-98.73305167">
        <ele>2002.0</ele>
        <time>2019-10-12T15:24:08.842Z</time>
      </trkpt>
      <trkpt lat="20.25223333" lon="-98.733055">
        <ele>2002.0</ele>
        <time>2019-10-12T15:24:09.850Z</time>
      </trkpt>
      <trkpt lat="20.25224167" lon="-98.733055">
        <ele>2002.0</ele>
        <time>2019-10-12T15:24:10.856Z</time>
      </trkpt>
      <trkpt lat="20.25224667" lon="-98.733055">
        <ele>2002.0</ele>
        <time>2019-10-12T15:24:11.859Z</time>
      </trkpt>
      <trkpt lat="20.25225" lon="-98.73305167">
        <ele>2002.0</ele>
        <time>2019-10-12T15:24:12.860Z</time>
      </trkpt>
      <trkpt lat="20.25225333" lon="-98.73304833">
        <ele>2002.0</ele>
        <time>2019-10-12T15:24:13.860Z</time>
      </trkpt>
      <trkpt lat="20.252255" lon="-98.73304833">
        <ele>2003.0</ele>
        <time>2019-10-12T15:24:14.860Z</time>
      </trkpt>
      <trkpt lat="20.25225667" lon="-98.73304667">
        <ele>2004.0</ele>
        <time>2019-10-12T15:24:15.861Z</time>
      </trkpt>
      <trkpt lat="20.25225833" lon="-98.733045">
        <ele>2005.0</ele>
        <time>2019-10-12T15:24:16.861Z</time>
      </trkpt>
      <trkpt lat="20.25226" lon="-98.73304333">
        <ele>2006.0</ele>
        <time>2019-10-12T15:24:17.862Z</time>
      </trkpt>
      <trkpt lat="20.25226167" lon="-98.73304333">
        <ele>2007.0</ele>
        <time>2019-10-12T15:24:18.862Z</time>
      </trkpt>
      <trkpt lat="20.25226333" lon="-98.73304333">
        <ele>2008.0</ele>
        <time>2019-10-12T15:24:19.862Z</time>
      </trkpt>
      <trkpt lat="20.25226667" lon="-98.73304333">
        <ele>2008.0</ele>
        <time>2019-10-12T15:24:20.863Z</time>
      </trkpt>
      <trkpt lat="20.25227167" lon="-98.73303833">
        <ele>2008.0</ele>
        <time>2019-10-12T15:24:21.863Z</time>
      </trkpt>
      <trkpt lat="20.25228" lon="-98.73303167">
        <ele>2008.0</ele>
        <time>2019-10-12T15:24:22.863Z</time>
      </trkpt>
      <trkpt lat="20.25229333" lon="-98.73302833">
        <ele>2008.0</ele>
        <time>2019-10-12T15:24:23.863Z</time>
      </trkpt>
      <trkpt lat="20.25231167" lon="-98.733025">
        <ele>2008.0</ele>
        <time>2019-10-12T15:24:24.863Z</time>
      </trkpt>
      <trkpt lat="20.25233333" lon="-98.73302">
        <ele>2008.0</ele>
        <time>2019-10-12T15:24:25.863Z</time>
      </trkpt>
      <trkpt lat="20.25235333" lon="-98.733015">
        <ele>2008.0</ele>
        <time>2019-10-12T15:24:26.864Z</time>
      </trkpt>
      <trkpt lat="20.252375" lon="-98.733005">
        <ele>2008.0</ele>
        <time>2019-10-12T15:24:27.864Z</time>
      </trkpt>
      <trkpt lat="20.25239667" lon="-98.73299667">
        <ele>2008.0</ele>
        <time>2019-10-12T15:24:28.864Z</time>
      </trkpt>
      <trkpt lat="20.25241667" lon="-98.73298667">
        <ele>2008.0</ele>
        <time>2019-10-12T15:24:29.865Z</time>
      </trkpt>
      <trkpt lat="20.25243667" lon="-98.73297333">
        <ele>2007.0</ele>
        <time>2019-10-12T15:24:30.865Z</time>
      </trkpt>
      <trkpt lat="20.252455" lon="-98.73296333">
        <ele>2007.0</ele>
        <time>2019-10-12T15:24:31.865Z</time>
      </trkpt>
      <trkpt lat="20.25247667" lon="-98.73295">
        <ele>2007.0</ele>
        <time>2019-10-12T15:24:32.866Z</time>
      </trkpt>
      <trkpt lat="20.25249667" lon="-98.73293833">
        <ele>2007.0</ele>
        <time>2019-10-12T15:24:33.866Z</time>
      </trkpt>
      <trkpt lat="20.25251833" lon="-98.73292833">
        <ele>2007.0</ele>
        <time>2019-10-12T15:24:34.866Z</time>
      </trkpt>
      <trkpt lat="20.25254167" lon="-98.732925">
        <ele>2007.0</ele>
        <time>2019-10-12T15:24:35.867Z</time>
      </trkpt>
      <trkpt lat="20.25255833" lon="-98.73293">
        <ele>2007.0</ele>
        <time>2019-10-12T15:24:36.867Z</time>
      </trkpt>
      <trkpt lat="20.25258167" lon="-98.73293833">
        <ele>2007.0</ele>
        <time>2019-10-12T15:24:37.867Z</time>
      </trkpt>
      <trkpt lat="20.25260667" lon="-98.732945">
        <ele>2006.0</ele>
        <time>2019-10-12T15:24:38.868Z</time>
      </trkpt>
      <trkpt lat="20.25263167" lon="-98.73295333">
        <ele>2006.0</ele>
        <time>2019-10-12T15:24:39.868Z</time>
      </trkpt>
      <trkpt lat="20.25265833" lon="-98.73295667">
        <ele>2005.0</ele>
        <time>2019-10-12T15:24:40.868Z</time>
      </trkpt>
      <trkpt lat="20.25268167" lon="-98.73296167">
        <ele>2005.0</ele>
        <time>2019-10-12T15:24:41.869Z</time>
      </trkpt>
      <trkpt lat="20.252705" lon="-98.73296">
        <ele>2005.0</ele>
        <time>2019-10-12T15:24:42.869Z</time>
      </trkpt>
      <trkpt lat="20.25272667" lon="-98.73295667">
        <ele>2005.0</ele>
        <time>2019-10-12T15:24:43.869Z</time>
      </trkpt>
      <trkpt lat="20.25274667" lon="-98.732955">
        <ele>2005.0</ele>
        <time>2019-10-12T15:24:44.870Z</time>
      </trkpt>
      <trkpt lat="20.25276667" lon="-98.73295333">
        <ele>2005.0</ele>
        <time>2019-10-12T15:24:45.870Z</time>
      </trkpt>
      <trkpt lat="20.25278333" lon="-98.73295167">
        <ele>2005.0</ele>
        <time>2019-10-12T15:24:46.870Z</time>
      </trkpt>
      <trkpt lat="20.25280333" lon="-98.73295">
        <ele>2004.0</ele>
        <time>2019-10-12T15:24:47.871Z</time>
      </trkpt>
      <trkpt lat="20.25281833" lon="-98.73295167">
        <ele>2004.0</ele>
        <time>2019-10-12T15:24:48.871Z</time>
      </trkpt>
      <trkpt lat="20.25283667" lon="-98.73295167">
        <ele>2004.0</ele>
        <time>2019-10-12T15:24:49.871Z</time>
      </trkpt>
      <trkpt lat="20.25285333" lon="-98.73295167">
        <ele>2004.0</ele>
        <time>2019-10-12T15:24:50.872Z</time>
      </trkpt>
      <trkpt lat="20.25286833" lon="-98.73295">
        <ele>2004.0</ele>
        <time>2019-10-12T15:24:51.872Z</time>
      </trkpt>
      <trkpt lat="20.252885" lon="-98.73294667">
        <ele>2004.0</ele>
        <time>2019-10-12T15:24:52.872Z</time>
      </trkpt>
      <trkpt lat="20.25290167" lon="-98.732945">
        <ele>2004.0</ele>
        <time>2019-10-12T15:24:53.873Z</time>
      </trkpt>
      <trkpt lat="20.25291833" lon="-98.73295167">
        <ele>2004.0</ele>
        <time>2019-10-12T15:24:54.873Z</time>
      </trkpt>
      <trkpt lat="20.25293333" lon="-98.732965">
        <ele>2004.0</ele>
        <time>2019-10-12T15:24:55.873Z</time>
      </trkpt>
      <trkpt lat="20.25294833" lon="-98.73298">
        <ele>2003.0</ele>
        <time>2019-10-12T15:24:56.874Z</time>
      </trkpt>
      <trkpt lat="20.25296167" lon="-98.73299833">
        <ele>2003.0</ele>
        <time>2019-10-12T15:24:57.874Z</time>
      </trkpt>
      <trkpt lat="20.252975" lon="-98.73301833">
        <ele>2003.0</ele>
        <time>2019-10-12T15:24:58.874Z</time>
      </trkpt>
      <trkpt lat="20.25299" lon="-98.733035">
        <ele>2003.0</ele>
        <time>2019-10-12T15:24:59.875Z</time>
      </trkpt>
      <trkpt lat="20.25300333" lon="-98.73305667">
        <ele>2002.0</ele>
        <time>2019-10-12T15:25:00.875Z</time>
      </trkpt>
      <trkpt lat="20.25301833" lon="-98.73307833">
        <ele>2001.0</ele>
        <time>2019-10-12T15:25:01.875Z</time>
      </trkpt>
      <trkpt lat="20.25303333" lon="-98.73309667">
        <ele>2001.0</ele>
        <time>2019-10-12T15:25:02.876Z</time>
      </trkpt>
      <trkpt lat="20.25304833" lon="-98.733115">
        <ele>2001.0</ele>
        <time>2019-10-12T15:25:03.876Z</time>
      </trkpt>
      <trkpt lat="20.253065" lon="-98.73313">
        <ele>2001.0</ele>
        <time>2019-10-12T15:25:04.876Z</time>
      </trkpt>
      <trkpt lat="20.25308333" lon="-98.73314167">
        <ele>2000.0</ele>
        <time>2019-10-12T15:25:05.877Z</time>
      </trkpt>
      <trkpt lat="20.25310167" lon="-98.73315333">
        <ele>2000.0</ele>
        <time>2019-10-12T15:25:06.877Z</time>
      </trkpt>
      <trkpt lat="20.25312167" lon="-98.73316833">
        <ele>2000.0</ele>
        <time>2019-10-12T15:25:07.877Z</time>
      </trkpt>
      <trkpt lat="20.25314167" lon="-98.73318667">
        <ele>2001.0</ele>
        <time>2019-10-12T15:25:08.878Z</time>
      </trkpt>
      <trkpt lat="20.253165" lon="-98.73320333">
        <ele>2001.0</ele>
        <time>2019-10-12T15:25:09.878Z</time>
      </trkpt>
      <trkpt lat="20.25319" lon="-98.73322333">
        <ele>2001.0</ele>
        <time>2019-10-12T15:25:10.878Z</time>
      </trkpt>
      <trkpt lat="20.25320667" lon="-98.73323">
        <ele>2001.0</ele>
        <time>2019-10-12T15:25:11.879Z</time>
      </trkpt>
      <trkpt lat="20.25322833" lon="-98.73324">
        <ele>2001.0</ele>
        <time>2019-10-12T15:25:12.879Z</time>
      </trkpt>
      <trkpt lat="20.25325333" lon="-98.73324833">
        <ele>2001.0</ele>
        <time>2019-10-12T15:25:13.879Z</time>
      </trkpt>
      <trkpt lat="20.25326833" lon="-98.733255">
        <ele>2001.0</ele>
        <time>2019-10-12T15:25:14.880Z</time>
      </trkpt>
      <trkpt lat="20.25329" lon="-98.73326333">
        <ele>2001.0</ele>
        <time>2019-10-12T15:25:15.880Z</time>
      </trkpt>
      <trkpt lat="20.25330333" lon="-98.73326833">
        <ele>2000.0</ele>
        <time>2019-10-12T15:25:16.880Z</time>
      </trkpt>
      <trkpt lat="20.25332333" lon="-98.73327667">
        <ele>2000.0</ele>
        <time>2019-10-12T15:25:17.881Z</time>
      </trkpt>
      <trkpt lat="20.25333833" lon="-98.73328">
        <ele>1999.0</ele>
        <time>2019-10-12T15:25:18.881Z</time>
      </trkpt>
      <trkpt lat="20.25335833" lon="-98.733285">
        <ele>1999.0</ele>
        <time>2019-10-12T15:25:19.881Z</time>
      </trkpt>
      <trkpt lat="20.25338333" lon="-98.73328667">
        <ele>1998.0</ele>
        <time>2019-10-12T15:25:20.882Z</time>
      </trkpt>
      <trkpt lat="20.25340333" lon="-98.73328667">
        <ele>1998.0</ele>
        <time>2019-10-12T15:25:21.882Z</time>
      </trkpt>
      <trkpt lat="20.25342" lon="-98.733285">
        <ele>1998.0</ele>
        <time>2019-10-12T15:25:22.882Z</time>
      </trkpt>
      <trkpt lat="20.25344167" lon="-98.73327667">
        <ele>1998.0</ele>
        <time>2019-10-12T15:25:23.883Z</time>
      </trkpt>
      <trkpt lat="20.25346" lon="-98.733265">
        <ele>1997.0</ele>
        <time>2019-10-12T15:25:24.883Z</time>
      </trkpt>
      <trkpt lat="20.25347833" lon="-98.733255">
        <ele>1997.0</ele>
        <time>2019-10-12T15:25:25.883Z</time>
      </trkpt>
      <trkpt lat="20.253495" lon="-98.73324167">
        <ele>1997.0</ele>
        <time>2019-10-12T15:25:26.884Z</time>
      </trkpt>
      <trkpt lat="20.25351333" lon="-98.73322833">
        <ele>1997.0</ele>
        <time>2019-10-12T15:25:27.884Z</time>
      </trkpt>
      <trkpt lat="20.25352833" lon="-98.73321667">
        <ele>1997.0</ele>
        <time>2019-10-12T15:25:28.884Z</time>
      </trkpt>
      <trkpt lat="20.25355" lon="-98.73320167">
        <ele>1996.0</ele>
        <time>2019-10-12T15:25:29.885Z</time>
      </trkpt>
      <trkpt lat="20.25357" lon="-98.73319">
        <ele>1995.0</ele>
        <time>2019-10-12T15:25:30.885Z</time>
      </trkpt>
      <trkpt lat="20.253585" lon="-98.733175">
        <ele>1995.0</ele>
        <time>2019-10-12T15:25:31.885Z</time>
      </trkpt>
      <trkpt lat="20.25359667" lon="-98.733155">
        <ele>1994.0</ele>
        <time>2019-10-12T15:25:32.886Z</time>
      </trkpt>
      <trkpt lat="20.25360833" lon="-98.73314">
        <ele>1993.0</ele>
        <time>2019-10-12T15:25:33.886Z</time>
      </trkpt>
      <trkpt lat="20.25362333" lon="-98.73312833">
        <ele>1992.0</ele>
        <time>2019-10-12T15:25:34.886Z</time>
      </trkpt>
      <trkpt lat="20.25364167" lon="-98.733115">
        <ele>1992.0</ele>
        <time>2019-10-12T15:25:35.887Z</time>
      </trkpt>
      <trkpt lat="20.25366167" lon="-98.7331">
        <ele>1991.0</ele>
        <time>2019-10-12T15:25:36.887Z</time>
      </trkpt>
      <trkpt lat="20.25368167" lon="-98.733085">
        <ele>1991.0</ele>
        <time>2019-10-12T15:25:37.887Z</time>
      </trkpt>
      <trkpt lat="20.2537" lon="-98.73306833">
        <ele>1991.0</ele>
        <time>2019-10-12T15:25:38.887Z</time>
      </trkpt>
      <trkpt lat="20.253715" lon="-98.73305">
        <ele>1990.0</ele>
        <time>2019-10-12T15:25:39.887Z</time>
      </trkpt>
      <trkpt lat="20.25373333" lon="-98.73303167">
        <ele>1990.0</ele>
        <time>2019-10-12T15:25:40.888Z</time>
      </trkpt>
      <trkpt lat="20.253745" lon="-98.73302167">
        <ele>1990.0</ele>
        <time>2019-10-12T15:25:41.888Z</time>
      </trkpt>
      <trkpt lat="20.25376167" lon="-98.73300167">
        <ele>1988.0</ele>
        <time>2019-10-12T15:25:42.889Z</time>
      </trkpt>
      <trkpt lat="20.253775" lon="-98.73298333">
        <ele>1986.0</ele>
        <time>2019-10-12T15:25:43.889Z</time>
      </trkpt>
      <trkpt lat="20.25378333" lon="-98.732965">
        <ele>1985.0</ele>
        <time>2019-10-12T15:25:44.890Z</time>
      </trkpt>
      <trkpt lat="20.2538" lon="-98.73294667">
        <ele>1984.0</ele>
        <time>2019-10-12T15:25:45.890Z</time>
      </trkpt>
      <trkpt lat="20.25380833" lon="-98.73292667">
        <ele>1983.0</ele>
        <time>2019-10-12T15:25:46.890Z</time>
      </trkpt>
      <trkpt lat="20.25381167" lon="-98.73290833">
        <ele>1982.0</ele>
        <time>2019-10-12T15:25:47.890Z</time>
      </trkpt>
      <trkpt lat="20.25381167" lon="-98.73289667">
        <ele>1982.0</ele>
        <time>2019-10-12T15:25:48.891Z</time>
      </trkpt>
      <trkpt lat="20.25381833" lon="-98.73289667">
        <ele>1982.0</ele>
        <time>2019-10-12T15:25:49.891Z</time>
      </trkpt>
      <trkpt lat="20.25382667" lon="-98.73290333">
        <ele>1983.0</ele>
        <time>2019-10-12T15:25:50.891Z</time>
      </trkpt>
      <trkpt lat="20.25383333" lon="-98.73291333">
        <ele>1983.0</ele>
        <time>2019-10-12T15:25:51.892Z</time>
      </trkpt>
      <trkpt lat="20.25384" lon="-98.73292667">
        <ele>1982.0</ele>
        <time>2019-10-12T15:25:52.892Z</time>
      </trkpt>
      <trkpt lat="20.253845" lon="-98.73294">
        <ele>1982.0</ele>
        <time>2019-10-12T15:25:53.892Z</time>
      </trkpt>
      <trkpt lat="20.25384833" lon="-98.73295333">
        <ele>1983.0</ele>
        <time>2019-10-12T15:25:54.893Z</time>
      </trkpt>
      <trkpt lat="20.25385333" lon="-98.73296333">
        <ele>1983.0</ele>
        <time>2019-10-12T15:25:55.893Z</time>
      </trkpt>
      <trkpt lat="20.25385667" lon="-98.73297667">
        <ele>1983.0</ele>
        <time>2019-10-12T15:25:56.893Z</time>
      </trkpt>
      <trkpt lat="20.25386" lon="-98.73299667">
        <ele>1983.0</ele>
        <time>2019-10-12T15:25:57.894Z</time>
      </trkpt>
      <trkpt lat="20.25386667" lon="-98.73301667">
        <ele>1983.0</ele>
        <time>2019-10-12T15:25:58.894Z</time>
      </trkpt>
      <trkpt lat="20.25387167" lon="-98.733025">
        <ele>1984.0</ele>
        <time>2019-10-12T15:25:59.894Z</time>
      </trkpt>
      <trkpt lat="20.25388" lon="-98.73302833">
        <ele>1984.0</ele>
        <time>2019-10-12T15:26:00.895Z</time>
      </trkpt>
      <trkpt lat="20.253885" lon="-98.73302333">
        <ele>1984.0</ele>
        <time>2019-10-12T15:26:01.895Z</time>
      </trkpt>
      <trkpt lat="20.25389167" lon="-98.73301667">
        <ele>1985.0</ele>
        <time>2019-10-12T15:26:02.895Z</time>
      </trkpt>
      <trkpt lat="20.25389833" lon="-98.73301167">
        <ele>1984.0</ele>
        <time>2019-10-12T15:26:03.896Z</time>
      </trkpt>
      <trkpt lat="20.2539" lon="-98.733005">
        <ele>1984.0</ele>
        <time>2019-10-12T15:26:04.899Z</time>
      </trkpt>
      <trkpt lat="20.25390833" lon="-98.73299833">
        <ele>1984.0</ele>
        <time>2019-10-12T15:26:05.905Z</time>
      </trkpt>
      <trkpt lat="20.253915" lon="-98.73299833">
        <ele>1983.0</ele>
        <time>2019-10-12T15:26:06.910Z</time>
      </trkpt>
      <trkpt lat="20.25391833" lon="-98.733">
        <ele>1983.0</ele>
        <time>2019-10-12T15:26:07.915Z</time>
      </trkpt>
      <trkpt lat="20.253925" lon="-98.73301">
        <ele>1983.0</ele>
        <time>2019-10-12T15:26:08.918Z</time>
      </trkpt>
      <trkpt lat="20.25393167" lon="-98.73302167">
        <ele>1982.0</ele>
        <time>2019-10-12T15:26:09.919Z</time>
      </trkpt>
      <trkpt lat="20.25393833" lon="-98.733035">
        <ele>1982.0</ele>
        <time>2019-10-12T15:26:10.922Z</time>
      </trkpt>
      <trkpt lat="20.253945" lon="-98.73304833">
        <ele>1982.0</ele>
        <time>2019-10-12T15:26:11.927Z</time>
      </trkpt>
      <trkpt lat="20.25395167" lon="-98.73306167">
        <ele>1982.0</ele>
        <time>2019-10-12T15:26:12.932Z</time>
      </trkpt>
      <trkpt lat="20.25395333" lon="-98.73307667">
        <ele>1982.0</ele>
        <time>2019-10-12T15:26:13.939Z</time>
      </trkpt>
      <trkpt lat="20.253955" lon="-98.73309667">
        <ele>1981.0</ele>
        <time>2019-10-12T15:26:14.945Z</time>
      </trkpt>
      <trkpt lat="20.25395833" lon="-98.73312167">
        <ele>1981.0</ele>
        <time>2019-10-12T15:26:15.948Z</time>
      </trkpt>
      <trkpt lat="20.25396667" lon="-98.73314167">
        <ele>1981.0</ele>
        <time>2019-10-12T15:26:16.953Z</time>
      </trkpt>
      <trkpt lat="20.25398" lon="-98.73315">
        <ele>1981.0</ele>
        <time>2019-10-12T15:26:17.833Z</time>
      </trkpt>
      <trkpt lat="20.25399833" lon="-98.73315333">
        <ele>1980.0</ele>
        <time>2019-10-12T15:26:18.838Z</time>
      </trkpt>
      <trkpt lat="20.25402167" lon="-98.733155">
        <ele>1980.0</ele>
        <time>2019-10-12T15:26:19.838Z</time>
      </trkpt>
      <trkpt lat="20.25403833" lon="-98.73315">
        <ele>1980.0</ele>
        <time>2019-10-12T15:26:20.838Z</time>
      </trkpt>
      <trkpt lat="20.25405333" lon="-98.73313167">
        <ele>1979.0</ele>
        <time>2019-10-12T15:26:21.839Z</time>
      </trkpt>
      <trkpt lat="20.254065" lon="-98.733115">
        <ele>1978.0</ele>
        <time>2019-10-12T15:26:22.839Z</time>
      </trkpt>
      <trkpt lat="20.25407333" lon="-98.73310833">
        <ele>1978.0</ele>
        <time>2019-10-12T15:26:23.839Z</time>
      </trkpt>
      <trkpt lat="20.25408167" lon="-98.73311">
        <ele>1979.0</ele>
        <time>2019-10-12T15:26:24.841Z</time>
      </trkpt>
      <trkpt lat="20.254085" lon="-98.73312">
        <ele>1979.0</ele>
        <time>2019-10-12T15:26:25.847Z</time>
      </trkpt>
      <trkpt lat="20.25408667" lon="-98.73312833">
        <ele>1979.0</ele>
        <time>2019-10-12T15:26:26.851Z</time>
      </trkpt>
      <trkpt lat="20.25408833" lon="-98.73314167">
        <ele>1979.0</ele>
        <time>2019-10-12T15:26:27.856Z</time>
      </trkpt>
      <trkpt lat="20.25409" lon="-98.733155">
        <ele>1979.0</ele>
        <time>2019-10-12T15:26:28.862Z</time>
      </trkpt>
      <trkpt lat="20.25409" lon="-98.73316167">
        <ele>1978.0</ele>
        <time>2019-10-12T15:26:29.864Z</time>
      </trkpt>
      <trkpt lat="20.25408667" lon="-98.73317667">
        <ele>1978.0</ele>
        <time>2019-10-12T15:26:30.870Z</time>
      </trkpt>
      <trkpt lat="20.25408" lon="-98.73319">
        <ele>1977.0</ele>
        <time>2019-10-12T15:26:31.875Z</time>
      </trkpt>
      <trkpt lat="20.25407333" lon="-98.73320333">
        <ele>1975.0</ele>
        <time>2019-10-12T15:26:32.878Z</time>
      </trkpt>
      <trkpt lat="20.25406333" lon="-98.73322">
        <ele>1974.0</ele>
        <time>2019-10-12T15:26:33.885Z</time>
      </trkpt>
      <trkpt lat="20.25406167" lon="-98.73323833">
        <ele>1974.0</ele>
        <time>2019-10-12T15:26:34.890Z</time>
      </trkpt>
      <trkpt lat="20.25406833" lon="-98.733255">
        <ele>1974.0</ele>
        <time>2019-10-12T15:26:35.890Z</time>
      </trkpt>
      <trkpt lat="20.25408" lon="-98.73327">
        <ele>1974.0</ele>
        <time>2019-10-12T15:26:36.894Z</time>
      </trkpt>
      <trkpt lat="20.254095" lon="-98.73328167">
        <ele>1974.0</ele>
        <time>2019-10-12T15:26:37.899Z</time>
      </trkpt>
      <trkpt lat="20.254115" lon="-98.73329">
        <ele>1974.0</ele>
        <time>2019-10-12T15:26:38.903Z</time>
      </trkpt>
      <trkpt lat="20.25413333" lon="-98.733295">
        <ele>1973.0</ele>
        <time>2019-10-12T15:26:39.907Z</time>
      </trkpt>
      <trkpt lat="20.25414833" lon="-98.733305">
        <ele>1972.0</ele>
        <time>2019-10-12T15:26:40.907Z</time>
      </trkpt>
      <trkpt lat="20.25416667" lon="-98.73332">
        <ele>1971.0</ele>
        <time>2019-10-12T15:26:41.907Z</time>
      </trkpt>
      <trkpt lat="20.25419" lon="-98.73333333">
        <ele>1971.0</ele>
        <time>2019-10-12T15:26:42.908Z</time>
      </trkpt>
      <trkpt lat="20.25421667" lon="-98.73335">
        <ele>1970.0</ele>
        <time>2019-10-12T15:26:43.908Z</time>
      </trkpt>
      <trkpt lat="20.25423833" lon="-98.733365">
        <ele>1969.0</ele>
        <time>2019-10-12T15:26:44.908Z</time>
      </trkpt>
      <trkpt lat="20.254255" lon="-98.73337333">
        <ele>1967.0</ele>
        <time>2019-10-12T15:26:45.909Z</time>
      </trkpt>
      <trkpt lat="20.254275" lon="-98.73338">
        <ele>1967.0</ele>
        <time>2019-10-12T15:26:46.909Z</time>
      </trkpt>
      <trkpt lat="20.25429667" lon="-98.73338333">
        <ele>1966.0</ele>
        <time>2019-10-12T15:26:47.909Z</time>
      </trkpt>
      <trkpt lat="20.25432" lon="-98.73338667">
        <ele>1966.0</ele>
        <time>2019-10-12T15:26:48.909Z</time>
      </trkpt>
      <trkpt lat="20.25434333" lon="-98.733395">
        <ele>1966.0</ele>
        <time>2019-10-12T15:26:49.910Z</time>
      </trkpt>
      <trkpt lat="20.25437167" lon="-98.733405">
        <ele>1966.0</ele>
        <time>2019-10-12T15:26:50.910Z</time>
      </trkpt>
      <trkpt lat="20.254395" lon="-98.73340833">
        <ele>1966.0</ele>
        <time>2019-10-12T15:26:51.910Z</time>
      </trkpt>
      <trkpt lat="20.254415" lon="-98.733405">
        <ele>1966.0</ele>
        <time>2019-10-12T15:26:52.910Z</time>
      </trkpt>
      <trkpt lat="20.25442667" lon="-98.73339833">
        <ele>1966.0</ele>
        <time>2019-10-12T15:26:53.911Z</time>
      </trkpt>
      <trkpt lat="20.25443333" lon="-98.73339167">
        <ele>1965.0</ele>
        <time>2019-10-12T15:26:54.916Z</time>
      </trkpt>
      <trkpt lat="20.254445" lon="-98.73338667">
        <ele>1964.0</ele>
        <time>2019-10-12T15:26:55.921Z</time>
      </trkpt>
      <trkpt lat="20.25445833" lon="-98.733385">
        <ele>1964.0</ele>
        <time>2019-10-12T15:26:56.927Z</time>
      </trkpt>
      <trkpt lat="20.25447667" lon="-98.733385">
        <ele>1964.0</ele>
        <time>2019-10-12T15:26:57.931Z</time>
      </trkpt>
      <trkpt lat="20.25448833" lon="-98.73338333">
        <ele>1963.0</ele>
        <time>2019-10-12T15:26:58.936Z</time>
      </trkpt>
      <trkpt lat="20.2545" lon="-98.73338">
        <ele>1963.0</ele>
        <time>2019-10-12T15:26:59.941Z</time>
      </trkpt>
      <trkpt lat="20.25451" lon="-98.73337">
        <ele>1962.0</ele>
        <time>2019-10-12T15:27:00.944Z</time>
      </trkpt>
      <trkpt lat="20.25452" lon="-98.73335167">
        <ele>1961.0</ele>
        <time>2019-10-12T15:27:01.949Z</time>
      </trkpt>
      <trkpt lat="20.25453" lon="-98.73333167">
        <ele>1960.0</ele>
        <time>2019-10-12T15:27:02.830Z</time>
      </trkpt>
      <trkpt lat="20.25454" lon="-98.733315">
        <ele>1960.0</ele>
        <time>2019-10-12T15:27:03.837Z</time>
      </trkpt>
      <trkpt lat="20.25455" lon="-98.73330167">
        <ele>1960.0</ele>
        <time>2019-10-12T15:27:04.844Z</time>
      </trkpt>
      <trkpt lat="20.25455" lon="-98.73327833">
        <ele>1959.0</ele>
        <time>2019-10-12T15:27:05.850Z</time>
      </trkpt>
      <trkpt lat="20.25454667" lon="-98.733255">
        <ele>1960.0</ele>
        <time>2019-10-12T15:27:06.851Z</time>
      </trkpt>
      <trkpt lat="20.25454667" lon="-98.73323167">
        <ele>1961.0</ele>
        <time>2019-10-12T15:27:07.852Z</time>
      </trkpt>
      <trkpt lat="20.25454667" lon="-98.73321167">
        <ele>1962.0</ele>
        <time>2019-10-12T15:27:08.852Z</time>
      </trkpt>
      <trkpt lat="20.254545" lon="-98.73319167">
        <ele>1961.0</ele>
        <time>2019-10-12T15:27:09.852Z</time>
      </trkpt>
      <trkpt lat="20.254545" lon="-98.73318">
        <ele>1962.0</ele>
        <time>2019-10-12T15:27:10.852Z</time>
      </trkpt>
      <trkpt lat="20.25454667" lon="-98.73317167">
        <ele>1961.0</ele>
        <time>2019-10-12T15:27:11.852Z</time>
      </trkpt>
      <trkpt lat="20.25455167" lon="-98.73317333">
        <ele>1960.0</ele>
        <time>2019-10-12T15:27:12.852Z</time>
      </trkpt>
      <trkpt lat="20.25456333" lon="-98.73318167">
        <ele>1958.0</ele>
        <time>2019-10-12T15:27:13.852Z</time>
      </trkpt>
      <trkpt lat="20.25457167" lon="-98.73317167">
        <ele>1957.0</ele>
        <time>2019-10-12T15:27:14.853Z</time>
      </trkpt>
      <trkpt lat="20.25457167" lon="-98.733165">
        <ele>1957.0</ele>
        <time>2019-10-12T15:27:15.853Z</time>
      </trkpt>
      <trkpt lat="20.25457333" lon="-98.73315667">
        <ele>1956.0</ele>
        <time>2019-10-12T15:27:16.854Z</time>
      </trkpt>
      <trkpt lat="20.25457667" lon="-98.733145">
        <ele>1955.0</ele>
        <time>2019-10-12T15:27:17.859Z</time>
      </trkpt>
      <trkpt lat="20.25457333" lon="-98.73313167">
        <ele>1954.0</ele>
        <time>2019-10-12T15:27:18.861Z</time>
      </trkpt>
      <trkpt lat="20.25457167" lon="-98.73311667">
        <ele>1953.0</ele>
        <time>2019-10-12T15:27:19.863Z</time>
      </trkpt>
      <trkpt lat="20.25457167" lon="-98.73309667">
        <ele>1953.0</ele>
        <time>2019-10-12T15:27:20.867Z</time>
      </trkpt>
      <trkpt lat="20.25457" lon="-98.73307833">
        <ele>1953.0</ele>
        <time>2019-10-12T15:27:21.872Z</time>
      </trkpt>
      <trkpt lat="20.25457" lon="-98.73305833">
        <ele>1953.0</ele>
        <time>2019-10-12T15:27:22.878Z</time>
      </trkpt>
      <trkpt lat="20.25456833" lon="-98.73302833">
        <ele>1953.0</ele>
        <time>2019-10-12T15:27:23.883Z</time>
      </trkpt>
      <trkpt lat="20.25456667" lon="-98.73300333">
        <ele>1953.0</ele>
        <time>2019-10-12T15:27:24.890Z</time>
      </trkpt>
      <trkpt lat="20.254565" lon="-98.73298">
        <ele>1953.0</ele>
        <time>2019-10-12T15:27:25.896Z</time>
      </trkpt>
      <trkpt lat="20.25456333" lon="-98.732955">
        <ele>1952.0</ele>
        <time>2019-10-12T15:27:26.902Z</time>
      </trkpt>
      <trkpt lat="20.25456333" lon="-98.732935">
        <ele>1952.0</ele>
        <time>2019-10-12T15:27:27.905Z</time>
      </trkpt>
      <trkpt lat="20.25456167" lon="-98.73290833">
        <ele>1951.0</ele>
        <time>2019-10-12T15:27:28.909Z</time>
      </trkpt>
      <trkpt lat="20.25456333" lon="-98.732885">
        <ele>1951.0</ele>
        <time>2019-10-12T15:27:29.915Z</time>
      </trkpt>
      <trkpt lat="20.254565" lon="-98.73286667">
        <ele>1950.0</ele>
        <time>2019-10-12T15:27:30.921Z</time>
      </trkpt>
      <trkpt lat="20.25456833" lon="-98.732855">
        <ele>1949.0</ele>
        <time>2019-10-12T15:27:31.929Z</time>
      </trkpt>
      <trkpt lat="20.25457" lon="-98.732835">
        <ele>1948.0</ele>
        <time>2019-10-12T15:27:32.936Z</time>
      </trkpt>
      <trkpt lat="20.25456833" lon="-98.73282">
        <ele>1946.0</ele>
        <time>2019-10-12T15:27:33.943Z</time>
      </trkpt>
      <trkpt lat="20.25456667" lon="-98.73280333">
        <ele>1945.0</ele>
        <time>2019-10-12T15:27:34.949Z</time>
      </trkpt>
      <trkpt lat="20.25456667" lon="-98.73278333">
        <ele>1944.0</ele>
        <time>2019-10-12T15:27:35.955Z</time>
      </trkpt>
      <trkpt lat="20.25456167" lon="-98.73276667">
        <ele>1944.0</ele>
        <time>2019-10-12T15:27:36.835Z</time>
      </trkpt>
      <trkpt lat="20.25455833" lon="-98.73274833">
        <ele>1943.0</ele>
        <time>2019-10-12T15:27:37.840Z</time>
      </trkpt>
      <trkpt lat="20.254555" lon="-98.73272333">
        <ele>1942.0</ele>
        <time>2019-10-12T15:27:38.848Z</time>
      </trkpt>
      <trkpt lat="20.25455667" lon="-98.732705">
        <ele>1943.0</ele>
        <time>2019-10-12T15:27:39.853Z</time>
      </trkpt>
      <trkpt lat="20.25455333" lon="-98.73268167">
        <ele>1942.0</ele>
        <time>2019-10-12T15:27:40.859Z</time>
      </trkpt>
      <trkpt lat="20.25454833" lon="-98.732655">
        <ele>1941.0</ele>
        <time>2019-10-12T15:27:41.859Z</time>
      </trkpt>
      <trkpt lat="20.25454667" lon="-98.73262333">
        <ele>1940.0</ele>
        <time>2019-10-12T15:27:42.859Z</time>
      </trkpt>
      <trkpt lat="20.254545" lon="-98.73259833">
        <ele>1940.0</ele>
        <time>2019-10-12T15:27:43.859Z</time>
      </trkpt>
      <trkpt lat="20.25454667" lon="-98.73257">
        <ele>1940.0</ele>
        <time>2019-10-12T15:27:44.860Z</time>
      </trkpt>
      <trkpt lat="20.25455167" lon="-98.73253167">
        <ele>1938.0</ele>
        <time>2019-10-12T15:27:45.860Z</time>
      </trkpt>
      <trkpt lat="20.25456" lon="-98.73250333">
        <ele>1937.0</ele>
        <time>2019-10-12T15:27:46.860Z</time>
      </trkpt>
      <trkpt lat="20.25456333" lon="-98.73247">
        <ele>1936.0</ele>
        <time>2019-10-12T15:27:47.861Z</time>
      </trkpt>
      <trkpt lat="20.254575" lon="-98.73244167">
        <ele>1936.0</ele>
        <time>2019-10-12T15:27:48.864Z</time>
      </trkpt>
      <trkpt lat="20.25458667" lon="-98.73241">
        <ele>1936.0</ele>
        <time>2019-10-12T15:27:49.872Z</time>
      </trkpt>
      <trkpt lat="20.2546" lon="-98.73237833">
        <ele>1935.0</ele>
        <time>2019-10-12T15:27:50.878Z</time>
      </trkpt>
      <trkpt lat="20.25461167" lon="-98.73234833">
        <ele>1934.0</ele>
        <time>2019-10-12T15:27:51.885Z</time>
      </trkpt>
      <trkpt lat="20.25461667" lon="-98.732325">
        <ele>1935.0</ele>
        <time>2019-10-12T15:27:52.892Z</time>
      </trkpt>
      <trkpt lat="20.25461833" lon="-98.7323">
        <ele>1934.0</ele>
        <time>2019-10-12T15:27:53.898Z</time>
      </trkpt>
      <trkpt lat="20.25462167" lon="-98.73227167">
        <ele>1933.0</ele>
        <time>2019-10-12T15:27:54.904Z</time>
      </trkpt>
      <trkpt lat="20.25462167" lon="-98.73224833">
        <ele>1932.0</ele>
        <time>2019-10-12T15:27:55.907Z</time>
      </trkpt>
      <trkpt lat="20.25462333" lon="-98.73222167">
        <ele>1931.0</ele>
        <time>2019-10-12T15:27:56.912Z</time>
      </trkpt>
      <trkpt lat="20.25462833" lon="-98.73219667">
        <ele>1931.0</ele>
        <time>2019-10-12T15:27:57.917Z</time>
      </trkpt>
      <trkpt lat="20.25463167" lon="-98.73217667">
        <ele>1931.0</ele>
        <time>2019-10-12T15:27:58.923Z</time>
      </trkpt>
      <trkpt lat="20.25464333" lon="-98.73214833">
        <ele>1931.0</ele>
        <time>2019-10-12T15:27:59.925Z</time>
      </trkpt>
      <trkpt lat="20.254645" lon="-98.73212167">
        <ele>1931.0</ele>
        <time>2019-10-12T15:28:00.925Z</time>
      </trkpt>
      <trkpt lat="20.254645" lon="-98.7321">
        <ele>1931.0</ele>
        <time>2019-10-12T15:28:01.925Z</time>
      </trkpt>
      <trkpt lat="20.25464833" lon="-98.73208">
        <ele>1931.0</ele>
        <time>2019-10-12T15:28:02.926Z</time>
      </trkpt>
      <trkpt lat="20.254655" lon="-98.73206167">
        <ele>1931.0</ele>
        <time>2019-10-12T15:28:03.926Z</time>
      </trkpt>
      <trkpt lat="20.25466333" lon="-98.73203833">
        <ele>1930.0</ele>
        <time>2019-10-12T15:28:04.926Z</time>
      </trkpt>
      <trkpt lat="20.25466833" lon="-98.73201833">
        <ele>1930.0</ele>
        <time>2019-10-12T15:28:05.926Z</time>
      </trkpt>
      <trkpt lat="20.25467333" lon="-98.732">
        <ele>1930.0</ele>
        <time>2019-10-12T15:28:06.927Z</time>
      </trkpt>
      <trkpt lat="20.25468167" lon="-98.73198167">
        <ele>1930.0</ele>
        <time>2019-10-12T15:28:07.932Z</time>
      </trkpt>
      <trkpt lat="20.25469333" lon="-98.73195667">
        <ele>1929.0</ele>
        <time>2019-10-12T15:28:08.934Z</time>
      </trkpt>
      <trkpt lat="20.254705" lon="-98.73193333">
        <ele>1929.0</ele>
        <time>2019-10-12T15:28:09.940Z</time>
      </trkpt>
      <trkpt lat="20.25472" lon="-98.73191333">
        <ele>1929.0</ele>
        <time>2019-10-12T15:28:10.943Z</time>
      </trkpt>
      <trkpt lat="20.25474" lon="-98.73189">
        <ele>1928.0</ele>
        <time>2019-10-12T15:28:11.947Z</time>
      </trkpt>
      <trkpt lat="20.25475833" lon="-98.731875">
        <ele>1929.0</ele>
        <time>2019-10-12T15:28:12.950Z</time>
      </trkpt>
      <trkpt lat="20.25478" lon="-98.73185167">
        <ele>1929.0</ele>
        <time>2019-10-12T15:28:13.954Z</time>
      </trkpt>
      <trkpt lat="20.2548" lon="-98.73183333">
        <ele>1929.0</ele>
        <time>2019-10-12T15:28:14.834Z</time>
      </trkpt>
      <trkpt lat="20.25481667" lon="-98.73181333">
        <ele>1927.0</ele>
        <time>2019-10-12T15:28:15.837Z</time>
      </trkpt>
      <trkpt lat="20.25483667" lon="-98.731795">
        <ele>1925.0</ele>
        <time>2019-10-12T15:28:16.841Z</time>
      </trkpt>
      <trkpt lat="20.25485667" lon="-98.73177667">
        <ele>1924.0</ele>
        <time>2019-10-12T15:28:17.846Z</time>
      </trkpt>
      <trkpt lat="20.254875" lon="-98.73175833">
        <ele>1922.0</ele>
        <time>2019-10-12T15:28:18.851Z</time>
      </trkpt>
      <trkpt lat="20.254895" lon="-98.73174333">
        <ele>1921.0</ele>
        <time>2019-10-12T15:28:19.854Z</time>
      </trkpt>
      <trkpt lat="20.25491667" lon="-98.73172833">
        <ele>1920.0</ele>
        <time>2019-10-12T15:28:20.862Z</time>
      </trkpt>
      <trkpt lat="20.254935" lon="-98.73171833">
        <ele>1919.0</ele>
        <time>2019-10-12T15:28:21.867Z</time>
      </trkpt>
      <trkpt lat="20.25496167" lon="-98.7317">
        <ele>1918.0</ele>
        <time>2019-10-12T15:28:22.867Z</time>
      </trkpt>
      <trkpt lat="20.25498" lon="-98.73168667">
        <ele>1918.0</ele>
        <time>2019-10-12T15:28:23.867Z</time>
      </trkpt>
      <trkpt lat="20.25500167" lon="-98.73166333">
        <ele>1917.0</ele>
        <time>2019-10-12T15:28:24.867Z</time>
      </trkpt>
      <trkpt lat="20.25501833" lon="-98.73163833">
        <ele>1917.0</ele>
        <time>2019-10-12T15:28:25.868Z</time>
      </trkpt>
      <trkpt lat="20.25503" lon="-98.73161667">
        <ele>1917.0</ele>
        <time>2019-10-12T15:28:26.868Z</time>
      </trkpt>
      <trkpt lat="20.25505" lon="-98.73158667">
        <ele>1916.0</ele>
        <time>2019-10-12T15:28:27.868Z</time>
      </trkpt>
      <trkpt lat="20.25506333" lon="-98.73155833">
        <ele>1916.0</ele>
        <time>2019-10-12T15:28:28.868Z</time>
      </trkpt>
      <trkpt lat="20.25507667" lon="-98.73153">
        <ele>1916.0</ele>
        <time>2019-10-12T15:28:29.869Z</time>
      </trkpt>
      <trkpt lat="20.25508833" lon="-98.73150333">
        <ele>1916.0</ele>
        <time>2019-10-12T15:28:30.869Z</time>
      </trkpt>
      <trkpt lat="20.2551" lon="-98.73147833">
        <ele>1916.0</ele>
        <time>2019-10-12T15:28:31.869Z</time>
      </trkpt>
      <trkpt lat="20.25510333" lon="-98.73145333">
        <ele>1916.0</ele>
        <time>2019-10-12T15:28:32.869Z</time>
      </trkpt>
      <trkpt lat="20.25511" lon="-98.73142667">
        <ele>1915.0</ele>
        <time>2019-10-12T15:28:33.870Z</time>
      </trkpt>
      <trkpt lat="20.25512167" lon="-98.7314">
        <ele>1916.0</ele>
        <time>2019-10-12T15:28:34.870Z</time>
      </trkpt>
      <trkpt lat="20.25512667" lon="-98.73137333">
        <ele>1916.0</ele>
        <time>2019-10-12T15:28:35.870Z</time>
      </trkpt>
      <trkpt lat="20.255135" lon="-98.73134833">
        <ele>1916.0</ele>
        <time>2019-10-12T15:28:36.870Z</time>
      </trkpt>
      <trkpt lat="20.255145" lon="-98.73132333">
        <ele>1916.0</ele>
        <time>2019-10-12T15:28:37.870Z</time>
      </trkpt>
      <trkpt lat="20.25515333" lon="-98.7313">
        <ele>1916.0</ele>
        <time>2019-10-12T15:28:38.871Z</time>
      </trkpt>
      <trkpt lat="20.25516167" lon="-98.73127667">
        <ele>1916.0</ele>
        <time>2019-10-12T15:28:39.871Z</time>
      </trkpt>
      <trkpt lat="20.25517167" lon="-98.73125333">
        <ele>1915.0</ele>
        <time>2019-10-12T15:28:40.871Z</time>
      </trkpt>
      <trkpt lat="20.25518" lon="-98.73123">
        <ele>1916.0</ele>
        <time>2019-10-12T15:28:41.871Z</time>
      </trkpt>
      <trkpt lat="20.25518667" lon="-98.73120667">
        <ele>1916.0</ele>
        <time>2019-10-12T15:28:42.871Z</time>
      </trkpt>
      <trkpt lat="20.25519333" lon="-98.73118">
        <ele>1916.0</ele>
        <time>2019-10-12T15:28:43.872Z</time>
      </trkpt>
      <trkpt lat="20.25519833" lon="-98.731155">
        <ele>1916.0</ele>
        <time>2019-10-12T15:28:44.876Z</time>
      </trkpt>
      <trkpt lat="20.25520167" lon="-98.73113333">
        <ele>1916.0</ele>
        <time>2019-10-12T15:28:45.883Z</time>
      </trkpt>
      <trkpt lat="20.25520833" lon="-98.73110167">
        <ele>1917.0</ele>
        <time>2019-10-12T15:28:46.891Z</time>
      </trkpt>
      <trkpt lat="20.25521333" lon="-98.731075">
        <ele>1916.0</ele>
        <time>2019-10-12T15:28:47.897Z</time>
      </trkpt>
      <trkpt lat="20.255215" lon="-98.73105333">
        <ele>1916.0</ele>
        <time>2019-10-12T15:28:48.903Z</time>
      </trkpt>
      <trkpt lat="20.25521667" lon="-98.73102167">
        <ele>1916.0</ele>
        <time>2019-10-12T15:28:49.906Z</time>
      </trkpt>
      <trkpt lat="20.25521833" lon="-98.730995">
        <ele>1915.0</ele>
        <time>2019-10-12T15:28:50.913Z</time>
      </trkpt>
      <trkpt lat="20.25522333" lon="-98.73096667">
        <ele>1915.0</ele>
        <time>2019-10-12T15:28:51.918Z</time>
      </trkpt>
      <trkpt lat="20.25522667" lon="-98.730945">
        <ele>1915.0</ele>
        <time>2019-10-12T15:28:52.923Z</time>
      </trkpt>
      <trkpt lat="20.255235" lon="-98.730915">
        <ele>1915.0</ele>
        <time>2019-10-12T15:28:53.929Z</time>
      </trkpt>
      <trkpt lat="20.25523833" lon="-98.73088833">
        <ele>1915.0</ele>
        <time>2019-10-12T15:28:54.933Z</time>
      </trkpt>
      <trkpt lat="20.25524" lon="-98.730865">
        <ele>1915.0</ele>
        <time>2019-10-12T15:28:55.937Z</time>
      </trkpt>
      <trkpt lat="20.25524167" lon="-98.73084167">
        <ele>1915.0</ele>
        <time>2019-10-12T15:28:56.939Z</time>
      </trkpt>
      <trkpt lat="20.25524333" lon="-98.73082333">
        <ele>1915.0</ele>
        <time>2019-10-12T15:28:57.942Z</time>
      </trkpt>
      <trkpt lat="20.25524333" lon="-98.73079333">
        <ele>1915.0</ele>
        <time>2019-10-12T15:28:58.943Z</time>
      </trkpt>
      <trkpt lat="20.25524333" lon="-98.730765">
        <ele>1915.0</ele>
        <time>2019-10-12T15:28:59.946Z</time>
      </trkpt>
      <trkpt lat="20.25524167" lon="-98.73074">
        <ele>1913.0</ele>
        <time>2019-10-12T15:29:00.954Z</time>
      </trkpt>
      <trkpt lat="20.25524" lon="-98.730715">
        <ele>1913.0</ele>
        <time>2019-10-12T15:29:01.832Z</time>
      </trkpt>
      <trkpt lat="20.25523833" lon="-98.730695">
        <ele>1913.0</ele>
        <time>2019-10-12T15:29:02.834Z</time>
      </trkpt>
      <trkpt lat="20.25524333" lon="-98.730675">
        <ele>1913.0</ele>
        <time>2019-10-12T15:29:03.837Z</time>
      </trkpt>
      <trkpt lat="20.25524667" lon="-98.73065">
        <ele>1913.0</ele>
        <time>2019-10-12T15:29:04.838Z</time>
      </trkpt>
      <trkpt lat="20.255245" lon="-98.73062833">
        <ele>1912.0</ele>
        <time>2019-10-12T15:29:05.840Z</time>
      </trkpt>
      <trkpt lat="20.255235" lon="-98.73061">
        <ele>1911.0</ele>
        <time>2019-10-12T15:29:06.843Z</time>
      </trkpt>
      <trkpt lat="20.255225" lon="-98.73058833">
        <ele>1910.0</ele>
        <time>2019-10-12T15:29:07.845Z</time>
      </trkpt>
      <trkpt lat="20.25521333" lon="-98.73056333">
        <ele>1911.0</ele>
        <time>2019-10-12T15:29:08.849Z</time>
      </trkpt>
      <trkpt lat="20.25519833" lon="-98.73053833">
        <ele>1912.0</ele>
        <time>2019-10-12T15:29:09.852Z</time>
      </trkpt>
      <trkpt lat="20.25518" lon="-98.73051167">
        <ele>1912.0</ele>
        <time>2019-10-12T15:29:10.856Z</time>
      </trkpt>
      <trkpt lat="20.255165" lon="-98.73048833">
        <ele>1912.0</ele>
        <time>2019-10-12T15:29:11.862Z</time>
      </trkpt>
      <trkpt lat="20.255145" lon="-98.73046833">
        <ele>1912.0</ele>
        <time>2019-10-12T15:29:12.864Z</time>
      </trkpt>
      <trkpt lat="20.25511667" lon="-98.73045333">
        <ele>1912.0</ele>
        <time>2019-10-12T15:29:13.871Z</time>
      </trkpt>
      <trkpt lat="20.255095" lon="-98.73044">
        <ele>1912.0</ele>
        <time>2019-10-12T15:29:14.877Z</time>
      </trkpt>
      <trkpt lat="20.255075" lon="-98.73043">
        <ele>1912.0</ele>
        <time>2019-10-12T15:29:15.883Z</time>
      </trkpt>
      <trkpt lat="20.255055" lon="-98.73042">
        <ele>1911.0</ele>
        <time>2019-10-12T15:29:16.885Z</time>
      </trkpt>
      <trkpt lat="20.25503333" lon="-98.73040833">
        <ele>1911.0</ele>
        <time>2019-10-12T15:29:17.885Z</time>
      </trkpt>
      <trkpt lat="20.25502" lon="-98.73039">
        <ele>1911.0</ele>
        <time>2019-10-12T15:29:18.885Z</time>
      </trkpt>
      <trkpt lat="20.25501833" lon="-98.73036667">
        <ele>1910.0</ele>
        <time>2019-10-12T15:29:19.888Z</time>
      </trkpt>
      <trkpt lat="20.25502333" lon="-98.730345">
        <ele>1909.0</ele>
        <time>2019-10-12T15:29:20.896Z</time>
      </trkpt>
      <trkpt lat="20.25503167" lon="-98.73033">
        <ele>1908.0</ele>
        <time>2019-10-12T15:29:21.902Z</time>
      </trkpt>
      <trkpt lat="20.25503833" lon="-98.73031333">
        <ele>1909.0</ele>
        <time>2019-10-12T15:29:22.905Z</time>
      </trkpt>
      <trkpt lat="20.25504" lon="-98.73029167">
        <ele>1909.0</ele>
        <time>2019-10-12T15:29:23.907Z</time>
      </trkpt>
      <trkpt lat="20.25505" lon="-98.73027">
        <ele>1909.0</ele>
        <time>2019-10-12T15:29:24.911Z</time>
      </trkpt>
      <trkpt lat="20.25506333" lon="-98.73025">
        <ele>1910.0</ele>
        <time>2019-10-12T15:29:25.916Z</time>
      </trkpt>
      <trkpt lat="20.25507167" lon="-98.73023">
        <ele>1909.0</ele>
        <time>2019-10-12T15:29:26.922Z</time>
      </trkpt>
      <trkpt lat="20.25508333" lon="-98.73021333">
        <ele>1910.0</ele>
        <time>2019-10-12T15:29:27.929Z</time>
      </trkpt>
      <trkpt lat="20.25509667" lon="-98.730195">
        <ele>1909.0</ele>
        <time>2019-10-12T15:29:28.934Z</time>
      </trkpt>
      <trkpt lat="20.25511333" lon="-98.730175">
        <ele>1909.0</ele>
        <time>2019-10-12T15:29:29.939Z</time>
      </trkpt>
      <trkpt lat="20.25513" lon="-98.73015">
        <ele>1909.0</ele>
        <time>2019-10-12T15:29:30.945Z</time>
      </trkpt>
      <trkpt lat="20.25513667" lon="-98.730125">
        <ele>1908.0</ele>
        <time>2019-10-12T15:29:31.950Z</time>
      </trkpt>
      <trkpt lat="20.25514167" lon="-98.7301">
        <ele>1908.0</ele>
        <time>2019-10-12T15:29:32.951Z</time>
      </trkpt>
      <trkpt lat="20.25514833" lon="-98.73007667">
        <ele>1907.0</ele>
        <time>2019-10-12T15:29:33.952Z</time>
      </trkpt>
      <trkpt lat="20.25515333" lon="-98.73005333">
        <ele>1908.0</ele>
        <time>2019-10-12T15:29:34.952Z</time>
      </trkpt>
      <trkpt lat="20.25515833" lon="-98.73003167">
        <ele>1908.0</ele>
        <time>2019-10-12T15:29:35.952Z</time>
      </trkpt>
      <trkpt lat="20.25516333" lon="-98.73000833">
        <ele>1907.0</ele>
        <time>2019-10-12T15:29:36.954Z</time>
      </trkpt>
      <trkpt lat="20.25517333" lon="-98.72998833">
        <ele>1907.0</ele>
        <time>2019-10-12T15:29:37.835Z</time>
      </trkpt>
      <trkpt lat="20.25518667" lon="-98.729975">
        <ele>1906.0</ele>
        <time>2019-10-12T15:29:38.841Z</time>
      </trkpt>
      <trkpt lat="20.25520333" lon="-98.72996167">
        <ele>1905.0</ele>
        <time>2019-10-12T15:29:39.847Z</time>
      </trkpt>
      <trkpt lat="20.25521833" lon="-98.729945">
        <ele>1905.0</ele>
        <time>2019-10-12T15:29:40.851Z</time>
      </trkpt>
      <trkpt lat="20.25522833" lon="-98.729925">
        <ele>1905.0</ele>
        <time>2019-10-12T15:29:41.853Z</time>
      </trkpt>
      <trkpt lat="20.25523667" lon="-98.72990333">
        <ele>1904.0</ele>
        <time>2019-10-12T15:29:42.860Z</time>
      </trkpt>
      <trkpt lat="20.25523833" lon="-98.72987833">
        <ele>1904.0</ele>
        <time>2019-10-12T15:29:43.864Z</time>
      </trkpt>
      <trkpt lat="20.25523833" lon="-98.72985667">
        <ele>1903.0</ele>
        <time>2019-10-12T15:29:44.869Z</time>
      </trkpt>
      <trkpt lat="20.25524" lon="-98.72983333">
        <ele>1903.0</ele>
        <time>2019-10-12T15:29:45.876Z</time>
      </trkpt>
      <trkpt lat="20.25524" lon="-98.72981">
        <ele>1901.0</ele>
        <time>2019-10-12T15:29:46.883Z</time>
      </trkpt>
      <trkpt lat="20.25524333" lon="-98.72978833">
        <ele>1901.0</ele>
        <time>2019-10-12T15:29:47.888Z</time>
      </trkpt>
      <trkpt lat="20.25524333" lon="-98.72975833">
        <ele>1899.0</ele>
        <time>2019-10-12T15:29:48.894Z</time>
      </trkpt>
      <trkpt lat="20.25524333" lon="-98.72973167">
        <ele>1898.0</ele>
        <time>2019-10-12T15:29:49.898Z</time>
      </trkpt>
      <trkpt lat="20.255245" lon="-98.72970333">
        <ele>1897.0</ele>
        <time>2019-10-12T15:29:50.899Z</time>
      </trkpt>
      <trkpt lat="20.25525" lon="-98.72967667">
        <ele>1897.0</ele>
        <time>2019-10-12T15:29:51.900Z</time>
      </trkpt>
      <trkpt lat="20.25525" lon="-98.72965167">
        <ele>1896.0</ele>
        <time>2019-10-12T15:29:52.901Z</time>
      </trkpt>
      <trkpt lat="20.25525" lon="-98.72962333">
        <ele>1895.0</ele>
        <time>2019-10-12T15:29:53.902Z</time>
      </trkpt>
      <trkpt lat="20.25524667" lon="-98.729595">
        <ele>1894.0</ele>
        <time>2019-10-12T15:29:54.905Z</time>
      </trkpt>
      <trkpt lat="20.255245" lon="-98.72957">
        <ele>1894.0</ele>
        <time>2019-10-12T15:29:55.907Z</time>
      </trkpt>
      <trkpt lat="20.25524167" lon="-98.72954">
        <ele>1893.0</ele>
        <time>2019-10-12T15:29:56.911Z</time>
      </trkpt>
      <trkpt lat="20.25524167" lon="-98.72950667">
        <ele>1893.0</ele>
        <time>2019-10-12T15:29:57.914Z</time>
      </trkpt>
      <trkpt lat="20.25524333" lon="-98.72948167">
        <ele>1893.0</ele>
        <time>2019-10-12T15:29:58.917Z</time>
      </trkpt>
      <trkpt lat="20.25524833" lon="-98.72945833">
        <ele>1891.0</ele>
        <time>2019-10-12T15:29:59.921Z</time>
      </trkpt>
      <trkpt lat="20.25525833" lon="-98.72944167">
        <ele>1891.0</ele>
        <time>2019-10-12T15:30:00.926Z</time>
      </trkpt>
      <trkpt lat="20.25527167" lon="-98.72941167">
        <ele>1890.0</ele>
        <time>2019-10-12T15:30:01.931Z</time>
      </trkpt>
      <trkpt lat="20.25528167" lon="-98.72939">
        <ele>1890.0</ele>
        <time>2019-10-12T15:30:02.938Z</time>
      </trkpt>
      <trkpt lat="20.25529167" lon="-98.72936667">
        <ele>1890.0</ele>
        <time>2019-10-12T15:30:03.945Z</time>
      </trkpt>
      <trkpt lat="20.2553" lon="-98.72934333">
        <ele>1891.0</ele>
        <time>2019-10-12T15:30:04.949Z</time>
      </trkpt>
      <trkpt lat="20.255305" lon="-98.72932667">
        <ele>1891.0</ele>
        <time>2019-10-12T15:30:05.954Z</time>
      </trkpt>
      <trkpt lat="20.25530833" lon="-98.72930333">
        <ele>1891.0</ele>
        <time>2019-10-12T15:30:06.831Z</time>
      </trkpt>
      <trkpt lat="20.255305" lon="-98.72928">
        <ele>1891.0</ele>
        <time>2019-10-12T15:30:07.833Z</time>
      </trkpt>
      <trkpt lat="20.25531" lon="-98.72925833">
        <ele>1892.0</ele>
        <time>2019-10-12T15:30:08.838Z</time>
      </trkpt>
      <trkpt lat="20.25532167" lon="-98.729245">
        <ele>1891.0</ele>
        <time>2019-10-12T15:30:09.844Z</time>
      </trkpt>
      <trkpt lat="20.25534" lon="-98.72924">
        <ele>1891.0</ele>
        <time>2019-10-12T15:30:10.850Z</time>
      </trkpt>
      <trkpt lat="20.255355" lon="-98.72923833">
        <ele>1891.0</ele>
        <time>2019-10-12T15:30:11.851Z</time>
      </trkpt>
      <trkpt lat="20.25536667" lon="-98.72924">
        <ele>1891.0</ele>
        <time>2019-10-12T15:30:12.852Z</time>
      </trkpt>
      <trkpt lat="20.25538167" lon="-98.72924">
        <ele>1891.0</ele>
        <time>2019-10-12T15:30:13.853Z</time>
      </trkpt>
      <trkpt lat="20.25539167" lon="-98.72924333">
        <ele>1891.0</ele>
        <time>2019-10-12T15:30:14.854Z</time>
      </trkpt>
      <trkpt lat="20.25540333" lon="-98.72925167">
        <ele>1891.0</ele>
        <time>2019-10-12T15:30:15.854Z</time>
      </trkpt>
      <trkpt lat="20.25541667" lon="-98.72926167">
        <ele>1892.0</ele>
        <time>2019-10-12T15:30:16.856Z</time>
      </trkpt>
      <trkpt lat="20.25542167" lon="-98.72927">
        <ele>1892.0</ele>
        <time>2019-10-12T15:30:17.856Z</time>
      </trkpt>
      <trkpt lat="20.255425" lon="-98.72928333">
        <ele>1892.0</ele>
        <time>2019-10-12T15:30:18.856Z</time>
      </trkpt>
      <trkpt lat="20.255425" lon="-98.72930167">
        <ele>1892.0</ele>
        <time>2019-10-12T15:30:19.857Z</time>
      </trkpt>
      <trkpt lat="20.25542667" lon="-98.72932167">
        <ele>1893.0</ele>
        <time>2019-10-12T15:30:20.858Z</time>
      </trkpt>
      <trkpt lat="20.25543" lon="-98.72934333">
        <ele>1893.0</ele>
        <time>2019-10-12T15:30:21.859Z</time>
      </trkpt>
      <trkpt lat="20.25543167" lon="-98.72936">
        <ele>1894.0</ele>
        <time>2019-10-12T15:30:22.860Z</time>
      </trkpt>
      <trkpt lat="20.25543333" lon="-98.729375">
        <ele>1894.0</ele>
        <time>2019-10-12T15:30:23.861Z</time>
      </trkpt>
      <trkpt lat="20.25543833" lon="-98.729395">
        <ele>1894.0</ele>
        <time>2019-10-12T15:30:24.861Z</time>
      </trkpt>
      <trkpt lat="20.25544167" lon="-98.729415">
        <ele>1894.0</ele>
        <time>2019-10-12T15:30:25.862Z</time>
      </trkpt>
      <trkpt lat="20.25544833" lon="-98.72943333">
        <ele>1894.0</ele>
        <time>2019-10-12T15:30:26.863Z</time>
      </trkpt>
      <trkpt lat="20.255455" lon="-98.72945167">
        <ele>1894.0</ele>
        <time>2019-10-12T15:30:27.863Z</time>
      </trkpt>
      <trkpt lat="20.25547" lon="-98.72947">
        <ele>1894.0</ele>
        <time>2019-10-12T15:30:28.864Z</time>
      </trkpt>
      <trkpt lat="20.255485" lon="-98.72947833">
        <ele>1895.0</ele>
        <time>2019-10-12T15:30:29.864Z</time>
      </trkpt>
      <trkpt lat="20.25550167" lon="-98.72947667">
        <ele>1895.0</ele>
        <time>2019-10-12T15:30:30.865Z</time>
      </trkpt>
      <trkpt lat="20.25551" lon="-98.729465">
        <ele>1895.0</ele>
        <time>2019-10-12T15:30:31.866Z</time>
      </trkpt>
      <trkpt lat="20.255515" lon="-98.729455">
        <ele>1895.0</ele>
        <time>2019-10-12T15:30:32.866Z</time>
      </trkpt>
      <trkpt lat="20.25552667" lon="-98.72944167">
        <ele>1895.0</ele>
        <time>2019-10-12T15:30:33.867Z</time>
      </trkpt>
      <trkpt lat="20.25553833" lon="-98.72943167">
        <ele>1895.0</ele>
        <time>2019-10-12T15:30:34.868Z</time>
      </trkpt>
      <trkpt lat="20.25555" lon="-98.72942">
        <ele>1895.0</ele>
        <time>2019-10-12T15:30:35.869Z</time>
      </trkpt>
      <trkpt lat="20.25556167" lon="-98.72941">
        <ele>1895.0</ele>
        <time>2019-10-12T15:30:36.870Z</time>
      </trkpt>
      <trkpt lat="20.255575" lon="-98.72940667">
        <ele>1895.0</ele>
        <time>2019-10-12T15:30:37.870Z</time>
      </trkpt>
      <trkpt lat="20.25559" lon="-98.72940667">
        <ele>1894.0</ele>
        <time>2019-10-12T15:30:38.871Z</time>
      </trkpt>
      <trkpt lat="20.255595" lon="-98.729415">
        <ele>1894.0</ele>
        <time>2019-10-12T15:30:39.872Z</time>
      </trkpt>
      <trkpt lat="20.2556" lon="-98.72941833">
        <ele>1895.0</ele>
        <time>2019-10-12T15:30:40.872Z</time>
      </trkpt>
      <trkpt lat="20.25560667" lon="-98.72942167">
        <ele>1895.0</ele>
        <time>2019-10-12T15:30:41.873Z</time>
      </trkpt>
      <trkpt lat="20.25561167" lon="-98.72942667">
        <ele>1896.0</ele>
        <time>2019-10-12T15:30:42.874Z</time>
      </trkpt>
      <trkpt lat="20.255615" lon="-98.72943667">
        <ele>1897.0</ele>
        <time>2019-10-12T15:30:43.875Z</time>
      </trkpt>
      <trkpt lat="20.255615" lon="-98.72945167">
        <ele>1899.0</ele>
        <time>2019-10-12T15:30:44.875Z</time>
      </trkpt>
      <trkpt lat="20.25561667" lon="-98.72947167">
        <ele>1899.0</ele>
        <time>2019-10-12T15:30:45.876Z</time>
      </trkpt>
      <trkpt lat="20.25562167" lon="-98.72949167">
        <ele>1899.0</ele>
        <time>2019-10-12T15:30:46.877Z</time>
      </trkpt>
      <trkpt lat="20.25562667" lon="-98.729515">
        <ele>1899.0</ele>
        <time>2019-10-12T15:30:47.878Z</time>
      </trkpt>
      <trkpt lat="20.25563" lon="-98.729535">
        <ele>1899.0</ele>
        <time>2019-10-12T15:30:48.879Z</time>
      </trkpt>
      <trkpt lat="20.255635" lon="-98.72955333">
        <ele>1900.0</ele>
        <time>2019-10-12T15:30:49.879Z</time>
      </trkpt>
      <trkpt lat="20.25563833" lon="-98.729575">
        <ele>1900.0</ele>
        <time>2019-10-12T15:30:50.880Z</time>
      </trkpt>
      <trkpt lat="20.25564333" lon="-98.729595">
        <ele>1900.0</ele>
        <time>2019-10-12T15:30:51.881Z</time>
      </trkpt>
      <trkpt lat="20.25564833" lon="-98.729615">
        <ele>1901.0</ele>
        <time>2019-10-12T15:30:52.882Z</time>
      </trkpt>
      <trkpt lat="20.255655" lon="-98.729635">
        <ele>1900.0</ele>
        <time>2019-10-12T15:30:53.883Z</time>
      </trkpt>
      <trkpt lat="20.25566" lon="-98.72965333">
        <ele>1901.0</ele>
        <time>2019-10-12T15:30:54.884Z</time>
      </trkpt>
      <trkpt lat="20.25566833" lon="-98.72967">
        <ele>1901.0</ele>
        <time>2019-10-12T15:30:55.885Z</time>
      </trkpt>
      <trkpt lat="20.25567667" lon="-98.729685">
        <ele>1900.0</ele>
        <time>2019-10-12T15:30:56.889Z</time>
      </trkpt>
      <trkpt lat="20.25569" lon="-98.72970333">
        <ele>1900.0</ele>
        <time>2019-10-12T15:30:57.892Z</time>
      </trkpt>
      <trkpt lat="20.25569667" lon="-98.72971333">
        <ele>1900.0</ele>
        <time>2019-10-12T15:30:58.898Z</time>
      </trkpt>
      <trkpt lat="20.25571167" lon="-98.72972833">
        <ele>1899.0</ele>
        <time>2019-10-12T15:30:59.905Z</time>
      </trkpt>
      <trkpt lat="20.25572833" lon="-98.72974167">
        <ele>1899.0</ele>
        <time>2019-10-12T15:31:00.909Z</time>
      </trkpt>
      <trkpt lat="20.25574" lon="-98.72975167">
        <ele>1899.0</ele>
        <time>2019-10-12T15:31:01.912Z</time>
      </trkpt>
      <trkpt lat="20.25574667" lon="-98.72977">
        <ele>1899.0</ele>
        <time>2019-10-12T15:31:02.917Z</time>
      </trkpt>
      <trkpt lat="20.25575" lon="-98.72978833">
        <ele>1899.0</ele>
        <time>2019-10-12T15:31:03.924Z</time>
      </trkpt>
      <trkpt lat="20.25575" lon="-98.72981">
        <ele>1899.0</ele>
        <time>2019-10-12T15:31:04.930Z</time>
      </trkpt>
      <trkpt lat="20.25575" lon="-98.72983333">
        <ele>1898.0</ele>
        <time>2019-10-12T15:31:05.936Z</time>
      </trkpt>
      <trkpt lat="20.25574833" lon="-98.72985667">
        <ele>1898.0</ele>
        <time>2019-10-12T15:31:06.941Z</time>
      </trkpt>
      <trkpt lat="20.25575167" lon="-98.72988167">
        <ele>1898.0</ele>
        <time>2019-10-12T15:31:07.944Z</time>
      </trkpt>
      <trkpt lat="20.25575667" lon="-98.72990667">
        <ele>1898.0</ele>
        <time>2019-10-12T15:31:08.946Z</time>
      </trkpt>
      <trkpt lat="20.25576167" lon="-98.72993167">
        <ele>1898.0</ele>
        <time>2019-10-12T15:31:09.950Z</time>
      </trkpt>
      <trkpt lat="20.25576667" lon="-98.72995333">
        <ele>1898.0</ele>
        <time>2019-10-12T15:31:10.832Z</time>
      </trkpt>
      <trkpt lat="20.25577167" lon="-98.72997333">
        <ele>1899.0</ele>
        <time>2019-10-12T15:31:11.834Z</time>
      </trkpt>
      <trkpt lat="20.255775" lon="-98.72998833">
        <ele>1899.0</ele>
        <time>2019-10-12T15:31:12.835Z</time>
      </trkpt>
      <trkpt lat="20.25577833" lon="-98.73000667">
        <ele>1899.0</ele>
        <time>2019-10-12T15:31:13.835Z</time>
      </trkpt>
      <trkpt lat="20.25578167" lon="-98.73002833">
        <ele>1900.0</ele>
        <time>2019-10-12T15:31:14.836Z</time>
      </trkpt>
      <trkpt lat="20.25578333" lon="-98.73005333">
        <ele>1900.0</ele>
        <time>2019-10-12T15:31:15.837Z</time>
      </trkpt>
      <trkpt lat="20.25578333" lon="-98.73007">
        <ele>1900.0</ele>
        <time>2019-10-12T15:31:16.838Z</time>
      </trkpt>
      <trkpt lat="20.25578833" lon="-98.73009167">
        <ele>1900.0</ele>
        <time>2019-10-12T15:31:17.839Z</time>
      </trkpt>
      <trkpt lat="20.25579333" lon="-98.73011">
        <ele>1901.0</ele>
        <time>2019-10-12T15:31:18.839Z</time>
      </trkpt>
      <trkpt lat="20.25579667" lon="-98.73013167">
        <ele>1901.0</ele>
        <time>2019-10-12T15:31:19.840Z</time>
      </trkpt>
      <trkpt lat="20.25580833" lon="-98.73015167">
        <ele>1901.0</ele>
        <time>2019-10-12T15:31:20.841Z</time>
      </trkpt>
      <trkpt lat="20.25582667" lon="-98.73016333">
        <ele>1901.0</ele>
        <time>2019-10-12T15:31:21.841Z</time>
      </trkpt>
      <trkpt lat="20.25584333" lon="-98.730175">
        <ele>1900.0</ele>
        <time>2019-10-12T15:31:22.842Z</time>
      </trkpt>
      <trkpt lat="20.25586167" lon="-98.73018">
        <ele>1899.0</ele>
        <time>2019-10-12T15:31:23.843Z</time>
      </trkpt>
      <trkpt lat="20.25588333" lon="-98.730185">
        <ele>1898.0</ele>
        <time>2019-10-12T15:31:24.844Z</time>
      </trkpt>
      <trkpt lat="20.255905" lon="-98.73018667">
        <ele>1898.0</ele>
        <time>2019-10-12T15:31:25.845Z</time>
      </trkpt>
      <trkpt lat="20.25592833" lon="-98.73019167">
        <ele>1897.0</ele>
        <time>2019-10-12T15:31:26.845Z</time>
      </trkpt>
      <trkpt lat="20.25594667" lon="-98.73020167">
        <ele>1897.0</ele>
        <time>2019-10-12T15:31:27.846Z</time>
      </trkpt>
      <trkpt lat="20.255965" lon="-98.73021167">
        <ele>1897.0</ele>
        <time>2019-10-12T15:31:28.847Z</time>
      </trkpt>
      <trkpt lat="20.255985" lon="-98.73022667">
        <ele>1896.0</ele>
        <time>2019-10-12T15:31:29.848Z</time>
      </trkpt>
      <trkpt lat="20.25600167" lon="-98.73024333">
        <ele>1895.0</ele>
        <time>2019-10-12T15:31:30.850Z</time>
      </trkpt>
      <trkpt lat="20.256015" lon="-98.73025667">
        <ele>1895.0</ele>
        <time>2019-10-12T15:31:31.856Z</time>
      </trkpt>
      <trkpt lat="20.25602667" lon="-98.730275">
        <ele>1894.0</ele>
        <time>2019-10-12T15:31:32.859Z</time>
      </trkpt>
      <trkpt lat="20.256045" lon="-98.730295">
        <ele>1894.0</ele>
        <time>2019-10-12T15:31:33.863Z</time>
      </trkpt>
      <trkpt lat="20.25606167" lon="-98.73030833">
        <ele>1893.0</ele>
        <time>2019-10-12T15:31:34.870Z</time>
      </trkpt>
      <trkpt lat="20.256075" lon="-98.73032333">
        <ele>1892.0</ele>
        <time>2019-10-12T15:31:35.874Z</time>
      </trkpt>
      <trkpt lat="20.25609667" lon="-98.73033833">
        <ele>1891.0</ele>
        <time>2019-10-12T15:31:36.881Z</time>
      </trkpt>
      <trkpt lat="20.25611333" lon="-98.73034167">
        <ele>1891.0</ele>
        <time>2019-10-12T15:31:37.888Z</time>
      </trkpt>
      <trkpt lat="20.256135" lon="-98.73034167">
        <ele>1890.0</ele>
        <time>2019-10-12T15:31:38.894Z</time>
      </trkpt>
      <trkpt lat="20.25615" lon="-98.73034167">
        <ele>1890.0</ele>
        <time>2019-10-12T15:31:39.899Z</time>
      </trkpt>
      <trkpt lat="20.25616667" lon="-98.73035">
        <ele>1889.0</ele>
        <time>2019-10-12T15:31:40.904Z</time>
      </trkpt>
      <trkpt lat="20.25618167" lon="-98.730365">
        <ele>1889.0</ele>
        <time>2019-10-12T15:31:41.912Z</time>
      </trkpt>
      <trkpt lat="20.25618833" lon="-98.73037333">
        <ele>1889.0</ele>
        <time>2019-10-12T15:31:42.918Z</time>
      </trkpt>
      <trkpt lat="20.25619667" lon="-98.73038833">
        <ele>1889.0</ele>
        <time>2019-10-12T15:31:43.921Z</time>
      </trkpt>
      <trkpt lat="20.25621" lon="-98.73040167">
        <ele>1888.0</ele>
        <time>2019-10-12T15:31:44.922Z</time>
      </trkpt>
      <trkpt lat="20.25622167" lon="-98.73042">
        <ele>1887.0</ele>
        <time>2019-10-12T15:31:45.923Z</time>
      </trkpt>
      <trkpt lat="20.256235" lon="-98.73043833">
        <ele>1886.0</ele>
        <time>2019-10-12T15:31:46.924Z</time>
      </trkpt>
      <trkpt lat="20.25624833" lon="-98.730455">
        <ele>1885.0</ele>
        <time>2019-10-12T15:31:47.929Z</time>
      </trkpt>
      <trkpt lat="20.25626167" lon="-98.73047167">
        <ele>1885.0</ele>
        <time>2019-10-12T15:31:48.935Z</time>
      </trkpt>
      <trkpt lat="20.25627" lon="-98.73048833">
        <ele>1885.0</ele>
        <time>2019-10-12T15:31:49.937Z</time>
      </trkpt>
      <trkpt lat="20.25628" lon="-98.73050167">
        <ele>1884.0</ele>
        <time>2019-10-12T15:31:50.944Z</time>
      </trkpt>
      <trkpt lat="20.25629167" lon="-98.73052">
        <ele>1884.0</ele>
        <time>2019-10-12T15:31:51.948Z</time>
      </trkpt>
      <trkpt lat="20.25630333" lon="-98.73053">
        <ele>1883.0</ele>
        <time>2019-10-12T15:31:52.949Z</time>
      </trkpt>
      <trkpt lat="20.25632" lon="-98.73053833">
        <ele>1882.0</ele>
        <time>2019-10-12T15:31:53.951Z</time>
      </trkpt>
      <trkpt lat="20.25634167" lon="-98.730545">
        <ele>1881.0</ele>
        <time>2019-10-12T15:31:54.832Z</time>
      </trkpt>
      <trkpt lat="20.25636167" lon="-98.73055">
        <ele>1881.0</ele>
        <time>2019-10-12T15:31:55.837Z</time>
      </trkpt>
      <trkpt lat="20.25638" lon="-98.73055">
        <ele>1880.0</ele>
        <time>2019-10-12T15:31:56.842Z</time>
      </trkpt>
      <trkpt lat="20.2564" lon="-98.73055">
        <ele>1881.0</ele>
        <time>2019-10-12T15:31:57.847Z</time>
      </trkpt>
      <trkpt lat="20.256415" lon="-98.73054833">
        <ele>1881.0</ele>
        <time>2019-10-12T15:31:58.851Z</time>
      </trkpt>
      <trkpt lat="20.25643167" lon="-98.730545">
        <ele>1881.0</ele>
        <time>2019-10-12T15:31:59.855Z</time>
      </trkpt>
      <trkpt lat="20.25645" lon="-98.73054">
        <ele>1881.0</ele>
        <time>2019-10-12T15:32:00.860Z</time>
      </trkpt>
      <trkpt lat="20.256465" lon="-98.73053833">
        <ele>1881.0</ele>
        <time>2019-10-12T15:32:01.866Z</time>
      </trkpt>
      <trkpt lat="20.25647833" lon="-98.73054">
        <ele>1881.0</ele>
        <time>2019-10-12T15:32:02.871Z</time>
      </trkpt>
      <trkpt lat="20.25648833" lon="-98.73054667">
        <ele>1881.0</ele>
        <time>2019-10-12T15:32:03.874Z</time>
      </trkpt>
      <trkpt lat="20.25649667" lon="-98.73056">
        <ele>1881.0</ele>
        <time>2019-10-12T15:32:04.875Z</time>
      </trkpt>
      <trkpt lat="20.25650167" lon="-98.73057333">
        <ele>1881.0</ele>
        <time>2019-10-12T15:32:05.881Z</time>
      </trkpt>
      <trkpt lat="20.25651167" lon="-98.73058667">
        <ele>1881.0</ele>
        <time>2019-10-12T15:32:06.888Z</time>
      </trkpt>
      <trkpt lat="20.25651833" lon="-98.73060333">
        <ele>1881.0</ele>
        <time>2019-10-12T15:32:07.893Z</time>
      </trkpt>
      <trkpt lat="20.25652333" lon="-98.73062333">
        <ele>1881.0</ele>
        <time>2019-10-12T15:32:08.899Z</time>
      </trkpt>
      <trkpt lat="20.25652667" lon="-98.73064333">
        <ele>1881.0</ele>
        <time>2019-10-12T15:32:09.905Z</time>
      </trkpt>
      <trkpt lat="20.25653167" lon="-98.73066333">
        <ele>1882.0</ele>
        <time>2019-10-12T15:32:10.910Z</time>
      </trkpt>
      <trkpt lat="20.25653833" lon="-98.73068">
        <ele>1882.0</ele>
        <time>2019-10-12T15:32:11.916Z</time>
      </trkpt>
      <trkpt lat="20.25654833" lon="-98.73069167">
        <ele>1883.0</ele>
        <time>2019-10-12T15:32:12.921Z</time>
      </trkpt>
      <trkpt lat="20.25656" lon="-98.730705">
        <ele>1883.0</ele>
        <time>2019-10-12T15:32:13.926Z</time>
      </trkpt>
      <trkpt lat="20.25657" lon="-98.73072">
        <ele>1883.0</ele>
        <time>2019-10-12T15:32:14.929Z</time>
      </trkpt>
      <trkpt lat="20.25657833" lon="-98.73073833">
        <ele>1883.0</ele>
        <time>2019-10-12T15:32:15.935Z</time>
      </trkpt>
      <trkpt lat="20.25659" lon="-98.730755">
        <ele>1883.0</ele>
        <time>2019-10-12T15:32:16.942Z</time>
      </trkpt>
      <trkpt lat="20.25660333" lon="-98.73077333">
        <ele>1883.0</ele>
        <time>2019-10-12T15:32:17.947Z</time>
      </trkpt>
      <trkpt lat="20.25661333" lon="-98.73079667">
        <ele>1883.0</ele>
        <time>2019-10-12T15:32:18.948Z</time>
      </trkpt>
      <trkpt lat="20.256625" lon="-98.73082">
        <ele>1882.0</ele>
        <time>2019-10-12T15:32:19.949Z</time>
      </trkpt>
      <trkpt lat="20.25663833" lon="-98.73084">
        <ele>1882.0</ele>
        <time>2019-10-12T15:32:20.949Z</time>
      </trkpt>
      <trkpt lat="20.25665333" lon="-98.730855">
        <ele>1882.0</ele>
        <time>2019-10-12T15:32:21.950Z</time>
      </trkpt>
      <trkpt lat="20.25667" lon="-98.73086667">
        <ele>1882.0</ele>
        <time>2019-10-12T15:32:22.951Z</time>
      </trkpt>
      <trkpt lat="20.25668833" lon="-98.73087167">
        <ele>1882.0</ele>
        <time>2019-10-12T15:32:23.952Z</time>
      </trkpt>
      <trkpt lat="20.25670667" lon="-98.73087667">
        <ele>1882.0</ele>
        <time>2019-10-12T15:32:24.952Z</time>
      </trkpt>
      <trkpt lat="20.25672667" lon="-98.73088167">
        <ele>1882.0</ele>
        <time>2019-10-12T15:32:25.953Z</time>
      </trkpt>
      <trkpt lat="20.25674" lon="-98.73088167">
        <ele>1882.0</ele>
        <time>2019-10-12T15:32:26.954Z</time>
      </trkpt>
      <trkpt lat="20.25675833" lon="-98.73087333">
        <ele>1882.0</ele>
        <time>2019-10-12T15:32:27.830Z</time>
      </trkpt>
      <trkpt lat="20.25677333" lon="-98.73086333">
        <ele>1883.0</ele>
        <time>2019-10-12T15:32:28.830Z</time>
      </trkpt>
      <trkpt lat="20.25678833" lon="-98.73085333">
        <ele>1884.0</ele>
        <time>2019-10-12T15:32:29.831Z</time>
      </trkpt>
      <trkpt lat="20.25679833" lon="-98.73085">
        <ele>1884.0</ele>
        <time>2019-10-12T15:32:30.832Z</time>
      </trkpt>
      <trkpt lat="20.25681833" lon="-98.73084">
        <ele>1885.0</ele>
        <time>2019-10-12T15:32:31.833Z</time>
      </trkpt>
      <trkpt lat="20.25683" lon="-98.73082833">
        <ele>1885.0</ele>
        <time>2019-10-12T15:32:32.834Z</time>
      </trkpt>
      <trkpt lat="20.25684333" lon="-98.730815">
        <ele>1886.0</ele>
        <time>2019-10-12T15:32:33.835Z</time>
      </trkpt>
      <trkpt lat="20.25685667" lon="-98.73080833">
        <ele>1886.0</ele>
        <time>2019-10-12T15:32:34.835Z</time>
      </trkpt>
      <trkpt lat="20.25687" lon="-98.73080833">
        <ele>1886.0</ele>
        <time>2019-10-12T15:32:35.836Z</time>
      </trkpt>
      <trkpt lat="20.25688333" lon="-98.73081167">
        <ele>1886.0</ele>
        <time>2019-10-12T15:32:36.837Z</time>
      </trkpt>
      <trkpt lat="20.25689167" lon="-98.73082333">
        <ele>1888.0</ele>
        <time>2019-10-12T15:32:37.838Z</time>
      </trkpt>
      <trkpt lat="20.25689333" lon="-98.73084167">
        <ele>1888.0</ele>
        <time>2019-10-12T15:32:38.839Z</time>
      </trkpt>
      <trkpt lat="20.25689" lon="-98.73085667">
        <ele>1889.0</ele>
        <time>2019-10-12T15:32:39.839Z</time>
      </trkpt>
      <trkpt lat="20.25688833" lon="-98.73088">
        <ele>1890.0</ele>
        <time>2019-10-12T15:32:40.847Z</time>
      </trkpt>
      <trkpt lat="20.25688833" lon="-98.73089833">
        <ele>1890.0</ele>
        <time>2019-10-12T15:32:41.855Z</time>
      </trkpt>
      <trkpt lat="20.256885" lon="-98.73091833">
        <ele>1890.0</ele>
        <time>2019-10-12T15:32:42.858Z</time>
      </trkpt>
      <trkpt lat="20.25688" lon="-98.730935">
        <ele>1890.0</ele>
        <time>2019-10-12T15:32:43.863Z</time>
      </trkpt>
      <trkpt lat="20.25687" lon="-98.73094667">
        <ele>1890.0</ele>
        <time>2019-10-12T15:32:44.866Z</time>
      </trkpt>
      <trkpt lat="20.25686167" lon="-98.730965">
        <ele>1891.0</ele>
        <time>2019-10-12T15:32:45.872Z</time>
      </trkpt>
      <trkpt lat="20.25685667" lon="-98.73098833">
        <ele>1891.0</ele>
        <time>2019-10-12T15:32:46.878Z</time>
      </trkpt>
      <trkpt lat="20.25685833" lon="-98.731015">
        <ele>1892.0</ele>
        <time>2019-10-12T15:32:47.884Z</time>
      </trkpt>
      <trkpt lat="20.25686333" lon="-98.73104167">
        <ele>1893.0</ele>
        <time>2019-10-12T15:32:48.889Z</time>
      </trkpt>
      <trkpt lat="20.25687167" lon="-98.73106333">
        <ele>1893.0</ele>
        <time>2019-10-12T15:32:49.891Z</time>
      </trkpt>
      <trkpt lat="20.25688167" lon="-98.73108">
        <ele>1893.0</ele>
        <time>2019-10-12T15:32:50.897Z</time>
      </trkpt>
      <trkpt lat="20.25689167" lon="-98.731095">
        <ele>1894.0</ele>
        <time>2019-10-12T15:32:51.903Z</time>
      </trkpt>
      <trkpt lat="20.25690333" lon="-98.73110833">
        <ele>1894.0</ele>
        <time>2019-10-12T15:32:52.907Z</time>
      </trkpt>
      <trkpt lat="20.25691667" lon="-98.73112333">
        <ele>1894.0</ele>
        <time>2019-10-12T15:32:53.911Z</time>
      </trkpt>
      <trkpt lat="20.25693" lon="-98.73114167">
        <ele>1894.0</ele>
        <time>2019-10-12T15:32:54.914Z</time>
      </trkpt>
      <trkpt lat="20.25694167" lon="-98.73115833">
        <ele>1895.0</ele>
        <time>2019-10-12T15:32:55.915Z</time>
      </trkpt>
      <trkpt lat="20.25694667" lon="-98.731175">
        <ele>1895.0</ele>
        <time>2019-10-12T15:32:56.919Z</time>
      </trkpt>
      <trkpt lat="20.256945" lon="-98.731185">
        <ele>1894.0</ele>
        <time>2019-10-12T15:32:57.926Z</time>
      </trkpt>
      <trkpt lat="20.25690333" lon="-98.73128667">
        <ele>1898.0</ele>
        <time>2019-10-12T15:32:59.935Z</time>
      </trkpt>
      <trkpt lat="20.25691" lon="-98.73129833">
        <ele>1898.0</ele>
        <time>2019-10-12T15:33:00.939Z</time>
      </trkpt>
      <trkpt lat="20.25691333" lon="-98.73130333">
        <ele>1898.0</ele>
        <time>2019-10-12T15:33:01.946Z</time>
      </trkpt>
      <trkpt lat="20.25691833" lon="-98.73131333">
        <ele>1898.0</ele>
        <time>2019-10-12T15:33:02.950Z</time>
      </trkpt>
      <trkpt lat="20.25692333" lon="-98.731325">
        <ele>1899.0</ele>
        <time>2019-10-12T15:33:03.831Z</time>
      </trkpt>
      <trkpt lat="20.25692833" lon="-98.73133">
        <ele>1899.0</ele>
        <time>2019-10-12T15:33:04.837Z</time>
      </trkpt>
      <trkpt lat="20.25693167" lon="-98.73134">
        <ele>1900.0</ele>
        <time>2019-10-12T15:33:05.839Z</time>
      </trkpt>
      <trkpt lat="20.25693333" lon="-98.73135167">
        <ele>1900.0</ele>
        <time>2019-10-12T15:33:06.842Z</time>
      </trkpt>
      <trkpt lat="20.25693333" lon="-98.73136333">
        <ele>1900.0</ele>
        <time>2019-10-12T15:33:07.847Z</time>
      </trkpt>
      <trkpt lat="20.25693333" lon="-98.73137667">
        <ele>1900.0</ele>
        <time>2019-10-12T15:33:08.854Z</time>
      </trkpt>
      <trkpt lat="20.256935" lon="-98.73139">
        <ele>1900.0</ele>
        <time>2019-10-12T15:33:09.862Z</time>
      </trkpt>
      <trkpt lat="20.256935" lon="-98.73140667">
        <ele>1900.0</ele>
        <time>2019-10-12T15:33:10.865Z</time>
      </trkpt>
      <trkpt lat="20.25693333" lon="-98.731425">
        <ele>1900.0</ele>
        <time>2019-10-12T15:33:11.866Z</time>
      </trkpt>
      <trkpt lat="20.25693167" lon="-98.731445">
        <ele>1900.0</ele>
        <time>2019-10-12T15:33:12.867Z</time>
      </trkpt>
      <trkpt lat="20.25693333" lon="-98.73146333">
        <ele>1900.0</ele>
        <time>2019-10-12T15:33:13.867Z</time>
      </trkpt>
      <trkpt lat="20.25693833" lon="-98.73148667">
        <ele>1900.0</ele>
        <time>2019-10-12T15:33:14.873Z</time>
      </trkpt>
      <trkpt lat="20.25694833" lon="-98.73150833">
        <ele>1900.0</ele>
        <time>2019-10-12T15:33:15.877Z</time>
      </trkpt>
      <trkpt lat="20.25696" lon="-98.73152833">
        <ele>1900.0</ele>
        <time>2019-10-12T15:33:16.882Z</time>
      </trkpt>
      <trkpt lat="20.25697167" lon="-98.73154333">
        <ele>1900.0</ele>
        <time>2019-10-12T15:33:17.887Z</time>
      </trkpt>
      <trkpt lat="20.25698333" lon="-98.731555">
        <ele>1900.0</ele>
        <time>2019-10-12T15:33:18.893Z</time>
      </trkpt>
      <trkpt lat="20.25700333" lon="-98.731565">
        <ele>1900.0</ele>
        <time>2019-10-12T15:33:19.897Z</time>
      </trkpt>
      <trkpt lat="20.25702167" lon="-98.73157">
        <ele>1899.0</ele>
        <time>2019-10-12T15:33:20.898Z</time>
      </trkpt>
      <trkpt lat="20.257035" lon="-98.73157333">
        <ele>1899.0</ele>
        <time>2019-10-12T15:33:21.899Z</time>
      </trkpt>
      <trkpt lat="20.25705167" lon="-98.73158">
        <ele>1899.0</ele>
        <time>2019-10-12T15:33:22.903Z</time>
      </trkpt>
      <trkpt lat="20.25707" lon="-98.73158333">
        <ele>1899.0</ele>
        <time>2019-10-12T15:33:23.908Z</time>
      </trkpt>
      <trkpt lat="20.25709" lon="-98.73158667">
        <ele>1899.0</ele>
        <time>2019-10-12T15:33:24.915Z</time>
      </trkpt>
      <trkpt lat="20.25710833" lon="-98.73159333">
        <ele>1899.0</ele>
        <time>2019-10-12T15:33:25.917Z</time>
      </trkpt>
      <trkpt lat="20.25712667" lon="-98.73159833">
        <ele>1900.0</ele>
        <time>2019-10-12T15:33:26.917Z</time>
      </trkpt>
      <trkpt lat="20.25714167" lon="-98.73160333">
        <ele>1900.0</ele>
        <time>2019-10-12T15:33:27.918Z</time>
      </trkpt>
      <trkpt lat="20.257165" lon="-98.73161167">
        <ele>1900.0</ele>
        <time>2019-10-12T15:33:28.919Z</time>
      </trkpt>
      <trkpt lat="20.25718167" lon="-98.73161667">
        <ele>1900.0</ele>
        <time>2019-10-12T15:33:29.920Z</time>
      </trkpt>
      <trkpt lat="20.25720167" lon="-98.73161833">
        <ele>1899.0</ele>
        <time>2019-10-12T15:33:30.921Z</time>
      </trkpt>
      <trkpt lat="20.25722167" lon="-98.73162167">
        <ele>1898.0</ele>
        <time>2019-10-12T15:33:31.926Z</time>
      </trkpt>
      <trkpt lat="20.25723833" lon="-98.731625">
        <ele>1898.0</ele>
        <time>2019-10-12T15:33:32.933Z</time>
      </trkpt>
      <trkpt lat="20.25725333" lon="-98.73164">
        <ele>1898.0</ele>
        <time>2019-10-12T15:33:33.937Z</time>
      </trkpt>
      <trkpt lat="20.25726" lon="-98.73165833">
        <ele>1898.0</ele>
        <time>2019-10-12T15:33:34.939Z</time>
      </trkpt>
      <trkpt lat="20.25726" lon="-98.731675">
        <ele>1898.0</ele>
        <time>2019-10-12T15:33:35.946Z</time>
      </trkpt>
      <trkpt lat="20.25725667" lon="-98.731695">
        <ele>1899.0</ele>
        <time>2019-10-12T15:33:36.952Z</time>
      </trkpt>
      <trkpt lat="20.257255" lon="-98.731715">
        <ele>1900.0</ele>
        <time>2019-10-12T15:33:37.832Z</time>
      </trkpt>
      <trkpt lat="20.25725667" lon="-98.731735">
        <ele>1900.0</ele>
        <time>2019-10-12T15:33:38.837Z</time>
      </trkpt>
      <trkpt lat="20.25726333" lon="-98.73175167">
        <ele>1900.0</ele>
        <time>2019-10-12T15:33:39.843Z</time>
      </trkpt>
      <trkpt lat="20.25727" lon="-98.73176833">
        <ele>1900.0</ele>
        <time>2019-10-12T15:33:40.851Z</time>
      </trkpt>
      <trkpt lat="20.25727333" lon="-98.73178667">
        <ele>1900.0</ele>
        <time>2019-10-12T15:33:41.853Z</time>
      </trkpt>
      <trkpt lat="20.25727833" lon="-98.73180833">
        <ele>1900.0</ele>
        <time>2019-10-12T15:33:42.860Z</time>
      </trkpt>
      <trkpt lat="20.25728333" lon="-98.73182833">
        <ele>1901.0</ele>
        <time>2019-10-12T15:33:43.867Z</time>
      </trkpt>
      <trkpt lat="20.25729" lon="-98.73185">
        <ele>1901.0</ele>
        <time>2019-10-12T15:33:44.870Z</time>
      </trkpt>
      <trkpt lat="20.25729833" lon="-98.73186">
        <ele>1900.0</ele>
        <time>2019-10-12T15:33:45.871Z</time>
      </trkpt>
      <trkpt lat="20.25730833" lon="-98.73188">
        <ele>1901.0</ele>
        <time>2019-10-12T15:33:46.872Z</time>
      </trkpt>
      <trkpt lat="20.25731667" lon="-98.73189667">
        <ele>1901.0</ele>
        <time>2019-10-12T15:33:47.876Z</time>
      </trkpt>
      <trkpt lat="20.25732" lon="-98.73191667">
        <ele>1901.0</ele>
        <time>2019-10-12T15:33:48.880Z</time>
      </trkpt>
      <trkpt lat="20.25732833" lon="-98.731935">
        <ele>1901.0</ele>
        <time>2019-10-12T15:33:49.886Z</time>
      </trkpt>
      <trkpt lat="20.25733333" lon="-98.73195">
        <ele>1902.0</ele>
        <time>2019-10-12T15:33:50.893Z</time>
      </trkpt>
      <trkpt lat="20.25734167" lon="-98.73197167">
        <ele>1902.0</ele>
        <time>2019-10-12T15:33:51.896Z</time>
      </trkpt>
      <trkpt lat="20.25735167" lon="-98.73199">
        <ele>1902.0</ele>
        <time>2019-10-12T15:33:52.903Z</time>
      </trkpt>
      <trkpt lat="20.25736" lon="-98.73200333">
        <ele>1903.0</ele>
        <time>2019-10-12T15:33:53.908Z</time>
      </trkpt>
      <trkpt lat="20.25737" lon="-98.73201">
        <ele>1903.0</ele>
        <time>2019-10-12T15:33:54.915Z</time>
      </trkpt>
      <trkpt lat="20.25738333" lon="-98.73201833">
        <ele>1903.0</ele>
        <time>2019-10-12T15:33:55.920Z</time>
      </trkpt>
      <trkpt lat="20.25739833" lon="-98.73203">
        <ele>1903.0</ele>
        <time>2019-10-12T15:33:56.926Z</time>
      </trkpt>
      <trkpt lat="20.25740833" lon="-98.73204167">
        <ele>1903.0</ele>
        <time>2019-10-12T15:33:57.933Z</time>
      </trkpt>
      <trkpt lat="20.25741667" lon="-98.732055">
        <ele>1904.0</ele>
        <time>2019-10-12T15:33:58.941Z</time>
      </trkpt>
      <trkpt lat="20.25742167" lon="-98.73207">
        <ele>1904.0</ele>
        <time>2019-10-12T15:33:59.944Z</time>
      </trkpt>
      <trkpt lat="20.25742667" lon="-98.73208333">
        <ele>1904.0</ele>
        <time>2019-10-12T15:34:00.945Z</time>
      </trkpt>
      <trkpt lat="20.25742833" lon="-98.7321">
        <ele>1904.0</ele>
        <time>2019-10-12T15:34:01.946Z</time>
      </trkpt>
      <trkpt lat="20.25743" lon="-98.73211833">
        <ele>1905.0</ele>
        <time>2019-10-12T15:34:02.947Z</time>
      </trkpt>
      <trkpt lat="20.25743167" lon="-98.73213833">
        <ele>1905.0</ele>
        <time>2019-10-12T15:34:03.947Z</time>
      </trkpt>
      <trkpt lat="20.25743167" lon="-98.732155">
        <ele>1905.0</ele>
        <time>2019-10-12T15:34:04.948Z</time>
      </trkpt>
      <trkpt lat="20.25743333" lon="-98.73216667">
        <ele>1905.0</ele>
        <time>2019-10-12T15:34:05.949Z</time>
      </trkpt>
      <trkpt lat="20.25743833" lon="-98.73217833">
        <ele>1905.0</ele>
        <time>2019-10-12T15:34:06.950Z</time>
      </trkpt>
      <trkpt lat="20.25744833" lon="-98.73219167">
        <ele>1905.0</ele>
        <time>2019-10-12T15:34:07.951Z</time>
      </trkpt>
      <trkpt lat="20.25746" lon="-98.73220167">
        <ele>1904.0</ele>
        <time>2019-10-12T15:34:08.951Z</time>
      </trkpt>
      <trkpt lat="20.257475" lon="-98.73221167">
        <ele>1904.0</ele>
        <time>2019-10-12T15:34:09.951Z</time>
      </trkpt>
      <trkpt lat="20.25748667" lon="-98.732215">
        <ele>1904.0</ele>
        <time>2019-10-12T15:34:10.952Z</time>
      </trkpt>
      <trkpt lat="20.257505" lon="-98.73222">
        <ele>1904.0</ele>
        <time>2019-10-12T15:34:11.952Z</time>
      </trkpt>
      <trkpt lat="20.25752333" lon="-98.732225">
        <ele>1903.0</ele>
        <time>2019-10-12T15:34:12.952Z</time>
      </trkpt>
      <trkpt lat="20.25754" lon="-98.73222833">
        <ele>1904.0</ele>
        <time>2019-10-12T15:34:13.953Z</time>
      </trkpt>
      <trkpt lat="20.25756167" lon="-98.73222667">
        <ele>1903.0</ele>
        <time>2019-10-12T15:34:14.953Z</time>
      </trkpt>
      <trkpt lat="20.25757667" lon="-98.73222167">
        <ele>1903.0</ele>
        <time>2019-10-12T15:34:15.953Z</time>
      </trkpt>
      <trkpt lat="20.25759333" lon="-98.732215">
        <ele>1902.0</ele>
        <time>2019-10-12T15:34:16.954Z</time>
      </trkpt>
      <trkpt lat="20.25761167" lon="-98.73220833">
        <ele>1901.0</ele>
        <time>2019-10-12T15:34:17.954Z</time>
      </trkpt>
      <trkpt lat="20.25762667" lon="-98.73220667">
        <ele>1900.0</ele>
        <time>2019-10-12T15:34:18.954Z</time>
      </trkpt>
      <trkpt lat="20.25764333" lon="-98.73221167">
        <ele>1900.0</ele>
        <time>2019-10-12T15:34:19.954Z</time>
      </trkpt>
      <trkpt lat="20.257665" lon="-98.73222167">
        <ele>1900.0</ele>
        <time>2019-10-12T15:34:20.830Z</time>
      </trkpt>
      <trkpt lat="20.25767833" lon="-98.73223167">
        <ele>1900.0</ele>
        <time>2019-10-12T15:34:21.830Z</time>
      </trkpt>
      <trkpt lat="20.25769167" lon="-98.732245">
        <ele>1900.0</ele>
        <time>2019-10-12T15:34:22.830Z</time>
      </trkpt>
      <trkpt lat="20.25770833" lon="-98.73226167">
        <ele>1901.0</ele>
        <time>2019-10-12T15:34:23.830Z</time>
      </trkpt>
      <trkpt lat="20.25771833" lon="-98.73227167">
        <ele>1901.0</ele>
        <time>2019-10-12T15:34:24.830Z</time>
      </trkpt>
      <trkpt lat="20.25773167" lon="-98.732285">
        <ele>1901.0</ele>
        <time>2019-10-12T15:34:25.831Z</time>
      </trkpt>
      <trkpt lat="20.257745" lon="-98.73229333">
        <ele>1901.0</ele>
        <time>2019-10-12T15:34:26.831Z</time>
      </trkpt>
      <trkpt lat="20.25776333" lon="-98.732305">
        <ele>1902.0</ele>
        <time>2019-10-12T15:34:27.831Z</time>
      </trkpt>
      <trkpt lat="20.25777833" lon="-98.732315">
        <ele>1903.0</ele>
        <time>2019-10-12T15:34:28.831Z</time>
      </trkpt>
      <trkpt lat="20.25779333" lon="-98.73232167">
        <ele>1903.0</ele>
        <time>2019-10-12T15:34:29.832Z</time>
      </trkpt>
      <trkpt lat="20.25780333" lon="-98.73233">
        <ele>1904.0</ele>
        <time>2019-10-12T15:34:30.833Z</time>
      </trkpt>
      <trkpt lat="20.25781833" lon="-98.73233833">
        <ele>1905.0</ele>
        <time>2019-10-12T15:34:31.833Z</time>
      </trkpt>
      <trkpt lat="20.25783167" lon="-98.73234333">
        <ele>1906.0</ele>
        <time>2019-10-12T15:34:32.834Z</time>
      </trkpt>
      <trkpt lat="20.257845" lon="-98.73234833">
        <ele>1907.0</ele>
        <time>2019-10-12T15:34:33.835Z</time>
      </trkpt>
      <trkpt lat="20.25786" lon="-98.73235667">
        <ele>1908.0</ele>
        <time>2019-10-12T15:34:34.835Z</time>
      </trkpt>
      <trkpt lat="20.25787333" lon="-98.73236333">
        <ele>1908.0</ele>
        <time>2019-10-12T15:34:35.837Z</time>
      </trkpt>
      <trkpt lat="20.257885" lon="-98.73236833">
        <ele>1908.0</ele>
        <time>2019-10-12T15:34:36.838Z</time>
      </trkpt>
      <trkpt lat="20.25789833" lon="-98.73237333">
        <ele>1909.0</ele>
        <time>2019-10-12T15:34:37.838Z</time>
      </trkpt>
      <trkpt lat="20.25791333" lon="-98.73238">
        <ele>1909.0</ele>
        <time>2019-10-12T15:34:38.839Z</time>
      </trkpt>
      <trkpt lat="20.25792667" lon="-98.73238833">
        <ele>1910.0</ele>
        <time>2019-10-12T15:34:39.839Z</time>
      </trkpt>
      <trkpt lat="20.25794" lon="-98.73239333">
        <ele>1910.0</ele>
        <time>2019-10-12T15:34:40.841Z</time>
      </trkpt>
      <trkpt lat="20.25795167" lon="-98.73239667">
        <ele>1910.0</ele>
        <time>2019-10-12T15:34:41.842Z</time>
      </trkpt>
      <trkpt lat="20.257965" lon="-98.73239833">
        <ele>1911.0</ele>
        <time>2019-10-12T15:34:42.842Z</time>
      </trkpt>
      <trkpt lat="20.25798" lon="-98.73240167">
        <ele>1911.0</ele>
        <time>2019-10-12T15:34:43.843Z</time>
      </trkpt>
      <trkpt lat="20.25798833" lon="-98.73239667">
        <ele>1912.0</ele>
        <time>2019-10-12T15:34:44.844Z</time>
      </trkpt>
      <trkpt lat="20.25799333" lon="-98.73239167">
        <ele>1912.0</ele>
        <time>2019-10-12T15:34:45.845Z</time>
      </trkpt>
      <trkpt lat="20.25799667" lon="-98.73238667">
        <ele>1912.0</ele>
        <time>2019-10-12T15:34:46.846Z</time>
      </trkpt>
      <trkpt lat="20.25800167" lon="-98.73238667">
        <ele>1912.0</ele>
        <time>2019-10-12T15:34:47.846Z</time>
      </trkpt>
      <trkpt lat="20.25800667" lon="-98.73238333">
        <ele>1912.0</ele>
        <time>2019-10-12T15:34:48.847Z</time>
      </trkpt>
      <trkpt lat="20.25803167" lon="-98.73237333">
        <ele>1921.0</ele>
        <time>2019-10-12T15:34:50.852Z</time>
      </trkpt>
      <trkpt lat="20.25804833" lon="-98.73237833">
        <ele>1921.0</ele>
        <time>2019-10-12T15:34:51.857Z</time>
      </trkpt>
      <trkpt lat="20.258065" lon="-98.73238333">
        <ele>1922.0</ele>
        <time>2019-10-12T15:34:52.860Z</time>
      </trkpt>
      <trkpt lat="20.25808167" lon="-98.73238833">
        <ele>1922.0</ele>
        <time>2019-10-12T15:34:53.864Z</time>
      </trkpt>
      <trkpt lat="20.25809833" lon="-98.73239333">
        <ele>1923.0</ele>
        <time>2019-10-12T15:34:54.871Z</time>
      </trkpt>
      <trkpt lat="20.258115" lon="-98.732395">
        <ele>1923.0</ele>
        <time>2019-10-12T15:34:55.875Z</time>
      </trkpt>
      <trkpt lat="20.25813333" lon="-98.73239667">
        <ele>1923.0</ele>
        <time>2019-10-12T15:34:56.876Z</time>
      </trkpt>
      <trkpt lat="20.25815167" lon="-98.73239333">
        <ele>1923.0</ele>
        <time>2019-10-12T15:34:57.877Z</time>
      </trkpt>
      <trkpt lat="20.25816667" lon="-98.732385">
        <ele>1923.0</ele>
        <time>2019-10-12T15:34:58.878Z</time>
      </trkpt>
      <trkpt lat="20.25818333" lon="-98.732375">
        <ele>1922.0</ele>
        <time>2019-10-12T15:34:59.879Z</time>
      </trkpt>
      <trkpt lat="20.25819333" lon="-98.732365">
        <ele>1923.0</ele>
        <time>2019-10-12T15:35:00.879Z</time>
      </trkpt>
      <trkpt lat="20.25820333" lon="-98.73235667">
        <ele>1923.0</ele>
        <time>2019-10-12T15:35:01.880Z</time>
      </trkpt>
      <trkpt lat="20.25821167" lon="-98.73234667">
        <ele>1923.0</ele>
        <time>2019-10-12T15:35:02.880Z</time>
      </trkpt>
      <trkpt lat="20.25822" lon="-98.73233667">
        <ele>1923.0</ele>
        <time>2019-10-12T15:35:03.880Z</time>
      </trkpt>
      <trkpt lat="20.25822667" lon="-98.732325">
        <ele>1924.0</ele>
        <time>2019-10-12T15:35:04.883Z</time>
      </trkpt>
      <trkpt lat="20.258235" lon="-98.73231167">
        <ele>1924.0</ele>
        <time>2019-10-12T15:35:05.886Z</time>
      </trkpt>
      <trkpt lat="20.25824333" lon="-98.73229833">
        <ele>1923.0</ele>
        <time>2019-10-12T15:35:06.888Z</time>
      </trkpt>
      <trkpt lat="20.25825" lon="-98.732285">
        <ele>1923.0</ele>
        <time>2019-10-12T15:35:07.892Z</time>
      </trkpt>
      <trkpt lat="20.25825333" lon="-98.73227333">
        <ele>1923.0</ele>
        <time>2019-10-12T15:35:08.895Z</time>
      </trkpt>
      <trkpt lat="20.25825333" lon="-98.73226">
        <ele>1924.0</ele>
        <time>2019-10-12T15:35:09.900Z</time>
      </trkpt>
      <trkpt lat="20.25825167" lon="-98.732245">
        <ele>1924.0</ele>
        <time>2019-10-12T15:35:10.908Z</time>
      </trkpt>
      <trkpt lat="20.25825" lon="-98.73222833">
        <ele>1925.0</ele>
        <time>2019-10-12T15:35:11.910Z</time>
      </trkpt>
      <trkpt lat="20.25824833" lon="-98.73221">
        <ele>1926.0</ele>
        <time>2019-10-12T15:35:12.913Z</time>
      </trkpt>
      <trkpt lat="20.25825167" lon="-98.73219167">
        <ele>1927.0</ele>
        <time>2019-10-12T15:35:13.914Z</time>
      </trkpt>
      <trkpt lat="20.258255" lon="-98.732175">
        <ele>1927.0</ele>
        <time>2019-10-12T15:35:14.916Z</time>
      </trkpt>
      <trkpt lat="20.258255" lon="-98.73215833">
        <ele>1928.0</ele>
        <time>2019-10-12T15:35:15.920Z</time>
      </trkpt>
      <trkpt lat="20.25825333" lon="-98.732145">
        <ele>1929.0</ele>
        <time>2019-10-12T15:35:16.923Z</time>
      </trkpt>
      <trkpt lat="20.258255" lon="-98.73213667">
        <ele>1930.0</ele>
        <time>2019-10-12T15:35:17.926Z</time>
      </trkpt>
      <trkpt lat="20.25826" lon="-98.732125">
        <ele>1930.0</ele>
        <time>2019-10-12T15:35:18.928Z</time>
      </trkpt>
      <trkpt lat="20.25826667" lon="-98.73211167">
        <ele>1930.0</ele>
        <time>2019-10-12T15:35:19.934Z</time>
      </trkpt>
      <trkpt lat="20.25827667" lon="-98.73210167">
        <ele>1930.0</ele>
        <time>2019-10-12T15:35:20.941Z</time>
      </trkpt>
      <trkpt lat="20.258295" lon="-98.73209167">
        <ele>1929.0</ele>
        <time>2019-10-12T15:35:21.946Z</time>
      </trkpt>
      <trkpt lat="20.25831167" lon="-98.732085">
        <ele>1929.0</ele>
        <time>2019-10-12T15:35:22.949Z</time>
      </trkpt>
      <trkpt lat="20.25833" lon="-98.73207667">
        <ele>1929.0</ele>
        <time>2019-10-12T15:35:23.954Z</time>
      </trkpt>
      <trkpt lat="20.25834667" lon="-98.73207">
        <ele>1929.0</ele>
        <time>2019-10-12T15:35:24.835Z</time>
      </trkpt>
      <trkpt lat="20.25836333" lon="-98.73206167">
        <ele>1929.0</ele>
        <time>2019-10-12T15:35:25.841Z</time>
      </trkpt>
      <trkpt lat="20.25838167" lon="-98.732055">
        <ele>1929.0</ele>
        <time>2019-10-12T15:35:26.845Z</time>
      </trkpt>
      <trkpt lat="20.25839667" lon="-98.73205">
        <ele>1928.0</ele>
        <time>2019-10-12T15:35:27.852Z</time>
      </trkpt>
      <trkpt lat="20.258415" lon="-98.73204833">
        <ele>1928.0</ele>
        <time>2019-10-12T15:35:28.854Z</time>
      </trkpt>
      <trkpt lat="20.258435" lon="-98.73205">
        <ele>1927.0</ele>
        <time>2019-10-12T15:35:29.859Z</time>
      </trkpt>
      <trkpt lat="20.25845833" lon="-98.73204667">
        <ele>1927.0</ele>
        <time>2019-10-12T15:35:30.866Z</time>
      </trkpt>
      <trkpt lat="20.25848167" lon="-98.73204333">
        <ele>1927.0</ele>
        <time>2019-10-12T15:35:31.872Z</time>
      </trkpt>
      <trkpt lat="20.25850167" lon="-98.73203667">
        <ele>1927.0</ele>
        <time>2019-10-12T15:35:32.876Z</time>
      </trkpt>
      <trkpt lat="20.25852" lon="-98.73202833">
        <ele>1926.0</ele>
        <time>2019-10-12T15:35:33.882Z</time>
      </trkpt>
      <trkpt lat="20.25854" lon="-98.73202">
        <ele>1926.0</ele>
        <time>2019-10-12T15:35:34.888Z</time>
      </trkpt>
      <trkpt lat="20.25856" lon="-98.73200833">
        <ele>1926.0</ele>
        <time>2019-10-12T15:35:35.895Z</time>
      </trkpt>
      <trkpt lat="20.25858" lon="-98.731995">
        <ele>1925.0</ele>
        <time>2019-10-12T15:35:36.900Z</time>
      </trkpt>
      <trkpt lat="20.25859833" lon="-98.73198167">
        <ele>1924.0</ele>
        <time>2019-10-12T15:35:37.900Z</time>
      </trkpt>
      <trkpt lat="20.25861833" lon="-98.73197667">
        <ele>1923.0</ele>
        <time>2019-10-12T15:35:38.901Z</time>
      </trkpt>
      <trkpt lat="20.258635" lon="-98.73198">
        <ele>1923.0</ele>
        <time>2019-10-12T15:35:39.902Z</time>
      </trkpt>
      <trkpt lat="20.258655" lon="-98.73199">
        <ele>1923.0</ele>
        <time>2019-10-12T15:35:40.903Z</time>
      </trkpt>
      <trkpt lat="20.25867333" lon="-98.73199333">
        <ele>1923.0</ele>
        <time>2019-10-12T15:35:41.907Z</time>
      </trkpt>
      <trkpt lat="20.25869333" lon="-98.731995">
        <ele>1922.0</ele>
        <time>2019-10-12T15:35:42.909Z</time>
      </trkpt>
      <trkpt lat="20.25871333" lon="-98.731995">
        <ele>1921.0</ele>
        <time>2019-10-12T15:35:43.914Z</time>
      </trkpt>
      <trkpt lat="20.25873333" lon="-98.73199667">
        <ele>1921.0</ele>
        <time>2019-10-12T15:35:44.920Z</time>
      </trkpt>
      <trkpt lat="20.25875333" lon="-98.73200333">
        <ele>1921.0</ele>
        <time>2019-10-12T15:35:45.926Z</time>
      </trkpt>
      <trkpt lat="20.25877333" lon="-98.73200667">
        <ele>1920.0</ele>
        <time>2019-10-12T15:35:46.929Z</time>
      </trkpt>
      <trkpt lat="20.25879333" lon="-98.73200833">
        <ele>1920.0</ele>
        <time>2019-10-12T15:35:47.930Z</time>
      </trkpt>
      <trkpt lat="20.25881333" lon="-98.73200667">
        <ele>1919.0</ele>
        <time>2019-10-12T15:35:48.933Z</time>
      </trkpt>
      <trkpt lat="20.25883167" lon="-98.73200833">
        <ele>1919.0</ele>
        <time>2019-10-12T15:35:49.935Z</time>
      </trkpt>
      <trkpt lat="20.258855" lon="-98.73201167">
        <ele>1918.0</ele>
        <time>2019-10-12T15:35:50.941Z</time>
      </trkpt>
      <trkpt lat="20.25887667" lon="-98.73201833">
        <ele>1918.0</ele>
        <time>2019-10-12T15:35:51.947Z</time>
      </trkpt>
      <trkpt lat="20.25889833" lon="-98.73202667">
        <ele>1918.0</ele>
        <time>2019-10-12T15:35:52.952Z</time>
      </trkpt>
      <trkpt lat="20.25892333" lon="-98.73203333">
        <ele>1918.0</ele>
        <time>2019-10-12T15:35:53.833Z</time>
      </trkpt>
      <trkpt lat="20.25894667" lon="-98.73204">
        <ele>1917.0</ele>
        <time>2019-10-12T15:35:54.835Z</time>
      </trkpt>
      <trkpt lat="20.25897" lon="-98.73204667">
        <ele>1917.0</ele>
        <time>2019-10-12T15:35:55.841Z</time>
      </trkpt>
      <trkpt lat="20.25899333" lon="-98.73205667">
        <ele>1917.0</ele>
        <time>2019-10-12T15:35:56.848Z</time>
      </trkpt>
      <trkpt lat="20.25901667" lon="-98.73206667">
        <ele>1916.0</ele>
        <time>2019-10-12T15:35:57.853Z</time>
      </trkpt>
      <trkpt lat="20.25904167" lon="-98.73208">
        <ele>1916.0</ele>
        <time>2019-10-12T15:35:58.854Z</time>
      </trkpt>
      <trkpt lat="20.259065" lon="-98.732095">
        <ele>1916.0</ele>
        <time>2019-10-12T15:35:59.855Z</time>
      </trkpt>
      <trkpt lat="20.25909" lon="-98.73211">
        <ele>1916.0</ele>
        <time>2019-10-12T15:36:00.855Z</time>
      </trkpt>
      <trkpt lat="20.25911167" lon="-98.73212833">
        <ele>1915.0</ele>
        <time>2019-10-12T15:36:01.856Z</time>
      </trkpt>
      <trkpt lat="20.259135" lon="-98.732145">
        <ele>1915.0</ele>
        <time>2019-10-12T15:36:02.856Z</time>
      </trkpt>
      <trkpt lat="20.25916" lon="-98.73216">
        <ele>1914.0</ele>
        <time>2019-10-12T15:36:03.856Z</time>
      </trkpt>
      <trkpt lat="20.25918667" lon="-98.73217">
        <ele>1914.0</ele>
        <time>2019-10-12T15:36:04.857Z</time>
      </trkpt>
      <trkpt lat="20.25921167" lon="-98.73217667">
        <ele>1913.0</ele>
        <time>2019-10-12T15:36:05.857Z</time>
      </trkpt>
      <trkpt lat="20.25923667" lon="-98.73218333">
        <ele>1913.0</ele>
        <time>2019-10-12T15:36:06.857Z</time>
      </trkpt>
      <trkpt lat="20.25926667" lon="-98.73218833">
        <ele>1912.0</ele>
        <time>2019-10-12T15:36:07.858Z</time>
      </trkpt>
      <trkpt lat="20.259295" lon="-98.73219333">
        <ele>1911.0</ele>
        <time>2019-10-12T15:36:08.858Z</time>
      </trkpt>
      <trkpt lat="20.259325" lon="-98.73219667">
        <ele>1911.0</ele>
        <time>2019-10-12T15:36:09.859Z</time>
      </trkpt>
      <trkpt lat="20.25935333" lon="-98.73220167">
        <ele>1911.0</ele>
        <time>2019-10-12T15:36:10.860Z</time>
      </trkpt>
      <trkpt lat="20.25938333" lon="-98.73220833">
        <ele>1910.0</ele>
        <time>2019-10-12T15:36:11.860Z</time>
      </trkpt>
      <trkpt lat="20.259415" lon="-98.732215">
        <ele>1910.0</ele>
        <time>2019-10-12T15:36:12.861Z</time>
      </trkpt>
      <trkpt lat="20.25944167" lon="-98.73221833">
        <ele>1909.0</ele>
        <time>2019-10-12T15:36:13.862Z</time>
      </trkpt>
      <trkpt lat="20.25946833" lon="-98.73222333">
        <ele>1908.0</ele>
        <time>2019-10-12T15:36:14.863Z</time>
      </trkpt>
      <trkpt lat="20.25949667" lon="-98.73222667">
        <ele>1908.0</ele>
        <time>2019-10-12T15:36:15.864Z</time>
      </trkpt>
      <trkpt lat="20.259525" lon="-98.73223">
        <ele>1907.0</ele>
        <time>2019-10-12T15:36:16.864Z</time>
      </trkpt>
      <trkpt lat="20.259555" lon="-98.73223333">
        <ele>1907.0</ele>
        <time>2019-10-12T15:36:17.865Z</time>
      </trkpt>
      <trkpt lat="20.25958333" lon="-98.73224">
        <ele>1906.0</ele>
        <time>2019-10-12T15:36:18.866Z</time>
      </trkpt>
      <trkpt lat="20.25961" lon="-98.732245">
        <ele>1905.0</ele>
        <time>2019-10-12T15:36:19.867Z</time>
      </trkpt>
      <trkpt lat="20.25963333" lon="-98.73224667">
        <ele>1905.0</ele>
        <time>2019-10-12T15:36:20.868Z</time>
      </trkpt>
      <trkpt lat="20.259655" lon="-98.73225">
        <ele>1904.0</ele>
        <time>2019-10-12T15:36:21.868Z</time>
      </trkpt>
      <trkpt lat="20.25967333" lon="-98.732255">
        <ele>1904.0</ele>
        <time>2019-10-12T15:36:22.869Z</time>
      </trkpt>
      <trkpt lat="20.25968833" lon="-98.73226">
        <ele>1903.0</ele>
        <time>2019-10-12T15:36:23.870Z</time>
      </trkpt>
      <trkpt lat="20.25969833" lon="-98.73226333">
        <ele>1902.0</ele>
        <time>2019-10-12T15:36:24.871Z</time>
      </trkpt>
      <trkpt lat="20.259705" lon="-98.73227333">
        <ele>1902.0</ele>
        <time>2019-10-12T15:36:25.872Z</time>
      </trkpt>
      <trkpt lat="20.25971333" lon="-98.732285">
        <ele>1901.0</ele>
        <time>2019-10-12T15:36:26.876Z</time>
      </trkpt>
      <trkpt lat="20.25972" lon="-98.73229667">
        <ele>1900.0</ele>
        <time>2019-10-12T15:36:27.881Z</time>
      </trkpt>
      <trkpt lat="20.25973" lon="-98.73230667">
        <ele>1899.0</ele>
        <time>2019-10-12T15:36:28.888Z</time>
      </trkpt>
      <trkpt lat="20.25974333" lon="-98.73231">
        <ele>1899.0</ele>
        <time>2019-10-12T15:36:29.893Z</time>
      </trkpt>
      <trkpt lat="20.25975667" lon="-98.73231333">
        <ele>1899.0</ele>
        <time>2019-10-12T15:36:30.896Z</time>
      </trkpt>
      <trkpt lat="20.259765" lon="-98.73231833">
        <ele>1899.0</ele>
        <time>2019-10-12T15:36:31.900Z</time>
      </trkpt>
      <trkpt lat="20.259775" lon="-98.73232833">
        <ele>1898.0</ele>
        <time>2019-10-12T15:36:32.906Z</time>
      </trkpt>
      <trkpt lat="20.259785" lon="-98.73234167">
        <ele>1898.0</ele>
        <time>2019-10-12T15:36:33.913Z</time>
      </trkpt>
      <trkpt lat="20.259795" lon="-98.732355">
        <ele>1898.0</ele>
        <time>2019-10-12T15:36:34.919Z</time>
      </trkpt>
      <trkpt lat="20.25981" lon="-98.73236667">
        <ele>1897.0</ele>
        <time>2019-10-12T15:36:35.922Z</time>
      </trkpt>
      <trkpt lat="20.259825" lon="-98.73238167">
        <ele>1897.0</ele>
        <time>2019-10-12T15:36:36.925Z</time>
      </trkpt>
      <trkpt lat="20.25984" lon="-98.73239833">
        <ele>1897.0</ele>
        <time>2019-10-12T15:36:37.932Z</time>
      </trkpt>
      <trkpt lat="20.25985667" lon="-98.73241667">
        <ele>1896.0</ele>
        <time>2019-10-12T15:36:38.939Z</time>
      </trkpt>
      <trkpt lat="20.25987333" lon="-98.73244">
        <ele>1896.0</ele>
        <time>2019-10-12T15:36:39.944Z</time>
      </trkpt>
      <trkpt lat="20.25989" lon="-98.732465">
        <ele>1896.0</ele>
        <time>2019-10-12T15:36:40.945Z</time>
      </trkpt>
      <trkpt lat="20.259905" lon="-98.732485">
        <ele>1896.0</ele>
        <time>2019-10-12T15:36:41.946Z</time>
      </trkpt>
      <trkpt lat="20.25992667" lon="-98.732515">
        <ele>1895.0</ele>
        <time>2019-10-12T15:36:42.948Z</time>
      </trkpt>
      <trkpt lat="20.25994667" lon="-98.73254">
        <ele>1896.0</ele>
        <time>2019-10-12T15:36:43.952Z</time>
      </trkpt>
      <trkpt lat="20.259965" lon="-98.73256333">
        <ele>1896.0</ele>
        <time>2019-10-12T15:36:44.830Z</time>
      </trkpt>
      <trkpt lat="20.259985" lon="-98.73258333">
        <ele>1896.0</ele>
        <time>2019-10-12T15:36:45.836Z</time>
      </trkpt>
      <trkpt lat="20.26000333" lon="-98.73260167">
        <ele>1896.0</ele>
        <time>2019-10-12T15:36:46.841Z</time>
      </trkpt>
      <trkpt lat="20.26002" lon="-98.73261833">
        <ele>1896.0</ele>
        <time>2019-10-12T15:36:47.847Z</time>
      </trkpt>
      <trkpt lat="20.260035" lon="-98.73264">
        <ele>1895.0</ele>
        <time>2019-10-12T15:36:48.848Z</time>
      </trkpt>
      <trkpt lat="20.26005167" lon="-98.73266">
        <ele>1895.0</ele>
        <time>2019-10-12T15:36:49.852Z</time>
      </trkpt>
      <trkpt lat="20.26006833" lon="-98.73268167">
        <ele>1894.0</ele>
        <time>2019-10-12T15:36:50.857Z</time>
      </trkpt>
      <trkpt lat="20.26008833" lon="-98.73270167">
        <ele>1894.0</ele>
        <time>2019-10-12T15:36:51.860Z</time>
      </trkpt>
      <trkpt lat="20.26011" lon="-98.73272333">
        <ele>1894.0</ele>
        <time>2019-10-12T15:36:52.865Z</time>
      </trkpt>
      <trkpt lat="20.26013167" lon="-98.732745">
        <ele>1893.0</ele>
        <time>2019-10-12T15:36:53.871Z</time>
      </trkpt>
      <trkpt lat="20.26015333" lon="-98.73276667">
        <ele>1893.0</ele>
        <time>2019-10-12T15:36:54.878Z</time>
      </trkpt>
      <trkpt lat="20.26017333" lon="-98.73278833">
        <ele>1893.0</ele>
        <time>2019-10-12T15:36:55.881Z</time>
      </trkpt>
      <trkpt lat="20.26019167" lon="-98.73281">
        <ele>1892.0</ele>
        <time>2019-10-12T15:36:56.883Z</time>
      </trkpt>
      <trkpt lat="20.26020833" lon="-98.73283333">
        <ele>1892.0</ele>
        <time>2019-10-12T15:36:57.886Z</time>
      </trkpt>
      <trkpt lat="20.26022167" lon="-98.732855">
        <ele>1891.0</ele>
        <time>2019-10-12T15:36:58.891Z</time>
      </trkpt>
      <trkpt lat="20.26023833" lon="-98.73287833">
        <ele>1891.0</ele>
        <time>2019-10-12T15:36:59.897Z</time>
      </trkpt>
      <trkpt lat="20.26025333" lon="-98.7329">
        <ele>1891.0</ele>
        <time>2019-10-12T15:37:00.899Z</time>
      </trkpt>
      <trkpt lat="20.26027167" lon="-98.73292167">
        <ele>1890.0</ele>
        <time>2019-10-12T15:37:01.900Z</time>
      </trkpt>
      <trkpt lat="20.26029167" lon="-98.73294167">
        <ele>1889.0</ele>
        <time>2019-10-12T15:37:02.900Z</time>
      </trkpt>
      <trkpt lat="20.26031" lon="-98.73296333">
        <ele>1889.0</ele>
        <time>2019-10-12T15:37:03.904Z</time>
      </trkpt>
      <trkpt lat="20.26032833" lon="-98.73298333">
        <ele>1888.0</ele>
        <time>2019-10-12T15:37:04.908Z</time>
      </trkpt>
      <trkpt lat="20.26035" lon="-98.73300167">
        <ele>1888.0</ele>
        <time>2019-10-12T15:37:05.915Z</time>
      </trkpt>
      <trkpt lat="20.26037333" lon="-98.733015">
        <ele>1887.0</ele>
        <time>2019-10-12T15:37:06.918Z</time>
      </trkpt>
      <trkpt lat="20.26039667" lon="-98.73303">
        <ele>1886.0</ele>
        <time>2019-10-12T15:37:07.921Z</time>
      </trkpt>
      <trkpt lat="20.260415" lon="-98.73304833">
        <ele>1886.0</ele>
        <time>2019-10-12T15:37:08.925Z</time>
      </trkpt>
      <trkpt lat="20.26043" lon="-98.73307">
        <ele>1886.0</ele>
        <time>2019-10-12T15:37:09.928Z</time>
      </trkpt>
      <trkpt lat="20.26044167" lon="-98.73309167">
        <ele>1886.0</ele>
        <time>2019-10-12T15:37:10.932Z</time>
      </trkpt>
      <trkpt lat="20.26045333" lon="-98.73311333">
        <ele>1886.0</ele>
        <time>2019-10-12T15:37:11.939Z</time>
      </trkpt>
      <trkpt lat="20.26046833" lon="-98.73313333">
        <ele>1885.0</ele>
        <time>2019-10-12T15:37:12.945Z</time>
      </trkpt>
      <trkpt lat="20.26048667" lon="-98.73315167">
        <ele>1885.0</ele>
        <time>2019-10-12T15:37:13.950Z</time>
      </trkpt>
      <trkpt lat="20.260505" lon="-98.73316833">
        <ele>1884.0</ele>
        <time>2019-10-12T15:37:14.954Z</time>
      </trkpt>
      <trkpt lat="20.26051667" lon="-98.73319">
        <ele>1884.0</ele>
        <time>2019-10-12T15:37:15.832Z</time>
      </trkpt>
      <trkpt lat="20.260525" lon="-98.73321333">
        <ele>1884.0</ele>
        <time>2019-10-12T15:37:16.838Z</time>
      </trkpt>
      <trkpt lat="20.26053" lon="-98.73323667">
        <ele>1884.0</ele>
        <time>2019-10-12T15:37:17.844Z</time>
      </trkpt>
      <trkpt lat="20.26053167" lon="-98.73326167">
        <ele>1884.0</ele>
        <time>2019-10-12T15:37:18.849Z</time>
      </trkpt>
      <trkpt lat="20.26052667" lon="-98.733285">
        <ele>1885.0</ele>
        <time>2019-10-12T15:37:19.851Z</time>
      </trkpt>
      <trkpt lat="20.26051667" lon="-98.73330833">
        <ele>1885.0</ele>
        <time>2019-10-12T15:37:20.852Z</time>
      </trkpt>
      <trkpt lat="20.26050167" lon="-98.73333167">
        <ele>1886.0</ele>
        <time>2019-10-12T15:37:21.853Z</time>
      </trkpt>
      <trkpt lat="20.260485" lon="-98.73335167">
        <ele>1886.0</ele>
        <time>2019-10-12T15:37:22.858Z</time>
      </trkpt>
      <trkpt lat="20.26047" lon="-98.73337667">
        <ele>1886.0</ele>
        <time>2019-10-12T15:37:23.862Z</time>
      </trkpt>
      <trkpt lat="20.26045667" lon="-98.7334">
        <ele>1886.0</ele>
        <time>2019-10-12T15:37:24.865Z</time>
      </trkpt>
      <trkpt lat="20.26044" lon="-98.73342333">
        <ele>1886.0</ele>
        <time>2019-10-12T15:37:25.870Z</time>
      </trkpt>
      <trkpt lat="20.26042" lon="-98.73344333">
        <ele>1886.0</ele>
        <time>2019-10-12T15:37:26.876Z</time>
      </trkpt>
      <trkpt lat="20.26040333" lon="-98.73346333">
        <ele>1886.0</ele>
        <time>2019-10-12T15:37:27.880Z</time>
      </trkpt>
      <trkpt lat="20.26039667" lon="-98.73348667">
        <ele>1885.0</ele>
        <time>2019-10-12T15:37:28.886Z</time>
      </trkpt>
      <trkpt lat="20.260395" lon="-98.73351167">
        <ele>1885.0</ele>
        <time>2019-10-12T15:37:29.891Z</time>
      </trkpt>
      <trkpt lat="20.26039167" lon="-98.73354">
        <ele>1884.0</ele>
        <time>2019-10-12T15:37:30.895Z</time>
      </trkpt>
      <trkpt lat="20.26038833" lon="-98.73356833">
        <ele>1884.0</ele>
        <time>2019-10-12T15:37:31.899Z</time>
      </trkpt>
      <trkpt lat="20.26038667" lon="-98.73359833">
        <ele>1883.0</ele>
        <time>2019-10-12T15:37:32.903Z</time>
      </trkpt>
      <trkpt lat="20.26038667" lon="-98.73362833">
        <ele>1883.0</ele>
        <time>2019-10-12T15:37:33.910Z</time>
      </trkpt>
      <trkpt lat="20.26038833" lon="-98.73365833">
        <ele>1883.0</ele>
        <time>2019-10-12T15:37:34.916Z</time>
      </trkpt>
      <trkpt lat="20.26039333" lon="-98.733685">
        <ele>1883.0</ele>
        <time>2019-10-12T15:37:35.919Z</time>
      </trkpt>
      <trkpt lat="20.26039833" lon="-98.73371333">
        <ele>1882.0</ele>
        <time>2019-10-12T15:37:36.923Z</time>
      </trkpt>
      <trkpt lat="20.260405" lon="-98.73374167">
        <ele>1882.0</ele>
        <time>2019-10-12T15:37:37.927Z</time>
      </trkpt>
      <trkpt lat="20.260415" lon="-98.73376833">
        <ele>1882.0</ele>
        <time>2019-10-12T15:37:38.928Z</time>
      </trkpt>
      <trkpt lat="20.260425" lon="-98.73379333">
        <ele>1881.0</ele>
        <time>2019-10-12T15:37:39.929Z</time>
      </trkpt>
      <trkpt lat="20.26043833" lon="-98.73382">
        <ele>1881.0</ele>
        <time>2019-10-12T15:37:40.930Z</time>
      </trkpt>
      <trkpt lat="20.26045" lon="-98.73384167">
        <ele>1880.0</ele>
        <time>2019-10-12T15:37:41.931Z</time>
      </trkpt>
      <trkpt lat="20.26046333" lon="-98.73386167">
        <ele>1880.0</ele>
        <time>2019-10-12T15:37:42.932Z</time>
      </trkpt>
      <trkpt lat="20.26048" lon="-98.73387667">
        <ele>1880.0</ele>
        <time>2019-10-12T15:37:43.932Z</time>
      </trkpt>
      <trkpt lat="20.26050167" lon="-98.73388333">
        <ele>1879.0</ele>
        <time>2019-10-12T15:37:44.933Z</time>
      </trkpt>
      <trkpt lat="20.26052167" lon="-98.73388167">
        <ele>1878.0</ele>
        <time>2019-10-12T15:37:45.934Z</time>
      </trkpt>
      <trkpt lat="20.26054" lon="-98.733875">
        <ele>1878.0</ele>
        <time>2019-10-12T15:37:46.935Z</time>
      </trkpt>
      <trkpt lat="20.26055667" lon="-98.73386333">
        <ele>1878.0</ele>
        <time>2019-10-12T15:37:47.936Z</time>
      </trkpt>
      <trkpt lat="20.26057167" lon="-98.73384667">
        <ele>1878.0</ele>
        <time>2019-10-12T15:37:48.937Z</time>
      </trkpt>
      <trkpt lat="20.26058667" lon="-98.73383167">
        <ele>1877.0</ele>
        <time>2019-10-12T15:37:49.944Z</time>
      </trkpt>
      <trkpt lat="20.26059667" lon="-98.73381333">
        <ele>1877.0</ele>
        <time>2019-10-12T15:37:50.947Z</time>
      </trkpt>
      <trkpt lat="20.26060667" lon="-98.73379167">
        <ele>1876.0</ele>
        <time>2019-10-12T15:37:51.951Z</time>
      </trkpt>
      <trkpt lat="20.260615" lon="-98.73377167">
        <ele>1876.0</ele>
        <time>2019-10-12T15:37:52.830Z</time>
      </trkpt>
      <trkpt lat="20.260625" lon="-98.73374833">
        <ele>1876.0</ele>
        <time>2019-10-12T15:37:53.834Z</time>
      </trkpt>
      <trkpt lat="20.26063167" lon="-98.73372167">
        <ele>1877.0</ele>
        <time>2019-10-12T15:37:54.837Z</time>
      </trkpt>
      <trkpt lat="20.260635" lon="-98.73369167">
        <ele>1877.0</ele>
        <time>2019-10-12T15:37:55.838Z</time>
      </trkpt>
      <trkpt lat="20.260635" lon="-98.73366167">
        <ele>1878.0</ele>
        <time>2019-10-12T15:37:56.839Z</time>
      </trkpt>
      <trkpt lat="20.26063833" lon="-98.73364">
        <ele>1878.0</ele>
        <time>2019-10-12T15:37:57.845Z</time>
      </trkpt>
      <trkpt lat="20.26064333" lon="-98.73362667">
        <ele>1878.0</ele>
        <time>2019-10-12T15:37:58.850Z</time>
      </trkpt>
      <trkpt lat="20.260655" lon="-98.73362167">
        <ele>1877.0</ele>
        <time>2019-10-12T15:37:59.857Z</time>
      </trkpt>
      <trkpt lat="20.26066833" lon="-98.73362667">
        <ele>1876.0</ele>
        <time>2019-10-12T15:38:00.863Z</time>
      </trkpt>
      <trkpt lat="20.26068" lon="-98.73363667">
        <ele>1876.0</ele>
        <time>2019-10-12T15:38:01.868Z</time>
      </trkpt>
      <trkpt lat="20.26069" lon="-98.73365167">
        <ele>1876.0</ele>
        <time>2019-10-12T15:38:02.870Z</time>
      </trkpt>
      <trkpt lat="20.26069833" lon="-98.73367167">
        <ele>1876.0</ele>
        <time>2019-10-12T15:38:03.873Z</time>
      </trkpt>
      <trkpt lat="20.260705" lon="-98.73369333">
        <ele>1876.0</ele>
        <time>2019-10-12T15:38:04.880Z</time>
      </trkpt>
      <trkpt lat="20.26071167" lon="-98.73371333">
        <ele>1875.0</ele>
        <time>2019-10-12T15:38:05.885Z</time>
      </trkpt>
      <trkpt lat="20.26072167" lon="-98.73373333">
        <ele>1875.0</ele>
        <time>2019-10-12T15:38:06.888Z</time>
      </trkpt>
      <trkpt lat="20.26073" lon="-98.73375333">
        <ele>1874.0</ele>
        <time>2019-10-12T15:38:07.893Z</time>
      </trkpt>
      <trkpt lat="20.26073667" lon="-98.73377667">
        <ele>1872.0</ele>
        <time>2019-10-12T15:38:08.899Z</time>
      </trkpt>
      <trkpt lat="20.26074333" lon="-98.733805">
        <ele>1870.0</ele>
        <time>2019-10-12T15:38:09.905Z</time>
      </trkpt>
      <trkpt lat="20.26075" lon="-98.73383333">
        <ele>1869.0</ele>
        <time>2019-10-12T15:38:10.911Z</time>
      </trkpt>
      <trkpt lat="20.26075667" lon="-98.73385833">
        <ele>1868.0</ele>
        <time>2019-10-12T15:38:11.912Z</time>
      </trkpt>
      <trkpt lat="20.26076333" lon="-98.73388167">
        <ele>1867.0</ele>
        <time>2019-10-12T15:38:12.913Z</time>
      </trkpt>
      <trkpt lat="20.26077" lon="-98.73390667">
        <ele>1867.0</ele>
        <time>2019-10-12T15:38:13.915Z</time>
      </trkpt>
      <trkpt lat="20.260775" lon="-98.73393">
        <ele>1867.0</ele>
        <time>2019-10-12T15:38:14.920Z</time>
      </trkpt>
      <trkpt lat="20.26078" lon="-98.73395833">
        <ele>1867.0</ele>
        <time>2019-10-12T15:38:15.926Z</time>
      </trkpt>
      <trkpt lat="20.26077833" lon="-98.73397833">
        <ele>1868.0</ele>
        <time>2019-10-12T15:38:16.930Z</time>
      </trkpt>
      <trkpt lat="20.260775" lon="-98.73400167">
        <ele>1868.0</ele>
        <time>2019-10-12T15:38:17.936Z</time>
      </trkpt>
      <trkpt lat="20.26076667" lon="-98.73402667">
        <ele>1867.0</ele>
        <time>2019-10-12T15:38:18.941Z</time>
      </trkpt>
      <trkpt lat="20.26075667" lon="-98.73405167">
        <ele>1867.0</ele>
        <time>2019-10-12T15:38:19.944Z</time>
      </trkpt>
      <trkpt lat="20.26075833" lon="-98.73407167">
        <ele>1866.0</ele>
        <time>2019-10-12T15:38:20.948Z</time>
      </trkpt>
      <trkpt lat="20.26077167" lon="-98.73408167">
        <ele>1867.0</ele>
        <time>2019-10-12T15:38:21.953Z</time>
      </trkpt>
      <trkpt lat="20.26079333" lon="-98.73408">
        <ele>1867.0</ele>
        <time>2019-10-12T15:38:22.832Z</time>
      </trkpt>
      <trkpt lat="20.26081667" lon="-98.73407">
        <ele>1868.0</ele>
        <time>2019-10-12T15:38:23.833Z</time>
      </trkpt>
      <trkpt lat="20.260835" lon="-98.734055">
        <ele>1868.0</ele>
        <time>2019-10-12T15:38:24.834Z</time>
      </trkpt>
      <trkpt lat="20.26085333" lon="-98.73403">
        <ele>1868.0</ele>
        <time>2019-10-12T15:38:25.834Z</time>
      </trkpt>
      <trkpt lat="20.26086333" lon="-98.73401167">
        <ele>1867.0</ele>
        <time>2019-10-12T15:38:26.834Z</time>
      </trkpt>
      <trkpt lat="20.260875" lon="-98.73398833">
        <ele>1867.0</ele>
        <time>2019-10-12T15:38:27.834Z</time>
      </trkpt>
      <trkpt lat="20.26088667" lon="-98.733965">
        <ele>1867.0</ele>
        <time>2019-10-12T15:38:28.835Z</time>
      </trkpt>
      <trkpt lat="20.26089833" lon="-98.73394">
        <ele>1866.0</ele>
        <time>2019-10-12T15:38:29.835Z</time>
      </trkpt>
      <trkpt lat="20.26090833" lon="-98.733915">
        <ele>1865.0</ele>
        <time>2019-10-12T15:38:30.835Z</time>
      </trkpt>
      <trkpt lat="20.26092" lon="-98.73389167">
        <ele>1864.0</ele>
        <time>2019-10-12T15:38:31.835Z</time>
      </trkpt>
      <trkpt lat="20.26093833" lon="-98.733865">
        <ele>1863.0</ele>
        <time>2019-10-12T15:38:32.836Z</time>
      </trkpt>
      <trkpt lat="20.26095167" lon="-98.73384">
        <ele>1864.0</ele>
        <time>2019-10-12T15:38:33.836Z</time>
      </trkpt>
      <trkpt lat="20.26096333" lon="-98.73381833">
        <ele>1863.0</ele>
        <time>2019-10-12T15:38:34.836Z</time>
      </trkpt>
      <trkpt lat="20.26097333" lon="-98.73380167">
        <ele>1863.0</ele>
        <time>2019-10-12T15:38:35.836Z</time>
      </trkpt>
      <trkpt lat="20.26099" lon="-98.73378333">
        <ele>1862.0</ele>
        <time>2019-10-12T15:38:36.836Z</time>
      </trkpt>
      <trkpt lat="20.26100333" lon="-98.733765">
        <ele>1862.0</ele>
        <time>2019-10-12T15:38:37.837Z</time>
      </trkpt>
      <trkpt lat="20.26101667" lon="-98.73374333">
        <ele>1861.0</ele>
        <time>2019-10-12T15:38:38.837Z</time>
      </trkpt>
      <trkpt lat="20.261025" lon="-98.73372667">
        <ele>1861.0</ele>
        <time>2019-10-12T15:38:39.837Z</time>
      </trkpt>
      <trkpt lat="20.26103333" lon="-98.73370833">
        <ele>1860.0</ele>
        <time>2019-10-12T15:38:40.838Z</time>
      </trkpt>
      <trkpt lat="20.261045" lon="-98.73369333">
        <ele>1860.0</ele>
        <time>2019-10-12T15:38:41.839Z</time>
      </trkpt>
      <trkpt lat="20.26105333" lon="-98.733695">
        <ele>1860.0</ele>
        <time>2019-10-12T15:38:42.840Z</time>
      </trkpt>
      <trkpt lat="20.26106333" lon="-98.7337">
        <ele>1860.0</ele>
        <time>2019-10-12T15:38:43.840Z</time>
      </trkpt>
      <trkpt lat="20.26107333" lon="-98.73370667">
        <ele>1860.0</ele>
        <time>2019-10-12T15:38:44.841Z</time>
      </trkpt>
      <trkpt lat="20.26108833" lon="-98.733715">
        <ele>1860.0</ele>
        <time>2019-10-12T15:38:45.842Z</time>
      </trkpt>
      <trkpt lat="20.26110333" lon="-98.73372333">
        <ele>1860.0</ele>
        <time>2019-10-12T15:38:46.848Z</time>
      </trkpt>
      <trkpt lat="20.26111833" lon="-98.73373667">
        <ele>1858.0</ele>
        <time>2019-10-12T15:38:47.854Z</time>
      </trkpt>
      <trkpt lat="20.26113" lon="-98.73375">
        <ele>1857.0</ele>
        <time>2019-10-12T15:38:48.859Z</time>
      </trkpt>
      <trkpt lat="20.26114333" lon="-98.733765">
        <ele>1856.0</ele>
        <time>2019-10-12T15:38:49.862Z</time>
      </trkpt>
      <trkpt lat="20.26116" lon="-98.73377833">
        <ele>1855.0</ele>
        <time>2019-10-12T15:38:50.867Z</time>
      </trkpt>
      <trkpt lat="20.26117667" lon="-98.73378833">
        <ele>1855.0</ele>
        <time>2019-10-12T15:38:51.868Z</time>
      </trkpt>
      <trkpt lat="20.26119167" lon="-98.73379667">
        <ele>1855.0</ele>
        <time>2019-10-12T15:38:52.868Z</time>
      </trkpt>
      <trkpt lat="20.261205" lon="-98.73380667">
        <ele>1854.0</ele>
        <time>2019-10-12T15:38:53.873Z</time>
      </trkpt>
      <trkpt lat="20.261215" lon="-98.73382333">
        <ele>1852.0</ele>
        <time>2019-10-12T15:38:54.880Z</time>
      </trkpt>
      <trkpt lat="20.261225" lon="-98.73383667">
        <ele>1851.0</ele>
        <time>2019-10-12T15:38:55.881Z</time>
      </trkpt>
      <trkpt lat="20.26124333" lon="-98.73385">
        <ele>1850.0</ele>
        <time>2019-10-12T15:38:56.882Z</time>
      </trkpt>
      <trkpt lat="20.26125833" lon="-98.73385333">
        <ele>1849.0</ele>
        <time>2019-10-12T15:38:57.888Z</time>
      </trkpt>
      <trkpt lat="20.26127167" lon="-98.73384667">
        <ele>1849.0</ele>
        <time>2019-10-12T15:38:58.894Z</time>
      </trkpt>
      <trkpt lat="20.26128333" lon="-98.73383333">
        <ele>1849.0</ele>
        <time>2019-10-12T15:38:59.900Z</time>
      </trkpt>
      <trkpt lat="20.26129" lon="-98.73381667">
        <ele>1848.0</ele>
        <time>2019-10-12T15:39:00.900Z</time>
      </trkpt>
      <trkpt lat="20.26129167" lon="-98.733795">
        <ele>1848.0</ele>
        <time>2019-10-12T15:39:01.904Z</time>
      </trkpt>
      <trkpt lat="20.26129833" lon="-98.733775">
        <ele>1848.0</ele>
        <time>2019-10-12T15:39:02.911Z</time>
      </trkpt>
      <trkpt lat="20.26130333" lon="-98.73376667">
        <ele>1848.0</ele>
        <time>2019-10-12T15:39:03.917Z</time>
      </trkpt>
      <trkpt lat="20.26131333" lon="-98.73375667">
        <ele>1848.0</ele>
        <time>2019-10-12T15:39:04.919Z</time>
      </trkpt>
      <trkpt lat="20.26132667" lon="-98.733745">
        <ele>1848.0</ele>
        <time>2019-10-12T15:39:05.920Z</time>
      </trkpt>
      <trkpt lat="20.26133833" lon="-98.733735">
        <ele>1848.0</ele>
        <time>2019-10-12T15:39:06.920Z</time>
      </trkpt>
      <trkpt lat="20.26134833" lon="-98.73372333">
        <ele>1848.0</ele>
        <time>2019-10-12T15:39:07.921Z</time>
      </trkpt>
      <trkpt lat="20.26135833" lon="-98.73371">
        <ele>1848.0</ele>
        <time>2019-10-12T15:39:08.922Z</time>
      </trkpt>
      <trkpt lat="20.26136833" lon="-98.73369667">
        <ele>1847.0</ele>
        <time>2019-10-12T15:39:09.923Z</time>
      </trkpt>
      <trkpt lat="20.26137833" lon="-98.733685">
        <ele>1847.0</ele>
        <time>2019-10-12T15:39:10.927Z</time>
      </trkpt>
      <trkpt lat="20.26139167" lon="-98.73367">
        <ele>1846.0</ele>
        <time>2019-10-12T15:39:11.935Z</time>
      </trkpt>
      <trkpt lat="20.261405" lon="-98.73366333">
        <ele>1845.0</ele>
        <time>2019-10-12T15:39:12.941Z</time>
      </trkpt>
      <trkpt lat="20.261415" lon="-98.733655">
        <ele>1845.0</ele>
        <time>2019-10-12T15:39:13.944Z</time>
      </trkpt>
      <trkpt lat="20.26143" lon="-98.73364167">
        <ele>1845.0</ele>
        <time>2019-10-12T15:39:14.950Z</time>
      </trkpt>
      <trkpt lat="20.26144" lon="-98.73362833">
        <ele>1844.0</ele>
        <time>2019-10-12T15:39:15.953Z</time>
      </trkpt>
      <trkpt lat="20.261455" lon="-98.73361333">
        <ele>1843.0</ele>
        <time>2019-10-12T15:39:16.833Z</time>
      </trkpt>
      <trkpt lat="20.26146833" lon="-98.73359667">
        <ele>1841.0</ele>
        <time>2019-10-12T15:39:17.840Z</time>
      </trkpt>
      <trkpt lat="20.26147833" lon="-98.73358667">
        <ele>1841.0</ele>
        <time>2019-10-12T15:39:18.847Z</time>
      </trkpt>
      <trkpt lat="20.26149167" lon="-98.73358">
        <ele>1840.0</ele>
        <time>2019-10-12T15:39:19.852Z</time>
      </trkpt>
      <trkpt lat="20.26150167" lon="-98.73358">
        <ele>1840.0</ele>
        <time>2019-10-12T15:39:20.857Z</time>
      </trkpt>
      <trkpt lat="20.26151333" lon="-98.73358333">
        <ele>1839.0</ele>
        <time>2019-10-12T15:39:21.861Z</time>
      </trkpt>
      <trkpt lat="20.26152167" lon="-98.73359167">
        <ele>1838.0</ele>
        <time>2019-10-12T15:39:22.867Z</time>
      </trkpt>
      <trkpt lat="20.261525" lon="-98.73360333">
        <ele>1837.0</ele>
        <time>2019-10-12T15:39:23.871Z</time>
      </trkpt>
      <trkpt lat="20.26153167" lon="-98.73361667">
        <ele>1836.0</ele>
        <time>2019-10-12T15:39:24.872Z</time>
      </trkpt>
      <trkpt lat="20.26153833" lon="-98.73362333">
        <ele>1835.0</ele>
        <time>2019-10-12T15:39:25.873Z</time>
      </trkpt>
      <trkpt lat="20.26154667" lon="-98.73362">
        <ele>1834.0</ele>
        <time>2019-10-12T15:39:26.874Z</time>
      </trkpt>
      <trkpt lat="20.26156" lon="-98.733615">
        <ele>1832.0</ele>
        <time>2019-10-12T15:39:27.878Z</time>
      </trkpt>
      <trkpt lat="20.26156833" lon="-98.73360333">
        <ele>1833.0</ele>
        <time>2019-10-12T15:39:28.885Z</time>
      </trkpt>
      <trkpt lat="20.26157833" lon="-98.73358667">
        <ele>1834.0</ele>
        <time>2019-10-12T15:39:29.889Z</time>
      </trkpt>
      <trkpt lat="20.26158333" lon="-98.73357833">
        <ele>1833.0</ele>
        <time>2019-10-12T15:39:30.891Z</time>
      </trkpt>
      <trkpt lat="20.26159" lon="-98.73357833">
        <ele>1832.0</ele>
        <time>2019-10-12T15:39:31.897Z</time>
      </trkpt>
      <trkpt lat="20.26159667" lon="-98.73358167">
        <ele>1830.0</ele>
        <time>2019-10-12T15:39:32.902Z</time>
      </trkpt>
      <trkpt lat="20.26159833" lon="-98.73359833">
        <ele>1828.0</ele>
        <time>2019-10-12T15:39:33.908Z</time>
      </trkpt>
      <trkpt lat="20.2616" lon="-98.73361167">
        <ele>1827.0</ele>
        <time>2019-10-12T15:39:34.911Z</time>
      </trkpt>
      <trkpt lat="20.261605" lon="-98.73362833">
        <ele>1826.0</ele>
        <time>2019-10-12T15:39:35.912Z</time>
      </trkpt>
      <trkpt lat="20.26161" lon="-98.73364333">
        <ele>1825.0</ele>
        <time>2019-10-12T15:39:36.914Z</time>
      </trkpt>
      <trkpt lat="20.261615" lon="-98.73366">
        <ele>1825.0</ele>
        <time>2019-10-12T15:39:37.919Z</time>
      </trkpt>
      <trkpt lat="20.261625" lon="-98.733675">
        <ele>1823.0</ele>
        <time>2019-10-12T15:39:38.924Z</time>
      </trkpt>
      <trkpt lat="20.26163333" lon="-98.73367833">
        <ele>1823.0</ele>
        <time>2019-10-12T15:39:39.930Z</time>
      </trkpt>
      <trkpt lat="20.26164333" lon="-98.73367667">
        <ele>1824.0</ele>
        <time>2019-10-12T15:39:40.933Z</time>
      </trkpt>
      <trkpt lat="20.26165167" lon="-98.733665">
        <ele>1824.0</ele>
        <time>2019-10-12T15:39:41.937Z</time>
      </trkpt>
      <trkpt lat="20.26166" lon="-98.73365333">
        <ele>1825.0</ele>
        <time>2019-10-12T15:39:42.942Z</time>
      </trkpt>
      <trkpt lat="20.26166667" lon="-98.733645">
        <ele>1825.0</ele>
        <time>2019-10-12T15:39:43.949Z</time>
      </trkpt>
      <trkpt lat="20.26167333" lon="-98.73363667">
        <ele>1825.0</ele>
        <time>2019-10-12T15:39:44.950Z</time>
      </trkpt>
      <trkpt lat="20.26168167" lon="-98.73362833">
        <ele>1825.0</ele>
        <time>2019-10-12T15:39:45.951Z</time>
      </trkpt>
      <trkpt lat="20.26168333" lon="-98.73362667">
        <ele>1824.0</ele>
        <time>2019-10-12T15:39:46.830Z</time>
      </trkpt>
      <trkpt lat="20.26168667" lon="-98.733625">
        <ele>1824.0</ele>
        <time>2019-10-12T15:39:47.838Z</time>
      </trkpt>
      <trkpt lat="20.26168833" lon="-98.73362333">
        <ele>1824.0</ele>
        <time>2019-10-12T15:39:48.844Z</time>
      </trkpt>
      <trkpt lat="20.26168833" lon="-98.73362333">
        <ele>1824.0</ele>
        <time>2019-10-12T15:39:49.845Z</time>
      </trkpt>
      <trkpt lat="20.26169667" lon="-98.73362333">
        <ele>1824.0</ele>
        <time>2019-10-12T15:39:50.851Z</time>
      </trkpt>
      <trkpt lat="20.26170167" lon="-98.73362333">
        <ele>1823.0</ele>
        <time>2019-10-12T15:39:51.856Z</time>
      </trkpt>
      <trkpt lat="20.26170833" lon="-98.733615">
        <ele>1824.0</ele>
        <time>2019-10-12T15:39:52.861Z</time>
      </trkpt>
      <trkpt lat="20.261715" lon="-98.733605">
        <ele>1824.0</ele>
        <time>2019-10-12T15:39:53.867Z</time>
      </trkpt>
      <trkpt lat="20.26171667" lon="-98.733595">
        <ele>1824.0</ele>
        <time>2019-10-12T15:39:54.874Z</time>
      </trkpt>
      <trkpt lat="20.26172167" lon="-98.73359167">
        <ele>1824.0</ele>
        <time>2019-10-12T15:39:55.879Z</time>
      </trkpt>
      <trkpt lat="20.26172667" lon="-98.73359167">
        <ele>1824.0</ele>
        <time>2019-10-12T15:39:56.882Z</time>
      </trkpt>
      <trkpt lat="20.26173" lon="-98.73359333">
        <ele>1826.0</ele>
        <time>2019-10-12T15:39:57.888Z</time>
      </trkpt>
      <trkpt lat="20.261735" lon="-98.73359833">
        <ele>1828.0</ele>
        <time>2019-10-12T15:39:58.895Z</time>
      </trkpt>
      <trkpt lat="20.26173667" lon="-98.73360833">
        <ele>1829.0</ele>
        <time>2019-10-12T15:39:59.900Z</time>
      </trkpt>
      <trkpt lat="20.26174" lon="-98.73362">
        <ele>1830.0</ele>
        <time>2019-10-12T15:40:00.900Z</time>
      </trkpt>
      <trkpt lat="20.261745" lon="-98.73363333">
        <ele>1829.0</ele>
        <time>2019-10-12T15:40:01.901Z</time>
      </trkpt>
      <trkpt lat="20.26174833" lon="-98.73364667">
        <ele>1831.0</ele>
        <time>2019-10-12T15:40:02.902Z</time>
      </trkpt>
      <trkpt lat="20.26175167" lon="-98.73365833">
        <ele>1832.0</ele>
        <time>2019-10-12T15:40:03.906Z</time>
      </trkpt>
      <trkpt lat="20.26175833" lon="-98.733665">
        <ele>1832.0</ele>
        <time>2019-10-12T15:40:04.913Z</time>
      </trkpt>
      <trkpt lat="20.26176333" lon="-98.73366667">
        <ele>1832.0</ele>
        <time>2019-10-12T15:40:05.918Z</time>
      </trkpt>
      <trkpt lat="20.26176833" lon="-98.73366333">
        <ele>1832.0</ele>
        <time>2019-10-12T15:40:06.922Z</time>
      </trkpt>
      <trkpt lat="20.261775" lon="-98.73365333">
        <ele>1831.0</ele>
        <time>2019-10-12T15:40:07.928Z</time>
      </trkpt>
      <trkpt lat="20.26178" lon="-98.73364333">
        <ele>1831.0</ele>
        <time>2019-10-12T15:40:08.934Z</time>
      </trkpt>
      <trkpt lat="20.261785" lon="-98.733635">
        <ele>1830.0</ele>
        <time>2019-10-12T15:40:09.939Z</time>
      </trkpt>
      <trkpt lat="20.26179167" lon="-98.733635">
        <ele>1831.0</ele>
        <time>2019-10-12T15:40:10.946Z</time>
      </trkpt>
      <trkpt lat="20.26179333" lon="-98.73363667">
        <ele>1832.0</ele>
        <time>2019-10-12T15:40:11.952Z</time>
      </trkpt>
      <trkpt lat="20.26179667" lon="-98.73364">
        <ele>1832.0</ele>
        <time>2019-10-12T15:40:12.833Z</time>
      </trkpt>
      <trkpt lat="20.26179833" lon="-98.73365">
        <ele>1832.0</ele>
        <time>2019-10-12T15:40:13.839Z</time>
      </trkpt>
      <trkpt lat="20.26180333" lon="-98.73366">
        <ele>1831.0</ele>
        <time>2019-10-12T15:40:14.847Z</time>
      </trkpt>
      <trkpt lat="20.26181167" lon="-98.73366667">
        <ele>1830.0</ele>
        <time>2019-10-12T15:40:15.850Z</time>
      </trkpt>
      <trkpt lat="20.26182667" lon="-98.73366833">
        <ele>1828.0</ele>
        <time>2019-10-12T15:40:16.851Z</time>
      </trkpt>
      <trkpt lat="20.26184167" lon="-98.73366833">
        <ele>1826.0</ele>
        <time>2019-10-12T15:40:17.852Z</time>
      </trkpt>
      <trkpt lat="20.26185667" lon="-98.73366167">
        <ele>1825.0</ele>
        <time>2019-10-12T15:40:18.853Z</time>
      </trkpt>
      <trkpt lat="20.26186667" lon="-98.73365833">
        <ele>1824.0</ele>
        <time>2019-10-12T15:40:19.853Z</time>
      </trkpt>
      <trkpt lat="20.26187167" lon="-98.73365667">
        <ele>1823.0</ele>
        <time>2019-10-12T15:40:20.854Z</time>
      </trkpt>
      <trkpt lat="20.261875" lon="-98.73365667">
        <ele>1823.0</ele>
        <time>2019-10-12T15:40:21.855Z</time>
      </trkpt>
      <trkpt lat="20.26187167" lon="-98.73366167">
        <ele>1822.0</ele>
        <time>2019-10-12T15:40:22.856Z</time>
      </trkpt>
      <trkpt lat="20.26187" lon="-98.73367">
        <ele>1822.0</ele>
        <time>2019-10-12T15:40:23.857Z</time>
      </trkpt>
      <trkpt lat="20.26187" lon="-98.73367833">
        <ele>1820.0</ele>
        <time>2019-10-12T15:40:24.859Z</time>
      </trkpt>
      <trkpt lat="20.26187" lon="-98.733685">
        <ele>1819.0</ele>
        <time>2019-10-12T15:40:25.866Z</time>
      </trkpt>
      <trkpt lat="20.261865" lon="-98.73369167">
        <ele>1818.0</ele>
        <time>2019-10-12T15:40:26.871Z</time>
      </trkpt>
      <trkpt lat="20.26186833" lon="-98.733705">
        <ele>1817.0</ele>
        <time>2019-10-12T15:40:27.875Z</time>
      </trkpt>
      <trkpt lat="20.26187667" lon="-98.73371333">
        <ele>1816.0</ele>
        <time>2019-10-12T15:40:28.882Z</time>
      </trkpt>
      <trkpt lat="20.26188833" lon="-98.73371667">
        <ele>1815.0</ele>
        <time>2019-10-12T15:40:29.889Z</time>
      </trkpt>
      <trkpt lat="20.2619" lon="-98.73371167">
        <ele>1814.0</ele>
        <time>2019-10-12T15:40:30.893Z</time>
      </trkpt>
      <trkpt lat="20.26191667" lon="-98.73370167">
        <ele>1812.0</ele>
        <time>2019-10-12T15:40:31.895Z</time>
      </trkpt>
      <trkpt lat="20.26192833" lon="-98.73369667">
        <ele>1812.0</ele>
        <time>2019-10-12T15:40:32.900Z</time>
      </trkpt>
      <trkpt lat="20.26194" lon="-98.733685">
        <ele>1811.0</ele>
        <time>2019-10-12T15:40:33.901Z</time>
      </trkpt>
      <trkpt lat="20.26195" lon="-98.73367">
        <ele>1811.0</ele>
        <time>2019-10-12T15:40:34.905Z</time>
      </trkpt>
      <trkpt lat="20.26196" lon="-98.73366167">
        <ele>1810.0</ele>
        <time>2019-10-12T15:40:35.911Z</time>
      </trkpt>
      <trkpt lat="20.261965" lon="-98.73365667">
        <ele>1810.0</ele>
        <time>2019-10-12T15:40:36.914Z</time>
      </trkpt>
      <trkpt lat="20.261965" lon="-98.73365333">
        <ele>1810.0</ele>
        <time>2019-10-12T15:40:37.920Z</time>
      </trkpt>
      <trkpt lat="20.26196333" lon="-98.73365667">
        <ele>1810.0</ele>
        <time>2019-10-12T15:40:38.926Z</time>
      </trkpt>
      <trkpt lat="20.261965" lon="-98.73366833">
        <ele>1810.0</ele>
        <time>2019-10-12T15:40:39.929Z</time>
      </trkpt>
      <trkpt lat="20.261965" lon="-98.73367833">
        <ele>1810.0</ele>
        <time>2019-10-12T15:40:40.933Z</time>
      </trkpt>
      <trkpt lat="20.26196167" lon="-98.73369">
        <ele>1809.0</ele>
        <time>2019-10-12T15:40:41.933Z</time>
      </trkpt>
      <trkpt lat="20.26196" lon="-98.73369667">
        <ele>1809.0</ele>
        <time>2019-10-12T15:40:42.934Z</time>
      </trkpt>
      <trkpt lat="20.26196167" lon="-98.733705">
        <ele>1810.0</ele>
        <time>2019-10-12T15:40:43.935Z</time>
      </trkpt>
      <trkpt lat="20.26196833" lon="-98.73371333">
        <ele>1811.0</ele>
        <time>2019-10-12T15:40:44.936Z</time>
      </trkpt>
      <trkpt lat="20.261975" lon="-98.73371833">
        <ele>1811.0</ele>
        <time>2019-10-12T15:40:45.937Z</time>
      </trkpt>
      <trkpt lat="20.26198333" lon="-98.73372">
        <ele>1812.0</ele>
        <time>2019-10-12T15:40:46.937Z</time>
      </trkpt>
      <trkpt lat="20.26199167" lon="-98.73372167">
        <ele>1812.0</ele>
        <time>2019-10-12T15:40:47.938Z</time>
      </trkpt>
      <trkpt lat="20.261995" lon="-98.73372667">
        <ele>1812.0</ele>
        <time>2019-10-12T15:40:48.939Z</time>
      </trkpt>
      <trkpt lat="20.26199667" lon="-98.73373">
        <ele>1811.0</ele>
        <time>2019-10-12T15:40:49.939Z</time>
      </trkpt>
      <trkpt lat="20.26199833" lon="-98.733735">
        <ele>1810.0</ele>
        <time>2019-10-12T15:40:50.941Z</time>
      </trkpt>
      <trkpt lat="20.262" lon="-98.733735">
        <ele>1810.0</ele>
        <time>2019-10-12T15:40:51.942Z</time>
      </trkpt>
      <trkpt lat="20.26199833" lon="-98.733735">
        <ele>1810.0</ele>
        <time>2019-10-12T15:40:52.948Z</time>
      </trkpt>
      <trkpt lat="20.26199833" lon="-98.73373667">
        <ele>1810.0</ele>
        <time>2019-10-12T15:40:53.950Z</time>
      </trkpt>
      <trkpt lat="20.261995" lon="-98.73374">
        <ele>1810.0</ele>
        <time>2019-10-12T15:40:54.953Z</time>
      </trkpt>
      <trkpt lat="20.26198833" lon="-98.73374">
        <ele>1810.0</ele>
        <time>2019-10-12T15:40:55.835Z</time>
      </trkpt>
      <trkpt lat="20.26198667" lon="-98.73374167">
        <ele>1810.0</ele>
        <time>2019-10-12T15:40:56.841Z</time>
      </trkpt>
      <trkpt lat="20.26198667" lon="-98.73374333">
        <ele>1811.0</ele>
        <time>2019-10-12T15:40:57.842Z</time>
      </trkpt>
      <trkpt lat="20.261985" lon="-98.73374167">
        <ele>1812.0</ele>
        <time>2019-10-12T15:40:58.843Z</time>
      </trkpt>
      <trkpt lat="20.26198667" lon="-98.73374">
        <ele>1812.0</ele>
        <time>2019-10-12T15:40:59.844Z</time>
      </trkpt>
      <trkpt lat="20.26198833" lon="-98.73373667">
        <ele>1812.0</ele>
        <time>2019-10-12T15:41:00.845Z</time>
      </trkpt>
      <trkpt lat="20.26199167" lon="-98.73373667">
        <ele>1811.0</ele>
        <time>2019-10-12T15:41:01.849Z</time>
      </trkpt>
      <trkpt lat="20.26199333" lon="-98.733735">
        <ele>1811.0</ele>
        <time>2019-10-12T15:41:02.853Z</time>
      </trkpt>
      <trkpt lat="20.26199333" lon="-98.733735">
        <ele>1811.0</ele>
        <time>2019-10-12T15:41:03.856Z</time>
      </trkpt>
      <trkpt lat="20.26199333" lon="-98.733735">
        <ele>1811.0</ele>
        <time>2019-10-12T15:41:04.858Z</time>
      </trkpt>
      <trkpt lat="20.26199333" lon="-98.733735">
        <ele>1811.0</ele>
        <time>2019-10-12T15:41:05.863Z</time>
      </trkpt>
      <trkpt lat="20.26199333" lon="-98.733735">
        <ele>1811.0</ele>
        <time>2019-10-12T15:41:06.865Z</time>
      </trkpt>
      <trkpt lat="20.26199333" lon="-98.733735">
        <ele>1811.0</ele>
        <time>2019-10-12T15:41:07.872Z</time>
      </trkpt>
      <trkpt lat="20.26199333" lon="-98.733735">
        <ele>1811.0</ele>
        <time>2019-10-12T15:41:08.878Z</time>
      </trkpt>
      <trkpt lat="20.26214167" lon="-98.733705">
        <ele>1803.0</ele>
        <time>2019-10-12T15:41:10.889Z</time>
      </trkpt>
      <trkpt lat="20.26214833" lon="-98.733705">
        <ele>1803.0</ele>
        <time>2019-10-12T15:41:11.896Z</time>
      </trkpt>
      <trkpt lat="20.26215333" lon="-98.733705">
        <ele>1803.0</ele>
        <time>2019-10-12T15:41:12.901Z</time>
      </trkpt>
      <trkpt lat="20.26215833" lon="-98.733705">
        <ele>1803.0</ele>
        <time>2019-10-12T15:41:13.907Z</time>
      </trkpt>
      <trkpt lat="20.26216" lon="-98.733705">
        <ele>1802.0</ele>
        <time>2019-10-12T15:41:14.913Z</time>
      </trkpt>
      <trkpt lat="20.26216333" lon="-98.73370333">
        <ele>1802.0</ele>
        <time>2019-10-12T15:41:15.917Z</time>
      </trkpt>
      <trkpt lat="20.262165" lon="-98.73370333">
        <ele>1801.0</ele>
        <time>2019-10-12T15:41:16.920Z</time>
      </trkpt>
      <trkpt lat="20.26216667" lon="-98.73370333">
        <ele>1801.0</ele>
        <time>2019-10-12T15:41:17.927Z</time>
      </trkpt>
      <trkpt lat="20.26216833" lon="-98.7337">
        <ele>1801.0</ele>
        <time>2019-10-12T15:41:18.931Z</time>
      </trkpt>
      <trkpt lat="20.26216833" lon="-98.7337">
        <ele>1801.0</ele>
        <time>2019-10-12T15:41:19.934Z</time>
      </trkpt>
      <trkpt lat="20.262165" lon="-98.73369667">
        <ele>1802.0</ele>
        <time>2019-10-12T15:41:20.938Z</time>
      </trkpt>
      <trkpt lat="20.262155" lon="-98.73369167">
        <ele>1805.0</ele>
        <time>2019-10-12T15:41:21.944Z</time>
      </trkpt>
      <trkpt lat="20.26214667" lon="-98.73368667">
        <ele>1805.0</ele>
        <time>2019-10-12T15:41:22.950Z</time>
      </trkpt>
      <trkpt lat="20.26214167" lon="-98.73367833">
        <ele>1806.0</ele>
        <time>2019-10-12T15:41:23.830Z</time>
      </trkpt>
      <trkpt lat="20.26214333" lon="-98.73367333">
        <ele>1806.0</ele>
        <time>2019-10-12T15:41:24.833Z</time>
      </trkpt>
      <trkpt lat="20.26214333" lon="-98.733675">
        <ele>1806.0</ele>
        <time>2019-10-12T15:41:25.837Z</time>
      </trkpt>
      <trkpt lat="20.26214667" lon="-98.73367333">
        <ele>1806.0</ele>
        <time>2019-10-12T15:41:26.838Z</time>
      </trkpt>
      <trkpt lat="20.26214667" lon="-98.73367167">
        <ele>1807.0</ele>
        <time>2019-10-12T15:41:27.838Z</time>
      </trkpt>
      <trkpt lat="20.262145" lon="-98.73367167">
        <ele>1807.0</ele>
        <time>2019-10-12T15:41:28.838Z</time>
      </trkpt>
      <trkpt lat="20.26214833" lon="-98.733675">
        <ele>1805.0</ele>
        <time>2019-10-12T15:41:29.838Z</time>
      </trkpt>
      <trkpt lat="20.26214833" lon="-98.733675">
        <ele>1805.0</ele>
        <time>2019-10-12T15:41:30.841Z</time>
      </trkpt>
      <trkpt lat="20.26215333" lon="-98.73367833">
        <ele>1805.0</ele>
        <time>2019-10-12T15:41:31.846Z</time>
      </trkpt>
      <trkpt lat="20.26215667" lon="-98.73368167">
        <ele>1804.0</ele>
        <time>2019-10-12T15:41:32.852Z</time>
      </trkpt>
      <trkpt lat="20.26216333" lon="-98.73368333">
        <ele>1803.0</ele>
        <time>2019-10-12T15:41:33.858Z</time>
      </trkpt>
      <trkpt lat="20.26217333" lon="-98.73368833">
        <ele>1802.0</ele>
        <time>2019-10-12T15:41:34.862Z</time>
      </trkpt>
      <trkpt lat="20.26218" lon="-98.73369167">
        <ele>1801.0</ele>
        <time>2019-10-12T15:41:35.870Z</time>
      </trkpt>
      <trkpt lat="20.26218667" lon="-98.73369333">
        <ele>1800.0</ele>
        <time>2019-10-12T15:41:36.876Z</time>
      </trkpt>
      <trkpt lat="20.26219667" lon="-98.73369333">
        <ele>1800.0</ele>
        <time>2019-10-12T15:41:37.883Z</time>
      </trkpt>
      <trkpt lat="20.262205" lon="-98.73369667">
        <ele>1799.0</ele>
        <time>2019-10-12T15:41:38.891Z</time>
      </trkpt>
      <trkpt lat="20.262215" lon="-98.733695">
        <ele>1799.0</ele>
        <time>2019-10-12T15:41:39.897Z</time>
      </trkpt>
      <trkpt lat="20.26222333" lon="-98.733695">
        <ele>1798.0</ele>
        <time>2019-10-12T15:41:40.900Z</time>
      </trkpt>
      <trkpt lat="20.26223" lon="-98.73369333">
        <ele>1798.0</ele>
        <time>2019-10-12T15:41:41.904Z</time>
      </trkpt>
      <trkpt lat="20.26223833" lon="-98.73369167">
        <ele>1797.0</ele>
        <time>2019-10-12T15:41:42.908Z</time>
      </trkpt>
      <trkpt lat="20.26224667" lon="-98.73369167">
        <ele>1797.0</ele>
        <time>2019-10-12T15:41:43.910Z</time>
      </trkpt>
      <trkpt lat="20.262255" lon="-98.733695">
        <ele>1797.0</ele>
        <time>2019-10-12T15:41:44.917Z</time>
      </trkpt>
      <trkpt lat="20.26226333" lon="-98.73370333">
        <ele>1797.0</ele>
        <time>2019-10-12T15:41:45.922Z</time>
      </trkpt>
      <trkpt lat="20.26227" lon="-98.73370833">
        <ele>1797.0</ele>
        <time>2019-10-12T15:41:46.923Z</time>
      </trkpt>
      <trkpt lat="20.26227333" lon="-98.73371667">
        <ele>1797.0</ele>
        <time>2019-10-12T15:41:47.929Z</time>
      </trkpt>
      <trkpt lat="20.26227833" lon="-98.73372333">
        <ele>1797.0</ele>
        <time>2019-10-12T15:41:48.934Z</time>
      </trkpt>
      <trkpt lat="20.262285" lon="-98.73373167">
        <ele>1796.0</ele>
        <time>2019-10-12T15:41:49.936Z</time>
      </trkpt>
      <trkpt lat="20.262295" lon="-98.73373833">
        <ele>1796.0</ele>
        <time>2019-10-12T15:41:50.940Z</time>
      </trkpt>
      <trkpt lat="20.26230667" lon="-98.73374667">
        <ele>1795.0</ele>
        <time>2019-10-12T15:41:51.945Z</time>
      </trkpt>
      <trkpt lat="20.262315" lon="-98.733755">
        <ele>1795.0</ele>
        <time>2019-10-12T15:41:52.946Z</time>
      </trkpt>
      <trkpt lat="20.26232333" lon="-98.73376167">
        <ele>1794.0</ele>
        <time>2019-10-12T15:41:53.949Z</time>
      </trkpt>
      <trkpt lat="20.26233167" lon="-98.73376667">
        <ele>1793.0</ele>
        <time>2019-10-12T15:41:54.830Z</time>
      </trkpt>
      <trkpt lat="20.26233667" lon="-98.733775">
        <ele>1793.0</ele>
        <time>2019-10-12T15:41:55.836Z</time>
      </trkpt>
      <trkpt lat="20.26234" lon="-98.73377833">
        <ele>1794.0</ele>
        <time>2019-10-12T15:41:56.841Z</time>
      </trkpt>
      <trkpt lat="20.26234667" lon="-98.73378333">
        <ele>1794.0</ele>
        <time>2019-10-12T15:41:57.847Z</time>
      </trkpt>
      <trkpt lat="20.26235333" lon="-98.73379667">
        <ele>1794.0</ele>
        <time>2019-10-12T15:41:58.853Z</time>
      </trkpt>
      <trkpt lat="20.26235833" lon="-98.73381">
        <ele>1794.0</ele>
        <time>2019-10-12T15:41:59.858Z</time>
      </trkpt>
      <trkpt lat="20.26235833" lon="-98.73382167">
        <ele>1794.0</ele>
        <time>2019-10-12T15:42:00.859Z</time>
      </trkpt>
      <trkpt lat="20.26235667" lon="-98.73383">
        <ele>1794.0</ele>
        <time>2019-10-12T15:42:01.860Z</time>
      </trkpt>
      <trkpt lat="20.26235167" lon="-98.73383333">
        <ele>1794.0</ele>
        <time>2019-10-12T15:42:02.860Z</time>
      </trkpt>
      <trkpt lat="20.26235" lon="-98.733835">
        <ele>1794.0</ele>
        <time>2019-10-12T15:42:03.861Z</time>
      </trkpt>
      <trkpt lat="20.26234333" lon="-98.73383833">
        <ele>1793.0</ele>
        <time>2019-10-12T15:42:04.862Z</time>
      </trkpt>
      <trkpt lat="20.26233333" lon="-98.73383667">
        <ele>1793.0</ele>
        <time>2019-10-12T15:42:05.863Z</time>
      </trkpt>
      <trkpt lat="20.26232167" lon="-98.733835">
        <ele>1793.0</ele>
        <time>2019-10-12T15:42:06.865Z</time>
      </trkpt>
      <trkpt lat="20.26230333" lon="-98.73382833">
        <ele>1794.0</ele>
        <time>2019-10-12T15:42:07.871Z</time>
      </trkpt>
      <trkpt lat="20.26229" lon="-98.73382333">
        <ele>1793.0</ele>
        <time>2019-10-12T15:42:08.879Z</time>
      </trkpt>
      <trkpt lat="20.26227667" lon="-98.733825">
        <ele>1793.0</ele>
        <time>2019-10-12T15:42:09.882Z</time>
      </trkpt>
      <trkpt lat="20.26226167" lon="-98.73382667">
        <ele>1792.0</ele>
        <time>2019-10-12T15:42:10.884Z</time>
      </trkpt>
      <trkpt lat="20.26224833" lon="-98.73383">
        <ele>1792.0</ele>
        <time>2019-10-12T15:42:11.890Z</time>
      </trkpt>
      <trkpt lat="20.26223667" lon="-98.733835">
        <ele>1792.0</ele>
        <time>2019-10-12T15:42:12.895Z</time>
      </trkpt>
      <trkpt lat="20.26222333" lon="-98.73384">
        <ele>1792.0</ele>
        <time>2019-10-12T15:42:13.902Z</time>
      </trkpt>
      <trkpt lat="20.26220833" lon="-98.73384667">
        <ele>1792.0</ele>
        <time>2019-10-12T15:42:14.907Z</time>
      </trkpt>
      <trkpt lat="20.262195" lon="-98.733855">
        <ele>1792.0</ele>
        <time>2019-10-12T15:42:15.912Z</time>
      </trkpt>
      <trkpt lat="20.26218333" lon="-98.73386333">
        <ele>1791.0</ele>
        <time>2019-10-12T15:42:16.918Z</time>
      </trkpt>
      <trkpt lat="20.26217333" lon="-98.73387167">
        <ele>1791.0</ele>
        <time>2019-10-12T15:42:17.921Z</time>
      </trkpt>
      <trkpt lat="20.26216" lon="-98.73388833">
        <ele>1791.0</ele>
        <time>2019-10-12T15:42:18.927Z</time>
      </trkpt>
      <trkpt lat="20.26215" lon="-98.7339">
        <ele>1791.0</ele>
        <time>2019-10-12T15:42:19.933Z</time>
      </trkpt>
      <trkpt lat="20.26213333" lon="-98.73391333">
        <ele>1790.0</ele>
        <time>2019-10-12T15:42:20.938Z</time>
      </trkpt>
      <trkpt lat="20.26212" lon="-98.73392333">
        <ele>1790.0</ele>
        <time>2019-10-12T15:42:21.938Z</time>
      </trkpt>
      <trkpt lat="20.26211333" lon="-98.73393167">
        <ele>1790.0</ele>
        <time>2019-10-12T15:42:22.942Z</time>
      </trkpt>
      <trkpt lat="20.26210667" lon="-98.73394167">
        <ele>1789.0</ele>
        <time>2019-10-12T15:42:23.947Z</time>
      </trkpt>
      <trkpt lat="20.26209833" lon="-98.73395333">
        <ele>1788.0</ele>
        <time>2019-10-12T15:42:24.953Z</time>
      </trkpt>
      <trkpt lat="20.26209167" lon="-98.73396667">
        <ele>1788.0</ele>
        <time>2019-10-12T15:42:25.832Z</time>
      </trkpt>
      <trkpt lat="20.26208333" lon="-98.73398">
        <ele>1788.0</ele>
        <time>2019-10-12T15:42:26.839Z</time>
      </trkpt>
      <trkpt lat="20.26207667" lon="-98.73398333">
        <ele>1788.0</ele>
        <time>2019-10-12T15:42:27.842Z</time>
      </trkpt>
      <trkpt lat="20.26207333" lon="-98.73398167">
        <ele>1787.0</ele>
        <time>2019-10-12T15:42:28.848Z</time>
      </trkpt>
      <trkpt lat="20.26207" lon="-98.73398">
        <ele>1786.0</ele>
        <time>2019-10-12T15:42:29.855Z</time>
      </trkpt>
      <trkpt lat="20.26206833" lon="-98.73398667">
        <ele>1785.0</ele>
        <time>2019-10-12T15:42:30.861Z</time>
      </trkpt>
      <trkpt lat="20.26206333" lon="-98.73398333">
        <ele>1786.0</ele>
        <time>2019-10-12T15:42:31.865Z</time>
      </trkpt>
      <trkpt lat="20.26205833" lon="-98.73398333">
        <ele>1787.0</ele>
        <time>2019-10-12T15:42:32.868Z</time>
      </trkpt>
      <trkpt lat="20.26205" lon="-98.73398833">
        <ele>1788.0</ele>
        <time>2019-10-12T15:42:33.871Z</time>
      </trkpt>
      <trkpt lat="20.26204833" lon="-98.73399333">
        <ele>1789.0</ele>
        <time>2019-10-12T15:42:34.873Z</time>
      </trkpt>
      <trkpt lat="20.262045" lon="-98.73399833">
        <ele>1791.0</ele>
        <time>2019-10-12T15:42:35.879Z</time>
      </trkpt>
      <trkpt lat="20.262045" lon="-98.734">
        <ele>1791.0</ele>
        <time>2019-10-12T15:42:36.885Z</time>
      </trkpt>
      <trkpt lat="20.26204167" lon="-98.73400167">
        <ele>1791.0</ele>
        <time>2019-10-12T15:42:37.888Z</time>
      </trkpt>
      <trkpt lat="20.262035" lon="-98.73401">
        <ele>1791.0</ele>
        <time>2019-10-12T15:42:38.889Z</time>
      </trkpt>
      <trkpt lat="20.26202833" lon="-98.73401833">
        <ele>1792.0</ele>
        <time>2019-10-12T15:42:39.890Z</time>
      </trkpt>
      <trkpt lat="20.26202167" lon="-98.73402333">
        <ele>1792.0</ele>
        <time>2019-10-12T15:42:40.890Z</time>
      </trkpt>
      <trkpt lat="20.26201333" lon="-98.73403333">
        <ele>1792.0</ele>
        <time>2019-10-12T15:42:41.890Z</time>
      </trkpt>
      <trkpt lat="20.26200333" lon="-98.734045">
        <ele>1792.0</ele>
        <time>2019-10-12T15:42:42.891Z</time>
      </trkpt>
      <trkpt lat="20.261995" lon="-98.734055">
        <ele>1792.0</ele>
        <time>2019-10-12T15:42:43.892Z</time>
      </trkpt>
      <trkpt lat="20.26198333" lon="-98.734065">
        <ele>1793.0</ele>
        <time>2019-10-12T15:42:44.893Z</time>
      </trkpt>
      <trkpt lat="20.26197" lon="-98.73407667">
        <ele>1793.0</ele>
        <time>2019-10-12T15:42:45.894Z</time>
      </trkpt>
      <trkpt lat="20.26195833" lon="-98.73408667">
        <ele>1794.0</ele>
        <time>2019-10-12T15:42:46.895Z</time>
      </trkpt>
      <trkpt lat="20.261945" lon="-98.73410167">
        <ele>1794.0</ele>
        <time>2019-10-12T15:42:47.895Z</time>
      </trkpt>
      <trkpt lat="20.26193333" lon="-98.73411333">
        <ele>1795.0</ele>
        <time>2019-10-12T15:42:48.896Z</time>
      </trkpt>
      <trkpt lat="20.26192167" lon="-98.734125">
        <ele>1796.0</ele>
        <time>2019-10-12T15:42:49.896Z</time>
      </trkpt>
      <trkpt lat="20.26191167" lon="-98.73414">
        <ele>1797.0</ele>
        <time>2019-10-12T15:42:50.898Z</time>
      </trkpt>
      <trkpt lat="20.26190167" lon="-98.73415667">
        <ele>1797.0</ele>
        <time>2019-10-12T15:42:51.899Z</time>
      </trkpt>
      <trkpt lat="20.261895" lon="-98.73416833">
        <ele>1797.0</ele>
        <time>2019-10-12T15:42:52.901Z</time>
      </trkpt>
      <trkpt lat="20.26188" lon="-98.734185">
        <ele>1799.0</ele>
        <time>2019-10-12T15:42:53.907Z</time>
      </trkpt>
      <trkpt lat="20.26186333" lon="-98.734195">
        <ele>1800.0</ele>
        <time>2019-10-12T15:42:54.912Z</time>
      </trkpt>
      <trkpt lat="20.26185" lon="-98.73420667">
        <ele>1801.0</ele>
        <time>2019-10-12T15:42:55.913Z</time>
      </trkpt>
      <trkpt lat="20.261835" lon="-98.73422">
        <ele>1802.0</ele>
        <time>2019-10-12T15:42:56.917Z</time>
      </trkpt>
      <trkpt lat="20.26181833" lon="-98.73423667">
        <ele>1803.0</ele>
        <time>2019-10-12T15:42:57.924Z</time>
      </trkpt>
      <trkpt lat="20.261805" lon="-98.73424667">
        <ele>1803.0</ele>
        <time>2019-10-12T15:42:58.925Z</time>
      </trkpt>
      <trkpt lat="20.26178833" lon="-98.73426">
        <ele>1804.0</ele>
        <time>2019-10-12T15:42:59.926Z</time>
      </trkpt>
      <trkpt lat="20.26177167" lon="-98.73427167">
        <ele>1804.0</ele>
        <time>2019-10-12T15:43:00.926Z</time>
      </trkpt>
      <trkpt lat="20.26175667" lon="-98.73428833">
        <ele>1803.0</ele>
        <time>2019-10-12T15:43:01.930Z</time>
      </trkpt>
      <trkpt lat="20.26173833" lon="-98.73430333">
        <ele>1803.0</ele>
        <time>2019-10-12T15:43:02.932Z</time>
      </trkpt>
      <trkpt lat="20.26172" lon="-98.73431667">
        <ele>1803.0</ele>
        <time>2019-10-12T15:43:03.939Z</time>
      </trkpt>
      <trkpt lat="20.2617" lon="-98.73432667">
        <ele>1803.0</ele>
        <time>2019-10-12T15:43:04.943Z</time>
      </trkpt>
      <trkpt lat="20.26168167" lon="-98.73433333">
        <ele>1803.0</ele>
        <time>2019-10-12T15:43:05.949Z</time>
      </trkpt>
      <trkpt lat="20.261665" lon="-98.73434833">
        <ele>1803.0</ele>
        <time>2019-10-12T15:43:06.953Z</time>
      </trkpt>
      <trkpt lat="20.26165" lon="-98.734365">
        <ele>1803.0</ele>
        <time>2019-10-12T15:43:07.831Z</time>
      </trkpt>
      <trkpt lat="20.26164" lon="-98.73437667">
        <ele>1803.0</ele>
        <time>2019-10-12T15:43:08.838Z</time>
      </trkpt>
      <trkpt lat="20.26162833" lon="-98.734395">
        <ele>1803.0</ele>
        <time>2019-10-12T15:43:09.843Z</time>
      </trkpt>
      <trkpt lat="20.26162" lon="-98.73441667">
        <ele>1804.0</ele>
        <time>2019-10-12T15:43:10.850Z</time>
      </trkpt>
      <trkpt lat="20.26161" lon="-98.73443667">
        <ele>1803.0</ele>
        <time>2019-10-12T15:43:11.851Z</time>
      </trkpt>
      <trkpt lat="20.2616" lon="-98.73446">
        <ele>1802.0</ele>
        <time>2019-10-12T15:43:12.852Z</time>
      </trkpt>
      <trkpt lat="20.26159333" lon="-98.73448167">
        <ele>1801.0</ele>
        <time>2019-10-12T15:43:13.853Z</time>
      </trkpt>
      <trkpt lat="20.26158333" lon="-98.734495">
        <ele>1801.0</ele>
        <time>2019-10-12T15:43:14.854Z</time>
      </trkpt>
      <trkpt lat="20.26157667" lon="-98.73451333">
        <ele>1800.0</ele>
        <time>2019-10-12T15:43:15.856Z</time>
      </trkpt>
      <trkpt lat="20.26156333" lon="-98.73453167">
        <ele>1801.0</ele>
        <time>2019-10-12T15:43:16.862Z</time>
      </trkpt>
      <trkpt lat="20.26154833" lon="-98.73455">
        <ele>1801.0</ele>
        <time>2019-10-12T15:43:17.868Z</time>
      </trkpt>
      <trkpt lat="20.26153667" lon="-98.73457">
        <ele>1802.0</ele>
        <time>2019-10-12T15:43:18.873Z</time>
      </trkpt>
      <trkpt lat="20.26153167" lon="-98.73459167">
        <ele>1803.0</ele>
        <time>2019-10-12T15:43:19.879Z</time>
      </trkpt>
      <trkpt lat="20.261525" lon="-98.73461333">
        <ele>1803.0</ele>
        <time>2019-10-12T15:43:20.881Z</time>
      </trkpt>
      <trkpt lat="20.26151667" lon="-98.73463167">
        <ele>1802.0</ele>
        <time>2019-10-12T15:43:21.888Z</time>
      </trkpt>
      <trkpt lat="20.26150833" lon="-98.73465167">
        <ele>1801.0</ele>
        <time>2019-10-12T15:43:22.895Z</time>
      </trkpt>
      <trkpt lat="20.26149833" lon="-98.73467333">
        <ele>1801.0</ele>
        <time>2019-10-12T15:43:23.900Z</time>
      </trkpt>
      <trkpt lat="20.26148667" lon="-98.73469167">
        <ele>1801.0</ele>
        <time>2019-10-12T15:43:24.904Z</time>
      </trkpt>
      <trkpt lat="20.26147333" lon="-98.73470333">
        <ele>1801.0</ele>
        <time>2019-10-12T15:43:25.908Z</time>
      </trkpt>
      <trkpt lat="20.26146333" lon="-98.734715">
        <ele>1802.0</ele>
        <time>2019-10-12T15:43:26.915Z</time>
      </trkpt>
      <trkpt lat="20.26145333" lon="-98.73473">
        <ele>1803.0</ele>
        <time>2019-10-12T15:43:27.922Z</time>
      </trkpt>
      <trkpt lat="20.26144167" lon="-98.734745">
        <ele>1804.0</ele>
        <time>2019-10-12T15:43:28.926Z</time>
      </trkpt>
      <trkpt lat="20.26142667" lon="-98.73475833">
        <ele>1804.0</ele>
        <time>2019-10-12T15:43:29.927Z</time>
      </trkpt>
      <trkpt lat="20.26141167" lon="-98.73477">
        <ele>1804.0</ele>
        <time>2019-10-12T15:43:30.928Z</time>
      </trkpt>
      <trkpt lat="20.26139667" lon="-98.73478">
        <ele>1804.0</ele>
        <time>2019-10-12T15:43:31.928Z</time>
      </trkpt>
      <trkpt lat="20.26138167" lon="-98.73479167">
        <ele>1803.0</ele>
        <time>2019-10-12T15:43:32.929Z</time>
      </trkpt>
      <trkpt lat="20.26136833" lon="-98.73480333">
        <ele>1803.0</ele>
        <time>2019-10-12T15:43:33.930Z</time>
      </trkpt>
      <trkpt lat="20.26135333" lon="-98.73481">
        <ele>1803.0</ele>
        <time>2019-10-12T15:43:34.930Z</time>
      </trkpt>
      <trkpt lat="20.26133833" lon="-98.73481833">
        <ele>1803.0</ele>
        <time>2019-10-12T15:43:35.931Z</time>
      </trkpt>
      <trkpt lat="20.26132333" lon="-98.73482667">
        <ele>1804.0</ele>
        <time>2019-10-12T15:43:36.931Z</time>
      </trkpt>
      <trkpt lat="20.26130833" lon="-98.73483333">
        <ele>1804.0</ele>
        <time>2019-10-12T15:43:37.933Z</time>
      </trkpt>
      <trkpt lat="20.26129333" lon="-98.73484">
        <ele>1805.0</ele>
        <time>2019-10-12T15:43:38.934Z</time>
      </trkpt>
      <trkpt lat="20.26127833" lon="-98.73484667">
        <ele>1806.0</ele>
        <time>2019-10-12T15:43:39.934Z</time>
      </trkpt>
      <trkpt lat="20.261265" lon="-98.734855">
        <ele>1806.0</ele>
        <time>2019-10-12T15:43:40.935Z</time>
      </trkpt>
      <trkpt lat="20.26124833" lon="-98.734865">
        <ele>1806.0</ele>
        <time>2019-10-12T15:43:41.936Z</time>
      </trkpt>
      <trkpt lat="20.261235" lon="-98.73487">
        <ele>1806.0</ele>
        <time>2019-10-12T15:43:42.936Z</time>
      </trkpt>
      <trkpt lat="20.261215" lon="-98.73488">
        <ele>1807.0</ele>
        <time>2019-10-12T15:43:43.938Z</time>
      </trkpt>
      <trkpt lat="20.26119667" lon="-98.73488667">
        <ele>1808.0</ele>
        <time>2019-10-12T15:43:44.938Z</time>
      </trkpt>
      <trkpt lat="20.26118167" lon="-98.734895">
        <ele>1808.0</ele>
        <time>2019-10-12T15:43:45.939Z</time>
      </trkpt>
      <trkpt lat="20.26116667" lon="-98.73490333">
        <ele>1808.0</ele>
        <time>2019-10-12T15:43:46.940Z</time>
      </trkpt>
      <trkpt lat="20.26115167" lon="-98.73491167">
        <ele>1808.0</ele>
        <time>2019-10-12T15:43:47.940Z</time>
      </trkpt>
      <trkpt lat="20.26113667" lon="-98.73491667">
        <ele>1808.0</ele>
        <time>2019-10-12T15:43:48.941Z</time>
      </trkpt>
      <trkpt lat="20.261115" lon="-98.73493">
        <ele>1808.0</ele>
        <time>2019-10-12T15:43:49.941Z</time>
      </trkpt>
      <trkpt lat="20.26109167" lon="-98.73494167">
        <ele>1807.0</ele>
        <time>2019-10-12T15:43:50.942Z</time>
      </trkpt>
      <trkpt lat="20.26107333" lon="-98.73495">
        <ele>1806.0</ele>
        <time>2019-10-12T15:43:51.943Z</time>
      </trkpt>
      <trkpt lat="20.26105" lon="-98.73496333">
        <ele>1806.0</ele>
        <time>2019-10-12T15:43:52.943Z</time>
      </trkpt>
      <trkpt lat="20.26103" lon="-98.734975">
        <ele>1805.0</ele>
        <time>2019-10-12T15:43:53.944Z</time>
      </trkpt>
      <trkpt lat="20.26100667" lon="-98.73498333">
        <ele>1805.0</ele>
        <time>2019-10-12T15:43:54.944Z</time>
      </trkpt>
      <trkpt lat="20.26098833" lon="-98.73499167">
        <ele>1805.0</ele>
        <time>2019-10-12T15:43:55.946Z</time>
      </trkpt>
      <trkpt lat="20.26096833" lon="-98.73500167">
        <ele>1804.0</ele>
        <time>2019-10-12T15:43:56.947Z</time>
      </trkpt>
      <trkpt lat="20.26095167" lon="-98.73501">
        <ele>1804.0</ele>
        <time>2019-10-12T15:43:57.947Z</time>
      </trkpt>
      <trkpt lat="20.26093" lon="-98.735015">
        <ele>1804.0</ele>
        <time>2019-10-12T15:43:58.948Z</time>
      </trkpt>
      <trkpt lat="20.26090667" lon="-98.73501667">
        <ele>1804.0</ele>
        <time>2019-10-12T15:43:59.948Z</time>
      </trkpt>
      <trkpt lat="20.26088333" lon="-98.73502">
        <ele>1804.0</ele>
        <time>2019-10-12T15:44:00.950Z</time>
      </trkpt>
      <trkpt lat="20.26086333" lon="-98.735025">
        <ele>1804.0</ele>
        <time>2019-10-12T15:44:01.951Z</time>
      </trkpt>
      <trkpt lat="20.260845" lon="-98.73502833">
        <ele>1804.0</ele>
        <time>2019-10-12T15:44:02.952Z</time>
      </trkpt>
      <trkpt lat="20.26082167" lon="-98.735035">
        <ele>1805.0</ele>
        <time>2019-10-12T15:44:03.952Z</time>
      </trkpt>
      <trkpt lat="20.2608" lon="-98.73503833">
        <ele>1804.0</ele>
        <time>2019-10-12T15:44:04.953Z</time>
      </trkpt>
      <trkpt lat="20.26077833" lon="-98.73504">
        <ele>1804.0</ele>
        <time>2019-10-12T15:44:05.953Z</time>
      </trkpt>
      <trkpt lat="20.26074667" lon="-98.73504167">
        <ele>1804.0</ele>
        <time>2019-10-12T15:44:06.830Z</time>
      </trkpt>
      <trkpt lat="20.26072167" lon="-98.73504">
        <ele>1803.0</ele>
        <time>2019-10-12T15:44:07.831Z</time>
      </trkpt>
      <trkpt lat="20.26069333" lon="-98.73503333">
        <ele>1802.0</ele>
        <time>2019-10-12T15:44:08.831Z</time>
      </trkpt>
      <trkpt lat="20.260675" lon="-98.73502833">
        <ele>1801.0</ele>
        <time>2019-10-12T15:44:09.831Z</time>
      </trkpt>
      <trkpt lat="20.26065667" lon="-98.735025">
        <ele>1800.0</ele>
        <time>2019-10-12T15:44:10.831Z</time>
      </trkpt>
      <trkpt lat="20.26063333" lon="-98.73502">
        <ele>1801.0</ele>
        <time>2019-10-12T15:44:11.831Z</time>
      </trkpt>
      <trkpt lat="20.26061333" lon="-98.73501167">
        <ele>1801.0</ele>
        <time>2019-10-12T15:44:12.832Z</time>
      </trkpt>
      <trkpt lat="20.26059833" lon="-98.73500667">
        <ele>1802.0</ele>
        <time>2019-10-12T15:44:13.832Z</time>
      </trkpt>
      <trkpt lat="20.26058167" lon="-98.73499167">
        <ele>1802.0</ele>
        <time>2019-10-12T15:44:14.832Z</time>
      </trkpt>
      <trkpt lat="20.26056833" lon="-98.734985">
        <ele>1802.0</ele>
        <time>2019-10-12T15:44:15.833Z</time>
      </trkpt>
      <trkpt lat="20.260555" lon="-98.73497833">
        <ele>1803.0</ele>
        <time>2019-10-12T15:44:16.833Z</time>
      </trkpt>
      <trkpt lat="20.260535" lon="-98.73497833">
        <ele>1803.0</ele>
        <time>2019-10-12T15:44:17.834Z</time>
      </trkpt>
      <trkpt lat="20.26051667" lon="-98.73497667">
        <ele>1804.0</ele>
        <time>2019-10-12T15:44:18.835Z</time>
      </trkpt>
      <trkpt lat="20.26049833" lon="-98.73497167">
        <ele>1804.0</ele>
        <time>2019-10-12T15:44:19.835Z</time>
      </trkpt>
      <trkpt lat="20.26048333" lon="-98.73496667">
        <ele>1804.0</ele>
        <time>2019-10-12T15:44:20.837Z</time>
      </trkpt>
      <trkpt lat="20.26047167" lon="-98.73496167">
        <ele>1805.0</ele>
        <time>2019-10-12T15:44:21.838Z</time>
      </trkpt>
      <trkpt lat="20.26045167" lon="-98.73495333">
        <ele>1806.0</ele>
        <time>2019-10-12T15:44:22.843Z</time>
      </trkpt>
      <trkpt lat="20.26043833" lon="-98.73494833">
        <ele>1808.0</ele>
        <time>2019-10-12T15:44:23.849Z</time>
      </trkpt>
      <trkpt lat="20.26042833" lon="-98.73493667">
        <ele>1809.0</ele>
        <time>2019-10-12T15:44:24.852Z</time>
      </trkpt>
      <trkpt lat="20.26042167" lon="-98.73492833">
        <ele>1810.0</ele>
        <time>2019-10-12T15:44:25.858Z</time>
      </trkpt>
      <trkpt lat="20.26040833" lon="-98.73491667">
        <ele>1812.0</ele>
        <time>2019-10-12T15:44:26.862Z</time>
      </trkpt>
      <trkpt lat="20.260395" lon="-98.73490667">
        <ele>1814.0</ele>
        <time>2019-10-12T15:44:27.863Z</time>
      </trkpt>
      <trkpt lat="20.260375" lon="-98.73490167">
        <ele>1815.0</ele>
        <time>2019-10-12T15:44:28.864Z</time>
      </trkpt>
      <trkpt lat="20.26035667" lon="-98.734895">
        <ele>1817.0</ele>
        <time>2019-10-12T15:44:29.865Z</time>
      </trkpt>
      <trkpt lat="20.26033833" lon="-98.73489333">
        <ele>1819.0</ele>
        <time>2019-10-12T15:44:30.866Z</time>
      </trkpt>
      <trkpt lat="20.26032" lon="-98.73489333">
        <ele>1820.0</ele>
        <time>2019-10-12T15:44:31.870Z</time>
      </trkpt>
      <trkpt lat="20.26030167" lon="-98.73489167">
        <ele>1822.0</ele>
        <time>2019-10-12T15:44:32.876Z</time>
      </trkpt>
      <trkpt lat="20.26028333" lon="-98.73488833">
        <ele>1823.0</ele>
        <time>2019-10-12T15:44:33.883Z</time>
      </trkpt>
      <trkpt lat="20.26026833" lon="-98.73487833">
        <ele>1824.0</ele>
        <time>2019-10-12T15:44:34.891Z</time>
      </trkpt>
      <trkpt lat="20.26025167" lon="-98.73486667">
        <ele>1825.0</ele>
        <time>2019-10-12T15:44:35.896Z</time>
      </trkpt>
      <trkpt lat="20.26023667" lon="-98.734855">
        <ele>1825.0</ele>
        <time>2019-10-12T15:44:36.900Z</time>
      </trkpt>
      <trkpt lat="20.26021667" lon="-98.73483833">
        <ele>1827.0</ele>
        <time>2019-10-12T15:44:37.904Z</time>
      </trkpt>
      <trkpt lat="20.26020333" lon="-98.73482833">
        <ele>1827.0</ele>
        <time>2019-10-12T15:44:38.911Z</time>
      </trkpt>
      <trkpt lat="20.26019333" lon="-98.73481667">
        <ele>1828.0</ele>
        <time>2019-10-12T15:44:39.912Z</time>
      </trkpt>
      <trkpt lat="20.26018167" lon="-98.73480667">
        <ele>1829.0</ele>
        <time>2019-10-12T15:44:40.912Z</time>
      </trkpt>
      <trkpt lat="20.26016333" lon="-98.73479667">
        <ele>1830.0</ele>
        <time>2019-10-12T15:44:41.913Z</time>
      </trkpt>
      <trkpt lat="20.260145" lon="-98.73478833">
        <ele>1832.0</ele>
        <time>2019-10-12T15:44:42.913Z</time>
      </trkpt>
      <trkpt lat="20.26012833" lon="-98.73478167">
        <ele>1834.0</ele>
        <time>2019-10-12T15:44:43.913Z</time>
      </trkpt>
      <trkpt lat="20.26011167" lon="-98.734775">
        <ele>1837.0</ele>
        <time>2019-10-12T15:44:44.913Z</time>
      </trkpt>
      <trkpt lat="20.26009833" lon="-98.73476833">
        <ele>1840.0</ele>
        <time>2019-10-12T15:44:45.913Z</time>
      </trkpt>
      <trkpt lat="20.26008333" lon="-98.73475667">
        <ele>1843.0</ele>
        <time>2019-10-12T15:44:46.914Z</time>
      </trkpt>
      <trkpt lat="20.26007" lon="-98.73474667">
        <ele>1846.0</ele>
        <time>2019-10-12T15:44:47.914Z</time>
      </trkpt>
      <trkpt lat="20.26005833" lon="-98.73473333">
        <ele>1848.0</ele>
        <time>2019-10-12T15:44:48.914Z</time>
      </trkpt>
      <trkpt lat="20.260045" lon="-98.73472333">
        <ele>1850.0</ele>
        <time>2019-10-12T15:44:49.915Z</time>
      </trkpt>
      <trkpt lat="20.26003167" lon="-98.73471167">
        <ele>1852.0</ele>
        <time>2019-10-12T15:44:50.915Z</time>
      </trkpt>
      <trkpt lat="20.26002" lon="-98.73469667">
        <ele>1854.0</ele>
        <time>2019-10-12T15:44:51.915Z</time>
      </trkpt>
      <trkpt lat="20.26000833" lon="-98.73468333">
        <ele>1855.0</ele>
        <time>2019-10-12T15:44:52.915Z</time>
      </trkpt>
      <trkpt lat="20.25999667" lon="-98.73467">
        <ele>1857.0</ele>
        <time>2019-10-12T15:44:53.915Z</time>
      </trkpt>
      <trkpt lat="20.259985" lon="-98.73465667">
        <ele>1858.0</ele>
        <time>2019-10-12T15:44:54.916Z</time>
      </trkpt>
      <trkpt lat="20.259975" lon="-98.73464333">
        <ele>1859.0</ele>
        <time>2019-10-12T15:44:55.916Z</time>
      </trkpt>
      <trkpt lat="20.25996167" lon="-98.734635">
        <ele>1861.0</ele>
        <time>2019-10-12T15:44:56.916Z</time>
      </trkpt>
      <trkpt lat="20.25995" lon="-98.73462833">
        <ele>1864.0</ele>
        <time>2019-10-12T15:44:57.916Z</time>
      </trkpt>
      <trkpt lat="20.259935" lon="-98.73461833">
        <ele>1865.0</ele>
        <time>2019-10-12T15:44:58.917Z</time>
      </trkpt>
      <trkpt lat="20.25991667" lon="-98.73460667">
        <ele>1867.0</ele>
        <time>2019-10-12T15:44:59.917Z</time>
      </trkpt>
      <trkpt lat="20.25990167" lon="-98.73459">
        <ele>1868.0</ele>
        <time>2019-10-12T15:45:00.918Z</time>
      </trkpt>
      <trkpt lat="20.25988667" lon="-98.73458">
        <ele>1868.0</ele>
        <time>2019-10-12T15:45:01.919Z</time>
      </trkpt>
      <trkpt lat="20.25987" lon="-98.734565">
        <ele>1869.0</ele>
        <time>2019-10-12T15:45:02.920Z</time>
      </trkpt>
      <trkpt lat="20.25985333" lon="-98.73455333">
        <ele>1869.0</ele>
        <time>2019-10-12T15:45:03.921Z</time>
      </trkpt>
      <trkpt lat="20.25983667" lon="-98.73454333">
        <ele>1871.0</ele>
        <time>2019-10-12T15:45:04.921Z</time>
      </trkpt>
      <trkpt lat="20.25982" lon="-98.734535">
        <ele>1873.0</ele>
        <time>2019-10-12T15:45:05.922Z</time>
      </trkpt>
      <trkpt lat="20.25980667" lon="-98.73452833">
        <ele>1874.0</ele>
        <time>2019-10-12T15:45:06.923Z</time>
      </trkpt>
      <trkpt lat="20.25979" lon="-98.73452167">
        <ele>1876.0</ele>
        <time>2019-10-12T15:45:07.924Z</time>
      </trkpt>
      <trkpt lat="20.259775" lon="-98.73451167">
        <ele>1878.0</ele>
        <time>2019-10-12T15:45:08.925Z</time>
      </trkpt>
      <trkpt lat="20.25976" lon="-98.73450333">
        <ele>1880.0</ele>
        <time>2019-10-12T15:45:09.925Z</time>
      </trkpt>
      <trkpt lat="20.259745" lon="-98.734495">
        <ele>1882.0</ele>
        <time>2019-10-12T15:45:10.926Z</time>
      </trkpt>
      <trkpt lat="20.25972833" lon="-98.734485">
        <ele>1883.0</ele>
        <time>2019-10-12T15:45:11.927Z</time>
      </trkpt>
      <trkpt lat="20.25971167" lon="-98.73447333">
        <ele>1884.0</ele>
        <time>2019-10-12T15:45:12.927Z</time>
      </trkpt>
      <trkpt lat="20.259695" lon="-98.73446667">
        <ele>1885.0</ele>
        <time>2019-10-12T15:45:13.928Z</time>
      </trkpt>
      <trkpt lat="20.25968333" lon="-98.73445667">
        <ele>1886.0</ele>
        <time>2019-10-12T15:45:14.929Z</time>
      </trkpt>
      <trkpt lat="20.25966667" lon="-98.73445667">
        <ele>1887.0</ele>
        <time>2019-10-12T15:45:15.930Z</time>
      </trkpt>
      <trkpt lat="20.25965167" lon="-98.73445833">
        <ele>1888.0</ele>
        <time>2019-10-12T15:45:16.931Z</time>
      </trkpt>
      <trkpt lat="20.25963667" lon="-98.73445">
        <ele>1888.0</ele>
        <time>2019-10-12T15:45:17.931Z</time>
      </trkpt>
      <trkpt lat="20.25962" lon="-98.734445">
        <ele>1889.0</ele>
        <time>2019-10-12T15:45:18.932Z</time>
      </trkpt>
      <trkpt lat="20.2596" lon="-98.73443667">
        <ele>1890.0</ele>
        <time>2019-10-12T15:45:19.932Z</time>
      </trkpt>
      <trkpt lat="20.259585" lon="-98.73443167">
        <ele>1890.0</ele>
        <time>2019-10-12T15:45:20.932Z</time>
      </trkpt>
      <trkpt lat="20.25957" lon="-98.73442667">
        <ele>1891.0</ele>
        <time>2019-10-12T15:45:21.933Z</time>
      </trkpt>
      <trkpt lat="20.25955167" lon="-98.73442167">
        <ele>1892.0</ele>
        <time>2019-10-12T15:45:22.933Z</time>
      </trkpt>
      <trkpt lat="20.259535" lon="-98.734415">
        <ele>1892.0</ele>
        <time>2019-10-12T15:45:23.933Z</time>
      </trkpt>
      <trkpt lat="20.25952333" lon="-98.73441167">
        <ele>1893.0</ele>
        <time>2019-10-12T15:45:24.934Z</time>
      </trkpt>
      <trkpt lat="20.25951333" lon="-98.7344">
        <ele>1894.0</ele>
        <time>2019-10-12T15:45:25.934Z</time>
      </trkpt>
      <trkpt lat="20.25951167" lon="-98.734385">
        <ele>1894.0</ele>
        <time>2019-10-12T15:45:26.934Z</time>
      </trkpt>
      <trkpt lat="20.25950167" lon="-98.73437167">
        <ele>1893.0</ele>
        <time>2019-10-12T15:45:27.935Z</time>
      </trkpt>
      <trkpt lat="20.25949167" lon="-98.73435833">
        <ele>1893.0</ele>
        <time>2019-10-12T15:45:28.935Z</time>
      </trkpt>
      <trkpt lat="20.25947833" lon="-98.73435">
        <ele>1892.0</ele>
        <time>2019-10-12T15:45:29.936Z</time>
      </trkpt>
      <trkpt lat="20.25946833" lon="-98.73433833">
        <ele>1892.0</ele>
        <time>2019-10-12T15:45:30.939Z</time>
      </trkpt>
      <trkpt lat="20.25945833" lon="-98.73431833">
        <ele>1891.0</ele>
        <time>2019-10-12T15:45:31.944Z</time>
      </trkpt>
      <trkpt lat="20.25945167" lon="-98.73429667">
        <ele>1890.0</ele>
        <time>2019-10-12T15:45:32.950Z</time>
      </trkpt>
      <trkpt lat="20.259445" lon="-98.73428">
        <ele>1888.0</ele>
        <time>2019-10-12T15:45:33.953Z</time>
      </trkpt>
      <trkpt lat="20.25942667" lon="-98.73426833">
        <ele>1886.0</ele>
        <time>2019-10-12T15:45:34.832Z</time>
      </trkpt>
      <trkpt lat="20.25940833" lon="-98.73426333">
        <ele>1884.0</ele>
        <time>2019-10-12T15:45:35.833Z</time>
      </trkpt>
      <trkpt lat="20.259395" lon="-98.73425333">
        <ele>1883.0</ele>
        <time>2019-10-12T15:45:36.834Z</time>
      </trkpt>
      <trkpt lat="20.259385" lon="-98.734245">
        <ele>1882.0</ele>
        <time>2019-10-12T15:45:37.836Z</time>
      </trkpt>
      <trkpt lat="20.25937167" lon="-98.734235">
        <ele>1879.0</ele>
        <time>2019-10-12T15:45:38.842Z</time>
      </trkpt>
      <trkpt lat="20.25936167" lon="-98.73422333">
        <ele>1878.0</ele>
        <time>2019-10-12T15:45:39.846Z</time>
      </trkpt>
      <trkpt lat="20.25935167" lon="-98.73420667">
        <ele>1877.0</ele>
        <time>2019-10-12T15:45:40.852Z</time>
      </trkpt>
      <trkpt lat="20.25934" lon="-98.73418833">
        <ele>1876.0</ele>
        <time>2019-10-12T15:45:41.858Z</time>
      </trkpt>
      <trkpt lat="20.25933333" lon="-98.73416667">
        <ele>1875.0</ele>
        <time>2019-10-12T15:45:42.861Z</time>
      </trkpt>
      <trkpt lat="20.25932667" lon="-98.73414833">
        <ele>1875.0</ele>
        <time>2019-10-12T15:45:43.868Z</time>
      </trkpt>
      <trkpt lat="20.25931833" lon="-98.73413">
        <ele>1875.0</ele>
        <time>2019-10-12T15:45:44.872Z</time>
      </trkpt>
      <trkpt lat="20.25930833" lon="-98.734115">
        <ele>1874.0</ele>
        <time>2019-10-12T15:45:45.878Z</time>
      </trkpt>
      <trkpt lat="20.259295" lon="-98.73409833">
        <ele>1874.0</ele>
        <time>2019-10-12T15:45:46.878Z</time>
      </trkpt>
      <trkpt lat="20.25928833" lon="-98.73409333">
        <ele>1874.0</ele>
        <time>2019-10-12T15:45:47.878Z</time>
      </trkpt>
      <trkpt lat="20.25927333" lon="-98.73408833">
        <ele>1873.0</ele>
        <time>2019-10-12T15:45:48.879Z</time>
      </trkpt>
      <trkpt lat="20.25925833" lon="-98.73408333">
        <ele>1871.0</ele>
        <time>2019-10-12T15:45:49.879Z</time>
      </trkpt>
      <trkpt lat="20.25924167" lon="-98.734075">
        <ele>1869.0</ele>
        <time>2019-10-12T15:45:50.879Z</time>
      </trkpt>
      <trkpt lat="20.25922667" lon="-98.73406833">
        <ele>1868.0</ele>
        <time>2019-10-12T15:45:51.882Z</time>
      </trkpt>
      <trkpt lat="20.259215" lon="-98.73406333">
        <ele>1868.0</ele>
        <time>2019-10-12T15:45:52.887Z</time>
      </trkpt>
      <trkpt lat="20.2592" lon="-98.73405667">
        <ele>1868.0</ele>
        <time>2019-10-12T15:45:53.890Z</time>
      </trkpt>
      <trkpt lat="20.25918333" lon="-98.73404667">
        <ele>1868.0</ele>
        <time>2019-10-12T15:45:54.898Z</time>
      </trkpt>
      <trkpt lat="20.25917167" lon="-98.73403667">
        <ele>1867.0</ele>
        <time>2019-10-12T15:45:55.902Z</time>
      </trkpt>
      <trkpt lat="20.25916167" lon="-98.734025">
        <ele>1866.0</ele>
        <time>2019-10-12T15:45:56.907Z</time>
      </trkpt>
      <trkpt lat="20.25915" lon="-98.73401333">
        <ele>1866.0</ele>
        <time>2019-10-12T15:45:57.912Z</time>
      </trkpt>
      <trkpt lat="20.25913667" lon="-98.73399833">
        <ele>1866.0</ele>
        <time>2019-10-12T15:45:58.918Z</time>
      </trkpt>
      <trkpt lat="20.25912333" lon="-98.73398333">
        <ele>1866.0</ele>
        <time>2019-10-12T15:45:59.925Z</time>
      </trkpt>
      <trkpt lat="20.259115" lon="-98.73397">
        <ele>1865.0</ele>
        <time>2019-10-12T15:46:00.930Z</time>
      </trkpt>
      <trkpt lat="20.25911" lon="-98.73395833">
        <ele>1864.0</ele>
        <time>2019-10-12T15:46:01.934Z</time>
      </trkpt>
      <trkpt lat="20.25910833" lon="-98.733945">
        <ele>1863.0</ele>
        <time>2019-10-12T15:46:02.940Z</time>
      </trkpt>
      <trkpt lat="20.25911" lon="-98.73392833">
        <ele>1862.0</ele>
        <time>2019-10-12T15:46:03.943Z</time>
      </trkpt>
      <trkpt lat="20.25911" lon="-98.73391333">
        <ele>1861.0</ele>
        <time>2019-10-12T15:46:04.946Z</time>
      </trkpt>
      <trkpt lat="20.25911" lon="-98.733895">
        <ele>1860.0</ele>
        <time>2019-10-12T15:46:05.946Z</time>
      </trkpt>
      <trkpt lat="20.25911" lon="-98.733875">
        <ele>1858.0</ele>
        <time>2019-10-12T15:46:06.947Z</time>
      </trkpt>
      <trkpt lat="20.25911167" lon="-98.73385833">
        <ele>1857.0</ele>
        <time>2019-10-12T15:46:07.947Z</time>
      </trkpt>
      <trkpt lat="20.25911" lon="-98.73384333">
        <ele>1856.0</ele>
        <time>2019-10-12T15:46:08.948Z</time>
      </trkpt>
      <trkpt lat="20.25910833" lon="-98.73382667">
        <ele>1855.0</ele>
        <time>2019-10-12T15:46:09.948Z</time>
      </trkpt>
      <trkpt lat="20.259105" lon="-98.73381167">
        <ele>1854.0</ele>
        <time>2019-10-12T15:46:10.948Z</time>
      </trkpt>
      <trkpt lat="20.25910167" lon="-98.73379833">
        <ele>1853.0</ele>
        <time>2019-10-12T15:46:11.948Z</time>
      </trkpt>
      <trkpt lat="20.259095" lon="-98.73379">
        <ele>1852.0</ele>
        <time>2019-10-12T15:46:12.949Z</time>
      </trkpt>
      <trkpt lat="20.25909167" lon="-98.73377333">
        <ele>1851.0</ele>
        <time>2019-10-12T15:46:13.949Z</time>
      </trkpt>
      <trkpt lat="20.25908833" lon="-98.73375333">
        <ele>1851.0</ele>
        <time>2019-10-12T15:46:14.949Z</time>
      </trkpt>
      <trkpt lat="20.25908167" lon="-98.73373667">
        <ele>1851.0</ele>
        <time>2019-10-12T15:46:15.949Z</time>
      </trkpt>
      <trkpt lat="20.25907167" lon="-98.73372333">
        <ele>1850.0</ele>
        <time>2019-10-12T15:46:16.950Z</time>
      </trkpt>
      <trkpt lat="20.25906167" lon="-98.73370667">
        <ele>1849.0</ele>
        <time>2019-10-12T15:46:17.950Z</time>
      </trkpt>
      <trkpt lat="20.25904667" lon="-98.73369">
        <ele>1849.0</ele>
        <time>2019-10-12T15:46:18.950Z</time>
      </trkpt>
      <trkpt lat="20.25903333" lon="-98.73368167">
        <ele>1848.0</ele>
        <time>2019-10-12T15:46:19.951Z</time>
      </trkpt>
      <trkpt lat="20.25901333" lon="-98.733675">
        <ele>1848.0</ele>
        <time>2019-10-12T15:46:20.951Z</time>
      </trkpt>
      <trkpt lat="20.25899833" lon="-98.73367333">
        <ele>1847.0</ele>
        <time>2019-10-12T15:46:21.951Z</time>
      </trkpt>
      <trkpt lat="20.25898" lon="-98.73367167">
        <ele>1847.0</ele>
        <time>2019-10-12T15:46:22.952Z</time>
      </trkpt>
      <trkpt lat="20.25895833" lon="-98.73367333">
        <ele>1848.0</ele>
        <time>2019-10-12T15:46:23.952Z</time>
      </trkpt>
      <trkpt lat="20.25893833" lon="-98.73367667">
        <ele>1848.0</ele>
        <time>2019-10-12T15:46:24.952Z</time>
      </trkpt>
      <trkpt lat="20.25892167" lon="-98.73367833">
        <ele>1847.0</ele>
        <time>2019-10-12T15:46:25.953Z</time>
      </trkpt>
      <trkpt lat="20.258905" lon="-98.73368333">
        <ele>1846.0</ele>
        <time>2019-10-12T15:46:26.953Z</time>
      </trkpt>
      <trkpt lat="20.25888667" lon="-98.73369333">
        <ele>1845.0</ele>
        <time>2019-10-12T15:46:27.953Z</time>
      </trkpt>
      <trkpt lat="20.258875" lon="-98.7337">
        <ele>1845.0</ele>
        <time>2019-10-12T15:46:28.954Z</time>
      </trkpt>
      <trkpt lat="20.25886333" lon="-98.73370667">
        <ele>1844.0</ele>
        <time>2019-10-12T15:46:29.954Z</time>
      </trkpt>
      <trkpt lat="20.25885" lon="-98.73370833">
        <ele>1843.0</ele>
        <time>2019-10-12T15:46:30.831Z</time>
      </trkpt>
      <trkpt lat="20.25883333" lon="-98.73371667">
        <ele>1842.0</ele>
        <time>2019-10-12T15:46:31.837Z</time>
      </trkpt>
      <trkpt lat="20.25882" lon="-98.73372667">
        <ele>1840.0</ele>
        <time>2019-10-12T15:46:32.841Z</time>
      </trkpt>
      <trkpt lat="20.25880833" lon="-98.73373833">
        <ele>1838.0</ele>
        <time>2019-10-12T15:46:33.844Z</time>
      </trkpt>
      <trkpt lat="20.258795" lon="-98.73375">
        <ele>1837.0</ele>
        <time>2019-10-12T15:46:34.850Z</time>
      </trkpt>
      <trkpt lat="20.25878333" lon="-98.73376167">
        <ele>1836.0</ele>
        <time>2019-10-12T15:46:35.854Z</time>
      </trkpt>
      <trkpt lat="20.25877333" lon="-98.73377167">
        <ele>1836.0</ele>
        <time>2019-10-12T15:46:36.859Z</time>
      </trkpt>
      <trkpt lat="20.25876167" lon="-98.733785">
        <ele>1835.0</ele>
        <time>2019-10-12T15:46:37.865Z</time>
      </trkpt>
      <trkpt lat="20.25875" lon="-98.73379833">
        <ele>1834.0</ele>
        <time>2019-10-12T15:46:38.867Z</time>
      </trkpt>
      <trkpt lat="20.25874167" lon="-98.73381333">
        <ele>1834.0</ele>
        <time>2019-10-12T15:46:39.874Z</time>
      </trkpt>
      <trkpt lat="20.25873" lon="-98.73383">
        <ele>1833.0</ele>
        <time>2019-10-12T15:46:40.880Z</time>
      </trkpt>
      <trkpt lat="20.25871667" lon="-98.73384333">
        <ele>1833.0</ele>
        <time>2019-10-12T15:46:41.883Z</time>
      </trkpt>
      <trkpt lat="20.258705" lon="-98.73386333">
        <ele>1832.0</ele>
        <time>2019-10-12T15:46:42.890Z</time>
      </trkpt>
      <trkpt lat="20.258695" lon="-98.73388167">
        <ele>1832.0</ele>
        <time>2019-10-12T15:46:43.896Z</time>
      </trkpt>
      <trkpt lat="20.25868667" lon="-98.73389667">
        <ele>1832.0</ele>
        <time>2019-10-12T15:46:44.897Z</time>
      </trkpt>
      <trkpt lat="20.25867833" lon="-98.73391167">
        <ele>1831.0</ele>
        <time>2019-10-12T15:46:45.898Z</time>
      </trkpt>
      <trkpt lat="20.25867" lon="-98.73393167">
        <ele>1831.0</ele>
        <time>2019-10-12T15:46:46.898Z</time>
      </trkpt>
      <trkpt lat="20.258665" lon="-98.73394667">
        <ele>1831.0</ele>
        <time>2019-10-12T15:46:47.898Z</time>
      </trkpt>
      <trkpt lat="20.25865833" lon="-98.73396167">
        <ele>1831.0</ele>
        <time>2019-10-12T15:46:48.899Z</time>
      </trkpt>
      <trkpt lat="20.25865" lon="-98.73397833">
        <ele>1832.0</ele>
        <time>2019-10-12T15:46:49.899Z</time>
      </trkpt>
      <trkpt lat="20.25864167" lon="-98.73399">
        <ele>1832.0</ele>
        <time>2019-10-12T15:46:50.899Z</time>
      </trkpt>
      <trkpt lat="20.25863333" lon="-98.734005">
        <ele>1832.0</ele>
        <time>2019-10-12T15:46:51.899Z</time>
      </trkpt>
      <trkpt lat="20.25862833" lon="-98.73402">
        <ele>1832.0</ele>
        <time>2019-10-12T15:46:52.900Z</time>
      </trkpt>
      <trkpt lat="20.258625" lon="-98.73403667">
        <ele>1832.0</ele>
        <time>2019-10-12T15:46:53.900Z</time>
      </trkpt>
      <trkpt lat="20.25862" lon="-98.73405167">
        <ele>1832.0</ele>
        <time>2019-10-12T15:46:54.900Z</time>
      </trkpt>
      <trkpt lat="20.258615" lon="-98.734065">
        <ele>1831.0</ele>
        <time>2019-10-12T15:46:55.901Z</time>
      </trkpt>
      <trkpt lat="20.25861" lon="-98.73408">
        <ele>1832.0</ele>
        <time>2019-10-12T15:46:56.901Z</time>
      </trkpt>
      <trkpt lat="20.25860167" lon="-98.734095">
        <ele>1832.0</ele>
        <time>2019-10-12T15:46:57.901Z</time>
      </trkpt>
      <trkpt lat="20.258595" lon="-98.73410667">
        <ele>1832.0</ele>
        <time>2019-10-12T15:46:58.902Z</time>
      </trkpt>
      <trkpt lat="20.25859167" lon="-98.73411833">
        <ele>1831.0</ele>
        <time>2019-10-12T15:46:59.902Z</time>
      </trkpt>
      <trkpt lat="20.25859" lon="-98.73413">
        <ele>1831.0</ele>
        <time>2019-10-12T15:47:00.902Z</time>
      </trkpt>
      <trkpt lat="20.25858833" lon="-98.73414333">
        <ele>1831.0</ele>
        <time>2019-10-12T15:47:01.903Z</time>
      </trkpt>
      <trkpt lat="20.258585" lon="-98.73415667">
        <ele>1830.0</ele>
        <time>2019-10-12T15:47:02.903Z</time>
      </trkpt>
      <trkpt lat="20.25858333" lon="-98.73417167">
        <ele>1830.0</ele>
        <time>2019-10-12T15:47:03.903Z</time>
      </trkpt>
      <trkpt lat="20.25858" lon="-98.734185">
        <ele>1831.0</ele>
        <time>2019-10-12T15:47:04.904Z</time>
      </trkpt>
      <trkpt lat="20.258575" lon="-98.7342">
        <ele>1831.0</ele>
        <time>2019-10-12T15:47:05.904Z</time>
      </trkpt>
      <trkpt lat="20.25857167" lon="-98.734215">
        <ele>1831.0</ele>
        <time>2019-10-12T15:47:06.904Z</time>
      </trkpt>
      <trkpt lat="20.25856833" lon="-98.73422833">
        <ele>1831.0</ele>
        <time>2019-10-12T15:47:07.904Z</time>
      </trkpt>
      <trkpt lat="20.25856333" lon="-98.73424333">
        <ele>1832.0</ele>
        <time>2019-10-12T15:47:08.905Z</time>
      </trkpt>
      <trkpt lat="20.25856167" lon="-98.73426">
        <ele>1832.0</ele>
        <time>2019-10-12T15:47:09.905Z</time>
      </trkpt>
      <trkpt lat="20.25855833" lon="-98.73427667">
        <ele>1832.0</ele>
        <time>2019-10-12T15:47:10.905Z</time>
      </trkpt>
      <trkpt lat="20.258555" lon="-98.73428833">
        <ele>1832.0</ele>
        <time>2019-10-12T15:47:11.906Z</time>
      </trkpt>
      <trkpt lat="20.25854667" lon="-98.73430167">
        <ele>1832.0</ele>
        <time>2019-10-12T15:47:12.906Z</time>
      </trkpt>
      <trkpt lat="20.25853833" lon="-98.734315">
        <ele>1832.0</ele>
        <time>2019-10-12T15:47:13.906Z</time>
      </trkpt>
      <trkpt lat="20.25853167" lon="-98.73433167">
        <ele>1832.0</ele>
        <time>2019-10-12T15:47:14.907Z</time>
      </trkpt>
      <trkpt lat="20.25852167" lon="-98.73434667">
        <ele>1833.0</ele>
        <time>2019-10-12T15:47:15.907Z</time>
      </trkpt>
      <trkpt lat="20.25851333" lon="-98.73436167">
        <ele>1833.0</ele>
        <time>2019-10-12T15:47:16.907Z</time>
      </trkpt>
      <trkpt lat="20.258505" lon="-98.73437667">
        <ele>1833.0</ele>
        <time>2019-10-12T15:47:17.908Z</time>
      </trkpt>
      <trkpt lat="20.258495" lon="-98.73439333">
        <ele>1833.0</ele>
        <time>2019-10-12T15:47:18.908Z</time>
      </trkpt>
      <trkpt lat="20.25848667" lon="-98.73440833">
        <ele>1833.0</ele>
        <time>2019-10-12T15:47:19.908Z</time>
      </trkpt>
      <trkpt lat="20.25847833" lon="-98.734425">
        <ele>1833.0</ele>
        <time>2019-10-12T15:47:20.909Z</time>
      </trkpt>
      <trkpt lat="20.25847" lon="-98.73444167">
        <ele>1833.0</ele>
        <time>2019-10-12T15:47:21.909Z</time>
      </trkpt>
      <trkpt lat="20.25846333" lon="-98.73446">
        <ele>1833.0</ele>
        <time>2019-10-12T15:47:22.909Z</time>
      </trkpt>
      <trkpt lat="20.25845833" lon="-98.73447833">
        <ele>1832.0</ele>
        <time>2019-10-12T15:47:23.914Z</time>
      </trkpt>
      <trkpt lat="20.25845333" lon="-98.73449833">
        <ele>1832.0</ele>
        <time>2019-10-12T15:47:24.920Z</time>
      </trkpt>
      <trkpt lat="20.258445" lon="-98.73451667">
        <ele>1833.0</ele>
        <time>2019-10-12T15:47:25.926Z</time>
      </trkpt>
      <trkpt lat="20.258435" lon="-98.73453333">
        <ele>1834.0</ele>
        <time>2019-10-12T15:47:26.932Z</time>
      </trkpt>
      <trkpt lat="20.25842333" lon="-98.73454667">
        <ele>1834.0</ele>
        <time>2019-10-12T15:47:27.936Z</time>
      </trkpt>
      <trkpt lat="20.25840833" lon="-98.73455667">
        <ele>1835.0</ele>
        <time>2019-10-12T15:47:28.943Z</time>
      </trkpt>
      <trkpt lat="20.25839167" lon="-98.73456333">
        <ele>1835.0</ele>
        <time>2019-10-12T15:47:29.948Z</time>
      </trkpt>
      <trkpt lat="20.25837667" lon="-98.734565">
        <ele>1836.0</ele>
        <time>2019-10-12T15:47:30.950Z</time>
      </trkpt>
      <trkpt lat="20.25836167" lon="-98.73456333">
        <ele>1838.0</ele>
        <time>2019-10-12T15:47:31.955Z</time>
      </trkpt>
      <trkpt lat="20.25834667" lon="-98.73456333">
        <ele>1840.0</ele>
        <time>2019-10-12T15:47:32.834Z</time>
      </trkpt>
      <trkpt lat="20.25833167" lon="-98.73456167">
        <ele>1841.0</ele>
        <time>2019-10-12T15:47:33.841Z</time>
      </trkpt>
      <trkpt lat="20.258315" lon="-98.73456167">
        <ele>1843.0</ele>
        <time>2019-10-12T15:47:34.848Z</time>
      </trkpt>
      <trkpt lat="20.25829833" lon="-98.73456">
        <ele>1843.0</ele>
        <time>2019-10-12T15:47:35.852Z</time>
      </trkpt>
      <trkpt lat="20.25828167" lon="-98.73456167">
        <ele>1843.0</ele>
        <time>2019-10-12T15:47:36.852Z</time>
      </trkpt>
      <trkpt lat="20.25826333" lon="-98.73456333">
        <ele>1844.0</ele>
        <time>2019-10-12T15:47:37.852Z</time>
      </trkpt>
      <trkpt lat="20.25824833" lon="-98.73456667">
        <ele>1844.0</ele>
        <time>2019-10-12T15:47:38.853Z</time>
      </trkpt>
      <trkpt lat="20.258235" lon="-98.73457">
        <ele>1844.0</ele>
        <time>2019-10-12T15:47:39.853Z</time>
      </trkpt>
      <trkpt lat="20.25821833" lon="-98.73457333">
        <ele>1844.0</ele>
        <time>2019-10-12T15:47:40.853Z</time>
      </trkpt>
      <trkpt lat="20.25820333" lon="-98.734575">
        <ele>1844.0</ele>
        <time>2019-10-12T15:47:41.854Z</time>
      </trkpt>
      <trkpt lat="20.258185" lon="-98.73458">
        <ele>1844.0</ele>
        <time>2019-10-12T15:47:42.861Z</time>
      </trkpt>
      <trkpt lat="20.25817167" lon="-98.734585">
        <ele>1843.0</ele>
        <time>2019-10-12T15:47:43.866Z</time>
      </trkpt>
      <trkpt lat="20.25816167" lon="-98.73459">
        <ele>1843.0</ele>
        <time>2019-10-12T15:47:44.871Z</time>
      </trkpt>
      <trkpt lat="20.25814667" lon="-98.734595">
        <ele>1843.0</ele>
        <time>2019-10-12T15:47:45.878Z</time>
      </trkpt>
      <trkpt lat="20.25813333" lon="-98.73460167">
        <ele>1843.0</ele>
        <time>2019-10-12T15:47:46.886Z</time>
      </trkpt>
      <trkpt lat="20.25811667" lon="-98.73461">
        <ele>1843.0</ele>
        <time>2019-10-12T15:47:47.892Z</time>
      </trkpt>
      <trkpt lat="20.25810667" lon="-98.734615">
        <ele>1843.0</ele>
        <time>2019-10-12T15:47:48.897Z</time>
      </trkpt>
      <trkpt lat="20.25809167" lon="-98.73462333">
        <ele>1843.0</ele>
        <time>2019-10-12T15:47:49.902Z</time>
      </trkpt>
      <trkpt lat="20.25807667" lon="-98.73463167">
        <ele>1843.0</ele>
        <time>2019-10-12T15:47:50.907Z</time>
      </trkpt>
      <trkpt lat="20.25806" lon="-98.73463667">
        <ele>1842.0</ele>
        <time>2019-10-12T15:47:51.913Z</time>
      </trkpt>
      <trkpt lat="20.25804667" lon="-98.73464333">
        <ele>1842.0</ele>
        <time>2019-10-12T15:47:52.919Z</time>
      </trkpt>
      <trkpt lat="20.25803167" lon="-98.73465">
        <ele>1842.0</ele>
        <time>2019-10-12T15:47:53.919Z</time>
      </trkpt>
      <trkpt lat="20.25801667" lon="-98.73465833">
        <ele>1842.0</ele>
        <time>2019-10-12T15:47:54.919Z</time>
      </trkpt>
      <trkpt lat="20.25800333" lon="-98.734665">
        <ele>1843.0</ele>
        <time>2019-10-12T15:47:55.920Z</time>
      </trkpt>
      <trkpt lat="20.25799333" lon="-98.73467">
        <ele>1842.0</ele>
        <time>2019-10-12T15:47:56.920Z</time>
      </trkpt>
      <trkpt lat="20.25798167" lon="-98.73467667">
        <ele>1843.0</ele>
        <time>2019-10-12T15:47:57.920Z</time>
      </trkpt>
      <trkpt lat="20.25797" lon="-98.73468167">
        <ele>1842.0</ele>
        <time>2019-10-12T15:47:58.920Z</time>
      </trkpt>
      <trkpt lat="20.25795833" lon="-98.73468833">
        <ele>1842.0</ele>
        <time>2019-10-12T15:47:59.920Z</time>
      </trkpt>
      <trkpt lat="20.25794833" lon="-98.73469333">
        <ele>1842.0</ele>
        <time>2019-10-12T15:48:00.925Z</time>
      </trkpt>
      <trkpt lat="20.257935" lon="-98.73469667">
        <ele>1842.0</ele>
        <time>2019-10-12T15:48:01.932Z</time>
      </trkpt>
      <trkpt lat="20.25792167" lon="-98.73469833">
        <ele>1842.0</ele>
        <time>2019-10-12T15:48:02.937Z</time>
      </trkpt>
      <trkpt lat="20.25790667" lon="-98.73470333">
        <ele>1842.0</ele>
        <time>2019-10-12T15:48:03.941Z</time>
      </trkpt>
      <trkpt lat="20.25789333" lon="-98.73470833">
        <ele>1843.0</ele>
        <time>2019-10-12T15:48:04.945Z</time>
      </trkpt>
      <trkpt lat="20.25788" lon="-98.734715">
        <ele>1843.0</ele>
        <time>2019-10-12T15:48:05.952Z</time>
      </trkpt>
      <trkpt lat="20.25786667" lon="-98.734725">
        <ele>1843.0</ele>
        <time>2019-10-12T15:48:06.831Z</time>
      </trkpt>
      <trkpt lat="20.25785667" lon="-98.73473667">
        <ele>1844.0</ele>
        <time>2019-10-12T15:48:07.838Z</time>
      </trkpt>
      <trkpt lat="20.25784667" lon="-98.73475">
        <ele>1845.0</ele>
        <time>2019-10-12T15:48:08.844Z</time>
      </trkpt>
      <trkpt lat="20.25783833" lon="-98.734765">
        <ele>1845.0</ele>
        <time>2019-10-12T15:48:09.849Z</time>
      </trkpt>
      <trkpt lat="20.25783" lon="-98.73478">
        <ele>1846.0</ele>
        <time>2019-10-12T15:48:10.853Z</time>
      </trkpt>
      <trkpt lat="20.25782" lon="-98.734795">
        <ele>1846.0</ele>
        <time>2019-10-12T15:48:11.858Z</time>
      </trkpt>
      <trkpt lat="20.25781333" lon="-98.73481">
        <ele>1847.0</ele>
        <time>2019-10-12T15:48:12.861Z</time>
      </trkpt>
      <trkpt lat="20.25780667" lon="-98.734825">
        <ele>1847.0</ele>
        <time>2019-10-12T15:48:13.861Z</time>
      </trkpt>
      <trkpt lat="20.257805" lon="-98.73484">
        <ele>1848.0</ele>
        <time>2019-10-12T15:48:14.861Z</time>
      </trkpt>
      <trkpt lat="20.25780333" lon="-98.734855">
        <ele>1848.0</ele>
        <time>2019-10-12T15:48:15.861Z</time>
      </trkpt>
      <trkpt lat="20.25780167" lon="-98.73487">
        <ele>1848.0</ele>
        <time>2019-10-12T15:48:16.861Z</time>
      </trkpt>
      <trkpt lat="20.25780167" lon="-98.734885">
        <ele>1848.0</ele>
        <time>2019-10-12T15:48:17.862Z</time>
      </trkpt>
      <trkpt lat="20.25780333" lon="-98.73489667">
        <ele>1848.0</ele>
        <time>2019-10-12T15:48:18.865Z</time>
      </trkpt>
      <trkpt lat="20.25780333" lon="-98.73491333">
        <ele>1848.0</ele>
        <time>2019-10-12T15:48:19.873Z</time>
      </trkpt>
      <trkpt lat="20.257805" lon="-98.73492833">
        <ele>1848.0</ele>
        <time>2019-10-12T15:48:20.877Z</time>
      </trkpt>
      <trkpt lat="20.257805" lon="-98.73494167">
        <ele>1848.0</ele>
        <time>2019-10-12T15:48:21.883Z</time>
      </trkpt>
      <trkpt lat="20.25780333" lon="-98.73495833">
        <ele>1848.0</ele>
        <time>2019-10-12T15:48:22.885Z</time>
      </trkpt>
      <trkpt lat="20.25779833" lon="-98.73497333">
        <ele>1849.0</ele>
        <time>2019-10-12T15:48:23.890Z</time>
      </trkpt>
      <trkpt lat="20.25779333" lon="-98.73498667">
        <ele>1849.0</ele>
        <time>2019-10-12T15:48:24.892Z</time>
      </trkpt>
      <trkpt lat="20.25778833" lon="-98.73500167">
        <ele>1849.0</ele>
        <time>2019-10-12T15:48:25.899Z</time>
      </trkpt>
      <trkpt lat="20.257785" lon="-98.73501833">
        <ele>1849.0</ele>
        <time>2019-10-12T15:48:26.906Z</time>
      </trkpt>
      <trkpt lat="20.25777833" lon="-98.73503333">
        <ele>1850.0</ele>
        <time>2019-10-12T15:48:27.911Z</time>
      </trkpt>
      <trkpt lat="20.257775" lon="-98.73505167">
        <ele>1850.0</ele>
        <time>2019-10-12T15:48:28.914Z</time>
      </trkpt>
      <trkpt lat="20.25777167" lon="-98.73507">
        <ele>1850.0</ele>
        <time>2019-10-12T15:48:29.920Z</time>
      </trkpt>
      <trkpt lat="20.25777" lon="-98.73508833">
        <ele>1850.0</ele>
        <time>2019-10-12T15:48:30.926Z</time>
      </trkpt>
      <trkpt lat="20.25776833" lon="-98.73510667">
        <ele>1851.0</ele>
        <time>2019-10-12T15:48:31.928Z</time>
      </trkpt>
      <trkpt lat="20.25776333" lon="-98.735125">
        <ele>1851.0</ele>
        <time>2019-10-12T15:48:32.928Z</time>
      </trkpt>
      <trkpt lat="20.25776167" lon="-98.735145">
        <ele>1851.0</ele>
        <time>2019-10-12T15:48:33.928Z</time>
      </trkpt>
      <trkpt lat="20.25776167" lon="-98.735165">
        <ele>1851.0</ele>
        <time>2019-10-12T15:48:34.928Z</time>
      </trkpt>
      <trkpt lat="20.25776" lon="-98.73518333">
        <ele>1852.0</ele>
        <time>2019-10-12T15:48:35.933Z</time>
      </trkpt>
      <trkpt lat="20.25775667" lon="-98.73520333">
        <ele>1852.0</ele>
        <time>2019-10-12T15:48:36.941Z</time>
      </trkpt>
      <trkpt lat="20.257755" lon="-98.73522">
        <ele>1852.0</ele>
        <time>2019-10-12T15:48:37.944Z</time>
      </trkpt>
      <trkpt lat="20.25775167" lon="-98.73524167">
        <ele>1852.0</ele>
        <time>2019-10-12T15:48:38.944Z</time>
      </trkpt>
      <trkpt lat="20.25774667" lon="-98.735255">
        <ele>1852.0</ele>
        <time>2019-10-12T15:48:39.948Z</time>
      </trkpt>
      <trkpt lat="20.25774167" lon="-98.73527">
        <ele>1852.0</ele>
        <time>2019-10-12T15:48:40.953Z</time>
      </trkpt>
      <trkpt lat="20.25773667" lon="-98.735285">
        <ele>1851.0</ele>
        <time>2019-10-12T15:48:41.835Z</time>
      </trkpt>
      <trkpt lat="20.25773167" lon="-98.73530167">
        <ele>1851.0</ele>
        <time>2019-10-12T15:48:42.838Z</time>
      </trkpt>
      <trkpt lat="20.25772833" lon="-98.73531333">
        <ele>1850.0</ele>
        <time>2019-10-12T15:48:43.845Z</time>
      </trkpt>
      <trkpt lat="20.257725" lon="-98.73532833">
        <ele>1850.0</ele>
        <time>2019-10-12T15:48:44.850Z</time>
      </trkpt>
      <trkpt lat="20.25772" lon="-98.735345">
        <ele>1850.0</ele>
        <time>2019-10-12T15:48:45.858Z</time>
      </trkpt>
      <trkpt lat="20.257715" lon="-98.735365">
        <ele>1851.0</ele>
        <time>2019-10-12T15:48:46.862Z</time>
      </trkpt>
      <trkpt lat="20.25770833" lon="-98.73537833">
        <ele>1852.0</ele>
        <time>2019-10-12T15:48:47.868Z</time>
      </trkpt>
      <trkpt lat="20.25770333" lon="-98.735395">
        <ele>1852.0</ele>
        <time>2019-10-12T15:48:48.869Z</time>
      </trkpt>
      <trkpt lat="20.257695" lon="-98.73541">
        <ele>1852.0</ele>
        <time>2019-10-12T15:48:49.873Z</time>
      </trkpt>
      <trkpt lat="20.25768833" lon="-98.735425">
        <ele>1852.0</ele>
        <time>2019-10-12T15:48:50.879Z</time>
      </trkpt>
      <trkpt lat="20.25768" lon="-98.73543833">
        <ele>1852.0</ele>
        <time>2019-10-12T15:48:51.886Z</time>
      </trkpt>
      <trkpt lat="20.25767333" lon="-98.73545333">
        <ele>1852.0</ele>
        <time>2019-10-12T15:48:52.891Z</time>
      </trkpt>
      <trkpt lat="20.25766667" lon="-98.73546333">
        <ele>1852.0</ele>
        <time>2019-10-12T15:48:53.896Z</time>
      </trkpt>
      <trkpt lat="20.257655" lon="-98.735475">
        <ele>1852.0</ele>
        <time>2019-10-12T15:48:54.903Z</time>
      </trkpt>
      <trkpt lat="20.25764333" lon="-98.73548833">
        <ele>1852.0</ele>
        <time>2019-10-12T15:48:55.907Z</time>
      </trkpt>
      <trkpt lat="20.25763167" lon="-98.73550167">
        <ele>1852.0</ele>
        <time>2019-10-12T15:48:56.912Z</time>
      </trkpt>
      <trkpt lat="20.25762333" lon="-98.73551333">
        <ele>1852.0</ele>
        <time>2019-10-12T15:48:57.917Z</time>
      </trkpt>
      <trkpt lat="20.25761333" lon="-98.735525">
        <ele>1851.0</ele>
        <time>2019-10-12T15:48:58.923Z</time>
      </trkpt>
      <trkpt lat="20.25760667" lon="-98.73553833">
        <ele>1852.0</ele>
        <time>2019-10-12T15:48:59.929Z</time>
      </trkpt>
      <trkpt lat="20.25760167" lon="-98.73555333">
        <ele>1852.0</ele>
        <time>2019-10-12T15:49:00.934Z</time>
      </trkpt>
      <trkpt lat="20.25759333" lon="-98.73556667">
        <ele>1852.0</ele>
        <time>2019-10-12T15:49:01.934Z</time>
      </trkpt>
      <trkpt lat="20.25758833" lon="-98.73558167">
        <ele>1852.0</ele>
        <time>2019-10-12T15:49:02.935Z</time>
      </trkpt>
      <trkpt lat="20.25758667" lon="-98.73559667">
        <ele>1852.0</ele>
        <time>2019-10-12T15:49:03.935Z</time>
      </trkpt>
      <trkpt lat="20.25758333" lon="-98.73561333">
        <ele>1853.0</ele>
        <time>2019-10-12T15:49:04.935Z</time>
      </trkpt>
      <trkpt lat="20.25758167" lon="-98.73562833">
        <ele>1853.0</ele>
        <time>2019-10-12T15:49:05.935Z</time>
      </trkpt>
      <trkpt lat="20.25757667" lon="-98.73564333">
        <ele>1853.0</ele>
        <time>2019-10-12T15:49:06.936Z</time>
      </trkpt>
      <trkpt lat="20.25756833" lon="-98.73565667">
        <ele>1853.0</ele>
        <time>2019-10-12T15:49:07.936Z</time>
      </trkpt>
      <trkpt lat="20.25755833" lon="-98.73567">
        <ele>1854.0</ele>
        <time>2019-10-12T15:49:08.936Z</time>
      </trkpt>
      <trkpt lat="20.25754667" lon="-98.73568333">
        <ele>1855.0</ele>
        <time>2019-10-12T15:49:09.936Z</time>
      </trkpt>
      <trkpt lat="20.25753833" lon="-98.7357">
        <ele>1855.0</ele>
        <time>2019-10-12T15:49:10.939Z</time>
      </trkpt>
      <trkpt lat="20.25752833" lon="-98.73571333">
        <ele>1854.0</ele>
        <time>2019-10-12T15:49:11.945Z</time>
      </trkpt>
      <trkpt lat="20.25752" lon="-98.73573">
        <ele>1854.0</ele>
        <time>2019-10-12T15:49:12.950Z</time>
      </trkpt>
      <trkpt lat="20.25750833" lon="-98.73574333">
        <ele>1854.0</ele>
        <time>2019-10-12T15:49:13.830Z</time>
      </trkpt>
      <trkpt lat="20.25749833" lon="-98.73575833">
        <ele>1854.0</ele>
        <time>2019-10-12T15:49:14.837Z</time>
      </trkpt>
      <trkpt lat="20.25748833" lon="-98.73577333">
        <ele>1854.0</ele>
        <time>2019-10-12T15:49:15.842Z</time>
      </trkpt>
      <trkpt lat="20.25748167" lon="-98.73579">
        <ele>1854.0</ele>
        <time>2019-10-12T15:49:16.849Z</time>
      </trkpt>
      <trkpt lat="20.257475" lon="-98.73580833">
        <ele>1855.0</ele>
        <time>2019-10-12T15:49:17.850Z</time>
      </trkpt>
      <trkpt lat="20.25746667" lon="-98.73582833">
        <ele>1855.0</ele>
        <time>2019-10-12T15:49:18.856Z</time>
      </trkpt>
      <trkpt lat="20.25745667" lon="-98.735845">
        <ele>1855.0</ele>
        <time>2019-10-12T15:49:19.861Z</time>
      </trkpt>
      <trkpt lat="20.25745" lon="-98.73586167">
        <ele>1855.0</ele>
        <time>2019-10-12T15:49:20.865Z</time>
      </trkpt>
      <trkpt lat="20.25744167" lon="-98.73587667">
        <ele>1855.0</ele>
        <time>2019-10-12T15:49:21.866Z</time>
      </trkpt>
      <trkpt lat="20.257435" lon="-98.73589167">
        <ele>1855.0</ele>
        <time>2019-10-12T15:49:22.871Z</time>
      </trkpt>
      <trkpt lat="20.25742833" lon="-98.735905">
        <ele>1855.0</ele>
        <time>2019-10-12T15:49:23.876Z</time>
      </trkpt>
      <trkpt lat="20.25742" lon="-98.73592">
        <ele>1855.0</ele>
        <time>2019-10-12T15:49:24.881Z</time>
      </trkpt>
      <trkpt lat="20.25741" lon="-98.73593">
        <ele>1855.0</ele>
        <time>2019-10-12T15:49:25.887Z</time>
      </trkpt>
      <trkpt lat="20.2574" lon="-98.73594">
        <ele>1856.0</ele>
        <time>2019-10-12T15:49:26.894Z</time>
      </trkpt>
      <trkpt lat="20.25739" lon="-98.73595">
        <ele>1856.0</ele>
        <time>2019-10-12T15:49:27.899Z</time>
      </trkpt>
      <trkpt lat="20.25738167" lon="-98.73596167">
        <ele>1857.0</ele>
        <time>2019-10-12T15:49:28.900Z</time>
      </trkpt>
      <trkpt lat="20.25737167" lon="-98.73597167">
        <ele>1857.0</ele>
        <time>2019-10-12T15:49:29.908Z</time>
      </trkpt>
      <trkpt lat="20.25736333" lon="-98.73598333">
        <ele>1858.0</ele>
        <time>2019-10-12T15:49:30.916Z</time>
      </trkpt>
      <trkpt lat="20.25735333" lon="-98.73599667">
        <ele>1858.0</ele>
        <time>2019-10-12T15:49:31.917Z</time>
      </trkpt>
      <trkpt lat="20.25734667" lon="-98.73601167">
        <ele>1859.0</ele>
        <time>2019-10-12T15:49:32.919Z</time>
      </trkpt>
      <trkpt lat="20.25733833" lon="-98.73602333">
        <ele>1859.0</ele>
        <time>2019-10-12T15:49:33.920Z</time>
      </trkpt>
      <trkpt lat="20.25732833" lon="-98.73603333">
        <ele>1859.0</ele>
        <time>2019-10-12T15:49:34.920Z</time>
      </trkpt>
      <trkpt lat="20.25732" lon="-98.73604667">
        <ele>1859.0</ele>
        <time>2019-10-12T15:49:35.923Z</time>
      </trkpt>
      <trkpt lat="20.25731333" lon="-98.73605833">
        <ele>1859.0</ele>
        <time>2019-10-12T15:49:36.928Z</time>
      </trkpt>
      <trkpt lat="20.257305" lon="-98.73606833">
        <ele>1859.0</ele>
        <time>2019-10-12T15:49:37.935Z</time>
      </trkpt>
      <trkpt lat="20.25729667" lon="-98.73607833">
        <ele>1858.0</ele>
        <time>2019-10-12T15:49:38.939Z</time>
      </trkpt>
      <trkpt lat="20.25729" lon="-98.73609">
        <ele>1858.0</ele>
        <time>2019-10-12T15:49:39.942Z</time>
      </trkpt>
      <trkpt lat="20.25728167" lon="-98.7361">
        <ele>1858.0</ele>
        <time>2019-10-12T15:49:40.943Z</time>
      </trkpt>
      <trkpt lat="20.25727167" lon="-98.736115">
        <ele>1858.0</ele>
        <time>2019-10-12T15:49:41.943Z</time>
      </trkpt>
      <trkpt lat="20.25726333" lon="-98.73612667">
        <ele>1859.0</ele>
        <time>2019-10-12T15:49:42.944Z</time>
      </trkpt>
      <trkpt lat="20.25725333" lon="-98.73614333">
        <ele>1859.0</ele>
        <time>2019-10-12T15:49:43.944Z</time>
      </trkpt>
      <trkpt lat="20.257245" lon="-98.73615667">
        <ele>1859.0</ele>
        <time>2019-10-12T15:49:44.945Z</time>
      </trkpt>
      <trkpt lat="20.257235" lon="-98.73617">
        <ele>1860.0</ele>
        <time>2019-10-12T15:49:45.948Z</time>
      </trkpt>
      <trkpt lat="20.25722667" lon="-98.73618333">
        <ele>1859.0</ele>
        <time>2019-10-12T15:49:46.955Z</time>
      </trkpt>
      <trkpt lat="20.25722" lon="-98.73619667">
        <ele>1859.0</ele>
        <time>2019-10-12T15:49:47.836Z</time>
      </trkpt>
      <trkpt lat="20.25721167" lon="-98.73621">
        <ele>1858.0</ele>
        <time>2019-10-12T15:49:48.839Z</time>
      </trkpt>
      <trkpt lat="20.25720333" lon="-98.73622">
        <ele>1858.0</ele>
        <time>2019-10-12T15:49:49.841Z</time>
      </trkpt>
      <trkpt lat="20.257195" lon="-98.73623167">
        <ele>1858.0</ele>
        <time>2019-10-12T15:49:50.845Z</time>
      </trkpt>
      <trkpt lat="20.25718833" lon="-98.736245">
        <ele>1858.0</ele>
        <time>2019-10-12T15:49:51.852Z</time>
      </trkpt>
      <trkpt lat="20.25718167" lon="-98.73625833">
        <ele>1858.0</ele>
        <time>2019-10-12T15:49:52.855Z</time>
      </trkpt>
      <trkpt lat="20.25717333" lon="-98.73626833">
        <ele>1858.0</ele>
        <time>2019-10-12T15:49:53.861Z</time>
      </trkpt>
      <trkpt lat="20.257165" lon="-98.73628">
        <ele>1858.0</ele>
        <time>2019-10-12T15:49:54.866Z</time>
      </trkpt>
      <trkpt lat="20.25715667" lon="-98.736295">
        <ele>1858.0</ele>
        <time>2019-10-12T15:49:55.874Z</time>
      </trkpt>
      <trkpt lat="20.25714667" lon="-98.73630833">
        <ele>1859.0</ele>
        <time>2019-10-12T15:49:56.878Z</time>
      </trkpt>
      <trkpt lat="20.25713667" lon="-98.73632333">
        <ele>1859.0</ele>
        <time>2019-10-12T15:49:57.885Z</time>
      </trkpt>
      <trkpt lat="20.25712667" lon="-98.73633667">
        <ele>1859.0</ele>
        <time>2019-10-12T15:49:58.888Z</time>
      </trkpt>
      <trkpt lat="20.25711333" lon="-98.73634667">
        <ele>1860.0</ele>
        <time>2019-10-12T15:49:59.888Z</time>
      </trkpt>
      <trkpt lat="20.2571" lon="-98.736355">
        <ele>1860.0</ele>
        <time>2019-10-12T15:50:00.888Z</time>
      </trkpt>
      <trkpt lat="20.257085" lon="-98.73636333">
        <ele>1860.0</ele>
        <time>2019-10-12T15:50:01.888Z</time>
      </trkpt>
      <trkpt lat="20.25707" lon="-98.73637167">
        <ele>1860.0</ele>
        <time>2019-10-12T15:50:02.888Z</time>
      </trkpt>
      <trkpt lat="20.257055" lon="-98.73638333">
        <ele>1860.0</ele>
        <time>2019-10-12T15:50:03.889Z</time>
      </trkpt>
      <trkpt lat="20.25704333" lon="-98.73639667">
        <ele>1860.0</ele>
        <time>2019-10-12T15:50:04.897Z</time>
      </trkpt>
      <trkpt lat="20.25703333" lon="-98.73641167">
        <ele>1861.0</ele>
        <time>2019-10-12T15:50:05.903Z</time>
      </trkpt>
      <trkpt lat="20.25702333" lon="-98.73642333">
        <ele>1861.0</ele>
        <time>2019-10-12T15:50:06.908Z</time>
      </trkpt>
      <trkpt lat="20.25701167" lon="-98.73643333">
        <ele>1861.0</ele>
        <time>2019-10-12T15:50:07.910Z</time>
      </trkpt>
      <trkpt lat="20.257" lon="-98.73644333">
        <ele>1862.0</ele>
        <time>2019-10-12T15:50:08.913Z</time>
      </trkpt>
      <trkpt lat="20.25699" lon="-98.73645667">
        <ele>1862.0</ele>
        <time>2019-10-12T15:50:09.919Z</time>
      </trkpt>
      <trkpt lat="20.25697667" lon="-98.736465">
        <ele>1863.0</ele>
        <time>2019-10-12T15:50:10.921Z</time>
      </trkpt>
      <trkpt lat="20.25696667" lon="-98.736475">
        <ele>1864.0</ele>
        <time>2019-10-12T15:50:11.925Z</time>
      </trkpt>
      <trkpt lat="20.256955" lon="-98.73649">
        <ele>1865.0</ele>
        <time>2019-10-12T15:50:12.930Z</time>
      </trkpt>
      <trkpt lat="20.25694667" lon="-98.73649833">
        <ele>1865.0</ele>
        <time>2019-10-12T15:50:13.936Z</time>
      </trkpt>
      <trkpt lat="20.25693333" lon="-98.73651">
        <ele>1866.0</ele>
        <time>2019-10-12T15:50:14.941Z</time>
      </trkpt>
      <trkpt lat="20.25692" lon="-98.73651833">
        <ele>1866.0</ele>
        <time>2019-10-12T15:50:15.946Z</time>
      </trkpt>
      <trkpt lat="20.256905" lon="-98.73652167">
        <ele>1868.0</ele>
        <time>2019-10-12T15:50:16.952Z</time>
      </trkpt>
      <trkpt lat="20.25689" lon="-98.73652">
        <ele>1869.0</ele>
        <time>2019-10-12T15:50:17.954Z</time>
      </trkpt>
      <trkpt lat="20.25687667" lon="-98.73651333">
        <ele>1870.0</ele>
        <time>2019-10-12T15:50:18.954Z</time>
      </trkpt>
      <trkpt lat="20.25686333" lon="-98.73650167">
        <ele>1870.0</ele>
        <time>2019-10-12T15:50:19.954Z</time>
      </trkpt>
      <trkpt lat="20.25685" lon="-98.73648833">
        <ele>1871.0</ele>
        <time>2019-10-12T15:50:20.830Z</time>
      </trkpt>
      <trkpt lat="20.256835" lon="-98.73647167">
        <ele>1871.0</ele>
        <time>2019-10-12T15:50:21.833Z</time>
      </trkpt>
      <trkpt lat="20.25682167" lon="-98.73645833">
        <ele>1871.0</ele>
        <time>2019-10-12T15:50:22.840Z</time>
      </trkpt>
      <trkpt lat="20.25680667" lon="-98.73644333">
        <ele>1872.0</ele>
        <time>2019-10-12T15:50:23.846Z</time>
      </trkpt>
      <trkpt lat="20.25679167" lon="-98.73642833">
        <ele>1872.0</ele>
        <time>2019-10-12T15:50:24.853Z</time>
      </trkpt>
      <trkpt lat="20.25677333" lon="-98.73641833">
        <ele>1873.0</ele>
        <time>2019-10-12T15:50:25.859Z</time>
      </trkpt>
      <trkpt lat="20.25675667" lon="-98.736405">
        <ele>1874.0</ele>
        <time>2019-10-12T15:50:26.864Z</time>
      </trkpt>
      <trkpt lat="20.25674" lon="-98.736395">
        <ele>1875.0</ele>
        <time>2019-10-12T15:50:27.870Z</time>
      </trkpt>
      <trkpt lat="20.25672167" lon="-98.73638333">
        <ele>1876.0</ele>
        <time>2019-10-12T15:50:28.871Z</time>
      </trkpt>
      <trkpt lat="20.25670667" lon="-98.73637167">
        <ele>1877.0</ele>
        <time>2019-10-12T15:50:29.879Z</time>
      </trkpt>
      <trkpt lat="20.25669" lon="-98.73636">
        <ele>1877.0</ele>
        <time>2019-10-12T15:50:30.887Z</time>
      </trkpt>
      <trkpt lat="20.25667167" lon="-98.73634833">
        <ele>1878.0</ele>
        <time>2019-10-12T15:50:31.890Z</time>
      </trkpt>
      <trkpt lat="20.25665667" lon="-98.73633667">
        <ele>1878.0</ele>
        <time>2019-10-12T15:50:32.896Z</time>
      </trkpt>
      <trkpt lat="20.25665333" lon="-98.73632">
        <ele>1879.0</ele>
        <time>2019-10-12T15:50:33.898Z</time>
      </trkpt>
      <trkpt lat="20.256655" lon="-98.73630333">
        <ele>1879.0</ele>
        <time>2019-10-12T15:50:34.898Z</time>
      </trkpt>
      <trkpt lat="20.25665667" lon="-98.73628667">
        <ele>1880.0</ele>
        <time>2019-10-12T15:50:35.899Z</time>
      </trkpt>
      <trkpt lat="20.256665" lon="-98.73627">
        <ele>1880.0</ele>
        <time>2019-10-12T15:50:36.899Z</time>
      </trkpt>
      <trkpt lat="20.256675" lon="-98.73625667">
        <ele>1880.0</ele>
        <time>2019-10-12T15:50:37.900Z</time>
      </trkpt>
      <trkpt lat="20.25668833" lon="-98.736245">
        <ele>1880.0</ele>
        <time>2019-10-12T15:50:38.901Z</time>
      </trkpt>
      <trkpt lat="20.25670333" lon="-98.73623667">
        <ele>1881.0</ele>
        <time>2019-10-12T15:50:39.901Z</time>
      </trkpt>
      <trkpt lat="20.25671833" lon="-98.73623167">
        <ele>1882.0</ele>
        <time>2019-10-12T15:50:40.902Z</time>
      </trkpt>
      <trkpt lat="20.256735" lon="-98.73623167">
        <ele>1883.0</ele>
        <time>2019-10-12T15:50:41.903Z</time>
      </trkpt>
      <trkpt lat="20.25675667" lon="-98.73622833">
        <ele>1884.0</ele>
        <time>2019-10-12T15:50:42.904Z</time>
      </trkpt>
      <trkpt lat="20.256775" lon="-98.73622167">
        <ele>1884.0</ele>
        <time>2019-10-12T15:50:43.905Z</time>
      </trkpt>
      <trkpt lat="20.25679167" lon="-98.73620833">
        <ele>1885.0</ele>
        <time>2019-10-12T15:50:44.906Z</time>
      </trkpt>
      <trkpt lat="20.25681" lon="-98.73619833">
        <ele>1885.0</ele>
        <time>2019-10-12T15:50:45.906Z</time>
      </trkpt>
      <trkpt lat="20.25682333" lon="-98.73618667">
        <ele>1884.0</ele>
        <time>2019-10-12T15:50:46.907Z</time>
      </trkpt>
      <trkpt lat="20.25683833" lon="-98.73617167">
        <ele>1883.0</ele>
        <time>2019-10-12T15:50:47.908Z</time>
      </trkpt>
      <trkpt lat="20.25686" lon="-98.73615833">
        <ele>1883.0</ele>
        <time>2019-10-12T15:50:48.913Z</time>
      </trkpt>
      <trkpt lat="20.25688333" lon="-98.736145">
        <ele>1883.0</ele>
        <time>2019-10-12T15:50:49.921Z</time>
      </trkpt>
      <trkpt lat="20.25690833" lon="-98.73613667">
        <ele>1882.0</ele>
        <time>2019-10-12T15:50:50.927Z</time>
      </trkpt>
      <trkpt lat="20.25693333" lon="-98.73612667">
        <ele>1881.0</ele>
        <time>2019-10-12T15:50:51.932Z</time>
      </trkpt>
      <trkpt lat="20.25695167" lon="-98.73611">
        <ele>1881.0</ele>
        <time>2019-10-12T15:50:52.933Z</time>
      </trkpt>
      <trkpt lat="20.256965" lon="-98.736095">
        <ele>1881.0</ele>
        <time>2019-10-12T15:50:53.934Z</time>
      </trkpt>
      <trkpt lat="20.25697" lon="-98.73607667">
        <ele>1882.0</ele>
        <time>2019-10-12T15:50:54.934Z</time>
      </trkpt>
      <trkpt lat="20.25697167" lon="-98.736055">
        <ele>1883.0</ele>
        <time>2019-10-12T15:50:55.935Z</time>
      </trkpt>
      <trkpt lat="20.25698" lon="-98.73604">
        <ele>1882.0</ele>
        <time>2019-10-12T15:50:56.936Z</time>
      </trkpt>
      <trkpt lat="20.25698333" lon="-98.736025">
        <ele>1883.0</ele>
        <time>2019-10-12T15:50:57.937Z</time>
      </trkpt>
      <trkpt lat="20.256985" lon="-98.73600833">
        <ele>1883.0</ele>
        <time>2019-10-12T15:50:58.940Z</time>
      </trkpt>
      <trkpt lat="20.256995" lon="-98.73599">
        <ele>1883.0</ele>
        <time>2019-10-12T15:50:59.945Z</time>
      </trkpt>
      <trkpt lat="20.25700333" lon="-98.73597333">
        <ele>1883.0</ele>
        <time>2019-10-12T15:51:00.953Z</time>
      </trkpt>
      <trkpt lat="20.25701167" lon="-98.73595667">
        <ele>1884.0</ele>
        <time>2019-10-12T15:51:01.833Z</time>
      </trkpt>
      <trkpt lat="20.25702" lon="-98.73594167">
        <ele>1885.0</ele>
        <time>2019-10-12T15:51:02.839Z</time>
      </trkpt>
      <trkpt lat="20.25702667" lon="-98.73592333">
        <ele>1885.0</ele>
        <time>2019-10-12T15:51:03.842Z</time>
      </trkpt>
      <trkpt lat="20.25703167" lon="-98.73590667">
        <ele>1886.0</ele>
        <time>2019-10-12T15:51:04.847Z</time>
      </trkpt>
      <trkpt lat="20.25703167" lon="-98.735895">
        <ele>1887.0</ele>
        <time>2019-10-12T15:51:05.855Z</time>
      </trkpt>
      <trkpt lat="20.25702667" lon="-98.735875">
        <ele>1888.0</ele>
        <time>2019-10-12T15:51:06.859Z</time>
      </trkpt>
      <trkpt lat="20.25702333" lon="-98.73585667">
        <ele>1889.0</ele>
        <time>2019-10-12T15:51:07.860Z</time>
      </trkpt>
      <trkpt lat="20.25702167" lon="-98.73584167">
        <ele>1889.0</ele>
        <time>2019-10-12T15:51:08.861Z</time>
      </trkpt>
      <trkpt lat="20.25701667" lon="-98.73582833">
        <ele>1889.0</ele>
        <time>2019-10-12T15:51:09.862Z</time>
      </trkpt>
      <trkpt lat="20.25701" lon="-98.73581333">
        <ele>1890.0</ele>
        <time>2019-10-12T15:51:10.862Z</time>
      </trkpt>
      <trkpt lat="20.25700333" lon="-98.73579833">
        <ele>1890.0</ele>
        <time>2019-10-12T15:51:11.863Z</time>
      </trkpt>
      <trkpt lat="20.25699167" lon="-98.73578667">
        <ele>1890.0</ele>
        <time>2019-10-12T15:51:12.864Z</time>
      </trkpt>
      <trkpt lat="20.25698" lon="-98.73577833">
        <ele>1890.0</ele>
        <time>2019-10-12T15:51:13.865Z</time>
      </trkpt>
      <trkpt lat="20.25696667" lon="-98.73577">
        <ele>1890.0</ele>
        <time>2019-10-12T15:51:14.866Z</time>
      </trkpt>
      <trkpt lat="20.25695333" lon="-98.735765">
        <ele>1890.0</ele>
        <time>2019-10-12T15:51:15.866Z</time>
      </trkpt>
      <trkpt lat="20.25693833" lon="-98.73576167">
        <ele>1890.0</ele>
        <time>2019-10-12T15:51:16.867Z</time>
      </trkpt>
      <trkpt lat="20.25692333" lon="-98.73575833">
        <ele>1890.0</ele>
        <time>2019-10-12T15:51:17.868Z</time>
      </trkpt>
      <trkpt lat="20.25690833" lon="-98.73575667">
        <ele>1890.0</ele>
        <time>2019-10-12T15:51:18.869Z</time>
      </trkpt>
      <trkpt lat="20.256895" lon="-98.73575667">
        <ele>1889.0</ele>
        <time>2019-10-12T15:51:19.870Z</time>
      </trkpt>
      <trkpt lat="20.25688" lon="-98.73576">
        <ele>1889.0</ele>
        <time>2019-10-12T15:51:20.871Z</time>
      </trkpt>
      <trkpt lat="20.256865" lon="-98.73576333">
        <ele>1889.0</ele>
        <time>2019-10-12T15:51:21.871Z</time>
      </trkpt>
      <trkpt lat="20.25685" lon="-98.73576667">
        <ele>1889.0</ele>
        <time>2019-10-12T15:51:22.872Z</time>
      </trkpt>
      <trkpt lat="20.25683667" lon="-98.73576833">
        <ele>1889.0</ele>
        <time>2019-10-12T15:51:23.873Z</time>
      </trkpt>
      <trkpt lat="20.25682167" lon="-98.73577">
        <ele>1888.0</ele>
        <time>2019-10-12T15:51:24.874Z</time>
      </trkpt>
      <trkpt lat="20.25680833" lon="-98.73577167">
        <ele>1888.0</ele>
        <time>2019-10-12T15:51:25.875Z</time>
      </trkpt>
      <trkpt lat="20.256795" lon="-98.735775">
        <ele>1888.0</ele>
        <time>2019-10-12T15:51:26.875Z</time>
      </trkpt>
      <trkpt lat="20.25678167" lon="-98.73577667">
        <ele>1888.0</ele>
        <time>2019-10-12T15:51:27.876Z</time>
      </trkpt>
      <trkpt lat="20.25676833" lon="-98.73578167">
        <ele>1888.0</ele>
        <time>2019-10-12T15:51:28.877Z</time>
      </trkpt>
      <trkpt lat="20.256755" lon="-98.73578833">
        <ele>1889.0</ele>
        <time>2019-10-12T15:51:29.877Z</time>
      </trkpt>
      <trkpt lat="20.25674167" lon="-98.73579333">
        <ele>1889.0</ele>
        <time>2019-10-12T15:51:30.879Z</time>
      </trkpt>
      <trkpt lat="20.25672667" lon="-98.73579667">
        <ele>1889.0</ele>
        <time>2019-10-12T15:51:31.879Z</time>
      </trkpt>
      <trkpt lat="20.25671333" lon="-98.73580333">
        <ele>1889.0</ele>
        <time>2019-10-12T15:51:32.888Z</time>
      </trkpt>
      <trkpt lat="20.25670167" lon="-98.73581">
        <ele>1889.0</ele>
        <time>2019-10-12T15:51:33.895Z</time>
      </trkpt>
      <trkpt lat="20.25668833" lon="-98.735815">
        <ele>1889.0</ele>
        <time>2019-10-12T15:51:34.896Z</time>
      </trkpt>
      <trkpt lat="20.25667333" lon="-98.73582333">
        <ele>1889.0</ele>
        <time>2019-10-12T15:51:35.903Z</time>
      </trkpt>
      <trkpt lat="20.25665833" lon="-98.73582833">
        <ele>1888.0</ele>
        <time>2019-10-12T15:51:36.906Z</time>
      </trkpt>
      <trkpt lat="20.25664667" lon="-98.73583667">
        <ele>1887.0</ele>
        <time>2019-10-12T15:51:37.914Z</time>
      </trkpt>
      <trkpt lat="20.25663667" lon="-98.735845">
        <ele>1887.0</ele>
        <time>2019-10-12T15:51:38.918Z</time>
      </trkpt>
      <trkpt lat="20.256625" lon="-98.73585333">
        <ele>1886.0</ele>
        <time>2019-10-12T15:51:39.923Z</time>
      </trkpt>
      <trkpt lat="20.25661167" lon="-98.73585833">
        <ele>1886.0</ele>
        <time>2019-10-12T15:51:40.931Z</time>
      </trkpt>
      <trkpt lat="20.2566" lon="-98.735865">
        <ele>1886.0</ele>
        <time>2019-10-12T15:51:41.932Z</time>
      </trkpt>
      <trkpt lat="20.25659" lon="-98.73587333">
        <ele>1886.0</ele>
        <time>2019-10-12T15:51:42.940Z</time>
      </trkpt>
      <trkpt lat="20.25657667" lon="-98.73588">
        <ele>1887.0</ele>
        <time>2019-10-12T15:51:43.947Z</time>
      </trkpt>
      <trkpt lat="20.256565" lon="-98.73588667">
        <ele>1887.0</ele>
        <time>2019-10-12T15:51:44.951Z</time>
      </trkpt>
      <trkpt lat="20.25655333" lon="-98.73589167">
        <ele>1888.0</ele>
        <time>2019-10-12T15:51:45.953Z</time>
      </trkpt>
      <trkpt lat="20.25654167" lon="-98.735895">
        <ele>1888.0</ele>
        <time>2019-10-12T15:51:46.954Z</time>
      </trkpt>
      <trkpt lat="20.25653167" lon="-98.7359">
        <ele>1888.0</ele>
        <time>2019-10-12T15:51:47.830Z</time>
      </trkpt>
      <trkpt lat="20.25652" lon="-98.73590333">
        <ele>1889.0</ele>
        <time>2019-10-12T15:51:48.835Z</time>
      </trkpt>
      <trkpt lat="20.25651" lon="-98.73590833">
        <ele>1889.0</ele>
        <time>2019-10-12T15:51:49.842Z</time>
      </trkpt>
      <trkpt lat="20.25650167" lon="-98.73591167">
        <ele>1889.0</ele>
        <time>2019-10-12T15:51:50.848Z</time>
      </trkpt>
      <trkpt lat="20.25649167" lon="-98.73591667">
        <ele>1889.0</ele>
        <time>2019-10-12T15:51:51.854Z</time>
      </trkpt>
      <trkpt lat="20.25648167" lon="-98.73592">
        <ele>1890.0</ele>
        <time>2019-10-12T15:51:52.855Z</time>
      </trkpt>
      <trkpt lat="20.25647333" lon="-98.73592333">
        <ele>1890.0</ele>
        <time>2019-10-12T15:51:53.856Z</time>
      </trkpt>
      <trkpt lat="20.25646333" lon="-98.73592667">
        <ele>1890.0</ele>
        <time>2019-10-12T15:51:54.857Z</time>
      </trkpt>
      <trkpt lat="20.25645333" lon="-98.73592833">
        <ele>1891.0</ele>
        <time>2019-10-12T15:51:55.858Z</time>
      </trkpt>
      <trkpt lat="20.25644333" lon="-98.73592667">
        <ele>1891.0</ele>
        <time>2019-10-12T15:51:56.859Z</time>
      </trkpt>
      <trkpt lat="20.25643333" lon="-98.73592667">
        <ele>1891.0</ele>
        <time>2019-10-12T15:51:57.865Z</time>
      </trkpt>
      <trkpt lat="20.25642167" lon="-98.735925">
        <ele>1892.0</ele>
        <time>2019-10-12T15:51:58.873Z</time>
      </trkpt>
      <trkpt lat="20.25640833" lon="-98.735925">
        <ele>1892.0</ele>
        <time>2019-10-12T15:51:59.881Z</time>
      </trkpt>
      <trkpt lat="20.256395" lon="-98.73592833">
        <ele>1893.0</ele>
        <time>2019-10-12T15:52:00.884Z</time>
      </trkpt>
      <trkpt lat="20.25638167" lon="-98.73593">
        <ele>1894.0</ele>
        <time>2019-10-12T15:52:01.888Z</time>
      </trkpt>
      <trkpt lat="20.25637" lon="-98.73593167">
        <ele>1895.0</ele>
        <time>2019-10-12T15:52:02.890Z</time>
      </trkpt>
      <trkpt lat="20.25635833" lon="-98.73593167">
        <ele>1895.0</ele>
        <time>2019-10-12T15:52:03.895Z</time>
      </trkpt>
      <trkpt lat="20.25634833" lon="-98.73593167">
        <ele>1895.0</ele>
        <time>2019-10-12T15:52:04.899Z</time>
      </trkpt>
      <trkpt lat="20.25633833" lon="-98.73593167">
        <ele>1894.0</ele>
        <time>2019-10-12T15:52:05.906Z</time>
      </trkpt>
      <trkpt lat="20.25632667" lon="-98.73593167">
        <ele>1894.0</ele>
        <time>2019-10-12T15:52:06.907Z</time>
      </trkpt>
      <trkpt lat="20.256315" lon="-98.73592833">
        <ele>1894.0</ele>
        <time>2019-10-12T15:52:07.908Z</time>
      </trkpt>
      <trkpt lat="20.256305" lon="-98.735925">
        <ele>1894.0</ele>
        <time>2019-10-12T15:52:08.909Z</time>
      </trkpt>
      <trkpt lat="20.25629333" lon="-98.73592333">
        <ele>1894.0</ele>
        <time>2019-10-12T15:52:09.909Z</time>
      </trkpt>
      <trkpt lat="20.25628167" lon="-98.73592167">
        <ele>1894.0</ele>
        <time>2019-10-12T15:52:10.910Z</time>
      </trkpt>
      <trkpt lat="20.25626833" lon="-98.73592167">
        <ele>1894.0</ele>
        <time>2019-10-12T15:52:11.911Z</time>
      </trkpt>
      <trkpt lat="20.25625667" lon="-98.73592">
        <ele>1894.0</ele>
        <time>2019-10-12T15:52:12.912Z</time>
      </trkpt>
      <trkpt lat="20.25624333" lon="-98.73592333">
        <ele>1894.0</ele>
        <time>2019-10-12T15:52:13.913Z</time>
      </trkpt>
      <trkpt lat="20.25623167" lon="-98.735925">
        <ele>1894.0</ele>
        <time>2019-10-12T15:52:14.913Z</time>
      </trkpt>
      <trkpt lat="20.25622167" lon="-98.73592667">
        <ele>1894.0</ele>
        <time>2019-10-12T15:52:15.914Z</time>
      </trkpt>
      <trkpt lat="20.25621" lon="-98.73593167">
        <ele>1894.0</ele>
        <time>2019-10-12T15:52:16.915Z</time>
      </trkpt>
      <trkpt lat="20.2562" lon="-98.73593667">
        <ele>1894.0</ele>
        <time>2019-10-12T15:52:17.919Z</time>
      </trkpt>
      <trkpt lat="20.25619" lon="-98.73594333">
        <ele>1895.0</ele>
        <time>2019-10-12T15:52:18.925Z</time>
      </trkpt>
      <trkpt lat="20.25617833" lon="-98.73595">
        <ele>1895.0</ele>
        <time>2019-10-12T15:52:19.927Z</time>
      </trkpt>
      <trkpt lat="20.25616667" lon="-98.73595667">
        <ele>1895.0</ele>
        <time>2019-10-12T15:52:20.932Z</time>
      </trkpt>
      <trkpt lat="20.256155" lon="-98.73596">
        <ele>1895.0</ele>
        <time>2019-10-12T15:52:21.938Z</time>
      </trkpt>
      <trkpt lat="20.25614167" lon="-98.73596333">
        <ele>1895.0</ele>
        <time>2019-10-12T15:52:22.941Z</time>
      </trkpt>
      <trkpt lat="20.25613167" lon="-98.73597167">
        <ele>1895.0</ele>
        <time>2019-10-12T15:52:23.944Z</time>
      </trkpt>
      <trkpt lat="20.25612167" lon="-98.73598167">
        <ele>1895.0</ele>
        <time>2019-10-12T15:52:24.950Z</time>
      </trkpt>
      <trkpt lat="20.256115" lon="-98.73599167">
        <ele>1895.0</ele>
        <time>2019-10-12T15:52:25.953Z</time>
      </trkpt>
      <trkpt lat="20.25610833" lon="-98.73600333">
        <ele>1895.0</ele>
        <time>2019-10-12T15:52:26.954Z</time>
      </trkpt>
      <trkpt lat="20.25610167" lon="-98.736015">
        <ele>1895.0</ele>
        <time>2019-10-12T15:52:27.835Z</time>
      </trkpt>
      <trkpt lat="20.256095" lon="-98.73602833">
        <ele>1896.0</ele>
        <time>2019-10-12T15:52:28.842Z</time>
      </trkpt>
      <trkpt lat="20.25608833" lon="-98.73604">
        <ele>1896.0</ele>
        <time>2019-10-12T15:52:29.848Z</time>
      </trkpt>
      <trkpt lat="20.25608333" lon="-98.73605333">
        <ele>1896.0</ele>
        <time>2019-10-12T15:52:30.853Z</time>
      </trkpt>
      <trkpt lat="20.25607833" lon="-98.73606667">
        <ele>1897.0</ele>
        <time>2019-10-12T15:52:31.858Z</time>
      </trkpt>
      <trkpt lat="20.25607333" lon="-98.73608">
        <ele>1897.0</ele>
        <time>2019-10-12T15:52:32.859Z</time>
      </trkpt>
      <trkpt lat="20.25607" lon="-98.73609333">
        <ele>1898.0</ele>
        <time>2019-10-12T15:52:33.866Z</time>
      </trkpt>
      <trkpt lat="20.25606667" lon="-98.73610833">
        <ele>1898.0</ele>
        <time>2019-10-12T15:52:34.869Z</time>
      </trkpt>
      <trkpt lat="20.25606167" lon="-98.73611833">
        <ele>1898.0</ele>
        <time>2019-10-12T15:52:35.872Z</time>
      </trkpt>
      <trkpt lat="20.256055" lon="-98.73613167">
        <ele>1898.0</ele>
        <time>2019-10-12T15:52:36.879Z</time>
      </trkpt>
      <trkpt lat="20.25605" lon="-98.736145">
        <ele>1898.0</ele>
        <time>2019-10-12T15:52:37.882Z</time>
      </trkpt>
      <trkpt lat="20.25604833" lon="-98.73616">
        <ele>1898.0</ele>
        <time>2019-10-12T15:52:38.883Z</time>
      </trkpt>
      <trkpt lat="20.25604167" lon="-98.73617667">
        <ele>1898.0</ele>
        <time>2019-10-12T15:52:39.887Z</time>
      </trkpt>
      <trkpt lat="20.25603833" lon="-98.73618667">
        <ele>1898.0</ele>
        <time>2019-10-12T15:52:40.889Z</time>
      </trkpt>
      <trkpt lat="20.25603333" lon="-98.73619833">
        <ele>1898.0</ele>
        <time>2019-10-12T15:52:41.890Z</time>
      </trkpt>
      <trkpt lat="20.25602667" lon="-98.73620667">
        <ele>1898.0</ele>
        <time>2019-10-12T15:52:42.890Z</time>
      </trkpt>
      <trkpt lat="20.25601667" lon="-98.736215">
        <ele>1898.0</ele>
        <time>2019-10-12T15:52:43.895Z</time>
      </trkpt>
      <trkpt lat="20.25600667" lon="-98.73622167">
        <ele>1898.0</ele>
        <time>2019-10-12T15:52:44.899Z</time>
      </trkpt>
      <trkpt lat="20.255995" lon="-98.73622833">
        <ele>1898.0</ele>
        <time>2019-10-12T15:52:45.905Z</time>
      </trkpt>
      <trkpt lat="20.25598667" lon="-98.73623833">
        <ele>1898.0</ele>
        <time>2019-10-12T15:52:46.913Z</time>
      </trkpt>
      <trkpt lat="20.255975" lon="-98.736245">
        <ele>1898.0</ele>
        <time>2019-10-12T15:52:47.918Z</time>
      </trkpt>
      <trkpt lat="20.25596333" lon="-98.73625">
        <ele>1899.0</ele>
        <time>2019-10-12T15:52:48.922Z</time>
      </trkpt>
      <trkpt lat="20.25595167" lon="-98.73625667">
        <ele>1899.0</ele>
        <time>2019-10-12T15:52:49.925Z</time>
      </trkpt>
      <trkpt lat="20.25593833" lon="-98.73626">
        <ele>1899.0</ele>
        <time>2019-10-12T15:52:50.932Z</time>
      </trkpt>
      <trkpt lat="20.255925" lon="-98.736265">
        <ele>1900.0</ele>
        <time>2019-10-12T15:52:51.939Z</time>
      </trkpt>
      <trkpt lat="20.25591167" lon="-98.73627">
        <ele>1900.0</ele>
        <time>2019-10-12T15:52:52.940Z</time>
      </trkpt>
      <trkpt lat="20.25589833" lon="-98.736275">
        <ele>1901.0</ele>
        <time>2019-10-12T15:52:53.941Z</time>
      </trkpt>
      <trkpt lat="20.255885" lon="-98.73627833">
        <ele>1902.0</ele>
        <time>2019-10-12T15:52:54.941Z</time>
      </trkpt>
      <trkpt lat="20.25587" lon="-98.73628167">
        <ele>1902.0</ele>
        <time>2019-10-12T15:52:55.941Z</time>
      </trkpt>
      <trkpt lat="20.25585667" lon="-98.73628667">
        <ele>1903.0</ele>
        <time>2019-10-12T15:52:56.943Z</time>
      </trkpt>
      <trkpt lat="20.255845" lon="-98.73629167">
        <ele>1903.0</ele>
        <time>2019-10-12T15:52:57.943Z</time>
      </trkpt>
      <trkpt lat="20.25583333" lon="-98.73629667">
        <ele>1903.0</ele>
        <time>2019-10-12T15:52:58.944Z</time>
      </trkpt>
      <trkpt lat="20.25582167" lon="-98.736305">
        <ele>1904.0</ele>
        <time>2019-10-12T15:52:59.945Z</time>
      </trkpt>
      <trkpt lat="20.25581" lon="-98.736315">
        <ele>1904.0</ele>
        <time>2019-10-12T15:53:00.946Z</time>
      </trkpt>
      <trkpt lat="20.2558" lon="-98.736325">
        <ele>1905.0</ele>
        <time>2019-10-12T15:53:01.947Z</time>
      </trkpt>
      <trkpt lat="20.25579167" lon="-98.73633833">
        <ele>1905.0</ele>
        <time>2019-10-12T15:53:02.947Z</time>
      </trkpt>
      <trkpt lat="20.25578" lon="-98.73635">
        <ele>1905.0</ele>
        <time>2019-10-12T15:53:03.948Z</time>
      </trkpt>
      <trkpt lat="20.25577167" lon="-98.73636167">
        <ele>1905.0</ele>
        <time>2019-10-12T15:53:04.949Z</time>
      </trkpt>
      <trkpt lat="20.255765" lon="-98.73637667">
        <ele>1906.0</ele>
        <time>2019-10-12T15:53:05.950Z</time>
      </trkpt>
      <trkpt lat="20.255765" lon="-98.73639167">
        <ele>1906.0</ele>
        <time>2019-10-12T15:53:06.951Z</time>
      </trkpt>
      <trkpt lat="20.25576667" lon="-98.73641">
        <ele>1906.0</ele>
        <time>2019-10-12T15:53:07.951Z</time>
      </trkpt>
      <trkpt lat="20.255775" lon="-98.73642333">
        <ele>1906.0</ele>
        <time>2019-10-12T15:53:08.952Z</time>
      </trkpt>
      <trkpt lat="20.25579" lon="-98.736435">
        <ele>1907.0</ele>
        <time>2019-10-12T15:53:09.953Z</time>
      </trkpt>
      <trkpt lat="20.25580667" lon="-98.73644167">
        <ele>1907.0</ele>
        <time>2019-10-12T15:53:10.954Z</time>
      </trkpt>
      <trkpt lat="20.25582333" lon="-98.736445">
        <ele>1907.0</ele>
        <time>2019-10-12T15:53:11.954Z</time>
      </trkpt>
      <trkpt lat="20.25584" lon="-98.736445">
        <ele>1907.0</ele>
        <time>2019-10-12T15:53:12.954Z</time>
      </trkpt>
      <trkpt lat="20.255855" lon="-98.73644333">
        <ele>1908.0</ele>
        <time>2019-10-12T15:53:13.954Z</time>
      </trkpt>
      <trkpt lat="20.25587" lon="-98.736435">
        <ele>1909.0</ele>
        <time>2019-10-12T15:53:14.830Z</time>
      </trkpt>
      <trkpt lat="20.255885" lon="-98.736425">
        <ele>1910.0</ele>
        <time>2019-10-12T15:53:15.834Z</time>
      </trkpt>
      <trkpt lat="20.25589833" lon="-98.73641333">
        <ele>1910.0</ele>
        <time>2019-10-12T15:53:16.837Z</time>
      </trkpt>
      <trkpt lat="20.25591" lon="-98.73640333">
        <ele>1910.0</ele>
        <time>2019-10-12T15:53:17.839Z</time>
      </trkpt>
      <trkpt lat="20.25592333" lon="-98.73639333">
        <ele>1909.0</ele>
        <time>2019-10-12T15:53:18.847Z</time>
      </trkpt>
      <trkpt lat="20.25593833" lon="-98.73638833">
        <ele>1908.0</ele>
        <time>2019-10-12T15:53:19.847Z</time>
      </trkpt>
      <trkpt lat="20.255955" lon="-98.73638333">
        <ele>1907.0</ele>
        <time>2019-10-12T15:53:20.854Z</time>
      </trkpt>
      <trkpt lat="20.25597" lon="-98.73637667">
        <ele>1907.0</ele>
        <time>2019-10-12T15:53:21.857Z</time>
      </trkpt>
      <trkpt lat="20.25598333" lon="-98.73637333">
        <ele>1907.0</ele>
        <time>2019-10-12T15:53:22.863Z</time>
      </trkpt>
      <trkpt lat="20.25599833" lon="-98.73637">
        <ele>1907.0</ele>
        <time>2019-10-12T15:53:23.868Z</time>
      </trkpt>
      <trkpt lat="20.25601333" lon="-98.73636667">
        <ele>1908.0</ele>
        <time>2019-10-12T15:53:24.873Z</time>
      </trkpt>
      <trkpt lat="20.25602833" lon="-98.73635833">
        <ele>1909.0</ele>
        <time>2019-10-12T15:53:25.876Z</time>
      </trkpt>
      <trkpt lat="20.25604" lon="-98.73636167">
        <ele>1909.0</ele>
        <time>2019-10-12T15:53:26.876Z</time>
      </trkpt>
      <trkpt lat="20.25605667" lon="-98.736365">
        <ele>1910.0</ele>
        <time>2019-10-12T15:53:27.883Z</time>
      </trkpt>
      <trkpt lat="20.25607" lon="-98.73636833">
        <ele>1910.0</ele>
        <time>2019-10-12T15:53:28.891Z</time>
      </trkpt>
      <trkpt lat="20.25608167" lon="-98.73637167">
        <ele>1911.0</ele>
        <time>2019-10-12T15:53:29.899Z</time>
      </trkpt>
      <trkpt lat="20.25609667" lon="-98.73637833">
        <ele>1912.0</ele>
        <time>2019-10-12T15:53:30.904Z</time>
      </trkpt>
      <trkpt lat="20.25610333" lon="-98.73638667">
        <ele>1912.0</ele>
        <time>2019-10-12T15:53:31.905Z</time>
      </trkpt>
      <trkpt lat="20.25611" lon="-98.7364">
        <ele>1912.0</ele>
        <time>2019-10-12T15:53:32.906Z</time>
      </trkpt>
      <trkpt lat="20.25611167" lon="-98.736415">
        <ele>1911.0</ele>
        <time>2019-10-12T15:53:33.906Z</time>
      </trkpt>
      <trkpt lat="20.25611167" lon="-98.73643">
        <ele>1911.0</ele>
        <time>2019-10-12T15:53:34.907Z</time>
      </trkpt>
      <trkpt lat="20.25611" lon="-98.73644167">
        <ele>1911.0</ele>
        <time>2019-10-12T15:53:35.908Z</time>
      </trkpt>
      <trkpt lat="20.25610667" lon="-98.73645667">
        <ele>1911.0</ele>
        <time>2019-10-12T15:53:36.909Z</time>
      </trkpt>
      <trkpt lat="20.25610167" lon="-98.73647">
        <ele>1911.0</ele>
        <time>2019-10-12T15:53:37.909Z</time>
      </trkpt>
      <trkpt lat="20.25609667" lon="-98.73648333">
        <ele>1912.0</ele>
        <time>2019-10-12T15:53:38.911Z</time>
      </trkpt>
      <trkpt lat="20.25609167" lon="-98.73649667">
        <ele>1912.0</ele>
        <time>2019-10-12T15:53:39.911Z</time>
      </trkpt>
      <trkpt lat="20.256085" lon="-98.73650833">
        <ele>1913.0</ele>
        <time>2019-10-12T15:53:40.912Z</time>
      </trkpt>
      <trkpt lat="20.25607833" lon="-98.73652">
        <ele>1913.0</ele>
        <time>2019-10-12T15:53:41.913Z</time>
      </trkpt>
      <trkpt lat="20.25607333" lon="-98.73653167">
        <ele>1914.0</ele>
        <time>2019-10-12T15:53:42.914Z</time>
      </trkpt>
      <trkpt lat="20.25606667" lon="-98.73654">
        <ele>1913.0</ele>
        <time>2019-10-12T15:53:43.914Z</time>
      </trkpt>
      <trkpt lat="20.25606167" lon="-98.73655167">
        <ele>1914.0</ele>
        <time>2019-10-12T15:53:44.915Z</time>
      </trkpt>
      <trkpt lat="20.256055" lon="-98.73656167">
        <ele>1914.0</ele>
        <time>2019-10-12T15:53:45.918Z</time>
      </trkpt>
      <trkpt lat="20.256045" lon="-98.73657">
        <ele>1915.0</ele>
        <time>2019-10-12T15:53:46.925Z</time>
      </trkpt>
      <trkpt lat="20.256035" lon="-98.73657667">
        <ele>1915.0</ele>
        <time>2019-10-12T15:53:47.932Z</time>
      </trkpt>
      <trkpt lat="20.256025" lon="-98.73658667">
        <ele>1916.0</ele>
        <time>2019-10-12T15:53:48.939Z</time>
      </trkpt>
      <trkpt lat="20.25601333" lon="-98.736595">
        <ele>1916.0</ele>
        <time>2019-10-12T15:53:49.941Z</time>
      </trkpt>
      <trkpt lat="20.25600333" lon="-98.73660333">
        <ele>1916.0</ele>
        <time>2019-10-12T15:53:50.941Z</time>
      </trkpt>
      <trkpt lat="20.25599833" lon="-98.73661333">
        <ele>1916.0</ele>
        <time>2019-10-12T15:53:51.942Z</time>
      </trkpt>
      <trkpt lat="20.25599" lon="-98.73662167">
        <ele>1916.0</ele>
        <time>2019-10-12T15:53:52.944Z</time>
      </trkpt>
      <trkpt lat="20.25597833" lon="-98.73662667">
        <ele>1916.0</ele>
        <time>2019-10-12T15:53:53.951Z</time>
      </trkpt>
      <trkpt lat="20.25597" lon="-98.73662833">
        <ele>1916.0</ele>
        <time>2019-10-12T15:53:54.832Z</time>
      </trkpt>
      <trkpt lat="20.25596" lon="-98.73663333">
        <ele>1916.0</ele>
        <time>2019-10-12T15:53:55.839Z</time>
      </trkpt>
      <trkpt lat="20.25594833" lon="-98.73664">
        <ele>1915.0</ele>
        <time>2019-10-12T15:53:56.847Z</time>
      </trkpt>
      <trkpt lat="20.25593667" lon="-98.73664833">
        <ele>1916.0</ele>
        <time>2019-10-12T15:53:57.854Z</time>
      </trkpt>
      <trkpt lat="20.25592833" lon="-98.736655">
        <ele>1916.0</ele>
        <time>2019-10-12T15:53:58.858Z</time>
      </trkpt>
      <trkpt lat="20.25591667" lon="-98.73666667">
        <ele>1917.0</ele>
        <time>2019-10-12T15:53:59.860Z</time>
      </trkpt>
      <trkpt lat="20.255905" lon="-98.736675">
        <ele>1917.0</ele>
        <time>2019-10-12T15:54:00.865Z</time>
      </trkpt>
      <trkpt lat="20.25589333" lon="-98.73668333">
        <ele>1918.0</ele>
        <time>2019-10-12T15:54:01.869Z</time>
      </trkpt>
      <trkpt lat="20.25588167" lon="-98.73669667">
        <ele>1919.0</ele>
        <time>2019-10-12T15:54:02.875Z</time>
      </trkpt>
      <trkpt lat="20.25587167" lon="-98.73670667">
        <ele>1919.0</ele>
        <time>2019-10-12T15:54:03.882Z</time>
      </trkpt>
      <trkpt lat="20.25586167" lon="-98.736715">
        <ele>1919.0</ele>
        <time>2019-10-12T15:54:04.884Z</time>
      </trkpt>
      <trkpt lat="20.25585167" lon="-98.736725">
        <ele>1920.0</ele>
        <time>2019-10-12T15:54:05.891Z</time>
      </trkpt>
      <trkpt lat="20.25584333" lon="-98.73673667">
        <ele>1921.0</ele>
        <time>2019-10-12T15:54:06.895Z</time>
      </trkpt>
      <trkpt lat="20.25583333" lon="-98.73674667">
        <ele>1921.0</ele>
        <time>2019-10-12T15:54:07.901Z</time>
      </trkpt>
      <trkpt lat="20.25582833" lon="-98.73675667">
        <ele>1922.0</ele>
        <time>2019-10-12T15:54:08.905Z</time>
      </trkpt>
      <trkpt lat="20.25582" lon="-98.73676667">
        <ele>1922.0</ele>
        <time>2019-10-12T15:54:09.907Z</time>
      </trkpt>
      <trkpt lat="20.25581167" lon="-98.736775">
        <ele>1922.0</ele>
        <time>2019-10-12T15:54:10.915Z</time>
      </trkpt>
      <trkpt lat="20.25580333" lon="-98.73678333">
        <ele>1922.0</ele>
        <time>2019-10-12T15:54:11.921Z</time>
      </trkpt>
      <trkpt lat="20.255795" lon="-98.73679167">
        <ele>1921.0</ele>
        <time>2019-10-12T15:54:12.928Z</time>
      </trkpt>
      <trkpt lat="20.255785" lon="-98.7368">
        <ele>1921.0</ele>
        <time>2019-10-12T15:54:13.935Z</time>
      </trkpt>
      <trkpt lat="20.255775" lon="-98.73681">
        <ele>1922.0</ele>
        <time>2019-10-12T15:54:14.935Z</time>
      </trkpt>
      <trkpt lat="20.25577" lon="-98.73682">
        <ele>1922.0</ele>
        <time>2019-10-12T15:54:15.942Z</time>
      </trkpt>
      <trkpt lat="20.255765" lon="-98.73683167">
        <ele>1922.0</ele>
        <time>2019-10-12T15:54:16.949Z</time>
      </trkpt>
      <trkpt lat="20.25576" lon="-98.73684167">
        <ele>1922.0</ele>
        <time>2019-10-12T15:54:17.953Z</time>
      </trkpt>
      <trkpt lat="20.25575667" lon="-98.736855">
        <ele>1922.0</ele>
        <time>2019-10-12T15:54:18.835Z</time>
      </trkpt>
      <trkpt lat="20.25575167" lon="-98.736865">
        <ele>1922.0</ele>
        <time>2019-10-12T15:54:19.838Z</time>
      </trkpt>
      <trkpt lat="20.255745" lon="-98.73688">
        <ele>1923.0</ele>
        <time>2019-10-12T15:54:20.846Z</time>
      </trkpt>
      <trkpt lat="20.25574" lon="-98.73688667">
        <ele>1923.0</ele>
        <time>2019-10-12T15:54:21.853Z</time>
      </trkpt>
      <trkpt lat="20.25573667" lon="-98.73689833">
        <ele>1923.0</ele>
        <time>2019-10-12T15:54:22.860Z</time>
      </trkpt>
      <trkpt lat="20.25573167" lon="-98.73691">
        <ele>1924.0</ele>
        <time>2019-10-12T15:54:23.866Z</time>
      </trkpt>
      <trkpt lat="20.255725" lon="-98.73692333">
        <ele>1924.0</ele>
        <time>2019-10-12T15:54:24.868Z</time>
      </trkpt>
      <trkpt lat="20.25572" lon="-98.73693333">
        <ele>1924.0</ele>
        <time>2019-10-12T15:54:25.874Z</time>
      </trkpt>
      <trkpt lat="20.25571667" lon="-98.736945">
        <ele>1924.0</ele>
        <time>2019-10-12T15:54:26.882Z</time>
      </trkpt>
      <trkpt lat="20.25571167" lon="-98.73695667">
        <ele>1924.0</ele>
        <time>2019-10-12T15:54:27.886Z</time>
      </trkpt>
      <trkpt lat="20.255705" lon="-98.736965">
        <ele>1924.0</ele>
        <time>2019-10-12T15:54:28.886Z</time>
      </trkpt>
      <trkpt lat="20.2557" lon="-98.736975">
        <ele>1925.0</ele>
        <time>2019-10-12T15:54:29.888Z</time>
      </trkpt>
      <trkpt lat="20.25569833" lon="-98.736985">
        <ele>1925.0</ele>
        <time>2019-10-12T15:54:30.889Z</time>
      </trkpt>
      <trkpt lat="20.25569667" lon="-98.73699333">
        <ele>1925.0</ele>
        <time>2019-10-12T15:54:31.892Z</time>
      </trkpt>
      <trkpt lat="20.25569167" lon="-98.73700333">
        <ele>1926.0</ele>
        <time>2019-10-12T15:54:32.899Z</time>
      </trkpt>
      <trkpt lat="20.25568833" lon="-98.73701">
        <ele>1926.0</ele>
        <time>2019-10-12T15:54:33.907Z</time>
      </trkpt>
      <trkpt lat="20.255685" lon="-98.73702">
        <ele>1926.0</ele>
        <time>2019-10-12T15:54:34.912Z</time>
      </trkpt>
      <trkpt lat="20.25567833" lon="-98.73702833">
        <ele>1925.0</ele>
        <time>2019-10-12T15:54:35.920Z</time>
      </trkpt>
      <trkpt lat="20.25567167" lon="-98.73703667">
        <ele>1925.0</ele>
        <time>2019-10-12T15:54:36.925Z</time>
      </trkpt>
      <trkpt lat="20.25566667" lon="-98.73704333">
        <ele>1925.0</ele>
        <time>2019-10-12T15:54:37.933Z</time>
      </trkpt>
      <trkpt lat="20.25566167" lon="-98.73705333">
        <ele>1925.0</ele>
        <time>2019-10-12T15:54:38.941Z</time>
      </trkpt>
      <trkpt lat="20.255655" lon="-98.73706333">
        <ele>1926.0</ele>
        <time>2019-10-12T15:54:39.946Z</time>
      </trkpt>
      <trkpt lat="20.25565" lon="-98.73707333">
        <ele>1926.0</ele>
        <time>2019-10-12T15:54:40.952Z</time>
      </trkpt>
      <trkpt lat="20.25564333" lon="-98.73708167">
        <ele>1926.0</ele>
        <time>2019-10-12T15:54:41.832Z</time>
      </trkpt>
      <trkpt lat="20.255635" lon="-98.73709">
        <ele>1926.0</ele>
        <time>2019-10-12T15:54:42.833Z</time>
      </trkpt>
      <trkpt lat="20.25562833" lon="-98.737095">
        <ele>1926.0</ele>
        <time>2019-10-12T15:54:43.836Z</time>
      </trkpt>
      <trkpt lat="20.25562333" lon="-98.73710333">
        <ele>1927.0</ele>
        <time>2019-10-12T15:54:44.843Z</time>
      </trkpt>
      <trkpt lat="20.25561833" lon="-98.73711">
        <ele>1927.0</ele>
        <time>2019-10-12T15:54:45.843Z</time>
      </trkpt>
      <trkpt lat="20.25561333" lon="-98.73711833">
        <ele>1927.0</ele>
        <time>2019-10-12T15:54:46.849Z</time>
      </trkpt>
      <trkpt lat="20.25560833" lon="-98.73712833">
        <ele>1927.0</ele>
        <time>2019-10-12T15:54:47.857Z</time>
      </trkpt>
      <trkpt lat="20.2556" lon="-98.73713833">
        <ele>1928.0</ele>
        <time>2019-10-12T15:54:48.863Z</time>
      </trkpt>
      <trkpt lat="20.255595" lon="-98.73714667">
        <ele>1929.0</ele>
        <time>2019-10-12T15:54:49.869Z</time>
      </trkpt>
      <trkpt lat="20.25559333" lon="-98.73715667">
        <ele>1930.0</ele>
        <time>2019-10-12T15:54:50.873Z</time>
      </trkpt>
      <trkpt lat="20.25559" lon="-98.73717167">
        <ele>1930.0</ele>
        <time>2019-10-12T15:54:51.876Z</time>
      </trkpt>
      <trkpt lat="20.255585" lon="-98.73718333">
        <ele>1931.0</ele>
        <time>2019-10-12T15:54:52.879Z</time>
      </trkpt>
      <trkpt lat="20.25558167" lon="-98.73719167">
        <ele>1931.0</ele>
        <time>2019-10-12T15:54:53.885Z</time>
      </trkpt>
      <trkpt lat="20.25557833" lon="-98.7372">
        <ele>1932.0</ele>
        <time>2019-10-12T15:54:54.892Z</time>
      </trkpt>
      <trkpt lat="20.255575" lon="-98.73721333">
        <ele>1932.0</ele>
        <time>2019-10-12T15:54:55.899Z</time>
      </trkpt>
      <trkpt lat="20.25556667" lon="-98.73722333">
        <ele>1932.0</ele>
        <time>2019-10-12T15:54:56.907Z</time>
      </trkpt>
      <trkpt lat="20.25555833" lon="-98.737235">
        <ele>1931.0</ele>
        <time>2019-10-12T15:54:57.908Z</time>
      </trkpt>
      <trkpt lat="20.25555667" lon="-98.73725">
        <ele>1930.0</ele>
        <time>2019-10-12T15:54:58.909Z</time>
      </trkpt>
      <trkpt lat="20.25555833" lon="-98.73726333">
        <ele>1930.0</ele>
        <time>2019-10-12T15:54:59.909Z</time>
      </trkpt>
      <trkpt lat="20.25555833" lon="-98.73727667">
        <ele>1930.0</ele>
        <time>2019-10-12T15:55:00.910Z</time>
      </trkpt>
      <trkpt lat="20.255555" lon="-98.73729">
        <ele>1930.0</ele>
        <time>2019-10-12T15:55:01.911Z</time>
      </trkpt>
      <trkpt lat="20.25555667" lon="-98.73730167">
        <ele>1931.0</ele>
        <time>2019-10-12T15:55:02.911Z</time>
      </trkpt>
      <trkpt lat="20.25556" lon="-98.73731667">
        <ele>1931.0</ele>
        <time>2019-10-12T15:55:03.913Z</time>
      </trkpt>
      <trkpt lat="20.25556" lon="-98.737325">
        <ele>1931.0</ele>
        <time>2019-10-12T15:55:04.913Z</time>
      </trkpt>
      <trkpt lat="20.25555833" lon="-98.73733167">
        <ele>1931.0</ele>
        <time>2019-10-12T15:55:05.914Z</time>
      </trkpt>
      <trkpt lat="20.25556" lon="-98.73734167">
        <ele>1931.0</ele>
        <time>2019-10-12T15:55:06.915Z</time>
      </trkpt>
      <trkpt lat="20.25556" lon="-98.73735167">
        <ele>1930.0</ele>
        <time>2019-10-12T15:55:07.915Z</time>
      </trkpt>
      <trkpt lat="20.25556167" lon="-98.73736333">
        <ele>1930.0</ele>
        <time>2019-10-12T15:55:08.919Z</time>
      </trkpt>
      <trkpt lat="20.25556167" lon="-98.737375">
        <ele>1930.0</ele>
        <time>2019-10-12T15:55:09.919Z</time>
      </trkpt>
      <trkpt lat="20.25556333" lon="-98.737385">
        <ele>1930.0</ele>
        <time>2019-10-12T15:55:10.926Z</time>
      </trkpt>
      <trkpt lat="20.25556333" lon="-98.737395">
        <ele>1929.0</ele>
        <time>2019-10-12T15:55:11.933Z</time>
      </trkpt>
      <trkpt lat="20.25556333" lon="-98.737405">
        <ele>1929.0</ele>
        <time>2019-10-12T15:55:12.940Z</time>
      </trkpt>
      <trkpt lat="20.25556333" lon="-98.73741667">
        <ele>1929.0</ele>
        <time>2019-10-12T15:55:13.941Z</time>
      </trkpt>
      <trkpt lat="20.25556333" lon="-98.73742167">
        <ele>1929.0</ele>
        <time>2019-10-12T15:55:14.946Z</time>
      </trkpt>
      <trkpt lat="20.25556333" lon="-98.737435">
        <ele>1929.0</ele>
        <time>2019-10-12T15:55:15.950Z</time>
      </trkpt>
      <trkpt lat="20.25556667" lon="-98.73744667">
        <ele>1929.0</ele>
        <time>2019-10-12T15:55:16.951Z</time>
      </trkpt>
      <trkpt lat="20.25557" lon="-98.73746">
        <ele>1929.0</ele>
        <time>2019-10-12T15:55:17.833Z</time>
      </trkpt>
      <trkpt lat="20.25557333" lon="-98.73746667">
        <ele>1930.0</ele>
        <time>2019-10-12T15:55:18.841Z</time>
      </trkpt>
      <trkpt lat="20.25557667" lon="-98.737475">
        <ele>1931.0</ele>
        <time>2019-10-12T15:55:19.847Z</time>
      </trkpt>
      <trkpt lat="20.25558" lon="-98.73747833">
        <ele>1931.0</ele>
        <time>2019-10-12T15:55:20.853Z</time>
      </trkpt>
      <trkpt lat="20.25558333" lon="-98.737485">
        <ele>1932.0</ele>
        <time>2019-10-12T15:55:21.856Z</time>
      </trkpt>
      <trkpt lat="20.25558833" lon="-98.73749833">
        <ele>1932.0</ele>
        <time>2019-10-12T15:55:22.862Z</time>
      </trkpt>
      <trkpt lat="20.25559167" lon="-98.73750833">
        <ele>1933.0</ele>
        <time>2019-10-12T15:55:23.869Z</time>
      </trkpt>
      <trkpt lat="20.25559833" lon="-98.73751833">
        <ele>1933.0</ele>
        <time>2019-10-12T15:55:24.869Z</time>
      </trkpt>
      <trkpt lat="20.255605" lon="-98.73752833">
        <ele>1934.0</ele>
        <time>2019-10-12T15:55:25.873Z</time>
      </trkpt>
      <trkpt lat="20.25561" lon="-98.73753667">
        <ele>1935.0</ele>
        <time>2019-10-12T15:55:26.880Z</time>
      </trkpt>
      <trkpt lat="20.25561833" lon="-98.73754667">
        <ele>1935.0</ele>
        <time>2019-10-12T15:55:27.886Z</time>
      </trkpt>
      <trkpt lat="20.25562167" lon="-98.737555">
        <ele>1936.0</ele>
        <time>2019-10-12T15:55:28.891Z</time>
      </trkpt>
      <trkpt lat="20.255625" lon="-98.737565">
        <ele>1937.0</ele>
        <time>2019-10-12T15:55:29.891Z</time>
      </trkpt>
      <trkpt lat="20.25562667" lon="-98.73757333">
        <ele>1937.0</ele>
        <time>2019-10-12T15:55:30.898Z</time>
      </trkpt>
      <trkpt lat="20.25563" lon="-98.73758167">
        <ele>1937.0</ele>
        <time>2019-10-12T15:55:31.899Z</time>
      </trkpt>
      <trkpt lat="20.25563167" lon="-98.73759333">
        <ele>1937.0</ele>
        <time>2019-10-12T15:55:32.905Z</time>
      </trkpt>
      <trkpt lat="20.255635" lon="-98.73760333">
        <ele>1937.0</ele>
        <time>2019-10-12T15:55:33.913Z</time>
      </trkpt>
      <trkpt lat="20.25563833" lon="-98.73761667">
        <ele>1937.0</ele>
        <time>2019-10-12T15:55:34.921Z</time>
      </trkpt>
      <trkpt lat="20.25564167" lon="-98.73762833">
        <ele>1937.0</ele>
        <time>2019-10-12T15:55:35.922Z</time>
      </trkpt>
      <trkpt lat="20.25564833" lon="-98.73764">
        <ele>1938.0</ele>
        <time>2019-10-12T15:55:36.925Z</time>
      </trkpt>
      <trkpt lat="20.25565333" lon="-98.73765167">
        <ele>1939.0</ele>
        <time>2019-10-12T15:55:37.926Z</time>
      </trkpt>
      <trkpt lat="20.255655" lon="-98.73766167">
        <ele>1940.0</ele>
        <time>2019-10-12T15:55:38.934Z</time>
      </trkpt>
      <trkpt lat="20.255655" lon="-98.73767167">
        <ele>1940.0</ele>
        <time>2019-10-12T15:55:39.941Z</time>
      </trkpt>
      <trkpt lat="20.255655" lon="-98.73768167">
        <ele>1940.0</ele>
        <time>2019-10-12T15:55:40.941Z</time>
      </trkpt>
      <trkpt lat="20.255655" lon="-98.73769333">
        <ele>1940.0</ele>
        <time>2019-10-12T15:55:41.941Z</time>
      </trkpt>
      <trkpt lat="20.25565667" lon="-98.737705">
        <ele>1940.0</ele>
        <time>2019-10-12T15:55:42.946Z</time>
      </trkpt>
      <trkpt lat="20.255655" lon="-98.73771833">
        <ele>1941.0</ele>
        <time>2019-10-12T15:55:43.952Z</time>
      </trkpt>
      <trkpt lat="20.255655" lon="-98.73773">
        <ele>1941.0</ele>
        <time>2019-10-12T15:55:44.833Z</time>
      </trkpt>
      <trkpt lat="20.255655" lon="-98.73774333">
        <ele>1942.0</ele>
        <time>2019-10-12T15:55:45.837Z</time>
      </trkpt>
      <trkpt lat="20.25565167" lon="-98.73776167">
        <ele>1943.0</ele>
        <time>2019-10-12T15:55:46.841Z</time>
      </trkpt>
      <trkpt lat="20.25565" lon="-98.73777167">
        <ele>1943.0</ele>
        <time>2019-10-12T15:55:47.843Z</time>
      </trkpt>
      <trkpt lat="20.25565" lon="-98.73778333">
        <ele>1943.0</ele>
        <time>2019-10-12T15:55:48.850Z</time>
      </trkpt>
      <trkpt lat="20.25565" lon="-98.73779833">
        <ele>1943.0</ele>
        <time>2019-10-12T15:55:49.852Z</time>
      </trkpt>
      <trkpt lat="20.25564667" lon="-98.73781167">
        <ele>1943.0</ele>
        <time>2019-10-12T15:55:50.861Z</time>
      </trkpt>
      <trkpt lat="20.255645" lon="-98.737825">
        <ele>1943.0</ele>
        <time>2019-10-12T15:55:51.864Z</time>
      </trkpt>
      <trkpt lat="20.25564333" lon="-98.73784167">
        <ele>1943.0</ele>
        <time>2019-10-12T15:55:52.870Z</time>
      </trkpt>
      <trkpt lat="20.25564167" lon="-98.73785167">
        <ele>1944.0</ele>
        <time>2019-10-12T15:55:53.878Z</time>
      </trkpt>
      <trkpt lat="20.25563667" lon="-98.73786667">
        <ele>1944.0</ele>
        <time>2019-10-12T15:55:54.885Z</time>
      </trkpt>
      <trkpt lat="20.25563167" lon="-98.73787667">
        <ele>1945.0</ele>
        <time>2019-10-12T15:55:55.889Z</time>
      </trkpt>
      <trkpt lat="20.255625" lon="-98.73788667">
        <ele>1945.0</ele>
        <time>2019-10-12T15:55:56.890Z</time>
      </trkpt>
      <trkpt lat="20.25561667" lon="-98.73790167">
        <ele>1945.0</ele>
        <time>2019-10-12T15:55:57.890Z</time>
      </trkpt>
      <trkpt lat="20.25560833" lon="-98.73791167">
        <ele>1945.0</ele>
        <time>2019-10-12T15:55:58.895Z</time>
      </trkpt>
      <trkpt lat="20.25559667" lon="-98.73792">
        <ele>1945.0</ele>
        <time>2019-10-12T15:55:59.901Z</time>
      </trkpt>
      <trkpt lat="20.255585" lon="-98.73792667">
        <ele>1946.0</ele>
        <time>2019-10-12T15:56:00.902Z</time>
      </trkpt>
      <trkpt lat="20.25557167" lon="-98.737925">
        <ele>1947.0</ele>
        <time>2019-10-12T15:56:01.909Z</time>
      </trkpt>
      <trkpt lat="20.25555833" lon="-98.73792167">
        <ele>1947.0</ele>
        <time>2019-10-12T15:56:02.916Z</time>
      </trkpt>
      <trkpt lat="20.25554667" lon="-98.73791833">
        <ele>1948.0</ele>
        <time>2019-10-12T15:56:03.924Z</time>
      </trkpt>
      <trkpt lat="20.25553667" lon="-98.73791">
        <ele>1949.0</ele>
        <time>2019-10-12T15:56:04.930Z</time>
      </trkpt>
      <trkpt lat="20.25552833" lon="-98.73789833">
        <ele>1950.0</ele>
        <time>2019-10-12T15:56:05.936Z</time>
      </trkpt>
      <trkpt lat="20.25552167" lon="-98.73788667">
        <ele>1950.0</ele>
        <time>2019-10-12T15:56:06.941Z</time>
      </trkpt>
      <trkpt lat="20.25551333" lon="-98.737875">
        <ele>1951.0</ele>
        <time>2019-10-12T15:56:07.942Z</time>
      </trkpt>
      <trkpt lat="20.25550833" lon="-98.73786333">
        <ele>1952.0</ele>
        <time>2019-10-12T15:56:08.948Z</time>
      </trkpt>
      <trkpt lat="20.255505" lon="-98.73785167">
        <ele>1953.0</ele>
        <time>2019-10-12T15:56:09.831Z</time>
      </trkpt>
      <trkpt lat="20.255505" lon="-98.73783833">
        <ele>1954.0</ele>
        <time>2019-10-12T15:56:10.836Z</time>
      </trkpt>
      <trkpt lat="20.255505" lon="-98.73782167">
        <ele>1955.0</ele>
        <time>2019-10-12T15:56:11.837Z</time>
      </trkpt>
      <trkpt lat="20.2555" lon="-98.737805">
        <ele>1956.0</ele>
        <time>2019-10-12T15:56:12.837Z</time>
      </trkpt>
      <trkpt lat="20.25549833" lon="-98.73779">
        <ele>1958.0</ele>
        <time>2019-10-12T15:56:13.838Z</time>
      </trkpt>
      <trkpt lat="20.25549667" lon="-98.737775">
        <ele>1959.0</ele>
        <time>2019-10-12T15:56:14.838Z</time>
      </trkpt>
      <trkpt lat="20.255495" lon="-98.73775833">
        <ele>1960.0</ele>
        <time>2019-10-12T15:56:15.840Z</time>
      </trkpt>
      <trkpt lat="20.255495" lon="-98.73774167">
        <ele>1961.0</ele>
        <time>2019-10-12T15:56:16.843Z</time>
      </trkpt>
      <trkpt lat="20.25549167" lon="-98.73772667">
        <ele>1962.0</ele>
        <time>2019-10-12T15:56:17.851Z</time>
      </trkpt>
      <trkpt lat="20.25548833" lon="-98.73771167">
        <ele>1963.0</ele>
        <time>2019-10-12T15:56:18.852Z</time>
      </trkpt>
      <trkpt lat="20.25548667" lon="-98.73769667">
        <ele>1964.0</ele>
        <time>2019-10-12T15:56:19.858Z</time>
      </trkpt>
      <trkpt lat="20.25548333" lon="-98.73768">
        <ele>1965.0</ele>
        <time>2019-10-12T15:56:20.858Z</time>
      </trkpt>
      <trkpt lat="20.25548" lon="-98.73766333">
        <ele>1966.0</ele>
        <time>2019-10-12T15:56:21.858Z</time>
      </trkpt>
      <trkpt lat="20.25547667" lon="-98.73764667">
        <ele>1967.0</ele>
        <time>2019-10-12T15:56:22.860Z</time>
      </trkpt>
      <trkpt lat="20.25547333" lon="-98.737635">
        <ele>1968.0</ele>
        <time>2019-10-12T15:56:23.868Z</time>
      </trkpt>
      <trkpt lat="20.25547" lon="-98.73762167">
        <ele>1969.0</ele>
        <time>2019-10-12T15:56:24.873Z</time>
      </trkpt>
      <trkpt lat="20.255465" lon="-98.73760333">
        <ele>1970.0</ele>
        <time>2019-10-12T15:56:25.876Z</time>
      </trkpt>
      <trkpt lat="20.25546167" lon="-98.73758833">
        <ele>1970.0</ele>
        <time>2019-10-12T15:56:26.877Z</time>
      </trkpt>
      <trkpt lat="20.25545833" lon="-98.73757333">
        <ele>1970.0</ele>
        <time>2019-10-12T15:56:27.880Z</time>
      </trkpt>
      <trkpt lat="20.25545" lon="-98.73756333">
        <ele>1971.0</ele>
        <time>2019-10-12T15:56:28.882Z</time>
      </trkpt>
      <trkpt lat="20.25544333" lon="-98.73755">
        <ele>1971.0</ele>
        <time>2019-10-12T15:56:29.888Z</time>
      </trkpt>
      <trkpt lat="20.25543667" lon="-98.73754">
        <ele>1971.0</ele>
        <time>2019-10-12T15:56:30.891Z</time>
      </trkpt>
      <trkpt lat="20.25543" lon="-98.73753">
        <ele>1971.0</ele>
        <time>2019-10-12T15:56:31.896Z</time>
      </trkpt>
      <trkpt lat="20.25542333" lon="-98.73751667">
        <ele>1972.0</ele>
        <time>2019-10-12T15:56:32.901Z</time>
      </trkpt>
      <trkpt lat="20.25541333" lon="-98.73750667">
        <ele>1972.0</ele>
        <time>2019-10-12T15:56:33.908Z</time>
      </trkpt>
      <trkpt lat="20.25540167" lon="-98.73749667">
        <ele>1972.0</ele>
        <time>2019-10-12T15:56:34.914Z</time>
      </trkpt>
      <trkpt lat="20.25539167" lon="-98.73748667">
        <ele>1972.0</ele>
        <time>2019-10-12T15:56:35.914Z</time>
      </trkpt>
      <trkpt lat="20.25538167" lon="-98.73747667">
        <ele>1972.0</ele>
        <time>2019-10-12T15:56:36.915Z</time>
      </trkpt>
      <trkpt lat="20.25537" lon="-98.73746833">
        <ele>1971.0</ele>
        <time>2019-10-12T15:56:37.916Z</time>
      </trkpt>
      <trkpt lat="20.25535833" lon="-98.73745833">
        <ele>1971.0</ele>
        <time>2019-10-12T15:56:38.917Z</time>
      </trkpt>
      <trkpt lat="20.255345" lon="-98.73745167">
        <ele>1971.0</ele>
        <time>2019-10-12T15:56:39.918Z</time>
      </trkpt>
      <trkpt lat="20.25533167" lon="-98.73744667">
        <ele>1971.0</ele>
        <time>2019-10-12T15:56:40.918Z</time>
      </trkpt>
      <trkpt lat="20.25531833" lon="-98.73743833">
        <ele>1970.0</ele>
        <time>2019-10-12T15:56:41.919Z</time>
      </trkpt>
      <trkpt lat="20.25530667" lon="-98.73743333">
        <ele>1970.0</ele>
        <time>2019-10-12T15:56:42.920Z</time>
      </trkpt>
      <trkpt lat="20.25529333" lon="-98.73742833">
        <ele>1970.0</ele>
        <time>2019-10-12T15:56:43.924Z</time>
      </trkpt>
      <trkpt lat="20.25528" lon="-98.73742333">
        <ele>1971.0</ele>
        <time>2019-10-12T15:56:44.926Z</time>
      </trkpt>
      <trkpt lat="20.255265" lon="-98.73741833">
        <ele>1970.0</ele>
        <time>2019-10-12T15:56:45.933Z</time>
      </trkpt>
      <trkpt lat="20.25525167" lon="-98.737415">
        <ele>1970.0</ele>
        <time>2019-10-12T15:56:46.940Z</time>
      </trkpt>
      <trkpt lat="20.25523833" lon="-98.73741667">
        <ele>1969.0</ele>
        <time>2019-10-12T15:56:47.946Z</time>
      </trkpt>
      <trkpt lat="20.25522667" lon="-98.73741833">
        <ele>1969.0</ele>
        <time>2019-10-12T15:56:48.953Z</time>
      </trkpt>
      <trkpt lat="20.255215" lon="-98.73742">
        <ele>1969.0</ele>
        <time>2019-10-12T15:56:49.831Z</time>
      </trkpt>
      <trkpt lat="20.25520167" lon="-98.73742333">
        <ele>1969.0</ele>
        <time>2019-10-12T15:56:50.832Z</time>
      </trkpt>
      <trkpt lat="20.25518667" lon="-98.73742667">
        <ele>1968.0</ele>
        <time>2019-10-12T15:56:51.833Z</time>
      </trkpt>
      <trkpt lat="20.25517" lon="-98.73742833">
        <ele>1968.0</ele>
        <time>2019-10-12T15:56:52.840Z</time>
      </trkpt>
      <trkpt lat="20.255155" lon="-98.73743333">
        <ele>1967.0</ele>
        <time>2019-10-12T15:56:53.847Z</time>
      </trkpt>
      <trkpt lat="20.25514" lon="-98.73743667">
        <ele>1967.0</ele>
        <time>2019-10-12T15:56:54.851Z</time>
      </trkpt>
      <trkpt lat="20.25512167" lon="-98.73744">
        <ele>1967.0</ele>
        <time>2019-10-12T15:56:55.852Z</time>
      </trkpt>
      <trkpt lat="20.25510667" lon="-98.73744167">
        <ele>1968.0</ele>
        <time>2019-10-12T15:56:56.854Z</time>
      </trkpt>
      <trkpt lat="20.25508833" lon="-98.73744333">
        <ele>1967.0</ele>
        <time>2019-10-12T15:56:57.858Z</time>
      </trkpt>
      <trkpt lat="20.25507167" lon="-98.737445">
        <ele>1967.0</ele>
        <time>2019-10-12T15:56:58.862Z</time>
      </trkpt>
      <trkpt lat="20.255055" lon="-98.73744833">
        <ele>1967.0</ele>
        <time>2019-10-12T15:56:59.863Z</time>
      </trkpt>
      <trkpt lat="20.25503833" lon="-98.73745333">
        <ele>1967.0</ele>
        <time>2019-10-12T15:57:00.869Z</time>
      </trkpt>
      <trkpt lat="20.25501667" lon="-98.73745667">
        <ele>1967.0</ele>
        <time>2019-10-12T15:57:01.870Z</time>
      </trkpt>
      <trkpt lat="20.25499833" lon="-98.73745667">
        <ele>1967.0</ele>
        <time>2019-10-12T15:57:02.872Z</time>
      </trkpt>
      <trkpt lat="20.25497833" lon="-98.73746">
        <ele>1968.0</ele>
        <time>2019-10-12T15:57:03.872Z</time>
      </trkpt>
      <trkpt lat="20.25496" lon="-98.73746167">
        <ele>1968.0</ele>
        <time>2019-10-12T15:57:04.872Z</time>
      </trkpt>
      <trkpt lat="20.25494333" lon="-98.73746667">
        <ele>1968.0</ele>
        <time>2019-10-12T15:57:05.873Z</time>
      </trkpt>
      <trkpt lat="20.25492833" lon="-98.73747">
        <ele>1968.0</ele>
        <time>2019-10-12T15:57:06.874Z</time>
      </trkpt>
      <trkpt lat="20.25491167" lon="-98.737475">
        <ele>1968.0</ele>
        <time>2019-10-12T15:57:07.875Z</time>
      </trkpt>
      <trkpt lat="20.254895" lon="-98.73748">
        <ele>1968.0</ele>
        <time>2019-10-12T15:57:08.881Z</time>
      </trkpt>
      <trkpt lat="20.25488167" lon="-98.73748667">
        <ele>1968.0</ele>
        <time>2019-10-12T15:57:09.884Z</time>
      </trkpt>
      <trkpt lat="20.254865" lon="-98.73749167">
        <ele>1969.0</ele>
        <time>2019-10-12T15:57:10.892Z</time>
      </trkpt>
      <trkpt lat="20.25485" lon="-98.7375">
        <ele>1969.0</ele>
        <time>2019-10-12T15:57:11.893Z</time>
      </trkpt>
      <trkpt lat="20.254835" lon="-98.73750667">
        <ele>1969.0</ele>
        <time>2019-10-12T15:57:12.899Z</time>
      </trkpt>
      <trkpt lat="20.25482167" lon="-98.73751667">
        <ele>1969.0</ele>
        <time>2019-10-12T15:57:13.904Z</time>
      </trkpt>
      <trkpt lat="20.25480667" lon="-98.73752833">
        <ele>1968.0</ele>
        <time>2019-10-12T15:57:14.911Z</time>
      </trkpt>
      <trkpt lat="20.254795" lon="-98.73754">
        <ele>1969.0</ele>
        <time>2019-10-12T15:57:15.914Z</time>
      </trkpt>
      <trkpt lat="20.25478333" lon="-98.73755167">
        <ele>1969.0</ele>
        <time>2019-10-12T15:57:16.917Z</time>
      </trkpt>
      <trkpt lat="20.25477" lon="-98.73756333">
        <ele>1969.0</ele>
        <time>2019-10-12T15:57:17.924Z</time>
      </trkpt>
      <trkpt lat="20.25475833" lon="-98.73757667">
        <ele>1969.0</ele>
        <time>2019-10-12T15:57:18.929Z</time>
      </trkpt>
      <trkpt lat="20.254745" lon="-98.73758667">
        <ele>1970.0</ele>
        <time>2019-10-12T15:57:19.936Z</time>
      </trkpt>
      <trkpt lat="20.25471333" lon="-98.737645">
        <ele>1970.0</ele>
        <time>2019-10-12T15:57:21.944Z</time>
      </trkpt>
      <trkpt lat="20.25471333" lon="-98.737645">
        <ele>1970.0</ele>
        <time>2019-10-12T15:57:22.950Z</time>
      </trkpt>
      <trkpt lat="20.25471333" lon="-98.737645">
        <ele>1970.0</ele>
        <time>2019-10-12T15:57:23.954Z</time>
      </trkpt>
      <trkpt lat="20.25471333" lon="-98.737645">
        <ele>1969.0</ele>
        <time>2019-10-12T15:57:24.835Z</time>
      </trkpt>
      <trkpt lat="20.254715" lon="-98.73764667">
        <ele>1969.0</ele>
        <time>2019-10-12T15:57:25.840Z</time>
      </trkpt>
      <trkpt lat="20.25471333" lon="-98.73765">
        <ele>1969.0</ele>
        <time>2019-10-12T15:57:26.846Z</time>
      </trkpt>
      <trkpt lat="20.25470333" lon="-98.73767333">
        <ele>1969.0</ele>
        <time>2019-10-12T15:57:27.848Z</time>
      </trkpt>
      <trkpt lat="20.25469167" lon="-98.73769333">
        <ele>1969.0</ele>
        <time>2019-10-12T15:57:28.848Z</time>
      </trkpt>
      <trkpt lat="20.25467833" lon="-98.737715">
        <ele>1969.0</ele>
        <time>2019-10-12T15:57:29.849Z</time>
      </trkpt>
      <trkpt lat="20.25466833" lon="-98.73773667">
        <ele>1969.0</ele>
        <time>2019-10-12T15:57:30.850Z</time>
      </trkpt>
      <trkpt lat="20.25465667" lon="-98.737755">
        <ele>1969.0</ele>
        <time>2019-10-12T15:57:31.851Z</time>
      </trkpt>
      <trkpt lat="20.254645" lon="-98.737775">
        <ele>1970.0</ele>
        <time>2019-10-12T15:57:32.854Z</time>
      </trkpt>
      <trkpt lat="20.254635" lon="-98.73779333">
        <ele>1970.0</ele>
        <time>2019-10-12T15:57:33.861Z</time>
      </trkpt>
      <trkpt lat="20.25462667" lon="-98.73781167">
        <ele>1969.0</ele>
        <time>2019-10-12T15:57:34.863Z</time>
      </trkpt>
      <trkpt lat="20.25462" lon="-98.73783167">
        <ele>1970.0</ele>
        <time>2019-10-12T15:57:35.868Z</time>
      </trkpt>
      <trkpt lat="20.25461333" lon="-98.737845">
        <ele>1970.0</ele>
        <time>2019-10-12T15:57:36.876Z</time>
      </trkpt>
      <trkpt lat="20.25460667" lon="-98.73785833">
        <ele>1970.0</ele>
        <time>2019-10-12T15:57:37.882Z</time>
      </trkpt>
      <trkpt lat="20.2546" lon="-98.73787333">
        <ele>1970.0</ele>
        <time>2019-10-12T15:57:38.887Z</time>
      </trkpt>
      <trkpt lat="20.254595" lon="-98.73789">
        <ele>1970.0</ele>
        <time>2019-10-12T15:57:39.891Z</time>
      </trkpt>
      <trkpt lat="20.25459" lon="-98.73790833">
        <ele>1969.0</ele>
        <time>2019-10-12T15:57:40.897Z</time>
      </trkpt>
      <trkpt lat="20.254585" lon="-98.737925">
        <ele>1969.0</ele>
        <time>2019-10-12T15:57:41.900Z</time>
      </trkpt>
      <trkpt lat="20.25458" lon="-98.73794167">
        <ele>1969.0</ele>
        <time>2019-10-12T15:57:42.906Z</time>
      </trkpt>
      <trkpt lat="20.254575" lon="-98.73796">
        <ele>1969.0</ele>
        <time>2019-10-12T15:57:43.908Z</time>
      </trkpt>
      <trkpt lat="20.25457167" lon="-98.737975">
        <ele>1969.0</ele>
        <time>2019-10-12T15:57:44.913Z</time>
      </trkpt>
      <trkpt lat="20.25457" lon="-98.73798833">
        <ele>1968.0</ele>
        <time>2019-10-12T15:57:45.916Z</time>
      </trkpt>
      <trkpt lat="20.25456667" lon="-98.738">
        <ele>1968.0</ele>
        <time>2019-10-12T15:57:46.922Z</time>
      </trkpt>
      <trkpt lat="20.254565" lon="-98.73800667">
        <ele>1967.0</ele>
        <time>2019-10-12T15:57:47.925Z</time>
      </trkpt>
      <trkpt lat="20.25456333" lon="-98.73801">
        <ele>1967.0</ele>
        <time>2019-10-12T15:57:48.925Z</time>
      </trkpt>
      <trkpt lat="20.25456333" lon="-98.73801333">
        <ele>1967.0</ele>
        <time>2019-10-12T15:57:49.926Z</time>
      </trkpt>
      <trkpt lat="20.25456333" lon="-98.73801333">
        <ele>1967.0</ele>
        <time>2019-10-12T15:57:50.926Z</time>
      </trkpt>
      <trkpt lat="20.25456" lon="-98.73801333">
        <ele>1968.0</ele>
        <time>2019-10-12T15:57:51.927Z</time>
      </trkpt>
      <trkpt lat="20.25456" lon="-98.73801333">
        <ele>1968.0</ele>
        <time>2019-10-12T15:57:52.928Z</time>
      </trkpt>
      <trkpt lat="20.25456" lon="-98.73801167">
        <ele>1969.0</ele>
        <time>2019-10-12T15:57:53.928Z</time>
      </trkpt>
      <trkpt lat="20.25456" lon="-98.73801167">
        <ele>1970.0</ele>
        <time>2019-10-12T15:57:54.929Z</time>
      </trkpt>
      <trkpt lat="20.25456" lon="-98.73801">
        <ele>1969.0</ele>
        <time>2019-10-12T15:57:55.929Z</time>
      </trkpt>
      <trkpt lat="20.25456" lon="-98.73800833">
        <ele>1969.0</ele>
        <time>2019-10-12T15:57:56.930Z</time>
      </trkpt>
      <trkpt lat="20.25456" lon="-98.73801">
        <ele>1968.0</ele>
        <time>2019-10-12T15:57:57.931Z</time>
      </trkpt>
      <trkpt lat="20.25456" lon="-98.73800833">
        <ele>1967.0</ele>
        <time>2019-10-12T15:57:58.932Z</time>
      </trkpt>
      <trkpt lat="20.25456" lon="-98.73800833">
        <ele>1967.0</ele>
        <time>2019-10-12T15:57:59.933Z</time>
      </trkpt>
      <trkpt lat="20.25456167" lon="-98.73800833">
        <ele>1967.0</ele>
        <time>2019-10-12T15:58:00.933Z</time>
      </trkpt>
      <trkpt lat="20.25456167" lon="-98.73800833">
        <ele>1967.0</ele>
        <time>2019-10-12T15:58:01.934Z</time>
      </trkpt>
      <trkpt lat="20.25456167" lon="-98.73800833">
        <ele>1967.0</ele>
        <time>2019-10-12T15:58:02.935Z</time>
      </trkpt>
      <trkpt lat="20.25456167" lon="-98.73800833">
        <ele>1967.0</ele>
        <time>2019-10-12T15:58:03.935Z</time>
      </trkpt>
      <trkpt lat="20.25456167" lon="-98.73800833">
        <ele>1967.0</ele>
        <time>2019-10-12T15:58:04.935Z</time>
      </trkpt>
      <trkpt lat="20.25456167" lon="-98.73800833">
        <ele>1967.0</ele>
        <time>2019-10-12T15:58:05.935Z</time>
      </trkpt>
      <trkpt lat="20.25456167" lon="-98.73800833">
        <ele>1967.0</ele>
        <time>2019-10-12T15:58:06.936Z</time>
      </trkpt>
      <trkpt lat="20.25456167" lon="-98.73800833">
        <ele>1967.0</ele>
        <time>2019-10-12T15:58:07.936Z</time>
      </trkpt>
      <trkpt lat="20.25456167" lon="-98.73800833">
        <ele>1967.0</ele>
        <time>2019-10-12T15:58:08.937Z</time>
      </trkpt>
      <trkpt lat="20.25456167" lon="-98.73800833">
        <ele>1967.0</ele>
        <time>2019-10-12T15:58:09.938Z</time>
      </trkpt>
      <trkpt lat="20.25456167" lon="-98.73800833">
        <ele>1968.0</ele>
        <time>2019-10-12T15:58:10.939Z</time>
      </trkpt>
      <trkpt lat="20.25456167" lon="-98.73801">
        <ele>1968.0</ele>
        <time>2019-10-12T15:58:11.940Z</time>
      </trkpt>
      <trkpt lat="20.25456167" lon="-98.73801">
        <ele>1968.0</ele>
        <time>2019-10-12T15:58:12.940Z</time>
      </trkpt>
      <trkpt lat="20.25456167" lon="-98.73801">
        <ele>1968.0</ele>
        <time>2019-10-12T15:58:13.941Z</time>
      </trkpt>
      <trkpt lat="20.25456167" lon="-98.73801">
        <ele>1968.0</ele>
        <time>2019-10-12T15:58:14.941Z</time>
      </trkpt>
      <trkpt lat="20.25456167" lon="-98.73801">
        <ele>1969.0</ele>
        <time>2019-10-12T15:58:15.942Z</time>
      </trkpt>
      <trkpt lat="20.25456167" lon="-98.73801">
        <ele>1969.0</ele>
        <time>2019-10-12T15:58:16.943Z</time>
      </trkpt>
      <trkpt lat="20.25456333" lon="-98.73801">
        <ele>1969.0</ele>
        <time>2019-10-12T15:58:17.943Z</time>
      </trkpt>
      <trkpt lat="20.25456333" lon="-98.73801">
        <ele>1969.0</ele>
        <time>2019-10-12T15:58:18.944Z</time>
      </trkpt>
      <trkpt lat="20.25456333" lon="-98.73801">
        <ele>1969.0</ele>
        <time>2019-10-12T15:58:19.945Z</time>
      </trkpt>
      <trkpt lat="20.25456333" lon="-98.73801">
        <ele>1969.0</ele>
        <time>2019-10-12T15:58:20.946Z</time>
      </trkpt>
      <trkpt lat="20.25456333" lon="-98.73801">
        <ele>1969.0</ele>
        <time>2019-10-12T15:58:21.947Z</time>
      </trkpt>
      <trkpt lat="20.25456333" lon="-98.73801">
        <ele>1969.0</ele>
        <time>2019-10-12T15:58:22.947Z</time>
      </trkpt>
      <trkpt lat="20.25456167" lon="-98.73801333">
        <ele>1969.0</ele>
        <time>2019-10-12T15:58:23.948Z</time>
      </trkpt>
      <trkpt lat="20.254555" lon="-98.73803333">
        <ele>1970.0</ele>
        <time>2019-10-12T15:58:24.949Z</time>
      </trkpt>
      <trkpt lat="20.25454833" lon="-98.73805167">
        <ele>1970.0</ele>
        <time>2019-10-12T15:58:25.950Z</time>
      </trkpt>
      <trkpt lat="20.25454" lon="-98.73807">
        <ele>1970.0</ele>
        <time>2019-10-12T15:58:26.951Z</time>
      </trkpt>
      <trkpt lat="20.25453167" lon="-98.73809167">
        <ele>1970.0</ele>
        <time>2019-10-12T15:58:27.951Z</time>
      </trkpt>
      <trkpt lat="20.25452333" lon="-98.738115">
        <ele>1971.0</ele>
        <time>2019-10-12T15:58:28.952Z</time>
      </trkpt>
      <trkpt lat="20.254515" lon="-98.73813667">
        <ele>1971.0</ele>
        <time>2019-10-12T15:58:29.952Z</time>
      </trkpt>
      <trkpt lat="20.254505" lon="-98.73815833">
        <ele>1972.0</ele>
        <time>2019-10-12T15:58:30.953Z</time>
      </trkpt>
      <trkpt lat="20.254495" lon="-98.73817667">
        <ele>1972.0</ele>
        <time>2019-10-12T15:58:31.953Z</time>
      </trkpt>
      <trkpt lat="20.25448667" lon="-98.73819667">
        <ele>1973.0</ele>
        <time>2019-10-12T15:58:32.954Z</time>
      </trkpt>
      <trkpt lat="20.25448" lon="-98.73821333">
        <ele>1973.0</ele>
        <time>2019-10-12T15:58:33.954Z</time>
      </trkpt>
      <trkpt lat="20.25447333" lon="-98.73822667">
        <ele>1973.0</ele>
        <time>2019-10-12T15:58:34.954Z</time>
      </trkpt>
      <trkpt lat="20.25446333" lon="-98.73824333">
        <ele>1974.0</ele>
        <time>2019-10-12T15:58:35.954Z</time>
      </trkpt>
      <trkpt lat="20.254455" lon="-98.738255">
        <ele>1973.0</ele>
        <time>2019-10-12T15:58:36.830Z</time>
      </trkpt>
      <trkpt lat="20.25444667" lon="-98.73827">
        <ele>1974.0</ele>
        <time>2019-10-12T15:58:37.830Z</time>
      </trkpt>
      <trkpt lat="20.25443667" lon="-98.73828333">
        <ele>1974.0</ele>
        <time>2019-10-12T15:58:38.832Z</time>
      </trkpt>
      <trkpt lat="20.25443" lon="-98.7383">
        <ele>1974.0</ele>
        <time>2019-10-12T15:58:39.832Z</time>
      </trkpt>
      <trkpt lat="20.25442333" lon="-98.73831667">
        <ele>1974.0</ele>
        <time>2019-10-12T15:58:40.833Z</time>
      </trkpt>
      <trkpt lat="20.25441667" lon="-98.738335">
        <ele>1975.0</ele>
        <time>2019-10-12T15:58:41.834Z</time>
      </trkpt>
      <trkpt lat="20.25441" lon="-98.73835">
        <ele>1975.0</ele>
        <time>2019-10-12T15:58:42.834Z</time>
      </trkpt>
      <trkpt lat="20.2544" lon="-98.73836667">
        <ele>1975.0</ele>
        <time>2019-10-12T15:58:43.835Z</time>
      </trkpt>
      <trkpt lat="20.25439" lon="-98.73838">
        <ele>1975.0</ele>
        <time>2019-10-12T15:58:44.836Z</time>
      </trkpt>
      <trkpt lat="20.25438167" lon="-98.738395">
        <ele>1975.0</ele>
        <time>2019-10-12T15:58:45.837Z</time>
      </trkpt>
      <trkpt lat="20.25437167" lon="-98.73841">
        <ele>1975.0</ele>
        <time>2019-10-12T15:58:46.838Z</time>
      </trkpt>
      <trkpt lat="20.25436333" lon="-98.73842333">
        <ele>1975.0</ele>
        <time>2019-10-12T15:58:47.841Z</time>
      </trkpt>
      <trkpt lat="20.254355" lon="-98.73843833">
        <ele>1975.0</ele>
        <time>2019-10-12T15:58:48.848Z</time>
      </trkpt>
      <trkpt lat="20.25434833" lon="-98.73845333">
        <ele>1975.0</ele>
        <time>2019-10-12T15:58:49.849Z</time>
      </trkpt>
      <trkpt lat="20.25434167" lon="-98.73846667">
        <ele>1975.0</ele>
        <time>2019-10-12T15:58:50.851Z</time>
      </trkpt>
      <trkpt lat="20.25433333" lon="-98.73848167">
        <ele>1975.0</ele>
        <time>2019-10-12T15:58:51.856Z</time>
      </trkpt>
      <trkpt lat="20.25432667" lon="-98.738495">
        <ele>1975.0</ele>
        <time>2019-10-12T15:58:52.863Z</time>
      </trkpt>
      <trkpt lat="20.25432" lon="-98.73851">
        <ele>1975.0</ele>
        <time>2019-10-12T15:58:53.867Z</time>
      </trkpt>
      <trkpt lat="20.25431167" lon="-98.73852333">
        <ele>1975.0</ele>
        <time>2019-10-12T15:58:54.874Z</time>
      </trkpt>
      <trkpt lat="20.254305" lon="-98.73853833">
        <ele>1975.0</ele>
        <time>2019-10-12T15:58:55.882Z</time>
      </trkpt>
      <trkpt lat="20.2543" lon="-98.73855167">
        <ele>1975.0</ele>
        <time>2019-10-12T15:58:56.888Z</time>
      </trkpt>
      <trkpt lat="20.25429333" lon="-98.73856667">
        <ele>1975.0</ele>
        <time>2019-10-12T15:58:57.893Z</time>
      </trkpt>
      <trkpt lat="20.25428667" lon="-98.73858">
        <ele>1975.0</ele>
        <time>2019-10-12T15:58:58.899Z</time>
      </trkpt>
      <trkpt lat="20.25427833" lon="-98.73859167">
        <ele>1975.0</ele>
        <time>2019-10-12T15:58:59.901Z</time>
      </trkpt>
      <trkpt lat="20.25427" lon="-98.738605">
        <ele>1975.0</ele>
        <time>2019-10-12T15:59:00.907Z</time>
      </trkpt>
      <trkpt lat="20.25426167" lon="-98.73862">
        <ele>1975.0</ele>
        <time>2019-10-12T15:59:01.912Z</time>
      </trkpt>
      <trkpt lat="20.25425" lon="-98.73863">
        <ele>1976.0</ele>
        <time>2019-10-12T15:59:02.912Z</time>
      </trkpt>
      <trkpt lat="20.25424" lon="-98.73864167">
        <ele>1976.0</ele>
        <time>2019-10-12T15:59:03.913Z</time>
      </trkpt>
      <trkpt lat="20.25422833" lon="-98.73865167">
        <ele>1976.0</ele>
        <time>2019-10-12T15:59:04.914Z</time>
      </trkpt>
      <trkpt lat="20.25421667" lon="-98.73866167">
        <ele>1976.0</ele>
        <time>2019-10-12T15:59:05.915Z</time>
      </trkpt>
      <trkpt lat="20.254205" lon="-98.73867">
        <ele>1977.0</ele>
        <time>2019-10-12T15:59:06.916Z</time>
      </trkpt>
      <trkpt lat="20.25419167" lon="-98.73867833">
        <ele>1977.0</ele>
        <time>2019-10-12T15:59:07.917Z</time>
      </trkpt>
      <trkpt lat="20.25417833" lon="-98.73868667">
        <ele>1977.0</ele>
        <time>2019-10-12T15:59:08.917Z</time>
      </trkpt>
      <trkpt lat="20.254165" lon="-98.738695">
        <ele>1977.0</ele>
        <time>2019-10-12T15:59:09.918Z</time>
      </trkpt>
      <trkpt lat="20.25415333" lon="-98.738705">
        <ele>1977.0</ele>
        <time>2019-10-12T15:59:10.919Z</time>
      </trkpt>
      <trkpt lat="20.25414333" lon="-98.738715">
        <ele>1977.0</ele>
        <time>2019-10-12T15:59:11.920Z</time>
      </trkpt>
      <trkpt lat="20.25413333" lon="-98.738725">
        <ele>1978.0</ele>
        <time>2019-10-12T15:59:12.921Z</time>
      </trkpt>
      <trkpt lat="20.25412" lon="-98.73873333">
        <ele>1978.0</ele>
        <time>2019-10-12T15:59:13.921Z</time>
      </trkpt>
      <trkpt lat="20.25410667" lon="-98.73874167">
        <ele>1979.0</ele>
        <time>2019-10-12T15:59:14.922Z</time>
      </trkpt>
      <trkpt lat="20.25409333" lon="-98.73875">
        <ele>1979.0</ele>
        <time>2019-10-12T15:59:15.923Z</time>
      </trkpt>
      <trkpt lat="20.25408333" lon="-98.73876">
        <ele>1979.0</ele>
        <time>2019-10-12T15:59:16.924Z</time>
      </trkpt>
      <trkpt lat="20.25407333" lon="-98.73877333">
        <ele>1979.0</ele>
        <time>2019-10-12T15:59:17.925Z</time>
      </trkpt>
      <trkpt lat="20.25406167" lon="-98.73878333">
        <ele>1979.0</ele>
        <time>2019-10-12T15:59:18.925Z</time>
      </trkpt>
      <trkpt lat="20.25404833" lon="-98.73879667">
        <ele>1979.0</ele>
        <time>2019-10-12T15:59:19.926Z</time>
      </trkpt>
      <trkpt lat="20.254035" lon="-98.73880667">
        <ele>1979.0</ele>
        <time>2019-10-12T15:59:20.927Z</time>
      </trkpt>
      <trkpt lat="20.254025" lon="-98.73881833">
        <ele>1979.0</ele>
        <time>2019-10-12T15:59:21.928Z</time>
      </trkpt>
      <trkpt lat="20.254015" lon="-98.73882667">
        <ele>1978.0</ele>
        <time>2019-10-12T15:59:22.929Z</time>
      </trkpt>
      <trkpt lat="20.254005" lon="-98.738835">
        <ele>1978.0</ele>
        <time>2019-10-12T15:59:23.929Z</time>
      </trkpt>
      <trkpt lat="20.253995" lon="-98.738845">
        <ele>1978.0</ele>
        <time>2019-10-12T15:59:24.930Z</time>
      </trkpt>
      <trkpt lat="20.253985" lon="-98.73885667">
        <ele>1978.0</ele>
        <time>2019-10-12T15:59:25.930Z</time>
      </trkpt>
      <trkpt lat="20.25397333" lon="-98.73886833">
        <ele>1978.0</ele>
        <time>2019-10-12T15:59:26.935Z</time>
      </trkpt>
      <trkpt lat="20.25396333" lon="-98.73887833">
        <ele>1978.0</ele>
        <time>2019-10-12T15:59:27.941Z</time>
      </trkpt>
      <trkpt lat="20.25395167" lon="-98.73889">
        <ele>1978.0</ele>
        <time>2019-10-12T15:59:28.948Z</time>
      </trkpt>
      <trkpt lat="20.25394" lon="-98.73890667">
        <ele>1978.0</ele>
        <time>2019-10-12T15:59:29.954Z</time>
      </trkpt>
      <trkpt lat="20.25392667" lon="-98.73892333">
        <ele>1979.0</ele>
        <time>2019-10-12T15:59:30.833Z</time>
      </trkpt>
      <trkpt lat="20.253915" lon="-98.73893667">
        <ele>1979.0</ele>
        <time>2019-10-12T15:59:31.840Z</time>
      </trkpt>
      <trkpt lat="20.25390333" lon="-98.73895167">
        <ele>1979.0</ele>
        <time>2019-10-12T15:59:32.842Z</time>
      </trkpt>
      <trkpt lat="20.25389167" lon="-98.73896833">
        <ele>1979.0</ele>
        <time>2019-10-12T15:59:33.847Z</time>
      </trkpt>
      <trkpt lat="20.25388333" lon="-98.73898667">
        <ele>1979.0</ele>
        <time>2019-10-12T15:59:34.853Z</time>
      </trkpt>
      <trkpt lat="20.25387667" lon="-98.739005">
        <ele>1980.0</ele>
        <time>2019-10-12T15:59:35.859Z</time>
      </trkpt>
      <trkpt lat="20.25387333" lon="-98.73902">
        <ele>1979.0</ele>
        <time>2019-10-12T15:59:36.867Z</time>
      </trkpt>
      <trkpt lat="20.25386833" lon="-98.739035">
        <ele>1980.0</ele>
        <time>2019-10-12T15:59:37.872Z</time>
      </trkpt>
      <trkpt lat="20.25386167" lon="-98.73905167">
        <ele>1980.0</ele>
        <time>2019-10-12T15:59:38.874Z</time>
      </trkpt>
      <trkpt lat="20.25385667" lon="-98.73906833">
        <ele>1981.0</ele>
        <time>2019-10-12T15:59:39.879Z</time>
      </trkpt>
      <trkpt lat="20.25385167" lon="-98.739085">
        <ele>1981.0</ele>
        <time>2019-10-12T15:59:40.880Z</time>
      </trkpt>
      <trkpt lat="20.25384833" lon="-98.73910333">
        <ele>1981.0</ele>
        <time>2019-10-12T15:59:41.880Z</time>
      </trkpt>
      <trkpt lat="20.25385167" lon="-98.73912">
        <ele>1981.0</ele>
        <time>2019-10-12T15:59:42.881Z</time>
      </trkpt>
      <trkpt lat="20.25385667" lon="-98.73913833">
        <ele>1981.0</ele>
        <time>2019-10-12T15:59:43.882Z</time>
      </trkpt>
      <trkpt lat="20.25386" lon="-98.73915667">
        <ele>1982.0</ele>
        <time>2019-10-12T15:59:44.883Z</time>
      </trkpt>
      <trkpt lat="20.25386167" lon="-98.73917667">
        <ele>1982.0</ele>
        <time>2019-10-12T15:59:45.884Z</time>
      </trkpt>
      <trkpt lat="20.25387" lon="-98.73919167">
        <ele>1982.0</ele>
        <time>2019-10-12T15:59:46.884Z</time>
      </trkpt>
      <trkpt lat="20.253875" lon="-98.73920833">
        <ele>1982.0</ele>
        <time>2019-10-12T15:59:47.885Z</time>
      </trkpt>
      <trkpt lat="20.25388" lon="-98.73922667">
        <ele>1982.0</ele>
        <time>2019-10-12T15:59:48.885Z</time>
      </trkpt>
      <trkpt lat="20.253885" lon="-98.73924167">
        <ele>1983.0</ele>
        <time>2019-10-12T15:59:49.886Z</time>
      </trkpt>
      <trkpt lat="20.25388833" lon="-98.73925333">
        <ele>1983.0</ele>
        <time>2019-10-12T15:59:50.887Z</time>
      </trkpt>
      <trkpt lat="20.25389333" lon="-98.739265">
        <ele>1984.0</ele>
        <time>2019-10-12T15:59:51.887Z</time>
      </trkpt>
      <trkpt lat="20.25389833" lon="-98.73928">
        <ele>1984.0</ele>
        <time>2019-10-12T15:59:52.889Z</time>
      </trkpt>
      <trkpt lat="20.25389833" lon="-98.73929667">
        <ele>1984.0</ele>
        <time>2019-10-12T15:59:53.890Z</time>
      </trkpt>
      <trkpt lat="20.25389833" lon="-98.73931333">
        <ele>1984.0</ele>
        <time>2019-10-12T15:59:54.890Z</time>
      </trkpt>
      <trkpt lat="20.25389667" lon="-98.73933">
        <ele>1985.0</ele>
        <time>2019-10-12T15:59:55.891Z</time>
      </trkpt>
      <trkpt lat="20.25389167" lon="-98.73934667">
        <ele>1985.0</ele>
        <time>2019-10-12T15:59:56.892Z</time>
      </trkpt>
      <trkpt lat="20.25388333" lon="-98.73936167">
        <ele>1985.0</ele>
        <time>2019-10-12T15:59:57.893Z</time>
      </trkpt>
      <trkpt lat="20.25387167" lon="-98.73937167">
        <ele>1985.0</ele>
        <time>2019-10-12T15:59:58.896Z</time>
      </trkpt>
      <trkpt lat="20.25385833" lon="-98.73938167">
        <ele>1985.0</ele>
        <time>2019-10-12T15:59:59.904Z</time>
      </trkpt>
      <trkpt lat="20.25384333" lon="-98.73938833">
        <ele>1985.0</ele>
        <time>2019-10-12T16:00:00.909Z</time>
      </trkpt>
      <trkpt lat="20.25382667" lon="-98.739395">
        <ele>1985.0</ele>
        <time>2019-10-12T16:00:01.915Z</time>
      </trkpt>
      <trkpt lat="20.25381" lon="-98.7394">
        <ele>1984.0</ele>
        <time>2019-10-12T16:00:02.918Z</time>
      </trkpt>
      <trkpt lat="20.25379333" lon="-98.73940667">
        <ele>1984.0</ele>
        <time>2019-10-12T16:00:03.925Z</time>
      </trkpt>
      <trkpt lat="20.253775" lon="-98.73941333">
        <ele>1984.0</ele>
        <time>2019-10-12T16:00:04.932Z</time>
      </trkpt>
      <trkpt lat="20.25375667" lon="-98.73942">
        <ele>1984.0</ele>
        <time>2019-10-12T16:00:05.937Z</time>
      </trkpt>
      <trkpt lat="20.25374" lon="-98.73943">
        <ele>1984.0</ele>
        <time>2019-10-12T16:00:06.943Z</time>
      </trkpt>
      <trkpt lat="20.25372167" lon="-98.73943667">
        <ele>1984.0</ele>
        <time>2019-10-12T16:00:07.945Z</time>
      </trkpt>
      <trkpt lat="20.25370333" lon="-98.73944667">
        <ele>1984.0</ele>
        <time>2019-10-12T16:00:08.951Z</time>
      </trkpt>
      <trkpt lat="20.25368333" lon="-98.73945667">
        <ele>1984.0</ele>
        <time>2019-10-12T16:00:09.833Z</time>
      </trkpt>
      <trkpt lat="20.253665" lon="-98.73947">
        <ele>1984.0</ele>
        <time>2019-10-12T16:00:10.839Z</time>
      </trkpt>
      <trkpt lat="20.25364667" lon="-98.73948167">
        <ele>1983.0</ele>
        <time>2019-10-12T16:00:11.841Z</time>
      </trkpt>
      <trkpt lat="20.25363167" lon="-98.73949667">
        <ele>1983.0</ele>
        <time>2019-10-12T16:00:12.842Z</time>
      </trkpt>
      <trkpt lat="20.25361667" lon="-98.739515">
        <ele>1984.0</ele>
        <time>2019-10-12T16:00:13.843Z</time>
      </trkpt>
      <trkpt lat="20.25360167" lon="-98.73953167">
        <ele>1984.0</ele>
        <time>2019-10-12T16:00:14.847Z</time>
      </trkpt>
      <trkpt lat="20.25358333" lon="-98.73954333">
        <ele>1984.0</ele>
        <time>2019-10-12T16:00:15.853Z</time>
      </trkpt>
      <trkpt lat="20.25356333" lon="-98.73955167">
        <ele>1984.0</ele>
        <time>2019-10-12T16:00:16.857Z</time>
      </trkpt>
      <trkpt lat="20.25354333" lon="-98.73955333">
        <ele>1983.0</ele>
        <time>2019-10-12T16:00:17.863Z</time>
      </trkpt>
      <trkpt lat="20.25352167" lon="-98.73955333">
        <ele>1984.0</ele>
        <time>2019-10-12T16:00:18.868Z</time>
      </trkpt>
      <trkpt lat="20.25350167" lon="-98.73955167">
        <ele>1984.0</ele>
        <time>2019-10-12T16:00:19.873Z</time>
      </trkpt>
      <trkpt lat="20.25348333" lon="-98.73955">
        <ele>1984.0</ele>
        <time>2019-10-12T16:00:20.879Z</time>
      </trkpt>
      <trkpt lat="20.25346333" lon="-98.73954667">
        <ele>1984.0</ele>
        <time>2019-10-12T16:00:21.880Z</time>
      </trkpt>
      <trkpt lat="20.25344667" lon="-98.73954333">
        <ele>1984.0</ele>
        <time>2019-10-12T16:00:22.881Z</time>
      </trkpt>
      <trkpt lat="20.25342833" lon="-98.73954167">
        <ele>1984.0</ele>
        <time>2019-10-12T16:00:23.882Z</time>
      </trkpt>
      <trkpt lat="20.25340833" lon="-98.73953833">
        <ele>1984.0</ele>
        <time>2019-10-12T16:00:24.882Z</time>
      </trkpt>
      <trkpt lat="20.25339167" lon="-98.739535">
        <ele>1984.0</ele>
        <time>2019-10-12T16:00:25.884Z</time>
      </trkpt>
      <trkpt lat="20.25337167" lon="-98.73953333">
        <ele>1984.0</ele>
        <time>2019-10-12T16:00:26.886Z</time>
      </trkpt>
      <trkpt lat="20.25335167" lon="-98.73953">
        <ele>1984.0</ele>
        <time>2019-10-12T16:00:27.892Z</time>
      </trkpt>
      <trkpt lat="20.25333167" lon="-98.73952833">
        <ele>1984.0</ele>
        <time>2019-10-12T16:00:28.893Z</time>
      </trkpt>
      <trkpt lat="20.25331167" lon="-98.73952667">
        <ele>1984.0</ele>
        <time>2019-10-12T16:00:29.893Z</time>
      </trkpt>
      <trkpt lat="20.25329167" lon="-98.73952333">
        <ele>1985.0</ele>
        <time>2019-10-12T16:00:30.898Z</time>
      </trkpt>
      <trkpt lat="20.25327333" lon="-98.73952667">
        <ele>1985.0</ele>
        <time>2019-10-12T16:00:31.905Z</time>
      </trkpt>
      <trkpt lat="20.25325333" lon="-98.73953">
        <ele>1985.0</ele>
        <time>2019-10-12T16:00:32.912Z</time>
      </trkpt>
      <trkpt lat="20.25323167" lon="-98.73953333">
        <ele>1986.0</ele>
        <time>2019-10-12T16:00:33.917Z</time>
      </trkpt>
      <trkpt lat="20.253215" lon="-98.73954">
        <ele>1986.0</ele>
        <time>2019-10-12T16:00:34.918Z</time>
      </trkpt>
      <trkpt lat="20.25319833" lon="-98.73954667">
        <ele>1986.0</ele>
        <time>2019-10-12T16:00:35.919Z</time>
      </trkpt>
      <trkpt lat="20.25317833" lon="-98.739555">
        <ele>1986.0</ele>
        <time>2019-10-12T16:00:36.920Z</time>
      </trkpt>
      <trkpt lat="20.25316167" lon="-98.73956333">
        <ele>1986.0</ele>
        <time>2019-10-12T16:00:37.920Z</time>
      </trkpt>
      <trkpt lat="20.253145" lon="-98.73957333">
        <ele>1986.0</ele>
        <time>2019-10-12T16:00:38.921Z</time>
      </trkpt>
      <trkpt lat="20.25312667" lon="-98.73958333">
        <ele>1986.0</ele>
        <time>2019-10-12T16:00:39.922Z</time>
      </trkpt>
      <trkpt lat="20.25311333" lon="-98.739595">
        <ele>1986.0</ele>
        <time>2019-10-12T16:00:40.923Z</time>
      </trkpt>
      <trkpt lat="20.25309833" lon="-98.73961">
        <ele>1986.0</ele>
        <time>2019-10-12T16:00:41.924Z</time>
      </trkpt>
      <trkpt lat="20.25308667" lon="-98.739625">
        <ele>1986.0</ele>
        <time>2019-10-12T16:00:42.924Z</time>
      </trkpt>
      <trkpt lat="20.253075" lon="-98.73964167">
        <ele>1987.0</ele>
        <time>2019-10-12T16:00:43.925Z</time>
      </trkpt>
      <trkpt lat="20.25306167" lon="-98.73965833">
        <ele>1987.0</ele>
        <time>2019-10-12T16:00:44.926Z</time>
      </trkpt>
      <trkpt lat="20.25305167" lon="-98.73967667">
        <ele>1988.0</ele>
        <time>2019-10-12T16:00:45.927Z</time>
      </trkpt>
      <trkpt lat="20.25304" lon="-98.73969333">
        <ele>1988.0</ele>
        <time>2019-10-12T16:00:46.928Z</time>
      </trkpt>
      <trkpt lat="20.25303167" lon="-98.73971">
        <ele>1989.0</ele>
        <time>2019-10-12T16:00:47.929Z</time>
      </trkpt>
      <trkpt lat="20.253025" lon="-98.73972667">
        <ele>1989.0</ele>
        <time>2019-10-12T16:00:48.929Z</time>
      </trkpt>
      <trkpt lat="20.25301833" lon="-98.73974333">
        <ele>1989.0</ele>
        <time>2019-10-12T16:00:49.930Z</time>
      </trkpt>
      <trkpt lat="20.25301167" lon="-98.73976">
        <ele>1990.0</ele>
        <time>2019-10-12T16:00:50.931Z</time>
      </trkpt>
      <trkpt lat="20.25300167" lon="-98.739775">
        <ele>1990.0</ele>
        <time>2019-10-12T16:00:51.938Z</time>
      </trkpt>
      <trkpt lat="20.25299167" lon="-98.73979">
        <ele>1991.0</ele>
        <time>2019-10-12T16:00:52.945Z</time>
      </trkpt>
      <trkpt lat="20.25298333" lon="-98.739805">
        <ele>1992.0</ele>
        <time>2019-10-12T16:00:53.952Z</time>
      </trkpt>
      <trkpt lat="20.25297833" lon="-98.73982333">
        <ele>1992.0</ele>
        <time>2019-10-12T16:00:54.833Z</time>
      </trkpt>
      <trkpt lat="20.25297167" lon="-98.73983833">
        <ele>1992.0</ele>
        <time>2019-10-12T16:00:55.840Z</time>
      </trkpt>
      <trkpt lat="20.252965" lon="-98.73985833">
        <ele>1993.0</ele>
        <time>2019-10-12T16:00:56.843Z</time>
      </trkpt>
      <trkpt lat="20.25295667" lon="-98.73987667">
        <ele>1993.0</ele>
        <time>2019-10-12T16:00:57.847Z</time>
      </trkpt>
      <trkpt lat="20.25295333" lon="-98.739895">
        <ele>1993.0</ele>
        <time>2019-10-12T16:00:58.854Z</time>
      </trkpt>
      <trkpt lat="20.25294833" lon="-98.73991">
        <ele>1993.0</ele>
        <time>2019-10-12T16:00:59.861Z</time>
      </trkpt>
      <trkpt lat="20.25294333" lon="-98.73992833">
        <ele>1993.0</ele>
        <time>2019-10-12T16:01:00.867Z</time>
      </trkpt>
      <trkpt lat="20.25293833" lon="-98.73994667">
        <ele>1993.0</ele>
        <time>2019-10-12T16:01:01.871Z</time>
      </trkpt>
      <trkpt lat="20.252935" lon="-98.739965">
        <ele>1993.0</ele>
        <time>2019-10-12T16:01:02.876Z</time>
      </trkpt>
      <trkpt lat="20.25293" lon="-98.73998333">
        <ele>1993.0</ele>
        <time>2019-10-12T16:01:03.879Z</time>
      </trkpt>
      <trkpt lat="20.25292833" lon="-98.74000333">
        <ele>1993.0</ele>
        <time>2019-10-12T16:01:04.880Z</time>
      </trkpt>
      <trkpt lat="20.252925" lon="-98.74002167">
        <ele>1993.0</ele>
        <time>2019-10-12T16:01:05.886Z</time>
      </trkpt>
      <trkpt lat="20.25292333" lon="-98.74004167">
        <ele>1993.0</ele>
        <time>2019-10-12T16:01:06.893Z</time>
      </trkpt>
      <trkpt lat="20.25292333" lon="-98.74006167">
        <ele>1993.0</ele>
        <time>2019-10-12T16:01:07.899Z</time>
      </trkpt>
      <trkpt lat="20.25292167" lon="-98.74008">
        <ele>1993.0</ele>
        <time>2019-10-12T16:01:08.903Z</time>
      </trkpt>
      <trkpt lat="20.25292333" lon="-98.7401">
        <ele>1993.0</ele>
        <time>2019-10-12T16:01:09.904Z</time>
      </trkpt>
      <trkpt lat="20.252925" lon="-98.74012">
        <ele>1993.0</ele>
        <time>2019-10-12T16:01:10.905Z</time>
      </trkpt>
      <trkpt lat="20.252925" lon="-98.74013833">
        <ele>1993.0</ele>
        <time>2019-10-12T16:01:11.907Z</time>
      </trkpt>
      <trkpt lat="20.252925" lon="-98.74015833">
        <ele>1992.0</ele>
        <time>2019-10-12T16:01:12.915Z</time>
      </trkpt>
      <trkpt lat="20.252925" lon="-98.740175">
        <ele>1992.0</ele>
        <time>2019-10-12T16:01:13.919Z</time>
      </trkpt>
      <trkpt lat="20.25292333" lon="-98.74019667">
        <ele>1992.0</ele>
        <time>2019-10-12T16:01:14.922Z</time>
      </trkpt>
      <trkpt lat="20.25292167" lon="-98.74021667">
        <ele>1992.0</ele>
        <time>2019-10-12T16:01:15.929Z</time>
      </trkpt>
      <trkpt lat="20.25292" lon="-98.74023333">
        <ele>1992.0</ele>
        <time>2019-10-12T16:01:16.932Z</time>
      </trkpt>
      <trkpt lat="20.25291667" lon="-98.74025">
        <ele>1991.0</ele>
        <time>2019-10-12T16:01:17.936Z</time>
      </trkpt>
      <trkpt lat="20.25291333" lon="-98.74026833">
        <ele>1991.0</ele>
        <time>2019-10-12T16:01:18.943Z</time>
      </trkpt>
      <trkpt lat="20.25291167" lon="-98.74028667">
        <ele>1991.0</ele>
        <time>2019-10-12T16:01:19.948Z</time>
      </trkpt>
      <trkpt lat="20.25290833" lon="-98.740305">
        <ele>1991.0</ele>
        <time>2019-10-12T16:01:20.953Z</time>
      </trkpt>
      <trkpt lat="20.25290167" lon="-98.74032167">
        <ele>1992.0</ele>
        <time>2019-10-12T16:01:21.954Z</time>
      </trkpt>
      <trkpt lat="20.25289667" lon="-98.74034">
        <ele>1992.0</ele>
        <time>2019-10-12T16:01:22.954Z</time>
      </trkpt>
      <trkpt lat="20.25288833" lon="-98.74035833">
        <ele>1992.0</ele>
        <time>2019-10-12T16:01:23.830Z</time>
      </trkpt>
      <trkpt lat="20.25287833" lon="-98.74037333">
        <ele>1992.0</ele>
        <time>2019-10-12T16:01:24.830Z</time>
      </trkpt>
      <trkpt lat="20.25286667" lon="-98.74038667">
        <ele>1991.0</ele>
        <time>2019-10-12T16:01:25.831Z</time>
      </trkpt>
      <trkpt lat="20.25285667" lon="-98.7404">
        <ele>1991.0</ele>
        <time>2019-10-12T16:01:26.831Z</time>
      </trkpt>
      <trkpt lat="20.252845" lon="-98.740415">
        <ele>1992.0</ele>
        <time>2019-10-12T16:01:27.832Z</time>
      </trkpt>
      <trkpt lat="20.25283333" lon="-98.74042833">
        <ele>1992.0</ele>
        <time>2019-10-12T16:01:28.832Z</time>
      </trkpt>
      <trkpt lat="20.25282" lon="-98.74044">
        <ele>1992.0</ele>
        <time>2019-10-12T16:01:29.833Z</time>
      </trkpt>
      <trkpt lat="20.252805" lon="-98.74045">
        <ele>1991.0</ele>
        <time>2019-10-12T16:01:30.833Z</time>
      </trkpt>
      <trkpt lat="20.25278667" lon="-98.74046">
        <ele>1991.0</ele>
        <time>2019-10-12T16:01:31.834Z</time>
      </trkpt>
      <trkpt lat="20.25277333" lon="-98.74047333">
        <ele>1991.0</ele>
        <time>2019-10-12T16:01:32.834Z</time>
      </trkpt>
      <trkpt lat="20.25275833" lon="-98.74048833">
        <ele>1990.0</ele>
        <time>2019-10-12T16:01:33.834Z</time>
      </trkpt>
      <trkpt lat="20.25274333" lon="-98.74050167">
        <ele>1990.0</ele>
        <time>2019-10-12T16:01:34.835Z</time>
      </trkpt>
      <trkpt lat="20.25272833" lon="-98.74051667">
        <ele>1989.0</ele>
        <time>2019-10-12T16:01:35.836Z</time>
      </trkpt>
      <trkpt lat="20.25271333" lon="-98.74052833">
        <ele>1989.0</ele>
        <time>2019-10-12T16:01:36.836Z</time>
      </trkpt>
      <trkpt lat="20.25269667" lon="-98.740545">
        <ele>1989.0</ele>
        <time>2019-10-12T16:01:37.836Z</time>
      </trkpt>
      <trkpt lat="20.25268333" lon="-98.74056167">
        <ele>1989.0</ele>
        <time>2019-10-12T16:01:38.840Z</time>
      </trkpt>
      <trkpt lat="20.25266833" lon="-98.74057833">
        <ele>1989.0</ele>
        <time>2019-10-12T16:01:39.847Z</time>
      </trkpt>
      <trkpt lat="20.25265333" lon="-98.74059667">
        <ele>1989.0</ele>
        <time>2019-10-12T16:01:40.852Z</time>
      </trkpt>
      <trkpt lat="20.25263833" lon="-98.74061167">
        <ele>1989.0</ele>
        <time>2019-10-12T16:01:41.856Z</time>
      </trkpt>
      <trkpt lat="20.25262333" lon="-98.74062833">
        <ele>1989.0</ele>
        <time>2019-10-12T16:01:42.858Z</time>
      </trkpt>
      <trkpt lat="20.25260833" lon="-98.74064833">
        <ele>1989.0</ele>
        <time>2019-10-12T16:01:43.862Z</time>
      </trkpt>
      <trkpt lat="20.25259333" lon="-98.740665">
        <ele>1988.0</ele>
        <time>2019-10-12T16:01:44.864Z</time>
      </trkpt>
      <trkpt lat="20.25257833" lon="-98.74068167">
        <ele>1989.0</ele>
        <time>2019-10-12T16:01:45.867Z</time>
      </trkpt>
      <trkpt lat="20.25256667" lon="-98.74070167">
        <ele>1989.0</ele>
        <time>2019-10-12T16:01:46.869Z</time>
      </trkpt>
      <trkpt lat="20.25255167" lon="-98.74071833">
        <ele>1989.0</ele>
        <time>2019-10-12T16:01:47.873Z</time>
      </trkpt>
      <trkpt lat="20.25254" lon="-98.74073333">
        <ele>1989.0</ele>
        <time>2019-10-12T16:01:48.881Z</time>
      </trkpt>
      <trkpt lat="20.25252667" lon="-98.74075">
        <ele>1989.0</ele>
        <time>2019-10-12T16:01:49.887Z</time>
      </trkpt>
      <trkpt lat="20.25251167" lon="-98.74076667">
        <ele>1988.0</ele>
        <time>2019-10-12T16:01:50.893Z</time>
      </trkpt>
      <trkpt lat="20.25249833" lon="-98.74078333">
        <ele>1988.0</ele>
        <time>2019-10-12T16:01:51.896Z</time>
      </trkpt>
      <trkpt lat="20.252485" lon="-98.74080333">
        <ele>1989.0</ele>
        <time>2019-10-12T16:01:52.901Z</time>
      </trkpt>
      <trkpt lat="20.25247167" lon="-98.74082333">
        <ele>1988.0</ele>
        <time>2019-10-12T16:01:53.906Z</time>
      </trkpt>
      <trkpt lat="20.25246167" lon="-98.74084333">
        <ele>1988.0</ele>
        <time>2019-10-12T16:01:54.906Z</time>
      </trkpt>
      <trkpt lat="20.252455" lon="-98.74086667">
        <ele>1988.0</ele>
        <time>2019-10-12T16:01:55.907Z</time>
      </trkpt>
      <trkpt lat="20.25245" lon="-98.74089">
        <ele>1988.0</ele>
        <time>2019-10-12T16:01:56.908Z</time>
      </trkpt>
      <trkpt lat="20.25244667" lon="-98.74091333">
        <ele>1988.0</ele>
        <time>2019-10-12T16:01:57.909Z</time>
      </trkpt>
      <trkpt lat="20.25244167" lon="-98.74093667">
        <ele>1988.0</ele>
        <time>2019-10-12T16:01:58.910Z</time>
      </trkpt>
      <trkpt lat="20.25243667" lon="-98.74096333">
        <ele>1988.0</ele>
        <time>2019-10-12T16:01:59.910Z</time>
      </trkpt>
      <trkpt lat="20.25243333" lon="-98.74099">
        <ele>1988.0</ele>
        <time>2019-10-12T16:02:00.911Z</time>
      </trkpt>
      <trkpt lat="20.252435" lon="-98.741015">
        <ele>1988.0</ele>
        <time>2019-10-12T16:02:01.912Z</time>
      </trkpt>
      <trkpt lat="20.25243833" lon="-98.74103833">
        <ele>1988.0</ele>
        <time>2019-10-12T16:02:02.913Z</time>
      </trkpt>
      <trkpt lat="20.25244167" lon="-98.74106167">
        <ele>1988.0</ele>
        <time>2019-10-12T16:02:03.914Z</time>
      </trkpt>
      <trkpt lat="20.25245" lon="-98.74108667">
        <ele>1989.0</ele>
        <time>2019-10-12T16:02:04.914Z</time>
      </trkpt>
      <trkpt lat="20.25246" lon="-98.74110833">
        <ele>1989.0</ele>
        <time>2019-10-12T16:02:05.915Z</time>
      </trkpt>
      <trkpt lat="20.25247167" lon="-98.74113">
        <ele>1989.0</ele>
        <time>2019-10-12T16:02:06.916Z</time>
      </trkpt>
      <trkpt lat="20.25248167" lon="-98.74115">
        <ele>1988.0</ele>
        <time>2019-10-12T16:02:07.917Z</time>
      </trkpt>
      <trkpt lat="20.25248667" lon="-98.74116833">
        <ele>1988.0</ele>
        <time>2019-10-12T16:02:08.923Z</time>
      </trkpt>
      <trkpt lat="20.25248833" lon="-98.74118833">
        <ele>1988.0</ele>
        <time>2019-10-12T16:02:09.930Z</time>
      </trkpt>
      <trkpt lat="20.25248833" lon="-98.74121">
        <ele>1987.0</ele>
        <time>2019-10-12T16:02:10.936Z</time>
      </trkpt>
      <trkpt lat="20.25248167" lon="-98.74123167">
        <ele>1987.0</ele>
        <time>2019-10-12T16:02:11.940Z</time>
      </trkpt>
      <trkpt lat="20.25247333" lon="-98.74124833">
        <ele>1987.0</ele>
        <time>2019-10-12T16:02:12.944Z</time>
      </trkpt>
      <trkpt lat="20.25246167" lon="-98.74126167">
        <ele>1987.0</ele>
        <time>2019-10-12T16:02:13.951Z</time>
      </trkpt>
      <trkpt lat="20.252445" lon="-98.74126833">
        <ele>1987.0</ele>
        <time>2019-10-12T16:02:14.954Z</time>
      </trkpt>
      <trkpt lat="20.25242667" lon="-98.74127">
        <ele>1987.0</ele>
        <time>2019-10-12T16:02:15.833Z</time>
      </trkpt>
      <trkpt lat="20.252405" lon="-98.74127">
        <ele>1987.0</ele>
        <time>2019-10-12T16:02:16.839Z</time>
      </trkpt>
      <trkpt lat="20.25238667" lon="-98.74126667">
        <ele>1987.0</ele>
        <time>2019-10-12T16:02:17.843Z</time>
      </trkpt>
      <trkpt lat="20.25236667" lon="-98.74126">
        <ele>1987.0</ele>
        <time>2019-10-12T16:02:18.849Z</time>
      </trkpt>
      <trkpt lat="20.25234833" lon="-98.74125667">
        <ele>1987.0</ele>
        <time>2019-10-12T16:02:19.855Z</time>
      </trkpt>
      <trkpt lat="20.25232833" lon="-98.74125167">
        <ele>1988.0</ele>
        <time>2019-10-12T16:02:20.858Z</time>
      </trkpt>
      <trkpt lat="20.25230667" lon="-98.741245">
        <ele>1988.0</ele>
        <time>2019-10-12T16:02:21.862Z</time>
      </trkpt>
      <trkpt lat="20.25228167" lon="-98.74124">
        <ele>1988.0</ele>
        <time>2019-10-12T16:02:22.868Z</time>
      </trkpt>
      <trkpt lat="20.25225833" lon="-98.74123667">
        <ele>1988.0</ele>
        <time>2019-10-12T16:02:23.875Z</time>
      </trkpt>
      <trkpt lat="20.25223333" lon="-98.74123333">
        <ele>1988.0</ele>
        <time>2019-10-12T16:02:24.882Z</time>
      </trkpt>
      <trkpt lat="20.25220833" lon="-98.74123167">
        <ele>1988.0</ele>
        <time>2019-10-12T16:02:25.887Z</time>
      </trkpt>
      <trkpt lat="20.25218333" lon="-98.74123333">
        <ele>1988.0</ele>
        <time>2019-10-12T16:02:26.888Z</time>
      </trkpt>
      <trkpt lat="20.25215833" lon="-98.74123167">
        <ele>1988.0</ele>
        <time>2019-10-12T16:02:27.892Z</time>
      </trkpt>
      <trkpt lat="20.25213667" lon="-98.74123">
        <ele>1989.0</ele>
        <time>2019-10-12T16:02:28.898Z</time>
      </trkpt>
      <trkpt lat="20.25211333" lon="-98.74122833">
        <ele>1989.0</ele>
        <time>2019-10-12T16:02:29.902Z</time>
      </trkpt>
      <trkpt lat="20.25209" lon="-98.74123">
        <ele>1989.0</ele>
        <time>2019-10-12T16:02:30.906Z</time>
      </trkpt>
      <trkpt lat="20.252065" lon="-98.74123333">
        <ele>1988.0</ele>
        <time>2019-10-12T16:02:31.909Z</time>
      </trkpt>
      <trkpt lat="20.25204167" lon="-98.74123667">
        <ele>1988.0</ele>
        <time>2019-10-12T16:02:32.910Z</time>
      </trkpt>
      <trkpt lat="20.25201833" lon="-98.74124">
        <ele>1988.0</ele>
        <time>2019-10-12T16:02:33.910Z</time>
      </trkpt>
      <trkpt lat="20.251995" lon="-98.74124667">
        <ele>1988.0</ele>
        <time>2019-10-12T16:02:34.916Z</time>
      </trkpt>
      <trkpt lat="20.25197333" lon="-98.74125333">
        <ele>1988.0</ele>
        <time>2019-10-12T16:02:35.922Z</time>
      </trkpt>
      <trkpt lat="20.25195167" lon="-98.74126167">
        <ele>1988.0</ele>
        <time>2019-10-12T16:02:36.929Z</time>
      </trkpt>
      <trkpt lat="20.25193333" lon="-98.74127">
        <ele>1989.0</ele>
        <time>2019-10-12T16:02:37.929Z</time>
      </trkpt>
      <trkpt lat="20.25191333" lon="-98.74127333">
        <ele>1989.0</ele>
        <time>2019-10-12T16:02:38.932Z</time>
      </trkpt>
      <trkpt lat="20.25189167" lon="-98.74127167">
        <ele>1989.0</ele>
        <time>2019-10-12T16:02:39.936Z</time>
      </trkpt>
      <trkpt lat="20.25187333" lon="-98.74127167">
        <ele>1989.0</ele>
        <time>2019-10-12T16:02:40.941Z</time>
      </trkpt>
      <trkpt lat="20.251855" lon="-98.74126667">
        <ele>1990.0</ele>
        <time>2019-10-12T16:02:41.948Z</time>
      </trkpt>
      <trkpt lat="20.25184" lon="-98.74125833">
        <ele>1991.0</ele>
        <time>2019-10-12T16:02:42.953Z</time>
      </trkpt>
      <trkpt lat="20.25182667" lon="-98.74124667">
        <ele>1992.0</ele>
        <time>2019-10-12T16:02:43.831Z</time>
      </trkpt>
      <trkpt lat="20.25181667" lon="-98.74123167">
        <ele>1993.0</ele>
        <time>2019-10-12T16:02:44.838Z</time>
      </trkpt>
      <trkpt lat="20.25180667" lon="-98.74121667">
        <ele>1993.0</ele>
        <time>2019-10-12T16:02:45.842Z</time>
      </trkpt>
      <trkpt lat="20.2518" lon="-98.74120167">
        <ele>1994.0</ele>
        <time>2019-10-12T16:02:46.847Z</time>
      </trkpt>
      <trkpt lat="20.25179333" lon="-98.74118667">
        <ele>1994.0</ele>
        <time>2019-10-12T16:02:47.852Z</time>
      </trkpt>
      <trkpt lat="20.25178833" lon="-98.74117">
        <ele>1995.0</ele>
        <time>2019-10-12T16:02:48.857Z</time>
      </trkpt>
      <trkpt lat="20.25178167" lon="-98.74115667">
        <ele>1996.0</ele>
        <time>2019-10-12T16:02:49.860Z</time>
      </trkpt>
      <trkpt lat="20.25177333" lon="-98.74114667">
        <ele>1997.0</ele>
        <time>2019-10-12T16:02:50.863Z</time>
      </trkpt>
      <trkpt lat="20.25176" lon="-98.74113833">
        <ele>1997.0</ele>
        <time>2019-10-12T16:02:51.867Z</time>
      </trkpt>
      <trkpt lat="20.25174833" lon="-98.74112667">
        <ele>1998.0</ele>
        <time>2019-10-12T16:02:52.873Z</time>
      </trkpt>
      <trkpt lat="20.251735" lon="-98.741115">
        <ele>1998.0</ele>
        <time>2019-10-12T16:02:53.877Z</time>
      </trkpt>
      <trkpt lat="20.25172167" lon="-98.74110333">
        <ele>1999.0</ele>
        <time>2019-10-12T16:02:54.878Z</time>
      </trkpt>
      <trkpt lat="20.25170833" lon="-98.74109167">
        <ele>1999.0</ele>
        <time>2019-10-12T16:02:55.879Z</time>
      </trkpt>
      <trkpt lat="20.251695" lon="-98.74108333">
        <ele>2000.0</ele>
        <time>2019-10-12T16:02:56.880Z</time>
      </trkpt>
      <trkpt lat="20.25168" lon="-98.74107667">
        <ele>2000.0</ele>
        <time>2019-10-12T16:02:57.881Z</time>
      </trkpt>
      <trkpt lat="20.25166333" lon="-98.74106833">
        <ele>2000.0</ele>
        <time>2019-10-12T16:02:58.885Z</time>
      </trkpt>
      <trkpt lat="20.25164667" lon="-98.74106333">
        <ele>1999.0</ele>
        <time>2019-10-12T16:02:59.891Z</time>
      </trkpt>
      <trkpt lat="20.25163" lon="-98.74106">
        <ele>1999.0</ele>
        <time>2019-10-12T16:03:00.896Z</time>
      </trkpt>
      <trkpt lat="20.25161333" lon="-98.74105833">
        <ele>1999.0</ele>
        <time>2019-10-12T16:03:01.902Z</time>
      </trkpt>
      <trkpt lat="20.251595" lon="-98.74105667">
        <ele>1999.0</ele>
        <time>2019-10-12T16:03:02.907Z</time>
      </trkpt>
      <trkpt lat="20.251575" lon="-98.74105667">
        <ele>2000.0</ele>
        <time>2019-10-12T16:03:03.912Z</time>
      </trkpt>
      <trkpt lat="20.25155667" lon="-98.74106">
        <ele>2000.0</ele>
        <time>2019-10-12T16:03:04.917Z</time>
      </trkpt>
      <trkpt lat="20.25154167" lon="-98.741065">
        <ele>1999.0</ele>
        <time>2019-10-12T16:03:05.924Z</time>
      </trkpt>
      <trkpt lat="20.25152833" lon="-98.74107333">
        <ele>1999.0</ele>
        <time>2019-10-12T16:03:06.929Z</time>
      </trkpt>
      <trkpt lat="20.25151333" lon="-98.74108333">
        <ele>1999.0</ele>
        <time>2019-10-12T16:03:07.932Z</time>
      </trkpt>
      <trkpt lat="20.25149667" lon="-98.74109167">
        <ele>1999.0</ele>
        <time>2019-10-12T16:03:08.936Z</time>
      </trkpt>
      <trkpt lat="20.251485" lon="-98.741105">
        <ele>1999.0</ele>
        <time>2019-10-12T16:03:09.944Z</time>
      </trkpt>
      <trkpt lat="20.251475" lon="-98.74111833">
        <ele>1998.0</ele>
        <time>2019-10-12T16:03:10.951Z</time>
      </trkpt>
      <trkpt lat="20.251465" lon="-98.74113167">
        <ele>1998.0</ele>
        <time>2019-10-12T16:03:11.954Z</time>
      </trkpt>
      <trkpt lat="20.251455" lon="-98.741145">
        <ele>1997.0</ele>
        <time>2019-10-12T16:03:12.830Z</time>
      </trkpt>
      <trkpt lat="20.251445" lon="-98.74116">
        <ele>1997.0</ele>
        <time>2019-10-12T16:03:13.831Z</time>
      </trkpt>
      <trkpt lat="20.251435" lon="-98.74117167">
        <ele>1996.0</ele>
        <time>2019-10-12T16:03:14.836Z</time>
      </trkpt>
      <trkpt lat="20.25142333" lon="-98.74118167">
        <ele>1996.0</ele>
        <time>2019-10-12T16:03:15.843Z</time>
      </trkpt>
      <trkpt lat="20.25141167" lon="-98.74119167">
        <ele>1996.0</ele>
        <time>2019-10-12T16:03:16.850Z</time>
      </trkpt>
      <trkpt lat="20.25139833" lon="-98.74120167">
        <ele>1996.0</ele>
        <time>2019-10-12T16:03:17.855Z</time>
      </trkpt>
      <trkpt lat="20.251385" lon="-98.74121167">
        <ele>1996.0</ele>
        <time>2019-10-12T16:03:18.859Z</time>
      </trkpt>
      <trkpt lat="20.25137" lon="-98.74122167">
        <ele>1997.0</ele>
        <time>2019-10-12T16:03:19.864Z</time>
      </trkpt>
      <trkpt lat="20.251355" lon="-98.74122833">
        <ele>1997.0</ele>
        <time>2019-10-12T16:03:20.868Z</time>
      </trkpt>
      <trkpt lat="20.25133667" lon="-98.741235">
        <ele>1997.0</ele>
        <time>2019-10-12T16:03:21.875Z</time>
      </trkpt>
      <trkpt lat="20.25131667" lon="-98.74123833">
        <ele>1996.0</ele>
        <time>2019-10-12T16:03:22.879Z</time>
      </trkpt>
      <trkpt lat="20.251295" lon="-98.74124">
        <ele>1996.0</ele>
        <time>2019-10-12T16:03:23.883Z</time>
      </trkpt>
      <trkpt lat="20.25127333" lon="-98.74124167">
        <ele>1996.0</ele>
        <time>2019-10-12T16:03:24.888Z</time>
      </trkpt>
      <trkpt lat="20.25125333" lon="-98.74124333">
        <ele>1997.0</ele>
        <time>2019-10-12T16:03:25.892Z</time>
      </trkpt>
      <trkpt lat="20.25123667" lon="-98.74124667">
        <ele>1997.0</ele>
        <time>2019-10-12T16:03:26.895Z</time>
      </trkpt>
      <trkpt lat="20.25121833" lon="-98.74125333">
        <ele>1997.0</ele>
        <time>2019-10-12T16:03:27.901Z</time>
      </trkpt>
      <trkpt lat="20.2512" lon="-98.74125833">
        <ele>1997.0</ele>
        <time>2019-10-12T16:03:28.904Z</time>
      </trkpt>
      <trkpt lat="20.25118" lon="-98.74126167">
        <ele>1998.0</ele>
        <time>2019-10-12T16:03:29.905Z</time>
      </trkpt>
      <trkpt lat="20.25116167" lon="-98.74127167">
        <ele>1998.0</ele>
        <time>2019-10-12T16:03:30.906Z</time>
      </trkpt>
      <trkpt lat="20.251145" lon="-98.74128333">
        <ele>1998.0</ele>
        <time>2019-10-12T16:03:31.907Z</time>
      </trkpt>
      <trkpt lat="20.25113167" lon="-98.741295">
        <ele>1998.0</ele>
        <time>2019-10-12T16:03:32.908Z</time>
      </trkpt>
      <trkpt lat="20.25111833" lon="-98.74131">
        <ele>1998.0</ele>
        <time>2019-10-12T16:03:33.913Z</time>
      </trkpt>
      <trkpt lat="20.25110667" lon="-98.74132667">
        <ele>1999.0</ele>
        <time>2019-10-12T16:03:34.919Z</time>
      </trkpt>
      <trkpt lat="20.251095" lon="-98.74133833">
        <ele>1999.0</ele>
        <time>2019-10-12T16:03:35.925Z</time>
      </trkpt>
      <trkpt lat="20.251085" lon="-98.74135167">
        <ele>1999.0</ele>
        <time>2019-10-12T16:03:36.931Z</time>
      </trkpt>
      <trkpt lat="20.25107667" lon="-98.741365">
        <ele>1999.0</ele>
        <time>2019-10-12T16:03:37.935Z</time>
      </trkpt>
      <trkpt lat="20.25107" lon="-98.74138167">
        <ele>1999.0</ele>
        <time>2019-10-12T16:03:38.938Z</time>
      </trkpt>
      <trkpt lat="20.251065" lon="-98.7414">
        <ele>1999.0</ele>
        <time>2019-10-12T16:03:39.944Z</time>
      </trkpt>
      <trkpt lat="20.25106" lon="-98.74141667">
        <ele>1999.0</ele>
        <time>2019-10-12T16:03:40.950Z</time>
      </trkpt>
      <trkpt lat="20.25105667" lon="-98.74143333">
        <ele>2000.0</ele>
        <time>2019-10-12T16:03:41.955Z</time>
      </trkpt>
      <trkpt lat="20.25105167" lon="-98.74145">
        <ele>2000.0</ele>
        <time>2019-10-12T16:03:42.833Z</time>
      </trkpt>
      <trkpt lat="20.251045" lon="-98.74146333">
        <ele>2000.0</ele>
        <time>2019-10-12T16:03:43.837Z</time>
      </trkpt>
      <trkpt lat="20.25103833" lon="-98.74148">
        <ele>2001.0</ele>
        <time>2019-10-12T16:03:44.842Z</time>
      </trkpt>
      <trkpt lat="20.25103167" lon="-98.74149167">
        <ele>2001.0</ele>
        <time>2019-10-12T16:03:45.848Z</time>
      </trkpt>
      <trkpt lat="20.251025" lon="-98.74150333">
        <ele>2001.0</ele>
        <time>2019-10-12T16:03:46.854Z</time>
      </trkpt>
      <trkpt lat="20.25101667" lon="-98.741515">
        <ele>2001.0</ele>
        <time>2019-10-12T16:03:47.857Z</time>
      </trkpt>
      <trkpt lat="20.25100833" lon="-98.74152333">
        <ele>2001.0</ele>
        <time>2019-10-12T16:03:48.861Z</time>
      </trkpt>
      <trkpt lat="20.251" lon="-98.74153833">
        <ele>2002.0</ele>
        <time>2019-10-12T16:03:49.865Z</time>
      </trkpt>
      <trkpt lat="20.250995" lon="-98.74155">
        <ele>2002.0</ele>
        <time>2019-10-12T16:03:50.870Z</time>
      </trkpt>
      <trkpt lat="20.25099" lon="-98.741565">
        <ele>2002.0</ele>
        <time>2019-10-12T16:03:51.873Z</time>
      </trkpt>
      <trkpt lat="20.250985" lon="-98.74157667">
        <ele>2002.0</ele>
        <time>2019-10-12T16:03:52.880Z</time>
      </trkpt>
      <trkpt lat="20.250975" lon="-98.74158833">
        <ele>2003.0</ele>
        <time>2019-10-12T16:03:53.883Z</time>
      </trkpt>
      <trkpt lat="20.250965" lon="-98.74160167">
        <ele>2004.0</ele>
        <time>2019-10-12T16:03:54.884Z</time>
      </trkpt>
      <trkpt lat="20.25095667" lon="-98.74161333">
        <ele>2004.0</ele>
        <time>2019-10-12T16:03:55.885Z</time>
      </trkpt>
      <trkpt lat="20.25094833" lon="-98.74162">
        <ele>2004.0</ele>
        <time>2019-10-12T16:03:56.885Z</time>
      </trkpt>
      <trkpt lat="20.25094167" lon="-98.74162833">
        <ele>2004.0</ele>
        <time>2019-10-12T16:03:57.886Z</time>
      </trkpt>
      <trkpt lat="20.25093333" lon="-98.74163667">
        <ele>2004.0</ele>
        <time>2019-10-12T16:03:58.890Z</time>
      </trkpt>
      <trkpt lat="20.250925" lon="-98.74164667">
        <ele>2005.0</ele>
        <time>2019-10-12T16:03:59.897Z</time>
      </trkpt>
      <trkpt lat="20.25091333" lon="-98.741655">
        <ele>2005.0</ele>
        <time>2019-10-12T16:04:00.901Z</time>
      </trkpt>
      <trkpt lat="20.2509" lon="-98.74166333">
        <ele>2006.0</ele>
        <time>2019-10-12T16:04:01.910Z</time>
      </trkpt>
      <trkpt lat="20.250885" lon="-98.74167">
        <ele>2006.0</ele>
        <time>2019-10-12T16:04:02.917Z</time>
      </trkpt>
      <trkpt lat="20.25087167" lon="-98.74167833">
        <ele>2006.0</ele>
        <time>2019-10-12T16:04:03.923Z</time>
      </trkpt>
      <trkpt lat="20.25086167" lon="-98.74168833">
        <ele>2006.0</ele>
        <time>2019-10-12T16:04:04.925Z</time>
      </trkpt>
      <trkpt lat="20.25085" lon="-98.7417">
        <ele>2007.0</ele>
        <time>2019-10-12T16:04:05.932Z</time>
      </trkpt>
      <trkpt lat="20.25083833" lon="-98.74171">
        <ele>2007.0</ele>
        <time>2019-10-12T16:04:06.932Z</time>
      </trkpt>
      <trkpt lat="20.25082667" lon="-98.74172167">
        <ele>2007.0</ele>
        <time>2019-10-12T16:04:07.933Z</time>
      </trkpt>
      <trkpt lat="20.250815" lon="-98.74173167">
        <ele>2008.0</ele>
        <time>2019-10-12T16:04:08.934Z</time>
      </trkpt>
      <trkpt lat="20.250805" lon="-98.741745">
        <ele>2008.0</ele>
        <time>2019-10-12T16:04:09.935Z</time>
      </trkpt>
      <trkpt lat="20.25079667" lon="-98.74176">
        <ele>2008.0</ele>
        <time>2019-10-12T16:04:10.939Z</time>
      </trkpt>
      <trkpt lat="20.25079" lon="-98.74177167">
        <ele>2008.0</ele>
        <time>2019-10-12T16:04:11.947Z</time>
      </trkpt>
      <trkpt lat="20.250785" lon="-98.741785">
        <ele>2008.0</ele>
        <time>2019-10-12T16:04:12.952Z</time>
      </trkpt>
      <trkpt lat="20.25078" lon="-98.74179833">
        <ele>2008.0</ele>
        <time>2019-10-12T16:04:13.831Z</time>
      </trkpt>
      <trkpt lat="20.250775" lon="-98.74181333">
        <ele>2008.0</ele>
        <time>2019-10-12T16:04:14.835Z</time>
      </trkpt>
      <trkpt lat="20.25076833" lon="-98.741825">
        <ele>2009.0</ele>
        <time>2019-10-12T16:04:15.837Z</time>
      </trkpt>
      <trkpt lat="20.25076167" lon="-98.74184">
        <ele>2009.0</ele>
        <time>2019-10-12T16:04:16.840Z</time>
      </trkpt>
      <trkpt lat="20.25075333" lon="-98.741855">
        <ele>2009.0</ele>
        <time>2019-10-12T16:04:17.847Z</time>
      </trkpt>
      <trkpt lat="20.25074833" lon="-98.74187">
        <ele>2009.0</ele>
        <time>2019-10-12T16:04:18.848Z</time>
      </trkpt>
      <trkpt lat="20.25074333" lon="-98.74188667">
        <ele>2009.0</ele>
        <time>2019-10-12T16:04:19.852Z</time>
      </trkpt>
      <trkpt lat="20.25073667" lon="-98.74190333">
        <ele>2010.0</ele>
        <time>2019-10-12T16:04:20.852Z</time>
      </trkpt>
      <trkpt lat="20.25072667" lon="-98.74191833">
        <ele>2011.0</ele>
        <time>2019-10-12T16:04:21.857Z</time>
      </trkpt>
      <trkpt lat="20.250715" lon="-98.74193333">
        <ele>2011.0</ele>
        <time>2019-10-12T16:04:22.864Z</time>
      </trkpt>
      <trkpt lat="20.25070667" lon="-98.74194833">
        <ele>2012.0</ele>
        <time>2019-10-12T16:04:23.867Z</time>
      </trkpt>
      <trkpt lat="20.2507" lon="-98.74196333">
        <ele>2012.0</ele>
        <time>2019-10-12T16:04:24.869Z</time>
      </trkpt>
      <trkpt lat="20.25069333" lon="-98.74197667">
        <ele>2013.0</ele>
        <time>2019-10-12T16:04:25.870Z</time>
      </trkpt>
      <trkpt lat="20.25068833" lon="-98.74199667">
        <ele>2013.0</ele>
        <time>2019-10-12T16:04:26.874Z</time>
      </trkpt>
      <trkpt lat="20.250685" lon="-98.74201333">
        <ele>2014.0</ele>
        <time>2019-10-12T16:04:27.882Z</time>
      </trkpt>
      <trkpt lat="20.25068333" lon="-98.74202833">
        <ele>2013.0</ele>
        <time>2019-10-12T16:04:28.887Z</time>
      </trkpt>
      <trkpt lat="20.25068167" lon="-98.74204333">
        <ele>2013.0</ele>
        <time>2019-10-12T16:04:29.888Z</time>
      </trkpt>
      <trkpt lat="20.25068333" lon="-98.74206">
        <ele>2013.0</ele>
        <time>2019-10-12T16:04:30.889Z</time>
      </trkpt>
      <trkpt lat="20.250685" lon="-98.74208">
        <ele>2013.0</ele>
        <time>2019-10-12T16:04:31.890Z</time>
      </trkpt>
      <trkpt lat="20.250685" lon="-98.74209333">
        <ele>2012.0</ele>
        <time>2019-10-12T16:04:32.893Z</time>
      </trkpt>
      <trkpt lat="20.25068667" lon="-98.742105">
        <ele>2013.0</ele>
        <time>2019-10-12T16:04:33.895Z</time>
      </trkpt>
      <trkpt lat="20.25068667" lon="-98.74212">
        <ele>2013.0</ele>
        <time>2019-10-12T16:04:34.900Z</time>
      </trkpt>
      <trkpt lat="20.250685" lon="-98.742135">
        <ele>2013.0</ele>
        <time>2019-10-12T16:04:35.907Z</time>
      </trkpt>
      <trkpt lat="20.25068333" lon="-98.74215167">
        <ele>2013.0</ele>
        <time>2019-10-12T16:04:36.914Z</time>
      </trkpt>
      <trkpt lat="20.25068" lon="-98.74216667">
        <ele>2014.0</ele>
        <time>2019-10-12T16:04:37.915Z</time>
      </trkpt>
      <trkpt lat="20.250675" lon="-98.74218167">
        <ele>2015.0</ele>
        <time>2019-10-12T16:04:38.916Z</time>
      </trkpt>
      <trkpt lat="20.25066667" lon="-98.74219833">
        <ele>2016.0</ele>
        <time>2019-10-12T16:04:39.917Z</time>
      </trkpt>
      <trkpt lat="20.25066" lon="-98.74221333">
        <ele>2017.0</ele>
        <time>2019-10-12T16:04:40.918Z</time>
      </trkpt>
      <trkpt lat="20.250655" lon="-98.74222667">
        <ele>2017.0</ele>
        <time>2019-10-12T16:04:41.923Z</time>
      </trkpt>
      <trkpt lat="20.25065" lon="-98.74224167">
        <ele>2017.0</ele>
        <time>2019-10-12T16:04:42.929Z</time>
      </trkpt>
      <trkpt lat="20.25064833" lon="-98.742255">
        <ele>2018.0</ele>
        <time>2019-10-12T16:04:43.936Z</time>
      </trkpt>
      <trkpt lat="20.25064833" lon="-98.74227">
        <ele>2018.0</ele>
        <time>2019-10-12T16:04:44.943Z</time>
      </trkpt>
      <trkpt lat="20.250645" lon="-98.74228333">
        <ele>2018.0</ele>
        <time>2019-10-12T16:04:45.947Z</time>
      </trkpt>
      <trkpt lat="20.25064333" lon="-98.74229667">
        <ele>2018.0</ele>
        <time>2019-10-12T16:04:46.948Z</time>
      </trkpt>
      <trkpt lat="20.25064667" lon="-98.74231">
        <ele>2019.0</ele>
        <time>2019-10-12T16:04:47.830Z</time>
      </trkpt>
      <trkpt lat="20.25065833" lon="-98.742325">
        <ele>2018.0</ele>
        <time>2019-10-12T16:04:48.836Z</time>
      </trkpt>
      <trkpt lat="20.25066667" lon="-98.74233833">
        <ele>2017.0</ele>
        <time>2019-10-12T16:04:49.841Z</time>
      </trkpt>
      <trkpt lat="20.25067" lon="-98.74235167">
        <ele>2018.0</ele>
        <time>2019-10-12T16:04:50.842Z</time>
      </trkpt>
      <trkpt lat="20.25067167" lon="-98.742365">
        <ele>2019.0</ele>
        <time>2019-10-12T16:04:51.843Z</time>
      </trkpt>
      <trkpt lat="20.25066833" lon="-98.74237833">
        <ele>2020.0</ele>
        <time>2019-10-12T16:04:52.844Z</time>
      </trkpt>
      <trkpt lat="20.25066167" lon="-98.74238833">
        <ele>2020.0</ele>
        <time>2019-10-12T16:04:53.845Z</time>
      </trkpt>
      <trkpt lat="20.25065667" lon="-98.74239833">
        <ele>2021.0</ele>
        <time>2019-10-12T16:04:54.845Z</time>
      </trkpt>
      <trkpt lat="20.25064667" lon="-98.74241167">
        <ele>2022.0</ele>
        <time>2019-10-12T16:04:55.846Z</time>
      </trkpt>
      <trkpt lat="20.25063667" lon="-98.742425">
        <ele>2021.0</ele>
        <time>2019-10-12T16:04:56.847Z</time>
      </trkpt>
      <trkpt lat="20.25063" lon="-98.74244167">
        <ele>2021.0</ele>
        <time>2019-10-12T16:04:57.848Z</time>
      </trkpt>
      <trkpt lat="20.25062167" lon="-98.74245333">
        <ele>2021.0</ele>
        <time>2019-10-12T16:04:58.849Z</time>
      </trkpt>
      <trkpt lat="20.25060833" lon="-98.74245667">
        <ele>2020.0</ele>
        <time>2019-10-12T16:04:59.849Z</time>
      </trkpt>
      <trkpt lat="20.25059167" lon="-98.74245833">
        <ele>2020.0</ele>
        <time>2019-10-12T16:05:00.850Z</time>
      </trkpt>
      <trkpt lat="20.25057833" lon="-98.74245833">
        <ele>2021.0</ele>
        <time>2019-10-12T16:05:01.851Z</time>
      </trkpt>
      <trkpt lat="20.25056333" lon="-98.74245667">
        <ele>2021.0</ele>
        <time>2019-10-12T16:05:02.852Z</time>
      </trkpt>
      <trkpt lat="20.25054833" lon="-98.74245333">
        <ele>2022.0</ele>
        <time>2019-10-12T16:05:03.852Z</time>
      </trkpt>
      <trkpt lat="20.250535" lon="-98.742445">
        <ele>2022.0</ele>
        <time>2019-10-12T16:05:04.852Z</time>
      </trkpt>
      <trkpt lat="20.25052" lon="-98.74243667">
        <ele>2022.0</ele>
        <time>2019-10-12T16:05:05.853Z</time>
      </trkpt>
      <trkpt lat="20.25050667" lon="-98.74242667">
        <ele>2023.0</ele>
        <time>2019-10-12T16:05:06.854Z</time>
      </trkpt>
      <trkpt lat="20.25049333" lon="-98.74241667">
        <ele>2023.0</ele>
        <time>2019-10-12T16:05:07.855Z</time>
      </trkpt>
      <trkpt lat="20.25048" lon="-98.74240833">
        <ele>2023.0</ele>
        <time>2019-10-12T16:05:08.856Z</time>
      </trkpt>
      <trkpt lat="20.25046333" lon="-98.74239833">
        <ele>2022.0</ele>
        <time>2019-10-12T16:05:09.857Z</time>
      </trkpt>
      <trkpt lat="20.25044667" lon="-98.74239">
        <ele>2022.0</ele>
        <time>2019-10-12T16:05:10.858Z</time>
      </trkpt>
      <trkpt lat="20.25043" lon="-98.742385">
        <ele>2022.0</ele>
        <time>2019-10-12T16:05:11.859Z</time>
      </trkpt>
      <trkpt lat="20.25041333" lon="-98.74238">
        <ele>2022.0</ele>
        <time>2019-10-12T16:05:12.859Z</time>
      </trkpt>
      <trkpt lat="20.25039667" lon="-98.74237667">
        <ele>2022.0</ele>
        <time>2019-10-12T16:05:13.860Z</time>
      </trkpt>
      <trkpt lat="20.25037833" lon="-98.74237333">
        <ele>2023.0</ele>
        <time>2019-10-12T16:05:14.864Z</time>
      </trkpt>
      <trkpt lat="20.25036167" lon="-98.74237333">
        <ele>2023.0</ele>
        <time>2019-10-12T16:05:15.867Z</time>
      </trkpt>
      <trkpt lat="20.25034333" lon="-98.74237">
        <ele>2023.0</ele>
        <time>2019-10-12T16:05:16.871Z</time>
      </trkpt>
      <trkpt lat="20.25032667" lon="-98.74237333">
        <ele>2023.0</ele>
        <time>2019-10-12T16:05:17.874Z</time>
      </trkpt>
      <trkpt lat="20.25031" lon="-98.74237667">
        <ele>2023.0</ele>
        <time>2019-10-12T16:05:18.879Z</time>
      </trkpt>
      <trkpt lat="20.25029333" lon="-98.74238167">
        <ele>2023.0</ele>
        <time>2019-10-12T16:05:19.886Z</time>
      </trkpt>
      <trkpt lat="20.25027667" lon="-98.74239">
        <ele>2023.0</ele>
        <time>2019-10-12T16:05:20.887Z</time>
      </trkpt>
      <trkpt lat="20.25026" lon="-98.74239667">
        <ele>2023.0</ele>
        <time>2019-10-12T16:05:21.891Z</time>
      </trkpt>
      <trkpt lat="20.250245" lon="-98.74240667">
        <ele>2023.0</ele>
        <time>2019-10-12T16:05:22.898Z</time>
      </trkpt>
      <trkpt lat="20.25023" lon="-98.74241667">
        <ele>2023.0</ele>
        <time>2019-10-12T16:05:23.900Z</time>
      </trkpt>
      <trkpt lat="20.250215" lon="-98.74242833">
        <ele>2023.0</ele>
        <time>2019-10-12T16:05:24.904Z</time>
      </trkpt>
      <trkpt lat="20.25020167" lon="-98.74244">
        <ele>2023.0</ele>
        <time>2019-10-12T16:05:25.912Z</time>
      </trkpt>
      <trkpt lat="20.25018667" lon="-98.74245333">
        <ele>2023.0</ele>
        <time>2019-10-12T16:05:26.917Z</time>
      </trkpt>
      <trkpt lat="20.25017333" lon="-98.742465">
        <ele>2023.0</ele>
        <time>2019-10-12T16:05:27.923Z</time>
      </trkpt>
      <trkpt lat="20.25016" lon="-98.74247667">
        <ele>2023.0</ele>
        <time>2019-10-12T16:05:28.929Z</time>
      </trkpt>
      <trkpt lat="20.25014667" lon="-98.74248833">
        <ele>2023.0</ele>
        <time>2019-10-12T16:05:29.935Z</time>
      </trkpt>
      <trkpt lat="20.25013" lon="-98.74250167">
        <ele>2024.0</ele>
        <time>2019-10-12T16:05:30.938Z</time>
      </trkpt>
      <trkpt lat="20.250115" lon="-98.74251333">
        <ele>2024.0</ele>
        <time>2019-10-12T16:05:31.943Z</time>
      </trkpt>
      <trkpt lat="20.25009667" lon="-98.742525">
        <ele>2024.0</ele>
        <time>2019-10-12T16:05:32.946Z</time>
      </trkpt>
      <trkpt lat="20.25008167" lon="-98.74254">
        <ele>2024.0</ele>
        <time>2019-10-12T16:05:33.951Z</time>
      </trkpt>
      <trkpt lat="20.25006833" lon="-98.74255167">
        <ele>2024.0</ele>
        <time>2019-10-12T16:05:34.832Z</time>
      </trkpt>
      <trkpt lat="20.25005333" lon="-98.74256833">
        <ele>2024.0</ele>
        <time>2019-10-12T16:05:35.839Z</time>
      </trkpt>
      <trkpt lat="20.25004" lon="-98.74258333">
        <ele>2024.0</ele>
        <time>2019-10-12T16:05:36.845Z</time>
      </trkpt>
      <trkpt lat="20.25002833" lon="-98.74259833">
        <ele>2023.0</ele>
        <time>2019-10-12T16:05:37.848Z</time>
      </trkpt>
      <trkpt lat="20.25001667" lon="-98.74261667">
        <ele>2023.0</ele>
        <time>2019-10-12T16:05:38.849Z</time>
      </trkpt>
      <trkpt lat="20.250005" lon="-98.74263667">
        <ele>2023.0</ele>
        <time>2019-10-12T16:05:39.849Z</time>
      </trkpt>
      <trkpt lat="20.24999333" lon="-98.74266">
        <ele>2023.0</ele>
        <time>2019-10-12T16:05:40.852Z</time>
      </trkpt>
      <trkpt lat="20.24998167" lon="-98.74268">
        <ele>2023.0</ele>
        <time>2019-10-12T16:05:41.859Z</time>
      </trkpt>
      <trkpt lat="20.24997" lon="-98.74269667">
        <ele>2022.0</ele>
        <time>2019-10-12T16:05:42.866Z</time>
      </trkpt>
      <trkpt lat="20.24995333" lon="-98.74270833">
        <ele>2022.0</ele>
        <time>2019-10-12T16:05:43.868Z</time>
      </trkpt>
      <trkpt lat="20.24993833" lon="-98.74271667">
        <ele>2021.0</ele>
        <time>2019-10-12T16:05:44.869Z</time>
      </trkpt>
      <trkpt lat="20.24991667" lon="-98.742725">
        <ele>2022.0</ele>
        <time>2019-10-12T16:05:45.872Z</time>
      </trkpt>
      <trkpt lat="20.249895" lon="-98.74272833">
        <ele>2022.0</ele>
        <time>2019-10-12T16:05:46.880Z</time>
      </trkpt>
      <trkpt lat="20.24987333" lon="-98.74273333">
        <ele>2022.0</ele>
        <time>2019-10-12T16:05:47.886Z</time>
      </trkpt>
      <trkpt lat="20.24985" lon="-98.74273667">
        <ele>2022.0</ele>
        <time>2019-10-12T16:05:48.888Z</time>
      </trkpt>
      <trkpt lat="20.24982833" lon="-98.74273833">
        <ele>2022.0</ele>
        <time>2019-10-12T16:05:49.889Z</time>
      </trkpt>
      <trkpt lat="20.24980833" lon="-98.74274167">
        <ele>2022.0</ele>
        <time>2019-10-12T16:05:50.889Z</time>
      </trkpt>
      <trkpt lat="20.24978833" lon="-98.74274667">
        <ele>2023.0</ele>
        <time>2019-10-12T16:05:51.889Z</time>
      </trkpt>
      <trkpt lat="20.24976833" lon="-98.742755">
        <ele>2023.0</ele>
        <time>2019-10-12T16:05:52.890Z</time>
      </trkpt>
      <trkpt lat="20.24975333" lon="-98.74276833">
        <ele>2023.0</ele>
        <time>2019-10-12T16:05:53.891Z</time>
      </trkpt>
      <trkpt lat="20.249735" lon="-98.74278167">
        <ele>2023.0</ele>
        <time>2019-10-12T16:05:54.891Z</time>
      </trkpt>
      <trkpt lat="20.24971833" lon="-98.74279833">
        <ele>2023.0</ele>
        <time>2019-10-12T16:05:55.891Z</time>
      </trkpt>
      <trkpt lat="20.24970333" lon="-98.74281667">
        <ele>2023.0</ele>
        <time>2019-10-12T16:05:56.892Z</time>
      </trkpt>
      <trkpt lat="20.24969167" lon="-98.742835">
        <ele>2023.0</ele>
        <time>2019-10-12T16:05:57.892Z</time>
      </trkpt>
      <trkpt lat="20.24967833" lon="-98.742855">
        <ele>2023.0</ele>
        <time>2019-10-12T16:05:58.893Z</time>
      </trkpt>
      <trkpt lat="20.24967" lon="-98.74287333">
        <ele>2023.0</ele>
        <time>2019-10-12T16:05:59.900Z</time>
      </trkpt>
      <trkpt lat="20.24966167" lon="-98.74289333">
        <ele>2023.0</ele>
        <time>2019-10-12T16:06:00.905Z</time>
      </trkpt>
      <trkpt lat="20.24965333" lon="-98.74291333">
        <ele>2023.0</ele>
        <time>2019-10-12T16:06:01.908Z</time>
      </trkpt>
      <trkpt lat="20.24964333" lon="-98.74293167">
        <ele>2023.0</ele>
        <time>2019-10-12T16:06:02.916Z</time>
      </trkpt>
      <trkpt lat="20.249635" lon="-98.74295167">
        <ele>2022.0</ele>
        <time>2019-10-12T16:06:03.920Z</time>
      </trkpt>
      <trkpt lat="20.24962833" lon="-98.74297333">
        <ele>2022.0</ele>
        <time>2019-10-12T16:06:04.927Z</time>
      </trkpt>
      <trkpt lat="20.24961833" lon="-98.74299333">
        <ele>2022.0</ele>
        <time>2019-10-12T16:06:05.934Z</time>
      </trkpt>
      <trkpt lat="20.24960833" lon="-98.74301333">
        <ele>2022.0</ele>
        <time>2019-10-12T16:06:06.937Z</time>
      </trkpt>
      <trkpt lat="20.24959833" lon="-98.74303167">
        <ele>2022.0</ele>
        <time>2019-10-12T16:06:07.941Z</time>
      </trkpt>
      <trkpt lat="20.24959" lon="-98.74305333">
        <ele>2021.0</ele>
        <time>2019-10-12T16:06:08.945Z</time>
      </trkpt>
      <trkpt lat="20.24958" lon="-98.74307333">
        <ele>2021.0</ele>
        <time>2019-10-12T16:06:09.953Z</time>
      </trkpt>
      <trkpt lat="20.24957" lon="-98.743095">
        <ele>2021.0</ele>
        <time>2019-10-12T16:06:10.835Z</time>
      </trkpt>
      <trkpt lat="20.24956" lon="-98.74311667">
        <ele>2021.0</ele>
        <time>2019-10-12T16:06:11.838Z</time>
      </trkpt>
      <trkpt lat="20.24955333" lon="-98.74314">
        <ele>2021.0</ele>
        <time>2019-10-12T16:06:12.839Z</time>
      </trkpt>
      <trkpt lat="20.24955167" lon="-98.74316333">
        <ele>2021.0</ele>
        <time>2019-10-12T16:06:13.840Z</time>
      </trkpt>
      <trkpt lat="20.24954833" lon="-98.74318667">
        <ele>2020.0</ele>
        <time>2019-10-12T16:06:14.843Z</time>
      </trkpt>
      <trkpt lat="20.24954667" lon="-98.74321167">
        <ele>2021.0</ele>
        <time>2019-10-12T16:06:15.851Z</time>
      </trkpt>
      <trkpt lat="20.24954667" lon="-98.743235">
        <ele>2021.0</ele>
        <time>2019-10-12T16:06:16.857Z</time>
      </trkpt>
      <trkpt lat="20.24954667" lon="-98.74325833">
        <ele>2021.0</ele>
        <time>2019-10-12T16:06:17.863Z</time>
      </trkpt>
      <trkpt lat="20.24954667" lon="-98.74328333">
        <ele>2021.0</ele>
        <time>2019-10-12T16:06:18.863Z</time>
      </trkpt>
      <trkpt lat="20.24954833" lon="-98.74330667">
        <ele>2022.0</ele>
        <time>2019-10-12T16:06:19.865Z</time>
      </trkpt>
      <trkpt lat="20.24955" lon="-98.74333167">
        <ele>2022.0</ele>
        <time>2019-10-12T16:06:20.866Z</time>
      </trkpt>
      <trkpt lat="20.24955333" lon="-98.74335667">
        <ele>2023.0</ele>
        <time>2019-10-12T16:06:21.867Z</time>
      </trkpt>
      <trkpt lat="20.24956167" lon="-98.74338">
        <ele>2023.0</ele>
        <time>2019-10-12T16:06:22.873Z</time>
      </trkpt>
      <trkpt lat="20.24956833" lon="-98.74340167">
        <ele>2023.0</ele>
        <time>2019-10-12T16:06:23.878Z</time>
      </trkpt>
      <trkpt lat="20.249575" lon="-98.74342667">
        <ele>2023.0</ele>
        <time>2019-10-12T16:06:24.884Z</time>
      </trkpt>
      <trkpt lat="20.24958167" lon="-98.74344833">
        <ele>2023.0</ele>
        <time>2019-10-12T16:06:25.889Z</time>
      </trkpt>
      <trkpt lat="20.24958833" lon="-98.74347">
        <ele>2023.0</ele>
        <time>2019-10-12T16:06:26.891Z</time>
      </trkpt>
      <trkpt lat="20.24959167" lon="-98.74349667">
        <ele>2023.0</ele>
        <time>2019-10-12T16:06:27.898Z</time>
      </trkpt>
      <trkpt lat="20.24959333" lon="-98.74352">
        <ele>2023.0</ele>
        <time>2019-10-12T16:06:28.906Z</time>
      </trkpt>
      <trkpt lat="20.24959" lon="-98.743545">
        <ele>2023.0</ele>
        <time>2019-10-12T16:06:29.914Z</time>
      </trkpt>
      <trkpt lat="20.24958333" lon="-98.74356667">
        <ele>2023.0</ele>
        <time>2019-10-12T16:06:30.915Z</time>
      </trkpt>
      <trkpt lat="20.24957" lon="-98.74358333">
        <ele>2023.0</ele>
        <time>2019-10-12T16:06:31.916Z</time>
      </trkpt>
      <trkpt lat="20.24956" lon="-98.74359667">
        <ele>2023.0</ele>
        <time>2019-10-12T16:06:32.917Z</time>
      </trkpt>
      <trkpt lat="20.249545" lon="-98.74361">
        <ele>2023.0</ele>
        <time>2019-10-12T16:06:33.917Z</time>
      </trkpt>
      <trkpt lat="20.24952833" lon="-98.74362">
        <ele>2023.0</ele>
        <time>2019-10-12T16:06:34.918Z</time>
      </trkpt>
      <trkpt lat="20.24951" lon="-98.74362667">
        <ele>2022.0</ele>
        <time>2019-10-12T16:06:35.919Z</time>
      </trkpt>
      <trkpt lat="20.24949" lon="-98.74363">
        <ele>2022.0</ele>
        <time>2019-10-12T16:06:36.920Z</time>
      </trkpt>
      <trkpt lat="20.249475" lon="-98.74363333">
        <ele>2021.0</ele>
        <time>2019-10-12T16:06:37.921Z</time>
      </trkpt>
      <trkpt lat="20.24945167" lon="-98.74363667">
        <ele>2021.0</ele>
        <time>2019-10-12T16:06:38.924Z</time>
      </trkpt>
      <trkpt lat="20.24943167" lon="-98.743635">
        <ele>2021.0</ele>
        <time>2019-10-12T16:06:39.930Z</time>
      </trkpt>
      <trkpt lat="20.24941167" lon="-98.743635">
        <ele>2021.0</ele>
        <time>2019-10-12T16:06:40.935Z</time>
      </trkpt>
      <trkpt lat="20.24939" lon="-98.743635">
        <ele>2022.0</ele>
        <time>2019-10-12T16:06:41.938Z</time>
      </trkpt>
      <trkpt lat="20.24936833" lon="-98.74363333">
        <ele>2021.0</ele>
        <time>2019-10-12T16:06:42.946Z</time>
      </trkpt>
      <trkpt lat="20.24934833" lon="-98.74363667">
        <ele>2021.0</ele>
        <time>2019-10-12T16:06:43.950Z</time>
      </trkpt>
      <trkpt lat="20.24933" lon="-98.74363833">
        <ele>2021.0</ele>
        <time>2019-10-12T16:06:44.831Z</time>
      </trkpt>
      <trkpt lat="20.24931167" lon="-98.74364333">
        <ele>2021.0</ele>
        <time>2019-10-12T16:06:45.836Z</time>
      </trkpt>
      <trkpt lat="20.24929333" lon="-98.74364833">
        <ele>2021.0</ele>
        <time>2019-10-12T16:06:46.841Z</time>
      </trkpt>
      <trkpt lat="20.249275" lon="-98.743655">
        <ele>2021.0</ele>
        <time>2019-10-12T16:06:47.847Z</time>
      </trkpt>
      <trkpt lat="20.249255" lon="-98.74366167">
        <ele>2022.0</ele>
        <time>2019-10-12T16:06:48.848Z</time>
      </trkpt>
      <trkpt lat="20.24923667" lon="-98.74366667">
        <ele>2022.0</ele>
        <time>2019-10-12T16:06:49.853Z</time>
      </trkpt>
      <trkpt lat="20.249215" lon="-98.74367333">
        <ele>2023.0</ele>
        <time>2019-10-12T16:06:50.860Z</time>
      </trkpt>
      <trkpt lat="20.249195" lon="-98.74368167">
        <ele>2023.0</ele>
        <time>2019-10-12T16:06:51.866Z</time>
      </trkpt>
      <trkpt lat="20.24917833" lon="-98.74369167">
        <ele>2023.0</ele>
        <time>2019-10-12T16:06:52.869Z</time>
      </trkpt>
      <trkpt lat="20.24915667" lon="-98.74369833">
        <ele>2023.0</ele>
        <time>2019-10-12T16:06:53.870Z</time>
      </trkpt>
      <trkpt lat="20.24913833" lon="-98.743705">
        <ele>2023.0</ele>
        <time>2019-10-12T16:06:54.871Z</time>
      </trkpt>
      <trkpt lat="20.24911833" lon="-98.74370333">
        <ele>2023.0</ele>
        <time>2019-10-12T16:06:55.872Z</time>
      </trkpt>
      <trkpt lat="20.24910167" lon="-98.74370167">
        <ele>2024.0</ele>
        <time>2019-10-12T16:06:56.875Z</time>
      </trkpt>
      <trkpt lat="20.24908167" lon="-98.7437">
        <ele>2025.0</ele>
        <time>2019-10-12T16:06:57.882Z</time>
      </trkpt>
      <trkpt lat="20.24906" lon="-98.74369667">
        <ele>2025.0</ele>
        <time>2019-10-12T16:06:58.886Z</time>
      </trkpt>
      <trkpt lat="20.24903333" lon="-98.74369">
        <ele>2024.0</ele>
        <time>2019-10-12T16:06:59.891Z</time>
      </trkpt>
      <trkpt lat="20.249005" lon="-98.743685">
        <ele>2024.0</ele>
        <time>2019-10-12T16:07:00.893Z</time>
      </trkpt>
      <trkpt lat="20.24898" lon="-98.743685">
        <ele>2025.0</ele>
        <time>2019-10-12T16:07:01.895Z</time>
      </trkpt>
      <trkpt lat="20.24895667" lon="-98.743685">
        <ele>2025.0</ele>
        <time>2019-10-12T16:07:02.896Z</time>
      </trkpt>
      <trkpt lat="20.248935" lon="-98.74368667">
        <ele>2025.0</ele>
        <time>2019-10-12T16:07:03.899Z</time>
      </trkpt>
      <trkpt lat="20.24891333" lon="-98.74368667">
        <ele>2025.0</ele>
        <time>2019-10-12T16:07:04.907Z</time>
      </trkpt>
      <trkpt lat="20.24889" lon="-98.74369">
        <ele>2025.0</ele>
        <time>2019-10-12T16:07:05.909Z</time>
      </trkpt>
      <trkpt lat="20.24886667" lon="-98.74369">
        <ele>2025.0</ele>
        <time>2019-10-12T16:07:06.910Z</time>
      </trkpt>
      <trkpt lat="20.24884333" lon="-98.74369333">
        <ele>2024.0</ele>
        <time>2019-10-12T16:07:07.914Z</time>
      </trkpt>
      <trkpt lat="20.24882167" lon="-98.74369833">
        <ele>2024.0</ele>
        <time>2019-10-12T16:07:08.921Z</time>
      </trkpt>
      <trkpt lat="20.24880167" lon="-98.74371">
        <ele>2023.0</ele>
        <time>2019-10-12T16:07:09.927Z</time>
      </trkpt>
      <trkpt lat="20.24878167" lon="-98.74372">
        <ele>2023.0</ele>
        <time>2019-10-12T16:07:10.934Z</time>
      </trkpt>
      <trkpt lat="20.24876" lon="-98.74373333">
        <ele>2023.0</ele>
        <time>2019-10-12T16:07:11.939Z</time>
      </trkpt>
      <trkpt lat="20.24874167" lon="-98.74375">
        <ele>2023.0</ele>
        <time>2019-10-12T16:07:12.943Z</time>
      </trkpt>
      <trkpt lat="20.248725" lon="-98.74377">
        <ele>2022.0</ele>
        <time>2019-10-12T16:07:13.944Z</time>
      </trkpt>
      <trkpt lat="20.24871167" lon="-98.74379167">
        <ele>2022.0</ele>
        <time>2019-10-12T16:07:14.944Z</time>
      </trkpt>
      <trkpt lat="20.2487" lon="-98.743815">
        <ele>2021.0</ele>
        <time>2019-10-12T16:07:15.944Z</time>
      </trkpt>
      <trkpt lat="20.24869167" lon="-98.74384">
        <ele>2021.0</ele>
        <time>2019-10-12T16:07:16.945Z</time>
      </trkpt>
      <trkpt lat="20.24868" lon="-98.743865">
        <ele>2020.0</ele>
        <time>2019-10-12T16:07:17.945Z</time>
      </trkpt>
      <trkpt lat="20.24866833" lon="-98.74388833">
        <ele>2019.0</ele>
        <time>2019-10-12T16:07:18.945Z</time>
      </trkpt>
      <trkpt lat="20.248655" lon="-98.74391333">
        <ele>2019.0</ele>
        <time>2019-10-12T16:07:19.946Z</time>
      </trkpt>
      <trkpt lat="20.24864333" lon="-98.74393833">
        <ele>2018.0</ele>
        <time>2019-10-12T16:07:20.946Z</time>
      </trkpt>
      <trkpt lat="20.24863167" lon="-98.743965">
        <ele>2018.0</ele>
        <time>2019-10-12T16:07:21.946Z</time>
      </trkpt>
      <trkpt lat="20.24862" lon="-98.74398833">
        <ele>2017.0</ele>
        <time>2019-10-12T16:07:22.946Z</time>
      </trkpt>
      <trkpt lat="20.24861" lon="-98.74401833">
        <ele>2016.0</ele>
        <time>2019-10-12T16:07:23.947Z</time>
      </trkpt>
      <trkpt lat="20.2486" lon="-98.74404667">
        <ele>2015.0</ele>
        <time>2019-10-12T16:07:24.947Z</time>
      </trkpt>
      <trkpt lat="20.24859167" lon="-98.74407667">
        <ele>2015.0</ele>
        <time>2019-10-12T16:07:25.947Z</time>
      </trkpt>
      <trkpt lat="20.24858167" lon="-98.744105">
        <ele>2014.0</ele>
        <time>2019-10-12T16:07:26.947Z</time>
      </trkpt>
      <trkpt lat="20.24857167" lon="-98.74413167">
        <ele>2014.0</ele>
        <time>2019-10-12T16:07:27.948Z</time>
      </trkpt>
      <trkpt lat="20.24856167" lon="-98.74416">
        <ele>2013.0</ele>
        <time>2019-10-12T16:07:28.948Z</time>
      </trkpt>
      <trkpt lat="20.24855167" lon="-98.74418667">
        <ele>2013.0</ele>
        <time>2019-10-12T16:07:29.948Z</time>
      </trkpt>
      <trkpt lat="20.24854167" lon="-98.74421333">
        <ele>2013.0</ele>
        <time>2019-10-12T16:07:30.949Z</time>
      </trkpt>
      <trkpt lat="20.24853167" lon="-98.74423667">
        <ele>2012.0</ele>
        <time>2019-10-12T16:07:31.949Z</time>
      </trkpt>
      <trkpt lat="20.24851833" lon="-98.74426167">
        <ele>2012.0</ele>
        <time>2019-10-12T16:07:32.949Z</time>
      </trkpt>
      <trkpt lat="20.248505" lon="-98.74428667">
        <ele>2012.0</ele>
        <time>2019-10-12T16:07:33.950Z</time>
      </trkpt>
      <trkpt lat="20.24848833" lon="-98.74430833">
        <ele>2011.0</ele>
        <time>2019-10-12T16:07:34.950Z</time>
      </trkpt>
      <trkpt lat="20.24847" lon="-98.74432833">
        <ele>2011.0</ele>
        <time>2019-10-12T16:07:35.950Z</time>
      </trkpt>
      <trkpt lat="20.24845" lon="-98.74434667">
        <ele>2010.0</ele>
        <time>2019-10-12T16:07:36.951Z</time>
      </trkpt>
      <trkpt lat="20.24843" lon="-98.74436667">
        <ele>2010.0</ele>
        <time>2019-10-12T16:07:37.951Z</time>
      </trkpt>
      <trkpt lat="20.24841" lon="-98.744385">
        <ele>2010.0</ele>
        <time>2019-10-12T16:07:38.951Z</time>
      </trkpt>
      <trkpt lat="20.24839167" lon="-98.74440833">
        <ele>2010.0</ele>
        <time>2019-10-12T16:07:39.952Z</time>
      </trkpt>
      <trkpt lat="20.24837833" lon="-98.74443333">
        <ele>2009.0</ele>
        <time>2019-10-12T16:07:40.952Z</time>
      </trkpt>
      <trkpt lat="20.248365" lon="-98.74446">
        <ele>2008.0</ele>
        <time>2019-10-12T16:07:41.952Z</time>
      </trkpt>
      <trkpt lat="20.24835333" lon="-98.74448667">
        <ele>2008.0</ele>
        <time>2019-10-12T16:07:42.953Z</time>
      </trkpt>
      <trkpt lat="20.248345" lon="-98.74451167">
        <ele>2007.0</ele>
        <time>2019-10-12T16:07:43.953Z</time>
      </trkpt>
      <trkpt lat="20.24833167" lon="-98.74454333">
        <ele>2006.0</ele>
        <time>2019-10-12T16:07:44.953Z</time>
      </trkpt>
      <trkpt lat="20.24831833" lon="-98.74456833">
        <ele>2005.0</ele>
        <time>2019-10-12T16:07:45.953Z</time>
      </trkpt>
      <trkpt lat="20.24830333" lon="-98.74459167">
        <ele>2004.0</ele>
        <time>2019-10-12T16:07:46.954Z</time>
      </trkpt>
      <trkpt lat="20.24828833" lon="-98.74461667">
        <ele>2004.0</ele>
        <time>2019-10-12T16:07:47.954Z</time>
      </trkpt>
      <trkpt lat="20.24827667" lon="-98.74464">
        <ele>2004.0</ele>
        <time>2019-10-12T16:07:48.954Z</time>
      </trkpt>
      <trkpt lat="20.24827" lon="-98.74466833">
        <ele>2003.0</ele>
        <time>2019-10-12T16:07:49.954Z</time>
      </trkpt>
      <trkpt lat="20.24826667" lon="-98.74469667">
        <ele>2003.0</ele>
        <time>2019-10-12T16:07:50.954Z</time>
      </trkpt>
      <trkpt lat="20.24826667" lon="-98.744725">
        <ele>2003.0</ele>
        <time>2019-10-12T16:07:51.830Z</time>
      </trkpt>
      <trkpt lat="20.24826833" lon="-98.744755">
        <ele>2003.0</ele>
        <time>2019-10-12T16:07:52.833Z</time>
      </trkpt>
      <trkpt lat="20.24827333" lon="-98.74478833">
        <ele>2003.0</ele>
        <time>2019-10-12T16:07:53.839Z</time>
      </trkpt>
      <trkpt lat="20.248275" lon="-98.74481833">
        <ele>2002.0</ele>
        <time>2019-10-12T16:07:54.843Z</time>
      </trkpt>
      <trkpt lat="20.24827667" lon="-98.74485167">
        <ele>2002.0</ele>
        <time>2019-10-12T16:07:55.849Z</time>
      </trkpt>
      <trkpt lat="20.24827333" lon="-98.74488">
        <ele>2002.0</ele>
        <time>2019-10-12T16:07:56.852Z</time>
      </trkpt>
      <trkpt lat="20.24826667" lon="-98.74490667">
        <ele>2002.0</ele>
        <time>2019-10-12T16:07:57.852Z</time>
      </trkpt>
      <trkpt lat="20.248255" lon="-98.74492333">
        <ele>2004.0</ele>
        <time>2019-10-12T16:07:58.852Z</time>
      </trkpt>
      <trkpt lat="20.24824333" lon="-98.74493333">
        <ele>2005.0</ele>
        <time>2019-10-12T16:07:59.852Z</time>
      </trkpt>
      <trkpt lat="20.24822667" lon="-98.74494333">
        <ele>2005.0</ele>
        <time>2019-10-12T16:08:00.856Z</time>
      </trkpt>
      <trkpt lat="20.24821" lon="-98.74495667">
        <ele>2005.0</ele>
        <time>2019-10-12T16:08:01.860Z</time>
      </trkpt>
      <trkpt lat="20.24819167" lon="-98.74496833">
        <ele>2006.0</ele>
        <time>2019-10-12T16:08:02.863Z</time>
      </trkpt>
      <trkpt lat="20.248175" lon="-98.744975">
        <ele>2006.0</ele>
        <time>2019-10-12T16:08:03.866Z</time>
      </trkpt>
      <trkpt lat="20.248155" lon="-98.74497333">
        <ele>2007.0</ele>
        <time>2019-10-12T16:08:04.873Z</time>
      </trkpt>
      <trkpt lat="20.24814" lon="-98.744965">
        <ele>2007.0</ele>
        <time>2019-10-12T16:08:05.879Z</time>
      </trkpt>
      <trkpt lat="20.24812833" lon="-98.74495">
        <ele>2007.0</ele>
        <time>2019-10-12T16:08:06.883Z</time>
      </trkpt>
      <trkpt lat="20.248115" lon="-98.74493333">
        <ele>2007.0</ele>
        <time>2019-10-12T16:08:07.891Z</time>
      </trkpt>
      <trkpt lat="20.24810167" lon="-98.74491833">
        <ele>2007.0</ele>
        <time>2019-10-12T16:08:08.893Z</time>
      </trkpt>
      <trkpt lat="20.24809" lon="-98.74489833">
        <ele>2007.0</ele>
        <time>2019-10-12T16:08:09.896Z</time>
      </trkpt>
      <trkpt lat="20.24807833" lon="-98.74487167">
        <ele>2008.0</ele>
        <time>2019-10-12T16:08:10.896Z</time>
      </trkpt>
      <trkpt lat="20.248075" lon="-98.74485167">
        <ele>2009.0</ele>
        <time>2019-10-12T16:08:11.896Z</time>
      </trkpt>
      <trkpt lat="20.24806833" lon="-98.74482667">
        <ele>2010.0</ele>
        <time>2019-10-12T16:08:12.896Z</time>
      </trkpt>
      <trkpt lat="20.24805833" lon="-98.7448">
        <ele>2011.0</ele>
        <time>2019-10-12T16:08:13.897Z</time>
      </trkpt>
      <trkpt lat="20.24805167" lon="-98.744785">
        <ele>2011.0</ele>
        <time>2019-10-12T16:08:14.899Z</time>
      </trkpt>
      <trkpt lat="20.24804167" lon="-98.74476667">
        <ele>2012.0</ele>
        <time>2019-10-12T16:08:15.907Z</time>
      </trkpt>
      <trkpt lat="20.24803167" lon="-98.74474833">
        <ele>2012.0</ele>
        <time>2019-10-12T16:08:16.912Z</time>
      </trkpt>
      <trkpt lat="20.24802333" lon="-98.744725">
        <ele>2012.0</ele>
        <time>2019-10-12T16:08:17.918Z</time>
      </trkpt>
      <trkpt lat="20.24801667" lon="-98.744705">
        <ele>2013.0</ele>
        <time>2019-10-12T16:08:18.920Z</time>
      </trkpt>
      <trkpt lat="20.24801333" lon="-98.74468333">
        <ele>2014.0</ele>
        <time>2019-10-12T16:08:19.924Z</time>
      </trkpt>
      <trkpt lat="20.24800833" lon="-98.74465833">
        <ele>2015.0</ele>
        <time>2019-10-12T16:08:20.931Z</time>
      </trkpt>
      <trkpt lat="20.24800333" lon="-98.744635">
        <ele>2016.0</ele>
        <time>2019-10-12T16:08:21.936Z</time>
      </trkpt>
      <trkpt lat="20.24799833" lon="-98.74461167">
        <ele>2017.0</ele>
        <time>2019-10-12T16:08:22.944Z</time>
      </trkpt>
      <trkpt lat="20.24799333" lon="-98.74458667">
        <ele>2018.0</ele>
        <time>2019-10-12T16:08:23.949Z</time>
      </trkpt>
      <trkpt lat="20.24799167" lon="-98.74456667">
        <ele>2020.0</ele>
        <time>2019-10-12T16:08:24.952Z</time>
      </trkpt>
      <trkpt lat="20.247985" lon="-98.74454333">
        <ele>2020.0</ele>
        <time>2019-10-12T16:08:25.956Z</time>
      </trkpt>
      <trkpt lat="20.24798" lon="-98.744525">
        <ele>2020.0</ele>
        <time>2019-10-12T16:08:26.836Z</time>
      </trkpt>
      <trkpt lat="20.24797667" lon="-98.74450667">
        <ele>2021.0</ele>
        <time>2019-10-12T16:08:27.840Z</time>
      </trkpt>
      <trkpt lat="20.24797167" lon="-98.74448167">
        <ele>2021.0</ele>
        <time>2019-10-12T16:08:28.842Z</time>
      </trkpt>
      <trkpt lat="20.24797" lon="-98.74446">
        <ele>2021.0</ele>
        <time>2019-10-12T16:08:29.842Z</time>
      </trkpt>
      <trkpt lat="20.24797" lon="-98.74443833">
        <ele>2021.0</ele>
        <time>2019-10-12T16:08:30.846Z</time>
      </trkpt>
      <trkpt lat="20.24797333" lon="-98.74441667">
        <ele>2021.0</ele>
        <time>2019-10-12T16:08:31.852Z</time>
      </trkpt>
      <trkpt lat="20.24798" lon="-98.74439667">
        <ele>2022.0</ele>
        <time>2019-10-12T16:08:32.858Z</time>
      </trkpt>
      <trkpt lat="20.247985" lon="-98.744375">
        <ele>2022.0</ele>
        <time>2019-10-12T16:08:33.863Z</time>
      </trkpt>
      <trkpt lat="20.24799" lon="-98.74435167">
        <ele>2023.0</ele>
        <time>2019-10-12T16:08:34.865Z</time>
      </trkpt>
      <trkpt lat="20.24799667" lon="-98.74433167">
        <ele>2024.0</ele>
        <time>2019-10-12T16:08:35.866Z</time>
      </trkpt>
      <trkpt lat="20.24800167" lon="-98.74431167">
        <ele>2024.0</ele>
        <time>2019-10-12T16:08:36.870Z</time>
      </trkpt>
      <trkpt lat="20.24800833" lon="-98.74429333">
        <ele>2025.0</ele>
        <time>2019-10-12T16:08:37.876Z</time>
      </trkpt>
      <trkpt lat="20.24801667" lon="-98.74427833">
        <ele>2025.0</ele>
        <time>2019-10-12T16:08:38.882Z</time>
      </trkpt>
      <trkpt lat="20.24802667" lon="-98.74426167">
        <ele>2025.0</ele>
        <time>2019-10-12T16:08:39.886Z</time>
      </trkpt>
      <trkpt lat="20.248035" lon="-98.74424667">
        <ele>2024.0</ele>
        <time>2019-10-12T16:08:40.891Z</time>
      </trkpt>
      <trkpt lat="20.24804333" lon="-98.74422833">
        <ele>2024.0</ele>
        <time>2019-10-12T16:08:41.893Z</time>
      </trkpt>
      <trkpt lat="20.24805167" lon="-98.74421">
        <ele>2025.0</ele>
        <time>2019-10-12T16:08:42.899Z</time>
      </trkpt>
      <trkpt lat="20.24806167" lon="-98.74419333">
        <ele>2025.0</ele>
        <time>2019-10-12T16:08:43.907Z</time>
      </trkpt>
      <trkpt lat="20.24807" lon="-98.74417667">
        <ele>2025.0</ele>
        <time>2019-10-12T16:08:44.910Z</time>
      </trkpt>
      <trkpt lat="20.24807667" lon="-98.74416">
        <ele>2025.0</ele>
        <time>2019-10-12T16:08:45.911Z</time>
      </trkpt>
      <trkpt lat="20.24808167" lon="-98.74414333">
        <ele>2025.0</ele>
        <time>2019-10-12T16:08:46.911Z</time>
      </trkpt>
      <trkpt lat="20.248085" lon="-98.74412333">
        <ele>2025.0</ele>
        <time>2019-10-12T16:08:47.912Z</time>
      </trkpt>
      <trkpt lat="20.24808333" lon="-98.74410333">
        <ele>2025.0</ele>
        <time>2019-10-12T16:08:48.912Z</time>
      </trkpt>
      <trkpt lat="20.248085" lon="-98.744085">
        <ele>2025.0</ele>
        <time>2019-10-12T16:08:49.913Z</time>
      </trkpt>
      <trkpt lat="20.248085" lon="-98.74406667">
        <ele>2025.0</ele>
        <time>2019-10-12T16:08:50.916Z</time>
      </trkpt>
      <trkpt lat="20.24808333" lon="-98.744045">
        <ele>2026.0</ele>
        <time>2019-10-12T16:08:51.924Z</time>
      </trkpt>
      <trkpt lat="20.24808167" lon="-98.744025">
        <ele>2026.0</ele>
        <time>2019-10-12T16:08:52.927Z</time>
      </trkpt>
      <trkpt lat="20.24807833" lon="-98.744005">
        <ele>2026.0</ele>
        <time>2019-10-12T16:08:53.932Z</time>
      </trkpt>
      <trkpt lat="20.24807667" lon="-98.74398667">
        <ele>2026.0</ele>
        <time>2019-10-12T16:08:54.938Z</time>
      </trkpt>
      <trkpt lat="20.248075" lon="-98.74396667">
        <ele>2026.0</ele>
        <time>2019-10-12T16:08:55.945Z</time>
      </trkpt>
      <trkpt lat="20.24807167" lon="-98.74394667">
        <ele>2026.0</ele>
        <time>2019-10-12T16:08:56.950Z</time>
      </trkpt>
      <trkpt lat="20.248065" lon="-98.74392667">
        <ele>2026.0</ele>
        <time>2019-10-12T16:08:57.831Z</time>
      </trkpt>
      <trkpt lat="20.248055" lon="-98.74391">
        <ele>2026.0</ele>
        <time>2019-10-12T16:08:58.837Z</time>
      </trkpt>
      <trkpt lat="20.24804333" lon="-98.74389333">
        <ele>2026.0</ele>
        <time>2019-10-12T16:08:59.841Z</time>
      </trkpt>
      <trkpt lat="20.24802833" lon="-98.74388167">
        <ele>2026.0</ele>
        <time>2019-10-12T16:09:00.848Z</time>
      </trkpt>
      <trkpt lat="20.24801667" lon="-98.74387167">
        <ele>2026.0</ele>
        <time>2019-10-12T16:09:01.854Z</time>
      </trkpt>
      <trkpt lat="20.248005" lon="-98.74386">
        <ele>2026.0</ele>
        <time>2019-10-12T16:09:02.858Z</time>
      </trkpt>
      <trkpt lat="20.24799667" lon="-98.74384667">
        <ele>2026.0</ele>
        <time>2019-10-12T16:09:03.860Z</time>
      </trkpt>
      <trkpt lat="20.24799" lon="-98.74383167">
        <ele>2026.0</ele>
        <time>2019-10-12T16:09:04.860Z</time>
      </trkpt>
      <trkpt lat="20.24798833" lon="-98.74381667">
        <ele>2025.0</ele>
        <time>2019-10-12T16:09:05.860Z</time>
      </trkpt>
      <trkpt lat="20.24798833" lon="-98.7438">
        <ele>2024.0</ele>
        <time>2019-10-12T16:09:06.862Z</time>
      </trkpt>
      <trkpt lat="20.24798167" lon="-98.74378667">
        <ele>2023.0</ele>
        <time>2019-10-12T16:09:07.862Z</time>
      </trkpt>
      <trkpt lat="20.24797833" lon="-98.74377167">
        <ele>2024.0</ele>
        <time>2019-10-12T16:09:08.863Z</time>
      </trkpt>
      <trkpt lat="20.24797833" lon="-98.74375667">
        <ele>2024.0</ele>
        <time>2019-10-12T16:09:09.863Z</time>
      </trkpt>
      <trkpt lat="20.24797667" lon="-98.74374">
        <ele>2024.0</ele>
        <time>2019-10-12T16:09:10.864Z</time>
      </trkpt>
      <trkpt lat="20.247975" lon="-98.74371833">
        <ele>2024.0</ele>
        <time>2019-10-12T16:09:11.865Z</time>
      </trkpt>
      <trkpt lat="20.247975" lon="-98.74369667">
        <ele>2024.0</ele>
        <time>2019-10-12T16:09:12.866Z</time>
      </trkpt>
      <trkpt lat="20.24797167" lon="-98.743675">
        <ele>2024.0</ele>
        <time>2019-10-12T16:09:13.866Z</time>
      </trkpt>
      <trkpt lat="20.24796833" lon="-98.74365833">
        <ele>2025.0</ele>
        <time>2019-10-12T16:09:14.866Z</time>
      </trkpt>
      <trkpt lat="20.247965" lon="-98.74364333">
        <ele>2024.0</ele>
        <time>2019-10-12T16:09:15.868Z</time>
      </trkpt>
      <trkpt lat="20.24795833" lon="-98.74362667">
        <ele>2024.0</ele>
        <time>2019-10-12T16:09:16.871Z</time>
      </trkpt>
      <trkpt lat="20.24795167" lon="-98.74361167">
        <ele>2024.0</ele>
        <time>2019-10-12T16:09:17.879Z</time>
      </trkpt>
      <trkpt lat="20.24794333" lon="-98.74359833">
        <ele>2024.0</ele>
        <time>2019-10-12T16:09:18.885Z</time>
      </trkpt>
      <trkpt lat="20.24794" lon="-98.74358333">
        <ele>2024.0</ele>
        <time>2019-10-12T16:09:19.891Z</time>
      </trkpt>
      <trkpt lat="20.247935" lon="-98.74357">
        <ele>2024.0</ele>
        <time>2019-10-12T16:09:20.893Z</time>
      </trkpt>
      <trkpt lat="20.24793" lon="-98.743555">
        <ele>2024.0</ele>
        <time>2019-10-12T16:09:21.897Z</time>
      </trkpt>
      <trkpt lat="20.24792667" lon="-98.74353833">
        <ele>2024.0</ele>
        <time>2019-10-12T16:09:22.904Z</time>
      </trkpt>
      <trkpt lat="20.24792333" lon="-98.74352">
        <ele>2024.0</ele>
        <time>2019-10-12T16:09:23.909Z</time>
      </trkpt>
      <trkpt lat="20.24791833" lon="-98.74350333">
        <ele>2025.0</ele>
        <time>2019-10-12T16:09:24.915Z</time>
      </trkpt>
      <trkpt lat="20.24791833" lon="-98.743485">
        <ele>2025.0</ele>
        <time>2019-10-12T16:09:25.917Z</time>
      </trkpt>
      <trkpt lat="20.24792333" lon="-98.743465">
        <ele>2026.0</ele>
        <time>2019-10-12T16:09:26.921Z</time>
      </trkpt>
      <trkpt lat="20.24793667" lon="-98.74344667">
        <ele>2027.0</ele>
        <time>2019-10-12T16:09:27.924Z</time>
      </trkpt>
      <trkpt lat="20.24794333" lon="-98.74343">
        <ele>2027.0</ele>
        <time>2019-10-12T16:09:28.932Z</time>
      </trkpt>
      <trkpt lat="20.24795167" lon="-98.74341">
        <ele>2027.0</ele>
        <time>2019-10-12T16:09:29.937Z</time>
      </trkpt>
      <trkpt lat="20.24796" lon="-98.74339167">
        <ele>2027.0</ele>
        <time>2019-10-12T16:09:30.938Z</time>
      </trkpt>
      <trkpt lat="20.24796667" lon="-98.74337167">
        <ele>2028.0</ele>
        <time>2019-10-12T16:09:31.939Z</time>
      </trkpt>
      <trkpt lat="20.24797333" lon="-98.74335333">
        <ele>2029.0</ele>
        <time>2019-10-12T16:09:32.940Z</time>
      </trkpt>
      <trkpt lat="20.24798" lon="-98.74333333">
        <ele>2029.0</ele>
        <time>2019-10-12T16:09:33.941Z</time>
      </trkpt>
      <trkpt lat="20.24799" lon="-98.74331">
        <ele>2030.0</ele>
        <time>2019-10-12T16:09:34.942Z</time>
      </trkpt>
      <trkpt lat="20.24799667" lon="-98.74328833">
        <ele>2030.0</ele>
        <time>2019-10-12T16:09:35.942Z</time>
      </trkpt>
      <trkpt lat="20.248005" lon="-98.74326833">
        <ele>2030.0</ele>
        <time>2019-10-12T16:09:36.943Z</time>
      </trkpt>
      <trkpt lat="20.24801167" lon="-98.74325">
        <ele>2030.0</ele>
        <time>2019-10-12T16:09:37.944Z</time>
      </trkpt>
      <trkpt lat="20.24801833" lon="-98.74323">
        <ele>2030.0</ele>
        <time>2019-10-12T16:09:38.948Z</time>
      </trkpt>
      <trkpt lat="20.24802667" lon="-98.74321167">
        <ele>2030.0</ele>
        <time>2019-10-12T16:09:39.830Z</time>
      </trkpt>
      <trkpt lat="20.248035" lon="-98.74319">
        <ele>2030.0</ele>
        <time>2019-10-12T16:09:40.836Z</time>
      </trkpt>
      <trkpt lat="20.24804167" lon="-98.74316833">
        <ele>2030.0</ele>
        <time>2019-10-12T16:09:41.838Z</time>
      </trkpt>
      <trkpt lat="20.24804333" lon="-98.74314833">
        <ele>2030.0</ele>
        <time>2019-10-12T16:09:42.844Z</time>
      </trkpt>
      <trkpt lat="20.24804667" lon="-98.74312833">
        <ele>2031.0</ele>
        <time>2019-10-12T16:09:43.845Z</time>
      </trkpt>
      <trkpt lat="20.24804667" lon="-98.74311">
        <ele>2031.0</ele>
        <time>2019-10-12T16:09:44.846Z</time>
      </trkpt>
      <trkpt lat="20.24804667" lon="-98.74309">
        <ele>2031.0</ele>
        <time>2019-10-12T16:09:45.848Z</time>
      </trkpt>
      <trkpt lat="20.24804833" lon="-98.74307333">
        <ele>2032.0</ele>
        <time>2019-10-12T16:09:46.854Z</time>
      </trkpt>
      <trkpt lat="20.248055" lon="-98.74306167">
        <ele>2032.0</ele>
        <time>2019-10-12T16:09:47.862Z</time>
      </trkpt>
      <trkpt lat="20.24806" lon="-98.74305">
        <ele>2032.0</ele>
        <time>2019-10-12T16:09:48.868Z</time>
      </trkpt>
      <trkpt lat="20.24806167" lon="-98.74303833">
        <ele>2032.0</ele>
        <time>2019-10-12T16:09:49.872Z</time>
      </trkpt>
      <trkpt lat="20.24806833" lon="-98.74302667">
        <ele>2032.0</ele>
        <time>2019-10-12T16:09:50.876Z</time>
      </trkpt>
      <trkpt lat="20.24807333" lon="-98.74301333">
        <ele>2032.0</ele>
        <time>2019-10-12T16:09:51.878Z</time>
      </trkpt>
      <trkpt lat="20.24808333" lon="-98.74300167">
        <ele>2031.0</ele>
        <time>2019-10-12T16:09:52.885Z</time>
      </trkpt>
      <trkpt lat="20.24809" lon="-98.74299167">
        <ele>2031.0</ele>
        <time>2019-10-12T16:09:53.891Z</time>
      </trkpt>
      <trkpt lat="20.24809667" lon="-98.74298333">
        <ele>2031.0</ele>
        <time>2019-10-12T16:09:54.894Z</time>
      </trkpt>
      <trkpt lat="20.24809833" lon="-98.742975">
        <ele>2031.0</ele>
        <time>2019-10-12T16:09:55.895Z</time>
      </trkpt>
      <trkpt lat="20.24810167" lon="-98.742965">
        <ele>2031.0</ele>
        <time>2019-10-12T16:09:56.896Z</time>
      </trkpt>
      <trkpt lat="20.24810167" lon="-98.74295333">
        <ele>2032.0</ele>
        <time>2019-10-12T16:09:57.897Z</time>
      </trkpt>
      <trkpt lat="20.24810333" lon="-98.74294333">
        <ele>2033.0</ele>
        <time>2019-10-12T16:09:58.897Z</time>
      </trkpt>
      <trkpt lat="20.24810667" lon="-98.74293333">
        <ele>2034.0</ele>
        <time>2019-10-12T16:09:59.898Z</time>
      </trkpt>
      <trkpt lat="20.24811" lon="-98.74292167">
        <ele>2034.0</ele>
        <time>2019-10-12T16:10:00.902Z</time>
      </trkpt>
      <trkpt lat="20.24811667" lon="-98.74291167">
        <ele>2035.0</ele>
        <time>2019-10-12T16:10:01.907Z</time>
      </trkpt>
      <trkpt lat="20.24812" lon="-98.74290167">
        <ele>2035.0</ele>
        <time>2019-10-12T16:10:02.908Z</time>
      </trkpt>
      <trkpt lat="20.24812333" lon="-98.74289167">
        <ele>2035.0</ele>
        <time>2019-10-12T16:10:03.911Z</time>
      </trkpt>
      <trkpt lat="20.24812833" lon="-98.74287833">
        <ele>2035.0</ele>
        <time>2019-10-12T16:10:04.919Z</time>
      </trkpt>
      <trkpt lat="20.24813167" lon="-98.74286833">
        <ele>2036.0</ele>
        <time>2019-10-12T16:10:05.926Z</time>
      </trkpt>
      <trkpt lat="20.248135" lon="-98.74285833">
        <ele>2036.0</ele>
        <time>2019-10-12T16:10:06.931Z</time>
      </trkpt>
      <trkpt lat="20.24814" lon="-98.742845">
        <ele>2036.0</ele>
        <time>2019-10-12T16:10:07.935Z</time>
      </trkpt>
      <trkpt lat="20.24814" lon="-98.74283167">
        <ele>2036.0</ele>
        <time>2019-10-12T16:10:08.939Z</time>
      </trkpt>
      <trkpt lat="20.24814167" lon="-98.74282">
        <ele>2036.0</ele>
        <time>2019-10-12T16:10:09.947Z</time>
      </trkpt>
      <trkpt lat="20.24814167" lon="-98.74280667">
        <ele>2036.0</ele>
        <time>2019-10-12T16:10:10.954Z</time>
      </trkpt>
      <trkpt lat="20.24814167" lon="-98.74279167">
        <ele>2037.0</ele>
        <time>2019-10-12T16:10:11.834Z</time>
      </trkpt>
      <trkpt lat="20.24814167" lon="-98.74278">
        <ele>2037.0</ele>
        <time>2019-10-12T16:10:12.840Z</time>
      </trkpt>
      <trkpt lat="20.24813833" lon="-98.742765">
        <ele>2037.0</ele>
        <time>2019-10-12T16:10:13.842Z</time>
      </trkpt>
      <trkpt lat="20.24813667" lon="-98.74275167">
        <ele>2037.0</ele>
        <time>2019-10-12T16:10:14.847Z</time>
      </trkpt>
      <trkpt lat="20.248135" lon="-98.742735">
        <ele>2037.0</ele>
        <time>2019-10-12T16:10:15.848Z</time>
      </trkpt>
      <trkpt lat="20.24813" lon="-98.74272">
        <ele>2038.0</ele>
        <time>2019-10-12T16:10:16.849Z</time>
      </trkpt>
      <trkpt lat="20.24812667" lon="-98.74270833">
        <ele>2038.0</ele>
        <time>2019-10-12T16:10:17.849Z</time>
      </trkpt>
      <trkpt lat="20.24812333" lon="-98.742695">
        <ele>2038.0</ele>
        <time>2019-10-12T16:10:18.851Z</time>
      </trkpt>
      <trkpt lat="20.24812167" lon="-98.74268">
        <ele>2039.0</ele>
        <time>2019-10-12T16:10:19.852Z</time>
      </trkpt>
      <trkpt lat="20.24812167" lon="-98.74266333">
        <ele>2040.0</ele>
        <time>2019-10-12T16:10:20.852Z</time>
      </trkpt>
      <trkpt lat="20.248125" lon="-98.74264833">
        <ele>2040.0</ele>
        <time>2019-10-12T16:10:21.852Z</time>
      </trkpt>
      <trkpt lat="20.248125" lon="-98.74263667">
        <ele>2040.0</ele>
        <time>2019-10-12T16:10:22.853Z</time>
      </trkpt>
      <trkpt lat="20.248125" lon="-98.742625">
        <ele>2040.0</ele>
        <time>2019-10-12T16:10:23.854Z</time>
      </trkpt>
      <trkpt lat="20.24812667" lon="-98.74260667">
        <ele>2040.0</ele>
        <time>2019-10-12T16:10:24.862Z</time>
      </trkpt>
      <trkpt lat="20.24812833" lon="-98.74259">
        <ele>2040.0</ele>
        <time>2019-10-12T16:10:25.870Z</time>
      </trkpt>
      <trkpt lat="20.24813167" lon="-98.742575">
        <ele>2040.0</ele>
        <time>2019-10-12T16:10:26.872Z</time>
      </trkpt>
      <trkpt lat="20.24813333" lon="-98.74256">
        <ele>2040.0</ele>
        <time>2019-10-12T16:10:27.874Z</time>
      </trkpt>
      <trkpt lat="20.24813667" lon="-98.74255">
        <ele>2040.0</ele>
        <time>2019-10-12T16:10:28.879Z</time>
      </trkpt>
      <trkpt lat="20.24814" lon="-98.742535">
        <ele>2040.0</ele>
        <time>2019-10-12T16:10:29.883Z</time>
      </trkpt>
      <trkpt lat="20.24814167" lon="-98.74252">
        <ele>2041.0</ele>
        <time>2019-10-12T16:10:30.891Z</time>
      </trkpt>
      <trkpt lat="20.24814333" lon="-98.742505">
        <ele>2041.0</ele>
        <time>2019-10-12T16:10:31.897Z</time>
      </trkpt>
      <trkpt lat="20.24814333" lon="-98.74249167">
        <ele>2041.0</ele>
        <time>2019-10-12T16:10:32.905Z</time>
      </trkpt>
      <trkpt lat="20.248145" lon="-98.742475">
        <ele>2041.0</ele>
        <time>2019-10-12T16:10:33.909Z</time>
      </trkpt>
      <trkpt lat="20.24814667" lon="-98.74246167">
        <ele>2041.0</ele>
        <time>2019-10-12T16:10:34.913Z</time>
      </trkpt>
      <trkpt lat="20.24814833" lon="-98.74244667">
        <ele>2041.0</ele>
        <time>2019-10-12T16:10:35.921Z</time>
      </trkpt>
      <trkpt lat="20.24814667" lon="-98.74243">
        <ele>2041.0</ele>
        <time>2019-10-12T16:10:36.927Z</time>
      </trkpt>
      <trkpt lat="20.248145" lon="-98.742415">
        <ele>2041.0</ele>
        <time>2019-10-12T16:10:37.928Z</time>
      </trkpt>
      <trkpt lat="20.24814333" lon="-98.74240167">
        <ele>2041.0</ele>
        <time>2019-10-12T16:10:38.929Z</time>
      </trkpt>
      <trkpt lat="20.24814167" lon="-98.74238667">
        <ele>2041.0</ele>
        <time>2019-10-12T16:10:39.930Z</time>
      </trkpt>
      <trkpt lat="20.24813667" lon="-98.74237333">
        <ele>2041.0</ele>
        <time>2019-10-12T16:10:40.931Z</time>
      </trkpt>
      <trkpt lat="20.24813167" lon="-98.74236">
        <ele>2041.0</ele>
        <time>2019-10-12T16:10:41.931Z</time>
      </trkpt>
      <trkpt lat="20.24812667" lon="-98.74234667">
        <ele>2041.0</ele>
        <time>2019-10-12T16:10:42.932Z</time>
      </trkpt>
      <trkpt lat="20.24812" lon="-98.74233333">
        <ele>2041.0</ele>
        <time>2019-10-12T16:10:43.933Z</time>
      </trkpt>
      <trkpt lat="20.24811333" lon="-98.74231667">
        <ele>2042.0</ele>
        <time>2019-10-12T16:10:44.934Z</time>
      </trkpt>
      <trkpt lat="20.24810667" lon="-98.74230333">
        <ele>2042.0</ele>
        <time>2019-10-12T16:10:45.934Z</time>
      </trkpt>
      <trkpt lat="20.24809667" lon="-98.74228833">
        <ele>2043.0</ele>
        <time>2019-10-12T16:10:46.935Z</time>
      </trkpt>
      <trkpt lat="20.24808667" lon="-98.74227833">
        <ele>2043.0</ele>
        <time>2019-10-12T16:10:47.935Z</time>
      </trkpt>
      <trkpt lat="20.24807333" lon="-98.74226667">
        <ele>2043.0</ele>
        <time>2019-10-12T16:10:48.936Z</time>
      </trkpt>
      <trkpt lat="20.24806" lon="-98.742255">
        <ele>2043.0</ele>
        <time>2019-10-12T16:10:49.936Z</time>
      </trkpt>
      <trkpt lat="20.24804667" lon="-98.742245">
        <ele>2043.0</ele>
        <time>2019-10-12T16:10:50.937Z</time>
      </trkpt>
      <trkpt lat="20.248035" lon="-98.74223333">
        <ele>2044.0</ele>
        <time>2019-10-12T16:10:51.938Z</time>
      </trkpt>
      <trkpt lat="20.24802333" lon="-98.74222167">
        <ele>2044.0</ele>
        <time>2019-10-12T16:10:52.939Z</time>
      </trkpt>
      <trkpt lat="20.24801333" lon="-98.74221167">
        <ele>2044.0</ele>
        <time>2019-10-12T16:10:53.940Z</time>
      </trkpt>
      <trkpt lat="20.24800167" lon="-98.74220167">
        <ele>2044.0</ele>
        <time>2019-10-12T16:10:54.941Z</time>
      </trkpt>
      <trkpt lat="20.24798833" lon="-98.74219167">
        <ele>2044.0</ele>
        <time>2019-10-12T16:10:55.941Z</time>
      </trkpt>
      <trkpt lat="20.24797667" lon="-98.74218167">
        <ele>2044.0</ele>
        <time>2019-10-12T16:10:56.942Z</time>
      </trkpt>
      <trkpt lat="20.24796333" lon="-98.74217">
        <ele>2044.0</ele>
        <time>2019-10-12T16:10:57.943Z</time>
      </trkpt>
      <trkpt lat="20.24795" lon="-98.74215833">
        <ele>2044.0</ele>
        <time>2019-10-12T16:10:58.944Z</time>
      </trkpt>
      <trkpt lat="20.24793667" lon="-98.742145">
        <ele>2044.0</ele>
        <time>2019-10-12T16:10:59.945Z</time>
      </trkpt>
      <trkpt lat="20.24792833" lon="-98.74213333">
        <ele>2044.0</ele>
        <time>2019-10-12T16:11:00.945Z</time>
      </trkpt>
      <trkpt lat="20.24792333" lon="-98.74212">
        <ele>2044.0</ele>
        <time>2019-10-12T16:11:01.946Z</time>
      </trkpt>
      <trkpt lat="20.24792" lon="-98.74210667">
        <ele>2045.0</ele>
        <time>2019-10-12T16:11:02.947Z</time>
      </trkpt>
      <trkpt lat="20.24792" lon="-98.74209333">
        <ele>2045.0</ele>
        <time>2019-10-12T16:11:03.948Z</time>
      </trkpt>
      <trkpt lat="20.24791833" lon="-98.74208167">
        <ele>2045.0</ele>
        <time>2019-10-12T16:11:04.949Z</time>
      </trkpt>
      <trkpt lat="20.24792" lon="-98.74206833">
        <ele>2044.0</ele>
        <time>2019-10-12T16:11:05.949Z</time>
      </trkpt>
      <trkpt lat="20.24792167" lon="-98.74205667">
        <ele>2044.0</ele>
        <time>2019-10-12T16:11:06.950Z</time>
      </trkpt>
      <trkpt lat="20.24792333" lon="-98.742045">
        <ele>2044.0</ele>
        <time>2019-10-12T16:11:07.951Z</time>
      </trkpt>
      <trkpt lat="20.24792833" lon="-98.74203667">
        <ele>2044.0</ele>
        <time>2019-10-12T16:11:08.952Z</time>
      </trkpt>
      <trkpt lat="20.247935" lon="-98.74202833">
        <ele>2044.0</ele>
        <time>2019-10-12T16:11:09.953Z</time>
      </trkpt>
      <trkpt lat="20.247945" lon="-98.74202">
        <ele>2043.0</ele>
        <time>2019-10-12T16:11:10.954Z</time>
      </trkpt>
      <trkpt lat="20.24795167" lon="-98.74201">
        <ele>2044.0</ele>
        <time>2019-10-12T16:11:11.954Z</time>
      </trkpt>
      <trkpt lat="20.24796167" lon="-98.742">
        <ele>2044.0</ele>
        <time>2019-10-12T16:11:12.830Z</time>
      </trkpt>
      <trkpt lat="20.24797167" lon="-98.74198833">
        <ele>2044.0</ele>
        <time>2019-10-12T16:11:13.830Z</time>
      </trkpt>
      <trkpt lat="20.247985" lon="-98.74197833">
        <ele>2044.0</ele>
        <time>2019-10-12T16:11:14.832Z</time>
      </trkpt>
      <trkpt lat="20.24799333" lon="-98.741965">
        <ele>2045.0</ele>
        <time>2019-10-12T16:11:15.833Z</time>
      </trkpt>
      <trkpt lat="20.24800333" lon="-98.74195167">
        <ele>2046.0</ele>
        <time>2019-10-12T16:11:16.833Z</time>
      </trkpt>
      <trkpt lat="20.24801167" lon="-98.741935">
        <ele>2046.0</ele>
        <time>2019-10-12T16:11:17.834Z</time>
      </trkpt>
      <trkpt lat="20.24801833" lon="-98.74191833">
        <ele>2047.0</ele>
        <time>2019-10-12T16:11:18.834Z</time>
      </trkpt>
      <trkpt lat="20.248025" lon="-98.74190333">
        <ele>2048.0</ele>
        <time>2019-10-12T16:11:19.839Z</time>
      </trkpt>
      <trkpt lat="20.24803167" lon="-98.74189">
        <ele>2048.0</ele>
        <time>2019-10-12T16:11:20.844Z</time>
      </trkpt>
      <trkpt lat="20.24804" lon="-98.74187833">
        <ele>2048.0</ele>
        <time>2019-10-12T16:11:21.850Z</time>
      </trkpt>
      <trkpt lat="20.24804667" lon="-98.741865">
        <ele>2049.0</ele>
        <time>2019-10-12T16:11:22.854Z</time>
      </trkpt>
      <trkpt lat="20.24805333" lon="-98.74185">
        <ele>2049.0</ele>
        <time>2019-10-12T16:11:23.859Z</time>
      </trkpt>
      <trkpt lat="20.24805667" lon="-98.74183167">
        <ele>2048.0</ele>
        <time>2019-10-12T16:11:24.864Z</time>
      </trkpt>
      <trkpt lat="20.24806333" lon="-98.74181333">
        <ele>2048.0</ele>
        <time>2019-10-12T16:11:25.869Z</time>
      </trkpt>
      <trkpt lat="20.24806833" lon="-98.74179833">
        <ele>2048.0</ele>
        <time>2019-10-12T16:11:26.875Z</time>
      </trkpt>
      <trkpt lat="20.248075" lon="-98.74178">
        <ele>2049.0</ele>
        <time>2019-10-12T16:11:27.880Z</time>
      </trkpt>
      <trkpt lat="20.24807667" lon="-98.74176167">
        <ele>2050.0</ele>
        <time>2019-10-12T16:11:28.886Z</time>
      </trkpt>
      <trkpt lat="20.24808" lon="-98.74174333">
        <ele>2051.0</ele>
        <time>2019-10-12T16:11:29.893Z</time>
      </trkpt>
      <trkpt lat="20.24808167" lon="-98.741725">
        <ele>2052.0</ele>
        <time>2019-10-12T16:11:30.896Z</time>
      </trkpt>
      <trkpt lat="20.24808167" lon="-98.74170667">
        <ele>2052.0</ele>
        <time>2019-10-12T16:11:31.900Z</time>
      </trkpt>
      <trkpt lat="20.24808167" lon="-98.74168667">
        <ele>2053.0</ele>
        <time>2019-10-12T16:11:32.901Z</time>
      </trkpt>
      <trkpt lat="20.24808333" lon="-98.74166333">
        <ele>2055.0</ele>
        <time>2019-10-12T16:11:33.902Z</time>
      </trkpt>
      <trkpt lat="20.24808" lon="-98.741645">
        <ele>2056.0</ele>
        <time>2019-10-12T16:11:34.903Z</time>
      </trkpt>
      <trkpt lat="20.24807667" lon="-98.74162667">
        <ele>2057.0</ele>
        <time>2019-10-12T16:11:35.908Z</time>
      </trkpt>
      <trkpt lat="20.24807" lon="-98.74161">
        <ele>2058.0</ele>
        <time>2019-10-12T16:11:36.914Z</time>
      </trkpt>
      <trkpt lat="20.24806333" lon="-98.741595">
        <ele>2058.0</ele>
        <time>2019-10-12T16:11:37.918Z</time>
      </trkpt>
      <trkpt lat="20.24805833" lon="-98.74158167">
        <ele>2058.0</ele>
        <time>2019-10-12T16:11:38.922Z</time>
      </trkpt>
      <trkpt lat="20.24805333" lon="-98.74156667">
        <ele>2058.0</ele>
        <time>2019-10-12T16:11:39.928Z</time>
      </trkpt>
      <trkpt lat="20.24805167" lon="-98.74155">
        <ele>2059.0</ele>
        <time>2019-10-12T16:11:40.934Z</time>
      </trkpt>
      <trkpt lat="20.24804833" lon="-98.74153667">
        <ele>2059.0</ele>
        <time>2019-10-12T16:11:41.939Z</time>
      </trkpt>
      <trkpt lat="20.24805" lon="-98.74152667">
        <ele>2059.0</ele>
        <time>2019-10-12T16:11:42.946Z</time>
      </trkpt>
      <trkpt lat="20.24804833" lon="-98.74151833">
        <ele>2060.0</ele>
        <time>2019-10-12T16:11:43.950Z</time>
      </trkpt>
      <trkpt lat="20.24804833" lon="-98.74150833">
        <ele>2060.0</ele>
        <time>2019-10-12T16:11:44.953Z</time>
      </trkpt>
      <trkpt lat="20.24804833" lon="-98.7415">
        <ele>2060.0</ele>
        <time>2019-10-12T16:11:45.831Z</time>
      </trkpt>
      <trkpt lat="20.24804667" lon="-98.74148667">
        <ele>2060.0</ele>
        <time>2019-10-12T16:11:46.838Z</time>
      </trkpt>
      <trkpt lat="20.24804333" lon="-98.74147167">
        <ele>2061.0</ele>
        <time>2019-10-12T16:11:47.844Z</time>
      </trkpt>
      <trkpt lat="20.24803833" lon="-98.741455">
        <ele>2062.0</ele>
        <time>2019-10-12T16:11:48.851Z</time>
      </trkpt>
      <trkpt lat="20.24803333" lon="-98.74143833">
        <ele>2063.0</ele>
        <time>2019-10-12T16:11:49.852Z</time>
      </trkpt>
      <trkpt lat="20.24802667" lon="-98.74142333">
        <ele>2063.0</ele>
        <time>2019-10-12T16:11:50.853Z</time>
      </trkpt>
      <trkpt lat="20.24801667" lon="-98.74140667">
        <ele>2064.0</ele>
        <time>2019-10-12T16:11:51.854Z</time>
      </trkpt>
      <trkpt lat="20.24800667" lon="-98.74139167">
        <ele>2064.0</ele>
        <time>2019-10-12T16:11:52.854Z</time>
      </trkpt>
      <trkpt lat="20.24799667" lon="-98.74138">
        <ele>2064.0</ele>
        <time>2019-10-12T16:11:53.855Z</time>
      </trkpt>
      <trkpt lat="20.24799" lon="-98.74136833">
        <ele>2064.0</ele>
        <time>2019-10-12T16:11:54.856Z</time>
      </trkpt>
      <trkpt lat="20.24798167" lon="-98.741355">
        <ele>2063.0</ele>
        <time>2019-10-12T16:11:55.857Z</time>
      </trkpt>
      <trkpt lat="20.247975" lon="-98.74134167">
        <ele>2063.0</ele>
        <time>2019-10-12T16:11:56.859Z</time>
      </trkpt>
      <trkpt lat="20.24796833" lon="-98.74133">
        <ele>2062.0</ele>
        <time>2019-10-12T16:11:57.864Z</time>
      </trkpt>
      <trkpt lat="20.24796167" lon="-98.74131833">
        <ele>2062.0</ele>
        <time>2019-10-12T16:11:58.871Z</time>
      </trkpt>
      <trkpt lat="20.24795333" lon="-98.741305">
        <ele>2061.0</ele>
        <time>2019-10-12T16:11:59.876Z</time>
      </trkpt>
      <trkpt lat="20.24794667" lon="-98.74129167">
        <ele>2062.0</ele>
        <time>2019-10-12T16:12:00.879Z</time>
      </trkpt>
      <trkpt lat="20.24793667" lon="-98.74128">
        <ele>2062.0</ele>
        <time>2019-10-12T16:12:01.883Z</time>
      </trkpt>
      <trkpt lat="20.24792833" lon="-98.74126833">
        <ele>2062.0</ele>
        <time>2019-10-12T16:12:02.889Z</time>
      </trkpt>
      <trkpt lat="20.24792167" lon="-98.741255">
        <ele>2063.0</ele>
        <time>2019-10-12T16:12:03.892Z</time>
      </trkpt>
      <trkpt lat="20.247915" lon="-98.74124167">
        <ele>2063.0</ele>
        <time>2019-10-12T16:12:04.898Z</time>
      </trkpt>
      <trkpt lat="20.24790667" lon="-98.74122667">
        <ele>2063.0</ele>
        <time>2019-10-12T16:12:05.904Z</time>
      </trkpt>
      <trkpt lat="20.2479" lon="-98.74121833">
        <ele>2063.0</ele>
        <time>2019-10-12T16:12:06.911Z</time>
      </trkpt>
      <trkpt lat="20.24789333" lon="-98.74121167">
        <ele>2063.0</ele>
        <time>2019-10-12T16:12:07.915Z</time>
      </trkpt>
      <trkpt lat="20.24788833" lon="-98.74120833">
        <ele>2063.0</ele>
        <time>2019-10-12T16:12:08.922Z</time>
      </trkpt>
      <trkpt lat="20.24788167" lon="-98.74120667">
        <ele>2063.0</ele>
        <time>2019-10-12T16:12:09.926Z</time>
      </trkpt>
      <trkpt lat="20.24787833" lon="-98.74120833">
        <ele>2062.0</ele>
        <time>2019-10-12T16:12:10.931Z</time>
      </trkpt>
      <trkpt lat="20.247875" lon="-98.74121">
        <ele>2062.0</ele>
        <time>2019-10-12T16:12:11.932Z</time>
      </trkpt>
      <trkpt lat="20.24787" lon="-98.74121167">
        <ele>2061.0</ele>
        <time>2019-10-12T16:12:12.933Z</time>
      </trkpt>
      <trkpt lat="20.24786667" lon="-98.74121333">
        <ele>2061.0</ele>
        <time>2019-10-12T16:12:13.934Z</time>
      </trkpt>
      <trkpt lat="20.24786333" lon="-98.74121667">
        <ele>2061.0</ele>
        <time>2019-10-12T16:12:14.935Z</time>
      </trkpt>
      <trkpt lat="20.24786333" lon="-98.74121833">
        <ele>2061.0</ele>
        <time>2019-10-12T16:12:15.938Z</time>
      </trkpt>
      <trkpt lat="20.24785833" lon="-98.74121833">
        <ele>2061.0</ele>
        <time>2019-10-12T16:12:16.943Z</time>
      </trkpt>
      <trkpt lat="20.24785667" lon="-98.74121667">
        <ele>2060.0</ele>
        <time>2019-10-12T16:12:17.947Z</time>
      </trkpt>
      <trkpt lat="20.247855" lon="-98.74121833">
        <ele>2060.0</ele>
        <time>2019-10-12T16:12:18.954Z</time>
      </trkpt>
      <trkpt lat="20.24785333" lon="-98.74122">
        <ele>2059.0</ele>
        <time>2019-10-12T16:12:19.833Z</time>
      </trkpt>
      <trkpt lat="20.24785" lon="-98.74122">
        <ele>2060.0</ele>
        <time>2019-10-12T16:12:20.835Z</time>
      </trkpt>
      <trkpt lat="20.247845" lon="-98.74122">
        <ele>2059.0</ele>
        <time>2019-10-12T16:12:21.841Z</time>
      </trkpt>
      <trkpt lat="20.24784167" lon="-98.74121667">
        <ele>2059.0</ele>
        <time>2019-10-12T16:12:22.847Z</time>
      </trkpt>
      <trkpt lat="20.24784167" lon="-98.74121667">
        <ele>2059.0</ele>
        <time>2019-10-12T16:12:23.848Z</time>
      </trkpt>
      <trkpt lat="20.24784167" lon="-98.74121667">
        <ele>2059.0</ele>
        <time>2019-10-12T16:12:24.850Z</time>
      </trkpt>
      <trkpt lat="20.24784167" lon="-98.74121667">
        <ele>2059.0</ele>
        <time>2019-10-12T16:12:25.855Z</time>
      </trkpt>
      <trkpt lat="20.24784167" lon="-98.74121667">
        <ele>2059.0</ele>
        <time>2019-10-12T16:12:26.862Z</time>
      </trkpt>
      <trkpt lat="20.24784167" lon="-98.74121667">
        <ele>2059.0</ele>
        <time>2019-10-12T16:12:27.866Z</time>
      </trkpt>
      <trkpt lat="20.24784167" lon="-98.74121667">
        <ele>2059.0</ele>
        <time>2019-10-12T16:12:28.867Z</time>
      </trkpt>
      <trkpt lat="20.24784167" lon="-98.74121667">
        <ele>2059.0</ele>
        <time>2019-10-12T16:12:29.870Z</time>
      </trkpt>
      <trkpt lat="20.24784167" lon="-98.74121667">
        <ele>2059.0</ele>
        <time>2019-10-12T16:12:30.877Z</time>
      </trkpt>
      <trkpt lat="20.24784167" lon="-98.74121667">
        <ele>2059.0</ele>
        <time>2019-10-12T16:12:31.885Z</time>
      </trkpt>
      <trkpt lat="20.24784" lon="-98.74121333">
        <ele>2059.0</ele>
        <time>2019-10-12T16:12:32.886Z</time>
      </trkpt>
      <trkpt lat="20.24782667" lon="-98.74120167">
        <ele>2059.0</ele>
        <time>2019-10-12T16:12:33.886Z</time>
      </trkpt>
      <trkpt lat="20.24781667" lon="-98.74119333">
        <ele>2059.0</ele>
        <time>2019-10-12T16:12:34.887Z</time>
      </trkpt>
      <trkpt lat="20.247805" lon="-98.74118167">
        <ele>2059.0</ele>
        <time>2019-10-12T16:12:35.889Z</time>
      </trkpt>
      <trkpt lat="20.24779333" lon="-98.74116833">
        <ele>2059.0</ele>
        <time>2019-10-12T16:12:36.889Z</time>
      </trkpt>
      <trkpt lat="20.24778" lon="-98.74115667">
        <ele>2059.0</ele>
        <time>2019-10-12T16:12:37.890Z</time>
      </trkpt>
      <trkpt lat="20.24776667" lon="-98.74114333">
        <ele>2060.0</ele>
        <time>2019-10-12T16:12:38.891Z</time>
      </trkpt>
      <trkpt lat="20.247755" lon="-98.74113">
        <ele>2060.0</ele>
        <time>2019-10-12T16:12:39.891Z</time>
      </trkpt>
      <trkpt lat="20.24774" lon="-98.74111667">
        <ele>2060.0</ele>
        <time>2019-10-12T16:12:40.892Z</time>
      </trkpt>
      <trkpt lat="20.24772333" lon="-98.74110333">
        <ele>2060.0</ele>
        <time>2019-10-12T16:12:41.893Z</time>
      </trkpt>
      <trkpt lat="20.24771167" lon="-98.741095">
        <ele>2060.0</ele>
        <time>2019-10-12T16:12:42.893Z</time>
      </trkpt>
      <trkpt lat="20.24769833" lon="-98.74108833">
        <ele>2060.0</ele>
        <time>2019-10-12T16:12:43.894Z</time>
      </trkpt>
      <trkpt lat="20.24768833" lon="-98.74108167">
        <ele>2060.0</ele>
        <time>2019-10-12T16:12:44.894Z</time>
      </trkpt>
      <trkpt lat="20.24767667" lon="-98.74107667">
        <ele>2060.0</ele>
        <time>2019-10-12T16:12:45.895Z</time>
      </trkpt>
      <trkpt lat="20.24766333" lon="-98.74107167">
        <ele>2060.0</ele>
        <time>2019-10-12T16:12:46.895Z</time>
      </trkpt>
      <trkpt lat="20.24764833" lon="-98.74106667">
        <ele>2060.0</ele>
        <time>2019-10-12T16:12:47.896Z</time>
      </trkpt>
      <trkpt lat="20.24763333" lon="-98.74106167">
        <ele>2060.0</ele>
        <time>2019-10-12T16:12:48.898Z</time>
      </trkpt>
      <trkpt lat="20.24762" lon="-98.74105667">
        <ele>2061.0</ele>
        <time>2019-10-12T16:12:49.898Z</time>
      </trkpt>
      <trkpt lat="20.247605" lon="-98.74105333">
        <ele>2061.0</ele>
        <time>2019-10-12T16:12:50.899Z</time>
      </trkpt>
      <trkpt lat="20.24759" lon="-98.74105167">
        <ele>2061.0</ele>
        <time>2019-10-12T16:12:51.900Z</time>
      </trkpt>
      <trkpt lat="20.247575" lon="-98.74105">
        <ele>2061.0</ele>
        <time>2019-10-12T16:12:52.901Z</time>
      </trkpt>
      <trkpt lat="20.24756167" lon="-98.74105">
        <ele>2061.0</ele>
        <time>2019-10-12T16:12:53.902Z</time>
      </trkpt>
      <trkpt lat="20.24755" lon="-98.74105">
        <ele>2061.0</ele>
        <time>2019-10-12T16:12:54.903Z</time>
      </trkpt>
      <trkpt lat="20.24753833" lon="-98.74105167">
        <ele>2061.0</ele>
        <time>2019-10-12T16:12:55.903Z</time>
      </trkpt>
      <trkpt lat="20.24752833" lon="-98.74105167">
        <ele>2061.0</ele>
        <time>2019-10-12T16:12:56.904Z</time>
      </trkpt>
      <trkpt lat="20.24751333" lon="-98.74105167">
        <ele>2062.0</ele>
        <time>2019-10-12T16:12:57.905Z</time>
      </trkpt>
      <trkpt lat="20.24749833" lon="-98.74105167">
        <ele>2062.0</ele>
        <time>2019-10-12T16:12:58.906Z</time>
      </trkpt>
      <trkpt lat="20.24748167" lon="-98.741055">
        <ele>2062.0</ele>
        <time>2019-10-12T16:12:59.907Z</time>
      </trkpt>
      <trkpt lat="20.24746667" lon="-98.74105667">
        <ele>2062.0</ele>
        <time>2019-10-12T16:13:00.907Z</time>
      </trkpt>
      <trkpt lat="20.24745167" lon="-98.74105833">
        <ele>2062.0</ele>
        <time>2019-10-12T16:13:01.908Z</time>
      </trkpt>
      <trkpt lat="20.24743667" lon="-98.74106">
        <ele>2062.0</ele>
        <time>2019-10-12T16:13:02.909Z</time>
      </trkpt>
      <trkpt lat="20.24742333" lon="-98.74106">
        <ele>2062.0</ele>
        <time>2019-10-12T16:13:03.910Z</time>
      </trkpt>
      <trkpt lat="20.24740833" lon="-98.74106">
        <ele>2063.0</ele>
        <time>2019-10-12T16:13:04.911Z</time>
      </trkpt>
      <trkpt lat="20.24739333" lon="-98.74106167">
        <ele>2063.0</ele>
        <time>2019-10-12T16:13:05.911Z</time>
      </trkpt>
      <trkpt lat="20.24737667" lon="-98.74106333">
        <ele>2064.0</ele>
        <time>2019-10-12T16:13:06.912Z</time>
      </trkpt>
      <trkpt lat="20.24736167" lon="-98.74106333">
        <ele>2064.0</ele>
        <time>2019-10-12T16:13:07.913Z</time>
      </trkpt>
      <trkpt lat="20.24734833" lon="-98.74106333">
        <ele>2064.0</ele>
        <time>2019-10-12T16:13:08.914Z</time>
      </trkpt>
      <trkpt lat="20.24733333" lon="-98.741065">
        <ele>2064.0</ele>
        <time>2019-10-12T16:13:09.915Z</time>
      </trkpt>
      <trkpt lat="20.24732" lon="-98.74106667">
        <ele>2064.0</ele>
        <time>2019-10-12T16:13:10.917Z</time>
      </trkpt>
      <trkpt lat="20.247305" lon="-98.74106833">
        <ele>2064.0</ele>
        <time>2019-10-12T16:13:11.923Z</time>
      </trkpt>
      <trkpt lat="20.24729" lon="-98.74107167">
        <ele>2065.0</ele>
        <time>2019-10-12T16:13:12.929Z</time>
      </trkpt>
      <trkpt lat="20.24727667" lon="-98.74107667">
        <ele>2065.0</ele>
        <time>2019-10-12T16:13:13.931Z</time>
      </trkpt>
      <trkpt lat="20.24726333" lon="-98.74108167">
        <ele>2065.0</ele>
        <time>2019-10-12T16:13:14.936Z</time>
      </trkpt>
      <trkpt lat="20.24725" lon="-98.74108333">
        <ele>2065.0</ele>
        <time>2019-10-12T16:13:15.942Z</time>
      </trkpt>
      <trkpt lat="20.24723667" lon="-98.74108667">
        <ele>2065.0</ele>
        <time>2019-10-12T16:13:16.949Z</time>
      </trkpt>
      <trkpt lat="20.24722167" lon="-98.74109167">
        <ele>2065.0</ele>
        <time>2019-10-12T16:13:17.953Z</time>
      </trkpt>
      <trkpt lat="20.24720833" lon="-98.741095">
        <ele>2065.0</ele>
        <time>2019-10-12T16:13:18.834Z</time>
      </trkpt>
      <trkpt lat="20.24719667" lon="-98.7411">
        <ele>2066.0</ele>
        <time>2019-10-12T16:13:19.841Z</time>
      </trkpt>
      <trkpt lat="20.24718333" lon="-98.74110333">
        <ele>2066.0</ele>
        <time>2019-10-12T16:13:20.846Z</time>
      </trkpt>
      <trkpt lat="20.24717" lon="-98.74110667">
        <ele>2066.0</ele>
        <time>2019-10-12T16:13:21.850Z</time>
      </trkpt>
      <trkpt lat="20.24715667" lon="-98.74110833">
        <ele>2067.0</ele>
        <time>2019-10-12T16:13:22.855Z</time>
      </trkpt>
      <trkpt lat="20.24714167" lon="-98.74111167">
        <ele>2067.0</ele>
        <time>2019-10-12T16:13:23.860Z</time>
      </trkpt>
      <trkpt lat="20.24712833" lon="-98.74111667">
        <ele>2067.0</ele>
        <time>2019-10-12T16:13:24.860Z</time>
      </trkpt>
      <trkpt lat="20.24711667" lon="-98.74112">
        <ele>2066.0</ele>
        <time>2019-10-12T16:13:25.860Z</time>
      </trkpt>
      <trkpt lat="20.247105" lon="-98.74112333">
        <ele>2066.0</ele>
        <time>2019-10-12T16:13:26.860Z</time>
      </trkpt>
      <trkpt lat="20.247095" lon="-98.74112833">
        <ele>2066.0</ele>
        <time>2019-10-12T16:13:27.861Z</time>
      </trkpt>
      <trkpt lat="20.247085" lon="-98.74113167">
        <ele>2066.0</ele>
        <time>2019-10-12T16:13:28.861Z</time>
      </trkpt>
      <trkpt lat="20.247075" lon="-98.741135">
        <ele>2066.0</ele>
        <time>2019-10-12T16:13:29.862Z</time>
      </trkpt>
      <trkpt lat="20.24706333" lon="-98.74114">
        <ele>2066.0</ele>
        <time>2019-10-12T16:13:30.862Z</time>
      </trkpt>
      <trkpt lat="20.24705333" lon="-98.741145">
        <ele>2067.0</ele>
        <time>2019-10-12T16:13:31.862Z</time>
      </trkpt>
      <trkpt lat="20.24704" lon="-98.74115167">
        <ele>2067.0</ele>
        <time>2019-10-12T16:13:32.863Z</time>
      </trkpt>
      <trkpt lat="20.24702667" lon="-98.74115667">
        <ele>2067.0</ele>
        <time>2019-10-12T16:13:33.863Z</time>
      </trkpt>
      <trkpt lat="20.247015" lon="-98.74116167">
        <ele>2067.0</ele>
        <time>2019-10-12T16:13:34.864Z</time>
      </trkpt>
      <trkpt lat="20.247005" lon="-98.74116667">
        <ele>2067.0</ele>
        <time>2019-10-12T16:13:35.868Z</time>
      </trkpt>
      <trkpt lat="20.24699333" lon="-98.74117167">
        <ele>2068.0</ele>
        <time>2019-10-12T16:13:36.873Z</time>
      </trkpt>
      <trkpt lat="20.24698167" lon="-98.741175">
        <ele>2069.0</ele>
        <time>2019-10-12T16:13:37.877Z</time>
      </trkpt>
      <trkpt lat="20.24697" lon="-98.74117833">
        <ele>2069.0</ele>
        <time>2019-10-12T16:13:38.883Z</time>
      </trkpt>
      <trkpt lat="20.24695833" lon="-98.74118167">
        <ele>2069.0</ele>
        <time>2019-10-12T16:13:39.887Z</time>
      </trkpt>
      <trkpt lat="20.246945" lon="-98.741185">
        <ele>2069.0</ele>
        <time>2019-10-12T16:13:40.887Z</time>
      </trkpt>
      <trkpt lat="20.24693333" lon="-98.74118833">
        <ele>2069.0</ele>
        <time>2019-10-12T16:13:41.888Z</time>
      </trkpt>
      <trkpt lat="20.24692333" lon="-98.74119333">
        <ele>2069.0</ele>
        <time>2019-10-12T16:13:42.891Z</time>
      </trkpt>
      <trkpt lat="20.24691" lon="-98.7412">
        <ele>2069.0</ele>
        <time>2019-10-12T16:13:43.897Z</time>
      </trkpt>
      <trkpt lat="20.246895" lon="-98.741205">
        <ele>2069.0</ele>
        <time>2019-10-12T16:13:44.902Z</time>
      </trkpt>
      <trkpt lat="20.24688" lon="-98.74121167">
        <ele>2070.0</ele>
        <time>2019-10-12T16:13:45.905Z</time>
      </trkpt>
      <trkpt lat="20.24686667" lon="-98.74122">
        <ele>2070.0</ele>
        <time>2019-10-12T16:13:46.911Z</time>
      </trkpt>
      <trkpt lat="20.24685167" lon="-98.74122667">
        <ele>2070.0</ele>
        <time>2019-10-12T16:13:47.915Z</time>
      </trkpt>
      <trkpt lat="20.24683667" lon="-98.74123333">
        <ele>2070.0</ele>
        <time>2019-10-12T16:13:48.920Z</time>
      </trkpt>
      <trkpt lat="20.24682167" lon="-98.74124167">
        <ele>2071.0</ele>
        <time>2019-10-12T16:13:49.926Z</time>
      </trkpt>
      <trkpt lat="20.24680667" lon="-98.74125">
        <ele>2071.0</ele>
        <time>2019-10-12T16:13:50.932Z</time>
      </trkpt>
      <trkpt lat="20.24679167" lon="-98.74125833">
        <ele>2071.0</ele>
        <time>2019-10-12T16:13:51.932Z</time>
      </trkpt>
      <trkpt lat="20.24677833" lon="-98.74126833">
        <ele>2072.0</ele>
        <time>2019-10-12T16:13:52.933Z</time>
      </trkpt>
      <trkpt lat="20.24676333" lon="-98.74128">
        <ele>2072.0</ele>
        <time>2019-10-12T16:13:53.940Z</time>
      </trkpt>
      <trkpt lat="20.24675" lon="-98.74129">
        <ele>2073.0</ele>
        <time>2019-10-12T16:13:54.947Z</time>
      </trkpt>
      <trkpt lat="20.24673667" lon="-98.74130333">
        <ele>2073.0</ele>
        <time>2019-10-12T16:13:55.948Z</time>
      </trkpt>
      <trkpt lat="20.24672333" lon="-98.74131667">
        <ele>2073.0</ele>
        <time>2019-10-12T16:13:56.955Z</time>
      </trkpt>
      <trkpt lat="20.24671" lon="-98.74133167">
        <ele>2073.0</ele>
        <time>2019-10-12T16:13:57.833Z</time>
      </trkpt>
      <trkpt lat="20.24669833" lon="-98.74134667">
        <ele>2073.0</ele>
        <time>2019-10-12T16:13:58.839Z</time>
      </trkpt>
      <trkpt lat="20.24668833" lon="-98.74136333">
        <ele>2073.0</ele>
        <time>2019-10-12T16:13:59.845Z</time>
      </trkpt>
      <trkpt lat="20.24667833" lon="-98.74137333">
        <ele>2073.0</ele>
        <time>2019-10-12T16:14:00.848Z</time>
      </trkpt>
      <trkpt lat="20.24666667" lon="-98.741395">
        <ele>2073.0</ele>
        <time>2019-10-12T16:14:01.853Z</time>
      </trkpt>
      <trkpt lat="20.24665833" lon="-98.741415">
        <ele>2073.0</ele>
        <time>2019-10-12T16:14:02.859Z</time>
      </trkpt>
      <trkpt lat="20.24664833" lon="-98.74143333">
        <ele>2073.0</ele>
        <time>2019-10-12T16:14:03.867Z</time>
      </trkpt>
      <trkpt lat="20.24664167" lon="-98.74145">
        <ele>2073.0</ele>
        <time>2019-10-12T16:14:04.870Z</time>
      </trkpt>
      <trkpt lat="20.246635" lon="-98.741465">
        <ele>2073.0</ele>
        <time>2019-10-12T16:14:05.874Z</time>
      </trkpt>
      <trkpt lat="20.24662833" lon="-98.74148167">
        <ele>2073.0</ele>
        <time>2019-10-12T16:14:06.874Z</time>
      </trkpt>
      <trkpt lat="20.24662" lon="-98.74149833">
        <ele>2072.0</ele>
        <time>2019-10-12T16:14:07.874Z</time>
      </trkpt>
      <trkpt lat="20.24661333" lon="-98.74151667">
        <ele>2073.0</ele>
        <time>2019-10-12T16:14:08.875Z</time>
      </trkpt>
      <trkpt lat="20.24660667" lon="-98.74153333">
        <ele>2073.0</ele>
        <time>2019-10-12T16:14:09.881Z</time>
      </trkpt>
      <trkpt lat="20.2466" lon="-98.74155333">
        <ele>2073.0</ele>
        <time>2019-10-12T16:14:10.885Z</time>
      </trkpt>
      <trkpt lat="20.24659" lon="-98.74157333">
        <ele>2074.0</ele>
        <time>2019-10-12T16:14:11.890Z</time>
      </trkpt>
      <trkpt lat="20.24658167" lon="-98.74159">
        <ele>2074.0</ele>
        <time>2019-10-12T16:14:12.895Z</time>
      </trkpt>
      <trkpt lat="20.246575" lon="-98.74160833">
        <ele>2074.0</ele>
        <time>2019-10-12T16:14:13.897Z</time>
      </trkpt>
      <trkpt lat="20.24656833" lon="-98.741625">
        <ele>2074.0</ele>
        <time>2019-10-12T16:14:14.900Z</time>
      </trkpt>
      <trkpt lat="20.24655833" lon="-98.74164167">
        <ele>2074.0</ele>
        <time>2019-10-12T16:14:15.904Z</time>
      </trkpt>
      <trkpt lat="20.24654833" lon="-98.74166">
        <ele>2074.0</ele>
        <time>2019-10-12T16:14:16.906Z</time>
      </trkpt>
      <trkpt lat="20.24654167" lon="-98.741675">
        <ele>2074.0</ele>
        <time>2019-10-12T16:14:17.911Z</time>
      </trkpt>
      <trkpt lat="20.24653333" lon="-98.74169167">
        <ele>2075.0</ele>
        <time>2019-10-12T16:14:18.916Z</time>
      </trkpt>
      <trkpt lat="20.24652167" lon="-98.74170833">
        <ele>2075.0</ele>
        <time>2019-10-12T16:14:19.918Z</time>
      </trkpt>
      <trkpt lat="20.24651" lon="-98.74172333">
        <ele>2075.0</ele>
        <time>2019-10-12T16:14:20.924Z</time>
      </trkpt>
      <trkpt lat="20.24649833" lon="-98.74173833">
        <ele>2075.0</ele>
        <time>2019-10-12T16:14:21.930Z</time>
      </trkpt>
      <trkpt lat="20.24648833" lon="-98.74175167">
        <ele>2075.0</ele>
        <time>2019-10-12T16:14:22.934Z</time>
      </trkpt>
      <trkpt lat="20.24647833" lon="-98.741765">
        <ele>2075.0</ele>
        <time>2019-10-12T16:14:23.940Z</time>
      </trkpt>
      <trkpt lat="20.24646833" lon="-98.74178">
        <ele>2075.0</ele>
        <time>2019-10-12T16:14:24.942Z</time>
      </trkpt>
      <trkpt lat="20.24645833" lon="-98.741795">
        <ele>2075.0</ele>
        <time>2019-10-12T16:14:25.942Z</time>
      </trkpt>
      <trkpt lat="20.24645" lon="-98.74181">
        <ele>2075.0</ele>
        <time>2019-10-12T16:14:26.943Z</time>
      </trkpt>
      <trkpt lat="20.24644333" lon="-98.74182667">
        <ele>2075.0</ele>
        <time>2019-10-12T16:14:27.943Z</time>
      </trkpt>
      <trkpt lat="20.246435" lon="-98.74184167">
        <ele>2075.0</ele>
        <time>2019-10-12T16:14:28.943Z</time>
      </trkpt>
      <trkpt lat="20.246425" lon="-98.741855">
        <ele>2075.0</ele>
        <time>2019-10-12T16:14:29.944Z</time>
      </trkpt>
      <trkpt lat="20.24641833" lon="-98.74187333">
        <ele>2075.0</ele>
        <time>2019-10-12T16:14:30.944Z</time>
      </trkpt>
      <trkpt lat="20.24641167" lon="-98.74188833">
        <ele>2075.0</ele>
        <time>2019-10-12T16:14:31.944Z</time>
      </trkpt>
      <trkpt lat="20.24640333" lon="-98.74190667">
        <ele>2075.0</ele>
        <time>2019-10-12T16:14:32.945Z</time>
      </trkpt>
      <trkpt lat="20.24639833" lon="-98.74192333">
        <ele>2075.0</ele>
        <time>2019-10-12T16:14:33.945Z</time>
      </trkpt>
      <trkpt lat="20.24639167" lon="-98.74194333">
        <ele>2076.0</ele>
        <time>2019-10-12T16:14:34.945Z</time>
      </trkpt>
      <trkpt lat="20.24638333" lon="-98.74196">
        <ele>2075.0</ele>
        <time>2019-10-12T16:14:35.946Z</time>
      </trkpt>
      <trkpt lat="20.246375" lon="-98.741975">
        <ele>2076.0</ele>
        <time>2019-10-12T16:14:36.946Z</time>
      </trkpt>
      <trkpt lat="20.24636667" lon="-98.74198833">
        <ele>2076.0</ele>
        <time>2019-10-12T16:14:37.946Z</time>
      </trkpt>
      <trkpt lat="20.24635833" lon="-98.74200333">
        <ele>2076.0</ele>
        <time>2019-10-12T16:14:38.947Z</time>
      </trkpt>
      <trkpt lat="20.24635167" lon="-98.74202">
        <ele>2076.0</ele>
        <time>2019-10-12T16:14:39.947Z</time>
      </trkpt>
      <trkpt lat="20.24634167" lon="-98.74203667">
        <ele>2077.0</ele>
        <time>2019-10-12T16:14:40.947Z</time>
      </trkpt>
      <trkpt lat="20.24633333" lon="-98.74205333">
        <ele>2078.0</ele>
        <time>2019-10-12T16:14:41.948Z</time>
      </trkpt>
      <trkpt lat="20.24632667" lon="-98.74207333">
        <ele>2078.0</ele>
        <time>2019-10-12T16:14:42.948Z</time>
      </trkpt>
      <trkpt lat="20.24631667" lon="-98.74209167">
        <ele>2079.0</ele>
        <time>2019-10-12T16:14:43.950Z</time>
      </trkpt>
      <trkpt lat="20.24631167" lon="-98.74211">
        <ele>2080.0</ele>
        <time>2019-10-12T16:14:44.955Z</time>
      </trkpt>
      <trkpt lat="20.24631" lon="-98.74212667">
        <ele>2079.0</ele>
        <time>2019-10-12T16:14:45.836Z</time>
      </trkpt>
      <trkpt lat="20.24631" lon="-98.742145">
        <ele>2079.0</ele>
        <time>2019-10-12T16:14:46.842Z</time>
      </trkpt>
      <trkpt lat="20.24631" lon="-98.74216333">
        <ele>2079.0</ele>
        <time>2019-10-12T16:14:47.844Z</time>
      </trkpt>
      <trkpt lat="20.24631333" lon="-98.742185">
        <ele>2080.0</ele>
        <time>2019-10-12T16:14:48.845Z</time>
      </trkpt>
      <trkpt lat="20.246315" lon="-98.74220667">
        <ele>2080.0</ele>
        <time>2019-10-12T16:14:49.848Z</time>
      </trkpt>
      <trkpt lat="20.24631333" lon="-98.74222333">
        <ele>2080.0</ele>
        <time>2019-10-12T16:14:50.850Z</time>
      </trkpt>
      <trkpt lat="20.24631167" lon="-98.742245">
        <ele>2080.0</ele>
        <time>2019-10-12T16:14:51.852Z</time>
      </trkpt>
      <trkpt lat="20.24630833" lon="-98.74226167">
        <ele>2080.0</ele>
        <time>2019-10-12T16:14:52.854Z</time>
      </trkpt>
      <trkpt lat="20.24630333" lon="-98.74227833">
        <ele>2081.0</ele>
        <time>2019-10-12T16:14:53.856Z</time>
      </trkpt>
      <trkpt lat="20.24630167" lon="-98.74229667">
        <ele>2082.0</ele>
        <time>2019-10-12T16:14:54.860Z</time>
      </trkpt>
      <trkpt lat="20.24630167" lon="-98.74231667">
        <ele>2082.0</ele>
        <time>2019-10-12T16:14:55.865Z</time>
      </trkpt>
      <trkpt lat="20.24630333" lon="-98.742335">
        <ele>2082.0</ele>
        <time>2019-10-12T16:14:56.871Z</time>
      </trkpt>
      <trkpt lat="20.24630667" lon="-98.74235333">
        <ele>2082.0</ele>
        <time>2019-10-12T16:14:57.873Z</time>
      </trkpt>
      <trkpt lat="20.24631333" lon="-98.742375">
        <ele>2082.0</ele>
        <time>2019-10-12T16:14:58.875Z</time>
      </trkpt>
      <trkpt lat="20.24631667" lon="-98.74239667">
        <ele>2083.0</ele>
        <time>2019-10-12T16:14:59.880Z</time>
      </trkpt>
      <trkpt lat="20.24632333" lon="-98.74241833">
        <ele>2083.0</ele>
        <time>2019-10-12T16:15:00.883Z</time>
      </trkpt>
      <trkpt lat="20.24632833" lon="-98.742435">
        <ele>2083.0</ele>
        <time>2019-10-12T16:15:01.889Z</time>
      </trkpt>
      <trkpt lat="20.24633333" lon="-98.74245167">
        <ele>2083.0</ele>
        <time>2019-10-12T16:15:02.892Z</time>
      </trkpt>
      <trkpt lat="20.24633833" lon="-98.74246667">
        <ele>2083.0</ele>
        <time>2019-10-12T16:15:03.892Z</time>
      </trkpt>
      <trkpt lat="20.24634167" lon="-98.74247833">
        <ele>2083.0</ele>
        <time>2019-10-12T16:15:04.892Z</time>
      </trkpt>
      <trkpt lat="20.24634333" lon="-98.74249333">
        <ele>2082.0</ele>
        <time>2019-10-12T16:15:05.892Z</time>
      </trkpt>
      <trkpt lat="20.246345" lon="-98.74251167">
        <ele>2082.0</ele>
        <time>2019-10-12T16:15:06.893Z</time>
      </trkpt>
      <trkpt lat="20.24634167" lon="-98.74252667">
        <ele>2082.0</ele>
        <time>2019-10-12T16:15:07.893Z</time>
      </trkpt>
      <trkpt lat="20.24634" lon="-98.74254667">
        <ele>2083.0</ele>
        <time>2019-10-12T16:15:08.893Z</time>
      </trkpt>
      <trkpt lat="20.24634" lon="-98.74256667">
        <ele>2083.0</ele>
        <time>2019-10-12T16:15:09.893Z</time>
      </trkpt>
      <trkpt lat="20.24633833" lon="-98.74258333">
        <ele>2084.0</ele>
        <time>2019-10-12T16:15:10.893Z</time>
      </trkpt>
      <trkpt lat="20.24634167" lon="-98.7426">
        <ele>2084.0</ele>
        <time>2019-10-12T16:15:11.893Z</time>
      </trkpt>
      <trkpt lat="20.24634333" lon="-98.742615">
        <ele>2085.0</ele>
        <time>2019-10-12T16:15:12.894Z</time>
      </trkpt>
      <trkpt lat="20.24634" lon="-98.74262833">
        <ele>2085.0</ele>
        <time>2019-10-12T16:15:13.894Z</time>
      </trkpt>
      <trkpt lat="20.24633833" lon="-98.74264333">
        <ele>2086.0</ele>
        <time>2019-10-12T16:15:14.896Z</time>
      </trkpt>
      <trkpt lat="20.24633833" lon="-98.74265833">
        <ele>2087.0</ele>
        <time>2019-10-12T16:15:15.902Z</time>
      </trkpt>
      <trkpt lat="20.24633833" lon="-98.74267167">
        <ele>2087.0</ele>
        <time>2019-10-12T16:15:16.907Z</time>
      </trkpt>
      <trkpt lat="20.24633667" lon="-98.742685">
        <ele>2087.0</ele>
        <time>2019-10-12T16:15:17.912Z</time>
      </trkpt>
      <trkpt lat="20.24633333" lon="-98.74269667">
        <ele>2087.0</ele>
        <time>2019-10-12T16:15:18.918Z</time>
      </trkpt>
      <trkpt lat="20.24632667" lon="-98.74271167">
        <ele>2087.0</ele>
        <time>2019-10-12T16:15:19.920Z</time>
      </trkpt>
      <trkpt lat="20.24631833" lon="-98.74272667">
        <ele>2088.0</ele>
        <time>2019-10-12T16:15:20.927Z</time>
      </trkpt>
      <trkpt lat="20.24630667" lon="-98.74273833">
        <ele>2088.0</ele>
        <time>2019-10-12T16:15:21.933Z</time>
      </trkpt>
      <trkpt lat="20.24629833" lon="-98.742745">
        <ele>2088.0</ele>
        <time>2019-10-12T16:15:22.938Z</time>
      </trkpt>
      <trkpt lat="20.24628167" lon="-98.74275333">
        <ele>2088.0</ele>
        <time>2019-10-12T16:15:23.944Z</time>
      </trkpt>
      <trkpt lat="20.24627" lon="-98.74275833">
        <ele>2089.0</ele>
        <time>2019-10-12T16:15:24.950Z</time>
      </trkpt>
      <trkpt lat="20.24625833" lon="-98.74276667">
        <ele>2089.0</ele>
        <time>2019-10-12T16:15:25.831Z</time>
      </trkpt>
      <trkpt lat="20.24624833" lon="-98.74277667">
        <ele>2089.0</ele>
        <time>2019-10-12T16:15:26.837Z</time>
      </trkpt>
      <trkpt lat="20.24624" lon="-98.74278333">
        <ele>2089.0</ele>
        <time>2019-10-12T16:15:27.837Z</time>
      </trkpt>
      <trkpt lat="20.246225" lon="-98.74279167">
        <ele>2090.0</ele>
        <time>2019-10-12T16:15:28.838Z</time>
      </trkpt>
      <trkpt lat="20.246215" lon="-98.7428">
        <ele>2090.0</ele>
        <time>2019-10-12T16:15:29.840Z</time>
      </trkpt>
      <trkpt lat="20.246205" lon="-98.74280667">
        <ele>2090.0</ele>
        <time>2019-10-12T16:15:30.846Z</time>
      </trkpt>
      <trkpt lat="20.246195" lon="-98.74281333">
        <ele>2090.0</ele>
        <time>2019-10-12T16:15:31.851Z</time>
      </trkpt>
      <trkpt lat="20.24618167" lon="-98.74281667">
        <ele>2090.0</ele>
        <time>2019-10-12T16:15:32.857Z</time>
      </trkpt>
      <trkpt lat="20.24617167" lon="-98.74282167">
        <ele>2090.0</ele>
        <time>2019-10-12T16:15:33.860Z</time>
      </trkpt>
      <trkpt lat="20.24616" lon="-98.74283">
        <ele>2090.0</ele>
        <time>2019-10-12T16:15:34.861Z</time>
      </trkpt>
      <trkpt lat="20.24614833" lon="-98.742835">
        <ele>2090.0</ele>
        <time>2019-10-12T16:15:35.866Z</time>
      </trkpt>
      <trkpt lat="20.246135" lon="-98.74284">
        <ele>2090.0</ele>
        <time>2019-10-12T16:15:36.873Z</time>
      </trkpt>
      <trkpt lat="20.24612" lon="-98.74284333">
        <ele>2091.0</ele>
        <time>2019-10-12T16:15:37.878Z</time>
      </trkpt>
      <trkpt lat="20.246105" lon="-98.74285333">
        <ele>2091.0</ele>
        <time>2019-10-12T16:15:38.881Z</time>
      </trkpt>
      <trkpt lat="20.24609167" lon="-98.74286">
        <ele>2091.0</ele>
        <time>2019-10-12T16:15:39.887Z</time>
      </trkpt>
      <trkpt lat="20.24607833" lon="-98.74287">
        <ele>2092.0</ele>
        <time>2019-10-12T16:15:40.893Z</time>
      </trkpt>
      <trkpt lat="20.246065" lon="-98.74287833">
        <ele>2092.0</ele>
        <time>2019-10-12T16:15:41.894Z</time>
      </trkpt>
      <trkpt lat="20.24605667" lon="-98.74289">
        <ele>2092.0</ele>
        <time>2019-10-12T16:15:42.901Z</time>
      </trkpt>
      <trkpt lat="20.246045" lon="-98.74289833">
        <ele>2092.0</ele>
        <time>2019-10-12T16:15:43.905Z</time>
      </trkpt>
      <trkpt lat="20.24603167" lon="-98.74291">
        <ele>2093.0</ele>
        <time>2019-10-12T16:15:44.912Z</time>
      </trkpt>
      <trkpt lat="20.24602" lon="-98.74292">
        <ele>2093.0</ele>
        <time>2019-10-12T16:15:45.916Z</time>
      </trkpt>
      <trkpt lat="20.24600833" lon="-98.74293">
        <ele>2094.0</ele>
        <time>2019-10-12T16:15:46.919Z</time>
      </trkpt>
      <trkpt lat="20.245995" lon="-98.742945">
        <ele>2094.0</ele>
        <time>2019-10-12T16:15:47.925Z</time>
      </trkpt>
      <trkpt lat="20.24598333" lon="-98.74296">
        <ele>2095.0</ele>
        <time>2019-10-12T16:15:48.931Z</time>
      </trkpt>
      <trkpt lat="20.24597667" lon="-98.74297667">
        <ele>2096.0</ele>
        <time>2019-10-12T16:15:49.937Z</time>
      </trkpt>
      <trkpt lat="20.24597" lon="-98.74299333">
        <ele>2096.0</ele>
        <time>2019-10-12T16:15:50.944Z</time>
      </trkpt>
      <trkpt lat="20.245965" lon="-98.74300833">
        <ele>2096.0</ele>
        <time>2019-10-12T16:15:51.949Z</time>
      </trkpt>
      <trkpt lat="20.24595833" lon="-98.74302333">
        <ele>2096.0</ele>
        <time>2019-10-12T16:15:52.831Z</time>
      </trkpt>
      <trkpt lat="20.24595167" lon="-98.74304333">
        <ele>2097.0</ele>
        <time>2019-10-12T16:15:53.837Z</time>
      </trkpt>
      <trkpt lat="20.24594667" lon="-98.74305833">
        <ele>2097.0</ele>
        <time>2019-10-12T16:15:54.842Z</time>
      </trkpt>
      <trkpt lat="20.245945" lon="-98.74307333">
        <ele>2098.0</ele>
        <time>2019-10-12T16:15:55.845Z</time>
      </trkpt>
      <trkpt lat="20.245945" lon="-98.74308667">
        <ele>2098.0</ele>
        <time>2019-10-12T16:15:56.847Z</time>
      </trkpt>
      <trkpt lat="20.24594333" lon="-98.74310333">
        <ele>2098.0</ele>
        <time>2019-10-12T16:15:57.847Z</time>
      </trkpt>
      <trkpt lat="20.24594" lon="-98.74312333">
        <ele>2099.0</ele>
        <time>2019-10-12T16:15:58.847Z</time>
      </trkpt>
      <trkpt lat="20.24593833" lon="-98.74314167">
        <ele>2099.0</ele>
        <time>2019-10-12T16:15:59.847Z</time>
      </trkpt>
      <trkpt lat="20.24593667" lon="-98.74315667">
        <ele>2099.0</ele>
        <time>2019-10-12T16:16:00.848Z</time>
      </trkpt>
      <trkpt lat="20.24593667" lon="-98.74317">
        <ele>2100.0</ele>
        <time>2019-10-12T16:16:01.852Z</time>
      </trkpt>
      <trkpt lat="20.245935" lon="-98.74318167">
        <ele>2100.0</ele>
        <time>2019-10-12T16:16:02.857Z</time>
      </trkpt>
      <trkpt lat="20.245935" lon="-98.7432">
        <ele>2100.0</ele>
        <time>2019-10-12T16:16:03.863Z</time>
      </trkpt>
      <trkpt lat="20.245935" lon="-98.74321667">
        <ele>2100.0</ele>
        <time>2019-10-12T16:16:04.866Z</time>
      </trkpt>
      <trkpt lat="20.245935" lon="-98.74322667">
        <ele>2101.0</ele>
        <time>2019-10-12T16:16:05.871Z</time>
      </trkpt>
      <trkpt lat="20.245935" lon="-98.74324">
        <ele>2101.0</ele>
        <time>2019-10-12T16:16:06.877Z</time>
      </trkpt>
      <trkpt lat="20.245935" lon="-98.743255">
        <ele>2102.0</ele>
        <time>2019-10-12T16:16:07.880Z</time>
      </trkpt>
      <trkpt lat="20.24594" lon="-98.74326667">
        <ele>2103.0</ele>
        <time>2019-10-12T16:16:08.882Z</time>
      </trkpt>
      <trkpt lat="20.24594167" lon="-98.74327833">
        <ele>2103.0</ele>
        <time>2019-10-12T16:16:09.888Z</time>
      </trkpt>
      <trkpt lat="20.24594167" lon="-98.74328833">
        <ele>2104.0</ele>
        <time>2019-10-12T16:16:10.893Z</time>
      </trkpt>
      <trkpt lat="20.24594667" lon="-98.74330167">
        <ele>2104.0</ele>
        <time>2019-10-12T16:16:11.898Z</time>
      </trkpt>
      <trkpt lat="20.24595167" lon="-98.743315">
        <ele>2105.0</ele>
        <time>2019-10-12T16:16:12.905Z</time>
      </trkpt>
      <trkpt lat="20.24595333" lon="-98.74332667">
        <ele>2106.0</ele>
        <time>2019-10-12T16:16:13.911Z</time>
      </trkpt>
      <trkpt lat="20.24595667" lon="-98.74334167">
        <ele>2106.0</ele>
        <time>2019-10-12T16:16:14.913Z</time>
      </trkpt>
      <trkpt lat="20.24596" lon="-98.74335167">
        <ele>2106.0</ele>
        <time>2019-10-12T16:16:15.913Z</time>
      </trkpt>
      <trkpt lat="20.24596167" lon="-98.74336833">
        <ele>2106.0</ele>
        <time>2019-10-12T16:16:16.913Z</time>
      </trkpt>
      <trkpt lat="20.24596167" lon="-98.743385">
        <ele>2107.0</ele>
        <time>2019-10-12T16:16:17.913Z</time>
      </trkpt>
      <trkpt lat="20.24597" lon="-98.74339833">
        <ele>2107.0</ele>
        <time>2019-10-12T16:16:18.914Z</time>
      </trkpt>
      <trkpt lat="20.24597667" lon="-98.74341333">
        <ele>2108.0</ele>
        <time>2019-10-12T16:16:19.914Z</time>
      </trkpt>
      <trkpt lat="20.24598167" lon="-98.74342667">
        <ele>2109.0</ele>
        <time>2019-10-12T16:16:20.914Z</time>
      </trkpt>
      <trkpt lat="20.24598833" lon="-98.74344">
        <ele>2109.0</ele>
        <time>2019-10-12T16:16:21.914Z</time>
      </trkpt>
      <trkpt lat="20.24599333" lon="-98.74345">
        <ele>2109.0</ele>
        <time>2019-10-12T16:16:22.915Z</time>
      </trkpt>
      <trkpt lat="20.24599667" lon="-98.74346333">
        <ele>2109.0</ele>
        <time>2019-10-12T16:16:23.915Z</time>
      </trkpt>
      <trkpt lat="20.246" lon="-98.743475">
        <ele>2109.0</ele>
        <time>2019-10-12T16:16:24.915Z</time>
      </trkpt>
      <trkpt lat="20.24600167" lon="-98.743485">
        <ele>2109.0</ele>
        <time>2019-10-12T16:16:25.915Z</time>
      </trkpt>
      <trkpt lat="20.246" lon="-98.74349833">
        <ele>2109.0</ele>
        <time>2019-10-12T16:16:26.916Z</time>
      </trkpt>
      <trkpt lat="20.245995" lon="-98.74351167">
        <ele>2109.0</ele>
        <time>2019-10-12T16:16:27.916Z</time>
      </trkpt>
      <trkpt lat="20.24598667" lon="-98.74352167">
        <ele>2109.0</ele>
        <time>2019-10-12T16:16:28.916Z</time>
      </trkpt>
      <trkpt lat="20.245975" lon="-98.74352667">
        <ele>2108.0</ele>
        <time>2019-10-12T16:16:29.916Z</time>
      </trkpt>
      <trkpt lat="20.245965" lon="-98.74353">
        <ele>2108.0</ele>
        <time>2019-10-12T16:16:30.917Z</time>
      </trkpt>
      <trkpt lat="20.24594833" lon="-98.74353167">
        <ele>2107.0</ele>
        <time>2019-10-12T16:16:31.919Z</time>
      </trkpt>
      <trkpt lat="20.24593167" lon="-98.74353167">
        <ele>2107.0</ele>
        <time>2019-10-12T16:16:32.919Z</time>
      </trkpt>
      <trkpt lat="20.24591667" lon="-98.74352667">
        <ele>2107.0</ele>
        <time>2019-10-12T16:16:33.919Z</time>
      </trkpt>
      <trkpt lat="20.24590167" lon="-98.74352">
        <ele>2106.0</ele>
        <time>2019-10-12T16:16:34.919Z</time>
      </trkpt>
      <trkpt lat="20.24588667" lon="-98.74351">
        <ele>2106.0</ele>
        <time>2019-10-12T16:16:35.925Z</time>
      </trkpt>
      <trkpt lat="20.24587667" lon="-98.74350167">
        <ele>2105.0</ele>
        <time>2019-10-12T16:16:36.933Z</time>
      </trkpt>
      <trkpt lat="20.24586" lon="-98.743485">
        <ele>2105.0</ele>
        <time>2019-10-12T16:16:37.939Z</time>
      </trkpt>
      <trkpt lat="20.24584667" lon="-98.74347">
        <ele>2104.0</ele>
        <time>2019-10-12T16:16:38.942Z</time>
      </trkpt>
      <trkpt lat="20.24583167" lon="-98.74345667">
        <ele>2104.0</ele>
        <time>2019-10-12T16:16:39.947Z</time>
      </trkpt>
      <trkpt lat="20.24581833" lon="-98.74344333">
        <ele>2104.0</ele>
        <time>2019-10-12T16:16:40.955Z</time>
      </trkpt>
      <trkpt lat="20.2458" lon="-98.74342333">
        <ele>2103.0</ele>
        <time>2019-10-12T16:16:41.834Z</time>
      </trkpt>
      <trkpt lat="20.24578333" lon="-98.74340667">
        <ele>2103.0</ele>
        <time>2019-10-12T16:16:42.837Z</time>
      </trkpt>
      <trkpt lat="20.24576333" lon="-98.74339667">
        <ele>2103.0</ele>
        <time>2019-10-12T16:16:43.840Z</time>
      </trkpt>
      <trkpt lat="20.24574667" lon="-98.74339333">
        <ele>2103.0</ele>
        <time>2019-10-12T16:16:44.841Z</time>
      </trkpt>
      <trkpt lat="20.245725" lon="-98.74338833">
        <ele>2102.0</ele>
        <time>2019-10-12T16:16:45.844Z</time>
      </trkpt>
      <trkpt lat="20.24570667" lon="-98.74339">
        <ele>2101.0</ele>
        <time>2019-10-12T16:16:46.844Z</time>
      </trkpt>
      <trkpt lat="20.24568333" lon="-98.74339333">
        <ele>2101.0</ele>
        <time>2019-10-12T16:16:47.846Z</time>
      </trkpt>
      <trkpt lat="20.24566667" lon="-98.74339667">
        <ele>2100.0</ele>
        <time>2019-10-12T16:16:48.848Z</time>
      </trkpt>
      <trkpt lat="20.24565167" lon="-98.7434">
        <ele>2099.0</ele>
        <time>2019-10-12T16:16:49.852Z</time>
      </trkpt>
      <trkpt lat="20.245635" lon="-98.74341">
        <ele>2098.0</ele>
        <time>2019-10-12T16:16:50.857Z</time>
      </trkpt>
      <trkpt lat="20.24561" lon="-98.74342167">
        <ele>2098.0</ele>
        <time>2019-10-12T16:16:51.858Z</time>
      </trkpt>
      <trkpt lat="20.24559" lon="-98.74343333">
        <ele>2098.0</ele>
        <time>2019-10-12T16:16:52.858Z</time>
      </trkpt>
      <trkpt lat="20.24557333" lon="-98.74344833">
        <ele>2098.0</ele>
        <time>2019-10-12T16:16:53.859Z</time>
      </trkpt>
      <trkpt lat="20.24555667" lon="-98.74346833">
        <ele>2098.0</ele>
        <time>2019-10-12T16:16:54.862Z</time>
      </trkpt>
      <trkpt lat="20.24554" lon="-98.74348667">
        <ele>2098.0</ele>
        <time>2019-10-12T16:16:55.869Z</time>
      </trkpt>
      <trkpt lat="20.24552833" lon="-98.74350167">
        <ele>2097.0</ele>
        <time>2019-10-12T16:16:56.875Z</time>
      </trkpt>
      <trkpt lat="20.24551" lon="-98.743525">
        <ele>2097.0</ele>
        <time>2019-10-12T16:16:57.878Z</time>
      </trkpt>
      <trkpt lat="20.24549833" lon="-98.74354667">
        <ele>2096.0</ele>
        <time>2019-10-12T16:16:58.882Z</time>
      </trkpt>
      <trkpt lat="20.24548833" lon="-98.74356333">
        <ele>2096.0</ele>
        <time>2019-10-12T16:16:59.884Z</time>
      </trkpt>
      <trkpt lat="20.245475" lon="-98.74358333">
        <ele>2095.0</ele>
        <time>2019-10-12T16:17:00.887Z</time>
      </trkpt>
      <trkpt lat="20.24546167" lon="-98.74360833">
        <ele>2094.0</ele>
        <time>2019-10-12T16:17:01.893Z</time>
      </trkpt>
      <trkpt lat="20.24544833" lon="-98.74362833">
        <ele>2094.0</ele>
        <time>2019-10-12T16:17:02.898Z</time>
      </trkpt>
      <trkpt lat="20.24543667" lon="-98.74365">
        <ele>2094.0</ele>
        <time>2019-10-12T16:17:03.906Z</time>
      </trkpt>
      <trkpt lat="20.24542333" lon="-98.74367167">
        <ele>2093.0</ele>
        <time>2019-10-12T16:17:04.908Z</time>
      </trkpt>
      <trkpt lat="20.245415" lon="-98.74369167">
        <ele>2093.0</ele>
        <time>2019-10-12T16:17:05.912Z</time>
      </trkpt>
      <trkpt lat="20.24539833" lon="-98.74372833">
        <ele>2091.0</ele>
        <time>2019-10-12T16:17:06.920Z</time>
      </trkpt>
      <trkpt lat="20.24538333" lon="-98.743755">
        <ele>2090.0</ele>
        <time>2019-10-12T16:17:07.925Z</time>
      </trkpt>
      <trkpt lat="20.24536667" lon="-98.74377167">
        <ele>2090.0</ele>
        <time>2019-10-12T16:17:08.925Z</time>
      </trkpt>
      <trkpt lat="20.24535" lon="-98.74378">
        <ele>2090.0</ele>
        <time>2019-10-12T16:17:09.925Z</time>
      </trkpt>
      <trkpt lat="20.24532667" lon="-98.74378667">
        <ele>2090.0</ele>
        <time>2019-10-12T16:17:10.925Z</time>
      </trkpt>
      <trkpt lat="20.2453" lon="-98.743795">
        <ele>2089.0</ele>
        <time>2019-10-12T16:17:11.926Z</time>
      </trkpt>
      <trkpt lat="20.24527833" lon="-98.74379667">
        <ele>2090.0</ele>
        <time>2019-10-12T16:17:12.926Z</time>
      </trkpt>
      <trkpt lat="20.24525667" lon="-98.74379167">
        <ele>2090.0</ele>
        <time>2019-10-12T16:17:13.926Z</time>
      </trkpt>
      <trkpt lat="20.24523833" lon="-98.74378333">
        <ele>2090.0</ele>
        <time>2019-10-12T16:17:14.926Z</time>
      </trkpt>
      <trkpt lat="20.24522167" lon="-98.74376667">
        <ele>2091.0</ele>
        <time>2019-10-12T16:17:15.926Z</time>
      </trkpt>
      <trkpt lat="20.24521" lon="-98.74374667">
        <ele>2092.0</ele>
        <time>2019-10-12T16:17:16.927Z</time>
      </trkpt>
      <trkpt lat="20.2452" lon="-98.74372167">
        <ele>2092.0</ele>
        <time>2019-10-12T16:17:17.927Z</time>
      </trkpt>
      <trkpt lat="20.245195" lon="-98.743695">
        <ele>2094.0</ele>
        <time>2019-10-12T16:17:18.927Z</time>
      </trkpt>
      <trkpt lat="20.24519167" lon="-98.74366833">
        <ele>2094.0</ele>
        <time>2019-10-12T16:17:19.927Z</time>
      </trkpt>
      <trkpt lat="20.24519167" lon="-98.74363833">
        <ele>2094.0</ele>
        <time>2019-10-12T16:17:20.928Z</time>
      </trkpt>
      <trkpt lat="20.24518833" lon="-98.74361667">
        <ele>2094.0</ele>
        <time>2019-10-12T16:17:21.928Z</time>
      </trkpt>
      <trkpt lat="20.245185" lon="-98.74359167">
        <ele>2095.0</ele>
        <time>2019-10-12T16:17:22.928Z</time>
      </trkpt>
      <trkpt lat="20.24518" lon="-98.74356667">
        <ele>2095.0</ele>
        <time>2019-10-12T16:17:23.928Z</time>
      </trkpt>
      <trkpt lat="20.245175" lon="-98.74354833">
        <ele>2096.0</ele>
        <time>2019-10-12T16:17:24.928Z</time>
      </trkpt>
      <trkpt lat="20.24516667" lon="-98.74351833">
        <ele>2097.0</ele>
        <time>2019-10-12T16:17:25.929Z</time>
      </trkpt>
      <trkpt lat="20.24516333" lon="-98.74349833">
        <ele>2097.0</ele>
        <time>2019-10-12T16:17:26.929Z</time>
      </trkpt>
      <trkpt lat="20.24515333" lon="-98.74348167">
        <ele>2097.0</ele>
        <time>2019-10-12T16:17:27.929Z</time>
      </trkpt>
      <trkpt lat="20.24514167" lon="-98.74347">
        <ele>2097.0</ele>
        <time>2019-10-12T16:17:28.929Z</time>
      </trkpt>
      <trkpt lat="20.24513" lon="-98.743455">
        <ele>2098.0</ele>
        <time>2019-10-12T16:17:29.929Z</time>
      </trkpt>
      <trkpt lat="20.24511333" lon="-98.74343667">
        <ele>2098.0</ele>
        <time>2019-10-12T16:17:30.930Z</time>
      </trkpt>
      <trkpt lat="20.24509167" lon="-98.74342333">
        <ele>2099.0</ele>
        <time>2019-10-12T16:17:31.930Z</time>
      </trkpt>
      <trkpt lat="20.24507333" lon="-98.743415">
        <ele>2099.0</ele>
        <time>2019-10-12T16:17:32.930Z</time>
      </trkpt>
      <trkpt lat="20.245055" lon="-98.74340333">
        <ele>2098.0</ele>
        <time>2019-10-12T16:17:33.930Z</time>
      </trkpt>
      <trkpt lat="20.24504" lon="-98.74339167">
        <ele>2098.0</ele>
        <time>2019-10-12T16:17:34.930Z</time>
      </trkpt>
      <trkpt lat="20.245025" lon="-98.74338">
        <ele>2098.0</ele>
        <time>2019-10-12T16:17:35.935Z</time>
      </trkpt>
      <trkpt lat="20.24501167" lon="-98.74336667">
        <ele>2098.0</ele>
        <time>2019-10-12T16:17:36.942Z</time>
      </trkpt>
      <trkpt lat="20.24499667" lon="-98.74335167">
        <ele>2099.0</ele>
        <time>2019-10-12T16:17:37.946Z</time>
      </trkpt>
      <trkpt lat="20.24498333" lon="-98.74333667">
        <ele>2099.0</ele>
        <time>2019-10-12T16:17:38.950Z</time>
      </trkpt>
      <trkpt lat="20.24497" lon="-98.74332">
        <ele>2099.0</ele>
        <time>2019-10-12T16:17:39.955Z</time>
      </trkpt>
      <trkpt lat="20.244955" lon="-98.74330333">
        <ele>2099.0</ele>
        <time>2019-10-12T16:17:40.834Z</time>
      </trkpt>
      <trkpt lat="20.24494" lon="-98.74328667">
        <ele>2100.0</ele>
        <time>2019-10-12T16:17:41.836Z</time>
      </trkpt>
      <trkpt lat="20.244925" lon="-98.743265">
        <ele>2101.0</ele>
        <time>2019-10-12T16:17:42.841Z</time>
      </trkpt>
      <trkpt lat="20.24490833" lon="-98.74324667">
        <ele>2101.0</ele>
        <time>2019-10-12T16:17:43.846Z</time>
      </trkpt>
      <trkpt lat="20.24489" lon="-98.74322667">
        <ele>2101.0</ele>
        <time>2019-10-12T16:17:44.852Z</time>
      </trkpt>
      <trkpt lat="20.24487333" lon="-98.74320667">
        <ele>2101.0</ele>
        <time>2019-10-12T16:17:45.856Z</time>
      </trkpt>
      <trkpt lat="20.24485667" lon="-98.743185">
        <ele>2101.0</ele>
        <time>2019-10-12T16:17:46.858Z</time>
      </trkpt>
      <trkpt lat="20.24483667" lon="-98.743165">
        <ele>2100.0</ele>
        <time>2019-10-12T16:17:47.863Z</time>
      </trkpt>
      <trkpt lat="20.24481667" lon="-98.74314667">
        <ele>2100.0</ele>
        <time>2019-10-12T16:17:48.869Z</time>
      </trkpt>
      <trkpt lat="20.24479667" lon="-98.74312833">
        <ele>2100.0</ele>
        <time>2019-10-12T16:17:49.871Z</time>
      </trkpt>
      <trkpt lat="20.24477667" lon="-98.74310667">
        <ele>2099.0</ele>
        <time>2019-10-12T16:17:50.871Z</time>
      </trkpt>
      <trkpt lat="20.24475167" lon="-98.74308833">
        <ele>2099.0</ele>
        <time>2019-10-12T16:17:51.871Z</time>
      </trkpt>
      <trkpt lat="20.24472833" lon="-98.74306833">
        <ele>2099.0</ele>
        <time>2019-10-12T16:17:52.872Z</time>
      </trkpt>
      <trkpt lat="20.24470667" lon="-98.74305167">
        <ele>2099.0</ele>
        <time>2019-10-12T16:17:53.876Z</time>
      </trkpt>
      <trkpt lat="20.24468667" lon="-98.743035">
        <ele>2098.0</ele>
        <time>2019-10-12T16:17:54.880Z</time>
      </trkpt>
      <trkpt lat="20.24466667" lon="-98.74301667">
        <ele>2098.0</ele>
        <time>2019-10-12T16:17:55.886Z</time>
      </trkpt>
      <trkpt lat="20.24464667" lon="-98.74299833">
        <ele>2097.0</ele>
        <time>2019-10-12T16:17:56.890Z</time>
      </trkpt>
      <trkpt lat="20.24462667" lon="-98.74298333">
        <ele>2097.0</ele>
        <time>2019-10-12T16:17:57.895Z</time>
      </trkpt>
      <trkpt lat="20.24460333" lon="-98.742965">
        <ele>2096.0</ele>
        <time>2019-10-12T16:17:58.901Z</time>
      </trkpt>
      <trkpt lat="20.24458167" lon="-98.74294833">
        <ele>2096.0</ele>
        <time>2019-10-12T16:17:59.903Z</time>
      </trkpt>
      <trkpt lat="20.24455833" lon="-98.74293333">
        <ele>2096.0</ele>
        <time>2019-10-12T16:18:00.910Z</time>
      </trkpt>
      <trkpt lat="20.244535" lon="-98.74291833">
        <ele>2095.0</ele>
        <time>2019-10-12T16:18:01.916Z</time>
      </trkpt>
      <trkpt lat="20.24451167" lon="-98.74290667">
        <ele>2095.0</ele>
        <time>2019-10-12T16:18:02.922Z</time>
      </trkpt>
      <trkpt lat="20.24449" lon="-98.74289667">
        <ele>2095.0</ele>
        <time>2019-10-12T16:18:03.927Z</time>
      </trkpt>
      <trkpt lat="20.24447167" lon="-98.74289">
        <ele>2095.0</ele>
        <time>2019-10-12T16:18:04.930Z</time>
      </trkpt>
      <trkpt lat="20.24445333" lon="-98.74288667">
        <ele>2095.0</ele>
        <time>2019-10-12T16:18:05.936Z</time>
      </trkpt>
      <trkpt lat="20.24444" lon="-98.74288333">
        <ele>2095.0</ele>
        <time>2019-10-12T16:18:06.937Z</time>
      </trkpt>
      <trkpt lat="20.24443167" lon="-98.74288333">
        <ele>2095.0</ele>
        <time>2019-10-12T16:18:07.941Z</time>
      </trkpt>
      <trkpt lat="20.24442667" lon="-98.742885">
        <ele>2095.0</ele>
        <time>2019-10-12T16:18:08.948Z</time>
      </trkpt>
      <trkpt lat="20.24442167" lon="-98.74288667">
        <ele>2094.0</ele>
        <time>2019-10-12T16:18:09.953Z</time>
      </trkpt>
      <trkpt lat="20.24441833" lon="-98.74289333">
        <ele>2094.0</ele>
        <time>2019-10-12T16:18:10.830Z</time>
      </trkpt>
      <trkpt lat="20.244415" lon="-98.74289833">
        <ele>2094.0</ele>
        <time>2019-10-12T16:18:11.836Z</time>
      </trkpt>
      <trkpt lat="20.24441167" lon="-98.74290167">
        <ele>2093.0</ele>
        <time>2019-10-12T16:18:12.836Z</time>
      </trkpt>
      <trkpt lat="20.24441167" lon="-98.74290667">
        <ele>2093.0</ele>
        <time>2019-10-12T16:18:13.840Z</time>
      </trkpt>
      <trkpt lat="20.24441333" lon="-98.74291333">
        <ele>2093.0</ele>
        <time>2019-10-12T16:18:14.847Z</time>
      </trkpt>
      <trkpt lat="20.24441167" lon="-98.74291667">
        <ele>2093.0</ele>
        <time>2019-10-12T16:18:15.852Z</time>
      </trkpt>
      <trkpt lat="20.24441167" lon="-98.74291833">
        <ele>2093.0</ele>
        <time>2019-10-12T16:18:16.857Z</time>
      </trkpt>
      <trkpt lat="20.24440833" lon="-98.74291333">
        <ele>2092.0</ele>
        <time>2019-10-12T16:18:17.864Z</time>
      </trkpt>
      <trkpt lat="20.2444" lon="-98.742905">
        <ele>2092.0</ele>
        <time>2019-10-12T16:18:18.869Z</time>
      </trkpt>
      <trkpt lat="20.24438667" lon="-98.74289833">
        <ele>2092.0</ele>
        <time>2019-10-12T16:18:19.874Z</time>
      </trkpt>
      <trkpt lat="20.24437333" lon="-98.74290167">
        <ele>2091.0</ele>
        <time>2019-10-12T16:18:20.881Z</time>
      </trkpt>
      <trkpt lat="20.24435833" lon="-98.74291167">
        <ele>2091.0</ele>
        <time>2019-10-12T16:18:21.882Z</time>
      </trkpt>
      <trkpt lat="20.24434" lon="-98.74292">
        <ele>2090.0</ele>
        <time>2019-10-12T16:18:22.882Z</time>
      </trkpt>
      <trkpt lat="20.24432" lon="-98.74292667">
        <ele>2090.0</ele>
        <time>2019-10-12T16:18:23.883Z</time>
      </trkpt>
      <trkpt lat="20.24429833" lon="-98.74292833">
        <ele>2090.0</ele>
        <time>2019-10-12T16:18:24.887Z</time>
      </trkpt>
      <trkpt lat="20.24428" lon="-98.74292833">
        <ele>2090.0</ele>
        <time>2019-10-12T16:18:25.893Z</time>
      </trkpt>
      <trkpt lat="20.244265" lon="-98.74293333">
        <ele>2090.0</ele>
        <time>2019-10-12T16:18:26.899Z</time>
      </trkpt>
      <trkpt lat="20.244255" lon="-98.74293833">
        <ele>2090.0</ele>
        <time>2019-10-12T16:18:27.906Z</time>
      </trkpt>
      <trkpt lat="20.24424667" lon="-98.74294333">
        <ele>2090.0</ele>
        <time>2019-10-12T16:18:28.913Z</time>
      </trkpt>
      <trkpt lat="20.24423667" lon="-98.74294833">
        <ele>2089.0</ele>
        <time>2019-10-12T16:18:29.914Z</time>
      </trkpt>
      <trkpt lat="20.24422667" lon="-98.742955">
        <ele>2089.0</ele>
        <time>2019-10-12T16:18:30.921Z</time>
      </trkpt>
      <trkpt lat="20.24421667" lon="-98.74296167">
        <ele>2089.0</ele>
        <time>2019-10-12T16:18:31.927Z</time>
      </trkpt>
      <trkpt lat="20.24420833" lon="-98.74296833">
        <ele>2088.0</ele>
        <time>2019-10-12T16:18:32.933Z</time>
      </trkpt>
      <trkpt lat="20.24419833" lon="-98.74297667">
        <ele>2088.0</ele>
        <time>2019-10-12T16:18:33.935Z</time>
      </trkpt>
      <trkpt lat="20.24418667" lon="-98.742985">
        <ele>2088.0</ele>
        <time>2019-10-12T16:18:34.937Z</time>
      </trkpt>
      <trkpt lat="20.24417333" lon="-98.74299333">
        <ele>2088.0</ele>
        <time>2019-10-12T16:18:35.944Z</time>
      </trkpt>
      <trkpt lat="20.24415833" lon="-98.743005">
        <ele>2087.0</ele>
        <time>2019-10-12T16:18:36.948Z</time>
      </trkpt>
      <trkpt lat="20.24414667" lon="-98.743015">
        <ele>2088.0</ele>
        <time>2019-10-12T16:18:37.949Z</time>
      </trkpt>
      <trkpt lat="20.244135" lon="-98.74302833">
        <ele>2088.0</ele>
        <time>2019-10-12T16:18:38.950Z</time>
      </trkpt>
      <trkpt lat="20.24412167" lon="-98.74304333">
        <ele>2088.0</ele>
        <time>2019-10-12T16:18:39.951Z</time>
      </trkpt>
      <trkpt lat="20.24411167" lon="-98.74306167">
        <ele>2088.0</ele>
        <time>2019-10-12T16:18:40.952Z</time>
      </trkpt>
      <trkpt lat="20.24410167" lon="-98.74307667">
        <ele>2088.0</ele>
        <time>2019-10-12T16:18:41.952Z</time>
      </trkpt>
      <trkpt lat="20.24409" lon="-98.74308833">
        <ele>2088.0</ele>
        <time>2019-10-12T16:18:42.953Z</time>
      </trkpt>
      <trkpt lat="20.24407667" lon="-98.74309833">
        <ele>2087.0</ele>
        <time>2019-10-12T16:18:43.954Z</time>
      </trkpt>
      <trkpt lat="20.24405833" lon="-98.74310667">
        <ele>2086.0</ele>
        <time>2019-10-12T16:18:44.830Z</time>
      </trkpt>
      <trkpt lat="20.24404" lon="-98.743115">
        <ele>2085.0</ele>
        <time>2019-10-12T16:18:45.832Z</time>
      </trkpt>
      <trkpt lat="20.24402667" lon="-98.74312333">
        <ele>2085.0</ele>
        <time>2019-10-12T16:18:46.838Z</time>
      </trkpt>
      <trkpt lat="20.244015" lon="-98.74313667">
        <ele>2084.0</ele>
        <time>2019-10-12T16:18:47.844Z</time>
      </trkpt>
      <trkpt lat="20.244005" lon="-98.743155">
        <ele>2084.0</ele>
        <time>2019-10-12T16:18:48.846Z</time>
      </trkpt>
      <trkpt lat="20.24399667" lon="-98.74317167">
        <ele>2083.0</ele>
        <time>2019-10-12T16:18:49.851Z</time>
      </trkpt>
      <trkpt lat="20.24399333" lon="-98.74319167">
        <ele>2083.0</ele>
        <time>2019-10-12T16:18:50.856Z</time>
      </trkpt>
      <trkpt lat="20.24399167" lon="-98.74321167">
        <ele>2082.0</ele>
        <time>2019-10-12T16:18:51.861Z</time>
      </trkpt>
      <trkpt lat="20.24398833" lon="-98.74323167">
        <ele>2082.0</ele>
        <time>2019-10-12T16:18:52.867Z</time>
      </trkpt>
      <trkpt lat="20.24398333" lon="-98.743245">
        <ele>2081.0</ele>
        <time>2019-10-12T16:18:53.869Z</time>
      </trkpt>
      <trkpt lat="20.24397833" lon="-98.743255">
        <ele>2081.0</ele>
        <time>2019-10-12T16:18:54.873Z</time>
      </trkpt>
      <trkpt lat="20.24397" lon="-98.74326167">
        <ele>2081.0</ele>
        <time>2019-10-12T16:18:55.877Z</time>
      </trkpt>
      <trkpt lat="20.24396" lon="-98.74326333">
        <ele>2081.0</ele>
        <time>2019-10-12T16:18:56.883Z</time>
      </trkpt>
      <trkpt lat="20.24394833" lon="-98.74326333">
        <ele>2081.0</ele>
        <time>2019-10-12T16:18:57.886Z</time>
      </trkpt>
      <trkpt lat="20.24393667" lon="-98.74326167">
        <ele>2080.0</ele>
        <time>2019-10-12T16:18:58.891Z</time>
      </trkpt>
      <trkpt lat="20.24392667" lon="-98.74325667">
        <ele>2079.0</ele>
        <time>2019-10-12T16:18:59.896Z</time>
      </trkpt>
      <trkpt lat="20.24392167" lon="-98.74324667">
        <ele>2078.0</ele>
        <time>2019-10-12T16:19:00.902Z</time>
      </trkpt>
      <trkpt lat="20.24391667" lon="-98.743235">
        <ele>2078.0</ele>
        <time>2019-10-12T16:19:01.904Z</time>
      </trkpt>
      <trkpt lat="20.24391333" lon="-98.74322">
        <ele>2078.0</ele>
        <time>2019-10-12T16:19:02.906Z</time>
      </trkpt>
      <trkpt lat="20.24390167" lon="-98.74320833">
        <ele>2077.0</ele>
        <time>2019-10-12T16:19:03.906Z</time>
      </trkpt>
      <trkpt lat="20.24389167" lon="-98.74319667">
        <ele>2077.0</ele>
        <time>2019-10-12T16:19:04.907Z</time>
      </trkpt>
      <trkpt lat="20.24388333" lon="-98.743185">
        <ele>2078.0</ele>
        <time>2019-10-12T16:19:05.907Z</time>
      </trkpt>
      <trkpt lat="20.243875" lon="-98.74317167">
        <ele>2078.0</ele>
        <time>2019-10-12T16:19:06.908Z</time>
      </trkpt>
      <trkpt lat="20.24387" lon="-98.743155">
        <ele>2078.0</ele>
        <time>2019-10-12T16:19:07.909Z</time>
      </trkpt>
      <trkpt lat="20.24386333" lon="-98.743135">
        <ele>2078.0</ele>
        <time>2019-10-12T16:19:08.909Z</time>
      </trkpt>
      <trkpt lat="20.24385333" lon="-98.74312167">
        <ele>2078.0</ele>
        <time>2019-10-12T16:19:09.911Z</time>
      </trkpt>
      <trkpt lat="20.24384167" lon="-98.74311167">
        <ele>2078.0</ele>
        <time>2019-10-12T16:19:10.911Z</time>
      </trkpt>
      <trkpt lat="20.24383167" lon="-98.74310667">
        <ele>2077.0</ele>
        <time>2019-10-12T16:19:11.912Z</time>
      </trkpt>
      <trkpt lat="20.24381833" lon="-98.74310667">
        <ele>2077.0</ele>
        <time>2019-10-12T16:19:12.912Z</time>
      </trkpt>
      <trkpt lat="20.24380667" lon="-98.743105">
        <ele>2076.0</ele>
        <time>2019-10-12T16:19:13.913Z</time>
      </trkpt>
      <trkpt lat="20.24379167" lon="-98.74310167">
        <ele>2076.0</ele>
        <time>2019-10-12T16:19:14.914Z</time>
      </trkpt>
      <trkpt lat="20.24377667" lon="-98.743095">
        <ele>2076.0</ele>
        <time>2019-10-12T16:19:15.915Z</time>
      </trkpt>
      <trkpt lat="20.24376167" lon="-98.74309333">
        <ele>2076.0</ele>
        <time>2019-10-12T16:19:16.916Z</time>
      </trkpt>
      <trkpt lat="20.24374667" lon="-98.74309167">
        <ele>2077.0</ele>
        <time>2019-10-12T16:19:17.917Z</time>
      </trkpt>
      <trkpt lat="20.24372833" lon="-98.74308833">
        <ele>2078.0</ele>
        <time>2019-10-12T16:19:18.917Z</time>
      </trkpt>
      <trkpt lat="20.24371" lon="-98.743085">
        <ele>2078.0</ele>
        <time>2019-10-12T16:19:19.918Z</time>
      </trkpt>
      <trkpt lat="20.24369167" lon="-98.74308">
        <ele>2079.0</ele>
        <time>2019-10-12T16:19:20.918Z</time>
      </trkpt>
      <trkpt lat="20.243675" lon="-98.74307">
        <ele>2080.0</ele>
        <time>2019-10-12T16:19:21.919Z</time>
      </trkpt>
      <trkpt lat="20.24365833" lon="-98.74306">
        <ele>2081.0</ele>
        <time>2019-10-12T16:19:22.920Z</time>
      </trkpt>
      <trkpt lat="20.24364333" lon="-98.74304833">
        <ele>2082.0</ele>
        <time>2019-10-12T16:19:23.921Z</time>
      </trkpt>
      <trkpt lat="20.24363" lon="-98.74303833">
        <ele>2082.0</ele>
        <time>2019-10-12T16:19:24.922Z</time>
      </trkpt>
      <trkpt lat="20.24361167" lon="-98.74302833">
        <ele>2083.0</ele>
        <time>2019-10-12T16:19:25.929Z</time>
      </trkpt>
      <trkpt lat="20.24359333" lon="-98.74302167">
        <ele>2083.0</ele>
        <time>2019-10-12T16:19:26.935Z</time>
      </trkpt>
      <trkpt lat="20.243575" lon="-98.74301333">
        <ele>2084.0</ele>
        <time>2019-10-12T16:19:27.939Z</time>
      </trkpt>
      <trkpt lat="20.24355667" lon="-98.74300667">
        <ele>2085.0</ele>
        <time>2019-10-12T16:19:28.940Z</time>
      </trkpt>
      <trkpt lat="20.24354" lon="-98.74300333">
        <ele>2085.0</ele>
        <time>2019-10-12T16:19:29.947Z</time>
      </trkpt>
      <trkpt lat="20.24352333" lon="-98.74300167">
        <ele>2086.0</ele>
        <time>2019-10-12T16:19:30.948Z</time>
      </trkpt>
      <trkpt lat="20.24351" lon="-98.74300167">
        <ele>2087.0</ele>
        <time>2019-10-12T16:19:31.955Z</time>
      </trkpt>
      <trkpt lat="20.24349333" lon="-98.74300333">
        <ele>2087.0</ele>
        <time>2019-10-12T16:19:32.836Z</time>
      </trkpt>
      <trkpt lat="20.24347833" lon="-98.74300833">
        <ele>2088.0</ele>
        <time>2019-10-12T16:19:33.843Z</time>
      </trkpt>
      <trkpt lat="20.243465" lon="-98.74301">
        <ele>2089.0</ele>
        <time>2019-10-12T16:19:34.849Z</time>
      </trkpt>
      <trkpt lat="20.24345" lon="-98.74300667">
        <ele>2089.0</ele>
        <time>2019-10-12T16:19:35.852Z</time>
      </trkpt>
      <trkpt lat="20.24343333" lon="-98.743">
        <ele>2090.0</ele>
        <time>2019-10-12T16:19:36.857Z</time>
      </trkpt>
      <trkpt lat="20.243415" lon="-98.742995">
        <ele>2091.0</ele>
        <time>2019-10-12T16:19:37.865Z</time>
      </trkpt>
      <trkpt lat="20.24339833" lon="-98.74299167">
        <ele>2092.0</ele>
        <time>2019-10-12T16:19:38.870Z</time>
      </trkpt>
      <trkpt lat="20.24338" lon="-98.74298667">
        <ele>2092.0</ele>
        <time>2019-10-12T16:19:39.871Z</time>
      </trkpt>
      <trkpt lat="20.24336167" lon="-98.74298167">
        <ele>2093.0</ele>
        <time>2019-10-12T16:19:40.872Z</time>
      </trkpt>
      <trkpt lat="20.24334667" lon="-98.74298">
        <ele>2093.0</ele>
        <time>2019-10-12T16:19:41.873Z</time>
      </trkpt>
      <trkpt lat="20.24332833" lon="-98.74297667">
        <ele>2094.0</ele>
        <time>2019-10-12T16:19:42.874Z</time>
      </trkpt>
      <trkpt lat="20.24331" lon="-98.742975">
        <ele>2094.0</ele>
        <time>2019-10-12T16:19:43.876Z</time>
      </trkpt>
      <trkpt lat="20.24329167" lon="-98.74297667">
        <ele>2094.0</ele>
        <time>2019-10-12T16:19:44.883Z</time>
      </trkpt>
      <trkpt lat="20.243275" lon="-98.74297167">
        <ele>2094.0</ele>
        <time>2019-10-12T16:19:45.889Z</time>
      </trkpt>
      <trkpt lat="20.243255" lon="-98.74296833">
        <ele>2094.0</ele>
        <time>2019-10-12T16:19:46.895Z</time>
      </trkpt>
      <trkpt lat="20.243235" lon="-98.742965">
        <ele>2095.0</ele>
        <time>2019-10-12T16:19:47.898Z</time>
      </trkpt>
      <trkpt lat="20.24321333" lon="-98.74296667">
        <ele>2095.0</ele>
        <time>2019-10-12T16:19:48.899Z</time>
      </trkpt>
      <trkpt lat="20.24319167" lon="-98.74297">
        <ele>2095.0</ele>
        <time>2019-10-12T16:19:49.900Z</time>
      </trkpt>
      <trkpt lat="20.24317" lon="-98.74297333">
        <ele>2095.0</ele>
        <time>2019-10-12T16:19:50.903Z</time>
      </trkpt>
      <trkpt lat="20.24315" lon="-98.74297667">
        <ele>2095.0</ele>
        <time>2019-10-12T16:19:51.910Z</time>
      </trkpt>
      <trkpt lat="20.24313167" lon="-98.74297333">
        <ele>2094.0</ele>
        <time>2019-10-12T16:19:52.916Z</time>
      </trkpt>
      <trkpt lat="20.24311167" lon="-98.74296833">
        <ele>2094.0</ele>
        <time>2019-10-12T16:19:53.924Z</time>
      </trkpt>
      <trkpt lat="20.24309333" lon="-98.74296333">
        <ele>2094.0</ele>
        <time>2019-10-12T16:19:54.930Z</time>
      </trkpt>
      <trkpt lat="20.243075" lon="-98.74296167">
        <ele>2094.0</ele>
        <time>2019-10-12T16:19:55.933Z</time>
      </trkpt>
      <trkpt lat="20.24305667" lon="-98.74296">
        <ele>2093.0</ele>
        <time>2019-10-12T16:19:56.936Z</time>
      </trkpt>
      <trkpt lat="20.24303833" lon="-98.74295333">
        <ele>2093.0</ele>
        <time>2019-10-12T16:19:57.942Z</time>
      </trkpt>
      <trkpt lat="20.24301833" lon="-98.74294833">
        <ele>2093.0</ele>
        <time>2019-10-12T16:19:58.948Z</time>
      </trkpt>
      <trkpt lat="20.24299667" lon="-98.74294333">
        <ele>2093.0</ele>
        <time>2019-10-12T16:19:59.949Z</time>
      </trkpt>
      <trkpt lat="20.242975" lon="-98.74293833">
        <ele>2094.0</ele>
        <time>2019-10-12T16:20:00.950Z</time>
      </trkpt>
      <trkpt lat="20.24295667" lon="-98.74294">
        <ele>2094.0</ele>
        <time>2019-10-12T16:20:01.951Z</time>
      </trkpt>
      <trkpt lat="20.24294167" lon="-98.74294667">
        <ele>2093.0</ele>
        <time>2019-10-12T16:20:02.952Z</time>
      </trkpt>
      <trkpt lat="20.24293167" lon="-98.74296167">
        <ele>2094.0</ele>
        <time>2019-10-12T16:20:03.952Z</time>
      </trkpt>
      <trkpt lat="20.24292333" lon="-98.742975">
        <ele>2093.0</ele>
        <time>2019-10-12T16:20:04.953Z</time>
      </trkpt>
      <trkpt lat="20.24291333" lon="-98.74298833">
        <ele>2093.0</ele>
        <time>2019-10-12T16:20:05.954Z</time>
      </trkpt>
      <trkpt lat="20.24290333" lon="-98.74300333">
        <ele>2093.0</ele>
        <time>2019-10-12T16:20:06.830Z</time>
      </trkpt>
      <trkpt lat="20.24289333" lon="-98.743015">
        <ele>2092.0</ele>
        <time>2019-10-12T16:20:07.830Z</time>
      </trkpt>
      <trkpt lat="20.242885" lon="-98.74302667">
        <ele>2092.0</ele>
        <time>2019-10-12T16:20:08.831Z</time>
      </trkpt>
      <trkpt lat="20.24287667" lon="-98.74303333">
        <ele>2092.0</ele>
        <time>2019-10-12T16:20:09.832Z</time>
      </trkpt>
      <trkpt lat="20.24286667" lon="-98.74303667">
        <ele>2092.0</ele>
        <time>2019-10-12T16:20:10.833Z</time>
      </trkpt>
      <trkpt lat="20.24285833" lon="-98.743035">
        <ele>2092.0</ele>
        <time>2019-10-12T16:20:11.834Z</time>
      </trkpt>
      <trkpt lat="20.24285" lon="-98.74303">
        <ele>2092.0</ele>
        <time>2019-10-12T16:20:12.835Z</time>
      </trkpt>
      <trkpt lat="20.24284333" lon="-98.743025">
        <ele>2093.0</ele>
        <time>2019-10-12T16:20:13.835Z</time>
      </trkpt>
      <trkpt lat="20.24283667" lon="-98.74301833">
        <ele>2094.0</ele>
        <time>2019-10-12T16:20:14.836Z</time>
      </trkpt>
      <trkpt lat="20.24283" lon="-98.74301333">
        <ele>2094.0</ele>
        <time>2019-10-12T16:20:15.836Z</time>
      </trkpt>
      <trkpt lat="20.24282333" lon="-98.74301">
        <ele>2095.0</ele>
        <time>2019-10-12T16:20:16.838Z</time>
      </trkpt>
      <trkpt lat="20.24281333" lon="-98.74301333">
        <ele>2095.0</ele>
        <time>2019-10-12T16:20:17.839Z</time>
      </trkpt>
      <trkpt lat="20.242805" lon="-98.74301667">
        <ele>2095.0</ele>
        <time>2019-10-12T16:20:18.839Z</time>
      </trkpt>
      <trkpt lat="20.2428" lon="-98.74301833">
        <ele>2095.0</ele>
        <time>2019-10-12T16:20:19.845Z</time>
      </trkpt>
      <trkpt lat="20.242795" lon="-98.74302">
        <ele>2095.0</ele>
        <time>2019-10-12T16:20:20.852Z</time>
      </trkpt>
      <trkpt lat="20.24278833" lon="-98.74302167">
        <ele>2096.0</ele>
        <time>2019-10-12T16:20:21.856Z</time>
      </trkpt>
      <trkpt lat="20.24278" lon="-98.743025">
        <ele>2096.0</ele>
        <time>2019-10-12T16:20:22.864Z</time>
      </trkpt>
      <trkpt lat="20.24277167" lon="-98.74302667">
        <ele>2097.0</ele>
        <time>2019-10-12T16:20:23.865Z</time>
      </trkpt>
      <trkpt lat="20.24276167" lon="-98.74302833">
        <ele>2097.0</ele>
        <time>2019-10-12T16:20:24.872Z</time>
      </trkpt>
      <trkpt lat="20.24275" lon="-98.74303">
        <ele>2097.0</ele>
        <time>2019-10-12T16:20:25.877Z</time>
      </trkpt>
      <trkpt lat="20.24273833" lon="-98.743035">
        <ele>2097.0</ele>
        <time>2019-10-12T16:20:26.883Z</time>
      </trkpt>
      <trkpt lat="20.24272833" lon="-98.74303833">
        <ele>2097.0</ele>
        <time>2019-10-12T16:20:27.889Z</time>
      </trkpt>
      <trkpt lat="20.24272" lon="-98.74304167">
        <ele>2098.0</ele>
        <time>2019-10-12T16:20:28.890Z</time>
      </trkpt>
      <trkpt lat="20.24271667" lon="-98.74304667">
        <ele>2098.0</ele>
        <time>2019-10-12T16:20:29.894Z</time>
      </trkpt>
      <trkpt lat="20.24271167" lon="-98.74305333">
        <ele>2099.0</ele>
        <time>2019-10-12T16:20:30.899Z</time>
      </trkpt>
      <trkpt lat="20.24270333" lon="-98.74305833">
        <ele>2099.0</ele>
        <time>2019-10-12T16:20:31.906Z</time>
      </trkpt>
      <trkpt lat="20.242695" lon="-98.74306333">
        <ele>2100.0</ele>
        <time>2019-10-12T16:20:32.913Z</time>
      </trkpt>
      <trkpt lat="20.24268833" lon="-98.74306667">
        <ele>2100.0</ele>
        <time>2019-10-12T16:20:33.914Z</time>
      </trkpt>
      <trkpt lat="20.24268" lon="-98.74306667">
        <ele>2100.0</ele>
        <time>2019-10-12T16:20:34.915Z</time>
      </trkpt>
      <trkpt lat="20.24267167" lon="-98.74306333">
        <ele>2100.0</ele>
        <time>2019-10-12T16:20:35.919Z</time>
      </trkpt>
      <trkpt lat="20.24265833" lon="-98.74305833">
        <ele>2100.0</ele>
        <time>2019-10-12T16:20:36.925Z</time>
      </trkpt>
      <trkpt lat="20.242645" lon="-98.74305167">
        <ele>2100.0</ele>
        <time>2019-10-12T16:20:37.930Z</time>
      </trkpt>
      <trkpt lat="20.24263" lon="-98.743045">
        <ele>2101.0</ele>
        <time>2019-10-12T16:20:38.935Z</time>
      </trkpt>
      <trkpt lat="20.24261667" lon="-98.74304167">
        <ele>2101.0</ele>
        <time>2019-10-12T16:20:39.939Z</time>
      </trkpt>
      <trkpt lat="20.24260333" lon="-98.74304">
        <ele>2101.0</ele>
        <time>2019-10-12T16:20:40.943Z</time>
      </trkpt>
      <trkpt lat="20.24259333" lon="-98.74304167">
        <ele>2102.0</ele>
        <time>2019-10-12T16:20:41.950Z</time>
      </trkpt>
      <trkpt lat="20.24258167" lon="-98.743045">
        <ele>2102.0</ele>
        <time>2019-10-12T16:20:42.951Z</time>
      </trkpt>
      <trkpt lat="20.24257167" lon="-98.74304833">
        <ele>2101.0</ele>
        <time>2019-10-12T16:20:43.954Z</time>
      </trkpt>
      <trkpt lat="20.24256167" lon="-98.74305333">
        <ele>2101.0</ele>
        <time>2019-10-12T16:20:44.831Z</time>
      </trkpt>
      <trkpt lat="20.24255" lon="-98.743055">
        <ele>2101.0</ele>
        <time>2019-10-12T16:20:45.838Z</time>
      </trkpt>
      <trkpt lat="20.242535" lon="-98.74305333">
        <ele>2102.0</ele>
        <time>2019-10-12T16:20:46.845Z</time>
      </trkpt>
      <trkpt lat="20.24252167" lon="-98.74304833">
        <ele>2102.0</ele>
        <time>2019-10-12T16:20:47.850Z</time>
      </trkpt>
      <trkpt lat="20.24250667" lon="-98.74304667">
        <ele>2102.0</ele>
        <time>2019-10-12T16:20:48.855Z</time>
      </trkpt>
      <trkpt lat="20.242495" lon="-98.743045">
        <ele>2102.0</ele>
        <time>2019-10-12T16:20:49.857Z</time>
      </trkpt>
      <trkpt lat="20.24248" lon="-98.74304333">
        <ele>2102.0</ele>
        <time>2019-10-12T16:20:50.862Z</time>
      </trkpt>
      <trkpt lat="20.24246833" lon="-98.74304">
        <ele>2102.0</ele>
        <time>2019-10-12T16:20:51.868Z</time>
      </trkpt>
      <trkpt lat="20.24245667" lon="-98.74303333">
        <ele>2102.0</ele>
        <time>2019-10-12T16:20:52.874Z</time>
      </trkpt>
      <trkpt lat="20.242445" lon="-98.743025">
        <ele>2102.0</ele>
        <time>2019-10-12T16:20:53.876Z</time>
      </trkpt>
      <trkpt lat="20.24243333" lon="-98.74302">
        <ele>2102.0</ele>
        <time>2019-10-12T16:20:54.884Z</time>
      </trkpt>
      <trkpt lat="20.24241833" lon="-98.74301667">
        <ele>2102.0</ele>
        <time>2019-10-12T16:20:55.887Z</time>
      </trkpt>
      <trkpt lat="20.24240833" lon="-98.74301">
        <ele>2102.0</ele>
        <time>2019-10-12T16:20:56.889Z</time>
      </trkpt>
      <trkpt lat="20.24240167" lon="-98.74299667">
        <ele>2102.0</ele>
        <time>2019-10-12T16:20:57.892Z</time>
      </trkpt>
      <trkpt lat="20.24239333" lon="-98.74298167">
        <ele>2103.0</ele>
        <time>2019-10-12T16:20:58.893Z</time>
      </trkpt>
      <trkpt lat="20.24238333" lon="-98.74297333">
        <ele>2103.0</ele>
        <time>2019-10-12T16:20:59.893Z</time>
      </trkpt>
      <trkpt lat="20.24237167" lon="-98.742965">
        <ele>2104.0</ele>
        <time>2019-10-12T16:21:00.897Z</time>
      </trkpt>
      <trkpt lat="20.24236" lon="-98.74296">
        <ele>2104.0</ele>
        <time>2019-10-12T16:21:01.903Z</time>
      </trkpt>
      <trkpt lat="20.242345" lon="-98.74295833">
        <ele>2104.0</ele>
        <time>2019-10-12T16:21:02.909Z</time>
      </trkpt>
      <trkpt lat="20.24232833" lon="-98.74295667">
        <ele>2104.0</ele>
        <time>2019-10-12T16:21:03.916Z</time>
      </trkpt>
      <trkpt lat="20.242315" lon="-98.74296167">
        <ele>2104.0</ele>
        <time>2019-10-12T16:21:04.922Z</time>
      </trkpt>
      <trkpt lat="20.24230167" lon="-98.74296667">
        <ele>2104.0</ele>
        <time>2019-10-12T16:21:05.928Z</time>
      </trkpt>
      <trkpt lat="20.24229" lon="-98.742975">
        <ele>2105.0</ele>
        <time>2019-10-12T16:21:06.932Z</time>
      </trkpt>
      <trkpt lat="20.24227833" lon="-98.74298167">
        <ele>2105.0</ele>
        <time>2019-10-12T16:21:07.937Z</time>
      </trkpt>
      <trkpt lat="20.24226833" lon="-98.74299">
        <ele>2105.0</ele>
        <time>2019-10-12T16:21:08.940Z</time>
      </trkpt>
      <trkpt lat="20.24225833" lon="-98.74299167">
        <ele>2105.0</ele>
        <time>2019-10-12T16:21:09.940Z</time>
      </trkpt>
      <trkpt lat="20.24224667" lon="-98.742995">
        <ele>2105.0</ele>
        <time>2019-10-12T16:21:10.941Z</time>
      </trkpt>
      <trkpt lat="20.24223167" lon="-98.74299833">
        <ele>2105.0</ele>
        <time>2019-10-12T16:21:11.941Z</time>
      </trkpt>
      <trkpt lat="20.24222333" lon="-98.74300833">
        <ele>2106.0</ele>
        <time>2019-10-12T16:21:12.941Z</time>
      </trkpt>
      <trkpt lat="20.242215" lon="-98.74301833">
        <ele>2106.0</ele>
        <time>2019-10-12T16:21:13.941Z</time>
      </trkpt>
      <trkpt lat="20.24220833" lon="-98.74303333">
        <ele>2106.0</ele>
        <time>2019-10-12T16:21:14.941Z</time>
      </trkpt>
      <trkpt lat="20.24220333" lon="-98.74304833">
        <ele>2106.0</ele>
        <time>2019-10-12T16:21:15.942Z</time>
      </trkpt>
      <trkpt lat="20.24219833" lon="-98.74306333">
        <ele>2107.0</ele>
        <time>2019-10-12T16:21:16.942Z</time>
      </trkpt>
      <trkpt lat="20.24219167" lon="-98.74308167">
        <ele>2107.0</ele>
        <time>2019-10-12T16:21:17.942Z</time>
      </trkpt>
      <trkpt lat="20.242185" lon="-98.74309833">
        <ele>2107.0</ele>
        <time>2019-10-12T16:21:18.942Z</time>
      </trkpt>
      <trkpt lat="20.24217833" lon="-98.743115">
        <ele>2107.0</ele>
        <time>2019-10-12T16:21:19.944Z</time>
      </trkpt>
      <trkpt lat="20.242175" lon="-98.74313">
        <ele>2106.0</ele>
        <time>2019-10-12T16:21:20.944Z</time>
      </trkpt>
      <trkpt lat="20.24217" lon="-98.74314833">
        <ele>2106.0</ele>
        <time>2019-10-12T16:21:21.945Z</time>
      </trkpt>
      <trkpt lat="20.24216333" lon="-98.74316333">
        <ele>2106.0</ele>
        <time>2019-10-12T16:21:22.946Z</time>
      </trkpt>
      <trkpt lat="20.242155" lon="-98.743175">
        <ele>2105.0</ele>
        <time>2019-10-12T16:21:23.947Z</time>
      </trkpt>
      <trkpt lat="20.24214833" lon="-98.74318833">
        <ele>2105.0</ele>
        <time>2019-10-12T16:21:24.948Z</time>
      </trkpt>
      <trkpt lat="20.24213833" lon="-98.743195">
        <ele>2105.0</ele>
        <time>2019-10-12T16:21:25.949Z</time>
      </trkpt>
      <trkpt lat="20.242125" lon="-98.743205">
        <ele>2105.0</ele>
        <time>2019-10-12T16:21:26.949Z</time>
      </trkpt>
      <trkpt lat="20.24211167" lon="-98.74321667">
        <ele>2105.0</ele>
        <time>2019-10-12T16:21:27.951Z</time>
      </trkpt>
      <trkpt lat="20.24210167" lon="-98.74323167">
        <ele>2105.0</ele>
        <time>2019-10-12T16:21:28.951Z</time>
      </trkpt>
      <trkpt lat="20.24209333" lon="-98.74324833">
        <ele>2105.0</ele>
        <time>2019-10-12T16:21:29.952Z</time>
      </trkpt>
      <trkpt lat="20.24208667" lon="-98.743265">
        <ele>2105.0</ele>
        <time>2019-10-12T16:21:30.953Z</time>
      </trkpt>
      <trkpt lat="20.24207833" lon="-98.74328333">
        <ele>2105.0</ele>
        <time>2019-10-12T16:21:31.955Z</time>
      </trkpt>
      <trkpt lat="20.242075" lon="-98.74330333">
        <ele>2105.0</ele>
        <time>2019-10-12T16:21:32.837Z</time>
      </trkpt>
      <trkpt lat="20.24207167" lon="-98.74332167">
        <ele>2104.0</ele>
        <time>2019-10-12T16:21:33.845Z</time>
      </trkpt>
      <trkpt lat="20.24207" lon="-98.74334">
        <ele>2104.0</ele>
        <time>2019-10-12T16:21:34.847Z</time>
      </trkpt>
      <trkpt lat="20.24207" lon="-98.74336">
        <ele>2103.0</ele>
        <time>2019-10-12T16:21:35.852Z</time>
      </trkpt>
      <trkpt lat="20.242075" lon="-98.74337833">
        <ele>2103.0</ele>
        <time>2019-10-12T16:21:36.856Z</time>
      </trkpt>
      <trkpt lat="20.24208333" lon="-98.74339667">
        <ele>2103.0</ele>
        <time>2019-10-12T16:21:37.861Z</time>
      </trkpt>
      <trkpt lat="20.24209333" lon="-98.743415">
        <ele>2103.0</ele>
        <time>2019-10-12T16:21:38.865Z</time>
      </trkpt>
      <trkpt lat="20.2421" lon="-98.74343167">
        <ele>2103.0</ele>
        <time>2019-10-12T16:21:39.868Z</time>
      </trkpt>
      <trkpt lat="20.24210333" lon="-98.74345167">
        <ele>2103.0</ele>
        <time>2019-10-12T16:21:40.875Z</time>
      </trkpt>
      <trkpt lat="20.24210667" lon="-98.74347167">
        <ele>2103.0</ele>
        <time>2019-10-12T16:21:41.875Z</time>
      </trkpt>
      <trkpt lat="20.24211167" lon="-98.743495">
        <ele>2103.0</ele>
        <time>2019-10-12T16:21:42.881Z</time>
      </trkpt>
      <trkpt lat="20.24211667" lon="-98.74351667">
        <ele>2102.0</ele>
        <time>2019-10-12T16:21:43.888Z</time>
      </trkpt>
      <trkpt lat="20.24212167" lon="-98.74353833">
        <ele>2102.0</ele>
        <time>2019-10-12T16:21:44.893Z</time>
      </trkpt>
      <trkpt lat="20.242125" lon="-98.74356">
        <ele>2101.0</ele>
        <time>2019-10-12T16:21:45.899Z</time>
      </trkpt>
      <trkpt lat="20.24213167" lon="-98.74358167">
        <ele>2102.0</ele>
        <time>2019-10-12T16:21:46.902Z</time>
      </trkpt>
      <trkpt lat="20.24214" lon="-98.74360167">
        <ele>2101.0</ele>
        <time>2019-10-12T16:21:47.903Z</time>
      </trkpt>
      <trkpt lat="20.24215167" lon="-98.74362167">
        <ele>2101.0</ele>
        <time>2019-10-12T16:21:48.904Z</time>
      </trkpt>
      <trkpt lat="20.24216333" lon="-98.74364">
        <ele>2101.0</ele>
        <time>2019-10-12T16:21:49.905Z</time>
      </trkpt>
      <trkpt lat="20.24217" lon="-98.74365667">
        <ele>2101.0</ele>
        <time>2019-10-12T16:21:50.906Z</time>
      </trkpt>
      <trkpt lat="20.24217667" lon="-98.743675">
        <ele>2100.0</ele>
        <time>2019-10-12T16:21:51.907Z</time>
      </trkpt>
      <trkpt lat="20.24218" lon="-98.74369333">
        <ele>2100.0</ele>
        <time>2019-10-12T16:21:52.908Z</time>
      </trkpt>
      <trkpt lat="20.24218333" lon="-98.74371833">
        <ele>2100.0</ele>
        <time>2019-10-12T16:21:53.908Z</time>
      </trkpt>
      <trkpt lat="20.24218333" lon="-98.74374">
        <ele>2099.0</ele>
        <time>2019-10-12T16:21:54.909Z</time>
      </trkpt>
      <trkpt lat="20.24217833" lon="-98.74376">
        <ele>2100.0</ele>
        <time>2019-10-12T16:21:55.910Z</time>
      </trkpt>
      <trkpt lat="20.24217167" lon="-98.74377667">
        <ele>2100.0</ele>
        <time>2019-10-12T16:21:56.911Z</time>
      </trkpt>
      <trkpt lat="20.24216333" lon="-98.74379667">
        <ele>2100.0</ele>
        <time>2019-10-12T16:21:57.917Z</time>
      </trkpt>
      <trkpt lat="20.24216" lon="-98.74381667">
        <ele>2100.0</ele>
        <time>2019-10-12T16:21:58.923Z</time>
      </trkpt>
      <trkpt lat="20.24215667" lon="-98.74383667">
        <ele>2100.0</ele>
        <time>2019-10-12T16:21:59.931Z</time>
      </trkpt>
      <trkpt lat="20.24215333" lon="-98.74385667">
        <ele>2101.0</ele>
        <time>2019-10-12T16:22:00.935Z</time>
      </trkpt>
      <trkpt lat="20.24215833" lon="-98.74387667">
        <ele>2100.0</ele>
        <time>2019-10-12T16:22:01.935Z</time>
      </trkpt>
      <trkpt lat="20.24216167" lon="-98.74389333">
        <ele>2100.0</ele>
        <time>2019-10-12T16:22:02.937Z</time>
      </trkpt>
      <trkpt lat="20.24216333" lon="-98.74391">
        <ele>2099.0</ele>
        <time>2019-10-12T16:22:03.939Z</time>
      </trkpt>
      <trkpt lat="20.24216" lon="-98.74392667">
        <ele>2099.0</ele>
        <time>2019-10-12T16:22:04.946Z</time>
      </trkpt>
      <trkpt lat="20.242155" lon="-98.74394">
        <ele>2098.0</ele>
        <time>2019-10-12T16:22:05.952Z</time>
      </trkpt>
      <trkpt lat="20.24214333" lon="-98.74394833">
        <ele>2098.0</ele>
        <time>2019-10-12T16:22:06.832Z</time>
      </trkpt>
      <trkpt lat="20.24213" lon="-98.743955">
        <ele>2098.0</ele>
        <time>2019-10-12T16:22:07.838Z</time>
      </trkpt>
      <trkpt lat="20.24211333" lon="-98.74396667">
        <ele>2097.0</ele>
        <time>2019-10-12T16:22:08.840Z</time>
      </trkpt>
      <trkpt lat="20.2421" lon="-98.74398">
        <ele>2097.0</ele>
        <time>2019-10-12T16:22:09.847Z</time>
      </trkpt>
      <trkpt lat="20.24208667" lon="-98.74399667">
        <ele>2097.0</ele>
        <time>2019-10-12T16:22:10.853Z</time>
      </trkpt>
      <trkpt lat="20.24207333" lon="-98.744015">
        <ele>2096.0</ele>
        <time>2019-10-12T16:22:11.859Z</time>
      </trkpt>
      <trkpt lat="20.24206333" lon="-98.74403167">
        <ele>2096.0</ele>
        <time>2019-10-12T16:22:12.860Z</time>
      </trkpt>
      <trkpt lat="20.242055" lon="-98.74405167">
        <ele>2096.0</ele>
        <time>2019-10-12T16:22:13.862Z</time>
      </trkpt>
      <trkpt lat="20.24205333" lon="-98.74407167">
        <ele>2096.0</ele>
        <time>2019-10-12T16:22:14.862Z</time>
      </trkpt>
      <trkpt lat="20.24206" lon="-98.74408833">
        <ele>2096.0</ele>
        <time>2019-10-12T16:22:15.870Z</time>
      </trkpt>
      <trkpt lat="20.24207167" lon="-98.74410667">
        <ele>2095.0</ele>
        <time>2019-10-12T16:22:16.877Z</time>
      </trkpt>
      <trkpt lat="20.24208167" lon="-98.744125">
        <ele>2095.0</ele>
        <time>2019-10-12T16:22:17.880Z</time>
      </trkpt>
      <trkpt lat="20.24209" lon="-98.74414833">
        <ele>2096.0</ele>
        <time>2019-10-12T16:22:18.886Z</time>
      </trkpt>
      <trkpt lat="20.24209667" lon="-98.74417">
        <ele>2096.0</ele>
        <time>2019-10-12T16:22:19.890Z</time>
      </trkpt>
      <trkpt lat="20.2421" lon="-98.744195">
        <ele>2097.0</ele>
        <time>2019-10-12T16:22:20.896Z</time>
      </trkpt>
      <trkpt lat="20.24209833" lon="-98.74421667">
        <ele>2097.0</ele>
        <time>2019-10-12T16:22:21.902Z</time>
      </trkpt>
      <trkpt lat="20.242095" lon="-98.744235">
        <ele>2097.0</ele>
        <time>2019-10-12T16:22:22.902Z</time>
      </trkpt>
      <trkpt lat="20.24208833" lon="-98.74424333">
        <ele>2098.0</ele>
        <time>2019-10-12T16:22:23.902Z</time>
      </trkpt>
      <trkpt lat="20.24208" lon="-98.74424">
        <ele>2099.0</ele>
        <time>2019-10-12T16:22:24.904Z</time>
      </trkpt>
      <trkpt lat="20.24207333" lon="-98.74423">
        <ele>2100.0</ele>
        <time>2019-10-12T16:22:25.907Z</time>
      </trkpt>
      <trkpt lat="20.242065" lon="-98.74421833">
        <ele>2101.0</ele>
        <time>2019-10-12T16:22:26.907Z</time>
      </trkpt>
      <trkpt lat="20.24205167" lon="-98.74421167">
        <ele>2101.0</ele>
        <time>2019-10-12T16:22:27.909Z</time>
      </trkpt>
      <trkpt lat="20.242035" lon="-98.74420667">
        <ele>2101.0</ele>
        <time>2019-10-12T16:22:28.913Z</time>
      </trkpt>
      <trkpt lat="20.24201833" lon="-98.744205">
        <ele>2102.0</ele>
        <time>2019-10-12T16:22:29.916Z</time>
      </trkpt>
      <trkpt lat="20.242" lon="-98.74420167">
        <ele>2101.0</ele>
        <time>2019-10-12T16:22:30.921Z</time>
      </trkpt>
      <trkpt lat="20.24198" lon="-98.74420167">
        <ele>2101.0</ele>
        <time>2019-10-12T16:22:31.929Z</time>
      </trkpt>
      <trkpt lat="20.24196167" lon="-98.744205">
        <ele>2102.0</ele>
        <time>2019-10-12T16:22:32.935Z</time>
      </trkpt>
      <trkpt lat="20.24194833" lon="-98.744205">
        <ele>2102.0</ele>
        <time>2019-10-12T16:22:33.936Z</time>
      </trkpt>
      <trkpt lat="20.24193167" lon="-98.744205">
        <ele>2102.0</ele>
        <time>2019-10-12T16:22:34.936Z</time>
      </trkpt>
      <trkpt lat="20.24192" lon="-98.74420333">
        <ele>2102.0</ele>
        <time>2019-10-12T16:22:35.938Z</time>
      </trkpt>
      <trkpt lat="20.24190667" lon="-98.74419833">
        <ele>2102.0</ele>
        <time>2019-10-12T16:22:36.938Z</time>
      </trkpt>
      <trkpt lat="20.241895" lon="-98.74419167">
        <ele>2102.0</ele>
        <time>2019-10-12T16:22:37.945Z</time>
      </trkpt>
      <trkpt lat="20.24187667" lon="-98.74418667">
        <ele>2102.0</ele>
        <time>2019-10-12T16:22:38.952Z</time>
      </trkpt>
      <trkpt lat="20.24185833" lon="-98.744185">
        <ele>2102.0</ele>
        <time>2019-10-12T16:22:39.952Z</time>
      </trkpt>
      <trkpt lat="20.24184" lon="-98.744185">
        <ele>2102.0</ele>
        <time>2019-10-12T16:22:40.833Z</time>
      </trkpt>
      <trkpt lat="20.24182333" lon="-98.74418667">
        <ele>2102.0</ele>
        <time>2019-10-12T16:22:41.839Z</time>
      </trkpt>
      <trkpt lat="20.24180333" lon="-98.74418833">
        <ele>2102.0</ele>
        <time>2019-10-12T16:22:42.844Z</time>
      </trkpt>
      <trkpt lat="20.241785" lon="-98.74419167">
        <ele>2102.0</ele>
        <time>2019-10-12T16:22:43.849Z</time>
      </trkpt>
      <trkpt lat="20.24176333" lon="-98.74419667">
        <ele>2102.0</ele>
        <time>2019-10-12T16:22:44.852Z</time>
      </trkpt>
      <trkpt lat="20.24174667" lon="-98.74420167">
        <ele>2103.0</ele>
        <time>2019-10-12T16:22:45.855Z</time>
      </trkpt>
      <trkpt lat="20.24173" lon="-98.74420667">
        <ele>2103.0</ele>
        <time>2019-10-12T16:22:46.859Z</time>
      </trkpt>
      <trkpt lat="20.24171167" lon="-98.74421333">
        <ele>2103.0</ele>
        <time>2019-10-12T16:22:47.865Z</time>
      </trkpt>
      <trkpt lat="20.24169333" lon="-98.744215">
        <ele>2103.0</ele>
        <time>2019-10-12T16:22:48.871Z</time>
      </trkpt>
      <trkpt lat="20.24167167" lon="-98.74421333">
        <ele>2102.0</ele>
        <time>2019-10-12T16:22:49.878Z</time>
      </trkpt>
      <trkpt lat="20.24165167" lon="-98.74421">
        <ele>2103.0</ele>
        <time>2019-10-12T16:22:50.881Z</time>
      </trkpt>
      <trkpt lat="20.24163" lon="-98.744205">
        <ele>2103.0</ele>
        <time>2019-10-12T16:22:51.885Z</time>
      </trkpt>
      <trkpt lat="20.24161" lon="-98.74420667">
        <ele>2102.0</ele>
        <time>2019-10-12T16:22:52.892Z</time>
      </trkpt>
      <trkpt lat="20.24158833" lon="-98.74420667">
        <ele>2102.0</ele>
        <time>2019-10-12T16:22:53.896Z</time>
      </trkpt>
      <trkpt lat="20.24157" lon="-98.74421333">
        <ele>2102.0</ele>
        <time>2019-10-12T16:22:54.900Z</time>
      </trkpt>
      <trkpt lat="20.24155167" lon="-98.74422167">
        <ele>2102.0</ele>
        <time>2019-10-12T16:22:55.906Z</time>
      </trkpt>
      <trkpt lat="20.24153333" lon="-98.74422833">
        <ele>2102.0</ele>
        <time>2019-10-12T16:22:56.912Z</time>
      </trkpt>
      <trkpt lat="20.241515" lon="-98.744235">
        <ele>2103.0</ele>
        <time>2019-10-12T16:22:57.913Z</time>
      </trkpt>
      <trkpt lat="20.24149333" lon="-98.74424">
        <ele>2102.0</ele>
        <time>2019-10-12T16:22:58.917Z</time>
      </trkpt>
      <trkpt lat="20.24147333" lon="-98.74424833">
        <ele>2102.0</ele>
        <time>2019-10-12T16:22:59.922Z</time>
      </trkpt>
      <trkpt lat="20.24145667" lon="-98.744255">
        <ele>2102.0</ele>
        <time>2019-10-12T16:23:00.923Z</time>
      </trkpt>
      <trkpt lat="20.24144" lon="-98.74425833">
        <ele>2102.0</ele>
        <time>2019-10-12T16:23:01.928Z</time>
      </trkpt>
      <trkpt lat="20.24142333" lon="-98.74426333">
        <ele>2102.0</ele>
        <time>2019-10-12T16:23:02.933Z</time>
      </trkpt>
      <trkpt lat="20.24140667" lon="-98.74426333">
        <ele>2103.0</ele>
        <time>2019-10-12T16:23:03.939Z</time>
      </trkpt>
      <trkpt lat="20.24139" lon="-98.74426167">
        <ele>2103.0</ele>
        <time>2019-10-12T16:23:04.944Z</time>
      </trkpt>
      <trkpt lat="20.24137167" lon="-98.74426333">
        <ele>2104.0</ele>
        <time>2019-10-12T16:23:05.947Z</time>
      </trkpt>
      <trkpt lat="20.24135" lon="-98.744265">
        <ele>2104.0</ele>
        <time>2019-10-12T16:23:06.948Z</time>
      </trkpt>
      <trkpt lat="20.24132667" lon="-98.74426833">
        <ele>2103.0</ele>
        <time>2019-10-12T16:23:07.954Z</time>
      </trkpt>
      <trkpt lat="20.241305" lon="-98.74427167">
        <ele>2103.0</ele>
        <time>2019-10-12T16:23:08.835Z</time>
      </trkpt>
      <trkpt lat="20.241285" lon="-98.74428">
        <ele>2102.0</ele>
        <time>2019-10-12T16:23:09.838Z</time>
      </trkpt>
      <trkpt lat="20.24126667" lon="-98.74429">
        <ele>2102.0</ele>
        <time>2019-10-12T16:23:10.843Z</time>
      </trkpt>
      <trkpt lat="20.24124667" lon="-98.74430333">
        <ele>2101.0</ele>
        <time>2019-10-12T16:23:11.849Z</time>
      </trkpt>
      <trkpt lat="20.24122667" lon="-98.74431333">
        <ele>2101.0</ele>
        <time>2019-10-12T16:23:12.854Z</time>
      </trkpt>
      <trkpt lat="20.24120833" lon="-98.74432167">
        <ele>2101.0</ele>
        <time>2019-10-12T16:23:13.861Z</time>
      </trkpt>
      <trkpt lat="20.241185" lon="-98.74433">
        <ele>2100.0</ele>
        <time>2019-10-12T16:23:14.864Z</time>
      </trkpt>
      <trkpt lat="20.241165" lon="-98.744335">
        <ele>2099.0</ele>
        <time>2019-10-12T16:23:15.871Z</time>
      </trkpt>
      <trkpt lat="20.24114167" lon="-98.74434333">
        <ele>2099.0</ele>
        <time>2019-10-12T16:23:16.875Z</time>
      </trkpt>
      <trkpt lat="20.24111833" lon="-98.74435333">
        <ele>2099.0</ele>
        <time>2019-10-12T16:23:17.879Z</time>
      </trkpt>
      <trkpt lat="20.24110167" lon="-98.74436333">
        <ele>2099.0</ele>
        <time>2019-10-12T16:23:18.885Z</time>
      </trkpt>
      <trkpt lat="20.24109167" lon="-98.74437333">
        <ele>2098.0</ele>
        <time>2019-10-12T16:23:19.891Z</time>
      </trkpt>
      <trkpt lat="20.24108833" lon="-98.74438333">
        <ele>2098.0</ele>
        <time>2019-10-12T16:23:20.893Z</time>
      </trkpt>
      <trkpt lat="20.241085" lon="-98.744395">
        <ele>2098.0</ele>
        <time>2019-10-12T16:23:21.896Z</time>
      </trkpt>
      <trkpt lat="20.24108" lon="-98.74441167">
        <ele>2097.0</ele>
        <time>2019-10-12T16:23:22.899Z</time>
      </trkpt>
      <trkpt lat="20.24107167" lon="-98.74442667">
        <ele>2097.0</ele>
        <time>2019-10-12T16:23:23.904Z</time>
      </trkpt>
      <trkpt lat="20.24106333" lon="-98.744445">
        <ele>2096.0</ele>
        <time>2019-10-12T16:23:24.910Z</time>
      </trkpt>
      <trkpt lat="20.24105333" lon="-98.74446667">
        <ele>2096.0</ele>
        <time>2019-10-12T16:23:25.911Z</time>
      </trkpt>
      <trkpt lat="20.24104833" lon="-98.74449167">
        <ele>2096.0</ele>
        <time>2019-10-12T16:23:26.912Z</time>
      </trkpt>
      <trkpt lat="20.24104167" lon="-98.74451167">
        <ele>2095.0</ele>
        <time>2019-10-12T16:23:27.915Z</time>
      </trkpt>
      <trkpt lat="20.24103667" lon="-98.74453333">
        <ele>2094.0</ele>
        <time>2019-10-12T16:23:28.923Z</time>
      </trkpt>
      <trkpt lat="20.24103" lon="-98.74455667">
        <ele>2094.0</ele>
        <time>2019-10-12T16:23:29.926Z</time>
      </trkpt>
      <trkpt lat="20.24102" lon="-98.74457833">
        <ele>2094.0</ele>
        <time>2019-10-12T16:23:30.931Z</time>
      </trkpt>
      <trkpt lat="20.241005" lon="-98.74459833">
        <ele>2093.0</ele>
        <time>2019-10-12T16:23:31.937Z</time>
      </trkpt>
      <trkpt lat="20.24098833" lon="-98.74461333">
        <ele>2093.0</ele>
        <time>2019-10-12T16:23:32.941Z</time>
      </trkpt>
      <trkpt lat="20.24096833" lon="-98.74461833">
        <ele>2092.0</ele>
        <time>2019-10-12T16:23:33.947Z</time>
      </trkpt>
      <trkpt lat="20.24094333" lon="-98.74461833">
        <ele>2092.0</ele>
        <time>2019-10-12T16:23:34.951Z</time>
      </trkpt>
      <trkpt lat="20.240915" lon="-98.744615">
        <ele>2091.0</ele>
        <time>2019-10-12T16:23:35.831Z</time>
      </trkpt>
      <trkpt lat="20.24089" lon="-98.74460833">
        <ele>2090.0</ele>
        <time>2019-10-12T16:23:36.834Z</time>
      </trkpt>
      <trkpt lat="20.24086667" lon="-98.744605">
        <ele>2090.0</ele>
        <time>2019-10-12T16:23:37.840Z</time>
      </trkpt>
      <trkpt lat="20.24084833" lon="-98.74459333">
        <ele>2090.0</ele>
        <time>2019-10-12T16:23:38.846Z</time>
      </trkpt>
      <trkpt lat="20.24083167" lon="-98.74458333">
        <ele>2090.0</ele>
        <time>2019-10-12T16:23:39.852Z</time>
      </trkpt>
      <trkpt lat="20.240815" lon="-98.744565">
        <ele>2091.0</ele>
        <time>2019-10-12T16:23:40.858Z</time>
      </trkpt>
      <trkpt lat="20.24079333" lon="-98.74455167">
        <ele>2091.0</ele>
        <time>2019-10-12T16:23:41.860Z</time>
      </trkpt>
      <trkpt lat="20.24077" lon="-98.74454167">
        <ele>2091.0</ele>
        <time>2019-10-12T16:23:42.865Z</time>
      </trkpt>
      <trkpt lat="20.24074833" lon="-98.74453">
        <ele>2091.0</ele>
        <time>2019-10-12T16:23:43.868Z</time>
      </trkpt>
      <trkpt lat="20.24073" lon="-98.74452333">
        <ele>2092.0</ele>
        <time>2019-10-12T16:23:44.875Z</time>
      </trkpt>
      <trkpt lat="20.24071" lon="-98.74451667">
        <ele>2092.0</ele>
        <time>2019-10-12T16:23:45.875Z</time>
      </trkpt>
      <trkpt lat="20.24068833" lon="-98.74451167">
        <ele>2092.0</ele>
        <time>2019-10-12T16:23:46.878Z</time>
      </trkpt>
      <trkpt lat="20.24067167" lon="-98.7445">
        <ele>2093.0</ele>
        <time>2019-10-12T16:23:47.883Z</time>
      </trkpt>
      <trkpt lat="20.24066" lon="-98.74448833">
        <ele>2093.0</ele>
        <time>2019-10-12T16:23:48.886Z</time>
      </trkpt>
      <trkpt lat="20.240655" lon="-98.74447833">
        <ele>2094.0</ele>
        <time>2019-10-12T16:23:49.890Z</time>
      </trkpt>
      <trkpt lat="20.24065333" lon="-98.74445333">
        <ele>2095.0</ele>
        <time>2019-10-12T16:23:50.895Z</time>
      </trkpt>
      <trkpt lat="20.24065167" lon="-98.744425">
        <ele>2097.0</ele>
        <time>2019-10-12T16:23:51.897Z</time>
      </trkpt>
      <trkpt lat="20.240645" lon="-98.74439833">
        <ele>2098.0</ele>
        <time>2019-10-12T16:23:52.901Z</time>
      </trkpt>
      <trkpt lat="20.24063167" lon="-98.74438">
        <ele>2098.0</ele>
        <time>2019-10-12T16:23:53.904Z</time>
      </trkpt>
      <trkpt lat="20.240625" lon="-98.74436">
        <ele>2098.0</ele>
        <time>2019-10-12T16:23:54.910Z</time>
      </trkpt>
      <trkpt lat="20.24061333" lon="-98.74433667">
        <ele>2098.0</ele>
        <time>2019-10-12T16:23:55.918Z</time>
      </trkpt>
      <trkpt lat="20.24059667" lon="-98.74431833">
        <ele>2098.0</ele>
        <time>2019-10-12T16:23:56.924Z</time>
      </trkpt>
      <trkpt lat="20.24058333" lon="-98.744305">
        <ele>2098.0</ele>
        <time>2019-10-12T16:23:57.931Z</time>
      </trkpt>
      <trkpt lat="20.24056833" lon="-98.744295">
        <ele>2099.0</ele>
        <time>2019-10-12T16:23:58.933Z</time>
      </trkpt>
      <trkpt lat="20.24055667" lon="-98.744285">
        <ele>2099.0</ele>
        <time>2019-10-12T16:23:59.934Z</time>
      </trkpt>
      <trkpt lat="20.24054833" lon="-98.744275">
        <ele>2098.0</ele>
        <time>2019-10-12T16:24:00.936Z</time>
      </trkpt>
      <trkpt lat="20.240535" lon="-98.74426">
        <ele>2097.0</ele>
        <time>2019-10-12T16:24:01.936Z</time>
      </trkpt>
      <trkpt lat="20.24052" lon="-98.74424667">
        <ele>2097.0</ele>
        <time>2019-10-12T16:24:02.937Z</time>
      </trkpt>
      <trkpt lat="20.240505" lon="-98.74423">
        <ele>2096.0</ele>
        <time>2019-10-12T16:24:03.938Z</time>
      </trkpt>
      <trkpt lat="20.24049167" lon="-98.74421">
        <ele>2096.0</ele>
        <time>2019-10-12T16:24:04.938Z</time>
      </trkpt>
      <trkpt lat="20.24047333" lon="-98.744195">
        <ele>2096.0</ele>
        <time>2019-10-12T16:24:05.939Z</time>
      </trkpt>
      <trkpt lat="20.240455" lon="-98.74418167">
        <ele>2095.0</ele>
        <time>2019-10-12T16:24:06.940Z</time>
      </trkpt>
      <trkpt lat="20.24043833" lon="-98.744165">
        <ele>2095.0</ele>
        <time>2019-10-12T16:24:07.940Z</time>
      </trkpt>
      <trkpt lat="20.24042" lon="-98.74414333">
        <ele>2095.0</ele>
        <time>2019-10-12T16:24:08.942Z</time>
      </trkpt>
      <trkpt lat="20.24041167" lon="-98.74412333">
        <ele>2095.0</ele>
        <time>2019-10-12T16:24:09.943Z</time>
      </trkpt>
      <trkpt lat="20.24040333" lon="-98.74410833">
        <ele>2095.0</ele>
        <time>2019-10-12T16:24:10.945Z</time>
      </trkpt>
      <trkpt lat="20.24038833" lon="-98.74409167">
        <ele>2095.0</ele>
        <time>2019-10-12T16:24:11.952Z</time>
      </trkpt>
      <trkpt lat="20.24037333" lon="-98.74407">
        <ele>2095.0</ele>
        <time>2019-10-12T16:24:12.955Z</time>
      </trkpt>
      <trkpt lat="20.24036" lon="-98.74405167">
        <ele>2095.0</ele>
        <time>2019-10-12T16:24:13.836Z</time>
      </trkpt>
      <trkpt lat="20.24034667" lon="-98.74404">
        <ele>2095.0</ele>
        <time>2019-10-12T16:24:14.836Z</time>
      </trkpt>
      <trkpt lat="20.24033333" lon="-98.74403">
        <ele>2095.0</ele>
        <time>2019-10-12T16:24:15.842Z</time>
      </trkpt>
      <trkpt lat="20.24032333" lon="-98.744025">
        <ele>2095.0</ele>
        <time>2019-10-12T16:24:16.843Z</time>
      </trkpt>
      <trkpt lat="20.24031833" lon="-98.74402667">
        <ele>2095.0</ele>
        <time>2019-10-12T16:24:17.849Z</time>
      </trkpt>
      <trkpt lat="20.24031667" lon="-98.74402833">
        <ele>2095.0</ele>
        <time>2019-10-12T16:24:18.855Z</time>
      </trkpt>
      <trkpt lat="20.240315" lon="-98.74403167">
        <ele>2095.0</ele>
        <time>2019-10-12T16:24:19.857Z</time>
      </trkpt>
      <trkpt lat="20.24031167" lon="-98.74403">
        <ele>2096.0</ele>
        <time>2019-10-12T16:24:20.863Z</time>
      </trkpt>
      <trkpt lat="20.24031" lon="-98.74402667">
        <ele>2096.0</ele>
        <time>2019-10-12T16:24:21.869Z</time>
      </trkpt>
      <trkpt lat="20.24030833" lon="-98.74403">
        <ele>2095.0</ele>
        <time>2019-10-12T16:24:22.877Z</time>
      </trkpt>
      <trkpt lat="20.24030667" lon="-98.74403">
        <ele>2095.0</ele>
        <time>2019-10-12T16:24:23.884Z</time>
      </trkpt>
      <trkpt lat="20.24030833" lon="-98.74403167">
        <ele>2095.0</ele>
        <time>2019-10-12T16:24:24.886Z</time>
      </trkpt>
      <trkpt lat="20.24030833" lon="-98.744035">
        <ele>2094.0</ele>
        <time>2019-10-12T16:24:25.886Z</time>
      </trkpt>
      <trkpt lat="20.24030833" lon="-98.74403833">
        <ele>2094.0</ele>
        <time>2019-10-12T16:24:26.890Z</time>
      </trkpt>
      <trkpt lat="20.24030333" lon="-98.74403667">
        <ele>2094.0</ele>
        <time>2019-10-12T16:24:27.898Z</time>
      </trkpt>
      <trkpt lat="20.24029667" lon="-98.74403167">
        <ele>2094.0</ele>
        <time>2019-10-12T16:24:28.905Z</time>
      </trkpt>
      <trkpt lat="20.24029" lon="-98.744025">
        <ele>2094.0</ele>
        <time>2019-10-12T16:24:29.909Z</time>
      </trkpt>
      <trkpt lat="20.24027833" lon="-98.74401167">
        <ele>2094.0</ele>
        <time>2019-10-12T16:24:30.915Z</time>
      </trkpt>
      <trkpt lat="20.24026833" lon="-98.74399667">
        <ele>2094.0</ele>
        <time>2019-10-12T16:24:31.919Z</time>
      </trkpt>
      <trkpt lat="20.24025667" lon="-98.74398333">
        <ele>2094.0</ele>
        <time>2019-10-12T16:24:32.920Z</time>
      </trkpt>
      <trkpt lat="20.24024333" lon="-98.74396833">
        <ele>2095.0</ele>
        <time>2019-10-12T16:24:33.920Z</time>
      </trkpt>
      <trkpt lat="20.24022667" lon="-98.74395333">
        <ele>2095.0</ele>
        <time>2019-10-12T16:24:34.927Z</time>
      </trkpt>
      <trkpt lat="20.24021" lon="-98.743945">
        <ele>2094.0</ele>
        <time>2019-10-12T16:24:35.932Z</time>
      </trkpt>
      <trkpt lat="20.240195" lon="-98.743935">
        <ele>2094.0</ele>
        <time>2019-10-12T16:24:36.936Z</time>
      </trkpt>
      <trkpt lat="20.24018333" lon="-98.74392167">
        <ele>2094.0</ele>
        <time>2019-10-12T16:24:37.942Z</time>
      </trkpt>
      <trkpt lat="20.24017167" lon="-98.74391333">
        <ele>2094.0</ele>
        <time>2019-10-12T16:24:38.948Z</time>
      </trkpt>
      <trkpt lat="20.24015667" lon="-98.74390667">
        <ele>2094.0</ele>
        <time>2019-10-12T16:24:39.955Z</time>
      </trkpt>
      <trkpt lat="20.240145" lon="-98.743905">
        <ele>2094.0</ele>
        <time>2019-10-12T16:24:40.832Z</time>
      </trkpt>
      <trkpt lat="20.24013333" lon="-98.74390833">
        <ele>2094.0</ele>
        <time>2019-10-12T16:24:41.833Z</time>
      </trkpt>
      <trkpt lat="20.24012167" lon="-98.74390833">
        <ele>2095.0</ele>
        <time>2019-10-12T16:24:42.834Z</time>
      </trkpt>
      <trkpt lat="20.24011" lon="-98.74391167">
        <ele>2095.0</ele>
        <time>2019-10-12T16:24:43.835Z</time>
      </trkpt>
      <trkpt lat="20.24009333" lon="-98.74391">
        <ele>2094.0</ele>
        <time>2019-10-12T16:24:44.835Z</time>
      </trkpt>
      <trkpt lat="20.24008" lon="-98.743905">
        <ele>2094.0</ele>
        <time>2019-10-12T16:24:45.836Z</time>
      </trkpt>
      <trkpt lat="20.240065" lon="-98.74390167">
        <ele>2094.0</ele>
        <time>2019-10-12T16:24:46.837Z</time>
      </trkpt>
      <trkpt lat="20.24004667" lon="-98.74389667">
        <ele>2093.0</ele>
        <time>2019-10-12T16:24:47.838Z</time>
      </trkpt>
      <trkpt lat="20.24002667" lon="-98.74389167">
        <ele>2093.0</ele>
        <time>2019-10-12T16:24:48.839Z</time>
      </trkpt>
      <trkpt lat="20.24001167" lon="-98.74388833">
        <ele>2093.0</ele>
        <time>2019-10-12T16:24:49.839Z</time>
      </trkpt>
      <trkpt lat="20.23999667" lon="-98.74388333">
        <ele>2093.0</ele>
        <time>2019-10-12T16:24:50.840Z</time>
      </trkpt>
      <trkpt lat="20.23998" lon="-98.74387833">
        <ele>2092.0</ele>
        <time>2019-10-12T16:24:51.841Z</time>
      </trkpt>
      <trkpt lat="20.23996167" lon="-98.74387167">
        <ele>2092.0</ele>
        <time>2019-10-12T16:24:52.842Z</time>
      </trkpt>
      <trkpt lat="20.23994" lon="-98.74387">
        <ele>2092.0</ele>
        <time>2019-10-12T16:24:53.849Z</time>
      </trkpt>
      <trkpt lat="20.23992" lon="-98.74386833">
        <ele>2091.0</ele>
        <time>2019-10-12T16:24:54.853Z</time>
      </trkpt>
      <trkpt lat="20.23990167" lon="-98.74386667">
        <ele>2091.0</ele>
        <time>2019-10-12T16:24:55.858Z</time>
      </trkpt>
      <trkpt lat="20.239885" lon="-98.74386167">
        <ele>2091.0</ele>
        <time>2019-10-12T16:24:56.865Z</time>
      </trkpt>
      <trkpt lat="20.239865" lon="-98.74385833">
        <ele>2090.0</ele>
        <time>2019-10-12T16:24:57.870Z</time>
      </trkpt>
      <trkpt lat="20.239845" lon="-98.743855">
        <ele>2090.0</ele>
        <time>2019-10-12T16:24:58.876Z</time>
      </trkpt>
      <trkpt lat="20.23982167" lon="-98.74385167">
        <ele>2089.0</ele>
        <time>2019-10-12T16:24:59.881Z</time>
      </trkpt>
      <trkpt lat="20.23979833" lon="-98.74385167">
        <ele>2089.0</ele>
        <time>2019-10-12T16:25:00.887Z</time>
      </trkpt>
      <trkpt lat="20.23978333" lon="-98.74385667">
        <ele>2088.0</ele>
        <time>2019-10-12T16:25:01.892Z</time>
      </trkpt>
      <trkpt lat="20.239775" lon="-98.74386">
        <ele>2088.0</ele>
        <time>2019-10-12T16:25:02.894Z</time>
      </trkpt>
      <trkpt lat="20.239765" lon="-98.74386167">
        <ele>2087.0</ele>
        <time>2019-10-12T16:25:03.899Z</time>
      </trkpt>
      <trkpt lat="20.23975167" lon="-98.74386333">
        <ele>2087.0</ele>
        <time>2019-10-12T16:25:04.904Z</time>
      </trkpt>
      <trkpt lat="20.23973667" lon="-98.74386333">
        <ele>2086.0</ele>
        <time>2019-10-12T16:25:05.909Z</time>
      </trkpt>
      <trkpt lat="20.23972167" lon="-98.743865">
        <ele>2085.0</ele>
        <time>2019-10-12T16:25:06.915Z</time>
      </trkpt>
      <trkpt lat="20.23970667" lon="-98.74387">
        <ele>2085.0</ele>
        <time>2019-10-12T16:25:07.916Z</time>
      </trkpt>
      <trkpt lat="20.23969167" lon="-98.74387667">
        <ele>2085.0</ele>
        <time>2019-10-12T16:25:08.917Z</time>
      </trkpt>
      <trkpt lat="20.239675" lon="-98.74388167">
        <ele>2084.0</ele>
        <time>2019-10-12T16:25:09.918Z</time>
      </trkpt>
      <trkpt lat="20.23966333" lon="-98.74388667">
        <ele>2083.0</ele>
        <time>2019-10-12T16:25:10.922Z</time>
      </trkpt>
      <trkpt lat="20.23964833" lon="-98.743895">
        <ele>2082.0</ele>
        <time>2019-10-12T16:25:11.929Z</time>
      </trkpt>
      <trkpt lat="20.23963" lon="-98.74390167">
        <ele>2081.0</ele>
        <time>2019-10-12T16:25:12.931Z</time>
      </trkpt>
      <trkpt lat="20.23961167" lon="-98.74391">
        <ele>2081.0</ele>
        <time>2019-10-12T16:25:13.936Z</time>
      </trkpt>
      <trkpt lat="20.23959333" lon="-98.74392167">
        <ele>2081.0</ele>
        <time>2019-10-12T16:25:14.938Z</time>
      </trkpt>
      <trkpt lat="20.23958" lon="-98.74393833">
        <ele>2081.0</ele>
        <time>2019-10-12T16:25:15.943Z</time>
      </trkpt>
      <trkpt lat="20.23956833" lon="-98.743955">
        <ele>2081.0</ele>
        <time>2019-10-12T16:25:16.947Z</time>
      </trkpt>
      <trkpt lat="20.239555" lon="-98.74396667">
        <ele>2081.0</ele>
        <time>2019-10-12T16:25:17.954Z</time>
      </trkpt>
      <trkpt lat="20.23953833" lon="-98.74397667">
        <ele>2080.0</ele>
        <time>2019-10-12T16:25:18.835Z</time>
      </trkpt>
      <trkpt lat="20.23952333" lon="-98.74398667">
        <ele>2080.0</ele>
        <time>2019-10-12T16:25:19.843Z</time>
      </trkpt>
      <trkpt lat="20.239505" lon="-98.74399333">
        <ele>2079.0</ele>
        <time>2019-10-12T16:25:20.846Z</time>
      </trkpt>
      <trkpt lat="20.23948333" lon="-98.74399833">
        <ele>2079.0</ele>
        <time>2019-10-12T16:25:21.852Z</time>
      </trkpt>
      <trkpt lat="20.23946333" lon="-98.74400667">
        <ele>2079.0</ele>
        <time>2019-10-12T16:25:22.858Z</time>
      </trkpt>
      <trkpt lat="20.23944167" lon="-98.74401667">
        <ele>2078.0</ele>
        <time>2019-10-12T16:25:23.863Z</time>
      </trkpt>
      <trkpt lat="20.23942333" lon="-98.74402333">
        <ele>2078.0</ele>
        <time>2019-10-12T16:25:24.865Z</time>
      </trkpt>
      <trkpt lat="20.23940333" lon="-98.74403167">
        <ele>2077.0</ele>
        <time>2019-10-12T16:25:25.866Z</time>
      </trkpt>
      <trkpt lat="20.23938667" lon="-98.74404333">
        <ele>2076.0</ele>
        <time>2019-10-12T16:25:26.867Z</time>
      </trkpt>
      <trkpt lat="20.23937" lon="-98.74405">
        <ele>2076.0</ele>
        <time>2019-10-12T16:25:27.872Z</time>
      </trkpt>
      <trkpt lat="20.239355" lon="-98.74405333">
        <ele>2075.0</ele>
        <time>2019-10-12T16:25:28.874Z</time>
      </trkpt>
      <trkpt lat="20.23934" lon="-98.74405833">
        <ele>2074.0</ele>
        <time>2019-10-12T16:25:29.876Z</time>
      </trkpt>
      <trkpt lat="20.239325" lon="-98.744065">
        <ele>2074.0</ele>
        <time>2019-10-12T16:25:30.881Z</time>
      </trkpt>
      <trkpt lat="20.239305" lon="-98.74407167">
        <ele>2074.0</ele>
        <time>2019-10-12T16:25:31.886Z</time>
      </trkpt>
      <trkpt lat="20.23929" lon="-98.74407667">
        <ele>2074.0</ele>
        <time>2019-10-12T16:25:32.893Z</time>
      </trkpt>
      <trkpt lat="20.239275" lon="-98.74408">
        <ele>2074.0</ele>
        <time>2019-10-12T16:25:33.895Z</time>
      </trkpt>
      <trkpt lat="20.23925667" lon="-98.74407667">
        <ele>2074.0</ele>
        <time>2019-10-12T16:25:34.901Z</time>
      </trkpt>
      <trkpt lat="20.23923833" lon="-98.74407">
        <ele>2074.0</ele>
        <time>2019-10-12T16:25:35.905Z</time>
      </trkpt>
      <trkpt lat="20.23922" lon="-98.744065">
        <ele>2073.0</ele>
        <time>2019-10-12T16:25:36.906Z</time>
      </trkpt>
      <trkpt lat="20.2392" lon="-98.74406">
        <ele>2073.0</ele>
        <time>2019-10-12T16:25:37.913Z</time>
      </trkpt>
      <trkpt lat="20.23918" lon="-98.74405667">
        <ele>2073.0</ele>
        <time>2019-10-12T16:25:38.918Z</time>
      </trkpt>
      <trkpt lat="20.23915833" lon="-98.744055">
        <ele>2073.0</ele>
        <time>2019-10-12T16:25:39.924Z</time>
      </trkpt>
      <trkpt lat="20.23913833" lon="-98.74405333">
        <ele>2072.0</ele>
        <time>2019-10-12T16:25:40.928Z</time>
      </trkpt>
      <trkpt lat="20.23911833" lon="-98.744045">
        <ele>2072.0</ele>
        <time>2019-10-12T16:25:41.929Z</time>
      </trkpt>
      <trkpt lat="20.2391" lon="-98.74403667">
        <ele>2072.0</ele>
        <time>2019-10-12T16:25:42.935Z</time>
      </trkpt>
      <trkpt lat="20.239075" lon="-98.74403">
        <ele>2072.0</ele>
        <time>2019-10-12T16:25:43.941Z</time>
      </trkpt>
      <trkpt lat="20.23905333" lon="-98.74403167">
        <ele>2071.0</ele>
        <time>2019-10-12T16:25:44.943Z</time>
      </trkpt>
      <trkpt lat="20.23903" lon="-98.74403">
        <ele>2071.0</ele>
        <time>2019-10-12T16:25:45.944Z</time>
      </trkpt>
      <trkpt lat="20.23900667" lon="-98.744025">
        <ele>2070.0</ele>
        <time>2019-10-12T16:25:46.945Z</time>
      </trkpt>
      <trkpt lat="20.23898333" lon="-98.74402333">
        <ele>2069.0</ele>
        <time>2019-10-12T16:25:47.946Z</time>
      </trkpt>
      <trkpt lat="20.23896" lon="-98.74402333">
        <ele>2069.0</ele>
        <time>2019-10-12T16:25:48.947Z</time>
      </trkpt>
      <trkpt lat="20.23894167" lon="-98.74402">
        <ele>2069.0</ele>
        <time>2019-10-12T16:25:49.951Z</time>
      </trkpt>
      <trkpt lat="20.23892833" lon="-98.74402">
        <ele>2069.0</ele>
        <time>2019-10-12T16:25:50.832Z</time>
      </trkpt>
      <trkpt lat="20.23891667" lon="-98.74402">
        <ele>2069.0</ele>
        <time>2019-10-12T16:25:51.839Z</time>
      </trkpt>
      <trkpt lat="20.238905" lon="-98.744025">
        <ele>2069.0</ele>
        <time>2019-10-12T16:25:52.846Z</time>
      </trkpt>
      <trkpt lat="20.23889" lon="-98.74403167">
        <ele>2069.0</ele>
        <time>2019-10-12T16:25:53.852Z</time>
      </trkpt>
      <trkpt lat="20.238875" lon="-98.74404">
        <ele>2069.0</ele>
        <time>2019-10-12T16:25:54.858Z</time>
      </trkpt>
      <trkpt lat="20.23886333" lon="-98.74404">
        <ele>2069.0</ele>
        <time>2019-10-12T16:25:55.863Z</time>
      </trkpt>
      <trkpt lat="20.23885" lon="-98.74403667">
        <ele>2069.0</ele>
        <time>2019-10-12T16:25:56.868Z</time>
      </trkpt>
      <trkpt lat="20.23883833" lon="-98.74403333">
        <ele>2068.0</ele>
        <time>2019-10-12T16:25:57.872Z</time>
      </trkpt>
      <trkpt lat="20.23883333" lon="-98.74402667">
        <ele>2068.0</ele>
        <time>2019-10-12T16:25:58.878Z</time>
      </trkpt>
      <trkpt lat="20.23882667" lon="-98.744015">
        <ele>2067.0</ele>
        <time>2019-10-12T16:25:59.885Z</time>
      </trkpt>
      <trkpt lat="20.23882" lon="-98.744">
        <ele>2067.0</ele>
        <time>2019-10-12T16:26:00.891Z</time>
      </trkpt>
      <trkpt lat="20.23881167" lon="-98.74398667">
        <ele>2066.0</ele>
        <time>2019-10-12T16:26:01.893Z</time>
      </trkpt>
      <trkpt lat="20.23879833" lon="-98.74397667">
        <ele>2066.0</ele>
        <time>2019-10-12T16:26:02.894Z</time>
      </trkpt>
      <trkpt lat="20.23878333" lon="-98.74397">
        <ele>2066.0</ele>
        <time>2019-10-12T16:26:03.895Z</time>
      </trkpt>
      <trkpt lat="20.23877167" lon="-98.74396667">
        <ele>2066.0</ele>
        <time>2019-10-12T16:26:04.895Z</time>
      </trkpt>
      <trkpt lat="20.23875833" lon="-98.743965">
        <ele>2066.0</ele>
        <time>2019-10-12T16:26:05.896Z</time>
      </trkpt>
      <trkpt lat="20.23874667" lon="-98.74396667">
        <ele>2065.0</ele>
        <time>2019-10-12T16:26:06.897Z</time>
      </trkpt>
      <trkpt lat="20.23873333" lon="-98.743965">
        <ele>2064.0</ele>
        <time>2019-10-12T16:26:07.900Z</time>
      </trkpt>
      <trkpt lat="20.23872" lon="-98.74396167">
        <ele>2063.0</ele>
        <time>2019-10-12T16:26:08.906Z</time>
      </trkpt>
      <trkpt lat="20.238705" lon="-98.74396167">
        <ele>2062.0</ele>
        <time>2019-10-12T16:26:09.912Z</time>
      </trkpt>
      <trkpt lat="20.23868833" lon="-98.74396333">
        <ele>2062.0</ele>
        <time>2019-10-12T16:26:10.916Z</time>
      </trkpt>
      <trkpt lat="20.23867167" lon="-98.74396">
        <ele>2061.0</ele>
        <time>2019-10-12T16:26:11.921Z</time>
      </trkpt>
      <trkpt lat="20.23866" lon="-98.74394667">
        <ele>2061.0</ele>
        <time>2019-10-12T16:26:12.924Z</time>
      </trkpt>
      <trkpt lat="20.23865333" lon="-98.74392667">
        <ele>2061.0</ele>
        <time>2019-10-12T16:26:13.931Z</time>
      </trkpt>
      <trkpt lat="20.23864833" lon="-98.74390833">
        <ele>2060.0</ele>
        <time>2019-10-12T16:26:14.937Z</time>
      </trkpt>
      <trkpt lat="20.238645" lon="-98.74388667">
        <ele>2059.0</ele>
        <time>2019-10-12T16:26:15.940Z</time>
      </trkpt>
      <trkpt lat="20.23864" lon="-98.74386667">
        <ele>2058.0</ele>
        <time>2019-10-12T16:26:16.948Z</time>
      </trkpt>
      <trkpt lat="20.23863333" lon="-98.74384167">
        <ele>2057.0</ele>
        <time>2019-10-12T16:26:17.953Z</time>
      </trkpt>
      <trkpt lat="20.23862833" lon="-98.74381833">
        <ele>2057.0</ele>
        <time>2019-10-12T16:26:18.834Z</time>
      </trkpt>
      <trkpt lat="20.23862167" lon="-98.74379167">
        <ele>2056.0</ele>
        <time>2019-10-12T16:26:19.838Z</time>
      </trkpt>
      <trkpt lat="20.23861" lon="-98.74376833">
        <ele>2056.0</ele>
        <time>2019-10-12T16:26:20.842Z</time>
      </trkpt>
      <trkpt lat="20.238595" lon="-98.74374667">
        <ele>2055.0</ele>
        <time>2019-10-12T16:26:21.843Z</time>
      </trkpt>
      <trkpt lat="20.23857833" lon="-98.74373">
        <ele>2054.0</ele>
        <time>2019-10-12T16:26:22.844Z</time>
      </trkpt>
      <trkpt lat="20.23855833" lon="-98.74371667">
        <ele>2053.0</ele>
        <time>2019-10-12T16:26:23.845Z</time>
      </trkpt>
      <trkpt lat="20.23853667" lon="-98.743705">
        <ele>2053.0</ele>
        <time>2019-10-12T16:26:24.845Z</time>
      </trkpt>
      <trkpt lat="20.238515" lon="-98.743695">
        <ele>2052.0</ele>
        <time>2019-10-12T16:26:25.846Z</time>
      </trkpt>
      <trkpt lat="20.23849667" lon="-98.74368667">
        <ele>2052.0</ele>
        <time>2019-10-12T16:26:26.847Z</time>
      </trkpt>
      <trkpt lat="20.23847833" lon="-98.743675">
        <ele>2051.0</ele>
        <time>2019-10-12T16:26:27.848Z</time>
      </trkpt>
      <trkpt lat="20.23846167" lon="-98.74366667">
        <ele>2050.0</ele>
        <time>2019-10-12T16:26:28.849Z</time>
      </trkpt>
      <trkpt lat="20.23844333" lon="-98.743655">
        <ele>2049.0</ele>
        <time>2019-10-12T16:26:29.849Z</time>
      </trkpt>
      <trkpt lat="20.23842667" lon="-98.743645">
        <ele>2049.0</ele>
        <time>2019-10-12T16:26:30.850Z</time>
      </trkpt>
      <trkpt lat="20.23841" lon="-98.74363333">
        <ele>2048.0</ele>
        <time>2019-10-12T16:26:31.851Z</time>
      </trkpt>
      <trkpt lat="20.23839167" lon="-98.743625">
        <ele>2048.0</ele>
        <time>2019-10-12T16:26:32.852Z</time>
      </trkpt>
      <trkpt lat="20.23837833" lon="-98.74362">
        <ele>2048.0</ele>
        <time>2019-10-12T16:26:33.852Z</time>
      </trkpt>
      <trkpt lat="20.23836333" lon="-98.74361333">
        <ele>2047.0</ele>
        <time>2019-10-12T16:26:34.852Z</time>
      </trkpt>
      <trkpt lat="20.23834833" lon="-98.74360167">
        <ele>2046.0</ele>
        <time>2019-10-12T16:26:35.853Z</time>
      </trkpt>
      <trkpt lat="20.23833" lon="-98.74359">
        <ele>2045.0</ele>
        <time>2019-10-12T16:26:36.854Z</time>
      </trkpt>
      <trkpt lat="20.23831167" lon="-98.74357667">
        <ele>2045.0</ele>
        <time>2019-10-12T16:26:37.855Z</time>
      </trkpt>
      <trkpt lat="20.23828833" lon="-98.743565">
        <ele>2044.0</ele>
        <time>2019-10-12T16:26:38.856Z</time>
      </trkpt>
      <trkpt lat="20.23826333" lon="-98.74356">
        <ele>2044.0</ele>
        <time>2019-10-12T16:26:39.857Z</time>
      </trkpt>
      <trkpt lat="20.23823667" lon="-98.743555">
        <ele>2044.0</ele>
        <time>2019-10-12T16:26:40.857Z</time>
      </trkpt>
      <trkpt lat="20.23821333" lon="-98.74355667">
        <ele>2043.0</ele>
        <time>2019-10-12T16:26:41.858Z</time>
      </trkpt>
      <trkpt lat="20.23818667" lon="-98.74355667">
        <ele>2043.0</ele>
        <time>2019-10-12T16:26:42.858Z</time>
      </trkpt>
      <trkpt lat="20.23816" lon="-98.74356">
        <ele>2042.0</ele>
        <time>2019-10-12T16:26:43.859Z</time>
      </trkpt>
      <trkpt lat="20.23813" lon="-98.74356">
        <ele>2042.0</ele>
        <time>2019-10-12T16:26:44.860Z</time>
      </trkpt>
      <trkpt lat="20.23810333" lon="-98.74355167">
        <ele>2042.0</ele>
        <time>2019-10-12T16:26:45.861Z</time>
      </trkpt>
      <trkpt lat="20.23808" lon="-98.74354">
        <ele>2042.0</ele>
        <time>2019-10-12T16:26:46.862Z</time>
      </trkpt>
      <trkpt lat="20.238055" lon="-98.74352667">
        <ele>2042.0</ele>
        <time>2019-10-12T16:26:47.866Z</time>
      </trkpt>
      <trkpt lat="20.23803333" lon="-98.74351167">
        <ele>2042.0</ele>
        <time>2019-10-12T16:26:48.873Z</time>
      </trkpt>
      <trkpt lat="20.23801167" lon="-98.743495">
        <ele>2042.0</ele>
        <time>2019-10-12T16:26:49.877Z</time>
      </trkpt>
      <trkpt lat="20.23798667" lon="-98.74348">
        <ele>2042.0</ele>
        <time>2019-10-12T16:26:50.882Z</time>
      </trkpt>
      <trkpt lat="20.23796333" lon="-98.74346833">
        <ele>2042.0</ele>
        <time>2019-10-12T16:26:51.888Z</time>
      </trkpt>
      <trkpt lat="20.23793833" lon="-98.74346">
        <ele>2042.0</ele>
        <time>2019-10-12T16:26:52.894Z</time>
      </trkpt>
      <trkpt lat="20.23791167" lon="-98.743455">
        <ele>2041.0</ele>
        <time>2019-10-12T16:26:53.896Z</time>
      </trkpt>
      <trkpt lat="20.23788667" lon="-98.74345167">
        <ele>2041.0</ele>
        <time>2019-10-12T16:26:54.899Z</time>
      </trkpt>
      <trkpt lat="20.23786333" lon="-98.74345167">
        <ele>2040.0</ele>
        <time>2019-10-12T16:26:55.902Z</time>
      </trkpt>
      <trkpt lat="20.23786167" lon="-98.74346833">
        <ele>2040.0</ele>
        <time>2019-10-12T16:26:56.907Z</time>
      </trkpt>
      <trkpt lat="20.23786167" lon="-98.74346833">
        <ele>2040.0</ele>
        <time>2019-10-12T16:26:57.910Z</time>
      </trkpt>
      <trkpt lat="20.23786167" lon="-98.74346833">
        <ele>2040.0</ele>
        <time>2019-10-12T16:26:58.911Z</time>
      </trkpt>
      <trkpt lat="20.23786167" lon="-98.74346833">
        <ele>2040.0</ele>
        <time>2019-10-12T16:26:59.912Z</time>
      </trkpt>
      <trkpt lat="20.23785833" lon="-98.74346667">
        <ele>2040.0</ele>
        <time>2019-10-12T16:27:00.916Z</time>
      </trkpt>
      <trkpt lat="20.237845" lon="-98.74346333">
        <ele>2040.0</ele>
        <time>2019-10-12T16:27:01.923Z</time>
      </trkpt>
      <trkpt lat="20.23783" lon="-98.74346">
        <ele>2040.0</ele>
        <time>2019-10-12T16:27:02.929Z</time>
      </trkpt>
      <trkpt lat="20.23781333" lon="-98.743455">
        <ele>2040.0</ele>
        <time>2019-10-12T16:27:03.934Z</time>
      </trkpt>
      <trkpt lat="20.237795" lon="-98.74345167">
        <ele>2040.0</ele>
        <time>2019-10-12T16:27:04.940Z</time>
      </trkpt>
      <trkpt lat="20.23777833" lon="-98.74345167">
        <ele>2040.0</ele>
        <time>2019-10-12T16:27:05.945Z</time>
      </trkpt>
      <trkpt lat="20.23775667" lon="-98.74344833">
        <ele>2039.0</ele>
        <time>2019-10-12T16:27:06.952Z</time>
      </trkpt>
      <trkpt lat="20.23773833" lon="-98.74344333">
        <ele>2040.0</ele>
        <time>2019-10-12T16:27:07.833Z</time>
      </trkpt>
      <trkpt lat="20.23771833" lon="-98.74344">
        <ele>2039.0</ele>
        <time>2019-10-12T16:27:08.835Z</time>
      </trkpt>
      <trkpt lat="20.23770167" lon="-98.74343167">
        <ele>2039.0</ele>
        <time>2019-10-12T16:27:09.839Z</time>
      </trkpt>
      <trkpt lat="20.23768667" lon="-98.74342333">
        <ele>2038.0</ele>
        <time>2019-10-12T16:27:10.842Z</time>
      </trkpt>
      <trkpt lat="20.23767167" lon="-98.74341833">
        <ele>2038.0</ele>
        <time>2019-10-12T16:27:11.847Z</time>
      </trkpt>
      <trkpt lat="20.237655" lon="-98.74341667">
        <ele>2038.0</ele>
        <time>2019-10-12T16:27:12.853Z</time>
      </trkpt>
      <trkpt lat="20.23764167" lon="-98.74341667">
        <ele>2037.0</ele>
        <time>2019-10-12T16:27:13.859Z</time>
      </trkpt>
      <trkpt lat="20.23762667" lon="-98.74341667">
        <ele>2037.0</ele>
        <time>2019-10-12T16:27:14.860Z</time>
      </trkpt>
      <trkpt lat="20.23761333" lon="-98.74341167">
        <ele>2037.0</ele>
        <time>2019-10-12T16:27:15.866Z</time>
      </trkpt>
      <trkpt lat="20.23760167" lon="-98.74340833">
        <ele>2037.0</ele>
        <time>2019-10-12T16:27:16.872Z</time>
      </trkpt>
      <trkpt lat="20.23759" lon="-98.743405">
        <ele>2037.0</ele>
        <time>2019-10-12T16:27:17.875Z</time>
      </trkpt>
      <trkpt lat="20.23757833" lon="-98.74339667">
        <ele>2037.0</ele>
        <time>2019-10-12T16:27:18.879Z</time>
      </trkpt>
      <trkpt lat="20.23756833" lon="-98.74339">
        <ele>2037.0</ele>
        <time>2019-10-12T16:27:19.885Z</time>
      </trkpt>
      <trkpt lat="20.23756" lon="-98.743385">
        <ele>2037.0</ele>
        <time>2019-10-12T16:27:20.890Z</time>
      </trkpt>
      <trkpt lat="20.23754833" lon="-98.74338">
        <ele>2038.0</ele>
        <time>2019-10-12T16:27:21.891Z</time>
      </trkpt>
      <trkpt lat="20.23754167" lon="-98.74337833">
        <ele>2038.0</ele>
        <time>2019-10-12T16:27:22.895Z</time>
      </trkpt>
      <trkpt lat="20.23754333" lon="-98.74336667">
        <ele>2035.0</ele>
        <time>2019-10-12T16:27:23.899Z</time>
      </trkpt>
      <trkpt lat="20.23754333" lon="-98.74336667">
        <ele>2035.0</ele>
        <time>2019-10-12T16:27:24.902Z</time>
      </trkpt>
      <trkpt lat="20.23754333" lon="-98.74336833">
        <ele>2035.0</ele>
        <time>2019-10-12T16:27:25.907Z</time>
      </trkpt>
      <trkpt lat="20.23754333" lon="-98.74336833">
        <ele>2035.0</ele>
        <time>2019-10-12T16:27:26.915Z</time>
      </trkpt>
      <trkpt lat="20.23754" lon="-98.74337">
        <ele>2035.0</ele>
        <time>2019-10-12T16:27:27.922Z</time>
      </trkpt>
      <trkpt lat="20.23753" lon="-98.74337">
        <ele>2034.0</ele>
        <time>2019-10-12T16:27:28.927Z</time>
      </trkpt>
      <trkpt lat="20.23751833" lon="-98.743365">
        <ele>2033.0</ele>
        <time>2019-10-12T16:27:29.930Z</time>
      </trkpt>
      <trkpt lat="20.23751" lon="-98.74336667">
        <ele>2033.0</ele>
        <time>2019-10-12T16:27:30.934Z</time>
      </trkpt>
      <trkpt lat="20.2375" lon="-98.74337333">
        <ele>2032.0</ele>
        <time>2019-10-12T16:27:31.941Z</time>
      </trkpt>
      <trkpt lat="20.23748833" lon="-98.74338167">
        <ele>2031.0</ele>
        <time>2019-10-12T16:27:32.944Z</time>
      </trkpt>
      <trkpt lat="20.23748" lon="-98.743395">
        <ele>2030.0</ele>
        <time>2019-10-12T16:27:33.945Z</time>
      </trkpt>
      <trkpt lat="20.23747667" lon="-98.74341">
        <ele>2030.0</ele>
        <time>2019-10-12T16:27:34.946Z</time>
      </trkpt>
      <trkpt lat="20.23747167" lon="-98.74342167">
        <ele>2029.0</ele>
        <time>2019-10-12T16:27:35.947Z</time>
      </trkpt>
      <trkpt lat="20.23747" lon="-98.74343167">
        <ele>2028.0</ele>
        <time>2019-10-12T16:27:36.948Z</time>
      </trkpt>
      <trkpt lat="20.23746833" lon="-98.74344167">
        <ele>2028.0</ele>
        <time>2019-10-12T16:27:37.953Z</time>
      </trkpt>
      <trkpt lat="20.237465" lon="-98.74344667">
        <ele>2027.0</ele>
        <time>2019-10-12T16:27:38.834Z</time>
      </trkpt>
      <trkpt lat="20.23745833" lon="-98.74345">
        <ele>2027.0</ele>
        <time>2019-10-12T16:27:39.838Z</time>
      </trkpt>
      <trkpt lat="20.23745" lon="-98.74345333">
        <ele>2027.0</ele>
        <time>2019-10-12T16:27:40.841Z</time>
      </trkpt>
      <trkpt lat="20.23744" lon="-98.74345833">
        <ele>2026.0</ele>
        <time>2019-10-12T16:27:41.846Z</time>
      </trkpt>
      <trkpt lat="20.23743" lon="-98.74346333">
        <ele>2026.0</ele>
        <time>2019-10-12T16:27:42.848Z</time>
      </trkpt>
      <trkpt lat="20.23741667" lon="-98.74346833">
        <ele>2026.0</ele>
        <time>2019-10-12T16:27:43.849Z</time>
      </trkpt>
      <trkpt lat="20.23740667" lon="-98.74347167">
        <ele>2025.0</ele>
        <time>2019-10-12T16:27:44.850Z</time>
      </trkpt>
      <trkpt lat="20.23739167" lon="-98.743475">
        <ele>2025.0</ele>
        <time>2019-10-12T16:27:45.851Z</time>
      </trkpt>
      <trkpt lat="20.23738333" lon="-98.74348167">
        <ele>2024.0</ele>
        <time>2019-10-12T16:27:46.854Z</time>
      </trkpt>
      <trkpt lat="20.237375" lon="-98.74349">
        <ele>2024.0</ele>
        <time>2019-10-12T16:27:47.860Z</time>
      </trkpt>
      <trkpt lat="20.23737167" lon="-98.7435">
        <ele>2023.0</ele>
        <time>2019-10-12T16:27:48.865Z</time>
      </trkpt>
      <trkpt lat="20.23737333" lon="-98.74351">
        <ele>2023.0</ele>
        <time>2019-10-12T16:27:49.870Z</time>
      </trkpt>
      <trkpt lat="20.23737833" lon="-98.743525">
        <ele>2023.0</ele>
        <time>2019-10-12T16:27:50.875Z</time>
      </trkpt>
      <trkpt lat="20.237385" lon="-98.74352833">
        <ele>2021.0</ele>
        <time>2019-10-12T16:27:51.880Z</time>
      </trkpt>
      <trkpt lat="20.23738333" lon="-98.74353333">
        <ele>2020.0</ele>
        <time>2019-10-12T16:27:52.884Z</time>
      </trkpt>
      <trkpt lat="20.23737667" lon="-98.74353667">
        <ele>2020.0</ele>
        <time>2019-10-12T16:27:53.888Z</time>
      </trkpt>
      <trkpt lat="20.23736833" lon="-98.74353667">
        <ele>2019.0</ele>
        <time>2019-10-12T16:27:54.896Z</time>
      </trkpt>
      <trkpt lat="20.23736" lon="-98.74353667">
        <ele>2019.0</ele>
        <time>2019-10-12T16:27:55.899Z</time>
      </trkpt>
      <trkpt lat="20.23735333" lon="-98.74353667">
        <ele>2019.0</ele>
        <time>2019-10-12T16:27:56.900Z</time>
      </trkpt>
      <trkpt lat="20.23734833" lon="-98.74353833">
        <ele>2019.0</ele>
        <time>2019-10-12T16:27:57.901Z</time>
      </trkpt>
      <trkpt lat="20.23734167" lon="-98.74353833">
        <ele>2019.0</ele>
        <time>2019-10-12T16:27:58.902Z</time>
      </trkpt>
      <trkpt lat="20.23733667" lon="-98.743535">
        <ele>2019.0</ele>
        <time>2019-10-12T16:27:59.906Z</time>
      </trkpt>
      <trkpt lat="20.237335" lon="-98.74353333">
        <ele>2019.0</ele>
        <time>2019-10-12T16:28:00.908Z</time>
      </trkpt>
      <trkpt lat="20.23732667" lon="-98.74353167">
        <ele>2019.0</ele>
        <time>2019-10-12T16:28:01.913Z</time>
      </trkpt>
      <trkpt lat="20.23731833" lon="-98.74353333">
        <ele>2019.0</ele>
        <time>2019-10-12T16:28:02.921Z</time>
      </trkpt>
      <trkpt lat="20.23731333" lon="-98.74353833">
        <ele>2019.0</ele>
        <time>2019-10-12T16:28:03.924Z</time>
      </trkpt>
      <trkpt lat="20.237305" lon="-98.743545">
        <ele>2019.0</ele>
        <time>2019-10-12T16:28:04.927Z</time>
      </trkpt>
      <trkpt lat="20.2373" lon="-98.74354833">
        <ele>2019.0</ele>
        <time>2019-10-12T16:28:05.930Z</time>
      </trkpt>
      <trkpt lat="20.23729333" lon="-98.74355">
        <ele>2019.0</ele>
        <time>2019-10-12T16:28:06.936Z</time>
      </trkpt>
      <trkpt lat="20.23729" lon="-98.74355">
        <ele>2019.0</ele>
        <time>2019-10-12T16:28:07.941Z</time>
      </trkpt>
      <trkpt lat="20.23728667" lon="-98.74355">
        <ele>2018.0</ele>
        <time>2019-10-12T16:28:08.946Z</time>
      </trkpt>
      <trkpt lat="20.23728167" lon="-98.74354833">
        <ele>2018.0</ele>
        <time>2019-10-12T16:28:09.953Z</time>
      </trkpt>
      <trkpt lat="20.23727833" lon="-98.743545">
        <ele>2018.0</ele>
        <time>2019-10-12T16:28:10.831Z</time>
      </trkpt>
      <trkpt lat="20.23727333" lon="-98.74354333">
        <ele>2018.0</ele>
        <time>2019-10-12T16:28:11.838Z</time>
      </trkpt>
      <trkpt lat="20.23726667" lon="-98.74354333">
        <ele>2018.0</ele>
        <time>2019-10-12T16:28:12.845Z</time>
      </trkpt>
      <trkpt lat="20.23726167" lon="-98.743545">
        <ele>2018.0</ele>
        <time>2019-10-12T16:28:13.846Z</time>
      </trkpt>
      <trkpt lat="20.23725833" lon="-98.74354667">
        <ele>2018.0</ele>
        <time>2019-10-12T16:28:14.846Z</time>
      </trkpt>
      <trkpt lat="20.237255" lon="-98.74354833">
        <ele>2017.0</ele>
        <time>2019-10-12T16:28:15.846Z</time>
      </trkpt>
      <trkpt lat="20.23725667" lon="-98.74355333">
        <ele>2016.0</ele>
        <time>2019-10-12T16:28:16.847Z</time>
      </trkpt>
      <trkpt lat="20.23725667" lon="-98.74356167">
        <ele>2015.0</ele>
        <time>2019-10-12T16:28:17.848Z</time>
      </trkpt>
      <trkpt lat="20.23725333" lon="-98.74356833">
        <ele>2014.0</ele>
        <time>2019-10-12T16:28:18.849Z</time>
      </trkpt>
      <trkpt lat="20.23724833" lon="-98.74357333">
        <ele>2014.0</ele>
        <time>2019-10-12T16:28:19.850Z</time>
      </trkpt>
      <trkpt lat="20.237245" lon="-98.74358333">
        <ele>2013.0</ele>
        <time>2019-10-12T16:28:20.850Z</time>
      </trkpt>
      <trkpt lat="20.23724667" lon="-98.74359167">
        <ele>2012.0</ele>
        <time>2019-10-12T16:28:21.851Z</time>
      </trkpt>
      <trkpt lat="20.23725" lon="-98.74360333">
        <ele>2012.0</ele>
        <time>2019-10-12T16:28:22.852Z</time>
      </trkpt>
      <trkpt lat="20.23725333" lon="-98.74360833">
        <ele>2011.0</ele>
        <time>2019-10-12T16:28:23.853Z</time>
      </trkpt>
      <trkpt lat="20.23725167" lon="-98.743615">
        <ele>2011.0</ele>
        <time>2019-10-12T16:28:24.854Z</time>
      </trkpt>
      <trkpt lat="20.23724833" lon="-98.74362">
        <ele>2010.0</ele>
        <time>2019-10-12T16:28:25.854Z</time>
      </trkpt>
      <trkpt lat="20.237245" lon="-98.74362667">
        <ele>2011.0</ele>
        <time>2019-10-12T16:28:26.855Z</time>
      </trkpt>
      <trkpt lat="20.23724167" lon="-98.74363167">
        <ele>2011.0</ele>
        <time>2019-10-12T16:28:27.857Z</time>
      </trkpt>
      <trkpt lat="20.23724" lon="-98.74363667">
        <ele>2010.0</ele>
        <time>2019-10-12T16:28:28.857Z</time>
      </trkpt>
      <trkpt lat="20.23723333" lon="-98.74364167">
        <ele>2010.0</ele>
        <time>2019-10-12T16:28:29.858Z</time>
      </trkpt>
      <trkpt lat="20.23723" lon="-98.74364833">
        <ele>2009.0</ele>
        <time>2019-10-12T16:28:30.859Z</time>
      </trkpt>
      <trkpt lat="20.23722333" lon="-98.74365667">
        <ele>2009.0</ele>
        <time>2019-10-12T16:28:31.859Z</time>
      </trkpt>
      <trkpt lat="20.23722" lon="-98.74366667">
        <ele>2009.0</ele>
        <time>2019-10-12T16:28:32.860Z</time>
      </trkpt>
      <trkpt lat="20.23721833" lon="-98.74367333">
        <ele>2009.0</ele>
        <time>2019-10-12T16:28:33.861Z</time>
      </trkpt>
      <trkpt lat="20.23721667" lon="-98.74368333">
        <ele>2008.0</ele>
        <time>2019-10-12T16:28:34.862Z</time>
      </trkpt>
      <trkpt lat="20.23721667" lon="-98.74369167">
        <ele>2008.0</ele>
        <time>2019-10-12T16:28:35.863Z</time>
      </trkpt>
      <trkpt lat="20.23721333" lon="-98.7437">
        <ele>2007.0</ele>
        <time>2019-10-12T16:28:36.863Z</time>
      </trkpt>
      <trkpt lat="20.23721167" lon="-98.74371167">
        <ele>2006.0</ele>
        <time>2019-10-12T16:28:37.864Z</time>
      </trkpt>
      <trkpt lat="20.23720833" lon="-98.74372">
        <ele>2005.0</ele>
        <time>2019-10-12T16:28:38.865Z</time>
      </trkpt>
      <trkpt lat="20.23720333" lon="-98.74372333">
        <ele>2005.0</ele>
        <time>2019-10-12T16:28:39.866Z</time>
      </trkpt>
      <trkpt lat="20.23719833" lon="-98.74372667">
        <ele>2004.0</ele>
        <time>2019-10-12T16:28:40.867Z</time>
      </trkpt>
      <trkpt lat="20.23719167" lon="-98.74372833">
        <ele>2005.0</ele>
        <time>2019-10-12T16:28:41.871Z</time>
      </trkpt>
      <trkpt lat="20.23718333" lon="-98.74373167">
        <ele>2004.0</ele>
        <time>2019-10-12T16:28:42.876Z</time>
      </trkpt>
      <trkpt lat="20.23717667" lon="-98.743735">
        <ele>2004.0</ele>
        <time>2019-10-12T16:28:43.880Z</time>
      </trkpt>
      <trkpt lat="20.23717" lon="-98.74374">
        <ele>2004.0</ele>
        <time>2019-10-12T16:28:44.884Z</time>
      </trkpt>
      <trkpt lat="20.23717" lon="-98.743745">
        <ele>2003.0</ele>
        <time>2019-10-12T16:28:45.891Z</time>
      </trkpt>
      <trkpt lat="20.237165" lon="-98.74374833">
        <ele>2003.0</ele>
        <time>2019-10-12T16:28:46.898Z</time>
      </trkpt>
      <trkpt lat="20.237165" lon="-98.743755">
        <ele>2002.0</ele>
        <time>2019-10-12T16:28:47.906Z</time>
      </trkpt>
      <trkpt lat="20.23715833" lon="-98.74376333">
        <ele>2001.0</ele>
        <time>2019-10-12T16:28:48.912Z</time>
      </trkpt>
      <trkpt lat="20.23716" lon="-98.743775">
        <ele>2001.0</ele>
        <time>2019-10-12T16:28:49.919Z</time>
      </trkpt>
      <trkpt lat="20.23716167" lon="-98.74378333">
        <ele>2001.0</ele>
        <time>2019-10-12T16:28:50.923Z</time>
      </trkpt>
      <trkpt lat="20.23716167" lon="-98.74379">
        <ele>2001.0</ele>
        <time>2019-10-12T16:28:51.929Z</time>
      </trkpt>
      <trkpt lat="20.237165" lon="-98.74379333">
        <ele>2000.0</ele>
        <time>2019-10-12T16:28:52.934Z</time>
      </trkpt>
      <trkpt lat="20.237165" lon="-98.74379833">
        <ele>2000.0</ele>
        <time>2019-10-12T16:28:53.939Z</time>
      </trkpt>
      <trkpt lat="20.23716167" lon="-98.743805">
        <ele>2000.0</ele>
        <time>2019-10-12T16:28:54.939Z</time>
      </trkpt>
      <trkpt lat="20.23715667" lon="-98.74380833">
        <ele>2000.0</ele>
        <time>2019-10-12T16:28:55.940Z</time>
      </trkpt>
      <trkpt lat="20.23714833" lon="-98.74381167">
        <ele>2000.0</ele>
        <time>2019-10-12T16:28:56.941Z</time>
      </trkpt>
      <trkpt lat="20.23714167" lon="-98.74381833">
        <ele>2000.0</ele>
        <time>2019-10-12T16:28:57.942Z</time>
      </trkpt>
      <trkpt lat="20.23714" lon="-98.74382667">
        <ele>2000.0</ele>
        <time>2019-10-12T16:28:58.943Z</time>
      </trkpt>
      <trkpt lat="20.23713833" lon="-98.74383333">
        <ele>2001.0</ele>
        <time>2019-10-12T16:28:59.949Z</time>
      </trkpt>
      <trkpt lat="20.23714" lon="-98.74384167">
        <ele>2001.0</ele>
        <time>2019-10-12T16:29:00.954Z</time>
      </trkpt>
      <trkpt lat="20.23714" lon="-98.74384167">
        <ele>2000.0</ele>
        <time>2019-10-12T16:29:01.832Z</time>
      </trkpt>
      <trkpt lat="20.23713833" lon="-98.74383833">
        <ele>1999.0</ele>
        <time>2019-10-12T16:29:02.839Z</time>
      </trkpt>
      <trkpt lat="20.237135" lon="-98.74383833">
        <ele>1999.0</ele>
        <time>2019-10-12T16:29:03.842Z</time>
      </trkpt>
      <trkpt lat="20.23713167" lon="-98.743845">
        <ele>1999.0</ele>
        <time>2019-10-12T16:29:04.846Z</time>
      </trkpt>
      <trkpt lat="20.23713" lon="-98.74385">
        <ele>2000.0</ele>
        <time>2019-10-12T16:29:05.854Z</time>
      </trkpt>
      <trkpt lat="20.237125" lon="-98.74385333">
        <ele>2000.0</ele>
        <time>2019-10-12T16:29:06.857Z</time>
      </trkpt>
      <trkpt lat="20.23711833" lon="-98.74386">
        <ele>2000.0</ele>
        <time>2019-10-12T16:29:07.861Z</time>
      </trkpt>
      <trkpt lat="20.23711167" lon="-98.74386167">
        <ele>1999.0</ele>
        <time>2019-10-12T16:29:08.864Z</time>
      </trkpt>
      <trkpt lat="20.23710667" lon="-98.74386167">
        <ele>1999.0</ele>
        <time>2019-10-12T16:29:09.872Z</time>
      </trkpt>
      <trkpt lat="20.237105" lon="-98.74386333">
        <ele>1999.0</ele>
        <time>2019-10-12T16:29:10.876Z</time>
      </trkpt>
      <trkpt lat="20.23710833" lon="-98.74387">
        <ele>1998.0</ele>
        <time>2019-10-12T16:29:11.883Z</time>
      </trkpt>
      <trkpt lat="20.23711167" lon="-98.74387667">
        <ele>1998.0</ele>
        <time>2019-10-12T16:29:12.888Z</time>
      </trkpt>
      <trkpt lat="20.23711167" lon="-98.74388333">
        <ele>1998.0</ele>
        <time>2019-10-12T16:29:13.892Z</time>
      </trkpt>
      <trkpt lat="20.23711167" lon="-98.74388833">
        <ele>1997.0</ele>
        <time>2019-10-12T16:29:14.893Z</time>
      </trkpt>
      <trkpt lat="20.23710667" lon="-98.743895">
        <ele>1997.0</ele>
        <time>2019-10-12T16:29:15.894Z</time>
      </trkpt>
      <trkpt lat="20.23710333" lon="-98.74390167">
        <ele>1996.0</ele>
        <time>2019-10-12T16:29:16.899Z</time>
      </trkpt>
      <trkpt lat="20.23710167" lon="-98.74390333">
        <ele>1995.0</ele>
        <time>2019-10-12T16:29:17.904Z</time>
      </trkpt>
      <trkpt lat="20.2371" lon="-98.74390667">
        <ele>1995.0</ele>
        <time>2019-10-12T16:29:18.908Z</time>
      </trkpt>
      <trkpt lat="20.2371" lon="-98.74390833">
        <ele>1994.0</ele>
        <time>2019-10-12T16:29:19.915Z</time>
      </trkpt>
      <trkpt lat="20.23709667" lon="-98.74390667">
        <ele>1994.0</ele>
        <time>2019-10-12T16:29:20.921Z</time>
      </trkpt>
      <trkpt lat="20.23709" lon="-98.74390833">
        <ele>1994.0</ele>
        <time>2019-10-12T16:29:21.924Z</time>
      </trkpt>
      <trkpt lat="20.237085" lon="-98.74390833">
        <ele>1994.0</ele>
        <time>2019-10-12T16:29:22.930Z</time>
      </trkpt>
      <trkpt lat="20.23708" lon="-98.74390833">
        <ele>1994.0</ele>
        <time>2019-10-12T16:29:23.931Z</time>
      </trkpt>
      <trkpt lat="20.23707667" lon="-98.74390667">
        <ele>1994.0</ele>
        <time>2019-10-12T16:29:24.931Z</time>
      </trkpt>
      <trkpt lat="20.23706833" lon="-98.743905">
        <ele>1993.0</ele>
        <time>2019-10-12T16:29:25.938Z</time>
      </trkpt>
      <trkpt lat="20.23706167" lon="-98.74389833">
        <ele>1993.0</ele>
        <time>2019-10-12T16:29:26.945Z</time>
      </trkpt>
      <trkpt lat="20.23705333" lon="-98.74389667">
        <ele>1993.0</ele>
        <time>2019-10-12T16:29:27.950Z</time>
      </trkpt>
      <trkpt lat="20.23704667" lon="-98.743895">
        <ele>1992.0</ele>
        <time>2019-10-12T16:29:28.952Z</time>
      </trkpt>
      <trkpt lat="20.23704333" lon="-98.74389333">
        <ele>1993.0</ele>
        <time>2019-10-12T16:29:29.832Z</time>
      </trkpt>
      <trkpt lat="20.23703833" lon="-98.74389167">
        <ele>1993.0</ele>
        <time>2019-10-12T16:29:30.837Z</time>
      </trkpt>
      <trkpt lat="20.23703667" lon="-98.74388833">
        <ele>1993.0</ele>
        <time>2019-10-12T16:29:31.843Z</time>
      </trkpt>
      <trkpt lat="20.237035" lon="-98.74388">
        <ele>1994.0</ele>
        <time>2019-10-12T16:29:32.844Z</time>
      </trkpt>
      <trkpt lat="20.23703333" lon="-98.74387333">
        <ele>1995.0</ele>
        <time>2019-10-12T16:29:33.845Z</time>
      </trkpt>
      <trkpt lat="20.23702833" lon="-98.74386667">
        <ele>1996.0</ele>
        <time>2019-10-12T16:29:34.846Z</time>
      </trkpt>
      <trkpt lat="20.23702667" lon="-98.74385667">
        <ele>1997.0</ele>
        <time>2019-10-12T16:29:35.847Z</time>
      </trkpt>
      <trkpt lat="20.23702667" lon="-98.74384833">
        <ele>1997.0</ele>
        <time>2019-10-12T16:29:36.847Z</time>
      </trkpt>
      <trkpt lat="20.23702" lon="-98.74384167">
        <ele>1997.0</ele>
        <time>2019-10-12T16:29:37.848Z</time>
      </trkpt>
      <trkpt lat="20.23702" lon="-98.74383333">
        <ele>1996.0</ele>
        <time>2019-10-12T16:29:38.849Z</time>
      </trkpt>
      <trkpt lat="20.23702167" lon="-98.74382667">
        <ele>1995.0</ele>
        <time>2019-10-12T16:29:39.853Z</time>
      </trkpt>
      <trkpt lat="20.23702167" lon="-98.74381833">
        <ele>1995.0</ele>
        <time>2019-10-12T16:29:40.860Z</time>
      </trkpt>
      <trkpt lat="20.237025" lon="-98.74380833">
        <ele>1994.0</ele>
        <time>2019-10-12T16:29:41.864Z</time>
      </trkpt>
      <trkpt lat="20.23702833" lon="-98.74380167">
        <ele>1994.0</ele>
        <time>2019-10-12T16:29:42.868Z</time>
      </trkpt>
      <trkpt lat="20.23702667" lon="-98.743795">
        <ele>1994.0</ele>
        <time>2019-10-12T16:29:43.874Z</time>
      </trkpt>
      <trkpt lat="20.23702333" lon="-98.74378667">
        <ele>1995.0</ele>
        <time>2019-10-12T16:29:44.880Z</time>
      </trkpt>
      <trkpt lat="20.23702167" lon="-98.743775">
        <ele>1996.0</ele>
        <time>2019-10-12T16:29:45.885Z</time>
      </trkpt>
      <trkpt lat="20.23701833" lon="-98.74376667">
        <ele>1996.0</ele>
        <time>2019-10-12T16:29:46.892Z</time>
      </trkpt>
      <trkpt lat="20.23701333" lon="-98.74376167">
        <ele>1996.0</ele>
        <time>2019-10-12T16:29:47.899Z</time>
      </trkpt>
      <trkpt lat="20.23701167" lon="-98.74375667">
        <ele>1996.0</ele>
        <time>2019-10-12T16:29:48.904Z</time>
      </trkpt>
      <trkpt lat="20.23701167" lon="-98.74375333">
        <ele>1996.0</ele>
        <time>2019-10-12T16:29:49.908Z</time>
      </trkpt>
      <trkpt lat="20.23700833" lon="-98.74374667">
        <ele>1996.0</ele>
        <time>2019-10-12T16:29:50.916Z</time>
      </trkpt>
      <trkpt lat="20.23701" lon="-98.74373833">
        <ele>1996.0</ele>
        <time>2019-10-12T16:29:51.922Z</time>
      </trkpt>
      <trkpt lat="20.23700833" lon="-98.74373333">
        <ele>1996.0</ele>
        <time>2019-10-12T16:29:52.922Z</time>
      </trkpt>
      <trkpt lat="20.23700667" lon="-98.74372833">
        <ele>1996.0</ele>
        <time>2019-10-12T16:29:53.923Z</time>
      </trkpt>
      <trkpt lat="20.237005" lon="-98.74372">
        <ele>1995.0</ele>
        <time>2019-10-12T16:29:54.924Z</time>
      </trkpt>
      <trkpt lat="20.23700333" lon="-98.74371">
        <ele>1996.0</ele>
        <time>2019-10-12T16:29:55.925Z</time>
      </trkpt>
      <trkpt lat="20.237005" lon="-98.74370167">
        <ele>1995.0</ele>
        <time>2019-10-12T16:29:56.926Z</time>
      </trkpt>
      <trkpt lat="20.237005" lon="-98.743695">
        <ele>1995.0</ele>
        <time>2019-10-12T16:29:57.926Z</time>
      </trkpt>
      <trkpt lat="20.23700667" lon="-98.74369167">
        <ele>1995.0</ele>
        <time>2019-10-12T16:29:58.927Z</time>
      </trkpt>
      <trkpt lat="20.23700667" lon="-98.74368667">
        <ele>1995.0</ele>
        <time>2019-10-12T16:29:59.928Z</time>
      </trkpt>
      <trkpt lat="20.23700833" lon="-98.74368167">
        <ele>1995.0</ele>
        <time>2019-10-12T16:30:00.929Z</time>
      </trkpt>
      <trkpt lat="20.23700667" lon="-98.74367667">
        <ele>1995.0</ele>
        <time>2019-10-12T16:30:01.930Z</time>
      </trkpt>
      <trkpt lat="20.237005" lon="-98.74367167">
        <ele>1995.0</ele>
        <time>2019-10-12T16:30:02.930Z</time>
      </trkpt>
      <trkpt lat="20.23700333" lon="-98.743665">
        <ele>1995.0</ele>
        <time>2019-10-12T16:30:03.931Z</time>
      </trkpt>
      <trkpt lat="20.23700167" lon="-98.74366167">
        <ele>1995.0</ele>
        <time>2019-10-12T16:30:04.932Z</time>
      </trkpt>
      <trkpt lat="20.23699667" lon="-98.743655">
        <ele>1995.0</ele>
        <time>2019-10-12T16:30:05.933Z</time>
      </trkpt>
      <trkpt lat="20.23699" lon="-98.74364833">
        <ele>1995.0</ele>
        <time>2019-10-12T16:30:06.934Z</time>
      </trkpt>
      <trkpt lat="20.236985" lon="-98.74364333">
        <ele>1996.0</ele>
        <time>2019-10-12T16:30:07.934Z</time>
      </trkpt>
      <trkpt lat="20.236985" lon="-98.743635">
        <ele>1995.0</ele>
        <time>2019-10-12T16:30:08.935Z</time>
      </trkpt>
      <trkpt lat="20.23698167" lon="-98.74362667">
        <ele>1995.0</ele>
        <time>2019-10-12T16:30:09.936Z</time>
      </trkpt>
      <trkpt lat="20.23698333" lon="-98.74362">
        <ele>1995.0</ele>
        <time>2019-10-12T16:30:10.937Z</time>
      </trkpt>
      <trkpt lat="20.23698333" lon="-98.74361667">
        <ele>1995.0</ele>
        <time>2019-10-12T16:30:11.938Z</time>
      </trkpt>
      <trkpt lat="20.23698333" lon="-98.74361333">
        <ele>1995.0</ele>
        <time>2019-10-12T16:30:12.943Z</time>
      </trkpt>
      <trkpt lat="20.23698167" lon="-98.74361">
        <ele>1995.0</ele>
        <time>2019-10-12T16:30:13.950Z</time>
      </trkpt>
      <trkpt lat="20.23698" lon="-98.74361">
        <ele>1996.0</ele>
        <time>2019-10-12T16:30:14.954Z</time>
      </trkpt>
      <trkpt lat="20.23697833" lon="-98.74361333">
        <ele>1995.0</ele>
        <time>2019-10-12T16:30:15.833Z</time>
      </trkpt>
      <trkpt lat="20.23697667" lon="-98.74361333">
        <ele>1996.0</ele>
        <time>2019-10-12T16:30:16.838Z</time>
      </trkpt>
      <trkpt lat="20.23697667" lon="-98.74361333">
        <ele>1996.0</ele>
        <time>2019-10-12T16:30:17.843Z</time>
      </trkpt>
      <trkpt lat="20.23696333" lon="-98.743605">
        <ele>1996.0</ele>
        <time>2019-10-12T16:30:18.851Z</time>
      </trkpt>
      <trkpt lat="20.23696" lon="-98.74360167">
        <ele>1996.0</ele>
        <time>2019-10-12T16:30:19.858Z</time>
      </trkpt>
      <trkpt lat="20.23695833" lon="-98.74359833">
        <ele>1996.0</ele>
        <time>2019-10-12T16:30:20.863Z</time>
      </trkpt>
      <trkpt lat="20.236955" lon="-98.743595">
        <ele>1996.0</ele>
        <time>2019-10-12T16:30:21.871Z</time>
      </trkpt>
      <trkpt lat="20.23695167" lon="-98.74359667">
        <ele>1994.0</ele>
        <time>2019-10-12T16:30:22.878Z</time>
      </trkpt>
      <trkpt lat="20.236945" lon="-98.74359167">
        <ele>1993.0</ele>
        <time>2019-10-12T16:30:23.882Z</time>
      </trkpt>
      <trkpt lat="20.23694" lon="-98.74359">
        <ele>1992.0</ele>
        <time>2019-10-12T16:30:24.885Z</time>
      </trkpt>
      <trkpt lat="20.236935" lon="-98.743585">
        <ele>1991.0</ele>
        <time>2019-10-12T16:30:25.885Z</time>
      </trkpt>
      <trkpt lat="20.236935" lon="-98.74358">
        <ele>1991.0</ele>
        <time>2019-10-12T16:30:26.886Z</time>
      </trkpt>
      <trkpt lat="20.23693" lon="-98.743575">
        <ele>1991.0</ele>
        <time>2019-10-12T16:30:27.887Z</time>
      </trkpt>
      <trkpt lat="20.23692667" lon="-98.74357">
        <ele>1991.0</ele>
        <time>2019-10-12T16:30:28.888Z</time>
      </trkpt>
      <trkpt lat="20.23692333" lon="-98.74356333">
        <ele>1991.0</ele>
        <time>2019-10-12T16:30:29.891Z</time>
      </trkpt>
      <trkpt lat="20.23692" lon="-98.74356167">
        <ele>1991.0</ele>
        <time>2019-10-12T16:30:30.899Z</time>
      </trkpt>
      <trkpt lat="20.23692" lon="-98.74355833">
        <ele>1992.0</ele>
        <time>2019-10-12T16:30:31.907Z</time>
      </trkpt>
      <trkpt lat="20.23691833" lon="-98.74355833">
        <ele>1992.0</ele>
        <time>2019-10-12T16:30:32.914Z</time>
      </trkpt>
      <trkpt lat="20.23691667" lon="-98.743555">
        <ele>1992.0</ele>
        <time>2019-10-12T16:30:33.919Z</time>
      </trkpt>
      <trkpt lat="20.23691333" lon="-98.74355167">
        <ele>1992.0</ele>
        <time>2019-10-12T16:30:34.923Z</time>
      </trkpt>
      <trkpt lat="20.23690833" lon="-98.74354833">
        <ele>1992.0</ele>
        <time>2019-10-12T16:30:35.930Z</time>
      </trkpt>
      <trkpt lat="20.23690167" lon="-98.74354">
        <ele>1992.0</ele>
        <time>2019-10-12T16:30:36.937Z</time>
      </trkpt>
      <trkpt lat="20.23689833" lon="-98.74353333">
        <ele>1992.0</ele>
        <time>2019-10-12T16:30:37.944Z</time>
      </trkpt>
      <trkpt lat="20.23689667" lon="-98.74352667">
        <ele>1992.0</ele>
        <time>2019-10-12T16:30:38.948Z</time>
      </trkpt>
      <trkpt lat="20.23689333" lon="-98.74351833">
        <ele>1992.0</ele>
        <time>2019-10-12T16:30:39.953Z</time>
      </trkpt>
      <trkpt lat="20.23689" lon="-98.74350833">
        <ele>1992.0</ele>
        <time>2019-10-12T16:30:40.834Z</time>
      </trkpt>
      <trkpt lat="20.23688667" lon="-98.74349833">
        <ele>1992.0</ele>
        <time>2019-10-12T16:30:41.836Z</time>
      </trkpt>
      <trkpt lat="20.23688333" lon="-98.74348667">
        <ele>1992.0</ele>
        <time>2019-10-12T16:30:42.837Z</time>
      </trkpt>
      <trkpt lat="20.23687667" lon="-98.74347667">
        <ele>1993.0</ele>
        <time>2019-10-12T16:30:43.838Z</time>
      </trkpt>
      <trkpt lat="20.23687167" lon="-98.74347167">
        <ele>1993.0</ele>
        <time>2019-10-12T16:30:44.838Z</time>
      </trkpt>
      <trkpt lat="20.23686667" lon="-98.74346833">
        <ele>1993.0</ele>
        <time>2019-10-12T16:30:45.839Z</time>
      </trkpt>
      <trkpt lat="20.23687" lon="-98.74347">
        <ele>1994.0</ele>
        <time>2019-10-12T16:30:46.840Z</time>
      </trkpt>
      <trkpt lat="20.23686833" lon="-98.74347667">
        <ele>1994.0</ele>
        <time>2019-10-12T16:30:47.840Z</time>
      </trkpt>
      <trkpt lat="20.23686833" lon="-98.74348167">
        <ele>1994.0</ele>
        <time>2019-10-12T16:30:48.841Z</time>
      </trkpt>
      <trkpt lat="20.23686333" lon="-98.74348667">
        <ele>1994.0</ele>
        <time>2019-10-12T16:30:49.842Z</time>
      </trkpt>
      <trkpt lat="20.23685833" lon="-98.743495">
        <ele>1994.0</ele>
        <time>2019-10-12T16:30:50.843Z</time>
      </trkpt>
      <trkpt lat="20.23685333" lon="-98.7435">
        <ele>1993.0</ele>
        <time>2019-10-12T16:30:51.844Z</time>
      </trkpt>
      <trkpt lat="20.23685" lon="-98.743505">
        <ele>1993.0</ele>
        <time>2019-10-12T16:30:52.851Z</time>
      </trkpt>
      <trkpt lat="20.236845" lon="-98.74351">
        <ele>1993.0</ele>
        <time>2019-10-12T16:30:53.858Z</time>
      </trkpt>
      <trkpt lat="20.23684167" lon="-98.743515">
        <ele>1993.0</ele>
        <time>2019-10-12T16:30:54.862Z</time>
      </trkpt>
      <trkpt lat="20.23683833" lon="-98.74352333">
        <ele>1993.0</ele>
        <time>2019-10-12T16:30:55.868Z</time>
      </trkpt>
      <trkpt lat="20.236835" lon="-98.74353">
        <ele>1993.0</ele>
        <time>2019-10-12T16:30:56.871Z</time>
      </trkpt>
      <trkpt lat="20.23683333" lon="-98.74353833">
        <ele>1993.0</ele>
        <time>2019-10-12T16:30:57.875Z</time>
      </trkpt>
      <trkpt lat="20.23683167" lon="-98.74354333">
        <ele>1993.0</ele>
        <time>2019-10-12T16:30:58.878Z</time>
      </trkpt>
      <trkpt lat="20.23682333" lon="-98.74354333">
        <ele>1993.0</ele>
        <time>2019-10-12T16:30:59.880Z</time>
      </trkpt>
      <trkpt lat="20.236825" lon="-98.74354333">
        <ele>1993.0</ele>
        <time>2019-10-12T16:31:00.886Z</time>
      </trkpt>
      <trkpt lat="20.23682167" lon="-98.74354333">
        <ele>1992.0</ele>
        <time>2019-10-12T16:31:01.891Z</time>
      </trkpt>
      <trkpt lat="20.23682" lon="-98.743545">
        <ele>1992.0</ele>
        <time>2019-10-12T16:31:02.895Z</time>
      </trkpt>
      <trkpt lat="20.23681667" lon="-98.74355167">
        <ele>1991.0</ele>
        <time>2019-10-12T16:31:03.902Z</time>
      </trkpt>
      <trkpt lat="20.23681167" lon="-98.743565">
        <ele>1990.0</ele>
        <time>2019-10-12T16:31:04.909Z</time>
      </trkpt>
      <trkpt lat="20.23680667" lon="-98.74357667">
        <ele>1990.0</ele>
        <time>2019-10-12T16:31:05.916Z</time>
      </trkpt>
      <trkpt lat="20.23680667" lon="-98.74358167">
        <ele>1989.0</ele>
        <time>2019-10-12T16:31:06.918Z</time>
      </trkpt>
      <trkpt lat="20.23681333" lon="-98.74358167">
        <ele>1989.0</ele>
        <time>2019-10-12T16:31:07.919Z</time>
      </trkpt>
      <trkpt lat="20.23682" lon="-98.74358">
        <ele>1988.0</ele>
        <time>2019-10-12T16:31:08.926Z</time>
      </trkpt>
      <trkpt lat="20.23682667" lon="-98.74357833">
        <ele>1987.0</ele>
        <time>2019-10-12T16:31:09.929Z</time>
      </trkpt>
      <trkpt lat="20.23683" lon="-98.74358167">
        <ele>1986.0</ele>
        <time>2019-10-12T16:31:10.933Z</time>
      </trkpt>
      <trkpt lat="20.23682667" lon="-98.74359333">
        <ele>1985.0</ele>
        <time>2019-10-12T16:31:11.938Z</time>
      </trkpt>
      <trkpt lat="20.23682667" lon="-98.74360167">
        <ele>1985.0</ele>
        <time>2019-10-12T16:31:12.943Z</time>
      </trkpt>
      <trkpt lat="20.23682" lon="-98.74361">
        <ele>1985.0</ele>
        <time>2019-10-12T16:31:13.946Z</time>
      </trkpt>
      <trkpt lat="20.23681167" lon="-98.74361333">
        <ele>1985.0</ele>
        <time>2019-10-12T16:31:14.953Z</time>
      </trkpt>
      <trkpt lat="20.236805" lon="-98.743615">
        <ele>1985.0</ele>
        <time>2019-10-12T16:31:15.834Z</time>
      </trkpt>
      <trkpt lat="20.236805" lon="-98.743615">
        <ele>1984.0</ele>
        <time>2019-10-12T16:31:16.838Z</time>
      </trkpt>
      <trkpt lat="20.23680667" lon="-98.74361167">
        <ele>1984.0</ele>
        <time>2019-10-12T16:31:17.842Z</time>
      </trkpt>
      <trkpt lat="20.23680667" lon="-98.743615">
        <ele>1984.0</ele>
        <time>2019-10-12T16:31:18.848Z</time>
      </trkpt>
      <trkpt lat="20.23680833" lon="-98.74362">
        <ele>1984.0</ele>
        <time>2019-10-12T16:31:19.854Z</time>
      </trkpt>
      <trkpt lat="20.23681" lon="-98.743625">
        <ele>1984.0</ele>
        <time>2019-10-12T16:31:20.859Z</time>
      </trkpt>
      <trkpt lat="20.23681" lon="-98.74362667">
        <ele>1984.0</ele>
        <time>2019-10-12T16:31:21.864Z</time>
      </trkpt>
      <trkpt lat="20.236805" lon="-98.74362833">
        <ele>1984.0</ele>
        <time>2019-10-12T16:31:22.867Z</time>
      </trkpt>
      <trkpt lat="20.236805" lon="-98.74362833">
        <ele>1984.0</ele>
        <time>2019-10-12T16:31:23.871Z</time>
      </trkpt>
      <trkpt lat="20.236805" lon="-98.74362833">
        <ele>1984.0</ele>
        <time>2019-10-12T16:31:24.879Z</time>
      </trkpt>
      <trkpt lat="20.236805" lon="-98.74362833">
        <ele>1984.0</ele>
        <time>2019-10-12T16:31:25.883Z</time>
      </trkpt>
      <trkpt lat="20.236805" lon="-98.74362833">
        <ele>1984.0</ele>
        <time>2019-10-12T16:31:26.886Z</time>
      </trkpt>
      <trkpt lat="20.236805" lon="-98.74362833">
        <ele>1984.0</ele>
        <time>2019-10-12T16:31:27.890Z</time>
      </trkpt>
      <trkpt lat="20.236805" lon="-98.74362833">
        <ele>1984.0</ele>
        <time>2019-10-12T16:31:28.897Z</time>
      </trkpt>
      <trkpt lat="20.236805" lon="-98.74362833">
        <ele>1984.0</ele>
        <time>2019-10-12T16:31:29.905Z</time>
      </trkpt>
      <trkpt lat="20.23680167" lon="-98.74362833">
        <ele>1984.0</ele>
        <time>2019-10-12T16:31:30.911Z</time>
      </trkpt>
      <trkpt lat="20.23679667" lon="-98.74362667">
        <ele>1985.0</ele>
        <time>2019-10-12T16:31:31.918Z</time>
      </trkpt>
      <trkpt lat="20.23678833" lon="-98.74362333">
        <ele>1985.0</ele>
        <time>2019-10-12T16:31:32.923Z</time>
      </trkpt>
      <trkpt lat="20.23677667" lon="-98.74362333">
        <ele>1985.0</ele>
        <time>2019-10-12T16:31:33.928Z</time>
      </trkpt>
      <trkpt lat="20.23676833" lon="-98.74362667">
        <ele>1984.0</ele>
        <time>2019-10-12T16:31:34.931Z</time>
      </trkpt>
      <trkpt lat="20.23676333" lon="-98.743625">
        <ele>1984.0</ele>
        <time>2019-10-12T16:31:35.937Z</time>
      </trkpt>
      <trkpt lat="20.236755" lon="-98.74362333">
        <ele>1983.0</ele>
        <time>2019-10-12T16:31:36.941Z</time>
      </trkpt>
      <trkpt lat="20.236745" lon="-98.74362833">
        <ele>1983.0</ele>
        <time>2019-10-12T16:31:37.942Z</time>
      </trkpt>
      <trkpt lat="20.23673833" lon="-98.74363">
        <ele>1983.0</ele>
        <time>2019-10-12T16:31:38.943Z</time>
      </trkpt>
      <trkpt lat="20.236735" lon="-98.74363167">
        <ele>1982.0</ele>
        <time>2019-10-12T16:31:39.944Z</time>
      </trkpt>
      <trkpt lat="20.23673667" lon="-98.74363167">
        <ele>1981.0</ele>
        <time>2019-10-12T16:31:40.944Z</time>
      </trkpt>
      <trkpt lat="20.23673667" lon="-98.74363167">
        <ele>1980.0</ele>
        <time>2019-10-12T16:31:41.945Z</time>
      </trkpt>
      <trkpt lat="20.23673833" lon="-98.74362667">
        <ele>1979.0</ele>
        <time>2019-10-12T16:31:42.946Z</time>
      </trkpt>
      <trkpt lat="20.23674" lon="-98.74361833">
        <ele>1978.0</ele>
        <time>2019-10-12T16:31:43.947Z</time>
      </trkpt>
      <trkpt lat="20.23674" lon="-98.74361167">
        <ele>1977.0</ele>
        <time>2019-10-12T16:31:44.948Z</time>
      </trkpt>
      <trkpt lat="20.23674" lon="-98.74360833">
        <ele>1977.0</ele>
        <time>2019-10-12T16:31:45.949Z</time>
      </trkpt>
      <trkpt lat="20.23674" lon="-98.74360667">
        <ele>1977.0</ele>
        <time>2019-10-12T16:31:46.949Z</time>
      </trkpt>
      <trkpt lat="20.23673667" lon="-98.74360167">
        <ele>1977.0</ele>
        <time>2019-10-12T16:31:47.953Z</time>
      </trkpt>
      <trkpt lat="20.23673333" lon="-98.7436">
        <ele>1977.0</ele>
        <time>2019-10-12T16:31:48.835Z</time>
      </trkpt>
      <trkpt lat="20.23673833" lon="-98.74359667">
        <ele>1977.0</ele>
        <time>2019-10-12T16:31:49.838Z</time>
      </trkpt>
      <trkpt lat="20.23674" lon="-98.74359333">
        <ele>1977.0</ele>
        <time>2019-10-12T16:31:50.840Z</time>
      </trkpt>
      <trkpt lat="20.23674" lon="-98.74359167">
        <ele>1977.0</ele>
        <time>2019-10-12T16:31:51.846Z</time>
      </trkpt>
      <trkpt lat="20.23673833" lon="-98.74358833">
        <ele>1976.0</ele>
        <time>2019-10-12T16:31:52.852Z</time>
      </trkpt>
      <trkpt lat="20.23673167" lon="-98.74358333">
        <ele>1976.0</ele>
        <time>2019-10-12T16:31:53.858Z</time>
      </trkpt>
      <trkpt lat="20.23672333" lon="-98.74357833">
        <ele>1976.0</ele>
        <time>2019-10-12T16:31:54.861Z</time>
      </trkpt>
      <trkpt lat="20.23671833" lon="-98.74357167">
        <ele>1975.0</ele>
        <time>2019-10-12T16:31:55.862Z</time>
      </trkpt>
      <trkpt lat="20.23671667" lon="-98.743565">
        <ele>1975.0</ele>
        <time>2019-10-12T16:31:56.866Z</time>
      </trkpt>
      <trkpt lat="20.23671167" lon="-98.74356167">
        <ele>1975.0</ele>
        <time>2019-10-12T16:31:57.868Z</time>
      </trkpt>
      <trkpt lat="20.236705" lon="-98.74355333">
        <ele>1975.0</ele>
        <time>2019-10-12T16:31:58.874Z</time>
      </trkpt>
      <trkpt lat="20.23669667" lon="-98.74354833">
        <ele>1975.0</ele>
        <time>2019-10-12T16:31:59.880Z</time>
      </trkpt>
      <trkpt lat="20.23669167" lon="-98.74353833">
        <ele>1975.0</ele>
        <time>2019-10-12T16:32:00.881Z</time>
      </trkpt>
      <trkpt lat="20.23668833" lon="-98.743525">
        <ele>1976.0</ele>
        <time>2019-10-12T16:32:01.884Z</time>
      </trkpt>
      <trkpt lat="20.23668833" lon="-98.74351333">
        <ele>1976.0</ele>
        <time>2019-10-12T16:32:02.890Z</time>
      </trkpt>
      <trkpt lat="20.23668833" lon="-98.74350667">
        <ele>1977.0</ele>
        <time>2019-10-12T16:32:03.894Z</time>
      </trkpt>
      <trkpt lat="20.23668667" lon="-98.74349667">
        <ele>1978.0</ele>
        <time>2019-10-12T16:32:04.898Z</time>
      </trkpt>
      <trkpt lat="20.23668833" lon="-98.74348333">
        <ele>1980.0</ele>
        <time>2019-10-12T16:32:05.900Z</time>
      </trkpt>
      <trkpt lat="20.23668" lon="-98.74347333">
        <ele>1980.0</ele>
        <time>2019-10-12T16:32:06.906Z</time>
      </trkpt>
      <trkpt lat="20.23667167" lon="-98.74346667">
        <ele>1981.0</ele>
        <time>2019-10-12T16:32:07.910Z</time>
      </trkpt>
      <trkpt lat="20.236665" lon="-98.74346167">
        <ele>1981.0</ele>
        <time>2019-10-12T16:32:08.915Z</time>
      </trkpt>
      <trkpt lat="20.23665833" lon="-98.74345333">
        <ele>1982.0</ele>
        <time>2019-10-12T16:32:09.917Z</time>
      </trkpt>
      <trkpt lat="20.23664833" lon="-98.74344833">
        <ele>1982.0</ele>
        <time>2019-10-12T16:32:10.921Z</time>
      </trkpt>
      <trkpt lat="20.23664167" lon="-98.74344167">
        <ele>1982.0</ele>
        <time>2019-10-12T16:32:11.922Z</time>
      </trkpt>
      <trkpt lat="20.236635" lon="-98.74342833">
        <ele>1983.0</ele>
        <time>2019-10-12T16:32:12.927Z</time>
      </trkpt>
      <trkpt lat="20.23662667" lon="-98.74341667">
        <ele>1983.0</ele>
        <time>2019-10-12T16:32:13.933Z</time>
      </trkpt>
      <trkpt lat="20.23662167" lon="-98.74341">
        <ele>1983.0</ele>
        <time>2019-10-12T16:32:14.938Z</time>
      </trkpt>
      <trkpt lat="20.23661667" lon="-98.74340167">
        <ele>1984.0</ele>
        <time>2019-10-12T16:32:15.942Z</time>
      </trkpt>
      <trkpt lat="20.23661333" lon="-98.74339">
        <ele>1984.0</ele>
        <time>2019-10-12T16:32:16.945Z</time>
      </trkpt>
      <trkpt lat="20.23661" lon="-98.74337667">
        <ele>1985.0</ele>
        <time>2019-10-12T16:32:17.952Z</time>
      </trkpt>
      <trkpt lat="20.236605" lon="-98.74336333">
        <ele>1985.0</ele>
        <time>2019-10-12T16:32:18.834Z</time>
      </trkpt>
      <trkpt lat="20.23660333" lon="-98.743355">
        <ele>1985.0</ele>
        <time>2019-10-12T16:32:19.839Z</time>
      </trkpt>
      <trkpt lat="20.2366" lon="-98.743345">
        <ele>1986.0</ele>
        <time>2019-10-12T16:32:20.839Z</time>
      </trkpt>
      <trkpt lat="20.23659667" lon="-98.743335">
        <ele>1986.0</ele>
        <time>2019-10-12T16:32:21.839Z</time>
      </trkpt>
      <trkpt lat="20.23659333" lon="-98.743325">
        <ele>1987.0</ele>
        <time>2019-10-12T16:32:22.843Z</time>
      </trkpt>
      <trkpt lat="20.23659333" lon="-98.74331333">
        <ele>1988.0</ele>
        <time>2019-10-12T16:32:23.850Z</time>
      </trkpt>
      <trkpt lat="20.23659167" lon="-98.7433">
        <ele>1989.0</ele>
        <time>2019-10-12T16:32:24.856Z</time>
      </trkpt>
      <trkpt lat="20.23658333" lon="-98.74329167">
        <ele>1989.0</ele>
        <time>2019-10-12T16:32:25.862Z</time>
      </trkpt>
      <trkpt lat="20.23658" lon="-98.74329">
        <ele>1989.0</ele>
        <time>2019-10-12T16:32:26.863Z</time>
      </trkpt>
      <trkpt lat="20.23657667" lon="-98.74328667">
        <ele>1989.0</ele>
        <time>2019-10-12T16:32:27.865Z</time>
      </trkpt>
      <trkpt lat="20.23658" lon="-98.74328333">
        <ele>1990.0</ele>
        <time>2019-10-12T16:32:28.868Z</time>
      </trkpt>
      <trkpt lat="20.23658" lon="-98.74328">
        <ele>1990.0</ele>
        <time>2019-10-12T16:32:29.875Z</time>
      </trkpt>
      <trkpt lat="20.23657833" lon="-98.74327833">
        <ele>1990.0</ele>
        <time>2019-10-12T16:32:30.882Z</time>
      </trkpt>
      <trkpt lat="20.236575" lon="-98.74327833">
        <ele>1990.0</ele>
        <time>2019-10-12T16:32:31.889Z</time>
      </trkpt>
      <trkpt lat="20.23657167" lon="-98.74327833">
        <ele>1990.0</ele>
        <time>2019-10-12T16:32:32.895Z</time>
      </trkpt>
      <trkpt lat="20.23656833" lon="-98.74328">
        <ele>1989.0</ele>
        <time>2019-10-12T16:32:33.901Z</time>
      </trkpt>
      <trkpt lat="20.23656" lon="-98.743285">
        <ele>1988.0</ele>
        <time>2019-10-12T16:32:34.906Z</time>
      </trkpt>
      <trkpt lat="20.23655167" lon="-98.74329">
        <ele>1988.0</ele>
        <time>2019-10-12T16:32:35.911Z</time>
      </trkpt>
      <trkpt lat="20.236545" lon="-98.74329167">
        <ele>1987.0</ele>
        <time>2019-10-12T16:32:36.912Z</time>
      </trkpt>
      <trkpt lat="20.23654167" lon="-98.74329">
        <ele>1987.0</ele>
        <time>2019-10-12T16:32:37.912Z</time>
      </trkpt>
      <trkpt lat="20.23653833" lon="-98.74329167">
        <ele>1987.0</ele>
        <time>2019-10-12T16:32:38.913Z</time>
      </trkpt>
      <trkpt lat="20.23654" lon="-98.74329333">
        <ele>1987.0</ele>
        <time>2019-10-12T16:32:39.914Z</time>
      </trkpt>
      <trkpt lat="20.23654" lon="-98.743295">
        <ele>1986.0</ele>
        <time>2019-10-12T16:32:40.915Z</time>
      </trkpt>
      <trkpt lat="20.23653833" lon="-98.743295">
        <ele>1986.0</ele>
        <time>2019-10-12T16:32:41.916Z</time>
      </trkpt>
      <trkpt lat="20.23653667" lon="-98.74329833">
        <ele>1986.0</ele>
        <time>2019-10-12T16:32:42.917Z</time>
      </trkpt>
      <trkpt lat="20.23653667" lon="-98.743295">
        <ele>1986.0</ele>
        <time>2019-10-12T16:32:43.917Z</time>
      </trkpt>
      <trkpt lat="20.23653833" lon="-98.74328833">
        <ele>1986.0</ele>
        <time>2019-10-12T16:32:44.918Z</time>
      </trkpt>
      <trkpt lat="20.23654" lon="-98.743285">
        <ele>1986.0</ele>
        <time>2019-10-12T16:32:45.919Z</time>
      </trkpt>
      <trkpt lat="20.23654" lon="-98.74328167">
        <ele>1986.0</ele>
        <time>2019-10-12T16:32:46.920Z</time>
      </trkpt>
      <trkpt lat="20.23653833" lon="-98.74328">
        <ele>1985.0</ele>
        <time>2019-10-12T16:32:47.921Z</time>
      </trkpt>
      <trkpt lat="20.23654167" lon="-98.74327333">
        <ele>1986.0</ele>
        <time>2019-10-12T16:32:48.921Z</time>
      </trkpt>
      <trkpt lat="20.23654333" lon="-98.74326667">
        <ele>1986.0</ele>
        <time>2019-10-12T16:32:49.922Z</time>
      </trkpt>
      <trkpt lat="20.23654667" lon="-98.74326167">
        <ele>1986.0</ele>
        <time>2019-10-12T16:32:50.922Z</time>
      </trkpt>
      <trkpt lat="20.236555" lon="-98.74325833">
        <ele>1986.0</ele>
        <time>2019-10-12T16:32:51.923Z</time>
      </trkpt>
      <trkpt lat="20.23656" lon="-98.74325167">
        <ele>1987.0</ele>
        <time>2019-10-12T16:32:52.924Z</time>
      </trkpt>
      <trkpt lat="20.23656667" lon="-98.74324333">
        <ele>1987.0</ele>
        <time>2019-10-12T16:32:53.924Z</time>
      </trkpt>
      <trkpt lat="20.23657333" lon="-98.743235">
        <ele>1987.0</ele>
        <time>2019-10-12T16:32:54.925Z</time>
      </trkpt>
      <trkpt lat="20.236575" lon="-98.743225">
        <ele>1987.0</ele>
        <time>2019-10-12T16:32:55.926Z</time>
      </trkpt>
      <trkpt lat="20.23657333" lon="-98.743215">
        <ele>1986.0</ele>
        <time>2019-10-12T16:32:56.927Z</time>
      </trkpt>
      <trkpt lat="20.23657" lon="-98.74321">
        <ele>1985.0</ele>
        <time>2019-10-12T16:32:57.928Z</time>
      </trkpt>
      <trkpt lat="20.23656667" lon="-98.74320333">
        <ele>1985.0</ele>
        <time>2019-10-12T16:32:58.928Z</time>
      </trkpt>
      <trkpt lat="20.236565" lon="-98.74319833">
        <ele>1985.0</ele>
        <time>2019-10-12T16:32:59.928Z</time>
      </trkpt>
      <trkpt lat="20.236565" lon="-98.743195">
        <ele>1985.0</ele>
        <time>2019-10-12T16:33:00.929Z</time>
      </trkpt>
      <trkpt lat="20.23656" lon="-98.74319333">
        <ele>1985.0</ele>
        <time>2019-10-12T16:33:01.931Z</time>
      </trkpt>
      <trkpt lat="20.23655667" lon="-98.74319167">
        <ele>1984.0</ele>
        <time>2019-10-12T16:33:02.936Z</time>
      </trkpt>
      <trkpt lat="20.23655333" lon="-98.74319167">
        <ele>1984.0</ele>
        <time>2019-10-12T16:33:03.940Z</time>
      </trkpt>
      <trkpt lat="20.23654333" lon="-98.74319">
        <ele>1983.0</ele>
        <time>2019-10-12T16:33:04.945Z</time>
      </trkpt>
      <trkpt lat="20.23652333" lon="-98.74318333">
        <ele>1982.0</ele>
        <time>2019-10-12T16:33:05.948Z</time>
      </trkpt>
      <trkpt lat="20.23650833" lon="-98.74318">
        <ele>1980.0</ele>
        <time>2019-10-12T16:33:06.953Z</time>
      </trkpt>
      <trkpt lat="20.23650667" lon="-98.74317333">
        <ele>1980.0</ele>
        <time>2019-10-12T16:33:07.834Z</time>
      </trkpt>
      <trkpt lat="20.23650333" lon="-98.743165">
        <ele>1979.0</ele>
        <time>2019-10-12T16:33:08.841Z</time>
      </trkpt>
      <trkpt lat="20.2365" lon="-98.74315833">
        <ele>1979.0</ele>
        <time>2019-10-12T16:33:09.848Z</time>
      </trkpt>
      <trkpt lat="20.23649667" lon="-98.74315">
        <ele>1979.0</ele>
        <time>2019-10-12T16:33:10.849Z</time>
      </trkpt>
      <trkpt lat="20.236495" lon="-98.74314333">
        <ele>1979.0</ele>
        <time>2019-10-12T16:33:11.853Z</time>
      </trkpt>
      <trkpt lat="20.23649667" lon="-98.74313167">
        <ele>1979.0</ele>
        <time>2019-10-12T16:33:12.858Z</time>
      </trkpt>
      <trkpt lat="20.23649833" lon="-98.74312333">
        <ele>1979.0</ele>
        <time>2019-10-12T16:33:13.866Z</time>
      </trkpt>
      <trkpt lat="20.23649833" lon="-98.74311667">
        <ele>1980.0</ele>
        <time>2019-10-12T16:33:14.870Z</time>
      </trkpt>
      <trkpt lat="20.2365" lon="-98.74310167">
        <ele>1981.0</ele>
        <time>2019-10-12T16:33:15.876Z</time>
      </trkpt>
      <trkpt lat="20.2365" lon="-98.74309333">
        <ele>1982.0</ele>
        <time>2019-10-12T16:33:16.877Z</time>
      </trkpt>
      <trkpt lat="20.23649833" lon="-98.74308667">
        <ele>1982.0</ele>
        <time>2019-10-12T16:33:17.877Z</time>
      </trkpt>
      <trkpt lat="20.23650333" lon="-98.74307833">
        <ele>1983.0</ele>
        <time>2019-10-12T16:33:18.878Z</time>
      </trkpt>
      <trkpt lat="20.23650833" lon="-98.74306833">
        <ele>1984.0</ele>
        <time>2019-10-12T16:33:19.879Z</time>
      </trkpt>
      <trkpt lat="20.23651" lon="-98.74305833">
        <ele>1984.0</ele>
        <time>2019-10-12T16:33:20.880Z</time>
      </trkpt>
      <trkpt lat="20.23650833" lon="-98.74304833">
        <ele>1984.0</ele>
        <time>2019-10-12T16:33:21.883Z</time>
      </trkpt>
      <trkpt lat="20.23651167" lon="-98.74304">
        <ele>1984.0</ele>
        <time>2019-10-12T16:33:22.891Z</time>
      </trkpt>
      <trkpt lat="20.23651333" lon="-98.74303">
        <ele>1984.0</ele>
        <time>2019-10-12T16:33:23.897Z</time>
      </trkpt>
      <trkpt lat="20.23651333" lon="-98.74302">
        <ele>1985.0</ele>
        <time>2019-10-12T16:33:24.901Z</time>
      </trkpt>
      <trkpt lat="20.23651833" lon="-98.74301333">
        <ele>1985.0</ele>
        <time>2019-10-12T16:33:25.907Z</time>
      </trkpt>
      <trkpt lat="20.23651667" lon="-98.743005">
        <ele>1986.0</ele>
        <time>2019-10-12T16:33:26.910Z</time>
      </trkpt>
      <trkpt lat="20.236515" lon="-98.743">
        <ele>1987.0</ele>
        <time>2019-10-12T16:33:27.917Z</time>
      </trkpt>
      <trkpt lat="20.23651333" lon="-98.74299833">
        <ele>1987.0</ele>
        <time>2019-10-12T16:33:28.923Z</time>
      </trkpt>
      <trkpt lat="20.236515" lon="-98.742995">
        <ele>1988.0</ele>
        <time>2019-10-12T16:33:29.929Z</time>
      </trkpt>
      <trkpt lat="20.23651333" lon="-98.74299">
        <ele>1988.0</ele>
        <time>2019-10-12T16:33:30.936Z</time>
      </trkpt>
      <trkpt lat="20.23651333" lon="-98.74298333">
        <ele>1988.0</ele>
        <time>2019-10-12T16:33:31.941Z</time>
      </trkpt>
      <trkpt lat="20.23651333" lon="-98.742975">
        <ele>1988.0</ele>
        <time>2019-10-12T16:33:32.947Z</time>
      </trkpt>
      <trkpt lat="20.23651333" lon="-98.74296333">
        <ele>1988.0</ele>
        <time>2019-10-12T16:33:33.952Z</time>
      </trkpt>
      <trkpt lat="20.23651333" lon="-98.74295">
        <ele>1989.0</ele>
        <time>2019-10-12T16:33:34.953Z</time>
      </trkpt>
      <trkpt lat="20.23651" lon="-98.74293833">
        <ele>1989.0</ele>
        <time>2019-10-12T16:33:35.954Z</time>
      </trkpt>
      <trkpt lat="20.23650833" lon="-98.742925">
        <ele>1990.0</ele>
        <time>2019-10-12T16:33:36.954Z</time>
      </trkpt>
      <trkpt lat="20.23650667" lon="-98.74291167">
        <ele>1990.0</ele>
        <time>2019-10-12T16:33:37.830Z</time>
      </trkpt>
      <trkpt lat="20.23650333" lon="-98.74289833">
        <ele>1990.0</ele>
        <time>2019-10-12T16:33:38.831Z</time>
      </trkpt>
      <trkpt lat="20.23649833" lon="-98.74288833">
        <ele>1990.0</ele>
        <time>2019-10-12T16:33:39.832Z</time>
      </trkpt>
      <trkpt lat="20.23649167" lon="-98.74288">
        <ele>1989.0</ele>
        <time>2019-10-12T16:33:40.833Z</time>
      </trkpt>
      <trkpt lat="20.23648167" lon="-98.74287167">
        <ele>1989.0</ele>
        <time>2019-10-12T16:33:41.833Z</time>
      </trkpt>
      <trkpt lat="20.23647333" lon="-98.742865">
        <ele>1988.0</ele>
        <time>2019-10-12T16:33:42.834Z</time>
      </trkpt>
      <trkpt lat="20.23646" lon="-98.74285833">
        <ele>1988.0</ele>
        <time>2019-10-12T16:33:43.835Z</time>
      </trkpt>
      <trkpt lat="20.23644833" lon="-98.74285333">
        <ele>1988.0</ele>
        <time>2019-10-12T16:33:44.835Z</time>
      </trkpt>
      <trkpt lat="20.23643667" lon="-98.74284833">
        <ele>1988.0</ele>
        <time>2019-10-12T16:33:45.837Z</time>
      </trkpt>
      <trkpt lat="20.23642167" lon="-98.742845">
        <ele>1988.0</ele>
        <time>2019-10-12T16:33:46.840Z</time>
      </trkpt>
      <trkpt lat="20.23640833" lon="-98.74284">
        <ele>1988.0</ele>
        <time>2019-10-12T16:33:47.846Z</time>
      </trkpt>
      <trkpt lat="20.23639167" lon="-98.74283667">
        <ele>1988.0</ele>
        <time>2019-10-12T16:33:48.852Z</time>
      </trkpt>
      <trkpt lat="20.23638" lon="-98.74283333">
        <ele>1988.0</ele>
        <time>2019-10-12T16:33:49.854Z</time>
      </trkpt>
      <trkpt lat="20.23636833" lon="-98.74282833">
        <ele>1989.0</ele>
        <time>2019-10-12T16:33:50.861Z</time>
      </trkpt>
      <trkpt lat="20.236355" lon="-98.742825">
        <ele>1989.0</ele>
        <time>2019-10-12T16:33:51.866Z</time>
      </trkpt>
      <trkpt lat="20.23634" lon="-98.74282">
        <ele>1989.0</ele>
        <time>2019-10-12T16:33:52.873Z</time>
      </trkpt>
      <trkpt lat="20.23632833" lon="-98.74281833">
        <ele>1989.0</ele>
        <time>2019-10-12T16:33:53.878Z</time>
      </trkpt>
      <trkpt lat="20.23631333" lon="-98.74281667">
        <ele>1989.0</ele>
        <time>2019-10-12T16:33:54.883Z</time>
      </trkpt>
      <trkpt lat="20.23629833" lon="-98.74281833">
        <ele>1989.0</ele>
        <time>2019-10-12T16:33:55.889Z</time>
      </trkpt>
      <trkpt lat="20.23628333" lon="-98.74282167">
        <ele>1988.0</ele>
        <time>2019-10-12T16:33:56.891Z</time>
      </trkpt>
      <trkpt lat="20.23626833" lon="-98.74282333">
        <ele>1987.0</ele>
        <time>2019-10-12T16:33:57.897Z</time>
      </trkpt>
      <trkpt lat="20.23625667" lon="-98.74282167">
        <ele>1987.0</ele>
        <time>2019-10-12T16:33:58.904Z</time>
      </trkpt>
      <trkpt lat="20.23624167" lon="-98.74281667">
        <ele>1987.0</ele>
        <time>2019-10-12T16:33:59.910Z</time>
      </trkpt>
      <trkpt lat="20.23622833" lon="-98.74281">
        <ele>1987.0</ele>
        <time>2019-10-12T16:34:00.911Z</time>
      </trkpt>
      <trkpt lat="20.236215" lon="-98.74280333">
        <ele>1987.0</ele>
        <time>2019-10-12T16:34:01.915Z</time>
      </trkpt>
      <trkpt lat="20.23620333" lon="-98.742805">
        <ele>1987.0</ele>
        <time>2019-10-12T16:34:02.922Z</time>
      </trkpt>
      <trkpt lat="20.23619333" lon="-98.742805">
        <ele>1987.0</ele>
        <time>2019-10-12T16:34:03.927Z</time>
      </trkpt>
      <trkpt lat="20.236185" lon="-98.742805">
        <ele>1986.0</ele>
        <time>2019-10-12T16:34:04.929Z</time>
      </trkpt>
      <trkpt lat="20.23617667" lon="-98.7428">
        <ele>1986.0</ele>
        <time>2019-10-12T16:34:05.934Z</time>
      </trkpt>
      <trkpt lat="20.236165" lon="-98.74279167">
        <ele>1985.0</ele>
        <time>2019-10-12T16:34:06.940Z</time>
      </trkpt>
      <trkpt lat="20.23615" lon="-98.742785">
        <ele>1985.0</ele>
        <time>2019-10-12T16:34:07.947Z</time>
      </trkpt>
      <trkpt lat="20.23612833" lon="-98.74278167">
        <ele>1984.0</ele>
        <time>2019-10-12T16:34:08.954Z</time>
      </trkpt>
      <trkpt lat="20.23610833" lon="-98.74278167">
        <ele>1983.0</ele>
        <time>2019-10-12T16:34:09.834Z</time>
      </trkpt>
      <trkpt lat="20.23609" lon="-98.74278167">
        <ele>1983.0</ele>
        <time>2019-10-12T16:34:10.840Z</time>
      </trkpt>
      <trkpt lat="20.236075" lon="-98.74278333">
        <ele>1983.0</ele>
        <time>2019-10-12T16:34:11.846Z</time>
      </trkpt>
      <trkpt lat="20.23605833" lon="-98.742785">
        <ele>1982.0</ele>
        <time>2019-10-12T16:34:12.852Z</time>
      </trkpt>
      <trkpt lat="20.236045" lon="-98.74278833">
        <ele>1982.0</ele>
        <time>2019-10-12T16:34:13.858Z</time>
      </trkpt>
      <trkpt lat="20.23602833" lon="-98.74279167">
        <ele>1981.0</ele>
        <time>2019-10-12T16:34:14.859Z</time>
      </trkpt>
      <trkpt lat="20.23601667" lon="-98.742795">
        <ele>1981.0</ele>
        <time>2019-10-12T16:34:15.860Z</time>
      </trkpt>
      <trkpt lat="20.23600667" lon="-98.74279833">
        <ele>1981.0</ele>
        <time>2019-10-12T16:34:16.860Z</time>
      </trkpt>
      <trkpt lat="20.23599833" lon="-98.742805">
        <ele>1981.0</ele>
        <time>2019-10-12T16:34:17.862Z</time>
      </trkpt>
      <trkpt lat="20.23599167" lon="-98.74281167">
        <ele>1980.0</ele>
        <time>2019-10-12T16:34:18.864Z</time>
      </trkpt>
      <trkpt lat="20.23598333" lon="-98.74281833">
        <ele>1980.0</ele>
        <time>2019-10-12T16:34:19.870Z</time>
      </trkpt>
      <trkpt lat="20.23597333" lon="-98.74282">
        <ele>1980.0</ele>
        <time>2019-10-12T16:34:20.875Z</time>
      </trkpt>
      <trkpt lat="20.23596167" lon="-98.74282">
        <ele>1979.0</ele>
        <time>2019-10-12T16:34:21.877Z</time>
      </trkpt>
      <trkpt lat="20.23595" lon="-98.74282667">
        <ele>1979.0</ele>
        <time>2019-10-12T16:34:22.880Z</time>
      </trkpt>
      <trkpt lat="20.23594167" lon="-98.74283333">
        <ele>1978.0</ele>
        <time>2019-10-12T16:34:23.886Z</time>
      </trkpt>
      <trkpt lat="20.23593333" lon="-98.74284">
        <ele>1978.0</ele>
        <time>2019-10-12T16:34:24.890Z</time>
      </trkpt>
      <trkpt lat="20.23592333" lon="-98.74284">
        <ele>1978.0</ele>
        <time>2019-10-12T16:34:25.896Z</time>
      </trkpt>
      <trkpt lat="20.23591333" lon="-98.74283833">
        <ele>1977.0</ele>
        <time>2019-10-12T16:34:26.899Z</time>
      </trkpt>
      <trkpt lat="20.23590333" lon="-98.74283833">
        <ele>1977.0</ele>
        <time>2019-10-12T16:34:27.902Z</time>
      </trkpt>
      <trkpt lat="20.23589667" lon="-98.74284333">
        <ele>1977.0</ele>
        <time>2019-10-12T16:34:28.907Z</time>
      </trkpt>
      <trkpt lat="20.23588667" lon="-98.74284833">
        <ele>1976.0</ele>
        <time>2019-10-12T16:34:29.913Z</time>
      </trkpt>
      <trkpt lat="20.235875" lon="-98.74285167">
        <ele>1976.0</ele>
        <time>2019-10-12T16:34:30.919Z</time>
      </trkpt>
      <trkpt lat="20.23586333" lon="-98.742855">
        <ele>1976.0</ele>
        <time>2019-10-12T16:34:31.922Z</time>
      </trkpt>
      <trkpt lat="20.23585167" lon="-98.74285667">
        <ele>1976.0</ele>
        <time>2019-10-12T16:34:32.925Z</time>
      </trkpt>
      <trkpt lat="20.23584" lon="-98.74285667">
        <ele>1977.0</ele>
        <time>2019-10-12T16:34:33.931Z</time>
      </trkpt>
      <trkpt lat="20.23583" lon="-98.74285667">
        <ele>1977.0</ele>
        <time>2019-10-12T16:34:34.936Z</time>
      </trkpt>
      <trkpt lat="20.23581667" lon="-98.742855">
        <ele>1977.0</ele>
        <time>2019-10-12T16:34:35.938Z</time>
      </trkpt>
      <trkpt lat="20.23580333" lon="-98.74285667">
        <ele>1977.0</ele>
        <time>2019-10-12T16:34:36.939Z</time>
      </trkpt>
      <trkpt lat="20.23579667" lon="-98.742865">
        <ele>1977.0</ele>
        <time>2019-10-12T16:34:37.940Z</time>
      </trkpt>
      <trkpt lat="20.23578833" lon="-98.74287167">
        <ele>1977.0</ele>
        <time>2019-10-12T16:34:38.941Z</time>
      </trkpt>
      <trkpt lat="20.23577667" lon="-98.74288">
        <ele>1976.0</ele>
        <time>2019-10-12T16:34:39.941Z</time>
      </trkpt>
      <trkpt lat="20.235765" lon="-98.742885">
        <ele>1977.0</ele>
        <time>2019-10-12T16:34:40.942Z</time>
      </trkpt>
      <trkpt lat="20.23575833" lon="-98.74289167">
        <ele>1977.0</ele>
        <time>2019-10-12T16:34:41.943Z</time>
      </trkpt>
      <trkpt lat="20.23574833" lon="-98.7429">
        <ele>1976.0</ele>
        <time>2019-10-12T16:34:42.944Z</time>
      </trkpt>
      <trkpt lat="20.23574167" lon="-98.74291333">
        <ele>1976.0</ele>
        <time>2019-10-12T16:34:43.945Z</time>
      </trkpt>
      <trkpt lat="20.23573333" lon="-98.74292">
        <ele>1976.0</ele>
        <time>2019-10-12T16:34:44.949Z</time>
      </trkpt>
      <trkpt lat="20.23572333" lon="-98.74293">
        <ele>1975.0</ele>
        <time>2019-10-12T16:34:45.953Z</time>
      </trkpt>
      <trkpt lat="20.23571667" lon="-98.74294">
        <ele>1975.0</ele>
        <time>2019-10-12T16:34:46.833Z</time>
      </trkpt>
      <trkpt lat="20.23571167" lon="-98.74295167">
        <ele>1974.0</ele>
        <time>2019-10-12T16:34:47.837Z</time>
      </trkpt>
      <trkpt lat="20.23570667" lon="-98.74296333">
        <ele>1974.0</ele>
        <time>2019-10-12T16:34:48.838Z</time>
      </trkpt>
      <trkpt lat="20.2357" lon="-98.74297667">
        <ele>1974.0</ele>
        <time>2019-10-12T16:34:49.842Z</time>
      </trkpt>
      <trkpt lat="20.23569" lon="-98.74299167">
        <ele>1974.0</ele>
        <time>2019-10-12T16:34:50.844Z</time>
      </trkpt>
      <trkpt lat="20.23567833" lon="-98.743005">
        <ele>1973.0</ele>
        <time>2019-10-12T16:34:51.848Z</time>
      </trkpt>
      <trkpt lat="20.23566333" lon="-98.743015">
        <ele>1973.0</ele>
        <time>2019-10-12T16:34:52.850Z</time>
      </trkpt>
      <trkpt lat="20.23565" lon="-98.74302167">
        <ele>1972.0</ele>
        <time>2019-10-12T16:34:53.854Z</time>
      </trkpt>
      <trkpt lat="20.23563833" lon="-98.74302833">
        <ele>1972.0</ele>
        <time>2019-10-12T16:34:54.859Z</time>
      </trkpt>
      <trkpt lat="20.23563167" lon="-98.74303833">
        <ele>1971.0</ele>
        <time>2019-10-12T16:34:55.866Z</time>
      </trkpt>
      <trkpt lat="20.23562" lon="-98.74304833">
        <ele>1971.0</ele>
        <time>2019-10-12T16:34:56.872Z</time>
      </trkpt>
      <trkpt lat="20.23560833" lon="-98.743055">
        <ele>1971.0</ele>
        <time>2019-10-12T16:34:57.874Z</time>
      </trkpt>
      <trkpt lat="20.23559667" lon="-98.74306167">
        <ele>1972.0</ele>
        <time>2019-10-12T16:34:58.878Z</time>
      </trkpt>
      <trkpt lat="20.23558667" lon="-98.74307167">
        <ele>1972.0</ele>
        <time>2019-10-12T16:34:59.881Z</time>
      </trkpt>
      <trkpt lat="20.23558167" lon="-98.74308167">
        <ele>1972.0</ele>
        <time>2019-10-12T16:35:00.889Z</time>
      </trkpt>
      <trkpt lat="20.23558167" lon="-98.74308833">
        <ele>1972.0</ele>
        <time>2019-10-12T16:35:01.892Z</time>
      </trkpt>
      <trkpt lat="20.23558167" lon="-98.74309333">
        <ele>1972.0</ele>
        <time>2019-10-12T16:35:02.893Z</time>
      </trkpt>
      <trkpt lat="20.23557667" lon="-98.74309667">
        <ele>1972.0</ele>
        <time>2019-10-12T16:35:03.894Z</time>
      </trkpt>
      <trkpt lat="20.23557" lon="-98.7431">
        <ele>1971.0</ele>
        <time>2019-10-12T16:35:04.895Z</time>
      </trkpt>
      <trkpt lat="20.23556" lon="-98.74310667">
        <ele>1971.0</ele>
        <time>2019-10-12T16:35:05.896Z</time>
      </trkpt>
      <trkpt lat="20.23555167" lon="-98.74311333">
        <ele>1970.0</ele>
        <time>2019-10-12T16:35:06.896Z</time>
      </trkpt>
      <trkpt lat="20.23554667" lon="-98.74312167">
        <ele>1970.0</ele>
        <time>2019-10-12T16:35:07.897Z</time>
      </trkpt>
      <trkpt lat="20.23554333" lon="-98.74313333">
        <ele>1970.0</ele>
        <time>2019-10-12T16:35:08.898Z</time>
      </trkpt>
      <trkpt lat="20.23554" lon="-98.743145">
        <ele>1971.0</ele>
        <time>2019-10-12T16:35:09.899Z</time>
      </trkpt>
      <trkpt lat="20.23553167" lon="-98.74315333">
        <ele>1971.0</ele>
        <time>2019-10-12T16:35:10.900Z</time>
      </trkpt>
      <trkpt lat="20.23552167" lon="-98.743155">
        <ele>1972.0</ele>
        <time>2019-10-12T16:35:11.901Z</time>
      </trkpt>
      <trkpt lat="20.23551333" lon="-98.74315333">
        <ele>1972.0</ele>
        <time>2019-10-12T16:35:12.907Z</time>
      </trkpt>
      <trkpt lat="20.23551" lon="-98.74315167">
        <ele>1973.0</ele>
        <time>2019-10-12T16:35:13.910Z</time>
      </trkpt>
      <trkpt lat="20.2355" lon="-98.74314667">
        <ele>1973.0</ele>
        <time>2019-10-12T16:35:14.914Z</time>
      </trkpt>
      <trkpt lat="20.23548667" lon="-98.74314">
        <ele>1974.0</ele>
        <time>2019-10-12T16:35:15.920Z</time>
      </trkpt>
      <trkpt lat="20.235475" lon="-98.743135">
        <ele>1974.0</ele>
        <time>2019-10-12T16:35:16.926Z</time>
      </trkpt>
      <trkpt lat="20.23546167" lon="-98.74313">
        <ele>1973.0</ele>
        <time>2019-10-12T16:35:17.933Z</time>
      </trkpt>
      <trkpt lat="20.23545167" lon="-98.74313">
        <ele>1973.0</ele>
        <time>2019-10-12T16:35:18.937Z</time>
      </trkpt>
      <trkpt lat="20.235445" lon="-98.74313">
        <ele>1974.0</ele>
        <time>2019-10-12T16:35:19.940Z</time>
      </trkpt>
      <trkpt lat="20.23544333" lon="-98.74313167">
        <ele>1975.0</ele>
        <time>2019-10-12T16:35:20.947Z</time>
      </trkpt>
      <trkpt lat="20.23544" lon="-98.743135">
        <ele>1975.0</ele>
        <time>2019-10-12T16:35:21.954Z</time>
      </trkpt>
      <trkpt lat="20.23544" lon="-98.74313">
        <ele>1975.0</ele>
        <time>2019-10-12T16:35:22.832Z</time>
      </trkpt>
      <trkpt lat="20.23543333" lon="-98.74312667">
        <ele>1975.0</ele>
        <time>2019-10-12T16:35:23.838Z</time>
      </trkpt>
      <trkpt lat="20.23542667" lon="-98.743125">
        <ele>1976.0</ele>
        <time>2019-10-12T16:35:24.841Z</time>
      </trkpt>
      <trkpt lat="20.23542167" lon="-98.743125">
        <ele>1977.0</ele>
        <time>2019-10-12T16:35:25.844Z</time>
      </trkpt>
      <trkpt lat="20.23541833" lon="-98.74312833">
        <ele>1977.0</ele>
        <time>2019-10-12T16:35:26.849Z</time>
      </trkpt>
      <trkpt lat="20.235415" lon="-98.74313167">
        <ele>1977.0</ele>
        <time>2019-10-12T16:35:27.850Z</time>
      </trkpt>
      <trkpt lat="20.23540833" lon="-98.74312833">
        <ele>1977.0</ele>
        <time>2019-10-12T16:35:28.851Z</time>
      </trkpt>
      <trkpt lat="20.23540167" lon="-98.743125">
        <ele>1976.0</ele>
        <time>2019-10-12T16:35:29.852Z</time>
      </trkpt>
      <trkpt lat="20.23539667" lon="-98.74311667">
        <ele>1976.0</ele>
        <time>2019-10-12T16:35:30.856Z</time>
      </trkpt>
      <trkpt lat="20.235395" lon="-98.74311667">
        <ele>1976.0</ele>
        <time>2019-10-12T16:35:31.863Z</time>
      </trkpt>
      <trkpt lat="20.235395" lon="-98.74311667">
        <ele>1974.0</ele>
        <time>2019-10-12T16:35:32.867Z</time>
      </trkpt>
      <trkpt lat="20.23539333" lon="-98.743115">
        <ele>1974.0</ele>
        <time>2019-10-12T16:35:33.871Z</time>
      </trkpt>
      <trkpt lat="20.23538167" lon="-98.7431">
        <ele>1973.0</ele>
        <time>2019-10-12T16:35:34.876Z</time>
      </trkpt>
      <trkpt lat="20.23537833" lon="-98.743085">
        <ele>1973.0</ele>
        <time>2019-10-12T16:35:35.880Z</time>
      </trkpt>
      <trkpt lat="20.23537667" lon="-98.74307833">
        <ele>1974.0</ele>
        <time>2019-10-12T16:35:36.886Z</time>
      </trkpt>
      <trkpt lat="20.235375" lon="-98.74307167">
        <ele>1974.0</ele>
        <time>2019-10-12T16:35:37.889Z</time>
      </trkpt>
      <trkpt lat="20.23537833" lon="-98.74306667">
        <ele>1975.0</ele>
        <time>2019-10-12T16:35:38.895Z</time>
      </trkpt>
      <trkpt lat="20.23538167" lon="-98.74306">
        <ele>1976.0</ele>
        <time>2019-10-12T16:35:39.901Z</time>
      </trkpt>
      <trkpt lat="20.23538167" lon="-98.74305333">
        <ele>1977.0</ele>
        <time>2019-10-12T16:35:40.906Z</time>
      </trkpt>
      <trkpt lat="20.23538167" lon="-98.743045">
        <ele>1978.0</ele>
        <time>2019-10-12T16:35:41.914Z</time>
      </trkpt>
      <trkpt lat="20.235385" lon="-98.74303833">
        <ele>1979.0</ele>
        <time>2019-10-12T16:35:42.922Z</time>
      </trkpt>
      <trkpt lat="20.23539333" lon="-98.74303167">
        <ele>1979.0</ele>
        <time>2019-10-12T16:35:43.925Z</time>
      </trkpt>
      <trkpt lat="20.2354" lon="-98.74302667">
        <ele>1980.0</ele>
        <time>2019-10-12T16:35:44.926Z</time>
      </trkpt>
      <trkpt lat="20.23540833" lon="-98.74302333">
        <ele>1980.0</ele>
        <time>2019-10-12T16:35:45.927Z</time>
      </trkpt>
      <trkpt lat="20.23541" lon="-98.743015">
        <ele>1981.0</ele>
        <time>2019-10-12T16:35:46.928Z</time>
      </trkpt>
      <trkpt lat="20.23540333" lon="-98.74300167">
        <ele>1981.0</ele>
        <time>2019-10-12T16:35:47.928Z</time>
      </trkpt>
      <trkpt lat="20.23540333" lon="-98.74299167">
        <ele>1982.0</ele>
        <time>2019-10-12T16:35:48.929Z</time>
      </trkpt>
      <trkpt lat="20.23540167" lon="-98.74298167">
        <ele>1982.0</ele>
        <time>2019-10-12T16:35:49.930Z</time>
      </trkpt>
      <trkpt lat="20.23540333" lon="-98.74297333">
        <ele>1982.0</ele>
        <time>2019-10-12T16:35:50.931Z</time>
      </trkpt>
      <trkpt lat="20.23540667" lon="-98.742965">
        <ele>1983.0</ele>
        <time>2019-10-12T16:35:51.932Z</time>
      </trkpt>
      <trkpt lat="20.23540667" lon="-98.74295833">
        <ele>1982.0</ele>
        <time>2019-10-12T16:35:52.933Z</time>
      </trkpt>
      <trkpt lat="20.23540833" lon="-98.74295667">
        <ele>1981.0</ele>
        <time>2019-10-12T16:35:53.937Z</time>
      </trkpt>
      <trkpt lat="20.23541333" lon="-98.74295333">
        <ele>1981.0</ele>
        <time>2019-10-12T16:35:54.945Z</time>
      </trkpt>
      <trkpt lat="20.23542167" lon="-98.74295167">
        <ele>1982.0</ele>
        <time>2019-10-12T16:35:55.950Z</time>
      </trkpt>
      <trkpt lat="20.23543" lon="-98.74294833">
        <ele>1982.0</ele>
        <time>2019-10-12T16:35:56.832Z</time>
      </trkpt>
      <trkpt lat="20.23544167" lon="-98.74294833">
        <ele>1982.0</ele>
        <time>2019-10-12T16:35:57.835Z</time>
      </trkpt>
      <trkpt lat="20.23545167" lon="-98.74294333">
        <ele>1982.0</ele>
        <time>2019-10-12T16:35:58.840Z</time>
      </trkpt>
      <trkpt lat="20.235455" lon="-98.74294">
        <ele>1982.0</ele>
        <time>2019-10-12T16:35:59.845Z</time>
      </trkpt>
      <trkpt lat="20.23546" lon="-98.74293333">
        <ele>1982.0</ele>
        <time>2019-10-12T16:36:00.849Z</time>
      </trkpt>
      <trkpt lat="20.23546833" lon="-98.74292667">
        <ele>1983.0</ele>
        <time>2019-10-12T16:36:01.856Z</time>
      </trkpt>
      <trkpt lat="20.23547167" lon="-98.74291833">
        <ele>1982.0</ele>
        <time>2019-10-12T16:36:02.863Z</time>
      </trkpt>
      <trkpt lat="20.23547333" lon="-98.74291">
        <ele>1982.0</ele>
        <time>2019-10-12T16:36:03.866Z</time>
      </trkpt>
      <trkpt lat="20.23547333" lon="-98.7429">
        <ele>1982.0</ele>
        <time>2019-10-12T16:36:04.872Z</time>
      </trkpt>
      <trkpt lat="20.23547333" lon="-98.742885">
        <ele>1982.0</ele>
        <time>2019-10-12T16:36:05.878Z</time>
      </trkpt>
      <trkpt lat="20.235475" lon="-98.742875">
        <ele>1983.0</ele>
        <time>2019-10-12T16:36:06.879Z</time>
      </trkpt>
      <trkpt lat="20.23547333" lon="-98.74286333">
        <ele>1983.0</ele>
        <time>2019-10-12T16:36:07.879Z</time>
      </trkpt>
      <trkpt lat="20.23547167" lon="-98.74285333">
        <ele>1983.0</ele>
        <time>2019-10-12T16:36:08.879Z</time>
      </trkpt>
      <trkpt lat="20.23547" lon="-98.742845">
        <ele>1984.0</ele>
        <time>2019-10-12T16:36:09.880Z</time>
      </trkpt>
      <trkpt lat="20.23546833" lon="-98.74283667">
        <ele>1984.0</ele>
        <time>2019-10-12T16:36:10.880Z</time>
      </trkpt>
      <trkpt lat="20.235465" lon="-98.742835">
        <ele>1985.0</ele>
        <time>2019-10-12T16:36:11.881Z</time>
      </trkpt>
      <trkpt lat="20.235465" lon="-98.74283333">
        <ele>1985.0</ele>
        <time>2019-10-12T16:36:12.882Z</time>
      </trkpt>
      <trkpt lat="20.23546333" lon="-98.74283333">
        <ele>1985.0</ele>
        <time>2019-10-12T16:36:13.883Z</time>
      </trkpt>
      <trkpt lat="20.23546167" lon="-98.74283333">
        <ele>1984.0</ele>
        <time>2019-10-12T16:36:14.884Z</time>
      </trkpt>
      <trkpt lat="20.235465" lon="-98.742835">
        <ele>1985.0</ele>
        <time>2019-10-12T16:36:15.885Z</time>
      </trkpt>
      <trkpt lat="20.235475" lon="-98.742835">
        <ele>1985.0</ele>
        <time>2019-10-12T16:36:16.885Z</time>
      </trkpt>
      <trkpt lat="20.23547833" lon="-98.742825">
        <ele>1985.0</ele>
        <time>2019-10-12T16:36:17.886Z</time>
      </trkpt>
      <trkpt lat="20.23548333" lon="-98.74281667">
        <ele>1985.0</ele>
        <time>2019-10-12T16:36:18.887Z</time>
      </trkpt>
      <trkpt lat="20.23548833" lon="-98.74280667">
        <ele>1984.0</ele>
        <time>2019-10-12T16:36:19.888Z</time>
      </trkpt>
      <trkpt lat="20.23549167" lon="-98.74279667">
        <ele>1984.0</ele>
        <time>2019-10-12T16:36:20.889Z</time>
      </trkpt>
      <trkpt lat="20.23549833" lon="-98.74278667">
        <ele>1984.0</ele>
        <time>2019-10-12T16:36:21.889Z</time>
      </trkpt>
      <trkpt lat="20.23550333" lon="-98.742775">
        <ele>1984.0</ele>
        <time>2019-10-12T16:36:22.890Z</time>
      </trkpt>
      <trkpt lat="20.23550833" lon="-98.74275833">
        <ele>1984.0</ele>
        <time>2019-10-12T16:36:23.891Z</time>
      </trkpt>
      <trkpt lat="20.235515" lon="-98.74274333">
        <ele>1984.0</ele>
        <time>2019-10-12T16:36:24.892Z</time>
      </trkpt>
      <trkpt lat="20.23551833" lon="-98.74273">
        <ele>1984.0</ele>
        <time>2019-10-12T16:36:25.892Z</time>
      </trkpt>
      <trkpt lat="20.235525" lon="-98.74271833">
        <ele>1983.0</ele>
        <time>2019-10-12T16:36:26.893Z</time>
      </trkpt>
      <trkpt lat="20.23553167" lon="-98.74270167">
        <ele>1983.0</ele>
        <time>2019-10-12T16:36:27.894Z</time>
      </trkpt>
      <trkpt lat="20.23553833" lon="-98.742685">
        <ele>1983.0</ele>
        <time>2019-10-12T16:36:28.895Z</time>
      </trkpt>
      <trkpt lat="20.23555" lon="-98.74267333">
        <ele>1982.0</ele>
        <time>2019-10-12T16:36:29.895Z</time>
      </trkpt>
      <trkpt lat="20.235565" lon="-98.742665">
        <ele>1982.0</ele>
        <time>2019-10-12T16:36:30.899Z</time>
      </trkpt>
      <trkpt lat="20.23557833" lon="-98.74265833">
        <ele>1982.0</ele>
        <time>2019-10-12T16:36:31.906Z</time>
      </trkpt>
      <trkpt lat="20.23558833" lon="-98.74264833">
        <ele>1982.0</ele>
        <time>2019-10-12T16:36:32.912Z</time>
      </trkpt>
      <trkpt lat="20.2356" lon="-98.74264">
        <ele>1982.0</ele>
        <time>2019-10-12T16:36:33.916Z</time>
      </trkpt>
      <trkpt lat="20.23561" lon="-98.74263167">
        <ele>1982.0</ele>
        <time>2019-10-12T16:36:34.921Z</time>
      </trkpt>
      <trkpt lat="20.235615" lon="-98.742625">
        <ele>1982.0</ele>
        <time>2019-10-12T16:36:35.924Z</time>
      </trkpt>
      <trkpt lat="20.23562333" lon="-98.742625">
        <ele>1983.0</ele>
        <time>2019-10-12T16:36:36.929Z</time>
      </trkpt>
      <trkpt lat="20.235635" lon="-98.742625">
        <ele>1984.0</ele>
        <time>2019-10-12T16:36:37.931Z</time>
      </trkpt>
      <trkpt lat="20.235645" lon="-98.742625">
        <ele>1984.0</ele>
        <time>2019-10-12T16:36:38.936Z</time>
      </trkpt>
      <trkpt lat="20.235655" lon="-98.742625">
        <ele>1985.0</ele>
        <time>2019-10-12T16:36:39.942Z</time>
      </trkpt>
      <trkpt lat="20.23566667" lon="-98.742625">
        <ele>1986.0</ele>
        <time>2019-10-12T16:36:40.949Z</time>
      </trkpt>
      <trkpt lat="20.23568167" lon="-98.74262167">
        <ele>1987.0</ele>
        <time>2019-10-12T16:36:41.951Z</time>
      </trkpt>
      <trkpt lat="20.23569167" lon="-98.742615">
        <ele>1987.0</ele>
        <time>2019-10-12T16:36:42.954Z</time>
      </trkpt>
      <trkpt lat="20.23569833" lon="-98.74260667">
        <ele>1986.0</ele>
        <time>2019-10-12T16:36:43.832Z</time>
      </trkpt>
      <trkpt lat="20.23570333" lon="-98.7426">
        <ele>1986.0</ele>
        <time>2019-10-12T16:36:44.837Z</time>
      </trkpt>
      <trkpt lat="20.23571333" lon="-98.74259333">
        <ele>1986.0</ele>
        <time>2019-10-12T16:36:45.843Z</time>
      </trkpt>
      <trkpt lat="20.23572" lon="-98.74258667">
        <ele>1985.0</ele>
        <time>2019-10-12T16:36:46.845Z</time>
      </trkpt>
      <trkpt lat="20.23572667" lon="-98.74258333">
        <ele>1985.0</ele>
        <time>2019-10-12T16:36:47.846Z</time>
      </trkpt>
      <trkpt lat="20.23573667" lon="-98.74257833">
        <ele>1984.0</ele>
        <time>2019-10-12T16:36:48.847Z</time>
      </trkpt>
      <trkpt lat="20.23575333" lon="-98.74258167">
        <ele>1984.0</ele>
        <time>2019-10-12T16:36:49.848Z</time>
      </trkpt>
      <trkpt lat="20.23576667" lon="-98.74258">
        <ele>1984.0</ele>
        <time>2019-10-12T16:36:50.848Z</time>
      </trkpt>
      <trkpt lat="20.23578333" lon="-98.742575">
        <ele>1984.0</ele>
        <time>2019-10-12T16:36:51.849Z</time>
      </trkpt>
      <trkpt lat="20.23579667" lon="-98.74257">
        <ele>1983.0</ele>
        <time>2019-10-12T16:36:52.850Z</time>
      </trkpt>
      <trkpt lat="20.23581333" lon="-98.74256333">
        <ele>1983.0</ele>
        <time>2019-10-12T16:36:53.850Z</time>
      </trkpt>
      <trkpt lat="20.23582833" lon="-98.74256">
        <ele>1983.0</ele>
        <time>2019-10-12T16:36:54.852Z</time>
      </trkpt>
      <trkpt lat="20.23584" lon="-98.74256">
        <ele>1983.0</ele>
        <time>2019-10-12T16:36:55.852Z</time>
      </trkpt>
      <trkpt lat="20.23585" lon="-98.74255833">
        <ele>1983.0</ele>
        <time>2019-10-12T16:36:56.853Z</time>
      </trkpt>
      <trkpt lat="20.23585833" lon="-98.74255667">
        <ele>1983.0</ele>
        <time>2019-10-12T16:36:57.854Z</time>
      </trkpt>
      <trkpt lat="20.23586667" lon="-98.742555">
        <ele>1985.0</ele>
        <time>2019-10-12T16:36:58.855Z</time>
      </trkpt>
      <trkpt lat="20.23586667" lon="-98.742555">
        <ele>1985.0</ele>
        <time>2019-10-12T16:36:59.856Z</time>
      </trkpt>
      <trkpt lat="20.23586167" lon="-98.74255833">
        <ele>1985.0</ele>
        <time>2019-10-12T16:37:00.861Z</time>
      </trkpt>
      <trkpt lat="20.235865" lon="-98.74256333">
        <ele>1985.0</ele>
        <time>2019-10-12T16:37:01.868Z</time>
      </trkpt>
      <trkpt lat="20.235865" lon="-98.74257">
        <ele>1985.0</ele>
        <time>2019-10-12T16:37:02.874Z</time>
      </trkpt>
      <trkpt lat="20.23586333" lon="-98.74257">
        <ele>1985.0</ele>
        <time>2019-10-12T16:37:03.878Z</time>
      </trkpt>
      <trkpt lat="20.23586167" lon="-98.74256833">
        <ele>1984.0</ele>
        <time>2019-10-12T16:37:04.881Z</time>
      </trkpt>
      <trkpt lat="20.23585833" lon="-98.74256667">
        <ele>1984.0</ele>
        <time>2019-10-12T16:37:05.881Z</time>
      </trkpt>
      <trkpt lat="20.23585667" lon="-98.742565">
        <ele>1984.0</ele>
        <time>2019-10-12T16:37:06.882Z</time>
      </trkpt>
      <trkpt lat="20.23585167" lon="-98.74256333">
        <ele>1983.0</ele>
        <time>2019-10-12T16:37:07.883Z</time>
      </trkpt>
      <trkpt lat="20.23585167" lon="-98.742565">
        <ele>1983.0</ele>
        <time>2019-10-12T16:37:08.886Z</time>
      </trkpt>
      <trkpt lat="20.23585167" lon="-98.74256167">
        <ele>1982.0</ele>
        <time>2019-10-12T16:37:09.892Z</time>
      </trkpt>
      <trkpt lat="20.23585333" lon="-98.74256333">
        <ele>1982.0</ele>
        <time>2019-10-12T16:37:10.900Z</time>
      </trkpt>
      <trkpt lat="20.23585833" lon="-98.74257">
        <ele>1983.0</ele>
        <time>2019-10-12T16:37:11.907Z</time>
      </trkpt>
      <trkpt lat="20.23586667" lon="-98.742575">
        <ele>1983.0</ele>
        <time>2019-10-12T16:37:12.913Z</time>
      </trkpt>
      <trkpt lat="20.235875" lon="-98.74257667">
        <ele>1984.0</ele>
        <time>2019-10-12T16:37:13.913Z</time>
      </trkpt>
      <trkpt lat="20.235885" lon="-98.74257667">
        <ele>1984.0</ele>
        <time>2019-10-12T16:37:14.917Z</time>
      </trkpt>
      <trkpt lat="20.235895" lon="-98.74257667">
        <ele>1984.0</ele>
        <time>2019-10-12T16:37:15.922Z</time>
      </trkpt>
      <trkpt lat="20.235905" lon="-98.74257833">
        <ele>1984.0</ele>
        <time>2019-10-12T16:37:16.925Z</time>
      </trkpt>
      <trkpt lat="20.23591833" lon="-98.74258333">
        <ele>1984.0</ele>
        <time>2019-10-12T16:37:17.928Z</time>
      </trkpt>
      <trkpt lat="20.23593" lon="-98.74258333">
        <ele>1983.0</ele>
        <time>2019-10-12T16:37:18.932Z</time>
      </trkpt>
      <trkpt lat="20.23594333" lon="-98.74258167">
        <ele>1982.0</ele>
        <time>2019-10-12T16:37:19.933Z</time>
      </trkpt>
      <trkpt lat="20.23595833" lon="-98.74258">
        <ele>1981.0</ele>
        <time>2019-10-12T16:37:20.939Z</time>
      </trkpt>
      <trkpt lat="20.23597333" lon="-98.74257667">
        <ele>1981.0</ele>
        <time>2019-10-12T16:37:21.942Z</time>
      </trkpt>
      <trkpt lat="20.23599" lon="-98.742575">
        <ele>1981.0</ele>
        <time>2019-10-12T16:37:22.949Z</time>
      </trkpt>
      <trkpt lat="20.23600333" lon="-98.74257667">
        <ele>1981.0</ele>
        <time>2019-10-12T16:37:23.955Z</time>
      </trkpt>
      <trkpt lat="20.23601" lon="-98.74257667">
        <ele>1981.0</ele>
        <time>2019-10-12T16:37:24.832Z</time>
      </trkpt>
      <trkpt lat="20.23601833" lon="-98.74257333">
        <ele>1980.0</ele>
        <time>2019-10-12T16:37:25.834Z</time>
      </trkpt>
      <trkpt lat="20.23602833" lon="-98.74257333">
        <ele>1980.0</ele>
        <time>2019-10-12T16:37:26.835Z</time>
      </trkpt>
      <trkpt lat="20.23604" lon="-98.74257333">
        <ele>1979.0</ele>
        <time>2019-10-12T16:37:27.835Z</time>
      </trkpt>
      <trkpt lat="20.236055" lon="-98.74257167">
        <ele>1979.0</ele>
        <time>2019-10-12T16:37:28.839Z</time>
      </trkpt>
      <trkpt lat="20.23607" lon="-98.74256667">
        <ele>1978.0</ele>
        <time>2019-10-12T16:37:29.846Z</time>
      </trkpt>
      <trkpt lat="20.23608167" lon="-98.74256167">
        <ele>1977.0</ele>
        <time>2019-10-12T16:37:30.852Z</time>
      </trkpt>
      <trkpt lat="20.236095" lon="-98.74255833">
        <ele>1977.0</ele>
        <time>2019-10-12T16:37:31.857Z</time>
      </trkpt>
      <trkpt lat="20.23610833" lon="-98.74255833">
        <ele>1977.0</ele>
        <time>2019-10-12T16:37:32.861Z</time>
      </trkpt>
      <trkpt lat="20.23612333" lon="-98.74256">
        <ele>1977.0</ele>
        <time>2019-10-12T16:37:33.866Z</time>
      </trkpt>
      <trkpt lat="20.23614167" lon="-98.74256167">
        <ele>1978.0</ele>
        <time>2019-10-12T16:37:34.870Z</time>
      </trkpt>
      <trkpt lat="20.236155" lon="-98.74257">
        <ele>1978.0</ele>
        <time>2019-10-12T16:37:35.876Z</time>
      </trkpt>
      <trkpt lat="20.23617" lon="-98.742575">
        <ele>1979.0</ele>
        <time>2019-10-12T16:37:36.882Z</time>
      </trkpt>
      <trkpt lat="20.23618167" lon="-98.74257667">
        <ele>1979.0</ele>
        <time>2019-10-12T16:37:37.885Z</time>
      </trkpt>
      <trkpt lat="20.23619667" lon="-98.74258167">
        <ele>1979.0</ele>
        <time>2019-10-12T16:37:38.892Z</time>
      </trkpt>
      <trkpt lat="20.23620667" lon="-98.74258667">
        <ele>1980.0</ele>
        <time>2019-10-12T16:37:39.900Z</time>
      </trkpt>
      <trkpt lat="20.23622667" lon="-98.742585">
        <ele>1980.0</ele>
        <time>2019-10-12T16:37:40.901Z</time>
      </trkpt>
      <trkpt lat="20.23624833" lon="-98.742585">
        <ele>1981.0</ele>
        <time>2019-10-12T16:37:41.902Z</time>
      </trkpt>
      <trkpt lat="20.23626833" lon="-98.742585">
        <ele>1981.0</ele>
        <time>2019-10-12T16:37:42.906Z</time>
      </trkpt>
      <trkpt lat="20.23628667" lon="-98.74258833">
        <ele>1982.0</ele>
        <time>2019-10-12T16:37:43.909Z</time>
      </trkpt>
      <trkpt lat="20.23630333" lon="-98.74259333">
        <ele>1983.0</ele>
        <time>2019-10-12T16:37:44.914Z</time>
      </trkpt>
      <trkpt lat="20.23632167" lon="-98.74259833">
        <ele>1984.0</ele>
        <time>2019-10-12T16:37:45.921Z</time>
      </trkpt>
      <trkpt lat="20.23634167" lon="-98.7426">
        <ele>1985.0</ele>
        <time>2019-10-12T16:37:46.922Z</time>
      </trkpt>
      <trkpt lat="20.23636167" lon="-98.7426">
        <ele>1985.0</ele>
        <time>2019-10-12T16:37:47.923Z</time>
      </trkpt>
      <trkpt lat="20.23638" lon="-98.74260167">
        <ele>1986.0</ele>
        <time>2019-10-12T16:37:48.926Z</time>
      </trkpt>
      <trkpt lat="20.236395" lon="-98.74260333">
        <ele>1987.0</ele>
        <time>2019-10-12T16:37:49.934Z</time>
      </trkpt>
      <trkpt lat="20.23640833" lon="-98.74260833">
        <ele>1988.0</ele>
        <time>2019-10-12T16:37:50.940Z</time>
      </trkpt>
      <trkpt lat="20.23642167" lon="-98.74261333">
        <ele>1988.0</ele>
        <time>2019-10-12T16:37:51.948Z</time>
      </trkpt>
      <trkpt lat="20.23643667" lon="-98.742615">
        <ele>1988.0</ele>
        <time>2019-10-12T16:37:52.953Z</time>
      </trkpt>
      <trkpt lat="20.23645333" lon="-98.74261833">
        <ele>1988.0</ele>
        <time>2019-10-12T16:37:53.833Z</time>
      </trkpt>
      <trkpt lat="20.23647" lon="-98.74262">
        <ele>1987.0</ele>
        <time>2019-10-12T16:37:54.835Z</time>
      </trkpt>
      <trkpt lat="20.23648667" lon="-98.74262">
        <ele>1986.0</ele>
        <time>2019-10-12T16:37:55.835Z</time>
      </trkpt>
      <trkpt lat="20.23650667" lon="-98.74261833">
        <ele>1986.0</ele>
        <time>2019-10-12T16:37:56.836Z</time>
      </trkpt>
      <trkpt lat="20.236525" lon="-98.74260667">
        <ele>1986.0</ele>
        <time>2019-10-12T16:37:57.837Z</time>
      </trkpt>
      <trkpt lat="20.23654333" lon="-98.74259">
        <ele>1985.0</ele>
        <time>2019-10-12T16:37:58.838Z</time>
      </trkpt>
      <trkpt lat="20.23656" lon="-98.74257667">
        <ele>1985.0</ele>
        <time>2019-10-12T16:37:59.838Z</time>
      </trkpt>
      <trkpt lat="20.23657333" lon="-98.74256833">
        <ele>1984.0</ele>
        <time>2019-10-12T16:38:00.838Z</time>
      </trkpt>
      <trkpt lat="20.23659" lon="-98.74256167">
        <ele>1983.0</ele>
        <time>2019-10-12T16:38:01.839Z</time>
      </trkpt>
      <trkpt lat="20.236605" lon="-98.742555">
        <ele>1984.0</ele>
        <time>2019-10-12T16:38:02.840Z</time>
      </trkpt>
      <trkpt lat="20.23662" lon="-98.74255">
        <ele>1984.0</ele>
        <time>2019-10-12T16:38:03.841Z</time>
      </trkpt>
      <trkpt lat="20.23664" lon="-98.74254167">
        <ele>1983.0</ele>
        <time>2019-10-12T16:38:04.842Z</time>
      </trkpt>
      <trkpt lat="20.23665167" lon="-98.74253167">
        <ele>1982.0</ele>
        <time>2019-10-12T16:38:05.843Z</time>
      </trkpt>
      <trkpt lat="20.23666333" lon="-98.74252333">
        <ele>1983.0</ele>
        <time>2019-10-12T16:38:06.847Z</time>
      </trkpt>
      <trkpt lat="20.23667667" lon="-98.74251667">
        <ele>1982.0</ele>
        <time>2019-10-12T16:38:07.854Z</time>
      </trkpt>
      <trkpt lat="20.23669" lon="-98.74250833">
        <ele>1982.0</ele>
        <time>2019-10-12T16:38:08.860Z</time>
      </trkpt>
      <trkpt lat="20.23671" lon="-98.7425">
        <ele>1980.0</ele>
        <time>2019-10-12T16:38:09.867Z</time>
      </trkpt>
      <trkpt lat="20.23672" lon="-98.74248333">
        <ele>1979.0</ele>
        <time>2019-10-12T16:38:10.871Z</time>
      </trkpt>
      <trkpt lat="20.23673" lon="-98.742465">
        <ele>1978.0</ele>
        <time>2019-10-12T16:38:11.878Z</time>
      </trkpt>
      <trkpt lat="20.236745" lon="-98.74244833">
        <ele>1978.0</ele>
        <time>2019-10-12T16:38:12.883Z</time>
      </trkpt>
      <trkpt lat="20.23675833" lon="-98.74243167">
        <ele>1977.0</ele>
        <time>2019-10-12T16:38:13.889Z</time>
      </trkpt>
      <trkpt lat="20.23677333" lon="-98.742415">
        <ele>1977.0</ele>
        <time>2019-10-12T16:38:14.892Z</time>
      </trkpt>
      <trkpt lat="20.23678" lon="-98.742395">
        <ele>1977.0</ele>
        <time>2019-10-12T16:38:15.900Z</time>
      </trkpt>
      <trkpt lat="20.236785" lon="-98.74237667">
        <ele>1976.0</ele>
        <time>2019-10-12T16:38:16.908Z</time>
      </trkpt>
      <trkpt lat="20.236795" lon="-98.74235667">
        <ele>1976.0</ele>
        <time>2019-10-12T16:38:17.915Z</time>
      </trkpt>
      <trkpt lat="20.23680833" lon="-98.74234167">
        <ele>1975.0</ele>
        <time>2019-10-12T16:38:18.916Z</time>
      </trkpt>
      <trkpt lat="20.23682" lon="-98.74233">
        <ele>1975.0</ele>
        <time>2019-10-12T16:38:19.916Z</time>
      </trkpt>
      <trkpt lat="20.236825" lon="-98.74231">
        <ele>1975.0</ele>
        <time>2019-10-12T16:38:20.917Z</time>
      </trkpt>
      <trkpt lat="20.23682667" lon="-98.742285">
        <ele>1974.0</ele>
        <time>2019-10-12T16:38:21.918Z</time>
      </trkpt>
      <trkpt lat="20.23683333" lon="-98.74226333">
        <ele>1974.0</ele>
        <time>2019-10-12T16:38:22.918Z</time>
      </trkpt>
      <trkpt lat="20.23684" lon="-98.74224167">
        <ele>1973.0</ele>
        <time>2019-10-12T16:38:23.918Z</time>
      </trkpt>
      <trkpt lat="20.23685333" lon="-98.74222833">
        <ele>1972.0</ele>
        <time>2019-10-12T16:38:24.919Z</time>
      </trkpt>
      <trkpt lat="20.23686833" lon="-98.74222">
        <ele>1972.0</ele>
        <time>2019-10-12T16:38:25.919Z</time>
      </trkpt>
      <trkpt lat="20.236885" lon="-98.74221">
        <ele>1972.0</ele>
        <time>2019-10-12T16:38:26.919Z</time>
      </trkpt>
      <trkpt lat="20.2369" lon="-98.74219833">
        <ele>1971.0</ele>
        <time>2019-10-12T16:38:27.919Z</time>
      </trkpt>
      <trkpt lat="20.23691667" lon="-98.74218833">
        <ele>1971.0</ele>
        <time>2019-10-12T16:38:28.922Z</time>
      </trkpt>
      <trkpt lat="20.23692833" lon="-98.742175">
        <ele>1971.0</ele>
        <time>2019-10-12T16:38:29.925Z</time>
      </trkpt>
      <trkpt lat="20.23693833" lon="-98.74216">
        <ele>1971.0</ele>
        <time>2019-10-12T16:38:30.929Z</time>
      </trkpt>
      <trkpt lat="20.23694667" lon="-98.74214333">
        <ele>1971.0</ele>
        <time>2019-10-12T16:38:31.934Z</time>
      </trkpt>
      <trkpt lat="20.236955" lon="-98.74212667">
        <ele>1971.0</ele>
        <time>2019-10-12T16:38:32.941Z</time>
      </trkpt>
      <trkpt lat="20.23696333" lon="-98.74211333">
        <ele>1970.0</ele>
        <time>2019-10-12T16:38:33.945Z</time>
      </trkpt>
      <trkpt lat="20.236975" lon="-98.742095">
        <ele>1970.0</ele>
        <time>2019-10-12T16:38:34.953Z</time>
      </trkpt>
      <trkpt lat="20.23697833" lon="-98.742075">
        <ele>1969.0</ele>
        <time>2019-10-12T16:38:35.835Z</time>
      </trkpt>
      <trkpt lat="20.23698333" lon="-98.74206167">
        <ele>1969.0</ele>
        <time>2019-10-12T16:38:36.840Z</time>
      </trkpt>
      <trkpt lat="20.23698333" lon="-98.74204333">
        <ele>1968.0</ele>
        <time>2019-10-12T16:38:37.841Z</time>
      </trkpt>
      <trkpt lat="20.23698833" lon="-98.742025">
        <ele>1968.0</ele>
        <time>2019-10-12T16:38:38.846Z</time>
      </trkpt>
      <trkpt lat="20.23699667" lon="-98.74200167">
        <ele>1969.0</ele>
        <time>2019-10-12T16:38:39.853Z</time>
      </trkpt>
      <trkpt lat="20.23700833" lon="-98.74198167">
        <ele>1969.0</ele>
        <time>2019-10-12T16:38:40.854Z</time>
      </trkpt>
      <trkpt lat="20.23701833" lon="-98.74195833">
        <ele>1969.0</ele>
        <time>2019-10-12T16:38:41.859Z</time>
      </trkpt>
      <trkpt lat="20.237025" lon="-98.74194667">
        <ele>1971.0</ele>
        <time>2019-10-12T16:38:42.862Z</time>
      </trkpt>
      <trkpt lat="20.237035" lon="-98.74193833">
        <ele>1970.0</ele>
        <time>2019-10-12T16:38:43.862Z</time>
      </trkpt>
      <trkpt lat="20.23704" lon="-98.74193">
        <ele>1970.0</ele>
        <time>2019-10-12T16:38:44.863Z</time>
      </trkpt>
      <trkpt lat="20.237045" lon="-98.74191333">
        <ele>1969.0</ele>
        <time>2019-10-12T16:38:45.863Z</time>
      </trkpt>
      <trkpt lat="20.23704667" lon="-98.74189333">
        <ele>1969.0</ele>
        <time>2019-10-12T16:38:46.863Z</time>
      </trkpt>
      <trkpt lat="20.23705667" lon="-98.741875">
        <ele>1969.0</ele>
        <time>2019-10-12T16:38:47.864Z</time>
      </trkpt>
      <trkpt lat="20.23706833" lon="-98.74186">
        <ele>1970.0</ele>
        <time>2019-10-12T16:38:48.864Z</time>
      </trkpt>
      <trkpt lat="20.23708" lon="-98.74184667">
        <ele>1970.0</ele>
        <time>2019-10-12T16:38:49.864Z</time>
      </trkpt>
      <trkpt lat="20.23709667" lon="-98.74183167">
        <ele>1970.0</ele>
        <time>2019-10-12T16:38:50.865Z</time>
      </trkpt>
      <trkpt lat="20.23710667" lon="-98.74181833">
        <ele>1970.0</ele>
        <time>2019-10-12T16:38:51.865Z</time>
      </trkpt>
      <trkpt lat="20.237115" lon="-98.74179833">
        <ele>1970.0</ele>
        <time>2019-10-12T16:38:52.865Z</time>
      </trkpt>
      <trkpt lat="20.23712333" lon="-98.74177667">
        <ele>1971.0</ele>
        <time>2019-10-12T16:38:53.865Z</time>
      </trkpt>
      <trkpt lat="20.23713" lon="-98.74175833">
        <ele>1970.0</ele>
        <time>2019-10-12T16:38:54.867Z</time>
      </trkpt>
      <trkpt lat="20.237145" lon="-98.74174167">
        <ele>1971.0</ele>
        <time>2019-10-12T16:38:55.873Z</time>
      </trkpt>
      <trkpt lat="20.237155" lon="-98.74172167">
        <ele>1971.0</ele>
        <time>2019-10-12T16:38:56.876Z</time>
      </trkpt>
      <trkpt lat="20.23716167" lon="-98.74169833">
        <ele>1972.0</ele>
        <time>2019-10-12T16:38:57.882Z</time>
      </trkpt>
      <trkpt lat="20.23717" lon="-98.741675">
        <ele>1973.0</ele>
        <time>2019-10-12T16:38:58.887Z</time>
      </trkpt>
      <trkpt lat="20.23717167" lon="-98.74165667">
        <ele>1972.0</ele>
        <time>2019-10-12T16:38:59.891Z</time>
      </trkpt>
      <trkpt lat="20.23717833" lon="-98.74163833">
        <ele>1971.0</ele>
        <time>2019-10-12T16:39:00.896Z</time>
      </trkpt>
      <trkpt lat="20.23718667" lon="-98.741625">
        <ele>1970.0</ele>
        <time>2019-10-12T16:39:01.899Z</time>
      </trkpt>
      <trkpt lat="20.23719333" lon="-98.74160833">
        <ele>1969.0</ele>
        <time>2019-10-12T16:39:02.902Z</time>
      </trkpt>
      <trkpt lat="20.23720667" lon="-98.74159833">
        <ele>1968.0</ele>
        <time>2019-10-12T16:39:03.907Z</time>
      </trkpt>
      <trkpt lat="20.23722" lon="-98.74158">
        <ele>1968.0</ele>
        <time>2019-10-12T16:39:04.910Z</time>
      </trkpt>
      <trkpt lat="20.23723" lon="-98.74156333">
        <ele>1968.0</ele>
        <time>2019-10-12T16:39:05.916Z</time>
      </trkpt>
      <trkpt lat="20.237235" lon="-98.74154667">
        <ele>1968.0</ele>
        <time>2019-10-12T16:39:06.917Z</time>
      </trkpt>
      <trkpt lat="20.23724167" lon="-98.74153167">
        <ele>1968.0</ele>
        <time>2019-10-12T16:39:07.923Z</time>
      </trkpt>
      <trkpt lat="20.23724667" lon="-98.74151667">
        <ele>1968.0</ele>
        <time>2019-10-12T16:39:08.929Z</time>
      </trkpt>
      <trkpt lat="20.23725667" lon="-98.7415">
        <ele>1968.0</ele>
        <time>2019-10-12T16:39:09.933Z</time>
      </trkpt>
      <trkpt lat="20.237265" lon="-98.74148333">
        <ele>1968.0</ele>
        <time>2019-10-12T16:39:10.934Z</time>
      </trkpt>
      <trkpt lat="20.23727167" lon="-98.74146667">
        <ele>1969.0</ele>
        <time>2019-10-12T16:39:11.934Z</time>
      </trkpt>
      <trkpt lat="20.237275" lon="-98.74144667">
        <ele>1968.0</ele>
        <time>2019-10-12T16:39:12.934Z</time>
      </trkpt>
      <trkpt lat="20.23727667" lon="-98.74142833">
        <ele>1969.0</ele>
        <time>2019-10-12T16:39:13.935Z</time>
      </trkpt>
      <trkpt lat="20.23727833" lon="-98.74141">
        <ele>1969.0</ele>
        <time>2019-10-12T16:39:14.935Z</time>
      </trkpt>
      <trkpt lat="20.23727833" lon="-98.74139">
        <ele>1969.0</ele>
        <time>2019-10-12T16:39:15.935Z</time>
      </trkpt>
      <trkpt lat="20.23727667" lon="-98.74137333">
        <ele>1969.0</ele>
        <time>2019-10-12T16:39:16.936Z</time>
      </trkpt>
      <trkpt lat="20.237275" lon="-98.74135833">
        <ele>1969.0</ele>
        <time>2019-10-12T16:39:17.936Z</time>
      </trkpt>
      <trkpt lat="20.23728167" lon="-98.74134333">
        <ele>1970.0</ele>
        <time>2019-10-12T16:39:18.936Z</time>
      </trkpt>
      <trkpt lat="20.23728833" lon="-98.74132667">
        <ele>1970.0</ele>
        <time>2019-10-12T16:39:19.943Z</time>
      </trkpt>
      <trkpt lat="20.23729333" lon="-98.74131333">
        <ele>1970.0</ele>
        <time>2019-10-12T16:39:20.951Z</time>
      </trkpt>
      <trkpt lat="20.23730333" lon="-98.7413">
        <ele>1970.0</ele>
        <time>2019-10-12T16:39:21.833Z</time>
      </trkpt>
      <trkpt lat="20.237315" lon="-98.741285">
        <ele>1970.0</ele>
        <time>2019-10-12T16:39:22.839Z</time>
      </trkpt>
      <trkpt lat="20.23732833" lon="-98.74127167">
        <ele>1970.0</ele>
        <time>2019-10-12T16:39:23.845Z</time>
      </trkpt>
      <trkpt lat="20.23733667" lon="-98.74125833">
        <ele>1970.0</ele>
        <time>2019-10-12T16:39:24.852Z</time>
      </trkpt>
      <trkpt lat="20.237345" lon="-98.74124667">
        <ele>1971.0</ele>
        <time>2019-10-12T16:39:25.858Z</time>
      </trkpt>
      <trkpt lat="20.23735667" lon="-98.741235">
        <ele>1971.0</ele>
        <time>2019-10-12T16:39:26.865Z</time>
      </trkpt>
      <trkpt lat="20.23737" lon="-98.74122167">
        <ele>1971.0</ele>
        <time>2019-10-12T16:39:27.870Z</time>
      </trkpt>
      <trkpt lat="20.23737833" lon="-98.74120833">
        <ele>1972.0</ele>
        <time>2019-10-12T16:39:28.877Z</time>
      </trkpt>
      <trkpt lat="20.23738833" lon="-98.741195">
        <ele>1972.0</ele>
        <time>2019-10-12T16:39:29.878Z</time>
      </trkpt>
      <trkpt lat="20.23739833" lon="-98.74118167">
        <ele>1972.0</ele>
        <time>2019-10-12T16:39:30.878Z</time>
      </trkpt>
      <trkpt lat="20.23740667" lon="-98.74117">
        <ele>1972.0</ele>
        <time>2019-10-12T16:39:31.878Z</time>
      </trkpt>
      <trkpt lat="20.237415" lon="-98.74116333">
        <ele>1972.0</ele>
        <time>2019-10-12T16:39:32.879Z</time>
      </trkpt>
      <trkpt lat="20.23742667" lon="-98.74115833">
        <ele>1973.0</ele>
        <time>2019-10-12T16:39:33.879Z</time>
      </trkpt>
      <trkpt lat="20.23743667" lon="-98.74115167">
        <ele>1973.0</ele>
        <time>2019-10-12T16:39:34.880Z</time>
      </trkpt>
      <trkpt lat="20.237445" lon="-98.74114667">
        <ele>1973.0</ele>
        <time>2019-10-12T16:39:35.882Z</time>
      </trkpt>
      <trkpt lat="20.237455" lon="-98.74114167">
        <ele>1972.0</ele>
        <time>2019-10-12T16:39:36.887Z</time>
      </trkpt>
      <trkpt lat="20.23746833" lon="-98.74114167">
        <ele>1972.0</ele>
        <time>2019-10-12T16:39:37.889Z</time>
      </trkpt>
      <trkpt lat="20.23748333" lon="-98.74114667">
        <ele>1972.0</ele>
        <time>2019-10-12T16:39:38.896Z</time>
      </trkpt>
      <trkpt lat="20.23749" lon="-98.74115167">
        <ele>1971.0</ele>
        <time>2019-10-12T16:39:39.902Z</time>
      </trkpt>
      <trkpt lat="20.23749333" lon="-98.74115333">
        <ele>1972.0</ele>
        <time>2019-10-12T16:39:40.902Z</time>
      </trkpt>
      <trkpt lat="20.237495" lon="-98.741155">
        <ele>1973.0</ele>
        <time>2019-10-12T16:39:41.909Z</time>
      </trkpt>
      <trkpt lat="20.23749333" lon="-98.74115667">
        <ele>1974.0</ele>
        <time>2019-10-12T16:39:42.913Z</time>
      </trkpt>
      <trkpt lat="20.23749167" lon="-98.74116">
        <ele>1976.0</ele>
        <time>2019-10-12T16:39:43.916Z</time>
      </trkpt>
      <trkpt lat="20.23749167" lon="-98.74116333">
        <ele>1977.0</ele>
        <time>2019-10-12T16:39:44.923Z</time>
      </trkpt>
      <trkpt lat="20.237495" lon="-98.741165">
        <ele>1978.0</ele>
        <time>2019-10-12T16:39:45.929Z</time>
      </trkpt>
      <trkpt lat="20.237495" lon="-98.74116333">
        <ele>1977.0</ele>
        <time>2019-10-12T16:39:46.932Z</time>
      </trkpt>
      <trkpt lat="20.23749667" lon="-98.74116167">
        <ele>1977.0</ele>
        <time>2019-10-12T16:39:47.939Z</time>
      </trkpt>
      <trkpt lat="20.23749667" lon="-98.74116333">
        <ele>1977.0</ele>
        <time>2019-10-12T16:39:48.946Z</time>
      </trkpt>
      <trkpt lat="20.237495" lon="-98.741165">
        <ele>1977.0</ele>
        <time>2019-10-12T16:39:49.946Z</time>
      </trkpt>
      <trkpt lat="20.23749167" lon="-98.741165">
        <ele>1978.0</ele>
        <time>2019-10-12T16:39:50.947Z</time>
      </trkpt>
      <trkpt lat="20.23748667" lon="-98.741165">
        <ele>1979.0</ele>
        <time>2019-10-12T16:39:51.947Z</time>
      </trkpt>
      <trkpt lat="20.23748667" lon="-98.741165">
        <ele>1979.0</ele>
        <time>2019-10-12T16:39:52.947Z</time>
      </trkpt>
      <trkpt lat="20.23748667" lon="-98.741165">
        <ele>1979.0</ele>
        <time>2019-10-12T16:39:53.948Z</time>
      </trkpt>
      <trkpt lat="20.23748667" lon="-98.741165">
        <ele>1979.0</ele>
        <time>2019-10-12T16:39:54.948Z</time>
      </trkpt>
      <trkpt lat="20.23748667" lon="-98.741165">
        <ele>1979.0</ele>
        <time>2019-10-12T16:39:55.948Z</time>
      </trkpt>
      <trkpt lat="20.23749" lon="-98.74116667">
        <ele>1979.0</ele>
        <time>2019-10-12T16:39:56.949Z</time>
      </trkpt>
      <trkpt lat="20.23751" lon="-98.74116667">
        <ele>1978.0</ele>
        <time>2019-10-12T16:39:57.949Z</time>
      </trkpt>
      <trkpt lat="20.23753" lon="-98.74116833">
        <ele>1978.0</ele>
        <time>2019-10-12T16:39:58.949Z</time>
      </trkpt>
      <trkpt lat="20.237555" lon="-98.74116167">
        <ele>1978.0</ele>
        <time>2019-10-12T16:39:59.950Z</time>
      </trkpt>
      <trkpt lat="20.237575" lon="-98.74116167">
        <ele>1978.0</ele>
        <time>2019-10-12T16:40:00.950Z</time>
      </trkpt>
      <trkpt lat="20.23760167" lon="-98.74115833">
        <ele>1978.0</ele>
        <time>2019-10-12T16:40:01.950Z</time>
      </trkpt>
      <trkpt lat="20.23762667" lon="-98.741155">
        <ele>1978.0</ele>
        <time>2019-10-12T16:40:02.951Z</time>
      </trkpt>
      <trkpt lat="20.237655" lon="-98.74115333">
        <ele>1979.0</ele>
        <time>2019-10-12T16:40:03.951Z</time>
      </trkpt>
      <trkpt lat="20.237685" lon="-98.74115">
        <ele>1980.0</ele>
        <time>2019-10-12T16:40:04.951Z</time>
      </trkpt>
      <trkpt lat="20.23770667" lon="-98.74114667">
        <ele>1981.0</ele>
        <time>2019-10-12T16:40:05.952Z</time>
      </trkpt>
      <trkpt lat="20.23773" lon="-98.74114">
        <ele>1981.0</ele>
        <time>2019-10-12T16:40:06.952Z</time>
      </trkpt>
      <trkpt lat="20.237745" lon="-98.74113667">
        <ele>1982.0</ele>
        <time>2019-10-12T16:40:07.952Z</time>
      </trkpt>
      <trkpt lat="20.23776167" lon="-98.741135">
        <ele>1983.0</ele>
        <time>2019-10-12T16:40:08.953Z</time>
      </trkpt>
      <trkpt lat="20.23778" lon="-98.74113333">
        <ele>1983.0</ele>
        <time>2019-10-12T16:40:09.953Z</time>
      </trkpt>
      <trkpt lat="20.23780167" lon="-98.74112833">
        <ele>1984.0</ele>
        <time>2019-10-12T16:40:10.953Z</time>
      </trkpt>
      <trkpt lat="20.23782333" lon="-98.74112167">
        <ele>1984.0</ele>
        <time>2019-10-12T16:40:11.954Z</time>
      </trkpt>
      <trkpt lat="20.237845" lon="-98.74111667">
        <ele>1985.0</ele>
        <time>2019-10-12T16:40:12.954Z</time>
      </trkpt>
      <trkpt lat="20.23786667" lon="-98.74111167">
        <ele>1986.0</ele>
        <time>2019-10-12T16:40:13.830Z</time>
      </trkpt>
      <trkpt lat="20.237885" lon="-98.74110333">
        <ele>1987.0</ele>
        <time>2019-10-12T16:40:14.830Z</time>
      </trkpt>
      <trkpt lat="20.23790833" lon="-98.7411">
        <ele>1987.0</ele>
        <time>2019-10-12T16:40:15.830Z</time>
      </trkpt>
      <trkpt lat="20.23793" lon="-98.74109333">
        <ele>1988.0</ele>
        <time>2019-10-12T16:40:16.831Z</time>
      </trkpt>
      <trkpt lat="20.23794833" lon="-98.74108667">
        <ele>1989.0</ele>
        <time>2019-10-12T16:40:17.831Z</time>
      </trkpt>
      <trkpt lat="20.23796333" lon="-98.74107833">
        <ele>1988.0</ele>
        <time>2019-10-12T16:40:18.831Z</time>
      </trkpt>
      <trkpt lat="20.23798333" lon="-98.74107667">
        <ele>1988.0</ele>
        <time>2019-10-12T16:40:19.832Z</time>
      </trkpt>
      <trkpt lat="20.23800333" lon="-98.74107167">
        <ele>1986.0</ele>
        <time>2019-10-12T16:40:20.832Z</time>
      </trkpt>
      <trkpt lat="20.23802667" lon="-98.74107333">
        <ele>1986.0</ele>
        <time>2019-10-12T16:40:21.832Z</time>
      </trkpt>
      <trkpt lat="20.23805167" lon="-98.74107833">
        <ele>1986.0</ele>
        <time>2019-10-12T16:40:22.832Z</time>
      </trkpt>
      <trkpt lat="20.23807833" lon="-98.74109167">
        <ele>1988.0</ele>
        <time>2019-10-12T16:40:23.833Z</time>
      </trkpt>
      <trkpt lat="20.238105" lon="-98.7411">
        <ele>1989.0</ele>
        <time>2019-10-12T16:40:24.833Z</time>
      </trkpt>
      <trkpt lat="20.23812667" lon="-98.741105">
        <ele>1990.0</ele>
        <time>2019-10-12T16:40:25.834Z</time>
      </trkpt>
      <trkpt lat="20.23814667" lon="-98.74111">
        <ele>1990.0</ele>
        <time>2019-10-12T16:40:26.837Z</time>
      </trkpt>
      <trkpt lat="20.238165" lon="-98.74111">
        <ele>1990.0</ele>
        <time>2019-10-12T16:40:27.844Z</time>
      </trkpt>
      <trkpt lat="20.23818333" lon="-98.74111">
        <ele>1990.0</ele>
        <time>2019-10-12T16:40:28.847Z</time>
      </trkpt>
      <trkpt lat="20.238205" lon="-98.74110833">
        <ele>1989.0</ele>
        <time>2019-10-12T16:40:29.853Z</time>
      </trkpt>
      <trkpt lat="20.23822333" lon="-98.74111">
        <ele>1988.0</ele>
        <time>2019-10-12T16:40:30.856Z</time>
      </trkpt>
      <trkpt lat="20.238245" lon="-98.74111">
        <ele>1988.0</ele>
        <time>2019-10-12T16:40:31.857Z</time>
      </trkpt>
      <trkpt lat="20.23826333" lon="-98.74111">
        <ele>1987.0</ele>
        <time>2019-10-12T16:40:32.864Z</time>
      </trkpt>
      <trkpt lat="20.23828333" lon="-98.74111333">
        <ele>1987.0</ele>
        <time>2019-10-12T16:40:33.867Z</time>
      </trkpt>
      <trkpt lat="20.23830333" lon="-98.741115">
        <ele>1987.0</ele>
        <time>2019-10-12T16:40:34.868Z</time>
      </trkpt>
      <trkpt lat="20.238325" lon="-98.74112">
        <ele>1987.0</ele>
        <time>2019-10-12T16:40:35.874Z</time>
      </trkpt>
      <trkpt lat="20.23834833" lon="-98.741125">
        <ele>1988.0</ele>
        <time>2019-10-12T16:40:36.875Z</time>
      </trkpt>
      <trkpt lat="20.23837" lon="-98.74113">
        <ele>1988.0</ele>
        <time>2019-10-12T16:40:37.880Z</time>
      </trkpt>
      <trkpt lat="20.23839" lon="-98.74113167">
        <ele>1988.0</ele>
        <time>2019-10-12T16:40:38.886Z</time>
      </trkpt>
      <trkpt lat="20.23841" lon="-98.74113333">
        <ele>1988.0</ele>
        <time>2019-10-12T16:40:39.889Z</time>
      </trkpt>
      <trkpt lat="20.23843" lon="-98.74113167">
        <ele>1988.0</ele>
        <time>2019-10-12T16:40:40.896Z</time>
      </trkpt>
      <trkpt lat="20.23845" lon="-98.74113167">
        <ele>1988.0</ele>
        <time>2019-10-12T16:40:41.901Z</time>
      </trkpt>
      <trkpt lat="20.23847" lon="-98.741125">
        <ele>1987.0</ele>
        <time>2019-10-12T16:40:42.901Z</time>
      </trkpt>
      <trkpt lat="20.23849" lon="-98.741115">
        <ele>1986.0</ele>
        <time>2019-10-12T16:40:43.902Z</time>
      </trkpt>
      <trkpt lat="20.23851167" lon="-98.741105">
        <ele>1985.0</ele>
        <time>2019-10-12T16:40:44.902Z</time>
      </trkpt>
      <trkpt lat="20.23852833" lon="-98.741095">
        <ele>1985.0</ele>
        <time>2019-10-12T16:40:45.902Z</time>
      </trkpt>
      <trkpt lat="20.238545" lon="-98.74108167">
        <ele>1984.0</ele>
        <time>2019-10-12T16:40:46.903Z</time>
      </trkpt>
      <trkpt lat="20.23856" lon="-98.741065">
        <ele>1983.0</ele>
        <time>2019-10-12T16:40:47.903Z</time>
      </trkpt>
      <trkpt lat="20.23857167" lon="-98.741045">
        <ele>1983.0</ele>
        <time>2019-10-12T16:40:48.903Z</time>
      </trkpt>
      <trkpt lat="20.23858333" lon="-98.741025">
        <ele>1982.0</ele>
        <time>2019-10-12T16:40:49.904Z</time>
      </trkpt>
      <trkpt lat="20.23859833" lon="-98.741005">
        <ele>1981.0</ele>
        <time>2019-10-12T16:40:50.904Z</time>
      </trkpt>
      <trkpt lat="20.23861833" lon="-98.740985">
        <ele>1981.0</ele>
        <time>2019-10-12T16:40:51.904Z</time>
      </trkpt>
      <trkpt lat="20.23862833" lon="-98.74097">
        <ele>1980.0</ele>
        <time>2019-10-12T16:40:52.905Z</time>
      </trkpt>
      <trkpt lat="20.23864167" lon="-98.74095333">
        <ele>1979.0</ele>
        <time>2019-10-12T16:40:53.905Z</time>
      </trkpt>
      <trkpt lat="20.23865667" lon="-98.74094167">
        <ele>1979.0</ele>
        <time>2019-10-12T16:40:54.905Z</time>
      </trkpt>
      <trkpt lat="20.23867" lon="-98.74092833">
        <ele>1978.0</ele>
        <time>2019-10-12T16:40:55.906Z</time>
      </trkpt>
      <trkpt lat="20.23868333" lon="-98.740915">
        <ele>1979.0</ele>
        <time>2019-10-12T16:40:56.906Z</time>
      </trkpt>
      <trkpt lat="20.23869667" lon="-98.74090333">
        <ele>1979.0</ele>
        <time>2019-10-12T16:40:57.906Z</time>
      </trkpt>
      <trkpt lat="20.23871333" lon="-98.740895">
        <ele>1979.0</ele>
        <time>2019-10-12T16:40:58.906Z</time>
      </trkpt>
      <trkpt lat="20.23873" lon="-98.74089">
        <ele>1979.0</ele>
        <time>2019-10-12T16:40:59.907Z</time>
      </trkpt>
      <trkpt lat="20.23874833" lon="-98.74088167">
        <ele>1978.0</ele>
        <time>2019-10-12T16:41:00.907Z</time>
      </trkpt>
      <trkpt lat="20.23876833" lon="-98.74087667">
        <ele>1977.0</ele>
        <time>2019-10-12T16:41:01.907Z</time>
      </trkpt>
      <trkpt lat="20.23878833" lon="-98.74087833">
        <ele>1977.0</ele>
        <time>2019-10-12T16:41:02.907Z</time>
      </trkpt>
      <trkpt lat="20.23880833" lon="-98.74088">
        <ele>1976.0</ele>
        <time>2019-10-12T16:41:03.908Z</time>
      </trkpt>
      <trkpt lat="20.23883167" lon="-98.74088">
        <ele>1976.0</ele>
        <time>2019-10-12T16:41:04.908Z</time>
      </trkpt>
      <trkpt lat="20.23885167" lon="-98.74087667">
        <ele>1976.0</ele>
        <time>2019-10-12T16:41:05.908Z</time>
      </trkpt>
      <trkpt lat="20.23887333" lon="-98.74087333">
        <ele>1975.0</ele>
        <time>2019-10-12T16:41:06.912Z</time>
      </trkpt>
      <trkpt lat="20.238895" lon="-98.74086833">
        <ele>1975.0</ele>
        <time>2019-10-12T16:41:07.919Z</time>
      </trkpt>
      <trkpt lat="20.238915" lon="-98.74085833">
        <ele>1975.0</ele>
        <time>2019-10-12T16:41:08.926Z</time>
      </trkpt>
      <trkpt lat="20.23893167" lon="-98.74084667">
        <ele>1974.0</ele>
        <time>2019-10-12T16:41:09.930Z</time>
      </trkpt>
      <trkpt lat="20.238945" lon="-98.740835">
        <ele>1974.0</ele>
        <time>2019-10-12T16:41:10.930Z</time>
      </trkpt>
      <trkpt lat="20.23895833" lon="-98.74082167">
        <ele>1974.0</ele>
        <time>2019-10-12T16:41:11.936Z</time>
      </trkpt>
      <trkpt lat="20.23896167" lon="-98.74080833">
        <ele>1974.0</ele>
        <time>2019-10-12T16:41:12.942Z</time>
      </trkpt>
      <trkpt lat="20.23896167" lon="-98.74079333">
        <ele>1974.0</ele>
        <time>2019-10-12T16:41:13.945Z</time>
      </trkpt>
      <trkpt lat="20.23895833" lon="-98.74078">
        <ele>1973.0</ele>
        <time>2019-10-12T16:41:14.949Z</time>
      </trkpt>
      <trkpt lat="20.23895333" lon="-98.740765">
        <ele>1973.0</ele>
        <time>2019-10-12T16:41:15.830Z</time>
      </trkpt>
      <trkpt lat="20.238945" lon="-98.74074833">
        <ele>1972.0</ele>
        <time>2019-10-12T16:41:16.837Z</time>
      </trkpt>
      <trkpt lat="20.23893667" lon="-98.74073333">
        <ele>1972.0</ele>
        <time>2019-10-12T16:41:17.841Z</time>
      </trkpt>
      <trkpt lat="20.23893" lon="-98.74071833">
        <ele>1972.0</ele>
        <time>2019-10-12T16:41:18.845Z</time>
      </trkpt>
      <trkpt lat="20.23892667" lon="-98.74070333">
        <ele>1972.0</ele>
        <time>2019-10-12T16:41:19.848Z</time>
      </trkpt>
      <trkpt lat="20.23892333" lon="-98.74069333">
        <ele>1972.0</ele>
        <time>2019-10-12T16:41:20.849Z</time>
      </trkpt>
      <trkpt lat="20.23891667" lon="-98.74068167">
        <ele>1971.0</ele>
        <time>2019-10-12T16:41:21.849Z</time>
      </trkpt>
      <trkpt lat="20.23891167" lon="-98.74067">
        <ele>1972.0</ele>
        <time>2019-10-12T16:41:22.849Z</time>
      </trkpt>
      <trkpt lat="20.238905" lon="-98.74065833">
        <ele>1972.0</ele>
        <time>2019-10-12T16:41:23.849Z</time>
      </trkpt>
      <trkpt lat="20.238905" lon="-98.74065333">
        <ele>1973.0</ele>
        <time>2019-10-12T16:41:24.850Z</time>
      </trkpt>
      <trkpt lat="20.238905" lon="-98.74065">
        <ele>1973.0</ele>
        <time>2019-10-12T16:41:25.850Z</time>
      </trkpt>
      <trkpt lat="20.23890833" lon="-98.74064667">
        <ele>1973.0</ele>
        <time>2019-10-12T16:41:26.851Z</time>
      </trkpt>
      <trkpt lat="20.23890833" lon="-98.74064333">
        <ele>1973.0</ele>
        <time>2019-10-12T16:41:27.853Z</time>
      </trkpt>
      <trkpt lat="20.23891167" lon="-98.74063833">
        <ele>1973.0</ele>
        <time>2019-10-12T16:41:28.859Z</time>
      </trkpt>
      <trkpt lat="20.23891" lon="-98.74063667">
        <ele>1973.0</ele>
        <time>2019-10-12T16:41:29.862Z</time>
      </trkpt>
      <trkpt lat="20.23890833" lon="-98.740635">
        <ele>1973.0</ele>
        <time>2019-10-12T16:41:30.870Z</time>
      </trkpt>
      <trkpt lat="20.23890667" lon="-98.740635">
        <ele>1972.0</ele>
        <time>2019-10-12T16:41:31.876Z</time>
      </trkpt>
      <trkpt lat="20.238905" lon="-98.740635">
        <ele>1972.0</ele>
        <time>2019-10-12T16:41:32.881Z</time>
      </trkpt>
      <trkpt lat="20.23890667" lon="-98.740635">
        <ele>1972.0</ele>
        <time>2019-10-12T16:41:33.885Z</time>
      </trkpt>
      <trkpt lat="20.23890833" lon="-98.740635">
        <ele>1972.0</ele>
        <time>2019-10-12T16:41:34.890Z</time>
      </trkpt>
      <trkpt lat="20.23891" lon="-98.74063">
        <ele>1973.0</ele>
        <time>2019-10-12T16:41:35.897Z</time>
      </trkpt>
      <trkpt lat="20.23890833" lon="-98.74062167">
        <ele>1973.0</ele>
        <time>2019-10-12T16:41:36.902Z</time>
      </trkpt>
      <trkpt lat="20.23890667" lon="-98.74061333">
        <ele>1974.0</ele>
        <time>2019-10-12T16:41:37.908Z</time>
      </trkpt>
      <trkpt lat="20.23890667" lon="-98.74060167">
        <ele>1973.0</ele>
        <time>2019-10-12T16:41:38.910Z</time>
      </trkpt>
      <trkpt lat="20.23890333" lon="-98.74058833">
        <ele>1973.0</ele>
        <time>2019-10-12T16:41:39.917Z</time>
      </trkpt>
      <trkpt lat="20.2389" lon="-98.74057833">
        <ele>1973.0</ele>
        <time>2019-10-12T16:41:40.917Z</time>
      </trkpt>
      <trkpt lat="20.23889667" lon="-98.74056667">
        <ele>1974.0</ele>
        <time>2019-10-12T16:41:41.918Z</time>
      </trkpt>
      <trkpt lat="20.23889333" lon="-98.740555">
        <ele>1974.0</ele>
        <time>2019-10-12T16:41:42.918Z</time>
      </trkpt>
      <trkpt lat="20.23889333" lon="-98.74054333">
        <ele>1974.0</ele>
        <time>2019-10-12T16:41:43.918Z</time>
      </trkpt>
      <trkpt lat="20.23888667" lon="-98.74053167">
        <ele>1974.0</ele>
        <time>2019-10-12T16:41:44.918Z</time>
      </trkpt>
      <trkpt lat="20.23888167" lon="-98.74052167">
        <ele>1974.0</ele>
        <time>2019-10-12T16:41:45.919Z</time>
      </trkpt>
      <trkpt lat="20.23887667" lon="-98.740515">
        <ele>1974.0</ele>
        <time>2019-10-12T16:41:46.919Z</time>
      </trkpt>
      <trkpt lat="20.23887333" lon="-98.740505">
        <ele>1974.0</ele>
        <time>2019-10-12T16:41:47.919Z</time>
      </trkpt>
      <trkpt lat="20.23887167" lon="-98.740495">
        <ele>1974.0</ele>
        <time>2019-10-12T16:41:48.919Z</time>
      </trkpt>
      <trkpt lat="20.23887167" lon="-98.740485">
        <ele>1974.0</ele>
        <time>2019-10-12T16:41:49.919Z</time>
      </trkpt>
      <trkpt lat="20.23887167" lon="-98.74047833">
        <ele>1974.0</ele>
        <time>2019-10-12T16:41:50.920Z</time>
      </trkpt>
      <trkpt lat="20.23887" lon="-98.74047167">
        <ele>1974.0</ele>
        <time>2019-10-12T16:41:51.920Z</time>
      </trkpt>
      <trkpt lat="20.23886667" lon="-98.74046333">
        <ele>1974.0</ele>
        <time>2019-10-12T16:41:52.927Z</time>
      </trkpt>
      <trkpt lat="20.23886333" lon="-98.740455">
        <ele>1974.0</ele>
        <time>2019-10-12T16:41:53.932Z</time>
      </trkpt>
      <trkpt lat="20.23885667" lon="-98.74044667">
        <ele>1975.0</ele>
        <time>2019-10-12T16:41:54.935Z</time>
      </trkpt>
      <trkpt lat="20.23885" lon="-98.74043833">
        <ele>1975.0</ele>
        <time>2019-10-12T16:41:55.937Z</time>
      </trkpt>
      <trkpt lat="20.23884167" lon="-98.74042833">
        <ele>1975.0</ele>
        <time>2019-10-12T16:41:56.942Z</time>
      </trkpt>
      <trkpt lat="20.238835" lon="-98.74042167">
        <ele>1975.0</ele>
        <time>2019-10-12T16:41:57.942Z</time>
      </trkpt>
      <trkpt lat="20.23882833" lon="-98.74041667">
        <ele>1975.0</ele>
        <time>2019-10-12T16:41:58.942Z</time>
      </trkpt>
      <trkpt lat="20.23882" lon="-98.74040833">
        <ele>1975.0</ele>
        <time>2019-10-12T16:41:59.950Z</time>
      </trkpt>
      <trkpt lat="20.23881333" lon="-98.7404">
        <ele>1975.0</ele>
        <time>2019-10-12T16:42:00.832Z</time>
      </trkpt>
      <trkpt lat="20.23880833" lon="-98.74039167">
        <ele>1975.0</ele>
        <time>2019-10-12T16:42:01.838Z</time>
      </trkpt>
      <trkpt lat="20.23880667" lon="-98.740385">
        <ele>1976.0</ele>
        <time>2019-10-12T16:42:02.840Z</time>
      </trkpt>
      <trkpt lat="20.238805" lon="-98.74038167">
        <ele>1976.0</ele>
        <time>2019-10-12T16:42:03.843Z</time>
      </trkpt>
      <trkpt lat="20.2388" lon="-98.74037667">
        <ele>1976.0</ele>
        <time>2019-10-12T16:42:04.848Z</time>
      </trkpt>
      <trkpt lat="20.23879333" lon="-98.74037">
        <ele>1977.0</ele>
        <time>2019-10-12T16:42:05.855Z</time>
      </trkpt>
      <trkpt lat="20.23878833" lon="-98.74036667">
        <ele>1977.0</ele>
        <time>2019-10-12T16:42:06.858Z</time>
      </trkpt>
      <trkpt lat="20.238785" lon="-98.740365">
        <ele>1978.0</ele>
        <time>2019-10-12T16:42:07.860Z</time>
      </trkpt>
      <trkpt lat="20.23878167" lon="-98.74036333">
        <ele>1978.0</ele>
        <time>2019-10-12T16:42:08.860Z</time>
      </trkpt>
      <trkpt lat="20.23877833" lon="-98.74036333">
        <ele>1979.0</ele>
        <time>2019-10-12T16:42:09.860Z</time>
      </trkpt>
      <trkpt lat="20.23877667" lon="-98.74036">
        <ele>1979.0</ele>
        <time>2019-10-12T16:42:10.860Z</time>
      </trkpt>
      <trkpt lat="20.23877" lon="-98.740355">
        <ele>1980.0</ele>
        <time>2019-10-12T16:42:11.860Z</time>
      </trkpt>
      <trkpt lat="20.23876667" lon="-98.74035333">
        <ele>1981.0</ele>
        <time>2019-10-12T16:42:12.860Z</time>
      </trkpt>
      <trkpt lat="20.23876167" lon="-98.74035">
        <ele>1980.0</ele>
        <time>2019-10-12T16:42:13.860Z</time>
      </trkpt>
      <trkpt lat="20.238755" lon="-98.74035">
        <ele>1980.0</ele>
        <time>2019-10-12T16:42:14.862Z</time>
      </trkpt>
      <trkpt lat="20.23874833" lon="-98.74035">
        <ele>1980.0</ele>
        <time>2019-10-12T16:42:15.862Z</time>
      </trkpt>
      <trkpt lat="20.23874333" lon="-98.74034833">
        <ele>1980.0</ele>
        <time>2019-10-12T16:42:16.863Z</time>
      </trkpt>
      <trkpt lat="20.23874167" lon="-98.74034833">
        <ele>1980.0</ele>
        <time>2019-10-12T16:42:17.864Z</time>
      </trkpt>
      <trkpt lat="20.238735" lon="-98.74034833">
        <ele>1980.0</ele>
        <time>2019-10-12T16:42:18.864Z</time>
      </trkpt>
      <trkpt lat="20.23872667" lon="-98.74034833">
        <ele>1981.0</ele>
        <time>2019-10-12T16:42:19.864Z</time>
      </trkpt>
      <trkpt lat="20.23872167" lon="-98.74035333">
        <ele>1981.0</ele>
        <time>2019-10-12T16:42:20.864Z</time>
      </trkpt>
      <trkpt lat="20.23871333" lon="-98.74036">
        <ele>1982.0</ele>
        <time>2019-10-12T16:42:21.864Z</time>
      </trkpt>
      <trkpt lat="20.238705" lon="-98.74037">
        <ele>1982.0</ele>
        <time>2019-10-12T16:42:22.865Z</time>
      </trkpt>
      <trkpt lat="20.23869667" lon="-98.74037667">
        <ele>1983.0</ele>
        <time>2019-10-12T16:42:23.865Z</time>
      </trkpt>
      <trkpt lat="20.23869167" lon="-98.740385">
        <ele>1983.0</ele>
        <time>2019-10-12T16:42:24.865Z</time>
      </trkpt>
      <trkpt lat="20.23868667" lon="-98.74039167">
        <ele>1983.0</ele>
        <time>2019-10-12T16:42:25.865Z</time>
      </trkpt>
      <trkpt lat="20.23868333" lon="-98.7404">
        <ele>1983.0</ele>
        <time>2019-10-12T16:42:26.866Z</time>
      </trkpt>
      <trkpt lat="20.23867833" lon="-98.74040833">
        <ele>1983.0</ele>
        <time>2019-10-12T16:42:27.866Z</time>
      </trkpt>
      <trkpt lat="20.23867333" lon="-98.74041833">
        <ele>1984.0</ele>
        <time>2019-10-12T16:42:28.866Z</time>
      </trkpt>
      <trkpt lat="20.23866833" lon="-98.74042667">
        <ele>1985.0</ele>
        <time>2019-10-12T16:42:29.866Z</time>
      </trkpt>
      <trkpt lat="20.23866" lon="-98.74043333">
        <ele>1985.0</ele>
        <time>2019-10-12T16:42:30.867Z</time>
      </trkpt>
      <trkpt lat="20.23865167" lon="-98.74043667">
        <ele>1986.0</ele>
        <time>2019-10-12T16:42:31.867Z</time>
      </trkpt>
      <trkpt lat="20.23864333" lon="-98.74044">
        <ele>1986.0</ele>
        <time>2019-10-12T16:42:32.867Z</time>
      </trkpt>
      <trkpt lat="20.23863167" lon="-98.74044333">
        <ele>1986.0</ele>
        <time>2019-10-12T16:42:33.867Z</time>
      </trkpt>
      <trkpt lat="20.238625" lon="-98.74044833">
        <ele>1986.0</ele>
        <time>2019-10-12T16:42:34.867Z</time>
      </trkpt>
      <trkpt lat="20.23862" lon="-98.74045833">
        <ele>1985.0</ele>
        <time>2019-10-12T16:42:35.871Z</time>
      </trkpt>
      <trkpt lat="20.23861167" lon="-98.740465">
        <ele>1984.0</ele>
        <time>2019-10-12T16:42:36.875Z</time>
      </trkpt>
      <trkpt lat="20.23860667" lon="-98.74046833">
        <ele>1985.0</ele>
        <time>2019-10-12T16:42:37.880Z</time>
      </trkpt>
      <trkpt lat="20.2386" lon="-98.74047">
        <ele>1985.0</ele>
        <time>2019-10-12T16:42:38.885Z</time>
      </trkpt>
      <trkpt lat="20.23859" lon="-98.74047167">
        <ele>1985.0</ele>
        <time>2019-10-12T16:42:39.890Z</time>
      </trkpt>
      <trkpt lat="20.23858333" lon="-98.740475">
        <ele>1985.0</ele>
        <time>2019-10-12T16:42:40.892Z</time>
      </trkpt>
      <trkpt lat="20.23857333" lon="-98.74048">
        <ele>1986.0</ele>
        <time>2019-10-12T16:42:41.899Z</time>
      </trkpt>
      <trkpt lat="20.23856667" lon="-98.74048333">
        <ele>1986.0</ele>
        <time>2019-10-12T16:42:42.903Z</time>
      </trkpt>
      <trkpt lat="20.23855667" lon="-98.74048333">
        <ele>1986.0</ele>
        <time>2019-10-12T16:42:43.909Z</time>
      </trkpt>
      <trkpt lat="20.23855" lon="-98.74048667">
        <ele>1986.0</ele>
        <time>2019-10-12T16:42:44.913Z</time>
      </trkpt>
      <trkpt lat="20.23854333" lon="-98.74049167">
        <ele>1986.0</ele>
        <time>2019-10-12T16:42:45.918Z</time>
      </trkpt>
      <trkpt lat="20.23853667" lon="-98.740495">
        <ele>1986.0</ele>
        <time>2019-10-12T16:42:46.922Z</time>
      </trkpt>
      <trkpt lat="20.23852833" lon="-98.74049833">
        <ele>1986.0</ele>
        <time>2019-10-12T16:42:47.928Z</time>
      </trkpt>
      <trkpt lat="20.23852333" lon="-98.7405">
        <ele>1985.0</ele>
        <time>2019-10-12T16:42:48.930Z</time>
      </trkpt>
      <trkpt lat="20.23852333" lon="-98.740505">
        <ele>1986.0</ele>
        <time>2019-10-12T16:42:49.935Z</time>
      </trkpt>
      <trkpt lat="20.23852" lon="-98.740505">
        <ele>1986.0</ele>
        <time>2019-10-12T16:42:50.936Z</time>
      </trkpt>
      <trkpt lat="20.23851667" lon="-98.740505">
        <ele>1986.0</ele>
        <time>2019-10-12T16:42:51.937Z</time>
      </trkpt>
      <trkpt lat="20.23851" lon="-98.74050333">
        <ele>1987.0</ele>
        <time>2019-10-12T16:42:52.937Z</time>
      </trkpt>
      <trkpt lat="20.23850167" lon="-98.74050167">
        <ele>1986.0</ele>
        <time>2019-10-12T16:42:53.938Z</time>
      </trkpt>
      <trkpt lat="20.238495" lon="-98.7405">
        <ele>1987.0</ele>
        <time>2019-10-12T16:42:54.938Z</time>
      </trkpt>
      <trkpt lat="20.238485" lon="-98.74049667">
        <ele>1986.0</ele>
        <time>2019-10-12T16:42:55.945Z</time>
      </trkpt>
      <trkpt lat="20.23848" lon="-98.740495">
        <ele>1986.0</ele>
        <time>2019-10-12T16:42:56.952Z</time>
      </trkpt>
      <trkpt lat="20.23846833" lon="-98.74048667">
        <ele>1986.0</ele>
        <time>2019-10-12T16:42:57.832Z</time>
      </trkpt>
      <trkpt lat="20.23846" lon="-98.74047833">
        <ele>1987.0</ele>
        <time>2019-10-12T16:42:58.837Z</time>
      </trkpt>
      <trkpt lat="20.23845333" lon="-98.74047167">
        <ele>1988.0</ele>
        <time>2019-10-12T16:42:59.841Z</time>
      </trkpt>
      <trkpt lat="20.23844833" lon="-98.74046167">
        <ele>1988.0</ele>
        <time>2019-10-12T16:43:00.848Z</time>
      </trkpt>
      <trkpt lat="20.23844667" lon="-98.740455">
        <ele>1987.0</ele>
        <time>2019-10-12T16:43:01.853Z</time>
      </trkpt>
      <trkpt lat="20.23844667" lon="-98.74045">
        <ele>1987.0</ele>
        <time>2019-10-12T16:43:02.860Z</time>
      </trkpt>
      <trkpt lat="20.23844" lon="-98.740445">
        <ele>1988.0</ele>
        <time>2019-10-12T16:43:03.865Z</time>
      </trkpt>
      <trkpt lat="20.23843333" lon="-98.74044167">
        <ele>1988.0</ele>
        <time>2019-10-12T16:43:04.868Z</time>
      </trkpt>
      <trkpt lat="20.23842667" lon="-98.74043167">
        <ele>1988.0</ele>
        <time>2019-10-12T16:43:05.875Z</time>
      </trkpt>
      <trkpt lat="20.23842333" lon="-98.740425">
        <ele>1988.0</ele>
        <time>2019-10-12T16:43:06.880Z</time>
      </trkpt>
      <trkpt lat="20.23842" lon="-98.74041333">
        <ele>1988.0</ele>
        <time>2019-10-12T16:43:07.885Z</time>
      </trkpt>
      <trkpt lat="20.23841833" lon="-98.74040667">
        <ele>1988.0</ele>
        <time>2019-10-12T16:43:08.891Z</time>
      </trkpt>
      <trkpt lat="20.238415" lon="-98.74039833">
        <ele>1988.0</ele>
        <time>2019-10-12T16:43:09.898Z</time>
      </trkpt>
      <trkpt lat="20.238415" lon="-98.74039">
        <ele>1988.0</ele>
        <time>2019-10-12T16:43:10.903Z</time>
      </trkpt>
      <trkpt lat="20.23841833" lon="-98.74038">
        <ele>1988.0</ele>
        <time>2019-10-12T16:43:11.912Z</time>
      </trkpt>
      <trkpt lat="20.23842" lon="-98.74037">
        <ele>1988.0</ele>
        <time>2019-10-12T16:43:12.917Z</time>
      </trkpt>
      <trkpt lat="20.23842667" lon="-98.74036167">
        <ele>1988.0</ele>
        <time>2019-10-12T16:43:13.924Z</time>
      </trkpt>
      <trkpt lat="20.23843" lon="-98.740355">
        <ele>1988.0</ele>
        <time>2019-10-12T16:43:14.929Z</time>
      </trkpt>
      <trkpt lat="20.23843167" lon="-98.74034667">
        <ele>1987.0</ele>
        <time>2019-10-12T16:43:15.932Z</time>
      </trkpt>
      <trkpt lat="20.23843333" lon="-98.74033667">
        <ele>1987.0</ele>
        <time>2019-10-12T16:43:16.938Z</time>
      </trkpt>
      <trkpt lat="20.23843667" lon="-98.74032667">
        <ele>1988.0</ele>
        <time>2019-10-12T16:43:17.944Z</time>
      </trkpt>
      <trkpt lat="20.23844333" lon="-98.740315">
        <ele>1988.0</ele>
        <time>2019-10-12T16:43:18.950Z</time>
      </trkpt>
      <trkpt lat="20.23844667" lon="-98.74030667">
        <ele>1989.0</ele>
        <time>2019-10-12T16:43:19.830Z</time>
      </trkpt>
      <trkpt lat="20.23845167" lon="-98.740295">
        <ele>1989.0</ele>
        <time>2019-10-12T16:43:20.837Z</time>
      </trkpt>
      <trkpt lat="20.238455" lon="-98.740285">
        <ele>1989.0</ele>
        <time>2019-10-12T16:43:21.841Z</time>
      </trkpt>
      <trkpt lat="20.23845833" lon="-98.74027333">
        <ele>1990.0</ele>
        <time>2019-10-12T16:43:22.846Z</time>
      </trkpt>
      <trkpt lat="20.23846333" lon="-98.74026333">
        <ele>1990.0</ele>
        <time>2019-10-12T16:43:23.850Z</time>
      </trkpt>
      <trkpt lat="20.23846667" lon="-98.74025333">
        <ele>1991.0</ele>
        <time>2019-10-12T16:43:24.852Z</time>
      </trkpt>
      <trkpt lat="20.23847" lon="-98.74024167">
        <ele>1992.0</ele>
        <time>2019-10-12T16:43:25.857Z</time>
      </trkpt>
      <trkpt lat="20.23847333" lon="-98.74023167">
        <ele>1992.0</ele>
        <time>2019-10-12T16:43:26.864Z</time>
      </trkpt>
      <trkpt lat="20.23847833" lon="-98.74022167">
        <ele>1992.0</ele>
        <time>2019-10-12T16:43:27.870Z</time>
      </trkpt>
      <trkpt lat="20.23848333" lon="-98.74021">
        <ele>1993.0</ele>
        <time>2019-10-12T16:43:28.874Z</time>
      </trkpt>
      <trkpt lat="20.23848833" lon="-98.7402">
        <ele>1994.0</ele>
        <time>2019-10-12T16:43:29.879Z</time>
      </trkpt>
      <trkpt lat="20.23849333" lon="-98.74019167">
        <ele>1994.0</ele>
        <time>2019-10-12T16:43:30.882Z</time>
      </trkpt>
      <trkpt lat="20.238495" lon="-98.74018333">
        <ele>1994.0</ele>
        <time>2019-10-12T16:43:31.889Z</time>
      </trkpt>
      <trkpt lat="20.238495" lon="-98.74017333">
        <ele>1994.0</ele>
        <time>2019-10-12T16:43:32.893Z</time>
      </trkpt>
      <trkpt lat="20.238495" lon="-98.74016167">
        <ele>1994.0</ele>
        <time>2019-10-12T16:43:33.894Z</time>
      </trkpt>
      <trkpt lat="20.23850167" lon="-98.74015">
        <ele>1995.0</ele>
        <time>2019-10-12T16:43:34.895Z</time>
      </trkpt>
      <trkpt lat="20.23850333" lon="-98.74013833">
        <ele>1995.0</ele>
        <time>2019-10-12T16:43:35.895Z</time>
      </trkpt>
      <trkpt lat="20.23850667" lon="-98.74012833">
        <ele>1996.0</ele>
        <time>2019-10-12T16:43:36.896Z</time>
      </trkpt>
      <trkpt lat="20.23850833" lon="-98.74012">
        <ele>1997.0</ele>
        <time>2019-10-12T16:43:37.897Z</time>
      </trkpt>
      <trkpt lat="20.23851" lon="-98.74011167">
        <ele>1998.0</ele>
        <time>2019-10-12T16:43:38.897Z</time>
      </trkpt>
      <trkpt lat="20.238505" lon="-98.74009833">
        <ele>1999.0</ele>
        <time>2019-10-12T16:43:39.903Z</time>
      </trkpt>
      <trkpt lat="20.23850333" lon="-98.74008833">
        <ele>1999.0</ele>
        <time>2019-10-12T16:43:40.909Z</time>
      </trkpt>
      <trkpt lat="20.2385" lon="-98.74007833">
        <ele>1999.0</ele>
        <time>2019-10-12T16:43:41.916Z</time>
      </trkpt>
      <trkpt lat="20.23849667" lon="-98.74006833">
        <ele>2000.0</ele>
        <time>2019-10-12T16:43:42.921Z</time>
      </trkpt>
      <trkpt lat="20.23849333" lon="-98.74005833">
        <ele>2000.0</ele>
        <time>2019-10-12T16:43:43.922Z</time>
      </trkpt>
      <trkpt lat="20.23849333" lon="-98.74004833">
        <ele>1999.0</ele>
        <time>2019-10-12T16:43:44.923Z</time>
      </trkpt>
      <trkpt lat="20.23849333" lon="-98.74003833">
        <ele>1999.0</ele>
        <time>2019-10-12T16:43:45.926Z</time>
      </trkpt>
      <trkpt lat="20.23849667" lon="-98.74003">
        <ele>2000.0</ele>
        <time>2019-10-12T16:43:46.933Z</time>
      </trkpt>
      <trkpt lat="20.23849833" lon="-98.74002333">
        <ele>2000.0</ele>
        <time>2019-10-12T16:43:47.938Z</time>
      </trkpt>
      <trkpt lat="20.23849833" lon="-98.740015">
        <ele>2000.0</ele>
        <time>2019-10-12T16:43:48.945Z</time>
      </trkpt>
      <trkpt lat="20.23850167" lon="-98.74000667">
        <ele>2001.0</ele>
        <time>2019-10-12T16:43:49.951Z</time>
      </trkpt>
      <trkpt lat="20.23850333" lon="-98.73999833">
        <ele>2001.0</ele>
        <time>2019-10-12T16:43:50.952Z</time>
      </trkpt>
      <trkpt lat="20.23850167" lon="-98.73999">
        <ele>2001.0</ele>
        <time>2019-10-12T16:43:51.833Z</time>
      </trkpt>
      <trkpt lat="20.23850167" lon="-98.73998167">
        <ele>2002.0</ele>
        <time>2019-10-12T16:43:52.838Z</time>
      </trkpt>
      <trkpt lat="20.23850333" lon="-98.73997333">
        <ele>2002.0</ele>
        <time>2019-10-12T16:43:53.844Z</time>
      </trkpt>
      <trkpt lat="20.23850333" lon="-98.739965">
        <ele>2002.0</ele>
        <time>2019-10-12T16:43:54.847Z</time>
      </trkpt>
      <trkpt lat="20.23850333" lon="-98.73995667">
        <ele>2003.0</ele>
        <time>2019-10-12T16:43:55.848Z</time>
      </trkpt>
      <trkpt lat="20.2385" lon="-98.73995">
        <ele>2003.0</ele>
        <time>2019-10-12T16:43:56.849Z</time>
      </trkpt>
      <trkpt lat="20.23850167" lon="-98.73994333">
        <ele>2003.0</ele>
        <time>2019-10-12T16:43:57.851Z</time>
      </trkpt>
      <trkpt lat="20.23850333" lon="-98.73993333">
        <ele>2003.0</ele>
        <time>2019-10-12T16:43:58.858Z</time>
      </trkpt>
      <trkpt lat="20.238505" lon="-98.739925">
        <ele>2003.0</ele>
        <time>2019-10-12T16:43:59.861Z</time>
      </trkpt>
      <trkpt lat="20.23850167" lon="-98.73991667">
        <ele>2004.0</ele>
        <time>2019-10-12T16:44:00.866Z</time>
      </trkpt>
      <trkpt lat="20.23849667" lon="-98.73990667">
        <ele>2004.0</ele>
        <time>2019-10-12T16:44:01.871Z</time>
      </trkpt>
      <trkpt lat="20.23849167" lon="-98.739895">
        <ele>2004.0</ele>
        <time>2019-10-12T16:44:02.878Z</time>
      </trkpt>
      <trkpt lat="20.23849" lon="-98.73988333">
        <ele>2005.0</ele>
        <time>2019-10-12T16:44:03.884Z</time>
      </trkpt>
      <trkpt lat="20.23848667" lon="-98.73987">
        <ele>2006.0</ele>
        <time>2019-10-12T16:44:04.886Z</time>
      </trkpt>
      <trkpt lat="20.238485" lon="-98.73985833">
        <ele>2006.0</ele>
        <time>2019-10-12T16:44:05.890Z</time>
      </trkpt>
      <trkpt lat="20.23848167" lon="-98.73984833">
        <ele>2006.0</ele>
        <time>2019-10-12T16:44:06.892Z</time>
      </trkpt>
      <trkpt lat="20.23847333" lon="-98.73983667">
        <ele>2005.0</ele>
        <time>2019-10-12T16:44:07.897Z</time>
      </trkpt>
      <trkpt lat="20.238475" lon="-98.739825">
        <ele>2006.0</ele>
        <time>2019-10-12T16:44:08.900Z</time>
      </trkpt>
      <trkpt lat="20.23847833" lon="-98.73981667">
        <ele>2007.0</ele>
        <time>2019-10-12T16:44:09.904Z</time>
      </trkpt>
      <trkpt lat="20.23848" lon="-98.739805">
        <ele>2007.0</ele>
        <time>2019-10-12T16:44:10.911Z</time>
      </trkpt>
      <trkpt lat="20.23848167" lon="-98.739795">
        <ele>2008.0</ele>
        <time>2019-10-12T16:44:11.918Z</time>
      </trkpt>
      <trkpt lat="20.238485" lon="-98.739785">
        <ele>2008.0</ele>
        <time>2019-10-12T16:44:12.923Z</time>
      </trkpt>
      <trkpt lat="20.23848333" lon="-98.73977167">
        <ele>2009.0</ele>
        <time>2019-10-12T16:44:13.924Z</time>
      </trkpt>
      <trkpt lat="20.238485" lon="-98.73976167">
        <ele>2009.0</ele>
        <time>2019-10-12T16:44:14.925Z</time>
      </trkpt>
      <trkpt lat="20.238485" lon="-98.73975167">
        <ele>2009.0</ele>
        <time>2019-10-12T16:44:15.928Z</time>
      </trkpt>
      <trkpt lat="20.23848" lon="-98.73974">
        <ele>2009.0</ele>
        <time>2019-10-12T16:44:16.934Z</time>
      </trkpt>
      <trkpt lat="20.23847" lon="-98.739725">
        <ele>2009.0</ele>
        <time>2019-10-12T16:44:17.941Z</time>
      </trkpt>
      <trkpt lat="20.238465" lon="-98.73971333">
        <ele>2009.0</ele>
        <time>2019-10-12T16:44:18.947Z</time>
      </trkpt>
      <trkpt lat="20.23847" lon="-98.73971">
        <ele>2010.0</ele>
        <time>2019-10-12T16:44:19.952Z</time>
      </trkpt>
      <trkpt lat="20.23848" lon="-98.73970833">
        <ele>2012.0</ele>
        <time>2019-10-12T16:44:20.834Z</time>
      </trkpt>
      <trkpt lat="20.238485" lon="-98.739705">
        <ele>2013.0</ele>
        <time>2019-10-12T16:44:21.839Z</time>
      </trkpt>
      <trkpt lat="20.23847833" lon="-98.73970333">
        <ele>2015.0</ele>
        <time>2019-10-12T16:44:22.846Z</time>
      </trkpt>
      <trkpt lat="20.23847167" lon="-98.7397">
        <ele>2015.0</ele>
        <time>2019-10-12T16:44:23.853Z</time>
      </trkpt>
      <trkpt lat="20.23847167" lon="-98.73969333">
        <ele>2015.0</ele>
        <time>2019-10-12T16:44:24.856Z</time>
      </trkpt>
      <trkpt lat="20.23847" lon="-98.739685">
        <ele>2015.0</ele>
        <time>2019-10-12T16:44:25.862Z</time>
      </trkpt>
      <trkpt lat="20.23847" lon="-98.73967833">
        <ele>2016.0</ele>
        <time>2019-10-12T16:44:26.866Z</time>
      </trkpt>
      <trkpt lat="20.23847333" lon="-98.73966833">
        <ele>2017.0</ele>
        <time>2019-10-12T16:44:27.870Z</time>
      </trkpt>
      <trkpt lat="20.23847" lon="-98.73966167">
        <ele>2018.0</ele>
        <time>2019-10-12T16:44:28.874Z</time>
      </trkpt>
      <trkpt lat="20.23846667" lon="-98.739655">
        <ele>2018.0</ele>
        <time>2019-10-12T16:44:29.875Z</time>
      </trkpt>
      <trkpt lat="20.23845833" lon="-98.73964667">
        <ele>2018.0</ele>
        <time>2019-10-12T16:44:30.875Z</time>
      </trkpt>
      <trkpt lat="20.23845667" lon="-98.73964">
        <ele>2018.0</ele>
        <time>2019-10-12T16:44:31.876Z</time>
      </trkpt>
      <trkpt lat="20.23845667" lon="-98.73963">
        <ele>2018.0</ele>
        <time>2019-10-12T16:44:32.876Z</time>
      </trkpt>
      <trkpt lat="20.238455" lon="-98.73962167">
        <ele>2018.0</ele>
        <time>2019-10-12T16:44:33.877Z</time>
      </trkpt>
      <trkpt lat="20.23845333" lon="-98.73961333">
        <ele>2018.0</ele>
        <time>2019-10-12T16:44:34.878Z</time>
      </trkpt>
      <trkpt lat="20.23844833" lon="-98.73960333">
        <ele>2017.0</ele>
        <time>2019-10-12T16:44:35.880Z</time>
      </trkpt>
      <trkpt lat="20.23844333" lon="-98.739595">
        <ele>2017.0</ele>
        <time>2019-10-12T16:44:36.885Z</time>
      </trkpt>
      <trkpt lat="20.23844333" lon="-98.73958833">
        <ele>2016.0</ele>
        <time>2019-10-12T16:44:37.892Z</time>
      </trkpt>
      <trkpt lat="20.23845" lon="-98.739585">
        <ele>2016.0</ele>
        <time>2019-10-12T16:44:38.898Z</time>
      </trkpt>
      <trkpt lat="20.23845333" lon="-98.73958">
        <ele>2016.0</ele>
        <time>2019-10-12T16:44:39.902Z</time>
      </trkpt>
      <trkpt lat="20.23845833" lon="-98.73957">
        <ele>2015.0</ele>
        <time>2019-10-12T16:44:40.907Z</time>
      </trkpt>
      <trkpt lat="20.238465" lon="-98.73955833">
        <ele>2016.0</ele>
        <time>2019-10-12T16:44:41.914Z</time>
      </trkpt>
      <trkpt lat="20.23846" lon="-98.73955">
        <ele>2016.0</ele>
        <time>2019-10-12T16:44:42.922Z</time>
      </trkpt>
      <trkpt lat="20.23845667" lon="-98.73954833">
        <ele>2017.0</ele>
        <time>2019-10-12T16:44:43.928Z</time>
      </trkpt>
      <trkpt lat="20.23845" lon="-98.73955">
        <ele>2017.0</ele>
        <time>2019-10-12T16:44:44.930Z</time>
      </trkpt>
      <trkpt lat="20.238445" lon="-98.73955">
        <ele>2018.0</ele>
        <time>2019-10-12T16:44:45.936Z</time>
      </trkpt>
      <trkpt lat="20.23844333" lon="-98.73955333">
        <ele>2018.0</ele>
        <time>2019-10-12T16:44:46.943Z</time>
      </trkpt>
      <trkpt lat="20.238445" lon="-98.739555">
        <ele>2019.0</ele>
        <time>2019-10-12T16:44:47.948Z</time>
      </trkpt>
      <trkpt lat="20.23845167" lon="-98.739555">
        <ele>2019.0</ele>
        <time>2019-10-12T16:44:48.949Z</time>
      </trkpt>
      <trkpt lat="20.23846167" lon="-98.739555">
        <ele>2020.0</ele>
        <time>2019-10-12T16:44:49.950Z</time>
      </trkpt>
      <trkpt lat="20.23847167" lon="-98.739555">
        <ele>2020.0</ele>
        <time>2019-10-12T16:44:50.951Z</time>
      </trkpt>
      <trkpt lat="20.23848" lon="-98.73955667">
        <ele>2020.0</ele>
        <time>2019-10-12T16:44:51.951Z</time>
      </trkpt>
      <trkpt lat="20.23848833" lon="-98.73956">
        <ele>2020.0</ele>
        <time>2019-10-12T16:44:52.952Z</time>
      </trkpt>
      <trkpt lat="20.23850167" lon="-98.73956167">
        <ele>2019.0</ele>
        <time>2019-10-12T16:44:53.953Z</time>
      </trkpt>
      <trkpt lat="20.23851167" lon="-98.739565">
        <ele>2019.0</ele>
        <time>2019-10-12T16:44:54.954Z</time>
      </trkpt>
      <trkpt lat="20.23852333" lon="-98.73957">
        <ele>2020.0</ele>
        <time>2019-10-12T16:44:55.830Z</time>
      </trkpt>
      <trkpt lat="20.23853333" lon="-98.739575">
        <ele>2020.0</ele>
        <time>2019-10-12T16:44:56.830Z</time>
      </trkpt>
      <trkpt lat="20.23854167" lon="-98.73957833">
        <ele>2021.0</ele>
        <time>2019-10-12T16:44:57.831Z</time>
      </trkpt>
      <trkpt lat="20.23854833" lon="-98.73958167">
        <ele>2021.0</ele>
        <time>2019-10-12T16:44:58.832Z</time>
      </trkpt>
      <trkpt lat="20.238555" lon="-98.73959">
        <ele>2021.0</ele>
        <time>2019-10-12T16:44:59.833Z</time>
      </trkpt>
      <trkpt lat="20.238565" lon="-98.73959833">
        <ele>2021.0</ele>
        <time>2019-10-12T16:45:00.834Z</time>
      </trkpt>
      <trkpt lat="20.238575" lon="-98.73960167">
        <ele>2022.0</ele>
        <time>2019-10-12T16:45:01.834Z</time>
      </trkpt>
      <trkpt lat="20.23858667" lon="-98.73960167">
        <ele>2022.0</ele>
        <time>2019-10-12T16:45:02.835Z</time>
      </trkpt>
      <trkpt lat="20.23859833" lon="-98.73960667">
        <ele>2022.0</ele>
        <time>2019-10-12T16:45:03.836Z</time>
      </trkpt>
      <trkpt lat="20.23861333" lon="-98.73961167">
        <ele>2022.0</ele>
        <time>2019-10-12T16:45:04.837Z</time>
      </trkpt>
      <trkpt lat="20.238625" lon="-98.73961667">
        <ele>2023.0</ele>
        <time>2019-10-12T16:45:05.838Z</time>
      </trkpt>
      <trkpt lat="20.23863" lon="-98.73962167">
        <ele>2023.0</ele>
        <time>2019-10-12T16:45:06.838Z</time>
      </trkpt>
      <trkpt lat="20.238635" lon="-98.73962667">
        <ele>2024.0</ele>
        <time>2019-10-12T16:45:07.838Z</time>
      </trkpt>
      <trkpt lat="20.238635" lon="-98.73963333">
        <ele>2024.0</ele>
        <time>2019-10-12T16:45:08.842Z</time>
      </trkpt>
      <trkpt lat="20.23864333" lon="-98.73964">
        <ele>2023.0</ele>
        <time>2019-10-12T16:45:09.848Z</time>
      </trkpt>
      <trkpt lat="20.23865333" lon="-98.73964667">
        <ele>2023.0</ele>
        <time>2019-10-12T16:45:10.849Z</time>
      </trkpt>
      <trkpt lat="20.23866167" lon="-98.73965333">
        <ele>2023.0</ele>
        <time>2019-10-12T16:45:11.856Z</time>
      </trkpt>
      <trkpt lat="20.23867167" lon="-98.73966167">
        <ele>2023.0</ele>
        <time>2019-10-12T16:45:12.862Z</time>
      </trkpt>
      <trkpt lat="20.23868" lon="-98.73966833">
        <ele>2023.0</ele>
        <time>2019-10-12T16:45:13.865Z</time>
      </trkpt>
      <trkpt lat="20.23869167" lon="-98.73967667">
        <ele>2024.0</ele>
        <time>2019-10-12T16:45:14.871Z</time>
      </trkpt>
      <trkpt lat="20.23870167" lon="-98.739685">
        <ele>2024.0</ele>
        <time>2019-10-12T16:45:15.880Z</time>
      </trkpt>
      <trkpt lat="20.23871333" lon="-98.73969333">
        <ele>2024.0</ele>
        <time>2019-10-12T16:45:16.883Z</time>
      </trkpt>
      <trkpt lat="20.23872167" lon="-98.73969833">
        <ele>2024.0</ele>
        <time>2019-10-12T16:45:17.887Z</time>
      </trkpt>
      <trkpt lat="20.238735" lon="-98.73970333">
        <ele>2024.0</ele>
        <time>2019-10-12T16:45:18.893Z</time>
      </trkpt>
      <trkpt lat="20.23874667" lon="-98.739705">
        <ele>2024.0</ele>
        <time>2019-10-12T16:45:19.899Z</time>
      </trkpt>
      <trkpt lat="20.23875667" lon="-98.73970833">
        <ele>2024.0</ele>
        <time>2019-10-12T16:45:20.904Z</time>
      </trkpt>
      <trkpt lat="20.23876667" lon="-98.73971167">
        <ele>2024.0</ele>
        <time>2019-10-12T16:45:21.911Z</time>
      </trkpt>
      <trkpt lat="20.23878" lon="-98.739715">
        <ele>2024.0</ele>
        <time>2019-10-12T16:45:22.913Z</time>
      </trkpt>
      <trkpt lat="20.23879167" lon="-98.73971667">
        <ele>2024.0</ele>
        <time>2019-10-12T16:45:23.915Z</time>
      </trkpt>
      <trkpt lat="20.23880167" lon="-98.73971833">
        <ele>2024.0</ele>
        <time>2019-10-12T16:45:24.915Z</time>
      </trkpt>
      <trkpt lat="20.23881167" lon="-98.73971833">
        <ele>2024.0</ele>
        <time>2019-10-12T16:45:25.916Z</time>
      </trkpt>
      <trkpt lat="20.23882167" lon="-98.73971667">
        <ele>2023.0</ele>
        <time>2019-10-12T16:45:26.917Z</time>
      </trkpt>
      <trkpt lat="20.23883167" lon="-98.73972">
        <ele>2022.0</ele>
        <time>2019-10-12T16:45:27.918Z</time>
      </trkpt>
      <trkpt lat="20.23884167" lon="-98.739725">
        <ele>2022.0</ele>
        <time>2019-10-12T16:45:28.924Z</time>
      </trkpt>
      <trkpt lat="20.23885" lon="-98.73973">
        <ele>2022.0</ele>
        <time>2019-10-12T16:45:29.930Z</time>
      </trkpt>
      <trkpt lat="20.23886" lon="-98.73973333">
        <ele>2022.0</ele>
        <time>2019-10-12T16:45:30.935Z</time>
      </trkpt>
      <trkpt lat="20.23887" lon="-98.73974167">
        <ele>2022.0</ele>
        <time>2019-10-12T16:45:31.941Z</time>
      </trkpt>
      <trkpt lat="20.23888167" lon="-98.73975">
        <ele>2023.0</ele>
        <time>2019-10-12T16:45:32.945Z</time>
      </trkpt>
      <trkpt lat="20.23889" lon="-98.73975667">
        <ele>2023.0</ele>
        <time>2019-10-12T16:45:33.950Z</time>
      </trkpt>
      <trkpt lat="20.2389" lon="-98.739765">
        <ele>2023.0</ele>
        <time>2019-10-12T16:45:34.830Z</time>
      </trkpt>
      <trkpt lat="20.23891" lon="-98.73977333">
        <ele>2023.0</ele>
        <time>2019-10-12T16:45:35.835Z</time>
      </trkpt>
      <trkpt lat="20.23892167" lon="-98.739785">
        <ele>2022.0</ele>
        <time>2019-10-12T16:45:36.841Z</time>
      </trkpt>
      <trkpt lat="20.23892833" lon="-98.73979167">
        <ele>2022.0</ele>
        <time>2019-10-12T16:45:37.843Z</time>
      </trkpt>
      <trkpt lat="20.238935" lon="-98.73980167">
        <ele>2022.0</ele>
        <time>2019-10-12T16:45:38.850Z</time>
      </trkpt>
      <trkpt lat="20.23894167" lon="-98.73981">
        <ele>2022.0</ele>
        <time>2019-10-12T16:45:39.854Z</time>
      </trkpt>
      <trkpt lat="20.23894833" lon="-98.73982">
        <ele>2022.0</ele>
        <time>2019-10-12T16:45:40.861Z</time>
      </trkpt>
      <trkpt lat="20.238955" lon="-98.73983">
        <ele>2022.0</ele>
        <time>2019-10-12T16:45:41.863Z</time>
      </trkpt>
      <trkpt lat="20.23896167" lon="-98.73983667">
        <ele>2022.0</ele>
        <time>2019-10-12T16:45:42.865Z</time>
      </trkpt>
      <trkpt lat="20.23896667" lon="-98.73983667">
        <ele>2022.0</ele>
        <time>2019-10-12T16:45:43.865Z</time>
      </trkpt>
      <trkpt lat="20.23896833" lon="-98.73983667">
        <ele>2022.0</ele>
        <time>2019-10-12T16:45:44.866Z</time>
      </trkpt>
      <trkpt lat="20.23897" lon="-98.73983833">
        <ele>2022.0</ele>
        <time>2019-10-12T16:45:45.866Z</time>
      </trkpt>
      <trkpt lat="20.23897167" lon="-98.73984">
        <ele>2021.0</ele>
        <time>2019-10-12T16:45:46.866Z</time>
      </trkpt>
      <trkpt lat="20.23897167" lon="-98.73984167">
        <ele>2021.0</ele>
        <time>2019-10-12T16:45:47.867Z</time>
      </trkpt>
      <trkpt lat="20.238975" lon="-98.739845">
        <ele>2021.0</ele>
        <time>2019-10-12T16:45:48.867Z</time>
      </trkpt>
      <trkpt lat="20.23898333" lon="-98.73985167">
        <ele>2021.0</ele>
        <time>2019-10-12T16:45:49.868Z</time>
      </trkpt>
      <trkpt lat="20.23899" lon="-98.739855">
        <ele>2021.0</ele>
        <time>2019-10-12T16:45:50.869Z</time>
      </trkpt>
      <trkpt lat="20.23899833" lon="-98.73985667">
        <ele>2021.0</ele>
        <time>2019-10-12T16:45:51.870Z</time>
      </trkpt>
      <trkpt lat="20.23901" lon="-98.73985833">
        <ele>2020.0</ele>
        <time>2019-10-12T16:45:52.870Z</time>
      </trkpt>
      <trkpt lat="20.23902" lon="-98.73986">
        <ele>2020.0</ele>
        <time>2019-10-12T16:45:53.871Z</time>
      </trkpt>
      <trkpt lat="20.23903" lon="-98.73986167">
        <ele>2020.0</ele>
        <time>2019-10-12T16:45:54.872Z</time>
      </trkpt>
      <trkpt lat="20.23904167" lon="-98.73986667">
        <ele>2020.0</ele>
        <time>2019-10-12T16:45:55.873Z</time>
      </trkpt>
      <trkpt lat="20.23905167" lon="-98.73987">
        <ele>2020.0</ele>
        <time>2019-10-12T16:45:56.874Z</time>
      </trkpt>
      <trkpt lat="20.23906167" lon="-98.73987667">
        <ele>2021.0</ele>
        <time>2019-10-12T16:45:57.875Z</time>
      </trkpt>
      <trkpt lat="20.239075" lon="-98.73988">
        <ele>2021.0</ele>
        <time>2019-10-12T16:45:58.875Z</time>
      </trkpt>
      <trkpt lat="20.23908667" lon="-98.73988167">
        <ele>2021.0</ele>
        <time>2019-10-12T16:45:59.876Z</time>
      </trkpt>
      <trkpt lat="20.23909667" lon="-98.73988333">
        <ele>2021.0</ele>
        <time>2019-10-12T16:46:00.877Z</time>
      </trkpt>
      <trkpt lat="20.23910667" lon="-98.73988667">
        <ele>2020.0</ele>
        <time>2019-10-12T16:46:01.878Z</time>
      </trkpt>
      <trkpt lat="20.23911667" lon="-98.73989">
        <ele>2020.0</ele>
        <time>2019-10-12T16:46:02.879Z</time>
      </trkpt>
      <trkpt lat="20.239125" lon="-98.73989667">
        <ele>2019.0</ele>
        <time>2019-10-12T16:46:03.879Z</time>
      </trkpt>
      <trkpt lat="20.239135" lon="-98.73990167">
        <ele>2019.0</ele>
        <time>2019-10-12T16:46:04.880Z</time>
      </trkpt>
      <trkpt lat="20.239145" lon="-98.739905">
        <ele>2019.0</ele>
        <time>2019-10-12T16:46:05.880Z</time>
      </trkpt>
      <trkpt lat="20.239155" lon="-98.73991167">
        <ele>2020.0</ele>
        <time>2019-10-12T16:46:06.881Z</time>
      </trkpt>
      <trkpt lat="20.239165" lon="-98.73991833">
        <ele>2020.0</ele>
        <time>2019-10-12T16:46:07.882Z</time>
      </trkpt>
      <trkpt lat="20.239165" lon="-98.73991833">
        <ele>2020.0</ele>
        <time>2019-10-12T16:46:08.882Z</time>
      </trkpt>
      <trkpt lat="20.23919" lon="-98.739935">
        <ele>2020.0</ele>
        <time>2019-10-12T16:46:09.883Z</time>
      </trkpt>
      <trkpt lat="20.2392" lon="-98.73994333">
        <ele>2021.0</ele>
        <time>2019-10-12T16:46:10.890Z</time>
      </trkpt>
      <trkpt lat="20.23921" lon="-98.73995167">
        <ele>2021.0</ele>
        <time>2019-10-12T16:46:11.896Z</time>
      </trkpt>
      <trkpt lat="20.23922167" lon="-98.73996">
        <ele>2021.0</ele>
        <time>2019-10-12T16:46:12.897Z</time>
      </trkpt>
      <trkpt lat="20.23923333" lon="-98.73996833">
        <ele>2021.0</ele>
        <time>2019-10-12T16:46:13.902Z</time>
      </trkpt>
      <trkpt lat="20.23924833" lon="-98.73997333">
        <ele>2022.0</ele>
        <time>2019-10-12T16:46:14.908Z</time>
      </trkpt>
      <trkpt lat="20.23926167" lon="-98.739975">
        <ele>2022.0</ele>
        <time>2019-10-12T16:46:15.909Z</time>
      </trkpt>
      <trkpt lat="20.239275" lon="-98.739975">
        <ele>2023.0</ele>
        <time>2019-10-12T16:46:16.911Z</time>
      </trkpt>
      <trkpt lat="20.23928667" lon="-98.73997333">
        <ele>2023.0</ele>
        <time>2019-10-12T16:46:17.911Z</time>
      </trkpt>
      <trkpt lat="20.23929667" lon="-98.73997167">
        <ele>2022.0</ele>
        <time>2019-10-12T16:46:18.918Z</time>
      </trkpt>
      <trkpt lat="20.23930667" lon="-98.73997167">
        <ele>2023.0</ele>
        <time>2019-10-12T16:46:19.922Z</time>
      </trkpt>
      <trkpt lat="20.23931667" lon="-98.73996833">
        <ele>2023.0</ele>
        <time>2019-10-12T16:46:20.926Z</time>
      </trkpt>
      <trkpt lat="20.23932667" lon="-98.73996333">
        <ele>2023.0</ele>
        <time>2019-10-12T16:46:21.931Z</time>
      </trkpt>
      <trkpt lat="20.239335" lon="-98.73995667">
        <ele>2023.0</ele>
        <time>2019-10-12T16:46:22.936Z</time>
      </trkpt>
      <trkpt lat="20.23934333" lon="-98.73995">
        <ele>2023.0</ele>
        <time>2019-10-12T16:46:23.942Z</time>
      </trkpt>
      <trkpt lat="20.23935167" lon="-98.73994333">
        <ele>2023.0</ele>
        <time>2019-10-12T16:46:24.949Z</time>
      </trkpt>
      <trkpt lat="20.23935833" lon="-98.739935">
        <ele>2023.0</ele>
        <time>2019-10-12T16:46:25.830Z</time>
      </trkpt>
      <trkpt lat="20.23936833" lon="-98.73992833">
        <ele>2023.0</ele>
        <time>2019-10-12T16:46:26.835Z</time>
      </trkpt>
      <trkpt lat="20.23937833" lon="-98.73992">
        <ele>2024.0</ele>
        <time>2019-10-12T16:46:27.835Z</time>
      </trkpt>
      <trkpt lat="20.23938333" lon="-98.73991">
        <ele>2024.0</ele>
        <time>2019-10-12T16:46:28.840Z</time>
      </trkpt>
      <trkpt lat="20.23939167" lon="-98.7399">
        <ele>2024.0</ele>
        <time>2019-10-12T16:46:29.846Z</time>
      </trkpt>
      <trkpt lat="20.23939833" lon="-98.73988833">
        <ele>2025.0</ele>
        <time>2019-10-12T16:46:30.847Z</time>
      </trkpt>
      <trkpt lat="20.23940833" lon="-98.73987667">
        <ele>2025.0</ele>
        <time>2019-10-12T16:46:31.853Z</time>
      </trkpt>
      <trkpt lat="20.239415" lon="-98.73986333">
        <ele>2026.0</ele>
        <time>2019-10-12T16:46:32.859Z</time>
      </trkpt>
      <trkpt lat="20.23942333" lon="-98.73985">
        <ele>2026.0</ele>
        <time>2019-10-12T16:46:33.861Z</time>
      </trkpt>
      <trkpt lat="20.239425" lon="-98.739835">
        <ele>2026.0</ele>
        <time>2019-10-12T16:46:34.862Z</time>
      </trkpt>
      <trkpt lat="20.239425" lon="-98.73982167">
        <ele>2027.0</ele>
        <time>2019-10-12T16:46:35.863Z</time>
      </trkpt>
      <trkpt lat="20.23942333" lon="-98.73980833">
        <ele>2027.0</ele>
        <time>2019-10-12T16:46:36.863Z</time>
      </trkpt>
      <trkpt lat="20.23941833" lon="-98.739795">
        <ele>2028.0</ele>
        <time>2019-10-12T16:46:37.864Z</time>
      </trkpt>
      <trkpt lat="20.23940667" lon="-98.73978333">
        <ele>2028.0</ele>
        <time>2019-10-12T16:46:38.865Z</time>
      </trkpt>
      <trkpt lat="20.23939833" lon="-98.73977333">
        <ele>2028.0</ele>
        <time>2019-10-12T16:46:39.870Z</time>
      </trkpt>
      <trkpt lat="20.23939167" lon="-98.73976333">
        <ele>2028.0</ele>
        <time>2019-10-12T16:46:40.876Z</time>
      </trkpt>
      <trkpt lat="20.239385" lon="-98.73975333">
        <ele>2028.0</ele>
        <time>2019-10-12T16:46:41.876Z</time>
      </trkpt>
      <trkpt lat="20.23937667" lon="-98.73974167">
        <ele>2028.0</ele>
        <time>2019-10-12T16:46:42.882Z</time>
      </trkpt>
      <trkpt lat="20.23937" lon="-98.73973">
        <ele>2027.0</ele>
        <time>2019-10-12T16:46:43.889Z</time>
      </trkpt>
      <trkpt lat="20.23936333" lon="-98.73971833">
        <ele>2027.0</ele>
        <time>2019-10-12T16:46:44.894Z</time>
      </trkpt>
      <trkpt lat="20.23936167" lon="-98.73970667">
        <ele>2027.0</ele>
        <time>2019-10-12T16:46:45.895Z</time>
      </trkpt>
      <trkpt lat="20.23936" lon="-98.73969333">
        <ele>2027.0</ele>
        <time>2019-10-12T16:46:46.895Z</time>
      </trkpt>
      <trkpt lat="20.23935667" lon="-98.73968167">
        <ele>2027.0</ele>
        <time>2019-10-12T16:46:47.903Z</time>
      </trkpt>
      <trkpt lat="20.23934833" lon="-98.73967167">
        <ele>2027.0</ele>
        <time>2019-10-12T16:46:48.911Z</time>
      </trkpt>
      <trkpt lat="20.23933833" lon="-98.73966667">
        <ele>2028.0</ele>
        <time>2019-10-12T16:46:49.914Z</time>
      </trkpt>
      <trkpt lat="20.23933167" lon="-98.73966333">
        <ele>2029.0</ele>
        <time>2019-10-12T16:46:50.915Z</time>
      </trkpt>
      <trkpt lat="20.23932667" lon="-98.73965833">
        <ele>2029.0</ele>
        <time>2019-10-12T16:46:51.915Z</time>
      </trkpt>
      <trkpt lat="20.23931833" lon="-98.73965167">
        <ele>2029.0</ele>
        <time>2019-10-12T16:46:52.916Z</time>
      </trkpt>
      <trkpt lat="20.23931333" lon="-98.739645">
        <ele>2029.0</ele>
        <time>2019-10-12T16:46:53.917Z</time>
      </trkpt>
      <trkpt lat="20.23930833" lon="-98.73963833">
        <ele>2030.0</ele>
        <time>2019-10-12T16:46:54.921Z</time>
      </trkpt>
      <trkpt lat="20.23930333" lon="-98.73962833">
        <ele>2029.0</ele>
        <time>2019-10-12T16:46:55.928Z</time>
      </trkpt>
      <trkpt lat="20.2393" lon="-98.73961833">
        <ele>2029.0</ele>
        <time>2019-10-12T16:46:56.929Z</time>
      </trkpt>
      <trkpt lat="20.239295" lon="-98.73960667">
        <ele>2028.0</ele>
        <time>2019-10-12T16:46:57.933Z</time>
      </trkpt>
      <trkpt lat="20.23928667" lon="-98.73959667">
        <ele>2028.0</ele>
        <time>2019-10-12T16:46:58.939Z</time>
      </trkpt>
      <trkpt lat="20.23927667" lon="-98.73958333">
        <ele>2028.0</ele>
        <time>2019-10-12T16:46:59.943Z</time>
      </trkpt>
      <trkpt lat="20.23927167" lon="-98.73957333">
        <ele>2029.0</ele>
        <time>2019-10-12T16:47:00.943Z</time>
      </trkpt>
      <trkpt lat="20.23927167" lon="-98.73956667">
        <ele>2029.0</ele>
        <time>2019-10-12T16:47:01.944Z</time>
      </trkpt>
      <trkpt lat="20.23927167" lon="-98.739565">
        <ele>2029.0</ele>
        <time>2019-10-12T16:47:02.951Z</time>
      </trkpt>
      <trkpt lat="20.23926833" lon="-98.73956">
        <ele>2028.0</ele>
        <time>2019-10-12T16:47:03.952Z</time>
      </trkpt>
      <trkpt lat="20.23926333" lon="-98.73955">
        <ele>2027.0</ele>
        <time>2019-10-12T16:47:04.833Z</time>
      </trkpt>
      <trkpt lat="20.23925667" lon="-98.73954667">
        <ele>2027.0</ele>
        <time>2019-10-12T16:47:05.839Z</time>
      </trkpt>
      <trkpt lat="20.23925" lon="-98.73954167">
        <ele>2027.0</ele>
        <time>2019-10-12T16:47:06.846Z</time>
      </trkpt>
      <trkpt lat="20.239245" lon="-98.73953833">
        <ele>2028.0</ele>
        <time>2019-10-12T16:47:07.849Z</time>
      </trkpt>
      <trkpt lat="20.23923833" lon="-98.739535">
        <ele>2028.0</ele>
        <time>2019-10-12T16:47:08.853Z</time>
      </trkpt>
      <trkpt lat="20.23922667" lon="-98.73953167">
        <ele>2028.0</ele>
        <time>2019-10-12T16:47:09.859Z</time>
      </trkpt>
      <trkpt lat="20.23921833" lon="-98.73953">
        <ele>2028.0</ele>
        <time>2019-10-12T16:47:10.861Z</time>
      </trkpt>
      <trkpt lat="20.23921" lon="-98.73952667">
        <ele>2029.0</ele>
        <time>2019-10-12T16:47:11.866Z</time>
      </trkpt>
      <trkpt lat="20.23920333" lon="-98.73952833">
        <ele>2029.0</ele>
        <time>2019-10-12T16:47:12.871Z</time>
      </trkpt>
      <trkpt lat="20.23919667" lon="-98.73952667">
        <ele>2029.0</ele>
        <time>2019-10-12T16:47:13.878Z</time>
      </trkpt>
      <trkpt lat="20.23918833" lon="-98.73952833">
        <ele>2029.0</ele>
        <time>2019-10-12T16:47:14.883Z</time>
      </trkpt>
      <trkpt lat="20.23917667" lon="-98.73952667">
        <ele>2030.0</ele>
        <time>2019-10-12T16:47:15.890Z</time>
      </trkpt>
      <trkpt lat="20.239165" lon="-98.73952333">
        <ele>2030.0</ele>
        <time>2019-10-12T16:47:16.896Z</time>
      </trkpt>
      <trkpt lat="20.23915667" lon="-98.73952167">
        <ele>2030.0</ele>
        <time>2019-10-12T16:47:17.903Z</time>
      </trkpt>
      <trkpt lat="20.23915167" lon="-98.73952">
        <ele>2030.0</ele>
        <time>2019-10-12T16:47:18.908Z</time>
      </trkpt>
      <trkpt lat="20.23914833" lon="-98.739515">
        <ele>2030.0</ele>
        <time>2019-10-12T16:47:19.915Z</time>
      </trkpt>
      <trkpt lat="20.239145" lon="-98.73951167">
        <ele>2031.0</ele>
        <time>2019-10-12T16:47:20.917Z</time>
      </trkpt>
      <trkpt lat="20.23913833" lon="-98.739505">
        <ele>2031.0</ele>
        <time>2019-10-12T16:47:21.922Z</time>
      </trkpt>
      <trkpt lat="20.23913" lon="-98.7395">
        <ele>2032.0</ele>
        <time>2019-10-12T16:47:22.930Z</time>
      </trkpt>
      <trkpt lat="20.23912" lon="-98.73949833">
        <ele>2032.0</ele>
        <time>2019-10-12T16:47:23.935Z</time>
      </trkpt>
      <trkpt lat="20.23911667" lon="-98.73950167">
        <ele>2032.0</ele>
        <time>2019-10-12T16:47:24.941Z</time>
      </trkpt>
      <trkpt lat="20.23911167" lon="-98.739505">
        <ele>2032.0</ele>
        <time>2019-10-12T16:47:25.941Z</time>
      </trkpt>
      <trkpt lat="20.23911167" lon="-98.73950667">
        <ele>2031.0</ele>
        <time>2019-10-12T16:47:26.943Z</time>
      </trkpt>
      <trkpt lat="20.23911" lon="-98.73950833">
        <ele>2032.0</ele>
        <time>2019-10-12T16:47:27.943Z</time>
      </trkpt>
      <trkpt lat="20.23911333" lon="-98.73951">
        <ele>2032.0</ele>
        <time>2019-10-12T16:47:28.950Z</time>
      </trkpt>
      <trkpt lat="20.23911833" lon="-98.73951167">
        <ele>2033.0</ele>
        <time>2019-10-12T16:47:29.832Z</time>
      </trkpt>
      <trkpt lat="20.23912167" lon="-98.73951333">
        <ele>2033.0</ele>
        <time>2019-10-12T16:47:30.838Z</time>
      </trkpt>
      <trkpt lat="20.23912167" lon="-98.73951667">
        <ele>2033.0</ele>
        <time>2019-10-12T16:47:31.843Z</time>
      </trkpt>
      <trkpt lat="20.23912167" lon="-98.73951667">
        <ele>2033.0</ele>
        <time>2019-10-12T16:47:32.851Z</time>
      </trkpt>
      <trkpt lat="20.23912167" lon="-98.73951833">
        <ele>2033.0</ele>
        <time>2019-10-12T16:47:33.855Z</time>
      </trkpt>
      <trkpt lat="20.23912167" lon="-98.73951833">
        <ele>2033.0</ele>
        <time>2019-10-12T16:47:34.863Z</time>
      </trkpt>
      <trkpt lat="20.23912167" lon="-98.73951833">
        <ele>2033.0</ele>
        <time>2019-10-12T16:47:35.870Z</time>
      </trkpt>
      <trkpt lat="20.23912167" lon="-98.73951833">
        <ele>2033.0</ele>
        <time>2019-10-12T16:47:36.874Z</time>
      </trkpt>
      <trkpt lat="20.23912167" lon="-98.73951833">
        <ele>2033.0</ele>
        <time>2019-10-12T16:47:37.878Z</time>
      </trkpt>
      <trkpt lat="20.23912167" lon="-98.73951833">
        <ele>2033.0</ele>
        <time>2019-10-12T16:47:38.882Z</time>
      </trkpt>
      <trkpt lat="20.23912167" lon="-98.73951833">
        <ele>2033.0</ele>
        <time>2019-10-12T16:47:39.888Z</time>
      </trkpt>
      <trkpt lat="20.23912167" lon="-98.73951833">
        <ele>2033.0</ele>
        <time>2019-10-12T16:47:40.891Z</time>
      </trkpt>
      <trkpt lat="20.23912167" lon="-98.73951833">
        <ele>2033.0</ele>
        <time>2019-10-12T16:47:41.898Z</time>
      </trkpt>
      <trkpt lat="20.23912167" lon="-98.73951833">
        <ele>2033.0</ele>
        <time>2019-10-12T16:47:42.905Z</time>
      </trkpt>
      <trkpt lat="20.23912167" lon="-98.73951833">
        <ele>2033.0</ele>
        <time>2019-10-12T16:47:43.907Z</time>
      </trkpt>
      <trkpt lat="20.23912167" lon="-98.73951833">
        <ele>2033.0</ele>
        <time>2019-10-12T16:47:44.914Z</time>
      </trkpt>
      <trkpt lat="20.23912167" lon="-98.73951833">
        <ele>2033.0</ele>
        <time>2019-10-12T16:47:45.921Z</time>
      </trkpt>
      <trkpt lat="20.23912167" lon="-98.73951833">
        <ele>2033.0</ele>
        <time>2019-10-12T16:47:46.928Z</time>
      </trkpt>
      <trkpt lat="20.23912167" lon="-98.73951833">
        <ele>2033.0</ele>
        <time>2019-10-12T16:47:47.935Z</time>
      </trkpt>
      <trkpt lat="20.23912167" lon="-98.73951833">
        <ele>2033.0</ele>
        <time>2019-10-12T16:47:48.942Z</time>
      </trkpt>
      <trkpt lat="20.23912167" lon="-98.73951833">
        <ele>2033.0</ele>
        <time>2019-10-12T16:47:49.942Z</time>
      </trkpt>
      <trkpt lat="20.23912167" lon="-98.73951833">
        <ele>2034.0</ele>
        <time>2019-10-12T16:47:50.942Z</time>
      </trkpt>
      <trkpt lat="20.23912167" lon="-98.73951833">
        <ele>2034.0</ele>
        <time>2019-10-12T16:47:51.949Z</time>
      </trkpt>
      <trkpt lat="20.23912167" lon="-98.73951833">
        <ele>2034.0</ele>
        <time>2019-10-12T16:47:52.830Z</time>
      </trkpt>
      <trkpt lat="20.23912167" lon="-98.73951833">
        <ele>2034.0</ele>
        <time>2019-10-12T16:47:53.836Z</time>
      </trkpt>
      <trkpt lat="20.23912167" lon="-98.73951833">
        <ele>2034.0</ele>
        <time>2019-10-12T16:47:54.837Z</time>
      </trkpt>
      <trkpt lat="20.23912167" lon="-98.73951833">
        <ele>2034.0</ele>
        <time>2019-10-12T16:47:55.838Z</time>
      </trkpt>
      <trkpt lat="20.23912167" lon="-98.73951833">
        <ele>2034.0</ele>
        <time>2019-10-12T16:47:56.838Z</time>
      </trkpt>
      <trkpt lat="20.23912167" lon="-98.73951833">
        <ele>2034.0</ele>
        <time>2019-10-12T16:47:57.839Z</time>
      </trkpt>
      <trkpt lat="20.23912167" lon="-98.73951833">
        <ele>2034.0</ele>
        <time>2019-10-12T16:47:58.839Z</time>
      </trkpt>
      <trkpt lat="20.23912333" lon="-98.73952">
        <ele>2034.0</ele>
        <time>2019-10-12T16:47:59.840Z</time>
      </trkpt>
      <trkpt lat="20.23912333" lon="-98.73952">
        <ele>2034.0</ele>
        <time>2019-10-12T16:48:00.841Z</time>
      </trkpt>
      <trkpt lat="20.23912333" lon="-98.73952">
        <ele>2034.0</ele>
        <time>2019-10-12T16:48:01.842Z</time>
      </trkpt>
      <trkpt lat="20.23912333" lon="-98.73952">
        <ele>2034.0</ele>
        <time>2019-10-12T16:48:02.843Z</time>
      </trkpt>
      <trkpt lat="20.23912333" lon="-98.73952">
        <ele>2034.0</ele>
        <time>2019-10-12T16:48:03.843Z</time>
      </trkpt>
      <trkpt lat="20.23912" lon="-98.73951667">
        <ele>2034.0</ele>
        <time>2019-10-12T16:48:04.844Z</time>
      </trkpt>
      <trkpt lat="20.23911" lon="-98.739505">
        <ele>2034.0</ele>
        <time>2019-10-12T16:48:05.845Z</time>
      </trkpt>
      <trkpt lat="20.23910333" lon="-98.73949167">
        <ele>2034.0</ele>
        <time>2019-10-12T16:48:06.846Z</time>
      </trkpt>
      <trkpt lat="20.23909833" lon="-98.73947833">
        <ele>2035.0</ele>
        <time>2019-10-12T16:48:07.847Z</time>
      </trkpt>
      <trkpt lat="20.23909333" lon="-98.739465">
        <ele>2035.0</ele>
        <time>2019-10-12T16:48:08.848Z</time>
      </trkpt>
      <trkpt lat="20.23908667" lon="-98.73945167">
        <ele>2035.0</ele>
        <time>2019-10-12T16:48:09.848Z</time>
      </trkpt>
      <trkpt lat="20.23908167" lon="-98.73944167">
        <ele>2035.0</ele>
        <time>2019-10-12T16:48:10.849Z</time>
      </trkpt>
      <trkpt lat="20.23907667" lon="-98.73943167">
        <ele>2035.0</ele>
        <time>2019-10-12T16:48:11.849Z</time>
      </trkpt>
      <trkpt lat="20.23907167" lon="-98.73941833">
        <ele>2035.0</ele>
        <time>2019-10-12T16:48:12.849Z</time>
      </trkpt>
      <trkpt lat="20.23906833" lon="-98.73940833">
        <ele>2036.0</ele>
        <time>2019-10-12T16:48:13.849Z</time>
      </trkpt>
      <trkpt lat="20.23907167" lon="-98.739405">
        <ele>2036.0</ele>
        <time>2019-10-12T16:48:14.851Z</time>
      </trkpt>
      <trkpt lat="20.23907333" lon="-98.73940333">
        <ele>2037.0</ele>
        <time>2019-10-12T16:48:15.857Z</time>
      </trkpt>
      <trkpt lat="20.23907333" lon="-98.73940167">
        <ele>2036.0</ele>
        <time>2019-10-12T16:48:16.858Z</time>
      </trkpt>
      <trkpt lat="20.23907" lon="-98.7394">
        <ele>2036.0</ele>
        <time>2019-10-12T16:48:17.862Z</time>
      </trkpt>
      <trkpt lat="20.23906833" lon="-98.73939667">
        <ele>2035.0</ele>
        <time>2019-10-12T16:48:18.868Z</time>
      </trkpt>
      <trkpt lat="20.23906833" lon="-98.73939167">
        <ele>2036.0</ele>
        <time>2019-10-12T16:48:19.873Z</time>
      </trkpt>
      <trkpt lat="20.23907" lon="-98.73938333">
        <ele>2036.0</ele>
        <time>2019-10-12T16:48:20.873Z</time>
      </trkpt>
      <trkpt lat="20.23907" lon="-98.73937167">
        <ele>2036.0</ele>
        <time>2019-10-12T16:48:21.873Z</time>
      </trkpt>
      <trkpt lat="20.23907" lon="-98.73936333">
        <ele>2036.0</ele>
        <time>2019-10-12T16:48:22.873Z</time>
      </trkpt>
      <trkpt lat="20.23906667" lon="-98.73935333">
        <ele>2037.0</ele>
        <time>2019-10-12T16:48:23.880Z</time>
      </trkpt>
      <trkpt lat="20.23906667" lon="-98.73934167">
        <ele>2037.0</ele>
        <time>2019-10-12T16:48:24.882Z</time>
      </trkpt>
      <trkpt lat="20.239065" lon="-98.73933">
        <ele>2038.0</ele>
        <time>2019-10-12T16:48:25.883Z</time>
      </trkpt>
      <trkpt lat="20.23906" lon="-98.73932333">
        <ele>2038.0</ele>
        <time>2019-10-12T16:48:26.892Z</time>
      </trkpt>
      <trkpt lat="20.23905833" lon="-98.73931333">
        <ele>2037.0</ele>
        <time>2019-10-12T16:48:27.898Z</time>
      </trkpt>
      <trkpt lat="20.23906" lon="-98.739305">
        <ele>2038.0</ele>
        <time>2019-10-12T16:48:28.900Z</time>
      </trkpt>
      <trkpt lat="20.23905833" lon="-98.739295">
        <ele>2039.0</ele>
        <time>2019-10-12T16:48:29.907Z</time>
      </trkpt>
      <trkpt lat="20.239055" lon="-98.73928333">
        <ele>2039.0</ele>
        <time>2019-10-12T16:48:30.914Z</time>
      </trkpt>
      <trkpt lat="20.23905167" lon="-98.73927333">
        <ele>2039.0</ele>
        <time>2019-10-12T16:48:31.917Z</time>
      </trkpt>
      <trkpt lat="20.23904833" lon="-98.73926667">
        <ele>2039.0</ele>
        <time>2019-10-12T16:48:32.917Z</time>
      </trkpt>
      <trkpt lat="20.23904333" lon="-98.73926">
        <ele>2039.0</ele>
        <time>2019-10-12T16:48:33.917Z</time>
      </trkpt>
      <trkpt lat="20.23903833" lon="-98.73925167">
        <ele>2040.0</ele>
        <time>2019-10-12T16:48:34.920Z</time>
      </trkpt>
      <trkpt lat="20.23902833" lon="-98.73924667">
        <ele>2040.0</ele>
        <time>2019-10-12T16:48:35.921Z</time>
      </trkpt>
      <trkpt lat="20.23902333" lon="-98.73924">
        <ele>2040.0</ele>
        <time>2019-10-12T16:48:36.926Z</time>
      </trkpt>
      <trkpt lat="20.239015" lon="-98.739235">
        <ele>2040.0</ele>
        <time>2019-10-12T16:48:37.933Z</time>
      </trkpt>
      <trkpt lat="20.23901" lon="-98.73923167">
        <ele>2041.0</ele>
        <time>2019-10-12T16:48:38.940Z</time>
      </trkpt>
      <trkpt lat="20.23899667" lon="-98.73922833">
        <ele>2041.0</ele>
        <time>2019-10-12T16:48:39.942Z</time>
      </trkpt>
      <trkpt lat="20.23898833" lon="-98.739235">
        <ele>2041.0</ele>
        <time>2019-10-12T16:48:40.944Z</time>
      </trkpt>
      <trkpt lat="20.23897833" lon="-98.73923333">
        <ele>2041.0</ele>
        <time>2019-10-12T16:48:41.944Z</time>
      </trkpt>
      <trkpt lat="20.238965" lon="-98.73922667">
        <ele>2041.0</ele>
        <time>2019-10-12T16:48:42.945Z</time>
      </trkpt>
      <trkpt lat="20.23894667" lon="-98.73922">
        <ele>2041.0</ele>
        <time>2019-10-12T16:48:43.949Z</time>
      </trkpt>
      <trkpt lat="20.23893" lon="-98.73921333">
        <ele>2041.0</ele>
        <time>2019-10-12T16:48:44.830Z</time>
      </trkpt>
      <trkpt lat="20.23891667" lon="-98.73920667">
        <ele>2040.0</ele>
        <time>2019-10-12T16:48:45.835Z</time>
      </trkpt>
      <trkpt lat="20.23890167" lon="-98.7392">
        <ele>2040.0</ele>
        <time>2019-10-12T16:48:46.841Z</time>
      </trkpt>
      <trkpt lat="20.23889167" lon="-98.73920167">
        <ele>2041.0</ele>
        <time>2019-10-12T16:48:47.845Z</time>
      </trkpt>
      <trkpt lat="20.23887833" lon="-98.73919833">
        <ele>2040.0</ele>
        <time>2019-10-12T16:48:48.850Z</time>
      </trkpt>
      <trkpt lat="20.23886333" lon="-98.73919333">
        <ele>2040.0</ele>
        <time>2019-10-12T16:48:49.856Z</time>
      </trkpt>
      <trkpt lat="20.238855" lon="-98.73919">
        <ele>2040.0</ele>
        <time>2019-10-12T16:48:50.861Z</time>
      </trkpt>
      <trkpt lat="20.23884333" lon="-98.73918167">
        <ele>2040.0</ele>
        <time>2019-10-12T16:48:51.868Z</time>
      </trkpt>
      <trkpt lat="20.23883667" lon="-98.73917333">
        <ele>2041.0</ele>
        <time>2019-10-12T16:48:52.869Z</time>
      </trkpt>
      <trkpt lat="20.23882833" lon="-98.73916667">
        <ele>2042.0</ele>
        <time>2019-10-12T16:48:53.870Z</time>
      </trkpt>
      <trkpt lat="20.23882" lon="-98.73916">
        <ele>2042.0</ele>
        <time>2019-10-12T16:48:54.870Z</time>
      </trkpt>
      <trkpt lat="20.23881333" lon="-98.73915333">
        <ele>2043.0</ele>
        <time>2019-10-12T16:48:55.870Z</time>
      </trkpt>
      <trkpt lat="20.238805" lon="-98.73914667">
        <ele>2043.0</ele>
        <time>2019-10-12T16:48:56.871Z</time>
      </trkpt>
      <trkpt lat="20.23879667" lon="-98.73913833">
        <ele>2044.0</ele>
        <time>2019-10-12T16:48:57.872Z</time>
      </trkpt>
      <trkpt lat="20.23878833" lon="-98.73913">
        <ele>2044.0</ele>
        <time>2019-10-12T16:48:58.873Z</time>
      </trkpt>
      <trkpt lat="20.23878167" lon="-98.73912167">
        <ele>2044.0</ele>
        <time>2019-10-12T16:48:59.874Z</time>
      </trkpt>
      <trkpt lat="20.23877833" lon="-98.73911333">
        <ele>2045.0</ele>
        <time>2019-10-12T16:49:00.874Z</time>
      </trkpt>
      <trkpt lat="20.238775" lon="-98.73910333">
        <ele>2045.0</ele>
        <time>2019-10-12T16:49:01.875Z</time>
      </trkpt>
      <trkpt lat="20.23877667" lon="-98.73909333">
        <ele>2046.0</ele>
        <time>2019-10-12T16:49:02.875Z</time>
      </trkpt>
      <trkpt lat="20.23877333" lon="-98.73908167">
        <ele>2046.0</ele>
        <time>2019-10-12T16:49:03.876Z</time>
      </trkpt>
      <trkpt lat="20.23877167" lon="-98.73907">
        <ele>2046.0</ele>
        <time>2019-10-12T16:49:04.876Z</time>
      </trkpt>
      <trkpt lat="20.23877" lon="-98.73906167">
        <ele>2046.0</ele>
        <time>2019-10-12T16:49:05.877Z</time>
      </trkpt>
      <trkpt lat="20.23876667" lon="-98.73905167">
        <ele>2046.0</ele>
        <time>2019-10-12T16:49:06.878Z</time>
      </trkpt>
      <trkpt lat="20.23876333" lon="-98.73904333">
        <ele>2046.0</ele>
        <time>2019-10-12T16:49:07.879Z</time>
      </trkpt>
      <trkpt lat="20.23876167" lon="-98.73903333">
        <ele>2046.0</ele>
        <time>2019-10-12T16:49:08.880Z</time>
      </trkpt>
      <trkpt lat="20.23876" lon="-98.73902333">
        <ele>2046.0</ele>
        <time>2019-10-12T16:49:09.880Z</time>
      </trkpt>
      <trkpt lat="20.23876" lon="-98.73901667">
        <ele>2047.0</ele>
        <time>2019-10-12T16:49:10.880Z</time>
      </trkpt>
      <trkpt lat="20.23875667" lon="-98.73900833">
        <ele>2047.0</ele>
        <time>2019-10-12T16:49:11.880Z</time>
      </trkpt>
      <trkpt lat="20.23875333" lon="-98.73900333">
        <ele>2048.0</ele>
        <time>2019-10-12T16:49:12.880Z</time>
      </trkpt>
      <trkpt lat="20.23875" lon="-98.73899667">
        <ele>2048.0</ele>
        <time>2019-10-12T16:49:13.880Z</time>
      </trkpt>
      <trkpt lat="20.23874833" lon="-98.73899167">
        <ele>2049.0</ele>
        <time>2019-10-12T16:49:14.881Z</time>
      </trkpt>
      <trkpt lat="20.23874333" lon="-98.73899">
        <ele>2050.0</ele>
        <time>2019-10-12T16:49:15.881Z</time>
      </trkpt>
      <trkpt lat="20.23873667" lon="-98.73898167">
        <ele>2049.0</ele>
        <time>2019-10-12T16:49:16.882Z</time>
      </trkpt>
      <trkpt lat="20.23873333" lon="-98.73897667">
        <ele>2049.0</ele>
        <time>2019-10-12T16:49:17.882Z</time>
      </trkpt>
      <trkpt lat="20.23872833" lon="-98.73897167">
        <ele>2049.0</ele>
        <time>2019-10-12T16:49:18.883Z</time>
      </trkpt>
      <trkpt lat="20.23872333" lon="-98.73896667">
        <ele>2050.0</ele>
        <time>2019-10-12T16:49:19.883Z</time>
      </trkpt>
      <trkpt lat="20.23871667" lon="-98.73895833">
        <ele>2050.0</ele>
        <time>2019-10-12T16:49:20.884Z</time>
      </trkpt>
      <trkpt lat="20.23871167" lon="-98.73895333">
        <ele>2050.0</ele>
        <time>2019-10-12T16:49:21.884Z</time>
      </trkpt>
      <trkpt lat="20.23870333" lon="-98.73895">
        <ele>2051.0</ele>
        <time>2019-10-12T16:49:22.885Z</time>
      </trkpt>
      <trkpt lat="20.238695" lon="-98.73894833">
        <ele>2051.0</ele>
        <time>2019-10-12T16:49:23.886Z</time>
      </trkpt>
      <trkpt lat="20.23868833" lon="-98.738945">
        <ele>2051.0</ele>
        <time>2019-10-12T16:49:24.886Z</time>
      </trkpt>
      <trkpt lat="20.23868167" lon="-98.73894167">
        <ele>2051.0</ele>
        <time>2019-10-12T16:49:25.886Z</time>
      </trkpt>
      <trkpt lat="20.23867333" lon="-98.73894">
        <ele>2052.0</ele>
        <time>2019-10-12T16:49:26.886Z</time>
      </trkpt>
      <trkpt lat="20.23866333" lon="-98.73894">
        <ele>2052.0</ele>
        <time>2019-10-12T16:49:27.887Z</time>
      </trkpt>
      <trkpt lat="20.238655" lon="-98.73893667">
        <ele>2052.0</ele>
        <time>2019-10-12T16:49:28.888Z</time>
      </trkpt>
      <trkpt lat="20.23864667" lon="-98.73893333">
        <ele>2052.0</ele>
        <time>2019-10-12T16:49:29.889Z</time>
      </trkpt>
      <trkpt lat="20.23864167" lon="-98.73893333">
        <ele>2052.0</ele>
        <time>2019-10-12T16:49:30.893Z</time>
      </trkpt>
      <trkpt lat="20.238635" lon="-98.73893">
        <ele>2052.0</ele>
        <time>2019-10-12T16:49:31.900Z</time>
      </trkpt>
      <trkpt lat="20.23862667" lon="-98.73892833">
        <ele>2053.0</ele>
        <time>2019-10-12T16:49:32.906Z</time>
      </trkpt>
      <trkpt lat="20.23862" lon="-98.73892833">
        <ele>2053.0</ele>
        <time>2019-10-12T16:49:33.910Z</time>
      </trkpt>
      <trkpt lat="20.23861" lon="-98.73892667">
        <ele>2053.0</ele>
        <time>2019-10-12T16:49:34.913Z</time>
      </trkpt>
      <trkpt lat="20.2386" lon="-98.738925">
        <ele>2053.0</ele>
        <time>2019-10-12T16:49:35.915Z</time>
      </trkpt>
      <trkpt lat="20.23859167" lon="-98.73892167">
        <ele>2053.0</ele>
        <time>2019-10-12T16:49:36.922Z</time>
      </trkpt>
      <trkpt lat="20.23858667" lon="-98.73892">
        <ele>2054.0</ele>
        <time>2019-10-12T16:49:37.925Z</time>
      </trkpt>
      <trkpt lat="20.23857667" lon="-98.73891833">
        <ele>2054.0</ele>
        <time>2019-10-12T16:49:38.932Z</time>
      </trkpt>
      <trkpt lat="20.23856833" lon="-98.73891333">
        <ele>2054.0</ele>
        <time>2019-10-12T16:49:39.934Z</time>
      </trkpt>
      <trkpt lat="20.23855833" lon="-98.73890833">
        <ele>2055.0</ele>
        <time>2019-10-12T16:49:40.940Z</time>
      </trkpt>
      <trkpt lat="20.23855" lon="-98.73890333">
        <ele>2055.0</ele>
        <time>2019-10-12T16:49:41.948Z</time>
      </trkpt>
      <trkpt lat="20.23854333" lon="-98.7389">
        <ele>2055.0</ele>
        <time>2019-10-12T16:49:42.955Z</time>
      </trkpt>
      <trkpt lat="20.238535" lon="-98.738895">
        <ele>2055.0</ele>
        <time>2019-10-12T16:49:43.835Z</time>
      </trkpt>
      <trkpt lat="20.23853167" lon="-98.73889">
        <ele>2055.0</ele>
        <time>2019-10-12T16:49:44.836Z</time>
      </trkpt>
      <trkpt lat="20.23852833" lon="-98.73888333">
        <ele>2056.0</ele>
        <time>2019-10-12T16:49:45.837Z</time>
      </trkpt>
      <trkpt lat="20.238525" lon="-98.73887333">
        <ele>2056.0</ele>
        <time>2019-10-12T16:49:46.842Z</time>
      </trkpt>
      <trkpt lat="20.23852333" lon="-98.73886333">
        <ele>2056.0</ele>
        <time>2019-10-12T16:49:47.847Z</time>
      </trkpt>
      <trkpt lat="20.23852333" lon="-98.738855">
        <ele>2056.0</ele>
        <time>2019-10-12T16:49:48.850Z</time>
      </trkpt>
      <trkpt lat="20.23852167" lon="-98.73884667">
        <ele>2057.0</ele>
        <time>2019-10-12T16:49:49.857Z</time>
      </trkpt>
      <trkpt lat="20.23852333" lon="-98.73883667">
        <ele>2057.0</ele>
        <time>2019-10-12T16:49:50.863Z</time>
      </trkpt>
      <trkpt lat="20.23852667" lon="-98.73882667">
        <ele>2057.0</ele>
        <time>2019-10-12T16:49:51.868Z</time>
      </trkpt>
      <trkpt lat="20.23853167" lon="-98.738815">
        <ele>2057.0</ele>
        <time>2019-10-12T16:49:52.873Z</time>
      </trkpt>
      <trkpt lat="20.23853667" lon="-98.73880667">
        <ele>2057.0</ele>
        <time>2019-10-12T16:49:53.877Z</time>
      </trkpt>
      <trkpt lat="20.23853667" lon="-98.7388">
        <ele>2057.0</ele>
        <time>2019-10-12T16:49:54.880Z</time>
      </trkpt>
      <trkpt lat="20.23853833" lon="-98.73879">
        <ele>2057.0</ele>
        <time>2019-10-12T16:49:55.882Z</time>
      </trkpt>
      <trkpt lat="20.23854" lon="-98.73877833">
        <ele>2058.0</ele>
        <time>2019-10-12T16:49:56.889Z</time>
      </trkpt>
      <trkpt lat="20.23854167" lon="-98.73876667">
        <ele>2058.0</ele>
        <time>2019-10-12T16:49:57.895Z</time>
      </trkpt>
      <trkpt lat="20.23854333" lon="-98.73875833">
        <ele>2058.0</ele>
        <time>2019-10-12T16:49:58.902Z</time>
      </trkpt>
      <trkpt lat="20.23854667" lon="-98.73874833">
        <ele>2058.0</ele>
        <time>2019-10-12T16:49:59.909Z</time>
      </trkpt>
      <trkpt lat="20.238545" lon="-98.73874167">
        <ele>2059.0</ele>
        <time>2019-10-12T16:50:00.911Z</time>
      </trkpt>
      <trkpt lat="20.238545" lon="-98.73873333">
        <ele>2059.0</ele>
        <time>2019-10-12T16:50:01.911Z</time>
      </trkpt>
      <trkpt lat="20.23854667" lon="-98.73872333">
        <ele>2059.0</ele>
        <time>2019-10-12T16:50:02.912Z</time>
      </trkpt>
      <trkpt lat="20.23854833" lon="-98.738715">
        <ele>2059.0</ele>
        <time>2019-10-12T16:50:03.913Z</time>
      </trkpt>
      <trkpt lat="20.23854833" lon="-98.73870667">
        <ele>2059.0</ele>
        <time>2019-10-12T16:50:04.914Z</time>
      </trkpt>
      <trkpt lat="20.23855" lon="-98.73869833">
        <ele>2059.0</ele>
        <time>2019-10-12T16:50:05.914Z</time>
      </trkpt>
      <trkpt lat="20.23855" lon="-98.73868833">
        <ele>2059.0</ele>
        <time>2019-10-12T16:50:06.915Z</time>
      </trkpt>
      <trkpt lat="20.23854833" lon="-98.73868167">
        <ele>2059.0</ele>
        <time>2019-10-12T16:50:07.919Z</time>
      </trkpt>
      <trkpt lat="20.238545" lon="-98.73867333">
        <ele>2059.0</ele>
        <time>2019-10-12T16:50:08.925Z</time>
      </trkpt>
      <trkpt lat="20.23854" lon="-98.738665">
        <ele>2059.0</ele>
        <time>2019-10-12T16:50:09.932Z</time>
      </trkpt>
      <trkpt lat="20.23853667" lon="-98.73865667">
        <ele>2058.0</ele>
        <time>2019-10-12T16:50:10.932Z</time>
      </trkpt>
      <trkpt lat="20.23852833" lon="-98.73864667">
        <ele>2059.0</ele>
        <time>2019-10-12T16:50:11.934Z</time>
      </trkpt>
      <trkpt lat="20.23852167" lon="-98.73863667">
        <ele>2059.0</ele>
        <time>2019-10-12T16:50:12.937Z</time>
      </trkpt>
      <trkpt lat="20.23851667" lon="-98.73863">
        <ele>2058.0</ele>
        <time>2019-10-12T16:50:13.940Z</time>
      </trkpt>
      <trkpt lat="20.23850833" lon="-98.738625">
        <ele>2058.0</ele>
        <time>2019-10-12T16:50:14.946Z</time>
      </trkpt>
      <trkpt lat="20.23850167" lon="-98.73862167">
        <ele>2058.0</ele>
        <time>2019-10-12T16:50:15.953Z</time>
      </trkpt>
      <trkpt lat="20.23849333" lon="-98.73861833">
        <ele>2058.0</ele>
        <time>2019-10-12T16:50:16.835Z</time>
      </trkpt>
      <trkpt lat="20.23848667" lon="-98.73861667">
        <ele>2058.0</ele>
        <time>2019-10-12T16:50:17.838Z</time>
      </trkpt>
      <trkpt lat="20.23848" lon="-98.738615">
        <ele>2058.0</ele>
        <time>2019-10-12T16:50:18.841Z</time>
      </trkpt>
      <trkpt lat="20.23846833" lon="-98.738615">
        <ele>2057.0</ele>
        <time>2019-10-12T16:50:19.847Z</time>
      </trkpt>
      <trkpt lat="20.23845833" lon="-98.73861667">
        <ele>2057.0</ele>
        <time>2019-10-12T16:50:20.853Z</time>
      </trkpt>
      <trkpt lat="20.23845167" lon="-98.73862167">
        <ele>2057.0</ele>
        <time>2019-10-12T16:50:21.859Z</time>
      </trkpt>
      <trkpt lat="20.238445" lon="-98.738625">
        <ele>2057.0</ele>
        <time>2019-10-12T16:50:22.863Z</time>
      </trkpt>
      <trkpt lat="20.238435" lon="-98.738625">
        <ele>2057.0</ele>
        <time>2019-10-12T16:50:23.864Z</time>
      </trkpt>
      <trkpt lat="20.238425" lon="-98.738625">
        <ele>2057.0</ele>
        <time>2019-10-12T16:50:24.865Z</time>
      </trkpt>
      <trkpt lat="20.23841333" lon="-98.73862167">
        <ele>2057.0</ele>
        <time>2019-10-12T16:50:25.865Z</time>
      </trkpt>
      <trkpt lat="20.23840333" lon="-98.73861833">
        <ele>2057.0</ele>
        <time>2019-10-12T16:50:26.866Z</time>
      </trkpt>
      <trkpt lat="20.23839167" lon="-98.73861667">
        <ele>2057.0</ele>
        <time>2019-10-12T16:50:27.867Z</time>
      </trkpt>
      <trkpt lat="20.23838333" lon="-98.73861">
        <ele>2058.0</ele>
        <time>2019-10-12T16:50:28.868Z</time>
      </trkpt>
      <trkpt lat="20.23837333" lon="-98.73860167">
        <ele>2058.0</ele>
        <time>2019-10-12T16:50:29.869Z</time>
      </trkpt>
      <trkpt lat="20.23836333" lon="-98.738595">
        <ele>2059.0</ele>
        <time>2019-10-12T16:50:30.869Z</time>
      </trkpt>
      <trkpt lat="20.23836167" lon="-98.738585">
        <ele>2059.0</ele>
        <time>2019-10-12T16:50:31.869Z</time>
      </trkpt>
      <trkpt lat="20.23836" lon="-98.738575">
        <ele>2060.0</ele>
        <time>2019-10-12T16:50:32.876Z</time>
      </trkpt>
      <trkpt lat="20.238355" lon="-98.73856333">
        <ele>2061.0</ele>
        <time>2019-10-12T16:50:33.879Z</time>
      </trkpt>
      <trkpt lat="20.23834833" lon="-98.73855167">
        <ele>2061.0</ele>
        <time>2019-10-12T16:50:34.881Z</time>
      </trkpt>
      <trkpt lat="20.23834833" lon="-98.73854333">
        <ele>2061.0</ele>
        <time>2019-10-12T16:50:35.888Z</time>
      </trkpt>
      <trkpt lat="20.23835167" lon="-98.73853167">
        <ele>2061.0</ele>
        <time>2019-10-12T16:50:36.891Z</time>
      </trkpt>
      <trkpt lat="20.23835167" lon="-98.73852">
        <ele>2062.0</ele>
        <time>2019-10-12T16:50:37.893Z</time>
      </trkpt>
      <trkpt lat="20.238355" lon="-98.73851">
        <ele>2062.0</ele>
        <time>2019-10-12T16:50:38.895Z</time>
      </trkpt>
      <trkpt lat="20.23836167" lon="-98.73849667">
        <ele>2061.0</ele>
        <time>2019-10-12T16:50:39.897Z</time>
      </trkpt>
      <trkpt lat="20.23836667" lon="-98.73848667">
        <ele>2062.0</ele>
        <time>2019-10-12T16:50:40.904Z</time>
      </trkpt>
      <trkpt lat="20.23837333" lon="-98.73847667">
        <ele>2062.0</ele>
        <time>2019-10-12T16:50:41.911Z</time>
      </trkpt>
      <trkpt lat="20.23838167" lon="-98.73846833">
        <ele>2063.0</ele>
        <time>2019-10-12T16:50:42.917Z</time>
      </trkpt>
      <trkpt lat="20.23838833" lon="-98.73846">
        <ele>2063.0</ele>
        <time>2019-10-12T16:50:43.922Z</time>
      </trkpt>
      <trkpt lat="20.23839667" lon="-98.73845">
        <ele>2063.0</ele>
        <time>2019-10-12T16:50:44.923Z</time>
      </trkpt>
      <trkpt lat="20.23840167" lon="-98.73844333">
        <ele>2064.0</ele>
        <time>2019-10-12T16:50:45.930Z</time>
      </trkpt>
      <trkpt lat="20.23840667" lon="-98.73843833">
        <ele>2064.0</ele>
        <time>2019-10-12T16:50:46.936Z</time>
      </trkpt>
      <trkpt lat="20.23841667" lon="-98.73843333">
        <ele>2063.0</ele>
        <time>2019-10-12T16:50:47.940Z</time>
      </trkpt>
      <trkpt lat="20.238425" lon="-98.73843">
        <ele>2064.0</ele>
        <time>2019-10-12T16:50:48.941Z</time>
      </trkpt>
      <trkpt lat="20.23843333" lon="-98.738425">
        <ele>2064.0</ele>
        <time>2019-10-12T16:50:49.942Z</time>
      </trkpt>
      <trkpt lat="20.23843833" lon="-98.73841833">
        <ele>2064.0</ele>
        <time>2019-10-12T16:50:50.942Z</time>
      </trkpt>
      <trkpt lat="20.23844167" lon="-98.73841">
        <ele>2063.0</ele>
        <time>2019-10-12T16:50:51.943Z</time>
      </trkpt>
      <trkpt lat="20.23844" lon="-98.7384">
        <ele>2063.0</ele>
        <time>2019-10-12T16:50:52.943Z</time>
      </trkpt>
      <trkpt lat="20.23843833" lon="-98.73839167">
        <ele>2063.0</ele>
        <time>2019-10-12T16:50:53.944Z</time>
      </trkpt>
      <trkpt lat="20.238435" lon="-98.73838333">
        <ele>2064.0</ele>
        <time>2019-10-12T16:50:54.948Z</time>
      </trkpt>
      <trkpt lat="20.23843333" lon="-98.73837167">
        <ele>2064.0</ele>
        <time>2019-10-12T16:50:55.955Z</time>
      </trkpt>
      <trkpt lat="20.23843333" lon="-98.73836">
        <ele>2064.0</ele>
        <time>2019-10-12T16:50:56.836Z</time>
      </trkpt>
      <trkpt lat="20.23843333" lon="-98.73835">
        <ele>2064.0</ele>
        <time>2019-10-12T16:50:57.840Z</time>
      </trkpt>
      <trkpt lat="20.23843167" lon="-98.73834333">
        <ele>2064.0</ele>
        <time>2019-10-12T16:50:58.844Z</time>
      </trkpt>
      <trkpt lat="20.23842833" lon="-98.738335">
        <ele>2065.0</ele>
        <time>2019-10-12T16:50:59.845Z</time>
      </trkpt>
      <trkpt lat="20.23842667" lon="-98.73832667">
        <ele>2065.0</ele>
        <time>2019-10-12T16:51:00.846Z</time>
      </trkpt>
      <trkpt lat="20.23842333" lon="-98.738315">
        <ele>2065.0</ele>
        <time>2019-10-12T16:51:01.853Z</time>
      </trkpt>
      <trkpt lat="20.23842" lon="-98.738305">
        <ele>2065.0</ele>
        <time>2019-10-12T16:51:02.860Z</time>
      </trkpt>
      <trkpt lat="20.23841833" lon="-98.73829667">
        <ele>2065.0</ele>
        <time>2019-10-12T16:51:03.866Z</time>
      </trkpt>
      <trkpt lat="20.23841833" lon="-98.73828667">
        <ele>2065.0</ele>
        <time>2019-10-12T16:51:04.872Z</time>
      </trkpt>
      <trkpt lat="20.238415" lon="-98.73828">
        <ele>2065.0</ele>
        <time>2019-10-12T16:51:05.876Z</time>
      </trkpt>
      <trkpt lat="20.23841" lon="-98.738275">
        <ele>2065.0</ele>
        <time>2019-10-12T16:51:06.881Z</time>
      </trkpt>
      <trkpt lat="20.23840667" lon="-98.738265">
        <ele>2066.0</ele>
        <time>2019-10-12T16:51:07.888Z</time>
      </trkpt>
      <trkpt lat="20.2384" lon="-98.738255">
        <ele>2066.0</ele>
        <time>2019-10-12T16:51:08.893Z</time>
      </trkpt>
      <trkpt lat="20.23839667" lon="-98.73824667">
        <ele>2067.0</ele>
        <time>2019-10-12T16:51:09.894Z</time>
      </trkpt>
      <trkpt lat="20.23839667" lon="-98.73823667">
        <ele>2067.0</ele>
        <time>2019-10-12T16:51:10.895Z</time>
      </trkpt>
      <trkpt lat="20.238395" lon="-98.73822833">
        <ele>2067.0</ele>
        <time>2019-10-12T16:51:11.899Z</time>
      </trkpt>
      <trkpt lat="20.238395" lon="-98.73821833">
        <ele>2067.0</ele>
        <time>2019-10-12T16:51:12.907Z</time>
      </trkpt>
      <trkpt lat="20.23839333" lon="-98.73820667">
        <ele>2067.0</ele>
        <time>2019-10-12T16:51:13.913Z</time>
      </trkpt>
      <trkpt lat="20.23839167" lon="-98.73819833">
        <ele>2067.0</ele>
        <time>2019-10-12T16:51:14.915Z</time>
      </trkpt>
      <trkpt lat="20.23838833" lon="-98.73819333">
        <ele>2068.0</ele>
        <time>2019-10-12T16:51:15.920Z</time>
      </trkpt>
      <trkpt lat="20.23838333" lon="-98.73818667">
        <ele>2068.0</ele>
        <time>2019-10-12T16:51:16.925Z</time>
      </trkpt>
      <trkpt lat="20.23838" lon="-98.73817833">
        <ele>2069.0</ele>
        <time>2019-10-12T16:51:17.932Z</time>
      </trkpt>
      <trkpt lat="20.23837667" lon="-98.73817">
        <ele>2069.0</ele>
        <time>2019-10-12T16:51:18.935Z</time>
      </trkpt>
      <trkpt lat="20.23837167" lon="-98.73816">
        <ele>2069.0</ele>
        <time>2019-10-12T16:51:19.941Z</time>
      </trkpt>
      <trkpt lat="20.23836667" lon="-98.738145">
        <ele>2069.0</ele>
        <time>2019-10-12T16:51:20.948Z</time>
      </trkpt>
      <trkpt lat="20.23836333" lon="-98.73813667">
        <ele>2070.0</ele>
        <time>2019-10-12T16:51:21.952Z</time>
      </trkpt>
      <trkpt lat="20.23835667" lon="-98.73812333">
        <ele>2069.0</ele>
        <time>2019-10-12T16:51:22.833Z</time>
      </trkpt>
      <trkpt lat="20.23835167" lon="-98.738115">
        <ele>2069.0</ele>
        <time>2019-10-12T16:51:23.838Z</time>
      </trkpt>
      <trkpt lat="20.23834333" lon="-98.73810667">
        <ele>2070.0</ele>
        <time>2019-10-12T16:51:24.843Z</time>
      </trkpt>
      <trkpt lat="20.238335" lon="-98.73809667">
        <ele>2071.0</ele>
        <time>2019-10-12T16:51:25.844Z</time>
      </trkpt>
      <trkpt lat="20.23832667" lon="-98.73809">
        <ele>2071.0</ele>
        <time>2019-10-12T16:51:26.844Z</time>
      </trkpt>
      <trkpt lat="20.23831667" lon="-98.73808167">
        <ele>2071.0</ele>
        <time>2019-10-12T16:51:27.845Z</time>
      </trkpt>
      <trkpt lat="20.23831167" lon="-98.73807833">
        <ele>2072.0</ele>
        <time>2019-10-12T16:51:28.846Z</time>
      </trkpt>
      <trkpt lat="20.23830167" lon="-98.73807167">
        <ele>2072.0</ele>
        <time>2019-10-12T16:51:29.847Z</time>
      </trkpt>
      <trkpt lat="20.23829" lon="-98.73806833">
        <ele>2072.0</ele>
        <time>2019-10-12T16:51:30.848Z</time>
      </trkpt>
      <trkpt lat="20.238275" lon="-98.73806333">
        <ele>2072.0</ele>
        <time>2019-10-12T16:51:31.848Z</time>
      </trkpt>
      <trkpt lat="20.23826333" lon="-98.73805833">
        <ele>2072.0</ele>
        <time>2019-10-12T16:51:32.849Z</time>
      </trkpt>
      <trkpt lat="20.23825333" lon="-98.73805333">
        <ele>2072.0</ele>
        <time>2019-10-12T16:51:33.850Z</time>
      </trkpt>
      <trkpt lat="20.23824333" lon="-98.73804667">
        <ele>2072.0</ele>
        <time>2019-10-12T16:51:34.851Z</time>
      </trkpt>
      <trkpt lat="20.238235" lon="-98.73804">
        <ele>2072.0</ele>
        <time>2019-10-12T16:51:35.852Z</time>
      </trkpt>
      <trkpt lat="20.23822667" lon="-98.73803167">
        <ele>2073.0</ele>
        <time>2019-10-12T16:51:36.853Z</time>
      </trkpt>
      <trkpt lat="20.23821833" lon="-98.738025">
        <ele>2073.0</ele>
        <time>2019-10-12T16:51:37.853Z</time>
      </trkpt>
      <trkpt lat="20.23821167" lon="-98.73802">
        <ele>2073.0</ele>
        <time>2019-10-12T16:51:38.854Z</time>
      </trkpt>
      <trkpt lat="20.23820667" lon="-98.73801333">
        <ele>2074.0</ele>
        <time>2019-10-12T16:51:39.855Z</time>
      </trkpt>
      <trkpt lat="20.23819667" lon="-98.73800833">
        <ele>2074.0</ele>
        <time>2019-10-12T16:51:40.856Z</time>
      </trkpt>
      <trkpt lat="20.23818833" lon="-98.738">
        <ele>2074.0</ele>
        <time>2019-10-12T16:51:41.856Z</time>
      </trkpt>
      <trkpt lat="20.23818167" lon="-98.73799">
        <ele>2074.0</ele>
        <time>2019-10-12T16:51:42.857Z</time>
      </trkpt>
      <trkpt lat="20.23817333" lon="-98.73798167">
        <ele>2075.0</ele>
        <time>2019-10-12T16:51:43.857Z</time>
      </trkpt>
      <trkpt lat="20.23816333" lon="-98.73797333">
        <ele>2075.0</ele>
        <time>2019-10-12T16:51:44.857Z</time>
      </trkpt>
      <trkpt lat="20.23815167" lon="-98.73796333">
        <ele>2075.0</ele>
        <time>2019-10-12T16:51:45.858Z</time>
      </trkpt>
      <trkpt lat="20.23814167" lon="-98.737955">
        <ele>2075.0</ele>
        <time>2019-10-12T16:51:46.858Z</time>
      </trkpt>
      <trkpt lat="20.238135" lon="-98.73794667">
        <ele>2076.0</ele>
        <time>2019-10-12T16:51:47.858Z</time>
      </trkpt>
      <trkpt lat="20.23812833" lon="-98.73794">
        <ele>2076.0</ele>
        <time>2019-10-12T16:51:48.859Z</time>
      </trkpt>
      <trkpt lat="20.23812167" lon="-98.73793167">
        <ele>2076.0</ele>
        <time>2019-10-12T16:51:49.859Z</time>
      </trkpt>
      <trkpt lat="20.23811333" lon="-98.73792167">
        <ele>2076.0</ele>
        <time>2019-10-12T16:51:50.859Z</time>
      </trkpt>
      <trkpt lat="20.23810833" lon="-98.737915">
        <ele>2076.0</ele>
        <time>2019-10-12T16:51:51.859Z</time>
      </trkpt>
      <trkpt lat="20.2381" lon="-98.73790667">
        <ele>2077.0</ele>
        <time>2019-10-12T16:51:52.860Z</time>
      </trkpt>
      <trkpt lat="20.23809333" lon="-98.73789667">
        <ele>2077.0</ele>
        <time>2019-10-12T16:51:53.860Z</time>
      </trkpt>
      <trkpt lat="20.238085" lon="-98.737885">
        <ele>2078.0</ele>
        <time>2019-10-12T16:51:54.860Z</time>
      </trkpt>
      <trkpt lat="20.23807333" lon="-98.737875">
        <ele>2078.0</ele>
        <time>2019-10-12T16:51:55.860Z</time>
      </trkpt>
      <trkpt lat="20.238065" lon="-98.73786667">
        <ele>2078.0</ele>
        <time>2019-10-12T16:51:56.860Z</time>
      </trkpt>
      <trkpt lat="20.23805333" lon="-98.73785833">
        <ele>2079.0</ele>
        <time>2019-10-12T16:51:57.861Z</time>
      </trkpt>
      <trkpt lat="20.238045" lon="-98.73785167">
        <ele>2081.0</ele>
        <time>2019-10-12T16:51:58.862Z</time>
      </trkpt>
      <trkpt lat="20.23804" lon="-98.73784833">
        <ele>2081.0</ele>
        <time>2019-10-12T16:51:59.863Z</time>
      </trkpt>
      <trkpt lat="20.23803333" lon="-98.737845">
        <ele>2082.0</ele>
        <time>2019-10-12T16:52:00.864Z</time>
      </trkpt>
      <trkpt lat="20.23802833" lon="-98.73784333">
        <ele>2082.0</ele>
        <time>2019-10-12T16:52:01.865Z</time>
      </trkpt>
      <trkpt lat="20.23802333" lon="-98.73784">
        <ele>2082.0</ele>
        <time>2019-10-12T16:52:02.865Z</time>
      </trkpt>
      <trkpt lat="20.23801833" lon="-98.737835">
        <ele>2082.0</ele>
        <time>2019-10-12T16:52:03.866Z</time>
      </trkpt>
      <trkpt lat="20.23801167" lon="-98.73782833">
        <ele>2082.0</ele>
        <time>2019-10-12T16:52:04.867Z</time>
      </trkpt>
      <trkpt lat="20.23800667" lon="-98.73782667">
        <ele>2083.0</ele>
        <time>2019-10-12T16:52:05.868Z</time>
      </trkpt>
      <trkpt lat="20.23800167" lon="-98.73782333">
        <ele>2083.0</ele>
        <time>2019-10-12T16:52:06.869Z</time>
      </trkpt>
      <trkpt lat="20.23799333" lon="-98.73782">
        <ele>2084.0</ele>
        <time>2019-10-12T16:52:07.869Z</time>
      </trkpt>
      <trkpt lat="20.23798667" lon="-98.73781167">
        <ele>2084.0</ele>
        <time>2019-10-12T16:52:08.870Z</time>
      </trkpt>
      <trkpt lat="20.23798167" lon="-98.73780167">
        <ele>2084.0</ele>
        <time>2019-10-12T16:52:09.871Z</time>
      </trkpt>
      <trkpt lat="20.23797833" lon="-98.73779167">
        <ele>2084.0</ele>
        <time>2019-10-12T16:52:10.872Z</time>
      </trkpt>
      <trkpt lat="20.23797833" lon="-98.73778333">
        <ele>2084.0</ele>
        <time>2019-10-12T16:52:11.873Z</time>
      </trkpt>
      <trkpt lat="20.23797333" lon="-98.73777667">
        <ele>2084.0</ele>
        <time>2019-10-12T16:52:12.873Z</time>
      </trkpt>
      <trkpt lat="20.23796667" lon="-98.73776667">
        <ele>2084.0</ele>
        <time>2019-10-12T16:52:13.874Z</time>
      </trkpt>
      <trkpt lat="20.23796167" lon="-98.73775667">
        <ele>2084.0</ele>
        <time>2019-10-12T16:52:14.875Z</time>
      </trkpt>
      <trkpt lat="20.237955" lon="-98.73774333">
        <ele>2084.0</ele>
        <time>2019-10-12T16:52:15.876Z</time>
      </trkpt>
      <trkpt lat="20.23795333" lon="-98.73773">
        <ele>2084.0</ele>
        <time>2019-10-12T16:52:16.877Z</time>
      </trkpt>
      <trkpt lat="20.23794667" lon="-98.737715">
        <ele>2084.0</ele>
        <time>2019-10-12T16:52:17.878Z</time>
      </trkpt>
      <trkpt lat="20.23794" lon="-98.73770333">
        <ele>2084.0</ele>
        <time>2019-10-12T16:52:18.878Z</time>
      </trkpt>
      <trkpt lat="20.237935" lon="-98.73769">
        <ele>2084.0</ele>
        <time>2019-10-12T16:52:19.879Z</time>
      </trkpt>
      <trkpt lat="20.23793" lon="-98.73768">
        <ele>2085.0</ele>
        <time>2019-10-12T16:52:20.880Z</time>
      </trkpt>
      <trkpt lat="20.23792167" lon="-98.73767">
        <ele>2085.0</ele>
        <time>2019-10-12T16:52:21.880Z</time>
      </trkpt>
      <trkpt lat="20.23791333" lon="-98.73766167">
        <ele>2084.0</ele>
        <time>2019-10-12T16:52:22.881Z</time>
      </trkpt>
      <trkpt lat="20.237905" lon="-98.73765333">
        <ele>2084.0</ele>
        <time>2019-10-12T16:52:23.885Z</time>
      </trkpt>
      <trkpt lat="20.23789833" lon="-98.73764167">
        <ele>2084.0</ele>
        <time>2019-10-12T16:52:24.891Z</time>
      </trkpt>
      <trkpt lat="20.23789167" lon="-98.73762667">
        <ele>2084.0</ele>
        <time>2019-10-12T16:52:25.897Z</time>
      </trkpt>
      <trkpt lat="20.237875" lon="-98.73761167">
        <ele>2084.0</ele>
        <time>2019-10-12T16:52:26.903Z</time>
      </trkpt>
      <trkpt lat="20.23786333" lon="-98.737595">
        <ele>2084.0</ele>
        <time>2019-10-12T16:52:27.908Z</time>
      </trkpt>
      <trkpt lat="20.23785" lon="-98.73758167">
        <ele>2085.0</ele>
        <time>2019-10-12T16:52:28.914Z</time>
      </trkpt>
      <trkpt lat="20.23783667" lon="-98.73756667">
        <ele>2085.0</ele>
        <time>2019-10-12T16:52:29.918Z</time>
      </trkpt>
      <trkpt lat="20.23782167" lon="-98.73755">
        <ele>2085.0</ele>
        <time>2019-10-12T16:52:30.923Z</time>
      </trkpt>
      <trkpt lat="20.23781833" lon="-98.73753167">
        <ele>2085.0</ele>
        <time>2019-10-12T16:52:31.925Z</time>
      </trkpt>
      <trkpt lat="20.237815" lon="-98.737515">
        <ele>2086.0</ele>
        <time>2019-10-12T16:52:32.927Z</time>
      </trkpt>
      <trkpt lat="20.23780667" lon="-98.737495">
        <ele>2086.0</ele>
        <time>2019-10-12T16:52:33.933Z</time>
      </trkpt>
      <trkpt lat="20.237795" lon="-98.73748167">
        <ele>2086.0</ele>
        <time>2019-10-12T16:52:34.937Z</time>
      </trkpt>
      <trkpt lat="20.23778833" lon="-98.73746833">
        <ele>2086.0</ele>
        <time>2019-10-12T16:52:35.945Z</time>
      </trkpt>
      <trkpt lat="20.23777667" lon="-98.737455">
        <ele>2086.0</ele>
        <time>2019-10-12T16:52:36.949Z</time>
      </trkpt>
      <trkpt lat="20.23776667" lon="-98.73743833">
        <ele>2086.0</ele>
        <time>2019-10-12T16:52:37.952Z</time>
      </trkpt>
      <trkpt lat="20.23776167" lon="-98.73742167">
        <ele>2087.0</ele>
        <time>2019-10-12T16:52:38.832Z</time>
      </trkpt>
      <trkpt lat="20.23775167" lon="-98.73740333">
        <ele>2087.0</ele>
        <time>2019-10-12T16:52:39.832Z</time>
      </trkpt>
      <trkpt lat="20.23774833" lon="-98.737385">
        <ele>2087.0</ele>
        <time>2019-10-12T16:52:40.833Z</time>
      </trkpt>
      <trkpt lat="20.23774667" lon="-98.73736833">
        <ele>2087.0</ele>
        <time>2019-10-12T16:52:41.834Z</time>
      </trkpt>
      <trkpt lat="20.23774" lon="-98.73734833">
        <ele>2088.0</ele>
        <time>2019-10-12T16:52:42.835Z</time>
      </trkpt>
      <trkpt lat="20.237735" lon="-98.73733167">
        <ele>2088.0</ele>
        <time>2019-10-12T16:52:43.836Z</time>
      </trkpt>
      <trkpt lat="20.237735" lon="-98.73731167">
        <ele>2087.0</ele>
        <time>2019-10-12T16:52:44.836Z</time>
      </trkpt>
      <trkpt lat="20.23773333" lon="-98.737295">
        <ele>2087.0</ele>
        <time>2019-10-12T16:52:45.838Z</time>
      </trkpt>
      <trkpt lat="20.23772" lon="-98.73727833">
        <ele>2086.0</ele>
        <time>2019-10-12T16:52:46.847Z</time>
      </trkpt>
      <trkpt lat="20.23770833" lon="-98.73726">
        <ele>2086.0</ele>
        <time>2019-10-12T16:52:47.850Z</time>
      </trkpt>
      <trkpt lat="20.2377" lon="-98.73724">
        <ele>2086.0</ele>
        <time>2019-10-12T16:52:48.856Z</time>
      </trkpt>
      <trkpt lat="20.237695" lon="-98.73721833">
        <ele>2086.0</ele>
        <time>2019-10-12T16:52:49.858Z</time>
      </trkpt>
      <trkpt lat="20.23769667" lon="-98.737195">
        <ele>2087.0</ele>
        <time>2019-10-12T16:52:50.861Z</time>
      </trkpt>
      <trkpt lat="20.237695" lon="-98.73717667">
        <ele>2087.0</ele>
        <time>2019-10-12T16:52:51.863Z</time>
      </trkpt>
      <trkpt lat="20.23770333" lon="-98.73715667">
        <ele>2087.0</ele>
        <time>2019-10-12T16:52:52.870Z</time>
      </trkpt>
      <trkpt lat="20.237715" lon="-98.73713833">
        <ele>2088.0</ele>
        <time>2019-10-12T16:52:53.876Z</time>
      </trkpt>
      <trkpt lat="20.23772167" lon="-98.73711833">
        <ele>2088.0</ele>
        <time>2019-10-12T16:52:54.881Z</time>
      </trkpt>
      <trkpt lat="20.237715" lon="-98.73709833">
        <ele>2088.0</ele>
        <time>2019-10-12T16:52:55.887Z</time>
      </trkpt>
      <trkpt lat="20.23770333" lon="-98.737075">
        <ele>2088.0</ele>
        <time>2019-10-12T16:52:56.889Z</time>
      </trkpt>
      <trkpt lat="20.23769167" lon="-98.73705333">
        <ele>2087.0</ele>
        <time>2019-10-12T16:52:57.895Z</time>
      </trkpt>
      <trkpt lat="20.237685" lon="-98.73703333">
        <ele>2088.0</ele>
        <time>2019-10-12T16:52:58.901Z</time>
      </trkpt>
      <trkpt lat="20.23767833" lon="-98.73701167">
        <ele>2089.0</ele>
        <time>2019-10-12T16:52:59.907Z</time>
      </trkpt>
      <trkpt lat="20.23767167" lon="-98.73699333">
        <ele>2088.0</ele>
        <time>2019-10-12T16:53:00.910Z</time>
      </trkpt>
      <trkpt lat="20.23767" lon="-98.73697667">
        <ele>2088.0</ele>
        <time>2019-10-12T16:53:01.911Z</time>
      </trkpt>
      <trkpt lat="20.23766667" lon="-98.736965">
        <ele>2087.0</ele>
        <time>2019-10-12T16:53:02.912Z</time>
      </trkpt>
      <trkpt lat="20.23766667" lon="-98.73696">
        <ele>2086.0</ele>
        <time>2019-10-12T16:53:03.913Z</time>
      </trkpt>
      <trkpt lat="20.23767" lon="-98.73696333">
        <ele>2086.0</ele>
        <time>2019-10-12T16:53:04.917Z</time>
      </trkpt>
      <trkpt lat="20.23768" lon="-98.73696167">
        <ele>2087.0</ele>
        <time>2019-10-12T16:53:05.924Z</time>
      </trkpt>
      <trkpt lat="20.23768667" lon="-98.73695667">
        <ele>2087.0</ele>
        <time>2019-10-12T16:53:06.930Z</time>
      </trkpt>
      <trkpt lat="20.237695" lon="-98.73695167">
        <ele>2087.0</ele>
        <time>2019-10-12T16:53:07.936Z</time>
      </trkpt>
      <trkpt lat="20.23770333" lon="-98.73694833">
        <ele>2088.0</ele>
        <time>2019-10-12T16:53:08.937Z</time>
      </trkpt>
      <trkpt lat="20.237715" lon="-98.736945">
        <ele>2089.0</ele>
        <time>2019-10-12T16:53:09.938Z</time>
      </trkpt>
      <trkpt lat="20.23773167" lon="-98.73694333">
        <ele>2090.0</ele>
        <time>2019-10-12T16:53:10.941Z</time>
      </trkpt>
      <trkpt lat="20.23774833" lon="-98.73694333">
        <ele>2091.0</ele>
        <time>2019-10-12T16:53:11.947Z</time>
      </trkpt>
      <trkpt lat="20.237765" lon="-98.73694333">
        <ele>2091.0</ele>
        <time>2019-10-12T16:53:12.954Z</time>
      </trkpt>
      <trkpt lat="20.23778167" lon="-98.73694333">
        <ele>2091.0</ele>
        <time>2019-10-12T16:53:13.833Z</time>
      </trkpt>
      <trkpt lat="20.23779833" lon="-98.73694333">
        <ele>2091.0</ele>
        <time>2019-10-12T16:53:14.838Z</time>
      </trkpt>
      <trkpt lat="20.23781667" lon="-98.73694667">
        <ele>2091.0</ele>
        <time>2019-10-12T16:53:15.843Z</time>
      </trkpt>
      <trkpt lat="20.23783333" lon="-98.736945">
        <ele>2090.0</ele>
        <time>2019-10-12T16:53:16.847Z</time>
      </trkpt>
      <trkpt lat="20.23785167" lon="-98.73694">
        <ele>2089.0</ele>
        <time>2019-10-12T16:53:17.854Z</time>
      </trkpt>
      <trkpt lat="20.23787" lon="-98.73693333">
        <ele>2089.0</ele>
        <time>2019-10-12T16:53:18.860Z</time>
      </trkpt>
      <trkpt lat="20.23788667" lon="-98.73691833">
        <ele>2089.0</ele>
        <time>2019-10-12T16:53:19.861Z</time>
      </trkpt>
      <trkpt lat="20.23790167" lon="-98.73690333">
        <ele>2089.0</ele>
        <time>2019-10-12T16:53:20.862Z</time>
      </trkpt>
      <trkpt lat="20.23791" lon="-98.73688833">
        <ele>2089.0</ele>
        <time>2019-10-12T16:53:21.863Z</time>
      </trkpt>
      <trkpt lat="20.23791667" lon="-98.736875">
        <ele>2089.0</ele>
        <time>2019-10-12T16:53:22.864Z</time>
      </trkpt>
      <trkpt lat="20.23792833" lon="-98.73685833">
        <ele>2090.0</ele>
        <time>2019-10-12T16:53:23.864Z</time>
      </trkpt>
      <trkpt lat="20.23793833" lon="-98.73684">
        <ele>2090.0</ele>
        <time>2019-10-12T16:53:24.865Z</time>
      </trkpt>
      <trkpt lat="20.23794833" lon="-98.73682167">
        <ele>2091.0</ele>
        <time>2019-10-12T16:53:25.866Z</time>
      </trkpt>
      <trkpt lat="20.237955" lon="-98.73680667">
        <ele>2091.0</ele>
        <time>2019-10-12T16:53:26.867Z</time>
      </trkpt>
      <trkpt lat="20.23796333" lon="-98.73679">
        <ele>2091.0</ele>
        <time>2019-10-12T16:53:27.871Z</time>
      </trkpt>
      <trkpt lat="20.23796667" lon="-98.73677333">
        <ele>2091.0</ele>
        <time>2019-10-12T16:53:28.876Z</time>
      </trkpt>
      <trkpt lat="20.23796833" lon="-98.73675833">
        <ele>2091.0</ele>
        <time>2019-10-12T16:53:29.879Z</time>
      </trkpt>
      <trkpt lat="20.23797167" lon="-98.73674333">
        <ele>2091.0</ele>
        <time>2019-10-12T16:53:30.884Z</time>
      </trkpt>
      <trkpt lat="20.23797667" lon="-98.73672833">
        <ele>2090.0</ele>
        <time>2019-10-12T16:53:31.889Z</time>
      </trkpt>
      <trkpt lat="20.23798667" lon="-98.736715">
        <ele>2090.0</ele>
        <time>2019-10-12T16:53:32.894Z</time>
      </trkpt>
      <trkpt lat="20.23799667" lon="-98.736705">
        <ele>2090.0</ele>
        <time>2019-10-12T16:53:33.901Z</time>
      </trkpt>
      <trkpt lat="20.23800667" lon="-98.736695">
        <ele>2090.0</ele>
        <time>2019-10-12T16:53:34.907Z</time>
      </trkpt>
      <trkpt lat="20.23801833" lon="-98.73668333">
        <ele>2091.0</ele>
        <time>2019-10-12T16:53:35.913Z</time>
      </trkpt>
      <trkpt lat="20.23803333" lon="-98.73667167">
        <ele>2091.0</ele>
        <time>2019-10-12T16:53:36.915Z</time>
      </trkpt>
      <trkpt lat="20.23804667" lon="-98.73666167">
        <ele>2091.0</ele>
        <time>2019-10-12T16:53:37.920Z</time>
      </trkpt>
      <trkpt lat="20.238065" lon="-98.736655">
        <ele>2092.0</ele>
        <time>2019-10-12T16:53:38.925Z</time>
      </trkpt>
      <trkpt lat="20.23808167" lon="-98.73665">
        <ele>2092.0</ele>
        <time>2019-10-12T16:53:39.931Z</time>
      </trkpt>
      <trkpt lat="20.23809667" lon="-98.736645">
        <ele>2092.0</ele>
        <time>2019-10-12T16:53:40.937Z</time>
      </trkpt>
      <trkpt lat="20.238115" lon="-98.73664167">
        <ele>2093.0</ele>
        <time>2019-10-12T16:53:41.941Z</time>
      </trkpt>
      <trkpt lat="20.23813333" lon="-98.73663667">
        <ele>2093.0</ele>
        <time>2019-10-12T16:53:42.942Z</time>
      </trkpt>
      <trkpt lat="20.23814833" lon="-98.73663167">
        <ele>2094.0</ele>
        <time>2019-10-12T16:53:43.950Z</time>
      </trkpt>
      <trkpt lat="20.23816333" lon="-98.73662333">
        <ele>2094.0</ele>
        <time>2019-10-12T16:53:44.954Z</time>
      </trkpt>
      <trkpt lat="20.23817833" lon="-98.73661667">
        <ele>2095.0</ele>
        <time>2019-10-12T16:53:45.833Z</time>
      </trkpt>
      <trkpt lat="20.238195" lon="-98.73660833">
        <ele>2095.0</ele>
        <time>2019-10-12T16:53:46.838Z</time>
      </trkpt>
      <trkpt lat="20.23821" lon="-98.73659833">
        <ele>2096.0</ele>
        <time>2019-10-12T16:53:47.841Z</time>
      </trkpt>
      <trkpt lat="20.238225" lon="-98.73658667">
        <ele>2097.0</ele>
        <time>2019-10-12T16:53:48.845Z</time>
      </trkpt>
      <trkpt lat="20.23824" lon="-98.736575">
        <ele>2097.0</ele>
        <time>2019-10-12T16:53:49.852Z</time>
      </trkpt>
      <trkpt lat="20.23825167" lon="-98.73656167">
        <ele>2097.0</ele>
        <time>2019-10-12T16:53:50.855Z</time>
      </trkpt>
      <trkpt lat="20.23826333" lon="-98.73654667">
        <ele>2097.0</ele>
        <time>2019-10-12T16:53:51.858Z</time>
      </trkpt>
      <trkpt lat="20.238275" lon="-98.73653167">
        <ele>2097.0</ele>
        <time>2019-10-12T16:53:52.860Z</time>
      </trkpt>
      <trkpt lat="20.23828333" lon="-98.73651667">
        <ele>2097.0</ele>
        <time>2019-10-12T16:53:53.866Z</time>
      </trkpt>
      <trkpt lat="20.23829" lon="-98.7365">
        <ele>2097.0</ele>
        <time>2019-10-12T16:53:54.872Z</time>
      </trkpt>
      <trkpt lat="20.23829667" lon="-98.736485">
        <ele>2097.0</ele>
        <time>2019-10-12T16:53:55.879Z</time>
      </trkpt>
      <trkpt lat="20.23830167" lon="-98.73646833">
        <ele>2097.0</ele>
        <time>2019-10-12T16:53:56.880Z</time>
      </trkpt>
      <trkpt lat="20.238305" lon="-98.73645">
        <ele>2097.0</ele>
        <time>2019-10-12T16:53:57.883Z</time>
      </trkpt>
      <trkpt lat="20.23830667" lon="-98.73643167">
        <ele>2097.0</ele>
        <time>2019-10-12T16:53:58.890Z</time>
      </trkpt>
      <trkpt lat="20.23830833" lon="-98.73641333">
        <ele>2097.0</ele>
        <time>2019-10-12T16:53:59.892Z</time>
      </trkpt>
      <trkpt lat="20.23830833" lon="-98.73639333">
        <ele>2097.0</ele>
        <time>2019-10-12T16:54:00.893Z</time>
      </trkpt>
      <trkpt lat="20.23830667" lon="-98.73637667">
        <ele>2097.0</ele>
        <time>2019-10-12T16:54:01.894Z</time>
      </trkpt>
      <trkpt lat="20.23830167" lon="-98.73635833">
        <ele>2097.0</ele>
        <time>2019-10-12T16:54:02.895Z</time>
      </trkpt>
      <trkpt lat="20.23829833" lon="-98.73633833">
        <ele>2097.0</ele>
        <time>2019-10-12T16:54:03.896Z</time>
      </trkpt>
      <trkpt lat="20.23829667" lon="-98.73632167">
        <ele>2097.0</ele>
        <time>2019-10-12T16:54:04.899Z</time>
      </trkpt>
      <trkpt lat="20.238295" lon="-98.73630167">
        <ele>2097.0</ele>
        <time>2019-10-12T16:54:05.906Z</time>
      </trkpt>
      <trkpt lat="20.238295" lon="-98.736285">
        <ele>2097.0</ele>
        <time>2019-10-12T16:54:06.913Z</time>
      </trkpt>
      <trkpt lat="20.23829167" lon="-98.73626667">
        <ele>2097.0</ele>
        <time>2019-10-12T16:54:07.919Z</time>
      </trkpt>
      <trkpt lat="20.23829" lon="-98.73625">
        <ele>2096.0</ele>
        <time>2019-10-12T16:54:08.921Z</time>
      </trkpt>
      <trkpt lat="20.238285" lon="-98.73623167">
        <ele>2096.0</ele>
        <time>2019-10-12T16:54:09.926Z</time>
      </trkpt>
      <trkpt lat="20.23828333" lon="-98.73621333">
        <ele>2095.0</ele>
        <time>2019-10-12T16:54:10.932Z</time>
      </trkpt>
      <trkpt lat="20.23828167" lon="-98.73619167">
        <ele>2095.0</ele>
        <time>2019-10-12T16:54:11.933Z</time>
      </trkpt>
      <trkpt lat="20.23827833" lon="-98.73616833">
        <ele>2095.0</ele>
        <time>2019-10-12T16:54:12.938Z</time>
      </trkpt>
      <trkpt lat="20.23827667" lon="-98.736145">
        <ele>2095.0</ele>
        <time>2019-10-12T16:54:13.944Z</time>
      </trkpt>
      <trkpt lat="20.238275" lon="-98.736125">
        <ele>2095.0</ele>
        <time>2019-10-12T16:54:14.950Z</time>
      </trkpt>
      <trkpt lat="20.23827167" lon="-98.73610333">
        <ele>2095.0</ele>
        <time>2019-10-12T16:54:15.832Z</time>
      </trkpt>
      <trkpt lat="20.23826667" lon="-98.73608">
        <ele>2095.0</ele>
        <time>2019-10-12T16:54:16.837Z</time>
      </trkpt>
      <trkpt lat="20.238265" lon="-98.73605667">
        <ele>2094.0</ele>
        <time>2019-10-12T16:54:17.838Z</time>
      </trkpt>
      <trkpt lat="20.238265" lon="-98.73603167">
        <ele>2094.0</ele>
        <time>2019-10-12T16:54:18.842Z</time>
      </trkpt>
      <trkpt lat="20.238265" lon="-98.73600833">
        <ele>2094.0</ele>
        <time>2019-10-12T16:54:19.846Z</time>
      </trkpt>
      <trkpt lat="20.238265" lon="-98.73598833">
        <ele>2094.0</ele>
        <time>2019-10-12T16:54:20.846Z</time>
      </trkpt>
      <trkpt lat="20.23826667" lon="-98.73596667">
        <ele>2094.0</ele>
        <time>2019-10-12T16:54:21.848Z</time>
      </trkpt>
      <trkpt lat="20.23827167" lon="-98.73595">
        <ele>2094.0</ele>
        <time>2019-10-12T16:54:22.855Z</time>
      </trkpt>
      <trkpt lat="20.23827833" lon="-98.73593167">
        <ele>2094.0</ele>
        <time>2019-10-12T16:54:23.859Z</time>
      </trkpt>
      <trkpt lat="20.238285" lon="-98.73591333">
        <ele>2094.0</ele>
        <time>2019-10-12T16:54:24.863Z</time>
      </trkpt>
      <trkpt lat="20.23829" lon="-98.73589333">
        <ele>2094.0</ele>
        <time>2019-10-12T16:54:25.870Z</time>
      </trkpt>
      <trkpt lat="20.23829667" lon="-98.735875">
        <ele>2094.0</ele>
        <time>2019-10-12T16:54:26.876Z</time>
      </trkpt>
      <trkpt lat="20.23830167" lon="-98.735855">
        <ele>2094.0</ele>
        <time>2019-10-12T16:54:27.881Z</time>
      </trkpt>
      <trkpt lat="20.23830667" lon="-98.735835">
        <ele>2094.0</ele>
        <time>2019-10-12T16:54:28.887Z</time>
      </trkpt>
      <trkpt lat="20.238305" lon="-98.73581333">
        <ele>2094.0</ele>
        <time>2019-10-12T16:54:29.893Z</time>
      </trkpt>
      <trkpt lat="20.23830167" lon="-98.73579167">
        <ele>2093.0</ele>
        <time>2019-10-12T16:54:30.897Z</time>
      </trkpt>
      <trkpt lat="20.23830167" lon="-98.73576833">
        <ele>2093.0</ele>
        <time>2019-10-12T16:54:31.902Z</time>
      </trkpt>
      <trkpt lat="20.2383" lon="-98.735745">
        <ele>2093.0</ele>
        <time>2019-10-12T16:54:32.908Z</time>
      </trkpt>
      <trkpt lat="20.23829833" lon="-98.73572167">
        <ele>2092.0</ele>
        <time>2019-10-12T16:54:33.914Z</time>
      </trkpt>
      <trkpt lat="20.23829333" lon="-98.73569833">
        <ele>2092.0</ele>
        <time>2019-10-12T16:54:34.919Z</time>
      </trkpt>
      <trkpt lat="20.23828833" lon="-98.73567667">
        <ele>2092.0</ele>
        <time>2019-10-12T16:54:35.921Z</time>
      </trkpt>
      <trkpt lat="20.23828167" lon="-98.73565333">
        <ele>2092.0</ele>
        <time>2019-10-12T16:54:36.922Z</time>
      </trkpt>
      <trkpt lat="20.23827167" lon="-98.73563167">
        <ele>2093.0</ele>
        <time>2019-10-12T16:54:37.925Z</time>
      </trkpt>
      <trkpt lat="20.23826" lon="-98.73561833">
        <ele>2094.0</ele>
        <time>2019-10-12T16:54:38.931Z</time>
      </trkpt>
      <trkpt lat="20.23824833" lon="-98.73560833">
        <ele>2094.0</ele>
        <time>2019-10-12T16:54:39.932Z</time>
      </trkpt>
      <trkpt lat="20.238235" lon="-98.73560333">
        <ele>2095.0</ele>
        <time>2019-10-12T16:54:40.937Z</time>
      </trkpt>
      <trkpt lat="20.23822333" lon="-98.7356">
        <ele>2095.0</ele>
        <time>2019-10-12T16:54:41.943Z</time>
      </trkpt>
      <trkpt lat="20.23821" lon="-98.73560167">
        <ele>2096.0</ele>
        <time>2019-10-12T16:54:42.948Z</time>
      </trkpt>
      <trkpt lat="20.23819833" lon="-98.735605">
        <ele>2096.0</ele>
        <time>2019-10-12T16:54:43.954Z</time>
      </trkpt>
      <trkpt lat="20.23818833" lon="-98.73561333">
        <ele>2096.0</ele>
        <time>2019-10-12T16:54:44.836Z</time>
      </trkpt>
      <trkpt lat="20.23817667" lon="-98.73561833">
        <ele>2096.0</ele>
        <time>2019-10-12T16:54:45.840Z</time>
      </trkpt>
      <trkpt lat="20.23816667" lon="-98.73562333">
        <ele>2097.0</ele>
        <time>2019-10-12T16:54:46.844Z</time>
      </trkpt>
      <trkpt lat="20.23815667" lon="-98.735625">
        <ele>2097.0</ele>
        <time>2019-10-12T16:54:47.850Z</time>
      </trkpt>
      <trkpt lat="20.23814333" lon="-98.73562333">
        <ele>2098.0</ele>
        <time>2019-10-12T16:54:48.858Z</time>
      </trkpt>
      <trkpt lat="20.23813" lon="-98.73562167">
        <ele>2098.0</ele>
        <time>2019-10-12T16:54:49.864Z</time>
      </trkpt>
      <trkpt lat="20.23811833" lon="-98.73561833">
        <ele>2098.0</ele>
        <time>2019-10-12T16:54:50.869Z</time>
      </trkpt>
      <trkpt lat="20.23810833" lon="-98.73561667">
        <ele>2097.0</ele>
        <time>2019-10-12T16:54:51.871Z</time>
      </trkpt>
      <trkpt lat="20.23810333" lon="-98.73561667">
        <ele>2097.0</ele>
        <time>2019-10-12T16:54:52.872Z</time>
      </trkpt>
      <trkpt lat="20.238095" lon="-98.735615">
        <ele>2098.0</ele>
        <time>2019-10-12T16:54:53.873Z</time>
      </trkpt>
      <trkpt lat="20.238085" lon="-98.73561333">
        <ele>2098.0</ele>
        <time>2019-10-12T16:54:54.880Z</time>
      </trkpt>
      <trkpt lat="20.23807333" lon="-98.73561167">
        <ele>2098.0</ele>
        <time>2019-10-12T16:54:55.884Z</time>
      </trkpt>
      <trkpt lat="20.23805833" lon="-98.73561167">
        <ele>2098.0</ele>
        <time>2019-10-12T16:54:56.888Z</time>
      </trkpt>
      <trkpt lat="20.23805" lon="-98.73561833">
        <ele>2098.0</ele>
        <time>2019-10-12T16:54:57.894Z</time>
      </trkpt>
      <trkpt lat="20.23804" lon="-98.73562333">
        <ele>2097.0</ele>
        <time>2019-10-12T16:54:58.897Z</time>
      </trkpt>
      <trkpt lat="20.23803167" lon="-98.73562667">
        <ele>2097.0</ele>
        <time>2019-10-12T16:54:59.898Z</time>
      </trkpt>
      <trkpt lat="20.23802333" lon="-98.73563333">
        <ele>2097.0</ele>
        <time>2019-10-12T16:55:00.899Z</time>
      </trkpt>
      <trkpt lat="20.23801333" lon="-98.73564333">
        <ele>2097.0</ele>
        <time>2019-10-12T16:55:01.899Z</time>
      </trkpt>
      <trkpt lat="20.23800333" lon="-98.73565333">
        <ele>2097.0</ele>
        <time>2019-10-12T16:55:02.901Z</time>
      </trkpt>
      <trkpt lat="20.23799333" lon="-98.73566333">
        <ele>2097.0</ele>
        <time>2019-10-12T16:55:03.902Z</time>
      </trkpt>
      <trkpt lat="20.237985" lon="-98.73567333">
        <ele>2097.0</ele>
        <time>2019-10-12T16:55:04.905Z</time>
      </trkpt>
      <trkpt lat="20.23797833" lon="-98.73568167">
        <ele>2097.0</ele>
        <time>2019-10-12T16:55:05.907Z</time>
      </trkpt>
      <trkpt lat="20.23797333" lon="-98.73569167">
        <ele>2097.0</ele>
        <time>2019-10-12T16:55:06.909Z</time>
      </trkpt>
      <trkpt lat="20.23797167" lon="-98.73570167">
        <ele>2096.0</ele>
        <time>2019-10-12T16:55:07.910Z</time>
      </trkpt>
      <trkpt lat="20.23797167" lon="-98.73571333">
        <ele>2096.0</ele>
        <time>2019-10-12T16:55:08.915Z</time>
      </trkpt>
      <trkpt lat="20.237975" lon="-98.735725">
        <ele>2096.0</ele>
        <time>2019-10-12T16:55:09.920Z</time>
      </trkpt>
      <trkpt lat="20.23797833" lon="-98.73573833">
        <ele>2096.0</ele>
        <time>2019-10-12T16:55:10.923Z</time>
      </trkpt>
      <trkpt lat="20.23798333" lon="-98.73574833">
        <ele>2096.0</ele>
        <time>2019-10-12T16:55:11.926Z</time>
      </trkpt>
      <trkpt lat="20.23798833" lon="-98.73575833">
        <ele>2096.0</ele>
        <time>2019-10-12T16:55:12.930Z</time>
      </trkpt>
      <trkpt lat="20.23799333" lon="-98.73576667">
        <ele>2096.0</ele>
        <time>2019-10-12T16:55:13.935Z</time>
      </trkpt>
      <trkpt lat="20.23799833" lon="-98.735775">
        <ele>2096.0</ele>
        <time>2019-10-12T16:55:14.941Z</time>
      </trkpt>
      <trkpt lat="20.23800333" lon="-98.73578667">
        <ele>2097.0</ele>
        <time>2019-10-12T16:55:15.947Z</time>
      </trkpt>
      <trkpt lat="20.23800833" lon="-98.73579667">
        <ele>2097.0</ele>
        <time>2019-10-12T16:55:16.949Z</time>
      </trkpt>
      <trkpt lat="20.238015" lon="-98.73580833">
        <ele>2097.0</ele>
        <time>2019-10-12T16:55:17.950Z</time>
      </trkpt>
      <trkpt lat="20.23802167" lon="-98.73581833">
        <ele>2098.0</ele>
        <time>2019-10-12T16:55:18.954Z</time>
      </trkpt>
      <trkpt lat="20.23802667" lon="-98.73582833">
        <ele>2098.0</ele>
        <time>2019-10-12T16:55:19.835Z</time>
      </trkpt>
      <trkpt lat="20.23803167" lon="-98.73583833">
        <ele>2098.0</ele>
        <time>2019-10-12T16:55:20.841Z</time>
      </trkpt>
      <trkpt lat="20.23803333" lon="-98.73584833">
        <ele>2099.0</ele>
        <time>2019-10-12T16:55:21.849Z</time>
      </trkpt>
      <trkpt lat="20.23803667" lon="-98.73586">
        <ele>2099.0</ele>
        <time>2019-10-12T16:55:22.855Z</time>
      </trkpt>
      <trkpt lat="20.23804" lon="-98.73587">
        <ele>2099.0</ele>
        <time>2019-10-12T16:55:23.858Z</time>
      </trkpt>
      <trkpt lat="20.23804167" lon="-98.73587667">
        <ele>2099.0</ele>
        <time>2019-10-12T16:55:24.863Z</time>
      </trkpt>
      <trkpt lat="20.23804333" lon="-98.73588667">
        <ele>2099.0</ele>
        <time>2019-10-12T16:55:25.869Z</time>
      </trkpt>
      <trkpt lat="20.238045" lon="-98.73589833">
        <ele>2099.0</ele>
        <time>2019-10-12T16:55:26.873Z</time>
      </trkpt>
      <trkpt lat="20.238045" lon="-98.73590833">
        <ele>2099.0</ele>
        <time>2019-10-12T16:55:27.877Z</time>
      </trkpt>
      <trkpt lat="20.23804333" lon="-98.73592333">
        <ele>2099.0</ele>
        <time>2019-10-12T16:55:28.882Z</time>
      </trkpt>
      <trkpt lat="20.23804" lon="-98.735935">
        <ele>2100.0</ele>
        <time>2019-10-12T16:55:29.887Z</time>
      </trkpt>
      <trkpt lat="20.23803833" lon="-98.735945">
        <ele>2099.0</ele>
        <time>2019-10-12T16:55:30.890Z</time>
      </trkpt>
      <trkpt lat="20.23803833" lon="-98.735955">
        <ele>2100.0</ele>
        <time>2019-10-12T16:55:31.891Z</time>
      </trkpt>
      <trkpt lat="20.23803667" lon="-98.73596667">
        <ele>2100.0</ele>
        <time>2019-10-12T16:55:32.891Z</time>
      </trkpt>
      <trkpt lat="20.238035" lon="-98.73597833">
        <ele>2101.0</ele>
        <time>2019-10-12T16:55:33.892Z</time>
      </trkpt>
      <trkpt lat="20.238035" lon="-98.73599">
        <ele>2101.0</ele>
        <time>2019-10-12T16:55:34.892Z</time>
      </trkpt>
      <trkpt lat="20.238035" lon="-98.736005">
        <ele>2101.0</ele>
        <time>2019-10-12T16:55:35.892Z</time>
      </trkpt>
      <trkpt lat="20.23803667" lon="-98.73601833">
        <ele>2101.0</ele>
        <time>2019-10-12T16:55:36.892Z</time>
      </trkpt>
      <trkpt lat="20.238035" lon="-98.73603167">
        <ele>2102.0</ele>
        <time>2019-10-12T16:55:37.893Z</time>
      </trkpt>
      <trkpt lat="20.23802833" lon="-98.73604167">
        <ele>2103.0</ele>
        <time>2019-10-12T16:55:38.893Z</time>
      </trkpt>
      <trkpt lat="20.238025" lon="-98.73605333">
        <ele>2103.0</ele>
        <time>2019-10-12T16:55:39.893Z</time>
      </trkpt>
      <trkpt lat="20.23802" lon="-98.73606333">
        <ele>2103.0</ele>
        <time>2019-10-12T16:55:40.893Z</time>
      </trkpt>
      <trkpt lat="20.238015" lon="-98.73607333">
        <ele>2104.0</ele>
        <time>2019-10-12T16:55:41.893Z</time>
      </trkpt>
      <trkpt lat="20.23801333" lon="-98.736085">
        <ele>2104.0</ele>
        <time>2019-10-12T16:55:42.894Z</time>
      </trkpt>
      <trkpt lat="20.23800667" lon="-98.73609333">
        <ele>2104.0</ele>
        <time>2019-10-12T16:55:43.895Z</time>
      </trkpt>
      <trkpt lat="20.238005" lon="-98.736105">
        <ele>2104.0</ele>
        <time>2019-10-12T16:55:44.896Z</time>
      </trkpt>
      <trkpt lat="20.23799833" lon="-98.736115">
        <ele>2105.0</ele>
        <time>2019-10-12T16:55:45.897Z</time>
      </trkpt>
      <trkpt lat="20.23799333" lon="-98.73612333">
        <ele>2106.0</ele>
        <time>2019-10-12T16:55:46.897Z</time>
      </trkpt>
      <trkpt lat="20.23799" lon="-98.73613167">
        <ele>2106.0</ele>
        <time>2019-10-12T16:55:47.898Z</time>
      </trkpt>
      <trkpt lat="20.23798833" lon="-98.73614333">
        <ele>2106.0</ele>
        <time>2019-10-12T16:55:48.899Z</time>
      </trkpt>
      <trkpt lat="20.23798833" lon="-98.736155">
        <ele>2106.0</ele>
        <time>2019-10-12T16:55:49.900Z</time>
      </trkpt>
      <trkpt lat="20.23798333" lon="-98.73616667">
        <ele>2106.0</ele>
        <time>2019-10-12T16:55:50.901Z</time>
      </trkpt>
      <trkpt lat="20.23797667" lon="-98.73617333">
        <ele>2106.0</ele>
        <time>2019-10-12T16:55:51.902Z</time>
      </trkpt>
      <trkpt lat="20.23797" lon="-98.73618">
        <ele>2106.0</ele>
        <time>2019-10-12T16:55:52.902Z</time>
      </trkpt>
      <trkpt lat="20.237965" lon="-98.73618667">
        <ele>2106.0</ele>
        <time>2019-10-12T16:55:53.903Z</time>
      </trkpt>
      <trkpt lat="20.23796167" lon="-98.73619333">
        <ele>2106.0</ele>
        <time>2019-10-12T16:55:54.904Z</time>
      </trkpt>
      <trkpt lat="20.237955" lon="-98.736205">
        <ele>2106.0</ele>
        <time>2019-10-12T16:55:55.905Z</time>
      </trkpt>
      <trkpt lat="20.23795167" lon="-98.73621333">
        <ele>2106.0</ele>
        <time>2019-10-12T16:55:56.906Z</time>
      </trkpt>
      <trkpt lat="20.23794833" lon="-98.73622333">
        <ele>2106.0</ele>
        <time>2019-10-12T16:55:57.906Z</time>
      </trkpt>
      <trkpt lat="20.237945" lon="-98.73623333">
        <ele>2106.0</ele>
        <time>2019-10-12T16:55:58.908Z</time>
      </trkpt>
      <trkpt lat="20.23794167" lon="-98.73624167">
        <ele>2106.0</ele>
        <time>2019-10-12T16:55:59.908Z</time>
      </trkpt>
      <trkpt lat="20.23793667" lon="-98.73625">
        <ele>2106.0</ele>
        <time>2019-10-12T16:56:00.909Z</time>
      </trkpt>
      <trkpt lat="20.23793167" lon="-98.73626">
        <ele>2107.0</ele>
        <time>2019-10-12T16:56:01.910Z</time>
      </trkpt>
      <trkpt lat="20.23792667" lon="-98.73626833">
        <ele>2106.0</ele>
        <time>2019-10-12T16:56:02.911Z</time>
      </trkpt>
      <trkpt lat="20.23792333" lon="-98.736275">
        <ele>2106.0</ele>
        <time>2019-10-12T16:56:03.912Z</time>
      </trkpt>
      <trkpt lat="20.23791667" lon="-98.73627833">
        <ele>2106.0</ele>
        <time>2019-10-12T16:56:04.913Z</time>
      </trkpt>
      <trkpt lat="20.23791333" lon="-98.73628667">
        <ele>2106.0</ele>
        <time>2019-10-12T16:56:05.913Z</time>
      </trkpt>
      <trkpt lat="20.23790667" lon="-98.73629333">
        <ele>2106.0</ele>
        <time>2019-10-12T16:56:06.914Z</time>
      </trkpt>
      <trkpt lat="20.2379" lon="-98.7363">
        <ele>2106.0</ele>
        <time>2019-10-12T16:56:07.915Z</time>
      </trkpt>
      <trkpt lat="20.237895" lon="-98.73630667">
        <ele>2106.0</ele>
        <time>2019-10-12T16:56:08.915Z</time>
      </trkpt>
      <trkpt lat="20.23788833" lon="-98.73631667">
        <ele>2106.0</ele>
        <time>2019-10-12T16:56:09.916Z</time>
      </trkpt>
      <trkpt lat="20.23788167" lon="-98.73632333">
        <ele>2106.0</ele>
        <time>2019-10-12T16:56:10.917Z</time>
      </trkpt>
      <trkpt lat="20.23787167" lon="-98.73632833">
        <ele>2106.0</ele>
        <time>2019-10-12T16:56:11.918Z</time>
      </trkpt>
      <trkpt lat="20.23786" lon="-98.73633333">
        <ele>2106.0</ele>
        <time>2019-10-12T16:56:12.919Z</time>
      </trkpt>
      <trkpt lat="20.23785167" lon="-98.73633667">
        <ele>2107.0</ele>
        <time>2019-10-12T16:56:13.919Z</time>
      </trkpt>
      <trkpt lat="20.237845" lon="-98.73634">
        <ele>2107.0</ele>
        <time>2019-10-12T16:56:14.920Z</time>
      </trkpt>
      <trkpt lat="20.23783667" lon="-98.73634333">
        <ele>2106.0</ele>
        <time>2019-10-12T16:56:15.921Z</time>
      </trkpt>
      <trkpt lat="20.23783" lon="-98.73634833">
        <ele>2107.0</ele>
        <time>2019-10-12T16:56:16.922Z</time>
      </trkpt>
      <trkpt lat="20.23782167" lon="-98.73635167">
        <ele>2106.0</ele>
        <time>2019-10-12T16:56:17.922Z</time>
      </trkpt>
      <trkpt lat="20.237815" lon="-98.73635667">
        <ele>2106.0</ele>
        <time>2019-10-12T16:56:18.925Z</time>
      </trkpt>
      <trkpt lat="20.23780667" lon="-98.73636">
        <ele>2106.0</ele>
        <time>2019-10-12T16:56:19.931Z</time>
      </trkpt>
      <trkpt lat="20.23779833" lon="-98.736365">
        <ele>2106.0</ele>
        <time>2019-10-12T16:56:20.935Z</time>
      </trkpt>
      <trkpt lat="20.23778833" lon="-98.73637167">
        <ele>2107.0</ele>
        <time>2019-10-12T16:56:21.938Z</time>
      </trkpt>
      <trkpt lat="20.23777833" lon="-98.73637833">
        <ele>2107.0</ele>
        <time>2019-10-12T16:56:22.944Z</time>
      </trkpt>
      <trkpt lat="20.23776667" lon="-98.73638333">
        <ele>2107.0</ele>
        <time>2019-10-12T16:56:23.951Z</time>
      </trkpt>
      <trkpt lat="20.237755" lon="-98.73638833">
        <ele>2107.0</ele>
        <time>2019-10-12T16:56:24.831Z</time>
      </trkpt>
      <trkpt lat="20.23774333" lon="-98.73639333">
        <ele>2107.0</ele>
        <time>2019-10-12T16:56:25.837Z</time>
      </trkpt>
      <trkpt lat="20.23773333" lon="-98.736395">
        <ele>2107.0</ele>
        <time>2019-10-12T16:56:26.841Z</time>
      </trkpt>
      <trkpt lat="20.23772167" lon="-98.73639667">
        <ele>2107.0</ele>
        <time>2019-10-12T16:56:27.847Z</time>
      </trkpt>
      <trkpt lat="20.23771167" lon="-98.73640167">
        <ele>2107.0</ele>
        <time>2019-10-12T16:56:28.852Z</time>
      </trkpt>
      <trkpt lat="20.23770333" lon="-98.736405">
        <ele>2107.0</ele>
        <time>2019-10-12T16:56:29.856Z</time>
      </trkpt>
      <trkpt lat="20.23769" lon="-98.73640667">
        <ele>2107.0</ele>
        <time>2019-10-12T16:56:30.862Z</time>
      </trkpt>
      <trkpt lat="20.23767833" lon="-98.73640833">
        <ele>2107.0</ele>
        <time>2019-10-12T16:56:31.867Z</time>
      </trkpt>
      <trkpt lat="20.23766667" lon="-98.73641333">
        <ele>2107.0</ele>
        <time>2019-10-12T16:56:32.872Z</time>
      </trkpt>
      <trkpt lat="20.237655" lon="-98.736415">
        <ele>2107.0</ele>
        <time>2019-10-12T16:56:33.872Z</time>
      </trkpt>
      <trkpt lat="20.23764667" lon="-98.73642">
        <ele>2107.0</ele>
        <time>2019-10-12T16:56:34.873Z</time>
      </trkpt>
      <trkpt lat="20.23764167" lon="-98.736425">
        <ele>2107.0</ele>
        <time>2019-10-12T16:56:35.874Z</time>
      </trkpt>
      <trkpt lat="20.237635" lon="-98.73643167">
        <ele>2108.0</ele>
        <time>2019-10-12T16:56:36.878Z</time>
      </trkpt>
      <trkpt lat="20.23762667" lon="-98.736435">
        <ele>2107.0</ele>
        <time>2019-10-12T16:56:37.885Z</time>
      </trkpt>
      <trkpt lat="20.23762" lon="-98.73643833">
        <ele>2107.0</ele>
        <time>2019-10-12T16:56:38.890Z</time>
      </trkpt>
      <trkpt lat="20.23761333" lon="-98.73644167">
        <ele>2107.0</ele>
        <time>2019-10-12T16:56:39.895Z</time>
      </trkpt>
      <trkpt lat="20.23760833" lon="-98.73644667">
        <ele>2107.0</ele>
        <time>2019-10-12T16:56:40.900Z</time>
      </trkpt>
      <trkpt lat="20.23760167" lon="-98.73645333">
        <ele>2107.0</ele>
        <time>2019-10-12T16:56:41.904Z</time>
      </trkpt>
      <trkpt lat="20.23759333" lon="-98.73646">
        <ele>2108.0</ele>
        <time>2019-10-12T16:56:42.910Z</time>
      </trkpt>
      <trkpt lat="20.237585" lon="-98.73646833">
        <ele>2108.0</ele>
        <time>2019-10-12T16:56:43.916Z</time>
      </trkpt>
      <trkpt lat="20.23757667" lon="-98.736475">
        <ele>2109.0</ele>
        <time>2019-10-12T16:56:44.922Z</time>
      </trkpt>
      <trkpt lat="20.23756833" lon="-98.736485">
        <ele>2109.0</ele>
        <time>2019-10-12T16:56:45.924Z</time>
      </trkpt>
      <trkpt lat="20.23756333" lon="-98.736495">
        <ele>2109.0</ele>
        <time>2019-10-12T16:56:46.927Z</time>
      </trkpt>
      <trkpt lat="20.237555" lon="-98.73650333">
        <ele>2109.0</ele>
        <time>2019-10-12T16:56:47.933Z</time>
      </trkpt>
      <trkpt lat="20.23754667" lon="-98.73650667">
        <ele>2109.0</ele>
        <time>2019-10-12T16:56:48.939Z</time>
      </trkpt>
      <trkpt lat="20.237535" lon="-98.73651167">
        <ele>2110.0</ele>
        <time>2019-10-12T16:56:49.945Z</time>
      </trkpt>
      <trkpt lat="20.23752667" lon="-98.736515">
        <ele>2110.0</ele>
        <time>2019-10-12T16:56:50.948Z</time>
      </trkpt>
      <trkpt lat="20.23752" lon="-98.73652">
        <ele>2109.0</ele>
        <time>2019-10-12T16:56:51.949Z</time>
      </trkpt>
      <trkpt lat="20.23751167" lon="-98.73652833">
        <ele>2109.0</ele>
        <time>2019-10-12T16:56:52.950Z</time>
      </trkpt>
      <trkpt lat="20.23750167" lon="-98.73653667">
        <ele>2110.0</ele>
        <time>2019-10-12T16:56:53.955Z</time>
      </trkpt>
      <trkpt lat="20.23749" lon="-98.73654167">
        <ele>2110.0</ele>
        <time>2019-10-12T16:56:54.837Z</time>
      </trkpt>
      <trkpt lat="20.23748167" lon="-98.73654667">
        <ele>2110.0</ele>
        <time>2019-10-12T16:56:55.842Z</time>
      </trkpt>
      <trkpt lat="20.23747167" lon="-98.73655">
        <ele>2111.0</ele>
        <time>2019-10-12T16:56:56.845Z</time>
      </trkpt>
      <trkpt lat="20.23746167" lon="-98.73655167">
        <ele>2111.0</ele>
        <time>2019-10-12T16:56:57.850Z</time>
      </trkpt>
      <trkpt lat="20.23745167" lon="-98.736555">
        <ele>2111.0</ele>
        <time>2019-10-12T16:56:58.854Z</time>
      </trkpt>
      <trkpt lat="20.23744333" lon="-98.73655667">
        <ele>2111.0</ele>
        <time>2019-10-12T16:56:59.861Z</time>
      </trkpt>
      <trkpt lat="20.237435" lon="-98.73655833">
        <ele>2112.0</ele>
        <time>2019-10-12T16:57:00.866Z</time>
      </trkpt>
      <trkpt lat="20.23742333" lon="-98.73655667">
        <ele>2112.0</ele>
        <time>2019-10-12T16:57:01.870Z</time>
      </trkpt>
      <trkpt lat="20.23741333" lon="-98.73655833">
        <ele>2112.0</ele>
        <time>2019-10-12T16:57:02.875Z</time>
      </trkpt>
      <trkpt lat="20.23740167" lon="-98.73656167">
        <ele>2113.0</ele>
        <time>2019-10-12T16:57:03.880Z</time>
      </trkpt>
      <trkpt lat="20.23739167" lon="-98.73656167">
        <ele>2113.0</ele>
        <time>2019-10-12T16:57:04.884Z</time>
      </trkpt>
      <trkpt lat="20.23738" lon="-98.73656333">
        <ele>2114.0</ele>
        <time>2019-10-12T16:57:05.889Z</time>
      </trkpt>
      <trkpt lat="20.23736833" lon="-98.73656333">
        <ele>2114.0</ele>
        <time>2019-10-12T16:57:06.895Z</time>
      </trkpt>
      <trkpt lat="20.237355" lon="-98.73656333">
        <ele>2115.0</ele>
        <time>2019-10-12T16:57:07.899Z</time>
      </trkpt>
      <trkpt lat="20.237345" lon="-98.736565">
        <ele>2115.0</ele>
        <time>2019-10-12T16:57:08.903Z</time>
      </trkpt>
      <trkpt lat="20.23733167" lon="-98.736565">
        <ele>2116.0</ele>
        <time>2019-10-12T16:57:09.911Z</time>
      </trkpt>
      <trkpt lat="20.23732" lon="-98.73656667">
        <ele>2116.0</ele>
        <time>2019-10-12T16:57:10.916Z</time>
      </trkpt>
      <trkpt lat="20.23731" lon="-98.73656667">
        <ele>2117.0</ele>
        <time>2019-10-12T16:57:11.921Z</time>
      </trkpt>
      <trkpt lat="20.2373" lon="-98.73656667">
        <ele>2117.0</ele>
        <time>2019-10-12T16:57:12.924Z</time>
      </trkpt>
      <trkpt lat="20.23729" lon="-98.73656667">
        <ele>2117.0</ele>
        <time>2019-10-12T16:57:13.928Z</time>
      </trkpt>
      <trkpt lat="20.23728" lon="-98.73656667">
        <ele>2116.0</ele>
        <time>2019-10-12T16:57:14.934Z</time>
      </trkpt>
      <trkpt lat="20.23727" lon="-98.73656833">
        <ele>2117.0</ele>
        <time>2019-10-12T16:57:15.940Z</time>
      </trkpt>
      <trkpt lat="20.23726" lon="-98.73656667">
        <ele>2117.0</ele>
        <time>2019-10-12T16:57:16.945Z</time>
      </trkpt>
      <trkpt lat="20.23724667" lon="-98.73656167">
        <ele>2117.0</ele>
        <time>2019-10-12T16:57:17.949Z</time>
      </trkpt>
      <trkpt lat="20.237235" lon="-98.73656167">
        <ele>2117.0</ele>
        <time>2019-10-12T16:57:18.830Z</time>
      </trkpt>
      <trkpt lat="20.23722167" lon="-98.73656167">
        <ele>2118.0</ele>
        <time>2019-10-12T16:57:19.837Z</time>
      </trkpt>
      <trkpt lat="20.23721167" lon="-98.73656333">
        <ele>2118.0</ele>
        <time>2019-10-12T16:57:20.843Z</time>
      </trkpt>
      <trkpt lat="20.2372" lon="-98.736565">
        <ele>2118.0</ele>
        <time>2019-10-12T16:57:21.847Z</time>
      </trkpt>
      <trkpt lat="20.23718667" lon="-98.736565">
        <ele>2118.0</ele>
        <time>2019-10-12T16:57:22.848Z</time>
      </trkpt>
      <trkpt lat="20.237175" lon="-98.736565">
        <ele>2118.0</ele>
        <time>2019-10-12T16:57:23.849Z</time>
      </trkpt>
      <trkpt lat="20.237165" lon="-98.73656333">
        <ele>2119.0</ele>
        <time>2019-10-12T16:57:24.850Z</time>
      </trkpt>
      <trkpt lat="20.237155" lon="-98.73656167">
        <ele>2119.0</ele>
        <time>2019-10-12T16:57:25.853Z</time>
      </trkpt>
      <trkpt lat="20.23714333" lon="-98.73655833">
        <ele>2119.0</ele>
        <time>2019-10-12T16:57:26.859Z</time>
      </trkpt>
      <trkpt lat="20.23713167" lon="-98.73655667">
        <ele>2119.0</ele>
        <time>2019-10-12T16:57:27.864Z</time>
      </trkpt>
      <trkpt lat="20.23712167" lon="-98.736555">
        <ele>2120.0</ele>
        <time>2019-10-12T16:57:28.867Z</time>
      </trkpt>
      <trkpt lat="20.23711" lon="-98.73655333">
        <ele>2120.0</ele>
        <time>2019-10-12T16:57:29.874Z</time>
      </trkpt>
      <trkpt lat="20.2371" lon="-98.73655">
        <ele>2120.0</ele>
        <time>2019-10-12T16:57:30.879Z</time>
      </trkpt>
      <trkpt lat="20.23709" lon="-98.73654667">
        <ele>2121.0</ele>
        <time>2019-10-12T16:57:31.884Z</time>
      </trkpt>
      <trkpt lat="20.23707667" lon="-98.73654333">
        <ele>2122.0</ele>
        <time>2019-10-12T16:57:32.890Z</time>
      </trkpt>
      <trkpt lat="20.237065" lon="-98.73654167">
        <ele>2122.0</ele>
        <time>2019-10-12T16:57:33.897Z</time>
      </trkpt>
      <trkpt lat="20.237055" lon="-98.73654">
        <ele>2122.0</ele>
        <time>2019-10-12T16:57:34.902Z</time>
      </trkpt>
      <trkpt lat="20.23704333" lon="-98.73654">
        <ele>2122.0</ele>
        <time>2019-10-12T16:57:35.906Z</time>
      </trkpt>
      <trkpt lat="20.23703" lon="-98.73653833">
        <ele>2123.0</ele>
        <time>2019-10-12T16:57:36.911Z</time>
      </trkpt>
      <trkpt lat="20.23702" lon="-98.73654">
        <ele>2123.0</ele>
        <time>2019-10-12T16:57:37.912Z</time>
      </trkpt>
      <trkpt lat="20.23701" lon="-98.73654">
        <ele>2123.0</ele>
        <time>2019-10-12T16:57:38.915Z</time>
      </trkpt>
      <trkpt lat="20.23699833" lon="-98.73653833">
        <ele>2124.0</ele>
        <time>2019-10-12T16:57:39.921Z</time>
      </trkpt>
      <trkpt lat="20.23698833" lon="-98.73654">
        <ele>2124.0</ele>
        <time>2019-10-12T16:57:40.924Z</time>
      </trkpt>
      <trkpt lat="20.23698" lon="-98.736545">
        <ele>2124.0</ele>
        <time>2019-10-12T16:57:41.925Z</time>
      </trkpt>
      <trkpt lat="20.23696833" lon="-98.73655">
        <ele>2124.0</ele>
        <time>2019-10-12T16:57:42.926Z</time>
      </trkpt>
      <trkpt lat="20.23696" lon="-98.736555">
        <ele>2124.0</ele>
        <time>2019-10-12T16:57:43.930Z</time>
      </trkpt>
      <trkpt lat="20.23695" lon="-98.73656167">
        <ele>2124.0</ele>
        <time>2019-10-12T16:57:44.935Z</time>
      </trkpt>
      <trkpt lat="20.23694" lon="-98.73656833">
        <ele>2124.0</ele>
        <time>2019-10-12T16:57:45.940Z</time>
      </trkpt>
      <trkpt lat="20.23693333" lon="-98.736575">
        <ele>2125.0</ele>
        <time>2019-10-12T16:57:46.945Z</time>
      </trkpt>
      <trkpt lat="20.236925" lon="-98.73658333">
        <ele>2125.0</ele>
        <time>2019-10-12T16:57:47.951Z</time>
      </trkpt>
      <trkpt lat="20.23692" lon="-98.736595">
        <ele>2125.0</ele>
        <time>2019-10-12T16:57:48.953Z</time>
      </trkpt>
      <trkpt lat="20.23691333" lon="-98.73660833">
        <ele>2125.0</ele>
        <time>2019-10-12T16:57:49.833Z</time>
      </trkpt>
      <trkpt lat="20.23691" lon="-98.73662">
        <ele>2125.0</ele>
        <time>2019-10-12T16:57:50.838Z</time>
      </trkpt>
      <trkpt lat="20.23691" lon="-98.73663333">
        <ele>2125.0</ele>
        <time>2019-10-12T16:57:51.840Z</time>
      </trkpt>
      <trkpt lat="20.23691" lon="-98.73664667">
        <ele>2125.0</ele>
        <time>2019-10-12T16:57:52.846Z</time>
      </trkpt>
      <trkpt lat="20.23691167" lon="-98.73665833">
        <ele>2125.0</ele>
        <time>2019-10-12T16:57:53.851Z</time>
      </trkpt>
      <trkpt lat="20.236915" lon="-98.73667">
        <ele>2125.0</ele>
        <time>2019-10-12T16:57:54.857Z</time>
      </trkpt>
      <trkpt lat="20.23691833" lon="-98.73668333">
        <ele>2126.0</ele>
        <time>2019-10-12T16:57:55.863Z</time>
      </trkpt>
      <trkpt lat="20.23692167" lon="-98.736695">
        <ele>2126.0</ele>
        <time>2019-10-12T16:57:56.868Z</time>
      </trkpt>
      <trkpt lat="20.23692667" lon="-98.73670833">
        <ele>2127.0</ele>
        <time>2019-10-12T16:57:57.873Z</time>
      </trkpt>
      <trkpt lat="20.23693" lon="-98.73672">
        <ele>2127.0</ele>
        <time>2019-10-12T16:57:58.877Z</time>
      </trkpt>
      <trkpt lat="20.236935" lon="-98.73673333">
        <ele>2128.0</ele>
        <time>2019-10-12T16:57:59.878Z</time>
      </trkpt>
      <trkpt lat="20.23694167" lon="-98.736745">
        <ele>2128.0</ele>
        <time>2019-10-12T16:58:00.878Z</time>
      </trkpt>
      <trkpt lat="20.23695" lon="-98.73675667">
        <ele>2128.0</ele>
        <time>2019-10-12T16:58:01.879Z</time>
      </trkpt>
      <trkpt lat="20.23695833" lon="-98.73676833">
        <ele>2127.0</ele>
        <time>2019-10-12T16:58:02.880Z</time>
      </trkpt>
      <trkpt lat="20.23696333" lon="-98.73678">
        <ele>2127.0</ele>
        <time>2019-10-12T16:58:03.880Z</time>
      </trkpt>
      <trkpt lat="20.23697167" lon="-98.73679">
        <ele>2127.0</ele>
        <time>2019-10-12T16:58:04.881Z</time>
      </trkpt>
      <trkpt lat="20.23697833" lon="-98.7368">
        <ele>2127.0</ele>
        <time>2019-10-12T16:58:05.882Z</time>
      </trkpt>
      <trkpt lat="20.23698167" lon="-98.736815">
        <ele>2128.0</ele>
        <time>2019-10-12T16:58:06.889Z</time>
      </trkpt>
      <trkpt lat="20.23698667" lon="-98.73683167">
        <ele>2129.0</ele>
        <time>2019-10-12T16:58:07.893Z</time>
      </trkpt>
      <trkpt lat="20.23699" lon="-98.73685">
        <ele>2131.0</ele>
        <time>2019-10-12T16:58:08.897Z</time>
      </trkpt>
      <trkpt lat="20.23699167" lon="-98.73686833">
        <ele>2131.0</ele>
        <time>2019-10-12T16:58:09.902Z</time>
      </trkpt>
      <trkpt lat="20.23699333" lon="-98.73688333">
        <ele>2131.0</ele>
        <time>2019-10-12T16:58:10.907Z</time>
      </trkpt>
      <trkpt lat="20.23699167" lon="-98.73689833">
        <ele>2132.0</ele>
        <time>2019-10-12T16:58:11.915Z</time>
      </trkpt>
      <trkpt lat="20.23699333" lon="-98.73691667">
        <ele>2132.0</ele>
        <time>2019-10-12T16:58:12.921Z</time>
      </trkpt>
      <trkpt lat="20.236995" lon="-98.73692833">
        <ele>2132.0</ele>
        <time>2019-10-12T16:58:13.924Z</time>
      </trkpt>
      <trkpt lat="20.23699667" lon="-98.73694167">
        <ele>2133.0</ele>
        <time>2019-10-12T16:58:14.930Z</time>
      </trkpt>
      <trkpt lat="20.23699667" lon="-98.73695333">
        <ele>2133.0</ele>
        <time>2019-10-12T16:58:15.935Z</time>
      </trkpt>
      <trkpt lat="20.23699667" lon="-98.73696667">
        <ele>2133.0</ele>
        <time>2019-10-12T16:58:16.938Z</time>
      </trkpt>
      <trkpt lat="20.236995" lon="-98.73698">
        <ele>2133.0</ele>
        <time>2019-10-12T16:58:17.942Z</time>
      </trkpt>
      <trkpt lat="20.236995" lon="-98.73699333">
        <ele>2134.0</ele>
        <time>2019-10-12T16:58:18.948Z</time>
      </trkpt>
      <trkpt lat="20.23699333" lon="-98.73700667">
        <ele>2134.0</ele>
        <time>2019-10-12T16:58:19.955Z</time>
      </trkpt>
      <trkpt lat="20.23699333" lon="-98.73702">
        <ele>2134.0</ele>
        <time>2019-10-12T16:58:20.831Z</time>
      </trkpt>
      <trkpt lat="20.23699" lon="-98.73703167">
        <ele>2134.0</ele>
        <time>2019-10-12T16:58:21.832Z</time>
      </trkpt>
      <trkpt lat="20.23698833" lon="-98.73704667">
        <ele>2134.0</ele>
        <time>2019-10-12T16:58:22.833Z</time>
      </trkpt>
      <trkpt lat="20.23698833" lon="-98.73705833">
        <ele>2135.0</ele>
        <time>2019-10-12T16:58:23.834Z</time>
      </trkpt>
      <trkpt lat="20.23698667" lon="-98.73707167">
        <ele>2135.0</ele>
        <time>2019-10-12T16:58:24.835Z</time>
      </trkpt>
      <trkpt lat="20.236985" lon="-98.737085">
        <ele>2136.0</ele>
        <time>2019-10-12T16:58:25.835Z</time>
      </trkpt>
      <trkpt lat="20.23698167" lon="-98.737095">
        <ele>2136.0</ele>
        <time>2019-10-12T16:58:26.836Z</time>
      </trkpt>
      <trkpt lat="20.23697833" lon="-98.73710333">
        <ele>2136.0</ele>
        <time>2019-10-12T16:58:27.836Z</time>
      </trkpt>
      <trkpt lat="20.236975" lon="-98.73711167">
        <ele>2136.0</ele>
        <time>2019-10-12T16:58:28.840Z</time>
      </trkpt>
      <trkpt lat="20.23697333" lon="-98.73712333">
        <ele>2136.0</ele>
        <time>2019-10-12T16:58:29.847Z</time>
      </trkpt>
      <trkpt lat="20.23697" lon="-98.73713333">
        <ele>2136.0</ele>
        <time>2019-10-12T16:58:30.854Z</time>
      </trkpt>
      <trkpt lat="20.236965" lon="-98.73714333">
        <ele>2137.0</ele>
        <time>2019-10-12T16:58:31.861Z</time>
      </trkpt>
      <trkpt lat="20.23696333" lon="-98.73714833">
        <ele>2137.0</ele>
        <time>2019-10-12T16:58:32.866Z</time>
      </trkpt>
      <trkpt lat="20.23695833" lon="-98.73715667">
        <ele>2137.0</ele>
        <time>2019-10-12T16:58:33.869Z</time>
      </trkpt>
      <trkpt lat="20.236955" lon="-98.737165">
        <ele>2137.0</ele>
        <time>2019-10-12T16:58:34.874Z</time>
      </trkpt>
      <trkpt lat="20.23695" lon="-98.73717667">
        <ele>2137.0</ele>
        <time>2019-10-12T16:58:35.880Z</time>
      </trkpt>
      <trkpt lat="20.23694667" lon="-98.737185">
        <ele>2138.0</ele>
        <time>2019-10-12T16:58:36.883Z</time>
      </trkpt>
      <trkpt lat="20.236945" lon="-98.73719333">
        <ele>2138.0</ele>
        <time>2019-10-12T16:58:37.885Z</time>
      </trkpt>
      <trkpt lat="20.23694167" lon="-98.73720167">
        <ele>2138.0</ele>
        <time>2019-10-12T16:58:38.890Z</time>
      </trkpt>
      <trkpt lat="20.236935" lon="-98.73721">
        <ele>2138.0</ele>
        <time>2019-10-12T16:58:39.896Z</time>
      </trkpt>
      <trkpt lat="20.23693" lon="-98.737215">
        <ele>2138.0</ele>
        <time>2019-10-12T16:58:40.901Z</time>
      </trkpt>
      <trkpt lat="20.23692333" lon="-98.73722167">
        <ele>2138.0</ele>
        <time>2019-10-12T16:58:41.901Z</time>
      </trkpt>
      <trkpt lat="20.23691667" lon="-98.73723">
        <ele>2138.0</ele>
        <time>2019-10-12T16:58:42.901Z</time>
      </trkpt>
      <trkpt lat="20.23691333" lon="-98.73724">
        <ele>2138.0</ele>
        <time>2019-10-12T16:58:43.901Z</time>
      </trkpt>
      <trkpt lat="20.23690667" lon="-98.73725">
        <ele>2138.0</ele>
        <time>2019-10-12T16:58:44.902Z</time>
      </trkpt>
      <trkpt lat="20.2369" lon="-98.73726">
        <ele>2139.0</ele>
        <time>2019-10-12T16:58:45.902Z</time>
      </trkpt>
      <trkpt lat="20.23689667" lon="-98.73727">
        <ele>2139.0</ele>
        <time>2019-10-12T16:58:46.902Z</time>
      </trkpt>
      <trkpt lat="20.23689167" lon="-98.73727833">
        <ele>2139.0</ele>
        <time>2019-10-12T16:58:47.902Z</time>
      </trkpt>
      <trkpt lat="20.236885" lon="-98.73728667">
        <ele>2139.0</ele>
        <time>2019-10-12T16:58:48.903Z</time>
      </trkpt>
      <trkpt lat="20.23687833" lon="-98.737295">
        <ele>2139.0</ele>
        <time>2019-10-12T16:58:49.903Z</time>
      </trkpt>
      <trkpt lat="20.23687" lon="-98.73730167">
        <ele>2139.0</ele>
        <time>2019-10-12T16:58:50.903Z</time>
      </trkpt>
      <trkpt lat="20.236865" lon="-98.73731167">
        <ele>2140.0</ele>
        <time>2019-10-12T16:58:51.903Z</time>
      </trkpt>
      <trkpt lat="20.23686" lon="-98.73732333">
        <ele>2140.0</ele>
        <time>2019-10-12T16:58:52.904Z</time>
      </trkpt>
      <trkpt lat="20.23685333" lon="-98.73733333">
        <ele>2140.0</ele>
        <time>2019-10-12T16:58:53.905Z</time>
      </trkpt>
      <trkpt lat="20.23685167" lon="-98.737345">
        <ele>2140.0</ele>
        <time>2019-10-12T16:58:54.906Z</time>
      </trkpt>
      <trkpt lat="20.236845" lon="-98.73735667">
        <ele>2140.0</ele>
        <time>2019-10-12T16:58:55.907Z</time>
      </trkpt>
      <trkpt lat="20.23684" lon="-98.73736667">
        <ele>2141.0</ele>
        <time>2019-10-12T16:58:56.907Z</time>
      </trkpt>
      <trkpt lat="20.236835" lon="-98.73737833">
        <ele>2141.0</ele>
        <time>2019-10-12T16:58:57.908Z</time>
      </trkpt>
      <trkpt lat="20.23682833" lon="-98.73738667">
        <ele>2141.0</ele>
        <time>2019-10-12T16:58:58.908Z</time>
      </trkpt>
      <trkpt lat="20.23682333" lon="-98.737395">
        <ele>2141.0</ele>
        <time>2019-10-12T16:58:59.909Z</time>
      </trkpt>
      <trkpt lat="20.23681833" lon="-98.73740333">
        <ele>2141.0</ele>
        <time>2019-10-12T16:59:00.910Z</time>
      </trkpt>
      <trkpt lat="20.23681167" lon="-98.73741167">
        <ele>2141.0</ele>
        <time>2019-10-12T16:59:01.911Z</time>
      </trkpt>
      <trkpt lat="20.236805" lon="-98.73742">
        <ele>2141.0</ele>
        <time>2019-10-12T16:59:02.912Z</time>
      </trkpt>
      <trkpt lat="20.23679833" lon="-98.73742833">
        <ele>2142.0</ele>
        <time>2019-10-12T16:59:03.912Z</time>
      </trkpt>
      <trkpt lat="20.23679167" lon="-98.73744">
        <ele>2142.0</ele>
        <time>2019-10-12T16:59:04.913Z</time>
      </trkpt>
      <trkpt lat="20.23679" lon="-98.73745167">
        <ele>2142.0</ele>
        <time>2019-10-12T16:59:05.914Z</time>
      </trkpt>
      <trkpt lat="20.23678333" lon="-98.73746">
        <ele>2142.0</ele>
        <time>2019-10-12T16:59:06.915Z</time>
      </trkpt>
      <trkpt lat="20.23677667" lon="-98.73747">
        <ele>2142.0</ele>
        <time>2019-10-12T16:59:07.916Z</time>
      </trkpt>
      <trkpt lat="20.23677167" lon="-98.73748">
        <ele>2143.0</ele>
        <time>2019-10-12T16:59:08.917Z</time>
      </trkpt>
      <trkpt lat="20.23676667" lon="-98.73749167">
        <ele>2142.0</ele>
        <time>2019-10-12T16:59:09.918Z</time>
      </trkpt>
      <trkpt lat="20.23676667" lon="-98.73749167">
        <ele>2142.0</ele>
        <time>2019-10-12T16:59:10.918Z</time>
      </trkpt>
      <trkpt lat="20.236755" lon="-98.73751167">
        <ele>2143.0</ele>
        <time>2019-10-12T16:59:11.919Z</time>
      </trkpt>
      <trkpt lat="20.23674833" lon="-98.737525">
        <ele>2143.0</ele>
        <time>2019-10-12T16:59:12.919Z</time>
      </trkpt>
      <trkpt lat="20.23674167" lon="-98.737535">
        <ele>2144.0</ele>
        <time>2019-10-12T16:59:13.920Z</time>
      </trkpt>
      <trkpt lat="20.23673833" lon="-98.73755">
        <ele>2144.0</ele>
        <time>2019-10-12T16:59:14.921Z</time>
      </trkpt>
      <trkpt lat="20.23673333" lon="-98.73756167">
        <ele>2144.0</ele>
        <time>2019-10-12T16:59:15.922Z</time>
      </trkpt>
      <trkpt lat="20.23673" lon="-98.73757167">
        <ele>2144.0</ele>
        <time>2019-10-12T16:59:16.922Z</time>
      </trkpt>
      <trkpt lat="20.236725" lon="-98.73758333">
        <ele>2144.0</ele>
        <time>2019-10-12T16:59:17.922Z</time>
      </trkpt>
      <trkpt lat="20.23672333" lon="-98.73759167">
        <ele>2144.0</ele>
        <time>2019-10-12T16:59:18.922Z</time>
      </trkpt>
      <trkpt lat="20.23672" lon="-98.73760333">
        <ele>2144.0</ele>
        <time>2019-10-12T16:59:19.923Z</time>
      </trkpt>
      <trkpt lat="20.23671667" lon="-98.73761333">
        <ele>2144.0</ele>
        <time>2019-10-12T16:59:20.924Z</time>
      </trkpt>
      <trkpt lat="20.23671333" lon="-98.73762667">
        <ele>2145.0</ele>
        <time>2019-10-12T16:59:21.924Z</time>
      </trkpt>
      <trkpt lat="20.23670667" lon="-98.73764">
        <ele>2145.0</ele>
        <time>2019-10-12T16:59:22.926Z</time>
      </trkpt>
      <trkpt lat="20.2367" lon="-98.73765167">
        <ele>2145.0</ele>
        <time>2019-10-12T16:59:23.929Z</time>
      </trkpt>
      <trkpt lat="20.23669667" lon="-98.737665">
        <ele>2146.0</ele>
        <time>2019-10-12T16:59:24.934Z</time>
      </trkpt>
      <trkpt lat="20.23669333" lon="-98.73767833">
        <ele>2146.0</ele>
        <time>2019-10-12T16:59:25.940Z</time>
      </trkpt>
      <trkpt lat="20.23668667" lon="-98.73768833">
        <ele>2146.0</ele>
        <time>2019-10-12T16:59:26.947Z</time>
      </trkpt>
      <trkpt lat="20.23668" lon="-98.73770167">
        <ele>2147.0</ele>
        <time>2019-10-12T16:59:27.953Z</time>
      </trkpt>
      <trkpt lat="20.236675" lon="-98.737715">
        <ele>2147.0</ele>
        <time>2019-10-12T16:59:28.834Z</time>
      </trkpt>
      <trkpt lat="20.23667167" lon="-98.737725">
        <ele>2148.0</ele>
        <time>2019-10-12T16:59:29.839Z</time>
      </trkpt>
      <trkpt lat="20.23666667" lon="-98.73773667">
        <ele>2147.0</ele>
        <time>2019-10-12T16:59:30.846Z</time>
      </trkpt>
      <trkpt lat="20.23666333" lon="-98.73774667">
        <ele>2147.0</ele>
        <time>2019-10-12T16:59:31.851Z</time>
      </trkpt>
      <trkpt lat="20.23666" lon="-98.73775667">
        <ele>2147.0</ele>
        <time>2019-10-12T16:59:32.853Z</time>
      </trkpt>
      <trkpt lat="20.23665833" lon="-98.73776833">
        <ele>2147.0</ele>
        <time>2019-10-12T16:59:33.858Z</time>
      </trkpt>
      <trkpt lat="20.23665333" lon="-98.73777667">
        <ele>2147.0</ele>
        <time>2019-10-12T16:59:34.864Z</time>
      </trkpt>
      <trkpt lat="20.23664667" lon="-98.73778667">
        <ele>2147.0</ele>
        <time>2019-10-12T16:59:35.870Z</time>
      </trkpt>
      <trkpt lat="20.23664" lon="-98.73779667">
        <ele>2148.0</ele>
        <time>2019-10-12T16:59:36.874Z</time>
      </trkpt>
      <trkpt lat="20.23663167" lon="-98.73780833">
        <ele>2148.0</ele>
        <time>2019-10-12T16:59:37.878Z</time>
      </trkpt>
      <trkpt lat="20.23662667" lon="-98.73782333">
        <ele>2148.0</ele>
        <time>2019-10-12T16:59:38.885Z</time>
      </trkpt>
      <trkpt lat="20.23662167" lon="-98.73783333">
        <ele>2148.0</ele>
        <time>2019-10-12T16:59:39.891Z</time>
      </trkpt>
      <trkpt lat="20.23661667" lon="-98.73784167">
        <ele>2148.0</ele>
        <time>2019-10-12T16:59:40.894Z</time>
      </trkpt>
      <trkpt lat="20.23660833" lon="-98.73784667">
        <ele>2148.0</ele>
        <time>2019-10-12T16:59:41.900Z</time>
      </trkpt>
      <trkpt lat="20.23659833" lon="-98.737855">
        <ele>2148.0</ele>
        <time>2019-10-12T16:59:42.904Z</time>
      </trkpt>
      <trkpt lat="20.23658667" lon="-98.73785667">
        <ele>2148.0</ele>
        <time>2019-10-12T16:59:43.910Z</time>
      </trkpt>
      <trkpt lat="20.23657667" lon="-98.73785833">
        <ele>2148.0</ele>
        <time>2019-10-12T16:59:44.916Z</time>
      </trkpt>
      <trkpt lat="20.23657" lon="-98.73785833">
        <ele>2148.0</ele>
        <time>2019-10-12T16:59:45.922Z</time>
      </trkpt>
      <trkpt lat="20.23656" lon="-98.73785667">
        <ele>2149.0</ele>
        <time>2019-10-12T16:59:46.927Z</time>
      </trkpt>
      <trkpt lat="20.23655167" lon="-98.737855">
        <ele>2149.0</ele>
        <time>2019-10-12T16:59:47.932Z</time>
      </trkpt>
      <trkpt lat="20.23653833" lon="-98.73785333">
        <ele>2149.0</ele>
        <time>2019-10-12T16:59:48.938Z</time>
      </trkpt>
      <trkpt lat="20.23652667" lon="-98.73784833">
        <ele>2149.0</ele>
        <time>2019-10-12T16:59:49.944Z</time>
      </trkpt>
      <trkpt lat="20.23651667" lon="-98.73783833">
        <ele>2150.0</ele>
        <time>2019-10-12T16:59:50.947Z</time>
      </trkpt>
      <trkpt lat="20.23650667" lon="-98.73782667">
        <ele>2150.0</ele>
        <time>2019-10-12T16:59:51.951Z</time>
      </trkpt>
      <trkpt lat="20.236495" lon="-98.737815">
        <ele>2150.0</ele>
        <time>2019-10-12T16:59:52.830Z</time>
      </trkpt>
      <trkpt lat="20.236485" lon="-98.737805">
        <ele>2150.0</ele>
        <time>2019-10-12T16:59:53.837Z</time>
      </trkpt>
      <trkpt lat="20.236475" lon="-98.737795">
        <ele>2150.0</ele>
        <time>2019-10-12T16:59:54.838Z</time>
      </trkpt>
      <trkpt lat="20.23646833" lon="-98.73778667">
        <ele>2150.0</ele>
        <time>2019-10-12T16:59:55.845Z</time>
      </trkpt>
      <trkpt lat="20.23646167" lon="-98.73778">
        <ele>2150.0</ele>
        <time>2019-10-12T16:59:56.850Z</time>
      </trkpt>
      <trkpt lat="20.236455" lon="-98.73777167">
        <ele>2150.0</ele>
        <time>2019-10-12T16:59:57.856Z</time>
      </trkpt>
      <trkpt lat="20.23644667" lon="-98.73775833">
        <ele>2150.0</ele>
        <time>2019-10-12T16:59:58.863Z</time>
      </trkpt>
      <trkpt lat="20.23643833" lon="-98.737745">
        <ele>2150.0</ele>
        <time>2019-10-12T16:59:59.870Z</time>
      </trkpt>
      <trkpt lat="20.23642833" lon="-98.73773167">
        <ele>2150.0</ele>
        <time>2019-10-12T17:00:00.875Z</time>
      </trkpt>
      <trkpt lat="20.23642167" lon="-98.73771833">
        <ele>2150.0</ele>
        <time>2019-10-12T17:00:01.877Z</time>
      </trkpt>
      <trkpt lat="20.236415" lon="-98.73770667">
        <ele>2150.0</ele>
        <time>2019-10-12T17:00:02.880Z</time>
      </trkpt>
      <trkpt lat="20.23640667" lon="-98.73769167">
        <ele>2150.0</ele>
        <time>2019-10-12T17:00:03.885Z</time>
      </trkpt>
      <trkpt lat="20.2364" lon="-98.73767833">
        <ele>2150.0</ele>
        <time>2019-10-12T17:00:04.891Z</time>
      </trkpt>
      <trkpt lat="20.23639167" lon="-98.73766833">
        <ele>2150.0</ele>
        <time>2019-10-12T17:00:05.896Z</time>
      </trkpt>
      <trkpt lat="20.23638167" lon="-98.73765833">
        <ele>2150.0</ele>
        <time>2019-10-12T17:00:06.897Z</time>
      </trkpt>
      <trkpt lat="20.236375" lon="-98.73764833">
        <ele>2150.0</ele>
        <time>2019-10-12T17:00:07.898Z</time>
      </trkpt>
      <trkpt lat="20.23636667" lon="-98.73764">
        <ele>2150.0</ele>
        <time>2019-10-12T17:00:08.899Z</time>
      </trkpt>
      <trkpt lat="20.23635667" lon="-98.73762833">
        <ele>2150.0</ele>
        <time>2019-10-12T17:00:09.899Z</time>
      </trkpt>
      <trkpt lat="20.23635" lon="-98.73762">
        <ele>2151.0</ele>
        <time>2019-10-12T17:00:10.900Z</time>
      </trkpt>
      <trkpt lat="20.23634167" lon="-98.73760833">
        <ele>2151.0</ele>
        <time>2019-10-12T17:00:11.901Z</time>
      </trkpt>
      <trkpt lat="20.23633333" lon="-98.737595">
        <ele>2151.0</ele>
        <time>2019-10-12T17:00:12.904Z</time>
      </trkpt>
      <trkpt lat="20.236325" lon="-98.73758167">
        <ele>2151.0</ele>
        <time>2019-10-12T17:00:13.913Z</time>
      </trkpt>
      <trkpt lat="20.23631833" lon="-98.73757">
        <ele>2151.0</ele>
        <time>2019-10-12T17:00:14.918Z</time>
      </trkpt>
      <trkpt lat="20.23631" lon="-98.73755833">
        <ele>2152.0</ele>
        <time>2019-10-12T17:00:15.924Z</time>
      </trkpt>
      <trkpt lat="20.236305" lon="-98.73754833">
        <ele>2152.0</ele>
        <time>2019-10-12T17:00:16.929Z</time>
      </trkpt>
      <trkpt lat="20.23629667" lon="-98.73753833">
        <ele>2152.0</ele>
        <time>2019-10-12T17:00:17.935Z</time>
      </trkpt>
      <trkpt lat="20.23629" lon="-98.73752833">
        <ele>2153.0</ele>
        <time>2019-10-12T17:00:18.940Z</time>
      </trkpt>
      <trkpt lat="20.23628167" lon="-98.73751667">
        <ele>2153.0</ele>
        <time>2019-10-12T17:00:19.947Z</time>
      </trkpt>
      <trkpt lat="20.236275" lon="-98.73750833">
        <ele>2153.0</ele>
        <time>2019-10-12T17:00:20.951Z</time>
      </trkpt>
      <trkpt lat="20.23626833" lon="-98.73749833">
        <ele>2153.0</ele>
        <time>2019-10-12T17:00:21.832Z</time>
      </trkpt>
      <trkpt lat="20.23625833" lon="-98.73748667">
        <ele>2153.0</ele>
        <time>2019-10-12T17:00:22.838Z</time>
      </trkpt>
      <trkpt lat="20.23625167" lon="-98.737475">
        <ele>2153.0</ele>
        <time>2019-10-12T17:00:23.842Z</time>
      </trkpt>
      <trkpt lat="20.23624333" lon="-98.73746667">
        <ele>2153.0</ele>
        <time>2019-10-12T17:00:24.847Z</time>
      </trkpt>
      <trkpt lat="20.23623833" lon="-98.737455">
        <ele>2153.0</ele>
        <time>2019-10-12T17:00:25.849Z</time>
      </trkpt>
      <trkpt lat="20.23623" lon="-98.73744333">
        <ele>2153.0</ele>
        <time>2019-10-12T17:00:26.850Z</time>
      </trkpt>
      <trkpt lat="20.23622333" lon="-98.73743167">
        <ele>2153.0</ele>
        <time>2019-10-12T17:00:27.851Z</time>
      </trkpt>
      <trkpt lat="20.23621667" lon="-98.73741833">
        <ele>2153.0</ele>
        <time>2019-10-12T17:00:28.852Z</time>
      </trkpt>
      <trkpt lat="20.23620833" lon="-98.73740667">
        <ele>2153.0</ele>
        <time>2019-10-12T17:00:29.859Z</time>
      </trkpt>
      <trkpt lat="20.23620167" lon="-98.737395">
        <ele>2153.0</ele>
        <time>2019-10-12T17:00:30.863Z</time>
      </trkpt>
      <trkpt lat="20.23619167" lon="-98.737385">
        <ele>2153.0</ele>
        <time>2019-10-12T17:00:31.866Z</time>
      </trkpt>
      <trkpt lat="20.236185" lon="-98.73737333">
        <ele>2153.0</ele>
        <time>2019-10-12T17:00:32.873Z</time>
      </trkpt>
      <trkpt lat="20.23617833" lon="-98.73736167">
        <ele>2154.0</ele>
        <time>2019-10-12T17:00:33.880Z</time>
      </trkpt>
      <trkpt lat="20.23617167" lon="-98.73735167">
        <ele>2154.0</ele>
        <time>2019-10-12T17:00:34.885Z</time>
      </trkpt>
      <trkpt lat="20.23616333" lon="-98.73734">
        <ele>2154.0</ele>
        <time>2019-10-12T17:00:35.892Z</time>
      </trkpt>
      <trkpt lat="20.236155" lon="-98.73732667">
        <ele>2154.0</ele>
        <time>2019-10-12T17:00:36.897Z</time>
      </trkpt>
      <trkpt lat="20.23614833" lon="-98.73731333">
        <ele>2154.0</ele>
        <time>2019-10-12T17:00:37.904Z</time>
      </trkpt>
      <trkpt lat="20.23614" lon="-98.73730333">
        <ele>2155.0</ele>
        <time>2019-10-12T17:00:38.910Z</time>
      </trkpt>
      <trkpt lat="20.23613" lon="-98.73729">
        <ele>2155.0</ele>
        <time>2019-10-12T17:00:39.918Z</time>
      </trkpt>
      <trkpt lat="20.23611833" lon="-98.73728">
        <ele>2156.0</ele>
        <time>2019-10-12T17:00:40.922Z</time>
      </trkpt>
      <trkpt lat="20.23610833" lon="-98.73727167">
        <ele>2156.0</ele>
        <time>2019-10-12T17:00:41.924Z</time>
      </trkpt>
      <trkpt lat="20.23609833" lon="-98.73726667">
        <ele>2156.0</ele>
        <time>2019-10-12T17:00:42.929Z</time>
      </trkpt>
      <trkpt lat="20.23608833" lon="-98.73726167">
        <ele>2156.0</ele>
        <time>2019-10-12T17:00:43.934Z</time>
      </trkpt>
      <trkpt lat="20.23608" lon="-98.73725667">
        <ele>2156.0</ele>
        <time>2019-10-12T17:00:44.937Z</time>
      </trkpt>
      <trkpt lat="20.23607167" lon="-98.73725167">
        <ele>2157.0</ele>
        <time>2019-10-12T17:00:45.944Z</time>
      </trkpt>
      <trkpt lat="20.23606167" lon="-98.737245">
        <ele>2157.0</ele>
        <time>2019-10-12T17:00:46.948Z</time>
      </trkpt>
      <trkpt lat="20.23604667" lon="-98.73724">
        <ele>2158.0</ele>
        <time>2019-10-12T17:00:47.951Z</time>
      </trkpt>
      <trkpt lat="20.236035" lon="-98.73723833">
        <ele>2158.0</ele>
        <time>2019-10-12T17:00:48.830Z</time>
      </trkpt>
      <trkpt lat="20.23602667" lon="-98.73723667">
        <ele>2158.0</ele>
        <time>2019-10-12T17:00:49.837Z</time>
      </trkpt>
      <trkpt lat="20.23601833" lon="-98.73723667">
        <ele>2158.0</ele>
        <time>2019-10-12T17:00:50.842Z</time>
      </trkpt>
      <trkpt lat="20.23601167" lon="-98.73724167">
        <ele>2158.0</ele>
        <time>2019-10-12T17:00:51.846Z</time>
      </trkpt>
      <trkpt lat="20.23600167" lon="-98.73724667">
        <ele>2158.0</ele>
        <time>2019-10-12T17:00:52.854Z</time>
      </trkpt>
      <trkpt lat="20.23599" lon="-98.73725">
        <ele>2158.0</ele>
        <time>2019-10-12T17:00:53.860Z</time>
      </trkpt>
      <trkpt lat="20.23598" lon="-98.737255">
        <ele>2158.0</ele>
        <time>2019-10-12T17:00:54.867Z</time>
      </trkpt>
      <trkpt lat="20.23597167" lon="-98.73726333">
        <ele>2158.0</ele>
        <time>2019-10-12T17:00:55.873Z</time>
      </trkpt>
      <trkpt lat="20.23596333" lon="-98.73727333">
        <ele>2159.0</ele>
        <time>2019-10-12T17:00:56.874Z</time>
      </trkpt>
      <trkpt lat="20.23595167" lon="-98.73728167">
        <ele>2159.0</ele>
        <time>2019-10-12T17:00:57.875Z</time>
      </trkpt>
      <trkpt lat="20.23594167" lon="-98.73729">
        <ele>2159.0</ele>
        <time>2019-10-12T17:00:58.875Z</time>
      </trkpt>
      <trkpt lat="20.23592667" lon="-98.7373">
        <ele>2159.0</ele>
        <time>2019-10-12T17:00:59.876Z</time>
      </trkpt>
      <trkpt lat="20.235915" lon="-98.73731167">
        <ele>2160.0</ele>
        <time>2019-10-12T17:01:00.877Z</time>
      </trkpt>
      <trkpt lat="20.23590833" lon="-98.73732333">
        <ele>2160.0</ele>
        <time>2019-10-12T17:01:01.878Z</time>
      </trkpt>
      <trkpt lat="20.2359" lon="-98.737335">
        <ele>2160.0</ele>
        <time>2019-10-12T17:01:02.879Z</time>
      </trkpt>
      <trkpt lat="20.23589" lon="-98.73734833">
        <ele>2160.0</ele>
        <time>2019-10-12T17:01:03.882Z</time>
      </trkpt>
      <trkpt lat="20.23587833" lon="-98.73735833">
        <ele>2160.0</ele>
        <time>2019-10-12T17:01:04.889Z</time>
      </trkpt>
      <trkpt lat="20.23586833" lon="-98.73737">
        <ele>2161.0</ele>
        <time>2019-10-12T17:01:05.894Z</time>
      </trkpt>
      <trkpt lat="20.23585667" lon="-98.73738167">
        <ele>2161.0</ele>
        <time>2019-10-12T17:01:06.897Z</time>
      </trkpt>
      <trkpt lat="20.235845" lon="-98.73739167">
        <ele>2162.0</ele>
        <time>2019-10-12T17:01:07.901Z</time>
      </trkpt>
      <trkpt lat="20.23583333" lon="-98.73740333">
        <ele>2162.0</ele>
        <time>2019-10-12T17:01:08.906Z</time>
      </trkpt>
      <trkpt lat="20.23582167" lon="-98.73741333">
        <ele>2163.0</ele>
        <time>2019-10-12T17:01:09.911Z</time>
      </trkpt>
      <trkpt lat="20.23581" lon="-98.73741667">
        <ele>2163.0</ele>
        <time>2019-10-12T17:01:10.916Z</time>
      </trkpt>
      <trkpt lat="20.2358" lon="-98.73741667">
        <ele>2163.0</ele>
        <time>2019-10-12T17:01:11.919Z</time>
      </trkpt>
      <trkpt lat="20.23579" lon="-98.73742167">
        <ele>2164.0</ele>
        <time>2019-10-12T17:01:12.924Z</time>
      </trkpt>
      <trkpt lat="20.23577833" lon="-98.73743167">
        <ele>2164.0</ele>
        <time>2019-10-12T17:01:13.931Z</time>
      </trkpt>
      <trkpt lat="20.23576667" lon="-98.73743833">
        <ele>2164.0</ele>
        <time>2019-10-12T17:01:14.934Z</time>
      </trkpt>
      <trkpt lat="20.235755" lon="-98.73744167">
        <ele>2164.0</ele>
        <time>2019-10-12T17:01:15.939Z</time>
      </trkpt>
      <trkpt lat="20.23574333" lon="-98.737445">
        <ele>2164.0</ele>
        <time>2019-10-12T17:01:16.945Z</time>
      </trkpt>
      <trkpt lat="20.23573167" lon="-98.73744667">
        <ele>2164.0</ele>
        <time>2019-10-12T17:01:17.946Z</time>
      </trkpt>
      <trkpt lat="20.23572" lon="-98.73745">
        <ele>2164.0</ele>
        <time>2019-10-12T17:01:18.946Z</time>
      </trkpt>
      <trkpt lat="20.23570667" lon="-98.73745167">
        <ele>2165.0</ele>
        <time>2019-10-12T17:01:19.946Z</time>
      </trkpt>
      <trkpt lat="20.23569333" lon="-98.73745167">
        <ele>2165.0</ele>
        <time>2019-10-12T17:01:20.946Z</time>
      </trkpt>
      <trkpt lat="20.23567833" lon="-98.73745">
        <ele>2165.0</ele>
        <time>2019-10-12T17:01:21.946Z</time>
      </trkpt>
      <trkpt lat="20.235665" lon="-98.73744667">
        <ele>2165.0</ele>
        <time>2019-10-12T17:01:22.950Z</time>
      </trkpt>
      <trkpt lat="20.23565167" lon="-98.73744167">
        <ele>2165.0</ele>
        <time>2019-10-12T17:01:23.830Z</time>
      </trkpt>
      <trkpt lat="20.235645" lon="-98.73743333">
        <ele>2165.0</ele>
        <time>2019-10-12T17:01:24.835Z</time>
      </trkpt>
      <trkpt lat="20.23563667" lon="-98.73742333">
        <ele>2165.0</ele>
        <time>2019-10-12T17:01:25.840Z</time>
      </trkpt>
      <trkpt lat="20.23563" lon="-98.73741167">
        <ele>2165.0</ele>
        <time>2019-10-12T17:01:26.844Z</time>
      </trkpt>
      <trkpt lat="20.235625" lon="-98.7374">
        <ele>2165.0</ele>
        <time>2019-10-12T17:01:27.850Z</time>
      </trkpt>
      <trkpt lat="20.23562167" lon="-98.73739">
        <ele>2165.0</ele>
        <time>2019-10-12T17:01:28.856Z</time>
      </trkpt>
      <trkpt lat="20.23562" lon="-98.73737833">
        <ele>2165.0</ele>
        <time>2019-10-12T17:01:29.861Z</time>
      </trkpt>
      <trkpt lat="20.23561667" lon="-98.73736833">
        <ele>2165.0</ele>
        <time>2019-10-12T17:01:30.864Z</time>
      </trkpt>
      <trkpt lat="20.23561333" lon="-98.73735667">
        <ele>2165.0</ele>
        <time>2019-10-12T17:01:31.871Z</time>
      </trkpt>
      <trkpt lat="20.23561" lon="-98.737345">
        <ele>2165.0</ele>
        <time>2019-10-12T17:01:32.875Z</time>
      </trkpt>
      <trkpt lat="20.23560833" lon="-98.73733167">
        <ele>2165.0</ele>
        <time>2019-10-12T17:01:33.880Z</time>
      </trkpt>
      <trkpt lat="20.23560833" lon="-98.73731667">
        <ele>2166.0</ele>
        <time>2019-10-12T17:01:34.885Z</time>
      </trkpt>
      <trkpt lat="20.23561" lon="-98.73730333">
        <ele>2166.0</ele>
        <time>2019-10-12T17:01:35.889Z</time>
      </trkpt>
      <trkpt lat="20.23561" lon="-98.73728833">
        <ele>2167.0</ele>
        <time>2019-10-12T17:01:36.894Z</time>
      </trkpt>
      <trkpt lat="20.23561" lon="-98.737275">
        <ele>2167.0</ele>
        <time>2019-10-12T17:01:37.894Z</time>
      </trkpt>
      <trkpt lat="20.23560833" lon="-98.73726167">
        <ele>2167.0</ele>
        <time>2019-10-12T17:01:38.895Z</time>
      </trkpt>
      <trkpt lat="20.23560667" lon="-98.73725">
        <ele>2167.0</ele>
        <time>2019-10-12T17:01:39.896Z</time>
      </trkpt>
      <trkpt lat="20.23560333" lon="-98.73723833">
        <ele>2167.0</ele>
        <time>2019-10-12T17:01:40.897Z</time>
      </trkpt>
      <trkpt lat="20.23560333" lon="-98.73722667">
        <ele>2166.0</ele>
        <time>2019-10-12T17:01:41.898Z</time>
      </trkpt>
      <trkpt lat="20.23559833" lon="-98.737215">
        <ele>2166.0</ele>
        <time>2019-10-12T17:01:42.902Z</time>
      </trkpt>
      <trkpt lat="20.235595" lon="-98.737205">
        <ele>2166.0</ele>
        <time>2019-10-12T17:01:43.907Z</time>
      </trkpt>
      <trkpt lat="20.23558833" lon="-98.737195">
        <ele>2166.0</ele>
        <time>2019-10-12T17:01:44.911Z</time>
      </trkpt>
      <trkpt lat="20.23558167" lon="-98.737185">
        <ele>2166.0</ele>
        <time>2019-10-12T17:01:45.913Z</time>
      </trkpt>
      <trkpt lat="20.23557667" lon="-98.73717667">
        <ele>2166.0</ele>
        <time>2019-10-12T17:01:46.920Z</time>
      </trkpt>
      <trkpt lat="20.23557" lon="-98.73716833">
        <ele>2165.0</ele>
        <time>2019-10-12T17:01:47.926Z</time>
      </trkpt>
      <trkpt lat="20.235565" lon="-98.73716333">
        <ele>2166.0</ele>
        <time>2019-10-12T17:01:48.933Z</time>
      </trkpt>
      <trkpt lat="20.23556" lon="-98.73715833">
        <ele>2166.0</ele>
        <time>2019-10-12T17:01:49.940Z</time>
      </trkpt>
      <trkpt lat="20.235555" lon="-98.737155">
        <ele>2166.0</ele>
        <time>2019-10-12T17:01:50.944Z</time>
      </trkpt>
      <trkpt lat="20.23554833" lon="-98.73715333">
        <ele>2166.0</ele>
        <time>2019-10-12T17:01:51.948Z</time>
      </trkpt>
      <trkpt lat="20.23553833" lon="-98.73715667">
        <ele>2166.0</ele>
        <time>2019-10-12T17:01:52.951Z</time>
      </trkpt>
      <trkpt lat="20.23553" lon="-98.73716167">
        <ele>2166.0</ele>
        <time>2019-10-12T17:01:53.951Z</time>
      </trkpt>
      <trkpt lat="20.23552167" lon="-98.73717167">
        <ele>2167.0</ele>
        <time>2019-10-12T17:01:54.952Z</time>
      </trkpt>
      <trkpt lat="20.23551167" lon="-98.73718167">
        <ele>2167.0</ele>
        <time>2019-10-12T17:01:55.832Z</time>
      </trkpt>
      <trkpt lat="20.23550167" lon="-98.73719167">
        <ele>2168.0</ele>
        <time>2019-10-12T17:01:56.835Z</time>
      </trkpt>
      <trkpt lat="20.235495" lon="-98.737205">
        <ele>2169.0</ele>
        <time>2019-10-12T17:01:57.838Z</time>
      </trkpt>
      <trkpt lat="20.23548833" lon="-98.73721667">
        <ele>2169.0</ele>
        <time>2019-10-12T17:01:58.843Z</time>
      </trkpt>
      <trkpt lat="20.23548333" lon="-98.73723">
        <ele>2170.0</ele>
        <time>2019-10-12T17:01:59.848Z</time>
      </trkpt>
      <trkpt lat="20.23548" lon="-98.73724333">
        <ele>2171.0</ele>
        <time>2019-10-12T17:02:00.854Z</time>
      </trkpt>
      <trkpt lat="20.23547333" lon="-98.73725667">
        <ele>2172.0</ele>
        <time>2019-10-12T17:02:01.858Z</time>
      </trkpt>
      <trkpt lat="20.235465" lon="-98.737265">
        <ele>2172.0</ele>
        <time>2019-10-12T17:02:02.862Z</time>
      </trkpt>
      <trkpt lat="20.23546167" lon="-98.73727167">
        <ele>2173.0</ele>
        <time>2019-10-12T17:02:03.869Z</time>
      </trkpt>
      <trkpt lat="20.23545333" lon="-98.73727833">
        <ele>2173.0</ele>
        <time>2019-10-12T17:02:04.875Z</time>
      </trkpt>
      <trkpt lat="20.23544167" lon="-98.73728833">
        <ele>2174.0</ele>
        <time>2019-10-12T17:02:05.880Z</time>
      </trkpt>
      <trkpt lat="20.235435" lon="-98.73729833">
        <ele>2174.0</ele>
        <time>2019-10-12T17:02:06.882Z</time>
      </trkpt>
      <trkpt lat="20.23542667" lon="-98.73730833">
        <ele>2174.0</ele>
        <time>2019-10-12T17:02:07.884Z</time>
      </trkpt>
      <trkpt lat="20.23542" lon="-98.73731833">
        <ele>2174.0</ele>
        <time>2019-10-12T17:02:08.887Z</time>
      </trkpt>
      <trkpt lat="20.23541" lon="-98.73732833">
        <ele>2174.0</ele>
        <time>2019-10-12T17:02:09.891Z</time>
      </trkpt>
      <trkpt lat="20.2354" lon="-98.73733833">
        <ele>2175.0</ele>
        <time>2019-10-12T17:02:10.896Z</time>
      </trkpt>
      <trkpt lat="20.23539167" lon="-98.73734667">
        <ele>2175.0</ele>
        <time>2019-10-12T17:02:11.904Z</time>
      </trkpt>
      <trkpt lat="20.23538333" lon="-98.73735333">
        <ele>2175.0</ele>
        <time>2019-10-12T17:02:12.911Z</time>
      </trkpt>
      <trkpt lat="20.235375" lon="-98.73736333">
        <ele>2176.0</ele>
        <time>2019-10-12T17:02:13.916Z</time>
      </trkpt>
      <trkpt lat="20.23536667" lon="-98.73737333">
        <ele>2176.0</ele>
        <time>2019-10-12T17:02:14.918Z</time>
      </trkpt>
      <trkpt lat="20.23535833" lon="-98.73738">
        <ele>2177.0</ele>
        <time>2019-10-12T17:02:15.923Z</time>
      </trkpt>
      <trkpt lat="20.23534667" lon="-98.73738833">
        <ele>2177.0</ele>
        <time>2019-10-12T17:02:16.928Z</time>
      </trkpt>
      <trkpt lat="20.23533667" lon="-98.737395">
        <ele>2178.0</ele>
        <time>2019-10-12T17:02:17.934Z</time>
      </trkpt>
      <trkpt lat="20.23533" lon="-98.73740333">
        <ele>2178.0</ele>
        <time>2019-10-12T17:02:18.938Z</time>
      </trkpt>
      <trkpt lat="20.23532667" lon="-98.73741167">
        <ele>2179.0</ele>
        <time>2019-10-12T17:02:19.944Z</time>
      </trkpt>
      <trkpt lat="20.23532167" lon="-98.73741667">
        <ele>2179.0</ele>
        <time>2019-10-12T17:02:20.949Z</time>
      </trkpt>
      <trkpt lat="20.23531167" lon="-98.73742333">
        <ele>2180.0</ele>
        <time>2019-10-12T17:02:21.830Z</time>
      </trkpt>
      <trkpt lat="20.235305" lon="-98.73742667">
        <ele>2180.0</ele>
        <time>2019-10-12T17:02:22.836Z</time>
      </trkpt>
      <trkpt lat="20.23529667" lon="-98.73743167">
        <ele>2181.0</ele>
        <time>2019-10-12T17:02:23.842Z</time>
      </trkpt>
      <trkpt lat="20.23528833" lon="-98.737435">
        <ele>2181.0</ele>
        <time>2019-10-12T17:02:24.848Z</time>
      </trkpt>
      <trkpt lat="20.23527833" lon="-98.73743833">
        <ele>2181.0</ele>
        <time>2019-10-12T17:02:25.851Z</time>
      </trkpt>
      <trkpt lat="20.23526667" lon="-98.73744">
        <ele>2181.0</ele>
        <time>2019-10-12T17:02:26.858Z</time>
      </trkpt>
      <trkpt lat="20.23525833" lon="-98.73744333">
        <ele>2182.0</ele>
        <time>2019-10-12T17:02:27.865Z</time>
      </trkpt>
      <trkpt lat="20.23525" lon="-98.73744333">
        <ele>2182.0</ele>
        <time>2019-10-12T17:02:28.869Z</time>
      </trkpt>
      <trkpt lat="20.23523833" lon="-98.73744167">
        <ele>2182.0</ele>
        <time>2019-10-12T17:02:29.870Z</time>
      </trkpt>
      <trkpt lat="20.23522667" lon="-98.73744167">
        <ele>2182.0</ele>
        <time>2019-10-12T17:02:30.871Z</time>
      </trkpt>
      <trkpt lat="20.23521833" lon="-98.73744167">
        <ele>2182.0</ele>
        <time>2019-10-12T17:02:31.872Z</time>
      </trkpt>
      <trkpt lat="20.235205" lon="-98.73744">
        <ele>2182.0</ele>
        <time>2019-10-12T17:02:32.878Z</time>
      </trkpt>
      <trkpt lat="20.235195" lon="-98.73744">
        <ele>2182.0</ele>
        <time>2019-10-12T17:02:33.879Z</time>
      </trkpt>
      <trkpt lat="20.23518333" lon="-98.73743833">
        <ele>2181.0</ele>
        <time>2019-10-12T17:02:34.882Z</time>
      </trkpt>
      <trkpt lat="20.23517333" lon="-98.73744">
        <ele>2182.0</ele>
        <time>2019-10-12T17:02:35.889Z</time>
      </trkpt>
      <trkpt lat="20.23516" lon="-98.73744333">
        <ele>2182.0</ele>
        <time>2019-10-12T17:02:36.895Z</time>
      </trkpt>
      <trkpt lat="20.23514333" lon="-98.737445">
        <ele>2182.0</ele>
        <time>2019-10-12T17:02:37.897Z</time>
      </trkpt>
      <trkpt lat="20.23513" lon="-98.73744833">
        <ele>2183.0</ele>
        <time>2019-10-12T17:02:38.902Z</time>
      </trkpt>
      <trkpt lat="20.23511333" lon="-98.737455">
        <ele>2182.0</ele>
        <time>2019-10-12T17:02:39.907Z</time>
      </trkpt>
      <trkpt lat="20.23509167" lon="-98.73746167">
        <ele>2181.0</ele>
        <time>2019-10-12T17:02:40.909Z</time>
      </trkpt>
      <trkpt lat="20.23507333" lon="-98.73746333">
        <ele>2181.0</ele>
        <time>2019-10-12T17:02:41.910Z</time>
      </trkpt>
      <trkpt lat="20.23505667" lon="-98.73746667">
        <ele>2180.0</ele>
        <time>2019-10-12T17:02:42.912Z</time>
      </trkpt>
      <trkpt lat="20.23503833" lon="-98.73747167">
        <ele>2179.0</ele>
        <time>2019-10-12T17:02:43.914Z</time>
      </trkpt>
      <trkpt lat="20.23502167" lon="-98.73747833">
        <ele>2179.0</ele>
        <time>2019-10-12T17:02:44.921Z</time>
      </trkpt>
      <trkpt lat="20.23500833" lon="-98.73748833">
        <ele>2179.0</ele>
        <time>2019-10-12T17:02:45.926Z</time>
      </trkpt>
      <trkpt lat="20.235" lon="-98.7375">
        <ele>2179.0</ele>
        <time>2019-10-12T17:02:46.929Z</time>
      </trkpt>
      <trkpt lat="20.23499167" lon="-98.73751">
        <ele>2179.0</ele>
        <time>2019-10-12T17:02:47.934Z</time>
      </trkpt>
      <trkpt lat="20.23498333" lon="-98.73752333">
        <ele>2180.0</ele>
        <time>2019-10-12T17:02:48.939Z</time>
      </trkpt>
      <trkpt lat="20.23497667" lon="-98.73753833">
        <ele>2180.0</ele>
        <time>2019-10-12T17:02:49.945Z</time>
      </trkpt>
      <trkpt lat="20.23497167" lon="-98.737555">
        <ele>2181.0</ele>
        <time>2019-10-12T17:02:50.948Z</time>
      </trkpt>
      <trkpt lat="20.23496333" lon="-98.73756833">
        <ele>2181.0</ele>
        <time>2019-10-12T17:02:51.949Z</time>
      </trkpt>
      <trkpt lat="20.23495167" lon="-98.73758167">
        <ele>2181.0</ele>
        <time>2019-10-12T17:02:52.950Z</time>
      </trkpt>
      <trkpt lat="20.23494167" lon="-98.737595">
        <ele>2181.0</ele>
        <time>2019-10-12T17:02:53.951Z</time>
      </trkpt>
      <trkpt lat="20.23492833" lon="-98.73760667">
        <ele>2181.0</ele>
        <time>2019-10-12T17:02:54.952Z</time>
      </trkpt>
      <trkpt lat="20.23491667" lon="-98.73762">
        <ele>2181.0</ele>
        <time>2019-10-12T17:02:55.952Z</time>
      </trkpt>
      <trkpt lat="20.23490833" lon="-98.73763167">
        <ele>2182.0</ele>
        <time>2019-10-12T17:02:56.953Z</time>
      </trkpt>
      <trkpt lat="20.23489667" lon="-98.73764">
        <ele>2183.0</ele>
        <time>2019-10-12T17:02:57.954Z</time>
      </trkpt>
      <trkpt lat="20.23488667" lon="-98.73764833">
        <ele>2183.0</ele>
        <time>2019-10-12T17:02:58.954Z</time>
      </trkpt>
      <trkpt lat="20.23487" lon="-98.73766167">
        <ele>2183.0</ele>
        <time>2019-10-12T17:02:59.830Z</time>
      </trkpt>
      <trkpt lat="20.23485833" lon="-98.73767667">
        <ele>2183.0</ele>
        <time>2019-10-12T17:03:00.834Z</time>
      </trkpt>
      <trkpt lat="20.23485167" lon="-98.73769667">
        <ele>2184.0</ele>
        <time>2019-10-12T17:03:01.840Z</time>
      </trkpt>
      <trkpt lat="20.23484667" lon="-98.73770833">
        <ele>2185.0</ele>
        <time>2019-10-12T17:03:02.846Z</time>
      </trkpt>
      <trkpt lat="20.23484167" lon="-98.73772">
        <ele>2186.0</ele>
        <time>2019-10-12T17:03:03.851Z</time>
      </trkpt>
      <trkpt lat="20.23483833" lon="-98.737725">
        <ele>2186.0</ele>
        <time>2019-10-12T17:03:04.856Z</time>
      </trkpt>
      <trkpt lat="20.234835" lon="-98.737735">
        <ele>2186.0</ele>
        <time>2019-10-12T17:03:05.859Z</time>
      </trkpt>
      <trkpt lat="20.234835" lon="-98.73774833">
        <ele>2186.0</ele>
        <time>2019-10-12T17:03:06.866Z</time>
      </trkpt>
      <trkpt lat="20.23483333" lon="-98.73775833">
        <ele>2187.0</ele>
        <time>2019-10-12T17:03:07.871Z</time>
      </trkpt>
      <trkpt lat="20.23482833" lon="-98.737765">
        <ele>2187.0</ele>
        <time>2019-10-12T17:03:08.876Z</time>
      </trkpt>
      <trkpt lat="20.23482167" lon="-98.737775">
        <ele>2188.0</ele>
        <time>2019-10-12T17:03:09.881Z</time>
      </trkpt>
      <trkpt lat="20.23481667" lon="-98.73778667">
        <ele>2189.0</ele>
        <time>2019-10-12T17:03:10.883Z</time>
      </trkpt>
      <trkpt lat="20.23480667" lon="-98.737785">
        <ele>2189.0</ele>
        <time>2019-10-12T17:03:11.890Z</time>
      </trkpt>
      <trkpt lat="20.23479833" lon="-98.73778">
        <ele>2188.0</ele>
        <time>2019-10-12T17:03:12.896Z</time>
      </trkpt>
      <trkpt lat="20.23479667" lon="-98.73778">
        <ele>2188.0</ele>
        <time>2019-10-12T17:03:13.902Z</time>
      </trkpt>
      <trkpt lat="20.234795" lon="-98.73779167">
        <ele>2189.0</ele>
        <time>2019-10-12T17:03:14.905Z</time>
      </trkpt>
      <trkpt lat="20.234785" lon="-98.737805">
        <ele>2189.0</ele>
        <time>2019-10-12T17:03:15.906Z</time>
      </trkpt>
      <trkpt lat="20.23477667" lon="-98.737815">
        <ele>2188.0</ele>
        <time>2019-10-12T17:03:16.913Z</time>
      </trkpt>
      <trkpt lat="20.23477167" lon="-98.737825">
        <ele>2188.0</ele>
        <time>2019-10-12T17:03:17.919Z</time>
      </trkpt>
      <trkpt lat="20.23476667" lon="-98.737835">
        <ele>2188.0</ele>
        <time>2019-10-12T17:03:18.921Z</time>
      </trkpt>
      <trkpt lat="20.23476" lon="-98.73784">
        <ele>2188.0</ele>
        <time>2019-10-12T17:03:19.926Z</time>
      </trkpt>
      <trkpt lat="20.23475" lon="-98.73784333">
        <ele>2188.0</ele>
        <time>2019-10-12T17:03:20.930Z</time>
      </trkpt>
      <trkpt lat="20.23473833" lon="-98.737845">
        <ele>2188.0</ele>
        <time>2019-10-12T17:03:21.931Z</time>
      </trkpt>
      <trkpt lat="20.23472333" lon="-98.73785">
        <ele>2187.0</ele>
        <time>2019-10-12T17:03:22.936Z</time>
      </trkpt>
      <trkpt lat="20.23470833" lon="-98.73785167">
        <ele>2185.0</ele>
        <time>2019-10-12T17:03:23.942Z</time>
      </trkpt>
      <trkpt lat="20.23470667" lon="-98.73785833">
        <ele>2184.0</ele>
        <time>2019-10-12T17:03:24.945Z</time>
      </trkpt>
      <trkpt lat="20.23471333" lon="-98.73786833">
        <ele>2184.0</ele>
        <time>2019-10-12T17:03:25.948Z</time>
      </trkpt>
      <trkpt lat="20.23471833" lon="-98.737875">
        <ele>2184.0</ele>
        <time>2019-10-12T17:03:26.955Z</time>
      </trkpt>
      <trkpt lat="20.234715" lon="-98.73788167">
        <ele>2185.0</ele>
        <time>2019-10-12T17:03:27.837Z</time>
      </trkpt>
      <trkpt lat="20.23470667" lon="-98.737885">
        <ele>2184.0</ele>
        <time>2019-10-12T17:03:28.839Z</time>
      </trkpt>
      <trkpt lat="20.23470167" lon="-98.73788833">
        <ele>2184.0</ele>
        <time>2019-10-12T17:03:29.846Z</time>
      </trkpt>
      <trkpt lat="20.2347" lon="-98.73789">
        <ele>2184.0</ele>
        <time>2019-10-12T17:03:30.853Z</time>
      </trkpt>
      <trkpt lat="20.234695" lon="-98.73789833">
        <ele>2184.0</ele>
        <time>2019-10-12T17:03:31.855Z</time>
      </trkpt>
      <trkpt lat="20.23468833" lon="-98.73789667">
        <ele>2183.0</ele>
        <time>2019-10-12T17:03:32.856Z</time>
      </trkpt>
      <trkpt lat="20.23468167" lon="-98.73789167">
        <ele>2183.0</ele>
        <time>2019-10-12T17:03:33.857Z</time>
      </trkpt>
      <trkpt lat="20.23467833" lon="-98.73789">
        <ele>2183.0</ele>
        <time>2019-10-12T17:03:34.858Z</time>
      </trkpt>
      <trkpt lat="20.23468" lon="-98.73788333">
        <ele>2184.0</ele>
        <time>2019-10-12T17:03:35.858Z</time>
      </trkpt>
      <trkpt lat="20.23468" lon="-98.73788167">
        <ele>2185.0</ele>
        <time>2019-10-12T17:03:36.859Z</time>
      </trkpt>
      <trkpt lat="20.234675" lon="-98.73787833">
        <ele>2185.0</ele>
        <time>2019-10-12T17:03:37.860Z</time>
      </trkpt>
      <trkpt lat="20.23466667" lon="-98.737875">
        <ele>2184.0</ele>
        <time>2019-10-12T17:03:38.861Z</time>
      </trkpt>
      <trkpt lat="20.23465833" lon="-98.737875">
        <ele>2184.0</ele>
        <time>2019-10-12T17:03:39.862Z</time>
      </trkpt>
      <trkpt lat="20.234655" lon="-98.73787333">
        <ele>2185.0</ele>
        <time>2019-10-12T17:03:40.862Z</time>
      </trkpt>
      <trkpt lat="20.234655" lon="-98.73787167">
        <ele>2185.0</ele>
        <time>2019-10-12T17:03:41.863Z</time>
      </trkpt>
      <trkpt lat="20.23465667" lon="-98.73787167">
        <ele>2185.0</ele>
        <time>2019-10-12T17:03:42.864Z</time>
      </trkpt>
      <trkpt lat="20.23465833" lon="-98.73787">
        <ele>2186.0</ele>
        <time>2019-10-12T17:03:43.865Z</time>
      </trkpt>
      <trkpt lat="20.23466167" lon="-98.73787167">
        <ele>2186.0</ele>
        <time>2019-10-12T17:03:44.866Z</time>
      </trkpt>
      <trkpt lat="20.23466167" lon="-98.737875">
        <ele>2187.0</ele>
        <time>2019-10-12T17:03:45.867Z</time>
      </trkpt>
      <trkpt lat="20.23466333" lon="-98.73788">
        <ele>2187.0</ele>
        <time>2019-10-12T17:03:46.872Z</time>
      </trkpt>
      <trkpt lat="20.23465833" lon="-98.73788333">
        <ele>2186.0</ele>
        <time>2019-10-12T17:03:47.878Z</time>
      </trkpt>
      <trkpt lat="20.23465667" lon="-98.73789">
        <ele>2186.0</ele>
        <time>2019-10-12T17:03:48.880Z</time>
      </trkpt>
      <trkpt lat="20.23465667" lon="-98.737895">
        <ele>2185.0</ele>
        <time>2019-10-12T17:03:49.886Z</time>
      </trkpt>
      <trkpt lat="20.234655" lon="-98.73790167">
        <ele>2184.0</ele>
        <time>2019-10-12T17:03:50.891Z</time>
      </trkpt>
      <trkpt lat="20.23465667" lon="-98.73790833">
        <ele>2184.0</ele>
        <time>2019-10-12T17:03:51.892Z</time>
      </trkpt>
      <trkpt lat="20.23466" lon="-98.73791667">
        <ele>2184.0</ele>
        <time>2019-10-12T17:03:52.893Z</time>
      </trkpt>
      <trkpt lat="20.23465833" lon="-98.73792333">
        <ele>2184.0</ele>
        <time>2019-10-12T17:03:53.894Z</time>
      </trkpt>
      <trkpt lat="20.23465833" lon="-98.73793167">
        <ele>2184.0</ele>
        <time>2019-10-12T17:03:54.895Z</time>
      </trkpt>
      <trkpt lat="20.23465833" lon="-98.73794333">
        <ele>2184.0</ele>
        <time>2019-10-12T17:03:55.895Z</time>
      </trkpt>
      <trkpt lat="20.23465833" lon="-98.73795">
        <ele>2184.0</ele>
        <time>2019-10-12T17:03:56.896Z</time>
      </trkpt>
      <trkpt lat="20.23466" lon="-98.73795667">
        <ele>2185.0</ele>
        <time>2019-10-12T17:03:57.897Z</time>
      </trkpt>
      <trkpt lat="20.23466" lon="-98.73796167">
        <ele>2185.0</ele>
        <time>2019-10-12T17:03:58.903Z</time>
      </trkpt>
      <trkpt lat="20.23466" lon="-98.73796833">
        <ele>2185.0</ele>
        <time>2019-10-12T17:03:59.909Z</time>
      </trkpt>
      <trkpt lat="20.23466" lon="-98.73797667">
        <ele>2186.0</ele>
        <time>2019-10-12T17:04:00.915Z</time>
      </trkpt>
      <trkpt lat="20.23465833" lon="-98.73798333">
        <ele>2187.0</ele>
        <time>2019-10-12T17:04:01.920Z</time>
      </trkpt>
      <trkpt lat="20.23465333" lon="-98.73799167">
        <ele>2187.0</ele>
        <time>2019-10-12T17:04:02.923Z</time>
      </trkpt>
      <trkpt lat="20.23465333" lon="-98.738">
        <ele>2187.0</ele>
        <time>2019-10-12T17:04:03.928Z</time>
      </trkpt>
      <trkpt lat="20.234655" lon="-98.73800667">
        <ele>2187.0</ele>
        <time>2019-10-12T17:04:04.934Z</time>
      </trkpt>
      <trkpt lat="20.23465333" lon="-98.738015">
        <ele>2187.0</ele>
        <time>2019-10-12T17:04:05.942Z</time>
      </trkpt>
      <trkpt lat="20.23465" lon="-98.73802667">
        <ele>2187.0</ele>
        <time>2019-10-12T17:04:06.945Z</time>
      </trkpt>
      <trkpt lat="20.23465333" lon="-98.73803667">
        <ele>2187.0</ele>
        <time>2019-10-12T17:04:07.945Z</time>
      </trkpt>
      <trkpt lat="20.23466333" lon="-98.73804667">
        <ele>2187.0</ele>
        <time>2019-10-12T17:04:08.946Z</time>
      </trkpt>
      <trkpt lat="20.234675" lon="-98.738055">
        <ele>2188.0</ele>
        <time>2019-10-12T17:04:09.949Z</time>
      </trkpt>
      <trkpt lat="20.23467333" lon="-98.738065">
        <ele>2188.0</ele>
        <time>2019-10-12T17:04:10.830Z</time>
      </trkpt>
      <trkpt lat="20.23467" lon="-98.73807167">
        <ele>2189.0</ele>
        <time>2019-10-12T17:04:11.837Z</time>
      </trkpt>
      <trkpt lat="20.234665" lon="-98.73807667">
        <ele>2189.0</ele>
        <time>2019-10-12T17:04:12.841Z</time>
      </trkpt>
      <trkpt lat="20.23466333" lon="-98.73808167">
        <ele>2189.0</ele>
        <time>2019-10-12T17:04:13.844Z</time>
      </trkpt>
      <trkpt lat="20.23466" lon="-98.738085">
        <ele>2189.0</ele>
        <time>2019-10-12T17:04:14.847Z</time>
      </trkpt>
      <trkpt lat="20.23466167" lon="-98.73809167">
        <ele>2190.0</ele>
        <time>2019-10-12T17:04:15.855Z</time>
      </trkpt>
      <trkpt lat="20.23466667" lon="-98.7381">
        <ele>2191.0</ele>
        <time>2019-10-12T17:04:16.859Z</time>
      </trkpt>
      <trkpt lat="20.23466667" lon="-98.73811">
        <ele>2192.0</ele>
        <time>2019-10-12T17:04:17.862Z</time>
      </trkpt>
      <trkpt lat="20.234665" lon="-98.73812">
        <ele>2193.0</ele>
        <time>2019-10-12T17:04:18.869Z</time>
      </trkpt>
      <trkpt lat="20.23466167" lon="-98.738125">
        <ele>2194.0</ele>
        <time>2019-10-12T17:04:19.875Z</time>
      </trkpt>
      <trkpt lat="20.23465667" lon="-98.73813333">
        <ele>2194.0</ele>
        <time>2019-10-12T17:04:20.880Z</time>
      </trkpt>
      <trkpt lat="20.23465333" lon="-98.73814167">
        <ele>2194.0</ele>
        <time>2019-10-12T17:04:21.885Z</time>
      </trkpt>
      <trkpt lat="20.23465" lon="-98.73815">
        <ele>2194.0</ele>
        <time>2019-10-12T17:04:22.886Z</time>
      </trkpt>
      <trkpt lat="20.234645" lon="-98.738155">
        <ele>2194.0</ele>
        <time>2019-10-12T17:04:23.886Z</time>
      </trkpt>
      <trkpt lat="20.23464" lon="-98.73816">
        <ele>2193.0</ele>
        <time>2019-10-12T17:04:24.887Z</time>
      </trkpt>
      <trkpt lat="20.234635" lon="-98.73817">
        <ele>2193.0</ele>
        <time>2019-10-12T17:04:25.887Z</time>
      </trkpt>
      <trkpt lat="20.234635" lon="-98.73817833">
        <ele>2194.0</ele>
        <time>2019-10-12T17:04:26.888Z</time>
      </trkpt>
      <trkpt lat="20.234635" lon="-98.73818833">
        <ele>2194.0</ele>
        <time>2019-10-12T17:04:27.888Z</time>
      </trkpt>
      <trkpt lat="20.23463333" lon="-98.73819667">
        <ele>2194.0</ele>
        <time>2019-10-12T17:04:28.889Z</time>
      </trkpt>
      <trkpt lat="20.234635" lon="-98.73820167">
        <ele>2195.0</ele>
        <time>2019-10-12T17:04:29.889Z</time>
      </trkpt>
      <trkpt lat="20.234635" lon="-98.73820833">
        <ele>2195.0</ele>
        <time>2019-10-12T17:04:30.891Z</time>
      </trkpt>
      <trkpt lat="20.234635" lon="-98.73821333">
        <ele>2195.0</ele>
        <time>2019-10-12T17:04:31.892Z</time>
      </trkpt>
      <trkpt lat="20.23463" lon="-98.73821667">
        <ele>2195.0</ele>
        <time>2019-10-12T17:04:32.892Z</time>
      </trkpt>
      <trkpt lat="20.23462333" lon="-98.73822">
        <ele>2196.0</ele>
        <time>2019-10-12T17:04:33.893Z</time>
      </trkpt>
      <trkpt lat="20.23461667" lon="-98.73822667">
        <ele>2196.0</ele>
        <time>2019-10-12T17:04:34.894Z</time>
      </trkpt>
      <trkpt lat="20.23461167" lon="-98.73823333">
        <ele>2196.0</ele>
        <time>2019-10-12T17:04:35.895Z</time>
      </trkpt>
      <trkpt lat="20.23461" lon="-98.73824167">
        <ele>2197.0</ele>
        <time>2019-10-12T17:04:36.896Z</time>
      </trkpt>
      <trkpt lat="20.23460667" lon="-98.73824667">
        <ele>2198.0</ele>
        <time>2019-10-12T17:04:37.897Z</time>
      </trkpt>
      <trkpt lat="20.23460333" lon="-98.73825333">
        <ele>2198.0</ele>
        <time>2019-10-12T17:04:38.897Z</time>
      </trkpt>
      <trkpt lat="20.2346" lon="-98.73826167">
        <ele>2198.0</ele>
        <time>2019-10-12T17:04:39.898Z</time>
      </trkpt>
      <trkpt lat="20.23459667" lon="-98.73826833">
        <ele>2198.0</ele>
        <time>2019-10-12T17:04:40.899Z</time>
      </trkpt>
      <trkpt lat="20.23459333" lon="-98.73827">
        <ele>2199.0</ele>
        <time>2019-10-12T17:04:41.900Z</time>
      </trkpt>
      <trkpt lat="20.23459167" lon="-98.73826833">
        <ele>2200.0</ele>
        <time>2019-10-12T17:04:42.900Z</time>
      </trkpt>
      <trkpt lat="20.23458833" lon="-98.73827">
        <ele>2200.0</ele>
        <time>2019-10-12T17:04:43.901Z</time>
      </trkpt>
      <trkpt lat="20.234585" lon="-98.738275">
        <ele>2201.0</ele>
        <time>2019-10-12T17:04:44.902Z</time>
      </trkpt>
      <trkpt lat="20.23458167" lon="-98.73827833">
        <ele>2202.0</ele>
        <time>2019-10-12T17:04:45.903Z</time>
      </trkpt>
      <trkpt lat="20.23457667" lon="-98.73828167">
        <ele>2202.0</ele>
        <time>2019-10-12T17:04:46.903Z</time>
      </trkpt>
      <trkpt lat="20.23457333" lon="-98.738285">
        <ele>2202.0</ele>
        <time>2019-10-12T17:04:47.904Z</time>
      </trkpt>
      <trkpt lat="20.234565" lon="-98.73829">
        <ele>2203.0</ele>
        <time>2019-10-12T17:04:48.904Z</time>
      </trkpt>
      <trkpt lat="20.23455167" lon="-98.73829833">
        <ele>2203.0</ele>
        <time>2019-10-12T17:04:49.906Z</time>
      </trkpt>
      <trkpt lat="20.23454833" lon="-98.73830333">
        <ele>2203.0</ele>
        <time>2019-10-12T17:04:50.907Z</time>
      </trkpt>
      <trkpt lat="20.234545" lon="-98.73830667">
        <ele>2203.0</ele>
        <time>2019-10-12T17:04:51.907Z</time>
      </trkpt>
      <trkpt lat="20.23454333" lon="-98.73830833">
        <ele>2203.0</ele>
        <time>2019-10-12T17:04:52.908Z</time>
      </trkpt>
      <trkpt lat="20.23454333" lon="-98.73831">
        <ele>2203.0</ele>
        <time>2019-10-12T17:04:53.909Z</time>
      </trkpt>
      <trkpt lat="20.23454333" lon="-98.738315">
        <ele>2203.0</ele>
        <time>2019-10-12T17:04:54.910Z</time>
      </trkpt>
      <trkpt lat="20.23454" lon="-98.73831833">
        <ele>2203.0</ele>
        <time>2019-10-12T17:04:55.911Z</time>
      </trkpt>
      <trkpt lat="20.23453667" lon="-98.73832333">
        <ele>2203.0</ele>
        <time>2019-10-12T17:04:56.911Z</time>
      </trkpt>
      <trkpt lat="20.23453333" lon="-98.73832833">
        <ele>2203.0</ele>
        <time>2019-10-12T17:04:57.912Z</time>
      </trkpt>
      <trkpt lat="20.23452833" lon="-98.73833333">
        <ele>2203.0</ele>
        <time>2019-10-12T17:04:58.913Z</time>
      </trkpt>
      <trkpt lat="20.23452333" lon="-98.73834">
        <ele>2203.0</ele>
        <time>2019-10-12T17:04:59.913Z</time>
      </trkpt>
      <trkpt lat="20.23451667" lon="-98.73834333">
        <ele>2204.0</ele>
        <time>2019-10-12T17:05:00.915Z</time>
      </trkpt>
      <trkpt lat="20.23450833" lon="-98.738345">
        <ele>2204.0</ele>
        <time>2019-10-12T17:05:01.916Z</time>
      </trkpt>
      <trkpt lat="20.23450333" lon="-98.73835">
        <ele>2204.0</ele>
        <time>2019-10-12T17:05:02.916Z</time>
      </trkpt>
      <trkpt lat="20.23449833" lon="-98.738355">
        <ele>2205.0</ele>
        <time>2019-10-12T17:05:03.917Z</time>
      </trkpt>
      <trkpt lat="20.23449333" lon="-98.73836167">
        <ele>2205.0</ele>
        <time>2019-10-12T17:05:04.917Z</time>
      </trkpt>
      <trkpt lat="20.23449167" lon="-98.73836833">
        <ele>2205.0</ele>
        <time>2019-10-12T17:05:05.919Z</time>
      </trkpt>
      <trkpt lat="20.23448667" lon="-98.73837333">
        <ele>2206.0</ele>
        <time>2019-10-12T17:05:06.920Z</time>
      </trkpt>
      <trkpt lat="20.23448167" lon="-98.73837833">
        <ele>2206.0</ele>
        <time>2019-10-12T17:05:07.920Z</time>
      </trkpt>
      <trkpt lat="20.23447667" lon="-98.73838667">
        <ele>2206.0</ele>
        <time>2019-10-12T17:05:08.921Z</time>
      </trkpt>
      <trkpt lat="20.23447333" lon="-98.73839667">
        <ele>2207.0</ele>
        <time>2019-10-12T17:05:09.921Z</time>
      </trkpt>
      <trkpt lat="20.23446833" lon="-98.73840667">
        <ele>2207.0</ele>
        <time>2019-10-12T17:05:10.922Z</time>
      </trkpt>
      <trkpt lat="20.23446667" lon="-98.73841833">
        <ele>2207.0</ele>
        <time>2019-10-12T17:05:11.923Z</time>
      </trkpt>
      <trkpt lat="20.23445833" lon="-98.73842333">
        <ele>2207.0</ele>
        <time>2019-10-12T17:05:12.923Z</time>
      </trkpt>
      <trkpt lat="20.23444833" lon="-98.73842667">
        <ele>2207.0</ele>
        <time>2019-10-12T17:05:13.924Z</time>
      </trkpt>
      <trkpt lat="20.23444167" lon="-98.73842333">
        <ele>2207.0</ele>
        <time>2019-10-12T17:05:14.925Z</time>
      </trkpt>
      <trkpt lat="20.23443333" lon="-98.73842">
        <ele>2208.0</ele>
        <time>2019-10-12T17:05:15.926Z</time>
      </trkpt>
      <trkpt lat="20.234425" lon="-98.73841833">
        <ele>2208.0</ele>
        <time>2019-10-12T17:05:16.927Z</time>
      </trkpt>
      <trkpt lat="20.23441667" lon="-98.73842">
        <ele>2208.0</ele>
        <time>2019-10-12T17:05:17.928Z</time>
      </trkpt>
      <trkpt lat="20.23440833" lon="-98.73842167">
        <ele>2208.0</ele>
        <time>2019-10-12T17:05:18.928Z</time>
      </trkpt>
      <trkpt lat="20.23439833" lon="-98.738425">
        <ele>2208.0</ele>
        <time>2019-10-12T17:05:19.932Z</time>
      </trkpt>
      <trkpt lat="20.23438833" lon="-98.73842667">
        <ele>2208.0</ele>
        <time>2019-10-12T17:05:20.935Z</time>
      </trkpt>
      <trkpt lat="20.23437833" lon="-98.73843167">
        <ele>2208.0</ele>
        <time>2019-10-12T17:05:21.941Z</time>
      </trkpt>
      <trkpt lat="20.23436833" lon="-98.73843667">
        <ele>2209.0</ele>
        <time>2019-10-12T17:05:22.948Z</time>
      </trkpt>
      <trkpt lat="20.23435667" lon="-98.73844167">
        <ele>2210.0</ele>
        <time>2019-10-12T17:05:23.954Z</time>
      </trkpt>
      <trkpt lat="20.234345" lon="-98.73844667">
        <ele>2210.0</ele>
        <time>2019-10-12T17:05:24.832Z</time>
      </trkpt>
      <trkpt lat="20.234335" lon="-98.73844833">
        <ele>2211.0</ele>
        <time>2019-10-12T17:05:25.838Z</time>
      </trkpt>
      <trkpt lat="20.234325" lon="-98.73844833">
        <ele>2210.0</ele>
        <time>2019-10-12T17:05:26.844Z</time>
      </trkpt>
      <trkpt lat="20.23431833" lon="-98.73845">
        <ele>2211.0</ele>
        <time>2019-10-12T17:05:27.850Z</time>
      </trkpt>
      <trkpt lat="20.234315" lon="-98.73845333">
        <ele>2211.0</ele>
        <time>2019-10-12T17:05:28.857Z</time>
      </trkpt>
      <trkpt lat="20.23431333" lon="-98.73845333">
        <ele>2212.0</ele>
        <time>2019-10-12T17:05:29.860Z</time>
      </trkpt>
      <trkpt lat="20.23430833" lon="-98.73845">
        <ele>2211.0</ele>
        <time>2019-10-12T17:05:30.868Z</time>
      </trkpt>
      <trkpt lat="20.23430667" lon="-98.738445">
        <ele>2211.0</ele>
        <time>2019-10-12T17:05:31.875Z</time>
      </trkpt>
      <trkpt lat="20.23430333" lon="-98.73844333">
        <ele>2212.0</ele>
        <time>2019-10-12T17:05:32.876Z</time>
      </trkpt>
      <trkpt lat="20.2343" lon="-98.738445">
        <ele>2212.0</ele>
        <time>2019-10-12T17:05:33.877Z</time>
      </trkpt>
      <trkpt lat="20.23429833" lon="-98.73844667">
        <ele>2212.0</ele>
        <time>2019-10-12T17:05:34.878Z</time>
      </trkpt>
      <trkpt lat="20.23429167" lon="-98.73844833">
        <ele>2212.0</ele>
        <time>2019-10-12T17:05:35.878Z</time>
      </trkpt>
      <trkpt lat="20.23428667" lon="-98.73845167">
        <ele>2212.0</ele>
        <time>2019-10-12T17:05:36.879Z</time>
      </trkpt>
      <trkpt lat="20.23428" lon="-98.73845333">
        <ele>2212.0</ele>
        <time>2019-10-12T17:05:37.880Z</time>
      </trkpt>
      <trkpt lat="20.23427333" lon="-98.73845333">
        <ele>2211.0</ele>
        <time>2019-10-12T17:05:38.880Z</time>
      </trkpt>
      <trkpt lat="20.23426667" lon="-98.73845833">
        <ele>2211.0</ele>
        <time>2019-10-12T17:05:39.881Z</time>
      </trkpt>
      <trkpt lat="20.23426" lon="-98.73846333">
        <ele>2211.0</ele>
        <time>2019-10-12T17:05:40.882Z</time>
      </trkpt>
      <trkpt lat="20.23425" lon="-98.738465">
        <ele>2211.0</ele>
        <time>2019-10-12T17:05:41.882Z</time>
      </trkpt>
      <trkpt lat="20.23424" lon="-98.738465">
        <ele>2211.0</ele>
        <time>2019-10-12T17:05:42.883Z</time>
      </trkpt>
      <trkpt lat="20.23423167" lon="-98.73846333">
        <ele>2211.0</ele>
        <time>2019-10-12T17:05:43.884Z</time>
      </trkpt>
      <trkpt lat="20.234225" lon="-98.73846">
        <ele>2211.0</ele>
        <time>2019-10-12T17:05:44.885Z</time>
      </trkpt>
      <trkpt lat="20.23421667" lon="-98.73845833">
        <ele>2211.0</ele>
        <time>2019-10-12T17:05:45.886Z</time>
      </trkpt>
      <trkpt lat="20.23421167" lon="-98.73845333">
        <ele>2211.0</ele>
        <time>2019-10-12T17:05:46.886Z</time>
      </trkpt>
      <trkpt lat="20.234205" lon="-98.73844833">
        <ele>2211.0</ele>
        <time>2019-10-12T17:05:47.887Z</time>
      </trkpt>
      <trkpt lat="20.2342" lon="-98.738445">
        <ele>2211.0</ele>
        <time>2019-10-12T17:05:48.888Z</time>
      </trkpt>
      <trkpt lat="20.23419167" lon="-98.73844333">
        <ele>2211.0</ele>
        <time>2019-10-12T17:05:49.889Z</time>
      </trkpt>
      <trkpt lat="20.23418333" lon="-98.73844">
        <ele>2211.0</ele>
        <time>2019-10-12T17:05:50.890Z</time>
      </trkpt>
      <trkpt lat="20.23417833" lon="-98.73843667">
        <ele>2211.0</ele>
        <time>2019-10-12T17:05:51.890Z</time>
      </trkpt>
      <trkpt lat="20.23417167" lon="-98.73843167">
        <ele>2211.0</ele>
        <time>2019-10-12T17:05:52.891Z</time>
      </trkpt>
      <trkpt lat="20.23416333" lon="-98.738425">
        <ele>2211.0</ele>
        <time>2019-10-12T17:05:53.892Z</time>
      </trkpt>
      <trkpt lat="20.23415667" lon="-98.73842">
        <ele>2212.0</ele>
        <time>2019-10-12T17:05:54.893Z</time>
      </trkpt>
      <trkpt lat="20.234145" lon="-98.73841333">
        <ele>2212.0</ele>
        <time>2019-10-12T17:05:55.894Z</time>
      </trkpt>
      <trkpt lat="20.23413833" lon="-98.73841">
        <ele>2212.0</ele>
        <time>2019-10-12T17:05:56.900Z</time>
      </trkpt>
      <trkpt lat="20.23413333" lon="-98.738405">
        <ele>2212.0</ele>
        <time>2019-10-12T17:05:57.905Z</time>
      </trkpt>
      <trkpt lat="20.234125" lon="-98.7384">
        <ele>2213.0</ele>
        <time>2019-10-12T17:05:58.910Z</time>
      </trkpt>
      <trkpt lat="20.234115" lon="-98.738395">
        <ele>2212.0</ele>
        <time>2019-10-12T17:05:59.917Z</time>
      </trkpt>
      <trkpt lat="20.23410833" lon="-98.73839167">
        <ele>2212.0</ele>
        <time>2019-10-12T17:06:00.920Z</time>
      </trkpt>
      <trkpt lat="20.23410167" lon="-98.738385">
        <ele>2212.0</ele>
        <time>2019-10-12T17:06:01.926Z</time>
      </trkpt>
      <trkpt lat="20.23409667" lon="-98.73837833">
        <ele>2212.0</ele>
        <time>2019-10-12T17:06:02.932Z</time>
      </trkpt>
      <trkpt lat="20.23409167" lon="-98.73837">
        <ele>2212.0</ele>
        <time>2019-10-12T17:06:03.938Z</time>
      </trkpt>
      <trkpt lat="20.234085" lon="-98.73836167">
        <ele>2212.0</ele>
        <time>2019-10-12T17:06:04.942Z</time>
      </trkpt>
      <trkpt lat="20.234075" lon="-98.73835667">
        <ele>2212.0</ele>
        <time>2019-10-12T17:06:05.944Z</time>
      </trkpt>
      <trkpt lat="20.23406667" lon="-98.73835">
        <ele>2211.0</ele>
        <time>2019-10-12T17:06:06.949Z</time>
      </trkpt>
      <trkpt lat="20.234055" lon="-98.738345">
        <ele>2212.0</ele>
        <time>2019-10-12T17:06:07.830Z</time>
      </trkpt>
      <trkpt lat="20.234045" lon="-98.73834167">
        <ele>2212.0</ele>
        <time>2019-10-12T17:06:08.835Z</time>
      </trkpt>
      <trkpt lat="20.23403667" lon="-98.73833833">
        <ele>2212.0</ele>
        <time>2019-10-12T17:06:09.840Z</time>
      </trkpt>
      <trkpt lat="20.23402833" lon="-98.738335">
        <ele>2211.0</ele>
        <time>2019-10-12T17:06:10.843Z</time>
      </trkpt>
      <trkpt lat="20.23401833" lon="-98.73833167">
        <ele>2211.0</ele>
        <time>2019-10-12T17:06:11.844Z</time>
      </trkpt>
      <trkpt lat="20.23401667" lon="-98.73833">
        <ele>2212.0</ele>
        <time>2019-10-12T17:06:12.844Z</time>
      </trkpt>
      <trkpt lat="20.23401333" lon="-98.73832833">
        <ele>2212.0</ele>
        <time>2019-10-12T17:06:13.845Z</time>
      </trkpt>
      <trkpt lat="20.23400667" lon="-98.73832667">
        <ele>2213.0</ele>
        <time>2019-10-12T17:06:14.846Z</time>
      </trkpt>
      <trkpt lat="20.23400167" lon="-98.738325">
        <ele>2213.0</ele>
        <time>2019-10-12T17:06:15.847Z</time>
      </trkpt>
      <trkpt lat="20.23399667" lon="-98.738325">
        <ele>2212.0</ele>
        <time>2019-10-12T17:06:16.848Z</time>
      </trkpt>
      <trkpt lat="20.233995" lon="-98.73832333">
        <ele>2212.0</ele>
        <time>2019-10-12T17:06:17.848Z</time>
      </trkpt>
      <trkpt lat="20.23399333" lon="-98.73831833">
        <ele>2212.0</ele>
        <time>2019-10-12T17:06:18.849Z</time>
      </trkpt>
      <trkpt lat="20.23399167" lon="-98.73831333">
        <ele>2213.0</ele>
        <time>2019-10-12T17:06:19.850Z</time>
      </trkpt>
      <trkpt lat="20.23398833" lon="-98.73831">
        <ele>2213.0</ele>
        <time>2019-10-12T17:06:20.851Z</time>
      </trkpt>
      <trkpt lat="20.23398667" lon="-98.73830667">
        <ele>2214.0</ele>
        <time>2019-10-12T17:06:21.851Z</time>
      </trkpt>
      <trkpt lat="20.23398" lon="-98.73830333">
        <ele>2214.0</ele>
        <time>2019-10-12T17:06:22.852Z</time>
      </trkpt>
      <trkpt lat="20.23397167" lon="-98.73830167">
        <ele>2214.0</ele>
        <time>2019-10-12T17:06:23.852Z</time>
      </trkpt>
      <trkpt lat="20.23396667" lon="-98.7383">
        <ele>2214.0</ele>
        <time>2019-10-12T17:06:24.853Z</time>
      </trkpt>
      <trkpt lat="20.23396" lon="-98.73829667">
        <ele>2213.0</ele>
        <time>2019-10-12T17:06:25.860Z</time>
      </trkpt>
      <trkpt lat="20.23395167" lon="-98.73829333">
        <ele>2213.0</ele>
        <time>2019-10-12T17:06:26.866Z</time>
      </trkpt>
      <trkpt lat="20.233945" lon="-98.73829">
        <ele>2214.0</ele>
        <time>2019-10-12T17:06:27.869Z</time>
      </trkpt>
      <trkpt lat="20.23393667" lon="-98.73828667">
        <ele>2214.0</ele>
        <time>2019-10-12T17:06:28.875Z</time>
      </trkpt>
      <trkpt lat="20.23392833" lon="-98.73828333">
        <ele>2214.0</ele>
        <time>2019-10-12T17:06:29.876Z</time>
      </trkpt>
      <trkpt lat="20.23391833" lon="-98.73828167">
        <ele>2215.0</ele>
        <time>2019-10-12T17:06:30.877Z</time>
      </trkpt>
      <trkpt lat="20.23391" lon="-98.738275">
        <ele>2215.0</ele>
        <time>2019-10-12T17:06:31.879Z</time>
      </trkpt>
      <trkpt lat="20.23390333" lon="-98.73827333">
        <ele>2215.0</ele>
        <time>2019-10-12T17:06:32.884Z</time>
      </trkpt>
      <trkpt lat="20.23389333" lon="-98.73827">
        <ele>2216.0</ele>
        <time>2019-10-12T17:06:33.890Z</time>
      </trkpt>
      <trkpt lat="20.23388333" lon="-98.73826333">
        <ele>2217.0</ele>
        <time>2019-10-12T17:06:34.895Z</time>
      </trkpt>
      <trkpt lat="20.23387333" lon="-98.73825833">
        <ele>2217.0</ele>
        <time>2019-10-12T17:06:35.900Z</time>
      </trkpt>
      <trkpt lat="20.233865" lon="-98.73825333">
        <ele>2217.0</ele>
        <time>2019-10-12T17:06:36.903Z</time>
      </trkpt>
      <trkpt lat="20.23385833" lon="-98.738245">
        <ele>2217.0</ele>
        <time>2019-10-12T17:06:37.905Z</time>
      </trkpt>
      <trkpt lat="20.23385" lon="-98.73824">
        <ele>2218.0</ele>
        <time>2019-10-12T17:06:38.910Z</time>
      </trkpt>
      <trkpt lat="20.23383833" lon="-98.73823833">
        <ele>2218.0</ele>
        <time>2019-10-12T17:06:39.916Z</time>
      </trkpt>
      <trkpt lat="20.23383" lon="-98.73823333">
        <ele>2218.0</ele>
        <time>2019-10-12T17:06:40.921Z</time>
      </trkpt>
      <trkpt lat="20.23382" lon="-98.73823333">
        <ele>2219.0</ele>
        <time>2019-10-12T17:06:41.922Z</time>
      </trkpt>
      <trkpt lat="20.23381" lon="-98.73823167">
        <ele>2220.0</ele>
        <time>2019-10-12T17:06:42.922Z</time>
      </trkpt>
      <trkpt lat="20.23380167" lon="-98.73822667">
        <ele>2220.0</ele>
        <time>2019-10-12T17:06:43.923Z</time>
      </trkpt>
      <trkpt lat="20.23379167" lon="-98.738225">
        <ele>2221.0</ele>
        <time>2019-10-12T17:06:44.928Z</time>
      </trkpt>
      <trkpt lat="20.23378333" lon="-98.73822">
        <ele>2221.0</ele>
        <time>2019-10-12T17:06:45.933Z</time>
      </trkpt>
      <trkpt lat="20.23377333" lon="-98.73821167">
        <ele>2221.0</ele>
        <time>2019-10-12T17:06:46.938Z</time>
      </trkpt>
      <trkpt lat="20.233765" lon="-98.73820667">
        <ele>2221.0</ele>
        <time>2019-10-12T17:06:47.943Z</time>
      </trkpt>
      <trkpt lat="20.23375667" lon="-98.73820167">
        <ele>2222.0</ele>
        <time>2019-10-12T17:06:48.945Z</time>
      </trkpt>
      <trkpt lat="20.23375167" lon="-98.73819167">
        <ele>2222.0</ele>
        <time>2019-10-12T17:06:49.950Z</time>
      </trkpt>
      <trkpt lat="20.233745" lon="-98.73818667">
        <ele>2222.0</ele>
        <time>2019-10-12T17:06:50.830Z</time>
      </trkpt>
      <trkpt lat="20.23374" lon="-98.73818">
        <ele>2223.0</ele>
        <time>2019-10-12T17:06:51.837Z</time>
      </trkpt>
      <trkpt lat="20.23373167" lon="-98.738175">
        <ele>2223.0</ele>
        <time>2019-10-12T17:06:52.843Z</time>
      </trkpt>
      <trkpt lat="20.23372" lon="-98.73817167">
        <ele>2223.0</ele>
        <time>2019-10-12T17:06:53.848Z</time>
      </trkpt>
      <trkpt lat="20.23370833" lon="-98.73816667">
        <ele>2223.0</ele>
        <time>2019-10-12T17:06:54.855Z</time>
      </trkpt>
      <trkpt lat="20.2337" lon="-98.73816333">
        <ele>2223.0</ele>
        <time>2019-10-12T17:06:55.861Z</time>
      </trkpt>
      <trkpt lat="20.23369" lon="-98.73816">
        <ele>2223.0</ele>
        <time>2019-10-12T17:06:56.864Z</time>
      </trkpt>
      <trkpt lat="20.23368" lon="-98.73815833">
        <ele>2224.0</ele>
        <time>2019-10-12T17:06:57.864Z</time>
      </trkpt>
      <trkpt lat="20.23367333" lon="-98.738155">
        <ele>2224.0</ele>
        <time>2019-10-12T17:06:58.864Z</time>
      </trkpt>
      <trkpt lat="20.23366667" lon="-98.73815">
        <ele>2224.0</ele>
        <time>2019-10-12T17:06:59.865Z</time>
      </trkpt>
      <trkpt lat="20.23365667" lon="-98.73814333">
        <ele>2224.0</ele>
        <time>2019-10-12T17:07:00.865Z</time>
      </trkpt>
      <trkpt lat="20.23364167" lon="-98.738135">
        <ele>2224.0</ele>
        <time>2019-10-12T17:07:01.865Z</time>
      </trkpt>
      <trkpt lat="20.23363333" lon="-98.738135">
        <ele>2224.0</ele>
        <time>2019-10-12T17:07:02.866Z</time>
      </trkpt>
      <trkpt lat="20.233625" lon="-98.738135">
        <ele>2224.0</ele>
        <time>2019-10-12T17:07:03.866Z</time>
      </trkpt>
      <trkpt lat="20.23362" lon="-98.73813333">
        <ele>2224.0</ele>
        <time>2019-10-12T17:07:04.866Z</time>
      </trkpt>
      <trkpt lat="20.233615" lon="-98.73813">
        <ele>2224.0</ele>
        <time>2019-10-12T17:07:05.867Z</time>
      </trkpt>
      <trkpt lat="20.233605" lon="-98.738125">
        <ele>2224.0</ele>
        <time>2019-10-12T17:07:06.867Z</time>
      </trkpt>
      <trkpt lat="20.233595" lon="-98.73812333">
        <ele>2224.0</ele>
        <time>2019-10-12T17:07:07.867Z</time>
      </trkpt>
      <trkpt lat="20.23358167" lon="-98.73812167">
        <ele>2225.0</ele>
        <time>2019-10-12T17:07:08.868Z</time>
      </trkpt>
      <trkpt lat="20.23356667" lon="-98.73811333">
        <ele>2225.0</ele>
        <time>2019-10-12T17:07:09.868Z</time>
      </trkpt>
      <trkpt lat="20.23354833" lon="-98.73810167">
        <ele>2224.0</ele>
        <time>2019-10-12T17:07:10.868Z</time>
      </trkpt>
      <trkpt lat="20.23352833" lon="-98.73809167">
        <ele>2224.0</ele>
        <time>2019-10-12T17:07:11.869Z</time>
      </trkpt>
      <trkpt lat="20.23350833" lon="-98.73808333">
        <ele>2224.0</ele>
        <time>2019-10-12T17:07:12.869Z</time>
      </trkpt>
      <trkpt lat="20.23349167" lon="-98.73807833">
        <ele>2224.0</ele>
        <time>2019-10-12T17:07:13.869Z</time>
      </trkpt>
      <trkpt lat="20.233475" lon="-98.73807">
        <ele>2224.0</ele>
        <time>2019-10-12T17:07:14.870Z</time>
      </trkpt>
      <trkpt lat="20.23346333" lon="-98.738065">
        <ele>2224.0</ele>
        <time>2019-10-12T17:07:15.871Z</time>
      </trkpt>
      <trkpt lat="20.23345333" lon="-98.73806">
        <ele>2224.0</ele>
        <time>2019-10-12T17:07:16.876Z</time>
      </trkpt>
      <trkpt lat="20.23344167" lon="-98.73805167">
        <ele>2224.0</ele>
        <time>2019-10-12T17:07:17.882Z</time>
      </trkpt>
      <trkpt lat="20.23343" lon="-98.73804333">
        <ele>2224.0</ele>
        <time>2019-10-12T17:07:18.886Z</time>
      </trkpt>
      <trkpt lat="20.23341333" lon="-98.73804">
        <ele>2224.0</ele>
        <time>2019-10-12T17:07:19.891Z</time>
      </trkpt>
      <trkpt lat="20.2334" lon="-98.73803833">
        <ele>2224.0</ele>
        <time>2019-10-12T17:07:20.893Z</time>
      </trkpt>
      <trkpt lat="20.23338667" lon="-98.73804">
        <ele>2225.0</ele>
        <time>2019-10-12T17:07:21.899Z</time>
      </trkpt>
      <trkpt lat="20.23337167" lon="-98.73804">
        <ele>2225.0</ele>
        <time>2019-10-12T17:07:22.905Z</time>
      </trkpt>
      <trkpt lat="20.23336167" lon="-98.738045">
        <ele>2226.0</ele>
        <time>2019-10-12T17:07:23.910Z</time>
      </trkpt>
      <trkpt lat="20.23335833" lon="-98.73804833">
        <ele>2226.0</ele>
        <time>2019-10-12T17:07:24.917Z</time>
      </trkpt>
      <trkpt lat="20.233355" lon="-98.738045">
        <ele>2226.0</ele>
        <time>2019-10-12T17:07:25.923Z</time>
      </trkpt>
      <trkpt lat="20.23335" lon="-98.73804">
        <ele>2225.0</ele>
        <time>2019-10-12T17:07:26.928Z</time>
      </trkpt>
      <trkpt lat="20.23335167" lon="-98.73803833">
        <ele>2224.0</ele>
        <time>2019-10-12T17:07:27.934Z</time>
      </trkpt>
      <trkpt lat="20.23334667" lon="-98.73804167">
        <ele>2225.0</ele>
        <time>2019-10-12T17:07:28.937Z</time>
      </trkpt>
      <trkpt lat="20.23334167" lon="-98.73805167">
        <ele>2226.0</ele>
        <time>2019-10-12T17:07:29.943Z</time>
      </trkpt>
      <trkpt lat="20.23333667" lon="-98.738055">
        <ele>2227.0</ele>
        <time>2019-10-12T17:07:30.950Z</time>
      </trkpt>
      <trkpt lat="20.23333333" lon="-98.73805667">
        <ele>2227.0</ele>
        <time>2019-10-12T17:07:31.830Z</time>
      </trkpt>
      <trkpt lat="20.23333" lon="-98.73805667">
        <ele>2228.0</ele>
        <time>2019-10-12T17:07:32.835Z</time>
      </trkpt>
      <trkpt lat="20.23333667" lon="-98.73805333">
        <ele>2228.0</ele>
        <time>2019-10-12T17:07:33.838Z</time>
      </trkpt>
      <trkpt lat="20.23334" lon="-98.738055">
        <ele>2228.0</ele>
        <time>2019-10-12T17:07:34.845Z</time>
      </trkpt>
      <trkpt lat="20.233335" lon="-98.73806">
        <ele>2227.0</ele>
        <time>2019-10-12T17:07:35.850Z</time>
      </trkpt>
      <trkpt lat="20.233325" lon="-98.73807">
        <ele>2226.0</ele>
        <time>2019-10-12T17:07:36.859Z</time>
      </trkpt>
      <trkpt lat="20.23331333" lon="-98.73807833">
        <ele>2226.0</ele>
        <time>2019-10-12T17:07:37.867Z</time>
      </trkpt>
      <trkpt lat="20.23331" lon="-98.73808167">
        <ele>2226.0</ele>
        <time>2019-10-12T17:07:38.873Z</time>
      </trkpt>
      <trkpt lat="20.233305" lon="-98.73808">
        <ele>2226.0</ele>
        <time>2019-10-12T17:07:39.879Z</time>
      </trkpt>
      <trkpt lat="20.233305" lon="-98.73808">
        <ele>2226.0</ele>
        <time>2019-10-12T17:07:40.879Z</time>
      </trkpt>
      <trkpt lat="20.233305" lon="-98.73808">
        <ele>2226.0</ele>
        <time>2019-10-12T17:07:41.879Z</time>
      </trkpt>
      <trkpt lat="20.233305" lon="-98.73808">
        <ele>2226.0</ele>
        <time>2019-10-12T17:07:42.880Z</time>
      </trkpt>
      <trkpt lat="20.233305" lon="-98.73808">
        <ele>2226.0</ele>
        <time>2019-10-12T17:07:43.880Z</time>
      </trkpt>
      <trkpt lat="20.233305" lon="-98.73808">
        <ele>2226.0</ele>
        <time>2019-10-12T17:07:44.880Z</time>
      </trkpt>
      <trkpt lat="20.233305" lon="-98.73808">
        <ele>2226.0</ele>
        <time>2019-10-12T17:07:45.880Z</time>
      </trkpt>
      <trkpt lat="20.233305" lon="-98.73808">
        <ele>2226.0</ele>
        <time>2019-10-12T17:07:46.880Z</time>
      </trkpt>
      <trkpt lat="20.233305" lon="-98.73808">
        <ele>2226.0</ele>
        <time>2019-10-12T17:07:47.880Z</time>
      </trkpt>
      <trkpt lat="20.233305" lon="-98.73808">
        <ele>2226.0</ele>
        <time>2019-10-12T17:07:48.881Z</time>
      </trkpt>
      <trkpt lat="20.233305" lon="-98.73808">
        <ele>2226.0</ele>
        <time>2019-10-12T17:07:49.881Z</time>
      </trkpt>
      <trkpt lat="20.233305" lon="-98.73808">
        <ele>2227.0</ele>
        <time>2019-10-12T17:07:50.881Z</time>
      </trkpt>
      <trkpt lat="20.233305" lon="-98.73808">
        <ele>2227.0</ele>
        <time>2019-10-12T17:07:51.882Z</time>
      </trkpt>
      <trkpt lat="20.233305" lon="-98.73808">
        <ele>2227.0</ele>
        <time>2019-10-12T17:07:52.882Z</time>
      </trkpt>
      <trkpt lat="20.233305" lon="-98.73808">
        <ele>2227.0</ele>
        <time>2019-10-12T17:07:53.882Z</time>
      </trkpt>
      <trkpt lat="20.233305" lon="-98.73808">
        <ele>2227.0</ele>
        <time>2019-10-12T17:07:54.883Z</time>
      </trkpt>
      <trkpt lat="20.23330333" lon="-98.73808">
        <ele>2227.0</ele>
        <time>2019-10-12T17:07:55.883Z</time>
      </trkpt>
      <trkpt lat="20.23330167" lon="-98.73808">
        <ele>2227.0</ele>
        <time>2019-10-12T17:07:56.883Z</time>
      </trkpt>
      <trkpt lat="20.233295" lon="-98.73807833">
        <ele>2227.0</ele>
        <time>2019-10-12T17:07:57.883Z</time>
      </trkpt>
      <trkpt lat="20.23327167" lon="-98.73807667">
        <ele>2228.0</ele>
        <time>2019-10-12T17:07:58.884Z</time>
      </trkpt>
      <trkpt lat="20.23325" lon="-98.73807333">
        <ele>2228.0</ele>
        <time>2019-10-12T17:07:59.884Z</time>
      </trkpt>
      <trkpt lat="20.23323" lon="-98.73806667">
        <ele>2228.0</ele>
        <time>2019-10-12T17:08:00.885Z</time>
      </trkpt>
      <trkpt lat="20.23321167" lon="-98.73806167">
        <ele>2228.0</ele>
        <time>2019-10-12T17:08:01.885Z</time>
      </trkpt>
      <trkpt lat="20.23319333" lon="-98.73805833">
        <ele>2228.0</ele>
        <time>2019-10-12T17:08:02.885Z</time>
      </trkpt>
      <trkpt lat="20.23317167" lon="-98.73805333">
        <ele>2227.0</ele>
        <time>2019-10-12T17:08:03.886Z</time>
      </trkpt>
      <trkpt lat="20.23314667" lon="-98.73804833">
        <ele>2227.0</ele>
        <time>2019-10-12T17:08:04.886Z</time>
      </trkpt>
      <trkpt lat="20.233125" lon="-98.73804333">
        <ele>2226.0</ele>
        <time>2019-10-12T17:08:05.886Z</time>
      </trkpt>
      <trkpt lat="20.23310333" lon="-98.73803833">
        <ele>2226.0</ele>
        <time>2019-10-12T17:08:06.886Z</time>
      </trkpt>
      <trkpt lat="20.23308667" lon="-98.73803667">
        <ele>2226.0</ele>
        <time>2019-10-12T17:08:07.887Z</time>
      </trkpt>
      <trkpt lat="20.23306833" lon="-98.738035">
        <ele>2226.0</ele>
        <time>2019-10-12T17:08:08.887Z</time>
      </trkpt>
      <trkpt lat="20.23305167" lon="-98.73803333">
        <ele>2226.0</ele>
        <time>2019-10-12T17:08:09.888Z</time>
      </trkpt>
      <trkpt lat="20.23303333" lon="-98.738035">
        <ele>2226.0</ele>
        <time>2019-10-12T17:08:10.888Z</time>
      </trkpt>
      <trkpt lat="20.23301667" lon="-98.738035">
        <ele>2226.0</ele>
        <time>2019-10-12T17:08:11.888Z</time>
      </trkpt>
      <trkpt lat="20.23300333" lon="-98.738035">
        <ele>2225.0</ele>
        <time>2019-10-12T17:08:12.889Z</time>
      </trkpt>
      <trkpt lat="20.23299333" lon="-98.73804">
        <ele>2224.0</ele>
        <time>2019-10-12T17:08:13.889Z</time>
      </trkpt>
      <trkpt lat="20.23298167" lon="-98.73804667">
        <ele>2224.0</ele>
        <time>2019-10-12T17:08:14.889Z</time>
      </trkpt>
      <trkpt lat="20.23297167" lon="-98.738055">
        <ele>2224.0</ele>
        <time>2019-10-12T17:08:15.890Z</time>
      </trkpt>
      <trkpt lat="20.23296" lon="-98.73807167">
        <ele>2223.0</ele>
        <time>2019-10-12T17:08:16.890Z</time>
      </trkpt>
      <trkpt lat="20.23294833" lon="-98.738085">
        <ele>2223.0</ele>
        <time>2019-10-12T17:08:17.890Z</time>
      </trkpt>
      <trkpt lat="20.232935" lon="-98.73808667">
        <ele>2222.0</ele>
        <time>2019-10-12T17:08:18.894Z</time>
      </trkpt>
      <trkpt lat="20.23292333" lon="-98.73809">
        <ele>2221.0</ele>
        <time>2019-10-12T17:08:19.900Z</time>
      </trkpt>
      <trkpt lat="20.23290667" lon="-98.738095">
        <ele>2221.0</ele>
        <time>2019-10-12T17:08:20.901Z</time>
      </trkpt>
      <trkpt lat="20.23288667" lon="-98.73809833">
        <ele>2221.0</ele>
        <time>2019-10-12T17:08:21.908Z</time>
      </trkpt>
      <trkpt lat="20.23286833" lon="-98.73810167">
        <ele>2221.0</ele>
        <time>2019-10-12T17:08:22.913Z</time>
      </trkpt>
      <trkpt lat="20.23285" lon="-98.73810667">
        <ele>2221.0</ele>
        <time>2019-10-12T17:08:23.919Z</time>
      </trkpt>
      <trkpt lat="20.23283333" lon="-98.73811167">
        <ele>2221.0</ele>
        <time>2019-10-12T17:08:24.923Z</time>
      </trkpt>
      <trkpt lat="20.23281333" lon="-98.73811833">
        <ele>2221.0</ele>
        <time>2019-10-12T17:08:25.928Z</time>
      </trkpt>
      <trkpt lat="20.23279667" lon="-98.73812333">
        <ele>2222.0</ele>
        <time>2019-10-12T17:08:26.933Z</time>
      </trkpt>
      <trkpt lat="20.23278" lon="-98.73812833">
        <ele>2221.0</ele>
        <time>2019-10-12T17:08:27.938Z</time>
      </trkpt>
      <trkpt lat="20.23276333" lon="-98.73813333">
        <ele>2221.0</ele>
        <time>2019-10-12T17:08:28.944Z</time>
      </trkpt>
      <trkpt lat="20.232745" lon="-98.73813833">
        <ele>2221.0</ele>
        <time>2019-10-12T17:08:29.948Z</time>
      </trkpt>
      <trkpt lat="20.23272667" lon="-98.73813833">
        <ele>2220.0</ele>
        <time>2019-10-12T17:08:30.954Z</time>
      </trkpt>
      <trkpt lat="20.232705" lon="-98.73813833">
        <ele>2220.0</ele>
        <time>2019-10-12T17:08:31.833Z</time>
      </trkpt>
      <trkpt lat="20.23268167" lon="-98.738145">
        <ele>2221.0</ele>
        <time>2019-10-12T17:08:32.833Z</time>
      </trkpt>
      <trkpt lat="20.23266167" lon="-98.73815333">
        <ele>2221.0</ele>
        <time>2019-10-12T17:08:33.833Z</time>
      </trkpt>
      <trkpt lat="20.23263833" lon="-98.73816667">
        <ele>2221.0</ele>
        <time>2019-10-12T17:08:34.834Z</time>
      </trkpt>
      <trkpt lat="20.23261833" lon="-98.73818">
        <ele>2220.0</ele>
        <time>2019-10-12T17:08:35.834Z</time>
      </trkpt>
      <trkpt lat="20.23259833" lon="-98.738185">
        <ele>2220.0</ele>
        <time>2019-10-12T17:08:36.834Z</time>
      </trkpt>
      <trkpt lat="20.23257833" lon="-98.73819167">
        <ele>2220.0</ele>
        <time>2019-10-12T17:08:37.835Z</time>
      </trkpt>
      <trkpt lat="20.23255833" lon="-98.7382">
        <ele>2220.0</ele>
        <time>2019-10-12T17:08:38.835Z</time>
      </trkpt>
      <trkpt lat="20.23253333" lon="-98.73819833">
        <ele>2220.0</ele>
        <time>2019-10-12T17:08:39.836Z</time>
      </trkpt>
      <trkpt lat="20.23250833" lon="-98.73819333">
        <ele>2220.0</ele>
        <time>2019-10-12T17:08:40.836Z</time>
      </trkpt>
      <trkpt lat="20.232485" lon="-98.73819167">
        <ele>2220.0</ele>
        <time>2019-10-12T17:08:41.836Z</time>
      </trkpt>
      <trkpt lat="20.23246333" lon="-98.738185">
        <ele>2220.0</ele>
        <time>2019-10-12T17:08:42.836Z</time>
      </trkpt>
      <trkpt lat="20.23244333" lon="-98.73817167">
        <ele>2219.0</ele>
        <time>2019-10-12T17:08:43.837Z</time>
      </trkpt>
      <trkpt lat="20.23242" lon="-98.73816667">
        <ele>2220.0</ele>
        <time>2019-10-12T17:08:44.837Z</time>
      </trkpt>
      <trkpt lat="20.23239667" lon="-98.73815667">
        <ele>2220.0</ele>
        <time>2019-10-12T17:08:45.838Z</time>
      </trkpt>
      <trkpt lat="20.23237167" lon="-98.73814667">
        <ele>2220.0</ele>
        <time>2019-10-12T17:08:46.838Z</time>
      </trkpt>
      <trkpt lat="20.23235" lon="-98.73813667">
        <ele>2220.0</ele>
        <time>2019-10-12T17:08:47.838Z</time>
      </trkpt>
      <trkpt lat="20.23233333" lon="-98.73812667">
        <ele>2220.0</ele>
        <time>2019-10-12T17:08:48.838Z</time>
      </trkpt>
      <trkpt lat="20.23232167" lon="-98.73811833">
        <ele>2220.0</ele>
        <time>2019-10-12T17:08:49.845Z</time>
      </trkpt>
      <trkpt lat="20.23231333" lon="-98.73811167">
        <ele>2220.0</ele>
        <time>2019-10-12T17:08:50.849Z</time>
      </trkpt>
      <trkpt lat="20.232305" lon="-98.73810167">
        <ele>2220.0</ele>
        <time>2019-10-12T17:08:51.851Z</time>
      </trkpt>
      <trkpt lat="20.23229333" lon="-98.73809">
        <ele>2221.0</ele>
        <time>2019-10-12T17:08:52.855Z</time>
      </trkpt>
      <trkpt lat="20.23227833" lon="-98.73807833">
        <ele>2220.0</ele>
        <time>2019-10-12T17:08:53.861Z</time>
      </trkpt>
      <trkpt lat="20.23226667" lon="-98.73806167">
        <ele>2220.0</ele>
        <time>2019-10-12T17:08:54.861Z</time>
      </trkpt>
      <trkpt lat="20.23224833" lon="-98.73805333">
        <ele>2221.0</ele>
        <time>2019-10-12T17:08:55.861Z</time>
      </trkpt>
      <trkpt lat="20.23222667" lon="-98.73804">
        <ele>2221.0</ele>
        <time>2019-10-12T17:08:56.862Z</time>
      </trkpt>
      <trkpt lat="20.232205" lon="-98.73802167">
        <ele>2221.0</ele>
        <time>2019-10-12T17:08:57.867Z</time>
      </trkpt>
      <trkpt lat="20.23219" lon="-98.73800333">
        <ele>2220.0</ele>
        <time>2019-10-12T17:08:58.872Z</time>
      </trkpt>
      <trkpt lat="20.23218167" lon="-98.73798333">
        <ele>2220.0</ele>
        <time>2019-10-12T17:08:59.872Z</time>
      </trkpt>
      <trkpt lat="20.23217333" lon="-98.73796167">
        <ele>2219.0</ele>
        <time>2019-10-12T17:09:00.877Z</time>
      </trkpt>
      <trkpt lat="20.232165" lon="-98.73794333">
        <ele>2218.0</ele>
        <time>2019-10-12T17:09:01.883Z</time>
      </trkpt>
      <trkpt lat="20.23215" lon="-98.73793167">
        <ele>2217.0</ele>
        <time>2019-10-12T17:09:02.885Z</time>
      </trkpt>
      <trkpt lat="20.23212833" lon="-98.73792167">
        <ele>2218.0</ele>
        <time>2019-10-12T17:09:03.888Z</time>
      </trkpt>
      <trkpt lat="20.23211333" lon="-98.73791333">
        <ele>2218.0</ele>
        <time>2019-10-12T17:09:04.890Z</time>
      </trkpt>
      <trkpt lat="20.2321" lon="-98.73790833">
        <ele>2218.0</ele>
        <time>2019-10-12T17:09:05.891Z</time>
      </trkpt>
      <trkpt lat="20.23208667" lon="-98.73789667">
        <ele>2218.0</ele>
        <time>2019-10-12T17:09:06.895Z</time>
      </trkpt>
      <trkpt lat="20.23207167" lon="-98.73787667">
        <ele>2218.0</ele>
        <time>2019-10-12T17:09:07.901Z</time>
      </trkpt>
      <trkpt lat="20.232055" lon="-98.73786333">
        <ele>2218.0</ele>
        <time>2019-10-12T17:09:08.905Z</time>
      </trkpt>
      <trkpt lat="20.23204167" lon="-98.73785167">
        <ele>2218.0</ele>
        <time>2019-10-12T17:09:09.905Z</time>
      </trkpt>
      <trkpt lat="20.23202833" lon="-98.737845">
        <ele>2218.0</ele>
        <time>2019-10-12T17:09:10.906Z</time>
      </trkpt>
      <trkpt lat="20.232015" lon="-98.73783833">
        <ele>2218.0</ele>
        <time>2019-10-12T17:09:11.906Z</time>
      </trkpt>
      <trkpt lat="20.23200667" lon="-98.73783833">
        <ele>2218.0</ele>
        <time>2019-10-12T17:09:12.906Z</time>
      </trkpt>
      <trkpt lat="20.231995" lon="-98.73783333">
        <ele>2218.0</ele>
        <time>2019-10-12T17:09:13.907Z</time>
      </trkpt>
      <trkpt lat="20.23198167" lon="-98.73783167">
        <ele>2218.0</ele>
        <time>2019-10-12T17:09:14.907Z</time>
      </trkpt>
      <trkpt lat="20.23197167" lon="-98.73782167">
        <ele>2218.0</ele>
        <time>2019-10-12T17:09:15.907Z</time>
      </trkpt>
      <trkpt lat="20.23196333" lon="-98.73781167">
        <ele>2218.0</ele>
        <time>2019-10-12T17:09:16.907Z</time>
      </trkpt>
      <trkpt lat="20.23195167" lon="-98.73780333">
        <ele>2218.0</ele>
        <time>2019-10-12T17:09:17.907Z</time>
      </trkpt>
      <trkpt lat="20.23194" lon="-98.73779">
        <ele>2218.0</ele>
        <time>2019-10-12T17:09:18.908Z</time>
      </trkpt>
      <trkpt lat="20.231925" lon="-98.73777833">
        <ele>2218.0</ele>
        <time>2019-10-12T17:09:19.908Z</time>
      </trkpt>
      <trkpt lat="20.23191167" lon="-98.73776167">
        <ele>2217.0</ele>
        <time>2019-10-12T17:09:20.908Z</time>
      </trkpt>
      <trkpt lat="20.2319" lon="-98.73774333">
        <ele>2217.0</ele>
        <time>2019-10-12T17:09:21.908Z</time>
      </trkpt>
      <trkpt lat="20.23189167" lon="-98.737725">
        <ele>2216.0</ele>
        <time>2019-10-12T17:09:22.909Z</time>
      </trkpt>
      <trkpt lat="20.23187833" lon="-98.73770667">
        <ele>2215.0</ele>
        <time>2019-10-12T17:09:23.909Z</time>
      </trkpt>
      <trkpt lat="20.231865" lon="-98.73768667">
        <ele>2214.0</ele>
        <time>2019-10-12T17:09:24.909Z</time>
      </trkpt>
      <trkpt lat="20.23185333" lon="-98.73767167">
        <ele>2214.0</ele>
        <time>2019-10-12T17:09:25.909Z</time>
      </trkpt>
      <trkpt lat="20.23183667" lon="-98.73765667">
        <ele>2214.0</ele>
        <time>2019-10-12T17:09:26.909Z</time>
      </trkpt>
      <trkpt lat="20.23181833" lon="-98.73764333">
        <ele>2214.0</ele>
        <time>2019-10-12T17:09:27.913Z</time>
      </trkpt>
      <trkpt lat="20.231795" lon="-98.737625">
        <ele>2214.0</ele>
        <time>2019-10-12T17:09:28.918Z</time>
      </trkpt>
      <trkpt lat="20.23177667" lon="-98.73760833">
        <ele>2214.0</ele>
        <time>2019-10-12T17:09:29.922Z</time>
      </trkpt>
      <trkpt lat="20.23176" lon="-98.73759333">
        <ele>2215.0</ele>
        <time>2019-10-12T17:09:30.924Z</time>
      </trkpt>
      <trkpt lat="20.23174" lon="-98.73757833">
        <ele>2215.0</ele>
        <time>2019-10-12T17:09:31.928Z</time>
      </trkpt>
      <trkpt lat="20.23172167" lon="-98.737565">
        <ele>2215.0</ele>
        <time>2019-10-12T17:09:32.932Z</time>
      </trkpt>
      <trkpt lat="20.23171" lon="-98.73754667">
        <ele>2215.0</ele>
        <time>2019-10-12T17:09:33.935Z</time>
      </trkpt>
      <trkpt lat="20.23170167" lon="-98.737525">
        <ele>2215.0</ele>
        <time>2019-10-12T17:09:34.939Z</time>
      </trkpt>
      <trkpt lat="20.231685" lon="-98.73751">
        <ele>2216.0</ele>
        <time>2019-10-12T17:09:35.944Z</time>
      </trkpt>
      <trkpt lat="20.23166333" lon="-98.73749333">
        <ele>2217.0</ele>
        <time>2019-10-12T17:09:36.949Z</time>
      </trkpt>
      <trkpt lat="20.23165333" lon="-98.73746833">
        <ele>2215.0</ele>
        <time>2019-10-12T17:09:37.955Z</time>
      </trkpt>
      <trkpt lat="20.23164667" lon="-98.73745167">
        <ele>2214.0</ele>
        <time>2019-10-12T17:09:38.834Z</time>
      </trkpt>
      <trkpt lat="20.23163333" lon="-98.73743167">
        <ele>2213.0</ele>
        <time>2019-10-12T17:09:39.839Z</time>
      </trkpt>
      <trkpt lat="20.23162333" lon="-98.73741333">
        <ele>2213.0</ele>
        <time>2019-10-12T17:09:40.844Z</time>
      </trkpt>
      <trkpt lat="20.23161333" lon="-98.737395">
        <ele>2213.0</ele>
        <time>2019-10-12T17:09:41.849Z</time>
      </trkpt>
      <trkpt lat="20.2316" lon="-98.73738333">
        <ele>2214.0</ele>
        <time>2019-10-12T17:09:42.855Z</time>
      </trkpt>
      <trkpt lat="20.23158833" lon="-98.73737167">
        <ele>2215.0</ele>
        <time>2019-10-12T17:09:43.862Z</time>
      </trkpt>
      <trkpt lat="20.23158333" lon="-98.737355">
        <ele>2215.0</ele>
        <time>2019-10-12T17:09:44.866Z</time>
      </trkpt>
      <trkpt lat="20.231575" lon="-98.73733833">
        <ele>2215.0</ele>
        <time>2019-10-12T17:09:45.868Z</time>
      </trkpt>
      <trkpt lat="20.231565" lon="-98.73731667">
        <ele>2214.0</ele>
        <time>2019-10-12T17:09:46.872Z</time>
      </trkpt>
      <trkpt lat="20.23156" lon="-98.7373">
        <ele>2214.0</ele>
        <time>2019-10-12T17:09:47.877Z</time>
      </trkpt>
      <trkpt lat="20.23156" lon="-98.73728667">
        <ele>2213.0</ele>
        <time>2019-10-12T17:09:48.880Z</time>
      </trkpt>
      <trkpt lat="20.23155167" lon="-98.73727333">
        <ele>2214.0</ele>
        <time>2019-10-12T17:09:49.882Z</time>
      </trkpt>
      <trkpt lat="20.23154" lon="-98.73725833">
        <ele>2213.0</ele>
        <time>2019-10-12T17:09:50.887Z</time>
      </trkpt>
      <trkpt lat="20.231525" lon="-98.73724167">
        <ele>2213.0</ele>
        <time>2019-10-12T17:09:51.893Z</time>
      </trkpt>
      <trkpt lat="20.23150833" lon="-98.73722333">
        <ele>2212.0</ele>
        <time>2019-10-12T17:09:52.895Z</time>
      </trkpt>
      <trkpt lat="20.23148833" lon="-98.73720833">
        <ele>2212.0</ele>
        <time>2019-10-12T17:09:53.899Z</time>
      </trkpt>
      <trkpt lat="20.23147167" lon="-98.73718167">
        <ele>2211.0</ele>
        <time>2019-10-12T17:09:54.904Z</time>
      </trkpt>
      <trkpt lat="20.23145833" lon="-98.73716167">
        <ele>2210.0</ele>
        <time>2019-10-12T17:09:55.910Z</time>
      </trkpt>
      <trkpt lat="20.231435" lon="-98.73715">
        <ele>2210.0</ele>
        <time>2019-10-12T17:09:56.915Z</time>
      </trkpt>
      <trkpt lat="20.2314" lon="-98.73713167">
        <ele>2210.0</ele>
        <time>2019-10-12T17:09:57.916Z</time>
      </trkpt>
      <trkpt lat="20.23138" lon="-98.73711667">
        <ele>2210.0</ele>
        <time>2019-10-12T17:09:58.916Z</time>
      </trkpt>
      <trkpt lat="20.23135667" lon="-98.73710667">
        <ele>2209.0</ele>
        <time>2019-10-12T17:09:59.917Z</time>
      </trkpt>
      <trkpt lat="20.23134333" lon="-98.73709833">
        <ele>2209.0</ele>
        <time>2019-10-12T17:10:00.917Z</time>
      </trkpt>
      <trkpt lat="20.23132667" lon="-98.73709167">
        <ele>2210.0</ele>
        <time>2019-10-12T17:10:01.917Z</time>
      </trkpt>
      <trkpt lat="20.23130833" lon="-98.73708833">
        <ele>2210.0</ele>
        <time>2019-10-12T17:10:02.917Z</time>
      </trkpt>
      <trkpt lat="20.23129" lon="-98.73708">
        <ele>2211.0</ele>
        <time>2019-10-12T17:10:03.917Z</time>
      </trkpt>
      <trkpt lat="20.23127" lon="-98.73707667">
        <ele>2211.0</ele>
        <time>2019-10-12T17:10:04.921Z</time>
      </trkpt>
      <trkpt lat="20.23125833" lon="-98.73707833">
        <ele>2211.0</ele>
        <time>2019-10-12T17:10:05.925Z</time>
      </trkpt>
      <trkpt lat="20.23125167" lon="-98.737085">
        <ele>2212.0</ele>
        <time>2019-10-12T17:10:06.930Z</time>
      </trkpt>
      <trkpt lat="20.23124" lon="-98.737095">
        <ele>2212.0</ele>
        <time>2019-10-12T17:10:07.936Z</time>
      </trkpt>
      <trkpt lat="20.23123" lon="-98.73711">
        <ele>2212.0</ele>
        <time>2019-10-12T17:10:08.941Z</time>
      </trkpt>
      <trkpt lat="20.23122167" lon="-98.737115">
        <ele>2213.0</ele>
        <time>2019-10-12T17:10:09.946Z</time>
      </trkpt>
      <trkpt lat="20.23121167" lon="-98.73712667">
        <ele>2214.0</ele>
        <time>2019-10-12T17:10:10.949Z</time>
      </trkpt>
      <trkpt lat="20.23119833" lon="-98.73713333">
        <ele>2215.0</ele>
        <time>2019-10-12T17:10:11.954Z</time>
      </trkpt>
      <trkpt lat="20.23118167" lon="-98.73714167">
        <ele>2216.0</ele>
        <time>2019-10-12T17:10:12.834Z</time>
      </trkpt>
      <trkpt lat="20.23116833" lon="-98.73715167">
        <ele>2217.0</ele>
        <time>2019-10-12T17:10:13.838Z</time>
      </trkpt>
      <trkpt lat="20.231155" lon="-98.73716167">
        <ele>2217.0</ele>
        <time>2019-10-12T17:10:14.843Z</time>
      </trkpt>
      <trkpt lat="20.23114167" lon="-98.73716833">
        <ele>2218.0</ele>
        <time>2019-10-12T17:10:15.846Z</time>
      </trkpt>
      <trkpt lat="20.23112333" lon="-98.73717667">
        <ele>2218.0</ele>
        <time>2019-10-12T17:10:16.853Z</time>
      </trkpt>
      <trkpt lat="20.23110833" lon="-98.73718167">
        <ele>2219.0</ele>
        <time>2019-10-12T17:10:17.857Z</time>
      </trkpt>
      <trkpt lat="20.23109167" lon="-98.737185">
        <ele>2220.0</ele>
        <time>2019-10-12T17:10:18.860Z</time>
      </trkpt>
      <trkpt lat="20.23107667" lon="-98.73718833">
        <ele>2220.0</ele>
        <time>2019-10-12T17:10:19.867Z</time>
      </trkpt>
      <trkpt lat="20.23106" lon="-98.73718833">
        <ele>2221.0</ele>
        <time>2019-10-12T17:10:20.872Z</time>
      </trkpt>
      <trkpt lat="20.23104833" lon="-98.737185">
        <ele>2220.0</ele>
        <time>2019-10-12T17:10:21.874Z</time>
      </trkpt>
      <trkpt lat="20.23103333" lon="-98.737185">
        <ele>2220.0</ele>
        <time>2019-10-12T17:10:22.876Z</time>
      </trkpt>
      <trkpt lat="20.23101833" lon="-98.73718333">
        <ele>2219.0</ele>
        <time>2019-10-12T17:10:23.880Z</time>
      </trkpt>
      <trkpt lat="20.23100167" lon="-98.737185">
        <ele>2220.0</ele>
        <time>2019-10-12T17:10:24.881Z</time>
      </trkpt>
      <trkpt lat="20.23098167" lon="-98.73718833">
        <ele>2220.0</ele>
        <time>2019-10-12T17:10:25.889Z</time>
      </trkpt>
      <trkpt lat="20.230965" lon="-98.73719167">
        <ele>2220.0</ele>
        <time>2019-10-12T17:10:26.895Z</time>
      </trkpt>
      <trkpt lat="20.23095" lon="-98.73719167">
        <ele>2220.0</ele>
        <time>2019-10-12T17:10:27.902Z</time>
      </trkpt>
      <trkpt lat="20.230935" lon="-98.73719667">
        <ele>2220.0</ele>
        <time>2019-10-12T17:10:28.908Z</time>
      </trkpt>
      <trkpt lat="20.23092333" lon="-98.73719833">
        <ele>2220.0</ele>
        <time>2019-10-12T17:10:29.911Z</time>
      </trkpt>
      <trkpt lat="20.23090833" lon="-98.73720667">
        <ele>2221.0</ele>
        <time>2019-10-12T17:10:30.918Z</time>
      </trkpt>
      <trkpt lat="20.23089333" lon="-98.73721667">
        <ele>2222.0</ele>
        <time>2019-10-12T17:10:31.923Z</time>
      </trkpt>
      <trkpt lat="20.23088" lon="-98.73722667">
        <ele>2222.0</ele>
        <time>2019-10-12T17:10:32.923Z</time>
      </trkpt>
      <trkpt lat="20.230865" lon="-98.73723667">
        <ele>2222.0</ele>
        <time>2019-10-12T17:10:33.923Z</time>
      </trkpt>
      <trkpt lat="20.23085" lon="-98.73724333">
        <ele>2222.0</ele>
        <time>2019-10-12T17:10:34.923Z</time>
      </trkpt>
      <trkpt lat="20.23083333" lon="-98.73725">
        <ele>2223.0</ele>
        <time>2019-10-12T17:10:35.923Z</time>
      </trkpt>
      <trkpt lat="20.23081667" lon="-98.73725667">
        <ele>2223.0</ele>
        <time>2019-10-12T17:10:36.926Z</time>
      </trkpt>
      <trkpt lat="20.23079833" lon="-98.737265">
        <ele>2222.0</ele>
        <time>2019-10-12T17:10:37.931Z</time>
      </trkpt>
      <trkpt lat="20.23078" lon="-98.73727333">
        <ele>2223.0</ele>
        <time>2019-10-12T17:10:38.937Z</time>
      </trkpt>
      <trkpt lat="20.23075833" lon="-98.73728">
        <ele>2223.0</ele>
        <time>2019-10-12T17:10:39.941Z</time>
      </trkpt>
      <trkpt lat="20.23074" lon="-98.73728833">
        <ele>2224.0</ele>
        <time>2019-10-12T17:10:40.948Z</time>
      </trkpt>
      <trkpt lat="20.23072667" lon="-98.73729667">
        <ele>2224.0</ele>
        <time>2019-10-12T17:10:41.955Z</time>
      </trkpt>
      <trkpt lat="20.23071667" lon="-98.737305">
        <ele>2225.0</ele>
        <time>2019-10-12T17:10:42.830Z</time>
      </trkpt>
      <trkpt lat="20.23070167" lon="-98.73731">
        <ele>2225.0</ele>
        <time>2019-10-12T17:10:43.834Z</time>
      </trkpt>
      <trkpt lat="20.23069" lon="-98.73731667">
        <ele>2225.0</ele>
        <time>2019-10-12T17:10:44.835Z</time>
      </trkpt>
      <trkpt lat="20.230675" lon="-98.73732667">
        <ele>2225.0</ele>
        <time>2019-10-12T17:10:45.842Z</time>
      </trkpt>
      <trkpt lat="20.23065833" lon="-98.73732833">
        <ele>2224.0</ele>
        <time>2019-10-12T17:10:46.848Z</time>
      </trkpt>
      <trkpt lat="20.23064167" lon="-98.73733167">
        <ele>2224.0</ele>
        <time>2019-10-12T17:10:47.855Z</time>
      </trkpt>
      <trkpt lat="20.23062833" lon="-98.73734">
        <ele>2224.0</ele>
        <time>2019-10-12T17:10:48.859Z</time>
      </trkpt>
      <trkpt lat="20.23061333" lon="-98.73735">
        <ele>2224.0</ele>
        <time>2019-10-12T17:10:49.864Z</time>
      </trkpt>
      <trkpt lat="20.23059667" lon="-98.73736167">
        <ele>2224.0</ele>
        <time>2019-10-12T17:10:50.865Z</time>
      </trkpt>
      <trkpt lat="20.23058" lon="-98.73736667">
        <ele>2224.0</ele>
        <time>2019-10-12T17:10:51.866Z</time>
      </trkpt>
      <trkpt lat="20.23056167" lon="-98.73737">
        <ele>2225.0</ele>
        <time>2019-10-12T17:10:52.866Z</time>
      </trkpt>
      <trkpt lat="20.230545" lon="-98.73737">
        <ele>2225.0</ele>
        <time>2019-10-12T17:10:53.866Z</time>
      </trkpt>
      <trkpt lat="20.23052667" lon="-98.73737333">
        <ele>2226.0</ele>
        <time>2019-10-12T17:10:54.866Z</time>
      </trkpt>
      <trkpt lat="20.23051167" lon="-98.73737167">
        <ele>2226.0</ele>
        <time>2019-10-12T17:10:55.867Z</time>
      </trkpt>
      <trkpt lat="20.23049667" lon="-98.73736833">
        <ele>2226.0</ele>
        <time>2019-10-12T17:10:56.874Z</time>
      </trkpt>
      <trkpt lat="20.23048" lon="-98.73736167">
        <ele>2227.0</ele>
        <time>2019-10-12T17:10:57.881Z</time>
      </trkpt>
      <trkpt lat="20.23046667" lon="-98.73735833">
        <ele>2227.0</ele>
        <time>2019-10-12T17:10:58.887Z</time>
      </trkpt>
      <trkpt lat="20.23045833" lon="-98.73735833">
        <ele>2228.0</ele>
        <time>2019-10-12T17:10:59.888Z</time>
      </trkpt>
      <trkpt lat="20.23044667" lon="-98.73735667">
        <ele>2229.0</ele>
        <time>2019-10-12T17:11:00.890Z</time>
      </trkpt>
      <trkpt lat="20.230435" lon="-98.73735333">
        <ele>2229.0</ele>
        <time>2019-10-12T17:11:01.898Z</time>
      </trkpt>
      <trkpt lat="20.23042333" lon="-98.737345">
        <ele>2228.0</ele>
        <time>2019-10-12T17:11:02.903Z</time>
      </trkpt>
      <trkpt lat="20.23040667" lon="-98.73733833">
        <ele>2228.0</ele>
        <time>2019-10-12T17:11:03.907Z</time>
      </trkpt>
      <trkpt lat="20.23039" lon="-98.73733333">
        <ele>2228.0</ele>
        <time>2019-10-12T17:11:04.913Z</time>
      </trkpt>
      <trkpt lat="20.230375" lon="-98.73732833">
        <ele>2228.0</ele>
        <time>2019-10-12T17:11:05.916Z</time>
      </trkpt>
      <trkpt lat="20.23036333" lon="-98.73732333">
        <ele>2228.0</ele>
        <time>2019-10-12T17:11:06.922Z</time>
      </trkpt>
      <trkpt lat="20.23035333" lon="-98.73731833">
        <ele>2229.0</ele>
        <time>2019-10-12T17:11:07.924Z</time>
      </trkpt>
      <trkpt lat="20.23034833" lon="-98.737315">
        <ele>2230.0</ele>
        <time>2019-10-12T17:11:08.930Z</time>
      </trkpt>
      <trkpt lat="20.230345" lon="-98.73730667">
        <ele>2230.0</ele>
        <time>2019-10-12T17:11:09.931Z</time>
      </trkpt>
      <trkpt lat="20.23033667" lon="-98.7373">
        <ele>2230.0</ele>
        <time>2019-10-12T17:11:10.939Z</time>
      </trkpt>
      <trkpt lat="20.23032" lon="-98.73729167">
        <ele>2230.0</ele>
        <time>2019-10-12T17:11:11.943Z</time>
      </trkpt>
      <trkpt lat="20.2303" lon="-98.73728">
        <ele>2230.0</ele>
        <time>2019-10-12T17:11:12.946Z</time>
      </trkpt>
      <trkpt lat="20.23028" lon="-98.73727167">
        <ele>2229.0</ele>
        <time>2019-10-12T17:11:13.948Z</time>
      </trkpt>
      <trkpt lat="20.23026" lon="-98.73727">
        <ele>2229.0</ele>
        <time>2019-10-12T17:11:14.954Z</time>
      </trkpt>
      <trkpt lat="20.23024333" lon="-98.73727333">
        <ele>2229.0</ele>
        <time>2019-10-12T17:11:15.834Z</time>
      </trkpt>
      <trkpt lat="20.230225" lon="-98.73727667">
        <ele>2229.0</ele>
        <time>2019-10-12T17:11:16.836Z</time>
      </trkpt>
      <trkpt lat="20.23020833" lon="-98.73727333">
        <ele>2229.0</ele>
        <time>2019-10-12T17:11:17.840Z</time>
      </trkpt>
      <trkpt lat="20.23019667" lon="-98.73727">
        <ele>2228.0</ele>
        <time>2019-10-12T17:11:18.844Z</time>
      </trkpt>
      <trkpt lat="20.23018333" lon="-98.73727">
        <ele>2229.0</ele>
        <time>2019-10-12T17:11:19.849Z</time>
      </trkpt>
      <trkpt lat="20.23017" lon="-98.73727">
        <ele>2228.0</ele>
        <time>2019-10-12T17:11:20.852Z</time>
      </trkpt>
      <trkpt lat="20.23016167" lon="-98.73726667">
        <ele>2227.0</ele>
        <time>2019-10-12T17:11:21.857Z</time>
      </trkpt>
      <trkpt lat="20.23015167" lon="-98.73727">
        <ele>2227.0</ele>
        <time>2019-10-12T17:11:22.863Z</time>
      </trkpt>
      <trkpt lat="20.230145" lon="-98.73727333">
        <ele>2226.0</ele>
        <time>2019-10-12T17:11:23.870Z</time>
      </trkpt>
      <trkpt lat="20.23013667" lon="-98.737275">
        <ele>2226.0</ele>
        <time>2019-10-12T17:11:24.873Z</time>
      </trkpt>
      <trkpt lat="20.23012333" lon="-98.73727167">
        <ele>2225.0</ele>
        <time>2019-10-12T17:11:25.874Z</time>
      </trkpt>
      <trkpt lat="20.23010833" lon="-98.73727167">
        <ele>2225.0</ele>
        <time>2019-10-12T17:11:26.880Z</time>
      </trkpt>
      <trkpt lat="20.23008833" lon="-98.73727333">
        <ele>2225.0</ele>
        <time>2019-10-12T17:11:27.885Z</time>
      </trkpt>
      <trkpt lat="20.230075" lon="-98.73727167">
        <ele>2224.0</ele>
        <time>2019-10-12T17:11:28.891Z</time>
      </trkpt>
      <trkpt lat="20.23006167" lon="-98.73727167">
        <ele>2223.0</ele>
        <time>2019-10-12T17:11:29.893Z</time>
      </trkpt>
      <trkpt lat="20.23004833" lon="-98.73726667">
        <ele>2223.0</ele>
        <time>2019-10-12T17:11:30.895Z</time>
      </trkpt>
      <trkpt lat="20.230035" lon="-98.73726167">
        <ele>2223.0</ele>
        <time>2019-10-12T17:11:31.899Z</time>
      </trkpt>
      <trkpt lat="20.23001667" lon="-98.73725667">
        <ele>2223.0</ele>
        <time>2019-10-12T17:11:32.903Z</time>
      </trkpt>
      <trkpt lat="20.23000333" lon="-98.737255">
        <ele>2223.0</ele>
        <time>2019-10-12T17:11:33.908Z</time>
      </trkpt>
      <trkpt lat="20.22998333" lon="-98.737255">
        <ele>2223.0</ele>
        <time>2019-10-12T17:11:34.913Z</time>
      </trkpt>
      <trkpt lat="20.22996667" lon="-98.73725833">
        <ele>2223.0</ele>
        <time>2019-10-12T17:11:35.919Z</time>
      </trkpt>
      <trkpt lat="20.22994833" lon="-98.73727">
        <ele>2225.0</ele>
        <time>2019-10-12T17:11:36.922Z</time>
      </trkpt>
      <trkpt lat="20.22993167" lon="-98.73727167">
        <ele>2225.0</ele>
        <time>2019-10-12T17:11:37.929Z</time>
      </trkpt>
      <trkpt lat="20.22991667" lon="-98.737275">
        <ele>2225.0</ele>
        <time>2019-10-12T17:11:38.934Z</time>
      </trkpt>
      <trkpt lat="20.22990167" lon="-98.73727667">
        <ele>2225.0</ele>
        <time>2019-10-12T17:11:39.939Z</time>
      </trkpt>
      <trkpt lat="20.22988667" lon="-98.73727333">
        <ele>2225.0</ele>
        <time>2019-10-12T17:11:40.939Z</time>
      </trkpt>
      <trkpt lat="20.22987" lon="-98.737265">
        <ele>2225.0</ele>
        <time>2019-10-12T17:11:41.939Z</time>
      </trkpt>
      <trkpt lat="20.22985167" lon="-98.73725833">
        <ele>2224.0</ele>
        <time>2019-10-12T17:11:42.940Z</time>
      </trkpt>
      <trkpt lat="20.22983333" lon="-98.73725">
        <ele>2223.0</ele>
        <time>2019-10-12T17:11:43.940Z</time>
      </trkpt>
      <trkpt lat="20.229815" lon="-98.73724167">
        <ele>2223.0</ele>
        <time>2019-10-12T17:11:44.940Z</time>
      </trkpt>
      <trkpt lat="20.22979833" lon="-98.73723167">
        <ele>2223.0</ele>
        <time>2019-10-12T17:11:45.940Z</time>
      </trkpt>
      <trkpt lat="20.22978333" lon="-98.73722">
        <ele>2222.0</ele>
        <time>2019-10-12T17:11:46.940Z</time>
      </trkpt>
      <trkpt lat="20.22977167" lon="-98.73720833">
        <ele>2222.0</ele>
        <time>2019-10-12T17:11:47.940Z</time>
      </trkpt>
      <trkpt lat="20.22974833" lon="-98.7372">
        <ele>2222.0</ele>
        <time>2019-10-12T17:11:48.941Z</time>
      </trkpt>
      <trkpt lat="20.22972" lon="-98.73718667">
        <ele>2222.0</ele>
        <time>2019-10-12T17:11:49.941Z</time>
      </trkpt>
      <trkpt lat="20.22969833" lon="-98.73717333">
        <ele>2222.0</ele>
        <time>2019-10-12T17:11:50.941Z</time>
      </trkpt>
      <trkpt lat="20.22968167" lon="-98.737155">
        <ele>2221.0</ele>
        <time>2019-10-12T17:11:51.942Z</time>
      </trkpt>
      <trkpt lat="20.22967" lon="-98.73713667">
        <ele>2221.0</ele>
        <time>2019-10-12T17:11:52.942Z</time>
      </trkpt>
      <trkpt lat="20.22966167" lon="-98.73711667">
        <ele>2221.0</ele>
        <time>2019-10-12T17:11:53.942Z</time>
      </trkpt>
      <trkpt lat="20.22965167" lon="-98.73709833">
        <ele>2221.0</ele>
        <time>2019-10-12T17:11:54.942Z</time>
      </trkpt>
      <trkpt lat="20.22963667" lon="-98.73708167">
        <ele>2221.0</ele>
        <time>2019-10-12T17:11:55.942Z</time>
      </trkpt>
      <trkpt lat="20.22962333" lon="-98.737065">
        <ele>2221.0</ele>
        <time>2019-10-12T17:11:56.942Z</time>
      </trkpt>
      <trkpt lat="20.22961667" lon="-98.73704833">
        <ele>2221.0</ele>
        <time>2019-10-12T17:11:57.943Z</time>
      </trkpt>
      <trkpt lat="20.229605" lon="-98.73703333">
        <ele>2222.0</ele>
        <time>2019-10-12T17:11:58.943Z</time>
      </trkpt>
      <trkpt lat="20.22959833" lon="-98.73701">
        <ele>2221.0</ele>
        <time>2019-10-12T17:11:59.943Z</time>
      </trkpt>
      <trkpt lat="20.22959167" lon="-98.73698833">
        <ele>2222.0</ele>
        <time>2019-10-12T17:12:00.944Z</time>
      </trkpt>
      <trkpt lat="20.229585" lon="-98.736965">
        <ele>2222.0</ele>
        <time>2019-10-12T17:12:01.944Z</time>
      </trkpt>
      <trkpt lat="20.22957833" lon="-98.736945">
        <ele>2222.0</ele>
        <time>2019-10-12T17:12:02.949Z</time>
      </trkpt>
      <trkpt lat="20.22956833" lon="-98.73693167">
        <ele>2223.0</ele>
        <time>2019-10-12T17:12:03.830Z</time>
      </trkpt>
      <trkpt lat="20.22956167" lon="-98.73691833">
        <ele>2224.0</ele>
        <time>2019-10-12T17:12:04.837Z</time>
      </trkpt>
      <trkpt lat="20.22955833" lon="-98.73689833">
        <ele>2224.0</ele>
        <time>2019-10-12T17:12:05.839Z</time>
      </trkpt>
      <trkpt lat="20.22955667" lon="-98.73687667">
        <ele>2223.0</ele>
        <time>2019-10-12T17:12:06.841Z</time>
      </trkpt>
      <trkpt lat="20.22954833" lon="-98.736855">
        <ele>2222.0</ele>
        <time>2019-10-12T17:12:07.848Z</time>
      </trkpt>
      <trkpt lat="20.22954167" lon="-98.73683167">
        <ele>2221.0</ele>
        <time>2019-10-12T17:12:08.852Z</time>
      </trkpt>
      <trkpt lat="20.229535" lon="-98.73681167">
        <ele>2219.0</ele>
        <time>2019-10-12T17:12:09.859Z</time>
      </trkpt>
      <trkpt lat="20.22952833" lon="-98.73679">
        <ele>2218.0</ele>
        <time>2019-10-12T17:12:10.866Z</time>
      </trkpt>
      <trkpt lat="20.22952333" lon="-98.73677">
        <ele>2216.0</ele>
        <time>2019-10-12T17:12:11.872Z</time>
      </trkpt>
      <trkpt lat="20.22951167" lon="-98.73675333">
        <ele>2215.0</ele>
        <time>2019-10-12T17:12:12.878Z</time>
      </trkpt>
      <trkpt lat="20.22949833" lon="-98.736735">
        <ele>2215.0</ele>
        <time>2019-10-12T17:12:13.883Z</time>
      </trkpt>
      <trkpt lat="20.229485" lon="-98.736715">
        <ele>2214.0</ele>
        <time>2019-10-12T17:12:14.883Z</time>
      </trkpt>
      <trkpt lat="20.229475" lon="-98.73669833">
        <ele>2213.0</ele>
        <time>2019-10-12T17:12:15.888Z</time>
      </trkpt>
      <trkpt lat="20.22946333" lon="-98.73667833">
        <ele>2213.0</ele>
        <time>2019-10-12T17:12:16.896Z</time>
      </trkpt>
      <trkpt lat="20.22945" lon="-98.73666167">
        <ele>2212.0</ele>
        <time>2019-10-12T17:12:17.903Z</time>
      </trkpt>
      <trkpt lat="20.22943833" lon="-98.736645">
        <ele>2212.0</ele>
        <time>2019-10-12T17:12:18.906Z</time>
      </trkpt>
      <trkpt lat="20.22942667" lon="-98.73663">
        <ele>2212.0</ele>
        <time>2019-10-12T17:12:19.906Z</time>
      </trkpt>
      <trkpt lat="20.22941667" lon="-98.736615">
        <ele>2211.0</ele>
        <time>2019-10-12T17:12:20.910Z</time>
      </trkpt>
      <trkpt lat="20.22939667" lon="-98.73659667">
        <ele>2211.0</ele>
        <time>2019-10-12T17:12:21.917Z</time>
      </trkpt>
      <trkpt lat="20.22937167" lon="-98.73658">
        <ele>2211.0</ele>
        <time>2019-10-12T17:12:22.920Z</time>
      </trkpt>
      <trkpt lat="20.22934667" lon="-98.73656167">
        <ele>2211.0</ele>
        <time>2019-10-12T17:12:23.926Z</time>
      </trkpt>
      <trkpt lat="20.229325" lon="-98.73654667">
        <ele>2211.0</ele>
        <time>2019-10-12T17:12:24.931Z</time>
      </trkpt>
      <trkpt lat="20.22930833" lon="-98.73652833">
        <ele>2211.0</ele>
        <time>2019-10-12T17:12:25.937Z</time>
      </trkpt>
      <trkpt lat="20.22929333" lon="-98.73650833">
        <ele>2211.0</ele>
        <time>2019-10-12T17:12:26.942Z</time>
      </trkpt>
      <trkpt lat="20.22927833" lon="-98.73648333">
        <ele>2211.0</ele>
        <time>2019-10-12T17:12:27.949Z</time>
      </trkpt>
      <trkpt lat="20.22926833" lon="-98.73646167">
        <ele>2211.0</ele>
        <time>2019-10-12T17:12:28.954Z</time>
      </trkpt>
      <trkpt lat="20.22926667" lon="-98.73644">
        <ele>2212.0</ele>
        <time>2019-10-12T17:12:29.955Z</time>
      </trkpt>
      <trkpt lat="20.22926833" lon="-98.73641667">
        <ele>2213.0</ele>
        <time>2019-10-12T17:12:30.830Z</time>
      </trkpt>
      <trkpt lat="20.22927667" lon="-98.73639167">
        <ele>2213.0</ele>
        <time>2019-10-12T17:12:31.831Z</time>
      </trkpt>
      <trkpt lat="20.22928" lon="-98.736365">
        <ele>2212.0</ele>
        <time>2019-10-12T17:12:32.832Z</time>
      </trkpt>
      <trkpt lat="20.22927333" lon="-98.73634167">
        <ele>2212.0</ele>
        <time>2019-10-12T17:12:33.832Z</time>
      </trkpt>
      <trkpt lat="20.22926333" lon="-98.73632167">
        <ele>2212.0</ele>
        <time>2019-10-12T17:12:34.832Z</time>
      </trkpt>
      <trkpt lat="20.22924333" lon="-98.7363">
        <ele>2211.0</ele>
        <time>2019-10-12T17:12:35.834Z</time>
      </trkpt>
      <trkpt lat="20.22922167" lon="-98.73628">
        <ele>2211.0</ele>
        <time>2019-10-12T17:12:36.837Z</time>
      </trkpt>
      <trkpt lat="20.22921" lon="-98.73626333">
        <ele>2211.0</ele>
        <time>2019-10-12T17:12:37.838Z</time>
      </trkpt>
      <trkpt lat="20.229195" lon="-98.73623667">
        <ele>2209.0</ele>
        <time>2019-10-12T17:12:38.843Z</time>
      </trkpt>
      <trkpt lat="20.2292" lon="-98.73621833">
        <ele>2209.0</ele>
        <time>2019-10-12T17:12:39.845Z</time>
      </trkpt>
      <trkpt lat="20.22920833" lon="-98.73619167">
        <ele>2208.0</ele>
        <time>2019-10-12T17:12:40.851Z</time>
      </trkpt>
      <trkpt lat="20.22920833" lon="-98.73615667">
        <ele>2207.0</ele>
        <time>2019-10-12T17:12:41.858Z</time>
      </trkpt>
      <trkpt lat="20.22920667" lon="-98.73612333">
        <ele>2206.0</ele>
        <time>2019-10-12T17:12:42.859Z</time>
      </trkpt>
      <trkpt lat="20.2292" lon="-98.73609667">
        <ele>2205.0</ele>
        <time>2019-10-12T17:12:43.863Z</time>
      </trkpt>
      <trkpt lat="20.22919667" lon="-98.73607333">
        <ele>2205.0</ele>
        <time>2019-10-12T17:12:44.869Z</time>
      </trkpt>
      <trkpt lat="20.229195" lon="-98.73604833">
        <ele>2204.0</ele>
        <time>2019-10-12T17:12:45.874Z</time>
      </trkpt>
      <trkpt lat="20.22919833" lon="-98.73603167">
        <ele>2205.0</ele>
        <time>2019-10-12T17:12:46.880Z</time>
      </trkpt>
      <trkpt lat="20.22920667" lon="-98.736005">
        <ele>2205.0</ele>
        <time>2019-10-12T17:12:47.886Z</time>
      </trkpt>
      <trkpt lat="20.22921833" lon="-98.735975">
        <ele>2204.0</ele>
        <time>2019-10-12T17:12:48.891Z</time>
      </trkpt>
      <trkpt lat="20.22922167" lon="-98.73595333">
        <ele>2204.0</ele>
        <time>2019-10-12T17:12:49.893Z</time>
      </trkpt>
      <trkpt lat="20.22922" lon="-98.73594167">
        <ele>2205.0</ele>
        <time>2019-10-12T17:12:50.900Z</time>
      </trkpt>
      <trkpt lat="20.22921167" lon="-98.73592833">
        <ele>2205.0</ele>
        <time>2019-10-12T17:12:51.906Z</time>
      </trkpt>
      <trkpt lat="20.22920833" lon="-98.73591333">
        <ele>2203.0</ele>
        <time>2019-10-12T17:12:52.906Z</time>
      </trkpt>
      <trkpt lat="20.22920167" lon="-98.73590333">
        <ele>2202.0</ele>
        <time>2019-10-12T17:12:53.906Z</time>
      </trkpt>
      <trkpt lat="20.22919167" lon="-98.73589667">
        <ele>2202.0</ele>
        <time>2019-10-12T17:12:54.907Z</time>
      </trkpt>
      <trkpt lat="20.22917333" lon="-98.73589167">
        <ele>2202.0</ele>
        <time>2019-10-12T17:12:55.907Z</time>
      </trkpt>
      <trkpt lat="20.229165" lon="-98.735885">
        <ele>2202.0</ele>
        <time>2019-10-12T17:12:56.908Z</time>
      </trkpt>
      <trkpt lat="20.22915" lon="-98.73588333">
        <ele>2203.0</ele>
        <time>2019-10-12T17:12:57.910Z</time>
      </trkpt>
      <trkpt lat="20.22913333" lon="-98.735875">
        <ele>2202.0</ele>
        <time>2019-10-12T17:12:58.915Z</time>
      </trkpt>
      <trkpt lat="20.22911333" lon="-98.73586833">
        <ele>2202.0</ele>
        <time>2019-10-12T17:12:59.918Z</time>
      </trkpt>
      <trkpt lat="20.229095" lon="-98.73586">
        <ele>2201.0</ele>
        <time>2019-10-12T17:13:00.923Z</time>
      </trkpt>
      <trkpt lat="20.22908167" lon="-98.73584667">
        <ele>2200.0</ele>
        <time>2019-10-12T17:13:01.929Z</time>
      </trkpt>
      <trkpt lat="20.22907167" lon="-98.73583">
        <ele>2199.0</ele>
        <time>2019-10-12T17:13:02.932Z</time>
      </trkpt>
      <trkpt lat="20.22905333" lon="-98.73581167">
        <ele>2198.0</ele>
        <time>2019-10-12T17:13:03.938Z</time>
      </trkpt>
      <trkpt lat="20.22903" lon="-98.73579333">
        <ele>2198.0</ele>
        <time>2019-10-12T17:13:04.940Z</time>
      </trkpt>
      <trkpt lat="20.22901167" lon="-98.73577333">
        <ele>2198.0</ele>
        <time>2019-10-12T17:13:05.945Z</time>
      </trkpt>
      <trkpt lat="20.22898833" lon="-98.735755">
        <ele>2198.0</ele>
        <time>2019-10-12T17:13:06.950Z</time>
      </trkpt>
      <trkpt lat="20.22897833" lon="-98.73573167">
        <ele>2198.0</ele>
        <time>2019-10-12T17:13:07.951Z</time>
      </trkpt>
      <trkpt lat="20.228965" lon="-98.73570667">
        <ele>2197.0</ele>
        <time>2019-10-12T17:13:08.831Z</time>
      </trkpt>
      <trkpt lat="20.22894333" lon="-98.73567833">
        <ele>2196.0</ele>
        <time>2019-10-12T17:13:09.832Z</time>
      </trkpt>
      <trkpt lat="20.228935" lon="-98.73565667">
        <ele>2196.0</ele>
        <time>2019-10-12T17:13:10.838Z</time>
      </trkpt>
      <trkpt lat="20.228935" lon="-98.73564167">
        <ele>2196.0</ele>
        <time>2019-10-12T17:13:11.844Z</time>
      </trkpt>
      <trkpt lat="20.228925" lon="-98.73562333">
        <ele>2196.0</ele>
        <time>2019-10-12T17:13:12.850Z</time>
      </trkpt>
      <trkpt lat="20.22891333" lon="-98.73560833">
        <ele>2195.0</ele>
        <time>2019-10-12T17:13:13.851Z</time>
      </trkpt>
      <trkpt lat="20.22889667" lon="-98.73559667">
        <ele>2195.0</ele>
        <time>2019-10-12T17:13:14.852Z</time>
      </trkpt>
      <trkpt lat="20.228875" lon="-98.73558667">
        <ele>2195.0</ele>
        <time>2019-10-12T17:13:15.853Z</time>
      </trkpt>
      <trkpt lat="20.22885167" lon="-98.735575">
        <ele>2195.0</ele>
        <time>2019-10-12T17:13:16.854Z</time>
      </trkpt>
      <trkpt lat="20.228835" lon="-98.73555833">
        <ele>2195.0</ele>
        <time>2019-10-12T17:13:17.856Z</time>
      </trkpt>
      <trkpt lat="20.22882833" lon="-98.73553">
        <ele>2194.0</ele>
        <time>2019-10-12T17:13:18.863Z</time>
      </trkpt>
      <trkpt lat="20.22880667" lon="-98.7355">
        <ele>2193.0</ele>
        <time>2019-10-12T17:13:19.864Z</time>
      </trkpt>
      <trkpt lat="20.22878667" lon="-98.73546833">
        <ele>2193.0</ele>
        <time>2019-10-12T17:13:20.872Z</time>
      </trkpt>
      <trkpt lat="20.22877" lon="-98.73544">
        <ele>2193.0</ele>
        <time>2019-10-12T17:13:21.878Z</time>
      </trkpt>
      <trkpt lat="20.22876" lon="-98.73541167">
        <ele>2193.0</ele>
        <time>2019-10-12T17:13:22.880Z</time>
      </trkpt>
      <trkpt lat="20.22874167" lon="-98.73539333">
        <ele>2193.0</ele>
        <time>2019-10-12T17:13:23.881Z</time>
      </trkpt>
      <trkpt lat="20.22872667" lon="-98.73538167">
        <ele>2192.0</ele>
        <time>2019-10-12T17:13:24.888Z</time>
      </trkpt>
      <trkpt lat="20.22871" lon="-98.73537333">
        <ele>2192.0</ele>
        <time>2019-10-12T17:13:25.895Z</time>
      </trkpt>
      <trkpt lat="20.22869167" lon="-98.73536833">
        <ele>2192.0</ele>
        <time>2019-10-12T17:13:26.900Z</time>
      </trkpt>
      <trkpt lat="20.22866833" lon="-98.735365">
        <ele>2193.0</ele>
        <time>2019-10-12T17:13:27.907Z</time>
      </trkpt>
      <trkpt lat="20.22864667" lon="-98.73535167">
        <ele>2192.0</ele>
        <time>2019-10-12T17:13:28.910Z</time>
      </trkpt>
      <trkpt lat="20.22862167" lon="-98.73533333">
        <ele>2192.0</ele>
        <time>2019-10-12T17:13:29.916Z</time>
      </trkpt>
      <trkpt lat="20.22859667" lon="-98.73531833">
        <ele>2192.0</ele>
        <time>2019-10-12T17:13:30.922Z</time>
      </trkpt>
      <trkpt lat="20.22857167" lon="-98.73530667">
        <ele>2191.0</ele>
        <time>2019-10-12T17:13:31.927Z</time>
      </trkpt>
      <trkpt lat="20.228565" lon="-98.73530333">
        <ele>2192.0</ele>
        <time>2019-10-12T17:13:32.929Z</time>
      </trkpt>
      <trkpt lat="20.22855167" lon="-98.73531">
        <ele>2192.0</ele>
        <time>2019-10-12T17:13:33.930Z</time>
      </trkpt>
      <trkpt lat="20.22853833" lon="-98.73532">
        <ele>2192.0</ele>
        <time>2019-10-12T17:13:34.930Z</time>
      </trkpt>
      <trkpt lat="20.228525" lon="-98.73533167">
        <ele>2192.0</ele>
        <time>2019-10-12T17:13:35.935Z</time>
      </trkpt>
      <trkpt lat="20.22851167" lon="-98.73534833">
        <ele>2192.0</ele>
        <time>2019-10-12T17:13:36.941Z</time>
      </trkpt>
      <trkpt lat="20.2285" lon="-98.73536833">
        <ele>2192.0</ele>
        <time>2019-10-12T17:13:37.944Z</time>
      </trkpt>
      <trkpt lat="20.22848833" lon="-98.73539167">
        <ele>2193.0</ele>
        <time>2019-10-12T17:13:38.949Z</time>
      </trkpt>
      <trkpt lat="20.22848" lon="-98.73541333">
        <ele>2193.0</ele>
        <time>2019-10-12T17:13:39.955Z</time>
      </trkpt>
      <trkpt lat="20.22847667" lon="-98.73543">
        <ele>2194.0</ele>
        <time>2019-10-12T17:13:40.832Z</time>
      </trkpt>
      <trkpt lat="20.22846833" lon="-98.73544833">
        <ele>2194.0</ele>
        <time>2019-10-12T17:13:41.833Z</time>
      </trkpt>
      <trkpt lat="20.22845667" lon="-98.73546333">
        <ele>2194.0</ele>
        <time>2019-10-12T17:13:42.834Z</time>
      </trkpt>
      <trkpt lat="20.228445" lon="-98.73548">
        <ele>2194.0</ele>
        <time>2019-10-12T17:13:43.834Z</time>
      </trkpt>
      <trkpt lat="20.22842833" lon="-98.7355">
        <ele>2195.0</ele>
        <time>2019-10-12T17:13:44.836Z</time>
      </trkpt>
      <trkpt lat="20.22841333" lon="-98.73552167">
        <ele>2195.0</ele>
        <time>2019-10-12T17:13:45.841Z</time>
      </trkpt>
      <trkpt lat="20.22839167" lon="-98.73554">
        <ele>2196.0</ele>
        <time>2019-10-12T17:13:46.846Z</time>
      </trkpt>
      <trkpt lat="20.22837" lon="-98.735555">
        <ele>2196.0</ele>
        <time>2019-10-12T17:13:47.847Z</time>
      </trkpt>
      <trkpt lat="20.22835333" lon="-98.73556833">
        <ele>2197.0</ele>
        <time>2019-10-12T17:13:48.848Z</time>
      </trkpt>
      <trkpt lat="20.22834167" lon="-98.73557667">
        <ele>2197.0</ele>
        <time>2019-10-12T17:13:49.850Z</time>
      </trkpt>
      <trkpt lat="20.22832333" lon="-98.73558667">
        <ele>2198.0</ele>
        <time>2019-10-12T17:13:50.855Z</time>
      </trkpt>
      <trkpt lat="20.22830667" lon="-98.73559833">
        <ele>2198.0</ele>
        <time>2019-10-12T17:13:51.862Z</time>
      </trkpt>
      <trkpt lat="20.22828833" lon="-98.73561667">
        <ele>2198.0</ele>
        <time>2019-10-12T17:13:52.867Z</time>
      </trkpt>
      <trkpt lat="20.22827667" lon="-98.73562833">
        <ele>2198.0</ele>
        <time>2019-10-12T17:13:53.869Z</time>
      </trkpt>
      <trkpt lat="20.22826167" lon="-98.73564667">
        <ele>2198.0</ele>
        <time>2019-10-12T17:13:54.871Z</time>
      </trkpt>
      <trkpt lat="20.22825" lon="-98.73566">
        <ele>2199.0</ele>
        <time>2019-10-12T17:13:55.877Z</time>
      </trkpt>
      <trkpt lat="20.22824167" lon="-98.735675">
        <ele>2200.0</ele>
        <time>2019-10-12T17:13:56.883Z</time>
      </trkpt>
      <trkpt lat="20.22823167" lon="-98.735695">
        <ele>2202.0</ele>
        <time>2019-10-12T17:13:57.885Z</time>
      </trkpt>
      <trkpt lat="20.228225" lon="-98.735715">
        <ele>2204.0</ele>
        <time>2019-10-12T17:13:58.886Z</time>
      </trkpt>
      <trkpt lat="20.22822333" lon="-98.73573">
        <ele>2205.0</ele>
        <time>2019-10-12T17:13:59.887Z</time>
      </trkpt>
      <trkpt lat="20.228215" lon="-98.735755">
        <ele>2206.0</ele>
        <time>2019-10-12T17:14:00.888Z</time>
      </trkpt>
      <trkpt lat="20.22820667" lon="-98.73578167">
        <ele>2208.0</ele>
        <time>2019-10-12T17:14:01.889Z</time>
      </trkpt>
      <trkpt lat="20.228195" lon="-98.73580667">
        <ele>2209.0</ele>
        <time>2019-10-12T17:14:02.889Z</time>
      </trkpt>
      <trkpt lat="20.22818333" lon="-98.735835">
        <ele>2210.0</ele>
        <time>2019-10-12T17:14:03.890Z</time>
      </trkpt>
      <trkpt lat="20.22817667" lon="-98.73586333">
        <ele>2209.0</ele>
        <time>2019-10-12T17:14:04.891Z</time>
      </trkpt>
      <trkpt lat="20.22817833" lon="-98.73589333">
        <ele>2209.0</ele>
        <time>2019-10-12T17:14:05.891Z</time>
      </trkpt>
      <trkpt lat="20.22817833" lon="-98.735925">
        <ele>2208.0</ele>
        <time>2019-10-12T17:14:06.892Z</time>
      </trkpt>
      <trkpt lat="20.228175" lon="-98.735955">
        <ele>2208.0</ele>
        <time>2019-10-12T17:14:07.893Z</time>
      </trkpt>
      <trkpt lat="20.22817667" lon="-98.735985">
        <ele>2207.0</ele>
        <time>2019-10-12T17:14:08.894Z</time>
      </trkpt>
      <trkpt lat="20.22817167" lon="-98.73602167">
        <ele>2208.0</ele>
        <time>2019-10-12T17:14:09.895Z</time>
      </trkpt>
      <trkpt lat="20.22817" lon="-98.73605333">
        <ele>2208.0</ele>
        <time>2019-10-12T17:14:10.895Z</time>
      </trkpt>
      <trkpt lat="20.22816667" lon="-98.73608">
        <ele>2209.0</ele>
        <time>2019-10-12T17:14:11.896Z</time>
      </trkpt>
      <trkpt lat="20.22815167" lon="-98.73610333">
        <ele>2210.0</ele>
        <time>2019-10-12T17:14:12.897Z</time>
      </trkpt>
      <trkpt lat="20.22814" lon="-98.73613">
        <ele>2211.0</ele>
        <time>2019-10-12T17:14:13.898Z</time>
      </trkpt>
      <trkpt lat="20.22813" lon="-98.736155">
        <ele>2211.0</ele>
        <time>2019-10-12T17:14:14.899Z</time>
      </trkpt>
      <trkpt lat="20.22812833" lon="-98.73618">
        <ele>2211.0</ele>
        <time>2019-10-12T17:14:15.899Z</time>
      </trkpt>
      <trkpt lat="20.22813" lon="-98.73620167">
        <ele>2211.0</ele>
        <time>2019-10-12T17:14:16.900Z</time>
      </trkpt>
      <trkpt lat="20.22813" lon="-98.73622">
        <ele>2209.0</ele>
        <time>2019-10-12T17:14:17.901Z</time>
      </trkpt>
      <trkpt lat="20.22812833" lon="-98.73624">
        <ele>2208.0</ele>
        <time>2019-10-12T17:14:18.902Z</time>
      </trkpt>
      <trkpt lat="20.22812167" lon="-98.73625667">
        <ele>2207.0</ele>
        <time>2019-10-12T17:14:19.903Z</time>
      </trkpt>
      <trkpt lat="20.22811333" lon="-98.73627333">
        <ele>2207.0</ele>
        <time>2019-10-12T17:14:20.904Z</time>
      </trkpt>
      <trkpt lat="20.22810667" lon="-98.73629">
        <ele>2207.0</ele>
        <time>2019-10-12T17:14:21.905Z</time>
      </trkpt>
      <trkpt lat="20.22809833" lon="-98.73631167">
        <ele>2206.0</ele>
        <time>2019-10-12T17:14:22.905Z</time>
      </trkpt>
      <trkpt lat="20.22809333" lon="-98.73633167">
        <ele>2206.0</ele>
        <time>2019-10-12T17:14:23.909Z</time>
      </trkpt>
      <trkpt lat="20.228095" lon="-98.73635667">
        <ele>2205.0</ele>
        <time>2019-10-12T17:14:24.915Z</time>
      </trkpt>
      <trkpt lat="20.22808833" lon="-98.73637833">
        <ele>2205.0</ele>
        <time>2019-10-12T17:14:25.915Z</time>
      </trkpt>
      <trkpt lat="20.22808333" lon="-98.73639833">
        <ele>2205.0</ele>
        <time>2019-10-12T17:14:26.921Z</time>
      </trkpt>
      <trkpt lat="20.22808167" lon="-98.73641833">
        <ele>2204.0</ele>
        <time>2019-10-12T17:14:27.926Z</time>
      </trkpt>
      <trkpt lat="20.22807833" lon="-98.736435">
        <ele>2203.0</ele>
        <time>2019-10-12T17:14:28.933Z</time>
      </trkpt>
      <trkpt lat="20.228075" lon="-98.73645333">
        <ele>2203.0</ele>
        <time>2019-10-12T17:14:29.939Z</time>
      </trkpt>
      <trkpt lat="20.228075" lon="-98.73647167">
        <ele>2202.0</ele>
        <time>2019-10-12T17:14:30.943Z</time>
      </trkpt>
      <trkpt lat="20.22808" lon="-98.736485">
        <ele>2202.0</ele>
        <time>2019-10-12T17:14:31.946Z</time>
      </trkpt>
      <trkpt lat="20.22808833" lon="-98.73649333">
        <ele>2201.0</ele>
        <time>2019-10-12T17:14:32.947Z</time>
      </trkpt>
      <trkpt lat="20.22808833" lon="-98.73650167">
        <ele>2201.0</ele>
        <time>2019-10-12T17:14:33.951Z</time>
      </trkpt>
      <trkpt lat="20.228085" lon="-98.73651">
        <ele>2201.0</ele>
        <time>2019-10-12T17:14:34.831Z</time>
      </trkpt>
      <trkpt lat="20.22808167" lon="-98.73651833">
        <ele>2200.0</ele>
        <time>2019-10-12T17:14:35.838Z</time>
      </trkpt>
      <trkpt lat="20.22807833" lon="-98.73652833">
        <ele>2199.0</ele>
        <time>2019-10-12T17:14:36.842Z</time>
      </trkpt>
      <trkpt lat="20.22807667" lon="-98.73654167">
        <ele>2199.0</ele>
        <time>2019-10-12T17:14:37.848Z</time>
      </trkpt>
      <trkpt lat="20.22807" lon="-98.736555">
        <ele>2198.0</ele>
        <time>2019-10-12T17:14:38.854Z</time>
      </trkpt>
      <trkpt lat="20.228055" lon="-98.73657333">
        <ele>2197.0</ele>
        <time>2019-10-12T17:14:39.856Z</time>
      </trkpt>
      <trkpt lat="20.22804167" lon="-98.73659167">
        <ele>2196.0</ele>
        <time>2019-10-12T17:14:40.857Z</time>
      </trkpt>
      <trkpt lat="20.22802667" lon="-98.73661">
        <ele>2194.0</ele>
        <time>2019-10-12T17:14:41.858Z</time>
      </trkpt>
      <trkpt lat="20.22800833" lon="-98.73663">
        <ele>2193.0</ele>
        <time>2019-10-12T17:14:42.859Z</time>
      </trkpt>
      <trkpt lat="20.22799167" lon="-98.73665333">
        <ele>2193.0</ele>
        <time>2019-10-12T17:14:43.859Z</time>
      </trkpt>
      <trkpt lat="20.227975" lon="-98.736675">
        <ele>2193.0</ele>
        <time>2019-10-12T17:14:44.864Z</time>
      </trkpt>
      <trkpt lat="20.227965" lon="-98.73669667">
        <ele>2193.0</ele>
        <time>2019-10-12T17:14:45.865Z</time>
      </trkpt>
      <trkpt lat="20.22796167" lon="-98.73671833">
        <ele>2192.0</ele>
        <time>2019-10-12T17:14:46.871Z</time>
      </trkpt>
      <trkpt lat="20.22796167" lon="-98.73673833">
        <ele>2192.0</ele>
        <time>2019-10-12T17:14:47.880Z</time>
      </trkpt>
      <trkpt lat="20.227965" lon="-98.73676">
        <ele>2192.0</ele>
        <time>2019-10-12T17:14:48.885Z</time>
      </trkpt>
      <trkpt lat="20.22796833" lon="-98.73678">
        <ele>2191.0</ele>
        <time>2019-10-12T17:14:49.891Z</time>
      </trkpt>
      <trkpt lat="20.22797167" lon="-98.7368">
        <ele>2191.0</ele>
        <time>2019-10-12T17:14:50.896Z</time>
      </trkpt>
      <trkpt lat="20.22796833" lon="-98.73682167">
        <ele>2190.0</ele>
        <time>2019-10-12T17:14:51.898Z</time>
      </trkpt>
      <trkpt lat="20.22796" lon="-98.73684167">
        <ele>2190.0</ele>
        <time>2019-10-12T17:14:52.899Z</time>
      </trkpt>
      <trkpt lat="20.22795333" lon="-98.73686333">
        <ele>2190.0</ele>
        <time>2019-10-12T17:14:53.905Z</time>
      </trkpt>
      <trkpt lat="20.22794667" lon="-98.736885">
        <ele>2190.0</ele>
        <time>2019-10-12T17:14:54.905Z</time>
      </trkpt>
      <trkpt lat="20.22793667" lon="-98.73691333">
        <ele>2191.0</ele>
        <time>2019-10-12T17:14:55.911Z</time>
      </trkpt>
      <trkpt lat="20.22792833" lon="-98.73694167">
        <ele>2191.0</ele>
        <time>2019-10-12T17:14:56.917Z</time>
      </trkpt>
      <trkpt lat="20.22791833" lon="-98.73696833">
        <ele>2191.0</ele>
        <time>2019-10-12T17:14:57.920Z</time>
      </trkpt>
      <trkpt lat="20.22790833" lon="-98.73699333">
        <ele>2191.0</ele>
        <time>2019-10-12T17:14:58.925Z</time>
      </trkpt>
      <trkpt lat="20.227895" lon="-98.73702167">
        <ele>2192.0</ele>
        <time>2019-10-12T17:14:59.931Z</time>
      </trkpt>
      <trkpt lat="20.22787667" lon="-98.73704333">
        <ele>2192.0</ele>
        <time>2019-10-12T17:15:00.934Z</time>
      </trkpt>
      <trkpt lat="20.22786333" lon="-98.73705833">
        <ele>2192.0</ele>
        <time>2019-10-12T17:15:01.935Z</time>
      </trkpt>
      <trkpt lat="20.22785667" lon="-98.73706833">
        <ele>2191.0</ele>
        <time>2019-10-12T17:15:02.936Z</time>
      </trkpt>
      <trkpt lat="20.22785" lon="-98.73707333">
        <ele>2190.0</ele>
        <time>2019-10-12T17:15:03.936Z</time>
      </trkpt>
      <trkpt lat="20.227835" lon="-98.73708333">
        <ele>2190.0</ele>
        <time>2019-10-12T17:15:04.941Z</time>
      </trkpt>
      <trkpt lat="20.22781667" lon="-98.737095">
        <ele>2190.0</ele>
        <time>2019-10-12T17:15:05.949Z</time>
      </trkpt>
      <trkpt lat="20.2278" lon="-98.73710833">
        <ele>2190.0</ele>
        <time>2019-10-12T17:15:06.950Z</time>
      </trkpt>
      <trkpt lat="20.22778" lon="-98.73712333">
        <ele>2191.0</ele>
        <time>2019-10-12T17:15:07.830Z</time>
      </trkpt>
      <trkpt lat="20.22776333" lon="-98.73714167">
        <ele>2191.0</ele>
        <time>2019-10-12T17:15:08.836Z</time>
      </trkpt>
      <trkpt lat="20.22774333" lon="-98.73716">
        <ele>2192.0</ele>
        <time>2019-10-12T17:15:09.841Z</time>
      </trkpt>
      <trkpt lat="20.227735" lon="-98.73718">
        <ele>2193.0</ele>
        <time>2019-10-12T17:15:10.846Z</time>
      </trkpt>
      <trkpt lat="20.22773667" lon="-98.73718833">
        <ele>2193.0</ele>
        <time>2019-10-12T17:15:11.847Z</time>
      </trkpt>
      <trkpt lat="20.227735" lon="-98.73719333">
        <ele>2193.0</ele>
        <time>2019-10-12T17:15:12.853Z</time>
      </trkpt>
      <trkpt lat="20.227725" lon="-98.73719833">
        <ele>2193.0</ele>
        <time>2019-10-12T17:15:13.857Z</time>
      </trkpt>
      <trkpt lat="20.22770667" lon="-98.737195">
        <ele>2193.0</ele>
        <time>2019-10-12T17:15:14.865Z</time>
      </trkpt>
      <trkpt lat="20.22768833" lon="-98.7372">
        <ele>2193.0</ele>
        <time>2019-10-12T17:15:15.867Z</time>
      </trkpt>
      <trkpt lat="20.22767833" lon="-98.73720333">
        <ele>2193.0</ele>
        <time>2019-10-12T17:15:16.872Z</time>
      </trkpt>
      <trkpt lat="20.22767" lon="-98.73720667">
        <ele>2194.0</ele>
        <time>2019-10-12T17:15:17.877Z</time>
      </trkpt>
      <trkpt lat="20.22765333" lon="-98.73720667">
        <ele>2194.0</ele>
        <time>2019-10-12T17:15:18.879Z</time>
      </trkpt>
      <trkpt lat="20.22763833" lon="-98.73720333">
        <ele>2194.0</ele>
        <time>2019-10-12T17:15:19.883Z</time>
      </trkpt>
      <trkpt lat="20.22762667" lon="-98.7372">
        <ele>2193.0</ele>
        <time>2019-10-12T17:15:20.886Z</time>
      </trkpt>
      <trkpt lat="20.22761" lon="-98.73720167">
        <ele>2193.0</ele>
        <time>2019-10-12T17:15:21.887Z</time>
      </trkpt>
      <trkpt lat="20.22759333" lon="-98.7372">
        <ele>2193.0</ele>
        <time>2019-10-12T17:15:22.888Z</time>
      </trkpt>
      <trkpt lat="20.22757833" lon="-98.73719667">
        <ele>2192.0</ele>
        <time>2019-10-12T17:15:23.889Z</time>
      </trkpt>
      <trkpt lat="20.22756167" lon="-98.73719">
        <ele>2192.0</ele>
        <time>2019-10-12T17:15:24.891Z</time>
      </trkpt>
      <trkpt lat="20.227545" lon="-98.73718333">
        <ele>2192.0</ele>
        <time>2019-10-12T17:15:25.897Z</time>
      </trkpt>
      <trkpt lat="20.22753333" lon="-98.73717167">
        <ele>2191.0</ele>
        <time>2019-10-12T17:15:26.901Z</time>
      </trkpt>
      <trkpt lat="20.22752" lon="-98.73715833">
        <ele>2191.0</ele>
        <time>2019-10-12T17:15:27.906Z</time>
      </trkpt>
      <trkpt lat="20.22750333" lon="-98.73714667">
        <ele>2191.0</ele>
        <time>2019-10-12T17:15:28.913Z</time>
      </trkpt>
      <trkpt lat="20.22748833" lon="-98.73713833">
        <ele>2191.0</ele>
        <time>2019-10-12T17:15:29.917Z</time>
      </trkpt>
      <trkpt lat="20.22747667" lon="-98.73712833">
        <ele>2191.0</ele>
        <time>2019-10-12T17:15:30.923Z</time>
      </trkpt>
      <trkpt lat="20.22746667" lon="-98.73712167">
        <ele>2191.0</ele>
        <time>2019-10-12T17:15:31.926Z</time>
      </trkpt>
      <trkpt lat="20.22745333" lon="-98.73711167">
        <ele>2191.0</ele>
        <time>2019-10-12T17:15:32.927Z</time>
      </trkpt>
      <trkpt lat="20.22743667" lon="-98.73709833">
        <ele>2190.0</ele>
        <time>2019-10-12T17:15:33.929Z</time>
      </trkpt>
      <trkpt lat="20.22742167" lon="-98.73708">
        <ele>2190.0</ele>
        <time>2019-10-12T17:15:34.934Z</time>
      </trkpt>
      <trkpt lat="20.22741" lon="-98.73705667">
        <ele>2189.0</ele>
        <time>2019-10-12T17:15:35.940Z</time>
      </trkpt>
      <trkpt lat="20.227395" lon="-98.73704">
        <ele>2188.0</ele>
        <time>2019-10-12T17:15:36.946Z</time>
      </trkpt>
      <trkpt lat="20.22737833" lon="-98.737025">
        <ele>2188.0</ele>
        <time>2019-10-12T17:15:37.951Z</time>
      </trkpt>
      <trkpt lat="20.227365" lon="-98.73700833">
        <ele>2188.0</ele>
        <time>2019-10-12T17:15:38.833Z</time>
      </trkpt>
      <trkpt lat="20.22735" lon="-98.736995">
        <ele>2187.0</ele>
        <time>2019-10-12T17:15:39.838Z</time>
      </trkpt>
      <trkpt lat="20.227335" lon="-98.73698">
        <ele>2187.0</ele>
        <time>2019-10-12T17:15:40.838Z</time>
      </trkpt>
      <trkpt lat="20.22731667" lon="-98.73696833">
        <ele>2187.0</ele>
        <time>2019-10-12T17:15:41.838Z</time>
      </trkpt>
      <trkpt lat="20.227295" lon="-98.73696167">
        <ele>2186.0</ele>
        <time>2019-10-12T17:15:42.839Z</time>
      </trkpt>
      <trkpt lat="20.22727833" lon="-98.73695167">
        <ele>2186.0</ele>
        <time>2019-10-12T17:15:43.841Z</time>
      </trkpt>
      <trkpt lat="20.22726833" lon="-98.73693833">
        <ele>2185.0</ele>
        <time>2019-10-12T17:15:44.843Z</time>
      </trkpt>
      <trkpt lat="20.227255" lon="-98.736925">
        <ele>2185.0</ele>
        <time>2019-10-12T17:15:45.845Z</time>
      </trkpt>
      <trkpt lat="20.22724333" lon="-98.73690667">
        <ele>2185.0</ele>
        <time>2019-10-12T17:15:46.849Z</time>
      </trkpt>
      <trkpt lat="20.22723167" lon="-98.73689167">
        <ele>2185.0</ele>
        <time>2019-10-12T17:15:47.851Z</time>
      </trkpt>
      <trkpt lat="20.227215" lon="-98.73688833">
        <ele>2185.0</ele>
        <time>2019-10-12T17:15:48.855Z</time>
      </trkpt>
      <trkpt lat="20.22719167" lon="-98.736885">
        <ele>2186.0</ele>
        <time>2019-10-12T17:15:49.858Z</time>
      </trkpt>
      <trkpt lat="20.22716667" lon="-98.73688">
        <ele>2186.0</ele>
        <time>2019-10-12T17:15:50.864Z</time>
      </trkpt>
      <trkpt lat="20.22714167" lon="-98.73686667">
        <ele>2186.0</ele>
        <time>2019-10-12T17:15:51.868Z</time>
      </trkpt>
      <trkpt lat="20.22712167" lon="-98.73685">
        <ele>2185.0</ele>
        <time>2019-10-12T17:15:52.870Z</time>
      </trkpt>
      <trkpt lat="20.22710167" lon="-98.73683">
        <ele>2184.0</ele>
        <time>2019-10-12T17:15:53.873Z</time>
      </trkpt>
      <trkpt lat="20.22708333" lon="-98.73681">
        <ele>2184.0</ele>
        <time>2019-10-12T17:15:54.875Z</time>
      </trkpt>
      <trkpt lat="20.22706333" lon="-98.73679833">
        <ele>2185.0</ele>
        <time>2019-10-12T17:15:55.880Z</time>
      </trkpt>
      <trkpt lat="20.22704333" lon="-98.73677833">
        <ele>2185.0</ele>
        <time>2019-10-12T17:15:56.887Z</time>
      </trkpt>
      <trkpt lat="20.22703" lon="-98.73675833">
        <ele>2185.0</ele>
        <time>2019-10-12T17:15:57.892Z</time>
      </trkpt>
      <trkpt lat="20.22701" lon="-98.73673667">
        <ele>2185.0</ele>
        <time>2019-10-12T17:15:58.898Z</time>
      </trkpt>
      <trkpt lat="20.22699667" lon="-98.73673">
        <ele>2185.0</ele>
        <time>2019-10-12T17:15:59.904Z</time>
      </trkpt>
      <trkpt lat="20.22698333" lon="-98.73671833">
        <ele>2185.0</ele>
        <time>2019-10-12T17:16:00.908Z</time>
      </trkpt>
      <trkpt lat="20.22696333" lon="-98.736705">
        <ele>2186.0</ele>
        <time>2019-10-12T17:16:01.908Z</time>
      </trkpt>
      <trkpt lat="20.22694667" lon="-98.736695">
        <ele>2186.0</ele>
        <time>2019-10-12T17:16:02.911Z</time>
      </trkpt>
      <trkpt lat="20.22693" lon="-98.736685">
        <ele>2186.0</ele>
        <time>2019-10-12T17:16:03.918Z</time>
      </trkpt>
      <trkpt lat="20.22692" lon="-98.73667333">
        <ele>2186.0</ele>
        <time>2019-10-12T17:16:04.923Z</time>
      </trkpt>
      <trkpt lat="20.22690833" lon="-98.73667">
        <ele>2187.0</ele>
        <time>2019-10-12T17:16:05.924Z</time>
      </trkpt>
      <trkpt lat="20.22690333" lon="-98.73666333">
        <ele>2188.0</ele>
        <time>2019-10-12T17:16:06.926Z</time>
      </trkpt>
      <trkpt lat="20.22689" lon="-98.73665667">
        <ele>2188.0</ele>
        <time>2019-10-12T17:16:07.930Z</time>
      </trkpt>
      <trkpt lat="20.22688167" lon="-98.73665">
        <ele>2188.0</ele>
        <time>2019-10-12T17:16:08.931Z</time>
      </trkpt>
      <trkpt lat="20.22687" lon="-98.73664833">
        <ele>2189.0</ele>
        <time>2019-10-12T17:16:09.931Z</time>
      </trkpt>
      <trkpt lat="20.22685833" lon="-98.73664833">
        <ele>2189.0</ele>
        <time>2019-10-12T17:16:10.934Z</time>
      </trkpt>
      <trkpt lat="20.22685" lon="-98.73664833">
        <ele>2189.0</ele>
        <time>2019-10-12T17:16:11.939Z</time>
      </trkpt>
      <trkpt lat="20.22684" lon="-98.73664333">
        <ele>2190.0</ele>
        <time>2019-10-12T17:16:12.940Z</time>
      </trkpt>
      <trkpt lat="20.22683167" lon="-98.73664333">
        <ele>2190.0</ele>
        <time>2019-10-12T17:16:13.944Z</time>
      </trkpt>
      <trkpt lat="20.22682167" lon="-98.73664167">
        <ele>2190.0</ele>
        <time>2019-10-12T17:16:14.950Z</time>
      </trkpt>
      <trkpt lat="20.22681167" lon="-98.73664167">
        <ele>2190.0</ele>
        <time>2019-10-12T17:16:15.832Z</time>
      </trkpt>
      <trkpt lat="20.226805" lon="-98.73663833">
        <ele>2190.0</ele>
        <time>2019-10-12T17:16:16.837Z</time>
      </trkpt>
      <trkpt lat="20.2268" lon="-98.73663667">
        <ele>2190.0</ele>
        <time>2019-10-12T17:16:17.840Z</time>
      </trkpt>
      <trkpt lat="20.22679333" lon="-98.73663833">
        <ele>2190.0</ele>
        <time>2019-10-12T17:16:18.846Z</time>
      </trkpt>
      <trkpt lat="20.22678167" lon="-98.73664">
        <ele>2190.0</ele>
        <time>2019-10-12T17:16:19.853Z</time>
      </trkpt>
      <trkpt lat="20.22677167" lon="-98.73664167">
        <ele>2191.0</ele>
        <time>2019-10-12T17:16:20.858Z</time>
      </trkpt>
      <trkpt lat="20.22676" lon="-98.73664333">
        <ele>2191.0</ele>
        <time>2019-10-12T17:16:21.861Z</time>
      </trkpt>
      <trkpt lat="20.22675167" lon="-98.73664333">
        <ele>2191.0</ele>
        <time>2019-10-12T17:16:22.863Z</time>
      </trkpt>
      <trkpt lat="20.22674667" lon="-98.73664167">
        <ele>2192.0</ele>
        <time>2019-10-12T17:16:23.867Z</time>
      </trkpt>
      <trkpt lat="20.22674667" lon="-98.73664">
        <ele>2192.0</ele>
        <time>2019-10-12T17:16:24.869Z</time>
      </trkpt>
      <trkpt lat="20.226745" lon="-98.73664">
        <ele>2192.0</ele>
        <time>2019-10-12T17:16:25.875Z</time>
      </trkpt>
      <trkpt lat="20.22674167" lon="-98.736645">
        <ele>2193.0</ele>
        <time>2019-10-12T17:16:26.875Z</time>
      </trkpt>
      <trkpt lat="20.226735" lon="-98.73664833">
        <ele>2194.0</ele>
        <time>2019-10-12T17:16:27.877Z</time>
      </trkpt>
      <trkpt lat="20.22673" lon="-98.73665167">
        <ele>2195.0</ele>
        <time>2019-10-12T17:16:28.880Z</time>
      </trkpt>
      <trkpt lat="20.226725" lon="-98.73665167">
        <ele>2195.0</ele>
        <time>2019-10-12T17:16:29.882Z</time>
      </trkpt>
      <trkpt lat="20.22672167" lon="-98.73665333">
        <ele>2196.0</ele>
        <time>2019-10-12T17:16:30.882Z</time>
      </trkpt>
      <trkpt lat="20.22672333" lon="-98.73665667">
        <ele>2197.0</ele>
        <time>2019-10-12T17:16:31.886Z</time>
      </trkpt>
      <trkpt lat="20.22672167" lon="-98.73666">
        <ele>2197.0</ele>
        <time>2019-10-12T17:16:32.892Z</time>
      </trkpt>
      <trkpt lat="20.22671667" lon="-98.736665">
        <ele>2198.0</ele>
        <time>2019-10-12T17:16:33.898Z</time>
      </trkpt>
      <trkpt lat="20.22671" lon="-98.73667167">
        <ele>2199.0</ele>
        <time>2019-10-12T17:16:34.899Z</time>
      </trkpt>
      <trkpt lat="20.226705" lon="-98.73667667">
        <ele>2200.0</ele>
        <time>2019-10-12T17:16:35.904Z</time>
      </trkpt>
      <trkpt lat="20.22670167" lon="-98.73667833">
        <ele>2201.0</ele>
        <time>2019-10-12T17:16:36.912Z</time>
      </trkpt>
      <trkpt lat="20.22669833" lon="-98.73668167">
        <ele>2201.0</ele>
        <time>2019-10-12T17:16:37.917Z</time>
      </trkpt>
      <trkpt lat="20.226695" lon="-98.73668667">
        <ele>2202.0</ele>
        <time>2019-10-12T17:16:38.922Z</time>
      </trkpt>
      <trkpt lat="20.22669" lon="-98.73669167">
        <ele>2203.0</ele>
        <time>2019-10-12T17:16:39.925Z</time>
      </trkpt>
      <trkpt lat="20.22668333" lon="-98.736695">
        <ele>2203.0</ele>
        <time>2019-10-12T17:16:40.930Z</time>
      </trkpt>
      <trkpt lat="20.22667667" lon="-98.73669667">
        <ele>2203.0</ele>
        <time>2019-10-12T17:16:41.930Z</time>
      </trkpt>
      <trkpt lat="20.22666833" lon="-98.73669833">
        <ele>2203.0</ele>
        <time>2019-10-12T17:16:42.931Z</time>
      </trkpt>
      <trkpt lat="20.22665833" lon="-98.73670167">
        <ele>2203.0</ele>
        <time>2019-10-12T17:16:43.932Z</time>
      </trkpt>
      <trkpt lat="20.22665" lon="-98.73670333">
        <ele>2203.0</ele>
        <time>2019-10-12T17:16:44.933Z</time>
      </trkpt>
      <trkpt lat="20.226645" lon="-98.7367">
        <ele>2203.0</ele>
        <time>2019-10-12T17:16:45.934Z</time>
      </trkpt>
      <trkpt lat="20.22664" lon="-98.73669833">
        <ele>2203.0</ele>
        <time>2019-10-12T17:16:46.935Z</time>
      </trkpt>
      <trkpt lat="20.226635" lon="-98.73669833">
        <ele>2203.0</ele>
        <time>2019-10-12T17:16:47.936Z</time>
      </trkpt>
      <trkpt lat="20.22662833" lon="-98.73669667">
        <ele>2203.0</ele>
        <time>2019-10-12T17:16:48.941Z</time>
      </trkpt>
      <trkpt lat="20.22661833" lon="-98.73669667">
        <ele>2203.0</ele>
        <time>2019-10-12T17:16:49.949Z</time>
      </trkpt>
      <trkpt lat="20.22660333" lon="-98.73669833">
        <ele>2203.0</ele>
        <time>2019-10-12T17:16:50.952Z</time>
      </trkpt>
      <trkpt lat="20.22659333" lon="-98.7367">
        <ele>2203.0</ele>
        <time>2019-10-12T17:16:51.831Z</time>
      </trkpt>
      <trkpt lat="20.226585" lon="-98.73669833">
        <ele>2203.0</ele>
        <time>2019-10-12T17:16:52.836Z</time>
      </trkpt>
      <trkpt lat="20.22657333" lon="-98.736695">
        <ele>2203.0</ele>
        <time>2019-10-12T17:16:53.842Z</time>
      </trkpt>
      <trkpt lat="20.22656667" lon="-98.736685">
        <ele>2203.0</ele>
        <time>2019-10-12T17:16:54.846Z</time>
      </trkpt>
      <trkpt lat="20.22656" lon="-98.73667667">
        <ele>2203.0</ele>
        <time>2019-10-12T17:16:55.847Z</time>
      </trkpt>
      <trkpt lat="20.22656" lon="-98.73666667">
        <ele>2203.0</ele>
        <time>2019-10-12T17:16:56.852Z</time>
      </trkpt>
      <trkpt lat="20.22655833" lon="-98.73665167">
        <ele>2203.0</ele>
        <time>2019-10-12T17:16:57.856Z</time>
      </trkpt>
      <trkpt lat="20.22655333" lon="-98.73663833">
        <ele>2202.0</ele>
        <time>2019-10-12T17:16:58.863Z</time>
      </trkpt>
      <trkpt lat="20.22655" lon="-98.73662167">
        <ele>2202.0</ele>
        <time>2019-10-12T17:16:59.869Z</time>
      </trkpt>
      <trkpt lat="20.22654833" lon="-98.73660667">
        <ele>2202.0</ele>
        <time>2019-10-12T17:17:00.877Z</time>
      </trkpt>
      <trkpt lat="20.226555" lon="-98.73659333">
        <ele>2201.0</ele>
        <time>2019-10-12T17:17:01.883Z</time>
      </trkpt>
      <trkpt lat="20.22656333" lon="-98.73657833">
        <ele>2201.0</ele>
        <time>2019-10-12T17:17:02.884Z</time>
      </trkpt>
      <trkpt lat="20.22657167" lon="-98.73656167">
        <ele>2201.0</ele>
        <time>2019-10-12T17:17:03.884Z</time>
      </trkpt>
      <trkpt lat="20.22658167" lon="-98.736545">
        <ele>2201.0</ele>
        <time>2019-10-12T17:17:04.885Z</time>
      </trkpt>
      <trkpt lat="20.22659" lon="-98.736525">
        <ele>2201.0</ele>
        <time>2019-10-12T17:17:05.886Z</time>
      </trkpt>
      <trkpt lat="20.22659667" lon="-98.73651">
        <ele>2200.0</ele>
        <time>2019-10-12T17:17:06.886Z</time>
      </trkpt>
      <trkpt lat="20.2266" lon="-98.73649333">
        <ele>2200.0</ele>
        <time>2019-10-12T17:17:07.886Z</time>
      </trkpt>
      <trkpt lat="20.22660167" lon="-98.736475">
        <ele>2200.0</ele>
        <time>2019-10-12T17:17:08.887Z</time>
      </trkpt>
      <trkpt lat="20.22660833" lon="-98.736465">
        <ele>2200.0</ele>
        <time>2019-10-12T17:17:09.888Z</time>
      </trkpt>
      <trkpt lat="20.22661" lon="-98.73645833">
        <ele>2200.0</ele>
        <time>2019-10-12T17:17:10.888Z</time>
      </trkpt>
      <trkpt lat="20.22660333" lon="-98.73645">
        <ele>2200.0</ele>
        <time>2019-10-12T17:17:11.889Z</time>
      </trkpt>
      <trkpt lat="20.22659833" lon="-98.73643167">
        <ele>2199.0</ele>
        <time>2019-10-12T17:17:12.890Z</time>
      </trkpt>
      <trkpt lat="20.226595" lon="-98.73641">
        <ele>2199.0</ele>
        <time>2019-10-12T17:17:13.895Z</time>
      </trkpt>
      <trkpt lat="20.22659333" lon="-98.73639167">
        <ele>2199.0</ele>
        <time>2019-10-12T17:17:14.902Z</time>
      </trkpt>
      <trkpt lat="20.22658833" lon="-98.73638167">
        <ele>2200.0</ele>
        <time>2019-10-12T17:17:15.908Z</time>
      </trkpt>
      <trkpt lat="20.22658167" lon="-98.73635833">
        <ele>2200.0</ele>
        <time>2019-10-12T17:17:16.911Z</time>
      </trkpt>
      <trkpt lat="20.22657833" lon="-98.73633667">
        <ele>2200.0</ele>
        <time>2019-10-12T17:17:17.912Z</time>
      </trkpt>
      <trkpt lat="20.22657167" lon="-98.73631333">
        <ele>2200.0</ele>
        <time>2019-10-12T17:17:18.916Z</time>
      </trkpt>
      <trkpt lat="20.22656667" lon="-98.73629">
        <ele>2199.0</ele>
        <time>2019-10-12T17:17:19.922Z</time>
      </trkpt>
      <trkpt lat="20.22655833" lon="-98.73626833">
        <ele>2199.0</ele>
        <time>2019-10-12T17:17:20.926Z</time>
      </trkpt>
      <trkpt lat="20.22655833" lon="-98.736245">
        <ele>2199.0</ele>
        <time>2019-10-12T17:17:21.931Z</time>
      </trkpt>
      <trkpt lat="20.22655" lon="-98.73622167">
        <ele>2199.0</ele>
        <time>2019-10-12T17:17:22.935Z</time>
      </trkpt>
      <trkpt lat="20.22654333" lon="-98.7362">
        <ele>2199.0</ele>
        <time>2019-10-12T17:17:23.940Z</time>
      </trkpt>
      <trkpt lat="20.226535" lon="-98.73617833">
        <ele>2198.0</ele>
        <time>2019-10-12T17:17:24.946Z</time>
      </trkpt>
      <trkpt lat="20.22652" lon="-98.73615833">
        <ele>2198.0</ele>
        <time>2019-10-12T17:17:25.952Z</time>
      </trkpt>
      <trkpt lat="20.22651" lon="-98.73613667">
        <ele>2199.0</ele>
        <time>2019-10-12T17:17:26.833Z</time>
      </trkpt>
      <trkpt lat="20.22650333" lon="-98.73611333">
        <ele>2199.0</ele>
        <time>2019-10-12T17:17:27.836Z</time>
      </trkpt>
      <trkpt lat="20.2265" lon="-98.7361">
        <ele>2200.0</ele>
        <time>2019-10-12T17:17:28.837Z</time>
      </trkpt>
      <trkpt lat="20.22651" lon="-98.73608167">
        <ele>2201.0</ele>
        <time>2019-10-12T17:17:29.837Z</time>
      </trkpt>
      <trkpt lat="20.22651333" lon="-98.73606333">
        <ele>2201.0</ele>
        <time>2019-10-12T17:17:30.838Z</time>
      </trkpt>
      <trkpt lat="20.22651667" lon="-98.736045">
        <ele>2202.0</ele>
        <time>2019-10-12T17:17:31.838Z</time>
      </trkpt>
      <trkpt lat="20.22652167" lon="-98.73602833">
        <ele>2202.0</ele>
        <time>2019-10-12T17:17:32.839Z</time>
      </trkpt>
      <trkpt lat="20.22651167" lon="-98.73601">
        <ele>2202.0</ele>
        <time>2019-10-12T17:17:33.842Z</time>
      </trkpt>
      <trkpt lat="20.22649833" lon="-98.735995">
        <ele>2203.0</ele>
        <time>2019-10-12T17:17:34.848Z</time>
      </trkpt>
      <trkpt lat="20.22648" lon="-98.73597833">
        <ele>2203.0</ele>
        <time>2019-10-12T17:17:35.850Z</time>
      </trkpt>
      <trkpt lat="20.22646167" lon="-98.735965">
        <ele>2203.0</ele>
        <time>2019-10-12T17:17:36.855Z</time>
      </trkpt>
      <trkpt lat="20.22644667" lon="-98.73595333">
        <ele>2203.0</ele>
        <time>2019-10-12T17:17:37.861Z</time>
      </trkpt>
      <trkpt lat="20.22643333" lon="-98.73594667">
        <ele>2203.0</ele>
        <time>2019-10-12T17:17:38.867Z</time>
      </trkpt>
      <trkpt lat="20.22642167" lon="-98.73594">
        <ele>2204.0</ele>
        <time>2019-10-12T17:17:39.872Z</time>
      </trkpt>
      <trkpt lat="20.226405" lon="-98.73593333">
        <ele>2205.0</ele>
        <time>2019-10-12T17:17:40.877Z</time>
      </trkpt>
      <trkpt lat="20.226385" lon="-98.73592333">
        <ele>2205.0</ele>
        <time>2019-10-12T17:17:41.880Z</time>
      </trkpt>
      <trkpt lat="20.22636667" lon="-98.73591">
        <ele>2205.0</ele>
        <time>2019-10-12T17:17:42.881Z</time>
      </trkpt>
      <trkpt lat="20.22635333" lon="-98.735895">
        <ele>2204.0</ele>
        <time>2019-10-12T17:17:43.886Z</time>
      </trkpt>
      <trkpt lat="20.22634167" lon="-98.73588">
        <ele>2204.0</ele>
        <time>2019-10-12T17:17:44.888Z</time>
      </trkpt>
      <trkpt lat="20.226325" lon="-98.73587167">
        <ele>2204.0</ele>
        <time>2019-10-12T17:17:45.895Z</time>
      </trkpt>
      <trkpt lat="20.22631" lon="-98.73586833">
        <ele>2205.0</ele>
        <time>2019-10-12T17:17:46.902Z</time>
      </trkpt>
      <trkpt lat="20.22629333" lon="-98.73586833">
        <ele>2206.0</ele>
        <time>2019-10-12T17:17:47.905Z</time>
      </trkpt>
      <trkpt lat="20.22627333" lon="-98.73587167">
        <ele>2207.0</ele>
        <time>2019-10-12T17:17:48.912Z</time>
      </trkpt>
      <trkpt lat="20.22624833" lon="-98.73587833">
        <ele>2207.0</ele>
        <time>2019-10-12T17:17:49.915Z</time>
      </trkpt>
      <trkpt lat="20.226225" lon="-98.73588167">
        <ele>2206.0</ele>
        <time>2019-10-12T17:17:50.916Z</time>
      </trkpt>
      <trkpt lat="20.22620833" lon="-98.73589">
        <ele>2206.0</ele>
        <time>2019-10-12T17:17:51.916Z</time>
      </trkpt>
      <trkpt lat="20.22619667" lon="-98.735895">
        <ele>2206.0</ele>
        <time>2019-10-12T17:17:52.917Z</time>
      </trkpt>
      <trkpt lat="20.22618167" lon="-98.73590333">
        <ele>2207.0</ele>
        <time>2019-10-12T17:17:53.919Z</time>
      </trkpt>
      <trkpt lat="20.22617667" lon="-98.735895">
        <ele>2207.0</ele>
        <time>2019-10-12T17:17:54.924Z</time>
      </trkpt>
      <trkpt lat="20.226165" lon="-98.73589">
        <ele>2207.0</ele>
        <time>2019-10-12T17:17:55.931Z</time>
      </trkpt>
      <trkpt lat="20.22615333" lon="-98.73588667">
        <ele>2207.0</ele>
        <time>2019-10-12T17:17:56.936Z</time>
      </trkpt>
      <trkpt lat="20.22613667" lon="-98.735885">
        <ele>2207.0</ele>
        <time>2019-10-12T17:17:57.943Z</time>
      </trkpt>
      <trkpt lat="20.22612167" lon="-98.73587833">
        <ele>2207.0</ele>
        <time>2019-10-12T17:17:58.950Z</time>
      </trkpt>
      <trkpt lat="20.22610167" lon="-98.73586833">
        <ele>2207.0</ele>
        <time>2019-10-12T17:17:59.831Z</time>
      </trkpt>
      <trkpt lat="20.22608" lon="-98.73586667">
        <ele>2208.0</ele>
        <time>2019-10-12T17:18:00.833Z</time>
      </trkpt>
      <trkpt lat="20.22606167" lon="-98.73586">
        <ele>2208.0</ele>
        <time>2019-10-12T17:18:01.838Z</time>
      </trkpt>
      <trkpt lat="20.22603833" lon="-98.735855">
        <ele>2209.0</ele>
        <time>2019-10-12T17:18:02.845Z</time>
      </trkpt>
      <trkpt lat="20.22601667" lon="-98.73584833">
        <ele>2210.0</ele>
        <time>2019-10-12T17:18:03.852Z</time>
      </trkpt>
      <trkpt lat="20.22599667" lon="-98.73584833">
        <ele>2210.0</ele>
        <time>2019-10-12T17:18:04.857Z</time>
      </trkpt>
      <trkpt lat="20.22598167" lon="-98.735845">
        <ele>2211.0</ele>
        <time>2019-10-12T17:18:05.860Z</time>
      </trkpt>
      <trkpt lat="20.22596667" lon="-98.73584167">
        <ele>2211.0</ele>
        <time>2019-10-12T17:18:06.863Z</time>
      </trkpt>
      <trkpt lat="20.22595" lon="-98.73583667">
        <ele>2211.0</ele>
        <time>2019-10-12T17:18:07.864Z</time>
      </trkpt>
      <trkpt lat="20.225935" lon="-98.73582667">
        <ele>2210.0</ele>
        <time>2019-10-12T17:18:08.864Z</time>
      </trkpt>
      <trkpt lat="20.225925" lon="-98.73582">
        <ele>2210.0</ele>
        <time>2019-10-12T17:18:09.865Z</time>
      </trkpt>
      <trkpt lat="20.22591667" lon="-98.73580833">
        <ele>2209.0</ele>
        <time>2019-10-12T17:18:10.866Z</time>
      </trkpt>
      <trkpt lat="20.22591" lon="-98.7358">
        <ele>2209.0</ele>
        <time>2019-10-12T17:18:11.867Z</time>
      </trkpt>
      <trkpt lat="20.22590333" lon="-98.73578333">
        <ele>2208.0</ele>
        <time>2019-10-12T17:18:12.870Z</time>
      </trkpt>
      <trkpt lat="20.22589667" lon="-98.73576667">
        <ele>2208.0</ele>
        <time>2019-10-12T17:18:13.873Z</time>
      </trkpt>
      <trkpt lat="20.22588667" lon="-98.73575167">
        <ele>2207.0</ele>
        <time>2019-10-12T17:18:14.874Z</time>
      </trkpt>
      <trkpt lat="20.22587167" lon="-98.73573833">
        <ele>2206.0</ele>
        <time>2019-10-12T17:18:15.880Z</time>
      </trkpt>
      <trkpt lat="20.225855" lon="-98.73573">
        <ele>2205.0</ele>
        <time>2019-10-12T17:18:16.885Z</time>
      </trkpt>
      <trkpt lat="20.22584" lon="-98.73572">
        <ele>2205.0</ele>
        <time>2019-10-12T17:18:17.892Z</time>
      </trkpt>
      <trkpt lat="20.22582" lon="-98.735715">
        <ele>2205.0</ele>
        <time>2019-10-12T17:18:18.897Z</time>
      </trkpt>
      <trkpt lat="20.22579833" lon="-98.735715">
        <ele>2205.0</ele>
        <time>2019-10-12T17:18:19.904Z</time>
      </trkpt>
      <trkpt lat="20.22577333" lon="-98.73571">
        <ele>2205.0</ele>
        <time>2019-10-12T17:18:20.905Z</time>
      </trkpt>
      <trkpt lat="20.22575167" lon="-98.73570833">
        <ele>2206.0</ele>
        <time>2019-10-12T17:18:21.906Z</time>
      </trkpt>
      <trkpt lat="20.22573667" lon="-98.7357">
        <ele>2206.0</ele>
        <time>2019-10-12T17:18:22.913Z</time>
      </trkpt>
      <trkpt lat="20.22572167" lon="-98.73569833">
        <ele>2207.0</ele>
        <time>2019-10-12T17:18:23.920Z</time>
      </trkpt>
      <trkpt lat="20.2257" lon="-98.73568833">
        <ele>2206.0</ele>
        <time>2019-10-12T17:18:24.925Z</time>
      </trkpt>
      <trkpt lat="20.22567833" lon="-98.73567333">
        <ele>2205.0</ele>
        <time>2019-10-12T17:18:25.931Z</time>
      </trkpt>
      <trkpt lat="20.22565667" lon="-98.73566167">
        <ele>2205.0</ele>
        <time>2019-10-12T17:18:26.937Z</time>
      </trkpt>
      <trkpt lat="20.225645" lon="-98.73564667">
        <ele>2205.0</ele>
        <time>2019-10-12T17:18:27.941Z</time>
      </trkpt>
      <trkpt lat="20.22563167" lon="-98.73563">
        <ele>2205.0</ele>
        <time>2019-10-12T17:18:28.941Z</time>
      </trkpt>
      <trkpt lat="20.22562833" lon="-98.73561">
        <ele>2206.0</ele>
        <time>2019-10-12T17:18:29.942Z</time>
      </trkpt>
      <trkpt lat="20.22562667" lon="-98.73559167">
        <ele>2206.0</ele>
        <time>2019-10-12T17:18:30.943Z</time>
      </trkpt>
      <trkpt lat="20.22561333" lon="-98.73558167">
        <ele>2207.0</ele>
        <time>2019-10-12T17:18:31.944Z</time>
      </trkpt>
      <trkpt lat="20.22559333" lon="-98.73557">
        <ele>2207.0</ele>
        <time>2019-10-12T17:18:32.945Z</time>
      </trkpt>
      <trkpt lat="20.22557" lon="-98.73556667">
        <ele>2208.0</ele>
        <time>2019-10-12T17:18:33.945Z</time>
      </trkpt>
      <trkpt lat="20.225555" lon="-98.73557167">
        <ele>2209.0</ele>
        <time>2019-10-12T17:18:34.946Z</time>
      </trkpt>
      <trkpt lat="20.22554167" lon="-98.735575">
        <ele>2210.0</ele>
        <time>2019-10-12T17:18:35.947Z</time>
      </trkpt>
      <trkpt lat="20.22553" lon="-98.73557833">
        <ele>2210.0</ele>
        <time>2019-10-12T17:18:36.947Z</time>
      </trkpt>
      <trkpt lat="20.22551167" lon="-98.73558833">
        <ele>2210.0</ele>
        <time>2019-10-12T17:18:37.948Z</time>
      </trkpt>
      <trkpt lat="20.22550167" lon="-98.73559333">
        <ele>2211.0</ele>
        <time>2019-10-12T17:18:38.948Z</time>
      </trkpt>
      <trkpt lat="20.22549167" lon="-98.73559">
        <ele>2211.0</ele>
        <time>2019-10-12T17:18:39.948Z</time>
      </trkpt>
      <trkpt lat="20.22547167" lon="-98.735585">
        <ele>2212.0</ele>
        <time>2019-10-12T17:18:40.950Z</time>
      </trkpt>
      <trkpt lat="20.22545167" lon="-98.73557667">
        <ele>2212.0</ele>
        <time>2019-10-12T17:18:41.831Z</time>
      </trkpt>
      <trkpt lat="20.225435" lon="-98.73555833">
        <ele>2212.0</ele>
        <time>2019-10-12T17:18:42.833Z</time>
      </trkpt>
      <trkpt lat="20.22541667" lon="-98.73554667">
        <ele>2212.0</ele>
        <time>2019-10-12T17:18:43.838Z</time>
      </trkpt>
      <trkpt lat="20.2254" lon="-98.73553167">
        <ele>2212.0</ele>
        <time>2019-10-12T17:18:44.844Z</time>
      </trkpt>
      <trkpt lat="20.225385" lon="-98.73551667">
        <ele>2212.0</ele>
        <time>2019-10-12T17:18:45.846Z</time>
      </trkpt>
      <trkpt lat="20.22536833" lon="-98.735505">
        <ele>2212.0</ele>
        <time>2019-10-12T17:18:46.848Z</time>
      </trkpt>
      <trkpt lat="20.22535333" lon="-98.73548667">
        <ele>2211.0</ele>
        <time>2019-10-12T17:18:47.853Z</time>
      </trkpt>
      <trkpt lat="20.22534667" lon="-98.73546667">
        <ele>2210.0</ele>
        <time>2019-10-12T17:18:48.856Z</time>
      </trkpt>
      <trkpt lat="20.225335" lon="-98.73545333">
        <ele>2211.0</ele>
        <time>2019-10-12T17:18:49.863Z</time>
      </trkpt>
      <trkpt lat="20.22531667" lon="-98.73544">
        <ele>2211.0</ele>
        <time>2019-10-12T17:18:50.870Z</time>
      </trkpt>
      <trkpt lat="20.22530167" lon="-98.73542333">
        <ele>2211.0</ele>
        <time>2019-10-12T17:18:51.877Z</time>
      </trkpt>
      <trkpt lat="20.22528667" lon="-98.73540833">
        <ele>2212.0</ele>
        <time>2019-10-12T17:18:52.880Z</time>
      </trkpt>
      <trkpt lat="20.22527333" lon="-98.73539167">
        <ele>2212.0</ele>
        <time>2019-10-12T17:18:53.885Z</time>
      </trkpt>
      <trkpt lat="20.22525833" lon="-98.73537167">
        <ele>2212.0</ele>
        <time>2019-10-12T17:18:54.889Z</time>
      </trkpt>
      <trkpt lat="20.225245" lon="-98.73535167">
        <ele>2212.0</ele>
        <time>2019-10-12T17:18:55.889Z</time>
      </trkpt>
      <trkpt lat="20.22523333" lon="-98.735325">
        <ele>2211.0</ele>
        <time>2019-10-12T17:18:56.890Z</time>
      </trkpt>
      <trkpt lat="20.225225" lon="-98.735295">
        <ele>2210.0</ele>
        <time>2019-10-12T17:18:57.890Z</time>
      </trkpt>
      <trkpt lat="20.22521333" lon="-98.73528167">
        <ele>2210.0</ele>
        <time>2019-10-12T17:18:58.890Z</time>
      </trkpt>
      <trkpt lat="20.22520167" lon="-98.73526">
        <ele>2211.0</ele>
        <time>2019-10-12T17:18:59.890Z</time>
      </trkpt>
      <trkpt lat="20.225205" lon="-98.73523833">
        <ele>2211.0</ele>
        <time>2019-10-12T17:19:00.891Z</time>
      </trkpt>
      <trkpt lat="20.22520333" lon="-98.73521667">
        <ele>2212.0</ele>
        <time>2019-10-12T17:19:01.891Z</time>
      </trkpt>
      <trkpt lat="20.22520333" lon="-98.73519667">
        <ele>2213.0</ele>
        <time>2019-10-12T17:19:02.892Z</time>
      </trkpt>
      <trkpt lat="20.22520333" lon="-98.73517667">
        <ele>2213.0</ele>
        <time>2019-10-12T17:19:03.893Z</time>
      </trkpt>
      <trkpt lat="20.22519" lon="-98.735155">
        <ele>2214.0</ele>
        <time>2019-10-12T17:19:04.893Z</time>
      </trkpt>
      <trkpt lat="20.22518667" lon="-98.735135">
        <ele>2214.0</ele>
        <time>2019-10-12T17:19:05.894Z</time>
      </trkpt>
      <trkpt lat="20.22518167" lon="-98.73511667">
        <ele>2213.0</ele>
        <time>2019-10-12T17:19:06.895Z</time>
      </trkpt>
      <trkpt lat="20.22517667" lon="-98.73509667">
        <ele>2212.0</ele>
        <time>2019-10-12T17:19:07.896Z</time>
      </trkpt>
      <trkpt lat="20.22517333" lon="-98.735075">
        <ele>2212.0</ele>
        <time>2019-10-12T17:19:08.897Z</time>
      </trkpt>
      <trkpt lat="20.22517667" lon="-98.73505167">
        <ele>2211.0</ele>
        <time>2019-10-12T17:19:09.897Z</time>
      </trkpt>
      <trkpt lat="20.22517667" lon="-98.73502833">
        <ele>2211.0</ele>
        <time>2019-10-12T17:19:10.898Z</time>
      </trkpt>
      <trkpt lat="20.22517" lon="-98.73501667">
        <ele>2211.0</ele>
        <time>2019-10-12T17:19:11.899Z</time>
      </trkpt>
      <trkpt lat="20.22515333" lon="-98.73501167">
        <ele>2211.0</ele>
        <time>2019-10-12T17:19:12.900Z</time>
      </trkpt>
      <trkpt lat="20.22513333" lon="-98.73501">
        <ele>2211.0</ele>
        <time>2019-10-12T17:19:13.901Z</time>
      </trkpt>
      <trkpt lat="20.22511167" lon="-98.73501667">
        <ele>2210.0</ele>
        <time>2019-10-12T17:19:14.909Z</time>
      </trkpt>
      <trkpt lat="20.22509667" lon="-98.73502667">
        <ele>2210.0</ele>
        <time>2019-10-12T17:19:15.915Z</time>
      </trkpt>
      <trkpt lat="20.22508833" lon="-98.73503833">
        <ele>2211.0</ele>
        <time>2019-10-12T17:19:16.921Z</time>
      </trkpt>
      <trkpt lat="20.22508333" lon="-98.73504833">
        <ele>2211.0</ele>
        <time>2019-10-12T17:19:17.925Z</time>
      </trkpt>
      <trkpt lat="20.225075" lon="-98.735055">
        <ele>2211.0</ele>
        <time>2019-10-12T17:19:18.930Z</time>
      </trkpt>
      <trkpt lat="20.22506333" lon="-98.73506">
        <ele>2211.0</ele>
        <time>2019-10-12T17:19:19.935Z</time>
      </trkpt>
      <trkpt lat="20.22505" lon="-98.735065">
        <ele>2212.0</ele>
        <time>2019-10-12T17:19:20.940Z</time>
      </trkpt>
      <trkpt lat="20.22503333" lon="-98.73507333">
        <ele>2212.0</ele>
        <time>2019-10-12T17:19:21.946Z</time>
      </trkpt>
      <trkpt lat="20.22501833" lon="-98.73508333">
        <ele>2212.0</ele>
        <time>2019-10-12T17:19:22.952Z</time>
      </trkpt>
      <trkpt lat="20.22500167" lon="-98.73509333">
        <ele>2211.0</ele>
        <time>2019-10-12T17:19:23.830Z</time>
      </trkpt>
      <trkpt lat="20.224985" lon="-98.7351">
        <ele>2211.0</ele>
        <time>2019-10-12T17:19:24.831Z</time>
      </trkpt>
      <trkpt lat="20.22497167" lon="-98.7351">
        <ele>2211.0</ele>
        <time>2019-10-12T17:19:25.833Z</time>
      </trkpt>
      <trkpt lat="20.22495667" lon="-98.7351">
        <ele>2211.0</ele>
        <time>2019-10-12T17:19:26.839Z</time>
      </trkpt>
      <trkpt lat="20.22494833" lon="-98.735095">
        <ele>2210.0</ele>
        <time>2019-10-12T17:19:27.844Z</time>
      </trkpt>
      <trkpt lat="20.22493333" lon="-98.73509">
        <ele>2211.0</ele>
        <time>2019-10-12T17:19:28.849Z</time>
      </trkpt>
      <trkpt lat="20.22491833" lon="-98.73508167">
        <ele>2211.0</ele>
        <time>2019-10-12T17:19:29.850Z</time>
      </trkpt>
      <trkpt lat="20.22490833" lon="-98.73507333">
        <ele>2211.0</ele>
        <time>2019-10-12T17:19:30.851Z</time>
      </trkpt>
      <trkpt lat="20.22489333" lon="-98.735065">
        <ele>2212.0</ele>
        <time>2019-10-12T17:19:31.852Z</time>
      </trkpt>
      <trkpt lat="20.224875" lon="-98.73506333">
        <ele>2212.0</ele>
        <time>2019-10-12T17:19:32.855Z</time>
      </trkpt>
      <trkpt lat="20.22485667" lon="-98.73505833">
        <ele>2212.0</ele>
        <time>2019-10-12T17:19:33.861Z</time>
      </trkpt>
      <trkpt lat="20.22484" lon="-98.73506">
        <ele>2213.0</ele>
        <time>2019-10-12T17:19:34.863Z</time>
      </trkpt>
      <trkpt lat="20.22482" lon="-98.73507">
        <ele>2214.0</ele>
        <time>2019-10-12T17:19:35.867Z</time>
      </trkpt>
      <trkpt lat="20.22481" lon="-98.73507167">
        <ele>2214.0</ele>
        <time>2019-10-12T17:19:36.874Z</time>
      </trkpt>
      <trkpt lat="20.22480667" lon="-98.73507167">
        <ele>2215.0</ele>
        <time>2019-10-12T17:19:37.878Z</time>
      </trkpt>
      <trkpt lat="20.224805" lon="-98.735075">
        <ele>2215.0</ele>
        <time>2019-10-12T17:19:38.881Z</time>
      </trkpt>
      <trkpt lat="20.22480667" lon="-98.73508">
        <ele>2216.0</ele>
        <time>2019-10-12T17:19:39.886Z</time>
      </trkpt>
      <trkpt lat="20.22480667" lon="-98.7351">
        <ele>2216.0</ele>
        <time>2019-10-12T17:19:40.893Z</time>
      </trkpt>
      <trkpt lat="20.22481667" lon="-98.73512333">
        <ele>2216.0</ele>
        <time>2019-10-12T17:19:41.899Z</time>
      </trkpt>
      <trkpt lat="20.22481833" lon="-98.73512833">
        <ele>2216.0</ele>
        <time>2019-10-12T17:19:42.905Z</time>
      </trkpt>
      <trkpt lat="20.224815" lon="-98.73513667">
        <ele>2215.0</ele>
        <time>2019-10-12T17:19:43.908Z</time>
      </trkpt>
      <trkpt lat="20.22481333" lon="-98.73514833">
        <ele>2215.0</ele>
        <time>2019-10-12T17:19:44.913Z</time>
      </trkpt>
      <trkpt lat="20.22481833" lon="-98.73516167">
        <ele>2214.0</ele>
        <time>2019-10-12T17:19:45.920Z</time>
      </trkpt>
      <trkpt lat="20.224825" lon="-98.73517333">
        <ele>2214.0</ele>
        <time>2019-10-12T17:19:46.923Z</time>
      </trkpt>
      <trkpt lat="20.22483167" lon="-98.73518667">
        <ele>2214.0</ele>
        <time>2019-10-12T17:19:47.926Z</time>
      </trkpt>
      <trkpt lat="20.22483667" lon="-98.73519833">
        <ele>2215.0</ele>
        <time>2019-10-12T17:19:48.927Z</time>
      </trkpt>
      <trkpt lat="20.22483833" lon="-98.73521">
        <ele>2214.0</ele>
        <time>2019-10-12T17:19:49.928Z</time>
      </trkpt>
      <trkpt lat="20.22483833" lon="-98.73522167">
        <ele>2214.0</ele>
        <time>2019-10-12T17:19:50.932Z</time>
      </trkpt>
      <trkpt lat="20.22483833" lon="-98.73523167">
        <ele>2213.0</ele>
        <time>2019-10-12T17:19:51.938Z</time>
      </trkpt>
      <trkpt lat="20.22483833" lon="-98.73524">
        <ele>2213.0</ele>
        <time>2019-10-12T17:19:52.940Z</time>
      </trkpt>
      <trkpt lat="20.224835" lon="-98.73524667">
        <ele>2213.0</ele>
        <time>2019-10-12T17:19:53.946Z</time>
      </trkpt>
      <trkpt lat="20.22483" lon="-98.735255">
        <ele>2213.0</ele>
        <time>2019-10-12T17:19:54.950Z</time>
      </trkpt>
      <trkpt lat="20.22482333" lon="-98.73525833">
        <ele>2213.0</ele>
        <time>2019-10-12T17:19:55.954Z</time>
      </trkpt>
      <trkpt lat="20.22482" lon="-98.73525667">
        <ele>2213.0</ele>
        <time>2019-10-12T17:19:56.830Z</time>
      </trkpt>
      <trkpt lat="20.22481333" lon="-98.735255">
        <ele>2213.0</ele>
        <time>2019-10-12T17:19:57.831Z</time>
      </trkpt>
      <trkpt lat="20.22480333" lon="-98.73525333">
        <ele>2213.0</ele>
        <time>2019-10-12T17:19:58.835Z</time>
      </trkpt>
      <trkpt lat="20.224795" lon="-98.73525167">
        <ele>2213.0</ele>
        <time>2019-10-12T17:19:59.837Z</time>
      </trkpt>
      <trkpt lat="20.22479167" lon="-98.735245">
        <ele>2213.0</ele>
        <time>2019-10-12T17:20:00.840Z</time>
      </trkpt>
      <trkpt lat="20.22479" lon="-98.73523667">
        <ele>2213.0</ele>
        <time>2019-10-12T17:20:01.845Z</time>
      </trkpt>
      <trkpt lat="20.224785" lon="-98.73523333">
        <ele>2214.0</ele>
        <time>2019-10-12T17:20:02.852Z</time>
      </trkpt>
      <trkpt lat="20.224775" lon="-98.73523333">
        <ele>2214.0</ele>
        <time>2019-10-12T17:20:03.858Z</time>
      </trkpt>
      <trkpt lat="20.224765" lon="-98.73523333">
        <ele>2214.0</ele>
        <time>2019-10-12T17:20:04.861Z</time>
      </trkpt>
      <trkpt lat="20.22475" lon="-98.73523667">
        <ele>2214.0</ele>
        <time>2019-10-12T17:20:05.866Z</time>
      </trkpt>
      <trkpt lat="20.22474" lon="-98.73524">
        <ele>2214.0</ele>
        <time>2019-10-12T17:20:06.871Z</time>
      </trkpt>
      <trkpt lat="20.22473" lon="-98.735245">
        <ele>2214.0</ele>
        <time>2019-10-12T17:20:07.878Z</time>
      </trkpt>
      <trkpt lat="20.22472167" lon="-98.73525">
        <ele>2214.0</ele>
        <time>2019-10-12T17:20:08.880Z</time>
      </trkpt>
      <trkpt lat="20.22471" lon="-98.73525333">
        <ele>2214.0</ele>
        <time>2019-10-12T17:20:09.881Z</time>
      </trkpt>
      <trkpt lat="20.22470333" lon="-98.73526">
        <ele>2213.0</ele>
        <time>2019-10-12T17:20:10.882Z</time>
      </trkpt>
      <trkpt lat="20.22469" lon="-98.735265">
        <ele>2213.0</ele>
        <time>2019-10-12T17:20:11.883Z</time>
      </trkpt>
      <trkpt lat="20.22467667" lon="-98.73526833">
        <ele>2213.0</ele>
        <time>2019-10-12T17:20:12.883Z</time>
      </trkpt>
      <trkpt lat="20.22467" lon="-98.73526833">
        <ele>2213.0</ele>
        <time>2019-10-12T17:20:13.884Z</time>
      </trkpt>
      <trkpt lat="20.22466333" lon="-98.73526667">
        <ele>2214.0</ele>
        <time>2019-10-12T17:20:14.885Z</time>
      </trkpt>
      <trkpt lat="20.22466" lon="-98.73526">
        <ele>2213.0</ele>
        <time>2019-10-12T17:20:15.886Z</time>
      </trkpt>
      <trkpt lat="20.224665" lon="-98.73525">
        <ele>2214.0</ele>
        <time>2019-10-12T17:20:16.887Z</time>
      </trkpt>
      <trkpt lat="20.22467333" lon="-98.73524167">
        <ele>2215.0</ele>
        <time>2019-10-12T17:20:17.892Z</time>
      </trkpt>
      <trkpt lat="20.22467333" lon="-98.73523833">
        <ele>2216.0</ele>
        <time>2019-10-12T17:20:18.899Z</time>
      </trkpt>
      <trkpt lat="20.22467167" lon="-98.73523667">
        <ele>2216.0</ele>
        <time>2019-10-12T17:20:19.902Z</time>
      </trkpt>
      <trkpt lat="20.224675" lon="-98.73523667">
        <ele>2216.0</ele>
        <time>2019-10-12T17:20:20.907Z</time>
      </trkpt>
      <trkpt lat="20.22467667" lon="-98.73523333">
        <ele>2216.0</ele>
        <time>2019-10-12T17:20:21.909Z</time>
      </trkpt>
      <trkpt lat="20.22467833" lon="-98.73523667">
        <ele>2216.0</ele>
        <time>2019-10-12T17:20:22.911Z</time>
      </trkpt>
      <trkpt lat="20.22467833" lon="-98.73524333">
        <ele>2217.0</ele>
        <time>2019-10-12T17:20:23.911Z</time>
      </trkpt>
      <trkpt lat="20.22467" lon="-98.73525167">
        <ele>2217.0</ele>
        <time>2019-10-12T17:20:24.913Z</time>
      </trkpt>
      <trkpt lat="20.22466667" lon="-98.735255">
        <ele>2217.0</ele>
        <time>2019-10-12T17:20:25.916Z</time>
      </trkpt>
      <trkpt lat="20.22466167" lon="-98.73526">
        <ele>2218.0</ele>
        <time>2019-10-12T17:20:26.918Z</time>
      </trkpt>
      <trkpt lat="20.22465667" lon="-98.73526333">
        <ele>2218.0</ele>
        <time>2019-10-12T17:20:27.920Z</time>
      </trkpt>
      <trkpt lat="20.22465" lon="-98.73526667">
        <ele>2219.0</ele>
        <time>2019-10-12T17:20:28.925Z</time>
      </trkpt>
      <trkpt lat="20.22464833" lon="-98.73526833">
        <ele>2220.0</ele>
        <time>2019-10-12T17:20:29.931Z</time>
      </trkpt>
      <trkpt lat="20.22465167" lon="-98.735265">
        <ele>2220.0</ele>
        <time>2019-10-12T17:20:30.937Z</time>
      </trkpt>
      <trkpt lat="20.22465" lon="-98.73526833">
        <ele>2221.0</ele>
        <time>2019-10-12T17:20:31.942Z</time>
      </trkpt>
      <trkpt lat="20.22464667" lon="-98.73527167">
        <ele>2221.0</ele>
        <time>2019-10-12T17:20:32.947Z</time>
      </trkpt>
      <trkpt lat="20.22463667" lon="-98.73527667">
        <ele>2222.0</ele>
        <time>2019-10-12T17:20:33.953Z</time>
      </trkpt>
      <trkpt lat="20.22462833" lon="-98.73528167">
        <ele>2222.0</ele>
        <time>2019-10-12T17:20:34.832Z</time>
      </trkpt>
      <trkpt lat="20.22462" lon="-98.73529167">
        <ele>2222.0</ele>
        <time>2019-10-12T17:20:35.836Z</time>
      </trkpt>
      <trkpt lat="20.22461833" lon="-98.73529667">
        <ele>2222.0</ele>
        <time>2019-10-12T17:20:36.837Z</time>
      </trkpt>
      <trkpt lat="20.22461667" lon="-98.7353">
        <ele>2221.0</ele>
        <time>2019-10-12T17:20:37.838Z</time>
      </trkpt>
      <trkpt lat="20.22461667" lon="-98.73530167">
        <ele>2221.0</ele>
        <time>2019-10-12T17:20:38.838Z</time>
      </trkpt>
      <trkpt lat="20.224615" lon="-98.73530333">
        <ele>2221.0</ele>
        <time>2019-10-12T17:20:39.843Z</time>
      </trkpt>
      <trkpt lat="20.22461167" lon="-98.735305">
        <ele>2221.0</ele>
        <time>2019-10-12T17:20:40.849Z</time>
      </trkpt>
      <trkpt lat="20.22460667" lon="-98.73530833">
        <ele>2221.0</ele>
        <time>2019-10-12T17:20:41.854Z</time>
      </trkpt>
      <trkpt lat="20.22459833" lon="-98.73531167">
        <ele>2221.0</ele>
        <time>2019-10-12T17:20:42.858Z</time>
      </trkpt>
      <trkpt lat="20.22459167" lon="-98.735315">
        <ele>2221.0</ele>
        <time>2019-10-12T17:20:43.864Z</time>
      </trkpt>
      <trkpt lat="20.22458333" lon="-98.73532167">
        <ele>2221.0</ele>
        <time>2019-10-12T17:20:44.871Z</time>
      </trkpt>
      <trkpt lat="20.224575" lon="-98.735325">
        <ele>2221.0</ele>
        <time>2019-10-12T17:20:45.875Z</time>
      </trkpt>
      <trkpt lat="20.22456833" lon="-98.73532833">
        <ele>2221.0</ele>
        <time>2019-10-12T17:20:46.876Z</time>
      </trkpt>
      <trkpt lat="20.22456167" lon="-98.73533">
        <ele>2221.0</ele>
        <time>2019-10-12T17:20:47.878Z</time>
      </trkpt>
      <trkpt lat="20.22455" lon="-98.73533667">
        <ele>2221.0</ele>
        <time>2019-10-12T17:20:48.881Z</time>
      </trkpt>
      <trkpt lat="20.22454" lon="-98.73534333">
        <ele>2220.0</ele>
        <time>2019-10-12T17:20:49.888Z</time>
      </trkpt>
      <trkpt lat="20.22453" lon="-98.73534833">
        <ele>2220.0</ele>
        <time>2019-10-12T17:20:50.894Z</time>
      </trkpt>
      <trkpt lat="20.22452" lon="-98.73535333">
        <ele>2220.0</ele>
        <time>2019-10-12T17:20:51.901Z</time>
      </trkpt>
      <trkpt lat="20.22451167" lon="-98.73535833">
        <ele>2219.0</ele>
        <time>2019-10-12T17:20:52.909Z</time>
      </trkpt>
      <trkpt lat="20.22450833" lon="-98.73536">
        <ele>2219.0</ele>
        <time>2019-10-12T17:20:53.912Z</time>
      </trkpt>
      <trkpt lat="20.224505" lon="-98.73536167">
        <ele>2219.0</ele>
        <time>2019-10-12T17:20:54.914Z</time>
      </trkpt>
      <trkpt lat="20.22449833" lon="-98.73536333">
        <ele>2219.0</ele>
        <time>2019-10-12T17:20:55.915Z</time>
      </trkpt>
      <trkpt lat="20.22449167" lon="-98.735365">
        <ele>2219.0</ele>
        <time>2019-10-12T17:20:56.915Z</time>
      </trkpt>
      <trkpt lat="20.22448833" lon="-98.735365">
        <ele>2220.0</ele>
        <time>2019-10-12T17:20:57.916Z</time>
      </trkpt>
      <trkpt lat="20.224485" lon="-98.73536167">
        <ele>2220.0</ele>
        <time>2019-10-12T17:20:58.917Z</time>
      </trkpt>
      <trkpt lat="20.22448" lon="-98.73536">
        <ele>2220.0</ele>
        <time>2019-10-12T17:20:59.918Z</time>
      </trkpt>
      <trkpt lat="20.224475" lon="-98.73535833">
        <ele>2220.0</ele>
        <time>2019-10-12T17:21:00.919Z</time>
      </trkpt>
      <trkpt lat="20.22447167" lon="-98.73535167">
        <ele>2220.0</ele>
        <time>2019-10-12T17:21:01.922Z</time>
      </trkpt>
      <trkpt lat="20.22446833" lon="-98.73534667">
        <ele>2220.0</ele>
        <time>2019-10-12T17:21:02.927Z</time>
      </trkpt>
      <trkpt lat="20.22446333" lon="-98.73534333">
        <ele>2220.0</ele>
        <time>2019-10-12T17:21:03.930Z</time>
      </trkpt>
      <trkpt lat="20.22446" lon="-98.73534">
        <ele>2220.0</ele>
        <time>2019-10-12T17:21:04.935Z</time>
      </trkpt>
      <trkpt lat="20.224455" lon="-98.735335">
        <ele>2219.0</ele>
        <time>2019-10-12T17:21:05.941Z</time>
      </trkpt>
      <trkpt lat="20.224455" lon="-98.73533167">
        <ele>2219.0</ele>
        <time>2019-10-12T17:21:06.946Z</time>
      </trkpt>
      <trkpt lat="20.22445833" lon="-98.73532833">
        <ele>2219.0</ele>
        <time>2019-10-12T17:21:07.952Z</time>
      </trkpt>
      <trkpt lat="20.22446333" lon="-98.73532333">
        <ele>2219.0</ele>
        <time>2019-10-12T17:21:08.831Z</time>
      </trkpt>
      <trkpt lat="20.22447167" lon="-98.73531833">
        <ele>2220.0</ele>
        <time>2019-10-12T17:21:09.832Z</time>
      </trkpt>
      <trkpt lat="20.22447667" lon="-98.735315">
        <ele>2220.0</ele>
        <time>2019-10-12T17:21:10.834Z</time>
      </trkpt>
      <trkpt lat="20.22447667" lon="-98.73530833">
        <ele>2221.0</ele>
        <time>2019-10-12T17:21:11.838Z</time>
      </trkpt>
      <trkpt lat="20.22447833" lon="-98.73530333">
        <ele>2222.0</ele>
        <time>2019-10-12T17:21:12.845Z</time>
      </trkpt>
      <trkpt lat="20.22448" lon="-98.73529667">
        <ele>2222.0</ele>
        <time>2019-10-12T17:21:13.851Z</time>
      </trkpt>
      <trkpt lat="20.22448667" lon="-98.73528833">
        <ele>2223.0</ele>
        <time>2019-10-12T17:21:14.857Z</time>
      </trkpt>
      <trkpt lat="20.22448667" lon="-98.73528">
        <ele>2224.0</ele>
        <time>2019-10-12T17:21:15.861Z</time>
      </trkpt>
      <trkpt lat="20.22449" lon="-98.73527333">
        <ele>2225.0</ele>
        <time>2019-10-12T17:21:16.865Z</time>
      </trkpt>
      <trkpt lat="20.22449" lon="-98.73527167">
        <ele>2225.0</ele>
        <time>2019-10-12T17:21:17.869Z</time>
      </trkpt>
      <trkpt lat="20.22448833" lon="-98.73527">
        <ele>2226.0</ele>
        <time>2019-10-12T17:21:18.870Z</time>
      </trkpt>
      <trkpt lat="20.224485" lon="-98.73527167">
        <ele>2227.0</ele>
        <time>2019-10-12T17:21:19.873Z</time>
      </trkpt>
      <trkpt lat="20.22447833" lon="-98.73527333">
        <ele>2228.0</ele>
        <time>2019-10-12T17:21:20.878Z</time>
      </trkpt>
      <trkpt lat="20.22447167" lon="-98.73527667">
        <ele>2228.0</ele>
        <time>2019-10-12T17:21:21.883Z</time>
      </trkpt>
      <trkpt lat="20.22446167" lon="-98.73527667">
        <ele>2228.0</ele>
        <time>2019-10-12T17:21:22.890Z</time>
      </trkpt>
      <trkpt lat="20.22445" lon="-98.735275">
        <ele>2229.0</ele>
        <time>2019-10-12T17:21:23.896Z</time>
      </trkpt>
      <trkpt lat="20.22444167" lon="-98.73527167">
        <ele>2229.0</ele>
        <time>2019-10-12T17:21:24.902Z</time>
      </trkpt>
      <trkpt lat="20.22443333" lon="-98.73527167">
        <ele>2229.0</ele>
        <time>2019-10-12T17:21:25.908Z</time>
      </trkpt>
      <trkpt lat="20.224425" lon="-98.73526667">
        <ele>2229.0</ele>
        <time>2019-10-12T17:21:26.914Z</time>
      </trkpt>
      <trkpt lat="20.224415" lon="-98.73526167">
        <ele>2228.0</ele>
        <time>2019-10-12T17:21:27.917Z</time>
      </trkpt>
      <trkpt lat="20.22440667" lon="-98.73525833">
        <ele>2228.0</ele>
        <time>2019-10-12T17:21:28.922Z</time>
      </trkpt>
      <trkpt lat="20.224405" lon="-98.73525333">
        <ele>2228.0</ele>
        <time>2019-10-12T17:21:29.928Z</time>
      </trkpt>
      <trkpt lat="20.22440667" lon="-98.73524833">
        <ele>2228.0</ele>
        <time>2019-10-12T17:21:30.934Z</time>
      </trkpt>
      <trkpt lat="20.224405" lon="-98.73524167">
        <ele>2227.0</ele>
        <time>2019-10-12T17:21:31.939Z</time>
      </trkpt>
      <trkpt lat="20.22440833" lon="-98.73523333">
        <ele>2227.0</ele>
        <time>2019-10-12T17:21:32.940Z</time>
      </trkpt>
      <trkpt lat="20.22440667" lon="-98.735225">
        <ele>2227.0</ele>
        <time>2019-10-12T17:21:33.942Z</time>
      </trkpt>
      <trkpt lat="20.22441" lon="-98.73522">
        <ele>2228.0</ele>
        <time>2019-10-12T17:21:34.945Z</time>
      </trkpt>
      <trkpt lat="20.22441" lon="-98.73521833">
        <ele>2229.0</ele>
        <time>2019-10-12T17:21:35.946Z</time>
      </trkpt>
      <trkpt lat="20.224415" lon="-98.73521667">
        <ele>2229.0</ele>
        <time>2019-10-12T17:21:36.946Z</time>
      </trkpt>
      <trkpt lat="20.22441333" lon="-98.735215">
        <ele>2230.0</ele>
        <time>2019-10-12T17:21:37.947Z</time>
      </trkpt>
      <trkpt lat="20.22440833" lon="-98.73520833">
        <ele>2230.0</ele>
        <time>2019-10-12T17:21:38.948Z</time>
      </trkpt>
      <trkpt lat="20.22439833" lon="-98.7352">
        <ele>2229.0</ele>
        <time>2019-10-12T17:21:39.949Z</time>
      </trkpt>
      <trkpt lat="20.22439" lon="-98.73519333">
        <ele>2230.0</ele>
        <time>2019-10-12T17:21:40.951Z</time>
      </trkpt>
      <trkpt lat="20.22438833" lon="-98.73518833">
        <ele>2230.0</ele>
        <time>2019-10-12T17:21:41.832Z</time>
      </trkpt>
      <trkpt lat="20.22438833" lon="-98.73518333">
        <ele>2230.0</ele>
        <time>2019-10-12T17:21:42.837Z</time>
      </trkpt>
      <trkpt lat="20.22439167" lon="-98.73518">
        <ele>2230.0</ele>
        <time>2019-10-12T17:21:43.838Z</time>
      </trkpt>
      <trkpt lat="20.224395" lon="-98.735175">
        <ele>2230.0</ele>
        <time>2019-10-12T17:21:44.844Z</time>
      </trkpt>
      <trkpt lat="20.22439833" lon="-98.73516667">
        <ele>2230.0</ele>
        <time>2019-10-12T17:21:45.849Z</time>
      </trkpt>
      <trkpt lat="20.22440333" lon="-98.73516">
        <ele>2230.0</ele>
        <time>2019-10-12T17:21:46.850Z</time>
      </trkpt>
      <trkpt lat="20.22440333" lon="-98.73515167">
        <ele>2230.0</ele>
        <time>2019-10-12T17:21:47.852Z</time>
      </trkpt>
      <trkpt lat="20.22440167" lon="-98.735145">
        <ele>2230.0</ele>
        <time>2019-10-12T17:21:48.859Z</time>
      </trkpt>
      <trkpt lat="20.22439833" lon="-98.73514">
        <ele>2230.0</ele>
        <time>2019-10-12T17:21:49.861Z</time>
      </trkpt>
      <trkpt lat="20.22439167" lon="-98.73513833">
        <ele>2230.0</ele>
        <time>2019-10-12T17:21:50.866Z</time>
      </trkpt>
      <trkpt lat="20.224385" lon="-98.73513667">
        <ele>2230.0</ele>
        <time>2019-10-12T17:21:51.872Z</time>
      </trkpt>
      <trkpt lat="20.22437667" lon="-98.735135">
        <ele>2229.0</ele>
        <time>2019-10-12T17:21:52.878Z</time>
      </trkpt>
      <trkpt lat="20.22437" lon="-98.73513333">
        <ele>2229.0</ele>
        <time>2019-10-12T17:21:53.884Z</time>
      </trkpt>
      <trkpt lat="20.22436333" lon="-98.73513">
        <ele>2229.0</ele>
        <time>2019-10-12T17:21:54.888Z</time>
      </trkpt>
      <trkpt lat="20.22435833" lon="-98.73512833">
        <ele>2229.0</ele>
        <time>2019-10-12T17:21:55.890Z</time>
      </trkpt>
      <trkpt lat="20.22435" lon="-98.735125">
        <ele>2229.0</ele>
        <time>2019-10-12T17:21:56.896Z</time>
      </trkpt>
      <trkpt lat="20.22434167" lon="-98.73512667">
        <ele>2230.0</ele>
        <time>2019-10-12T17:21:57.900Z</time>
      </trkpt>
      <trkpt lat="20.22433333" lon="-98.73513333">
        <ele>2230.0</ele>
        <time>2019-10-12T17:21:58.901Z</time>
      </trkpt>
      <trkpt lat="20.22432667" lon="-98.73513667">
        <ele>2231.0</ele>
        <time>2019-10-12T17:21:59.902Z</time>
      </trkpt>
      <trkpt lat="20.22431833" lon="-98.73513833">
        <ele>2231.0</ele>
        <time>2019-10-12T17:22:00.903Z</time>
      </trkpt>
      <trkpt lat="20.22431" lon="-98.73514333">
        <ele>2231.0</ele>
        <time>2019-10-12T17:22:01.904Z</time>
      </trkpt>
      <trkpt lat="20.2243" lon="-98.735145">
        <ele>2231.0</ele>
        <time>2019-10-12T17:22:02.905Z</time>
      </trkpt>
      <trkpt lat="20.224295" lon="-98.73514833">
        <ele>2231.0</ele>
        <time>2019-10-12T17:22:03.905Z</time>
      </trkpt>
      <trkpt lat="20.22428833" lon="-98.73515">
        <ele>2231.0</ele>
        <time>2019-10-12T17:22:04.906Z</time>
      </trkpt>
      <trkpt lat="20.22428333" lon="-98.735155">
        <ele>2232.0</ele>
        <time>2019-10-12T17:22:05.906Z</time>
      </trkpt>
      <trkpt lat="20.22428" lon="-98.73515833">
        <ele>2233.0</ele>
        <time>2019-10-12T17:22:06.907Z</time>
      </trkpt>
      <trkpt lat="20.22427333" lon="-98.73516">
        <ele>2233.0</ele>
        <time>2019-10-12T17:22:07.907Z</time>
      </trkpt>
      <trkpt lat="20.22426667" lon="-98.73515667">
        <ele>2234.0</ele>
        <time>2019-10-12T17:22:08.907Z</time>
      </trkpt>
      <trkpt lat="20.22426667" lon="-98.735155">
        <ele>2234.0</ele>
        <time>2019-10-12T17:22:09.908Z</time>
      </trkpt>
      <trkpt lat="20.22426" lon="-98.73515">
        <ele>2234.0</ele>
        <time>2019-10-12T17:22:10.908Z</time>
      </trkpt>
      <trkpt lat="20.22425" lon="-98.73514333">
        <ele>2233.0</ele>
        <time>2019-10-12T17:22:11.908Z</time>
      </trkpt>
      <trkpt lat="20.22424" lon="-98.73514167">
        <ele>2232.0</ele>
        <time>2019-10-12T17:22:12.908Z</time>
      </trkpt>
      <trkpt lat="20.22423167" lon="-98.73514333">
        <ele>2233.0</ele>
        <time>2019-10-12T17:22:13.908Z</time>
      </trkpt>
      <trkpt lat="20.22422667" lon="-98.73513833">
        <ele>2232.0</ele>
        <time>2019-10-12T17:22:14.911Z</time>
      </trkpt>
      <trkpt lat="20.22422167" lon="-98.735135">
        <ele>2233.0</ele>
        <time>2019-10-12T17:22:15.919Z</time>
      </trkpt>
      <trkpt lat="20.224215" lon="-98.73513167">
        <ele>2233.0</ele>
        <time>2019-10-12T17:22:16.925Z</time>
      </trkpt>
      <trkpt lat="20.22421667" lon="-98.73513167">
        <ele>2233.0</ele>
        <time>2019-10-12T17:22:17.931Z</time>
      </trkpt>
      <trkpt lat="20.22421833" lon="-98.73512833">
        <ele>2233.0</ele>
        <time>2019-10-12T17:22:18.931Z</time>
      </trkpt>
      <trkpt lat="20.22421667" lon="-98.735125">
        <ele>2233.0</ele>
        <time>2019-10-12T17:22:19.932Z</time>
      </trkpt>
      <trkpt lat="20.22420833" lon="-98.73512167">
        <ele>2233.0</ele>
        <time>2019-10-12T17:22:20.933Z</time>
      </trkpt>
      <trkpt lat="20.224205" lon="-98.73511833">
        <ele>2233.0</ele>
        <time>2019-10-12T17:22:21.933Z</time>
      </trkpt>
      <trkpt lat="20.2242" lon="-98.73511833">
        <ele>2233.0</ele>
        <time>2019-10-12T17:22:22.935Z</time>
      </trkpt>
      <trkpt lat="20.224195" lon="-98.73512">
        <ele>2233.0</ele>
        <time>2019-10-12T17:22:23.939Z</time>
      </trkpt>
      <trkpt lat="20.22418167" lon="-98.73512167">
        <ele>2233.0</ele>
        <time>2019-10-12T17:22:24.945Z</time>
      </trkpt>
      <trkpt lat="20.224175" lon="-98.73512333">
        <ele>2233.0</ele>
        <time>2019-10-12T17:22:25.949Z</time>
      </trkpt>
      <trkpt lat="20.22415833" lon="-98.73512833">
        <ele>2234.0</ele>
        <time>2019-10-12T17:22:26.830Z</time>
      </trkpt>
      <trkpt lat="20.22415333" lon="-98.73513167">
        <ele>2234.0</ele>
        <time>2019-10-12T17:22:27.833Z</time>
      </trkpt>
      <trkpt lat="20.22415167" lon="-98.73513333">
        <ele>2235.0</ele>
        <time>2019-10-12T17:22:28.833Z</time>
      </trkpt>
      <trkpt lat="20.22414667" lon="-98.73513333">
        <ele>2236.0</ele>
        <time>2019-10-12T17:22:29.837Z</time>
      </trkpt>
      <trkpt lat="20.22415" lon="-98.73513167">
        <ele>2237.0</ele>
        <time>2019-10-12T17:22:30.843Z</time>
      </trkpt>
      <trkpt lat="20.22414667" lon="-98.73512333">
        <ele>2238.0</ele>
        <time>2019-10-12T17:22:31.849Z</time>
      </trkpt>
      <trkpt lat="20.22414" lon="-98.73512">
        <ele>2238.0</ele>
        <time>2019-10-12T17:22:32.856Z</time>
      </trkpt>
      <trkpt lat="20.22413333" lon="-98.73511833">
        <ele>2238.0</ele>
        <time>2019-10-12T17:22:33.859Z</time>
      </trkpt>
      <trkpt lat="20.224125" lon="-98.73512">
        <ele>2238.0</ele>
        <time>2019-10-12T17:22:34.863Z</time>
      </trkpt>
      <trkpt lat="20.22411667" lon="-98.73512333">
        <ele>2239.0</ele>
        <time>2019-10-12T17:22:35.870Z</time>
      </trkpt>
      <trkpt lat="20.22411" lon="-98.73512667">
        <ele>2239.0</ele>
        <time>2019-10-12T17:22:36.876Z</time>
      </trkpt>
      <trkpt lat="20.22410667" lon="-98.73513333">
        <ele>2239.0</ele>
        <time>2019-10-12T17:22:37.879Z</time>
      </trkpt>
      <trkpt lat="20.224105" lon="-98.73514">
        <ele>2239.0</ele>
        <time>2019-10-12T17:22:38.881Z</time>
      </trkpt>
      <trkpt lat="20.22410333" lon="-98.735145">
        <ele>2239.0</ele>
        <time>2019-10-12T17:22:39.886Z</time>
      </trkpt>
      <trkpt lat="20.22409833" lon="-98.73515167">
        <ele>2240.0</ele>
        <time>2019-10-12T17:22:40.888Z</time>
      </trkpt>
      <trkpt lat="20.22409333" lon="-98.73515833">
        <ele>2240.0</ele>
        <time>2019-10-12T17:22:41.895Z</time>
      </trkpt>
      <trkpt lat="20.22408833" lon="-98.735165">
        <ele>2240.0</ele>
        <time>2019-10-12T17:22:42.902Z</time>
      </trkpt>
      <trkpt lat="20.22408167" lon="-98.73517">
        <ele>2240.0</ele>
        <time>2019-10-12T17:22:43.904Z</time>
      </trkpt>
      <trkpt lat="20.22407167" lon="-98.73517333">
        <ele>2240.0</ele>
        <time>2019-10-12T17:22:44.907Z</time>
      </trkpt>
      <trkpt lat="20.22405833" lon="-98.73518">
        <ele>2240.0</ele>
        <time>2019-10-12T17:22:45.913Z</time>
      </trkpt>
      <trkpt lat="20.22405167" lon="-98.73518333">
        <ele>2241.0</ele>
        <time>2019-10-12T17:22:46.917Z</time>
      </trkpt>
      <trkpt lat="20.22404333" lon="-98.73518333">
        <ele>2241.0</ele>
        <time>2019-10-12T17:22:47.922Z</time>
      </trkpt>
      <trkpt lat="20.22404" lon="-98.73517667">
        <ele>2241.0</ele>
        <time>2019-10-12T17:22:48.924Z</time>
      </trkpt>
      <trkpt lat="20.22403667" lon="-98.73517">
        <ele>2242.0</ele>
        <time>2019-10-12T17:22:49.930Z</time>
      </trkpt>
      <trkpt lat="20.22404" lon="-98.73516333">
        <ele>2242.0</ele>
        <time>2019-10-12T17:22:50.935Z</time>
      </trkpt>
      <trkpt lat="20.22404167" lon="-98.73515833">
        <ele>2242.0</ele>
        <time>2019-10-12T17:22:51.936Z</time>
      </trkpt>
      <trkpt lat="20.22404167" lon="-98.735155">
        <ele>2242.0</ele>
        <time>2019-10-12T17:22:52.937Z</time>
      </trkpt>
      <trkpt lat="20.22404167" lon="-98.73514833">
        <ele>2242.0</ele>
        <time>2019-10-12T17:22:53.938Z</time>
      </trkpt>
      <trkpt lat="20.22403833" lon="-98.735145">
        <ele>2243.0</ele>
        <time>2019-10-12T17:22:54.939Z</time>
      </trkpt>
      <trkpt lat="20.22403333" lon="-98.73514167">
        <ele>2243.0</ele>
        <time>2019-10-12T17:22:55.940Z</time>
      </trkpt>
      <trkpt lat="20.22402833" lon="-98.73514167">
        <ele>2243.0</ele>
        <time>2019-10-12T17:22:56.940Z</time>
      </trkpt>
      <trkpt lat="20.22402167" lon="-98.73514333">
        <ele>2244.0</ele>
        <time>2019-10-12T17:22:57.941Z</time>
      </trkpt>
      <trkpt lat="20.22401833" lon="-98.735145">
        <ele>2244.0</ele>
        <time>2019-10-12T17:22:58.942Z</time>
      </trkpt>
      <trkpt lat="20.22401167" lon="-98.73514833">
        <ele>2245.0</ele>
        <time>2019-10-12T17:22:59.943Z</time>
      </trkpt>
      <trkpt lat="20.22400667" lon="-98.73515167">
        <ele>2245.0</ele>
        <time>2019-10-12T17:23:00.948Z</time>
      </trkpt>
      <trkpt lat="20.224" lon="-98.73515167">
        <ele>2245.0</ele>
        <time>2019-10-12T17:23:01.954Z</time>
      </trkpt>
      <trkpt lat="20.22399333" lon="-98.73515167">
        <ele>2245.0</ele>
        <time>2019-10-12T17:23:02.831Z</time>
      </trkpt>
      <trkpt lat="20.22398667" lon="-98.73515167">
        <ele>2245.0</ele>
        <time>2019-10-12T17:23:03.835Z</time>
      </trkpt>
      <trkpt lat="20.22398" lon="-98.73515167">
        <ele>2246.0</ele>
        <time>2019-10-12T17:23:04.839Z</time>
      </trkpt>
      <trkpt lat="20.22397167" lon="-98.73514833">
        <ele>2246.0</ele>
        <time>2019-10-12T17:23:05.845Z</time>
      </trkpt>
      <trkpt lat="20.22396667" lon="-98.73514667">
        <ele>2247.0</ele>
        <time>2019-10-12T17:23:06.852Z</time>
      </trkpt>
      <trkpt lat="20.22396833" lon="-98.73514833">
        <ele>2247.0</ele>
        <time>2019-10-12T17:23:07.857Z</time>
      </trkpt>
      <trkpt lat="20.22397167" lon="-98.73514333">
        <ele>2248.0</ele>
        <time>2019-10-12T17:23:08.862Z</time>
      </trkpt>
      <trkpt lat="20.22397333" lon="-98.73514167">
        <ele>2248.0</ele>
        <time>2019-10-12T17:23:09.866Z</time>
      </trkpt>
      <trkpt lat="20.22397167" lon="-98.73513667">
        <ele>2248.0</ele>
        <time>2019-10-12T17:23:10.870Z</time>
      </trkpt>
      <trkpt lat="20.22396667" lon="-98.73513167">
        <ele>2248.0</ele>
        <time>2019-10-12T17:23:11.875Z</time>
      </trkpt>
      <trkpt lat="20.223965" lon="-98.73512667">
        <ele>2248.0</ele>
        <time>2019-10-12T17:23:12.880Z</time>
      </trkpt>
      <trkpt lat="20.22396333" lon="-98.73511833">
        <ele>2249.0</ele>
        <time>2019-10-12T17:23:13.885Z</time>
      </trkpt>
      <trkpt lat="20.22395833" lon="-98.73511167">
        <ele>2249.0</ele>
        <time>2019-10-12T17:23:14.891Z</time>
      </trkpt>
      <trkpt lat="20.22395333" lon="-98.735105">
        <ele>2249.0</ele>
        <time>2019-10-12T17:23:15.892Z</time>
      </trkpt>
      <trkpt lat="20.22394833" lon="-98.73510167">
        <ele>2249.0</ele>
        <time>2019-10-12T17:23:16.893Z</time>
      </trkpt>
      <trkpt lat="20.22394167" lon="-98.73509833">
        <ele>2249.0</ele>
        <time>2019-10-12T17:23:17.894Z</time>
      </trkpt>
      <trkpt lat="20.22393167" lon="-98.73509833">
        <ele>2249.0</ele>
        <time>2019-10-12T17:23:18.895Z</time>
      </trkpt>
      <trkpt lat="20.223925" lon="-98.73510167">
        <ele>2250.0</ele>
        <time>2019-10-12T17:23:19.896Z</time>
      </trkpt>
      <trkpt lat="20.22391833" lon="-98.73510333">
        <ele>2250.0</ele>
        <time>2019-10-12T17:23:20.896Z</time>
      </trkpt>
      <trkpt lat="20.22391333" lon="-98.7351">
        <ele>2250.0</ele>
        <time>2019-10-12T17:23:21.897Z</time>
      </trkpt>
      <trkpt lat="20.22390833" lon="-98.73509833">
        <ele>2250.0</ele>
        <time>2019-10-12T17:23:22.898Z</time>
      </trkpt>
      <trkpt lat="20.22390833" lon="-98.73509667">
        <ele>2251.0</ele>
        <time>2019-10-12T17:23:23.899Z</time>
      </trkpt>
      <trkpt lat="20.22390667" lon="-98.73509">
        <ele>2251.0</ele>
        <time>2019-10-12T17:23:24.900Z</time>
      </trkpt>
      <trkpt lat="20.223905" lon="-98.73508667">
        <ele>2251.0</ele>
        <time>2019-10-12T17:23:25.900Z</time>
      </trkpt>
      <trkpt lat="20.2239" lon="-98.73508333">
        <ele>2251.0</ele>
        <time>2019-10-12T17:23:26.901Z</time>
      </trkpt>
      <trkpt lat="20.223895" lon="-98.73507833">
        <ele>2251.0</ele>
        <time>2019-10-12T17:23:27.902Z</time>
      </trkpt>
      <trkpt lat="20.22389167" lon="-98.73507167">
        <ele>2251.0</ele>
        <time>2019-10-12T17:23:28.903Z</time>
      </trkpt>
      <trkpt lat="20.22389" lon="-98.73506667">
        <ele>2251.0</ele>
        <time>2019-10-12T17:23:29.904Z</time>
      </trkpt>
      <trkpt lat="20.22388833" lon="-98.73506167">
        <ele>2251.0</ele>
        <time>2019-10-12T17:23:30.904Z</time>
      </trkpt>
      <trkpt lat="20.22388833" lon="-98.73505667">
        <ele>2252.0</ele>
        <time>2019-10-12T17:23:31.905Z</time>
      </trkpt>
      <trkpt lat="20.22389" lon="-98.735055">
        <ele>2252.0</ele>
        <time>2019-10-12T17:23:32.906Z</time>
      </trkpt>
      <trkpt lat="20.22389" lon="-98.73505333">
        <ele>2252.0</ele>
        <time>2019-10-12T17:23:33.907Z</time>
      </trkpt>
      <trkpt lat="20.22388167" lon="-98.73505167">
        <ele>2253.0</ele>
        <time>2019-10-12T17:23:34.908Z</time>
      </trkpt>
      <trkpt lat="20.22387667" lon="-98.73505333">
        <ele>2253.0</ele>
        <time>2019-10-12T17:23:35.908Z</time>
      </trkpt>
      <trkpt lat="20.22387333" lon="-98.735055">
        <ele>2254.0</ele>
        <time>2019-10-12T17:23:36.909Z</time>
      </trkpt>
      <trkpt lat="20.22386833" lon="-98.73505667">
        <ele>2254.0</ele>
        <time>2019-10-12T17:23:37.910Z</time>
      </trkpt>
      <trkpt lat="20.22386333" lon="-98.73505833">
        <ele>2254.0</ele>
        <time>2019-10-12T17:23:38.911Z</time>
      </trkpt>
      <trkpt lat="20.22386" lon="-98.73505667">
        <ele>2254.0</ele>
        <time>2019-10-12T17:23:39.912Z</time>
      </trkpt>
      <trkpt lat="20.22385667" lon="-98.73505333">
        <ele>2254.0</ele>
        <time>2019-10-12T17:23:40.913Z</time>
      </trkpt>
      <trkpt lat="20.22385167" lon="-98.73504833">
        <ele>2255.0</ele>
        <time>2019-10-12T17:23:41.913Z</time>
      </trkpt>
      <trkpt lat="20.223845" lon="-98.73504667">
        <ele>2255.0</ele>
        <time>2019-10-12T17:23:42.914Z</time>
      </trkpt>
      <trkpt lat="20.22384333" lon="-98.73504667">
        <ele>2255.0</ele>
        <time>2019-10-12T17:23:43.915Z</time>
      </trkpt>
      <trkpt lat="20.22383833" lon="-98.73505">
        <ele>2256.0</ele>
        <time>2019-10-12T17:23:44.916Z</time>
      </trkpt>
      <trkpt lat="20.22383" lon="-98.73505667">
        <ele>2256.0</ele>
        <time>2019-10-12T17:23:45.917Z</time>
      </trkpt>
      <trkpt lat="20.223825" lon="-98.73505833">
        <ele>2256.0</ele>
        <time>2019-10-12T17:23:46.917Z</time>
      </trkpt>
      <trkpt lat="20.223825" lon="-98.73506">
        <ele>2256.0</ele>
        <time>2019-10-12T17:23:47.918Z</time>
      </trkpt>
      <trkpt lat="20.22382167" lon="-98.73505833">
        <ele>2256.0</ele>
        <time>2019-10-12T17:23:48.919Z</time>
      </trkpt>
      <trkpt lat="20.22382" lon="-98.73505833">
        <ele>2256.0</ele>
        <time>2019-10-12T17:23:49.920Z</time>
      </trkpt>
      <trkpt lat="20.22381667" lon="-98.73505667">
        <ele>2256.0</ele>
        <time>2019-10-12T17:23:50.921Z</time>
      </trkpt>
      <trkpt lat="20.22381" lon="-98.73505667">
        <ele>2256.0</ele>
        <time>2019-10-12T17:23:51.921Z</time>
      </trkpt>
      <trkpt lat="20.22380333" lon="-98.73506167">
        <ele>2257.0</ele>
        <time>2019-10-12T17:23:52.922Z</time>
      </trkpt>
      <trkpt lat="20.22379833" lon="-98.73506833">
        <ele>2256.0</ele>
        <time>2019-10-12T17:23:53.922Z</time>
      </trkpt>
      <trkpt lat="20.22379167" lon="-98.73507167">
        <ele>2256.0</ele>
        <time>2019-10-12T17:23:54.922Z</time>
      </trkpt>
      <trkpt lat="20.223785" lon="-98.73507167">
        <ele>2256.0</ele>
        <time>2019-10-12T17:23:55.924Z</time>
      </trkpt>
      <trkpt lat="20.22377333" lon="-98.73507333">
        <ele>2256.0</ele>
        <time>2019-10-12T17:23:56.928Z</time>
      </trkpt>
      <trkpt lat="20.223765" lon="-98.73507833">
        <ele>2257.0</ele>
        <time>2019-10-12T17:23:57.933Z</time>
      </trkpt>
      <trkpt lat="20.22375667" lon="-98.73508167">
        <ele>2257.0</ele>
        <time>2019-10-12T17:23:58.936Z</time>
      </trkpt>
      <trkpt lat="20.22374833" lon="-98.73508333">
        <ele>2257.0</ele>
        <time>2019-10-12T17:23:59.937Z</time>
      </trkpt>
      <trkpt lat="20.22374333" lon="-98.735085">
        <ele>2257.0</ele>
        <time>2019-10-12T17:24:00.937Z</time>
      </trkpt>
      <trkpt lat="20.22373833" lon="-98.73508333">
        <ele>2257.0</ele>
        <time>2019-10-12T17:24:01.937Z</time>
      </trkpt>
      <trkpt lat="20.22373333" lon="-98.73508333">
        <ele>2257.0</ele>
        <time>2019-10-12T17:24:02.942Z</time>
      </trkpt>
      <trkpt lat="20.22372667" lon="-98.73508333">
        <ele>2257.0</ele>
        <time>2019-10-12T17:24:03.946Z</time>
      </trkpt>
      <trkpt lat="20.22371833" lon="-98.73508333">
        <ele>2257.0</ele>
        <time>2019-10-12T17:24:04.949Z</time>
      </trkpt>
      <trkpt lat="20.223715" lon="-98.73508167">
        <ele>2257.0</ele>
        <time>2019-10-12T17:24:05.951Z</time>
      </trkpt>
      <trkpt lat="20.22371167" lon="-98.73508333">
        <ele>2257.0</ele>
        <time>2019-10-12T17:24:06.831Z</time>
      </trkpt>
      <trkpt lat="20.22370667" lon="-98.735085">
        <ele>2257.0</ele>
        <time>2019-10-12T17:24:07.837Z</time>
      </trkpt>
      <trkpt lat="20.22370333" lon="-98.73508667">
        <ele>2257.0</ele>
        <time>2019-10-12T17:24:08.841Z</time>
      </trkpt>
      <trkpt lat="20.22369667" lon="-98.73509">
        <ele>2257.0</ele>
        <time>2019-10-12T17:24:09.844Z</time>
      </trkpt>
      <trkpt lat="20.22368833" lon="-98.73509167">
        <ele>2258.0</ele>
        <time>2019-10-12T17:24:10.848Z</time>
      </trkpt>
      <trkpt lat="20.22368167" lon="-98.73509">
        <ele>2258.0</ele>
        <time>2019-10-12T17:24:11.849Z</time>
      </trkpt>
      <trkpt lat="20.223675" lon="-98.73508667">
        <ele>2258.0</ele>
        <time>2019-10-12T17:24:12.854Z</time>
      </trkpt>
      <trkpt lat="20.22367" lon="-98.73508667">
        <ele>2258.0</ele>
        <time>2019-10-12T17:24:13.860Z</time>
      </trkpt>
      <trkpt lat="20.223665" lon="-98.73509167">
        <ele>2259.0</ele>
        <time>2019-10-12T17:24:14.867Z</time>
      </trkpt>
      <trkpt lat="20.22366667" lon="-98.7351">
        <ele>2259.0</ele>
        <time>2019-10-12T17:24:15.871Z</time>
      </trkpt>
      <trkpt lat="20.223665" lon="-98.73511">
        <ele>2260.0</ele>
        <time>2019-10-12T17:24:16.876Z</time>
      </trkpt>
      <trkpt lat="20.22365833" lon="-98.73511167">
        <ele>2260.0</ele>
        <time>2019-10-12T17:24:17.878Z</time>
      </trkpt>
      <trkpt lat="20.22365833" lon="-98.73511167">
        <ele>2260.0</ele>
        <time>2019-10-12T17:24:18.884Z</time>
      </trkpt>
      <trkpt lat="20.22363667" lon="-98.73511167">
        <ele>2260.0</ele>
        <time>2019-10-12T17:24:19.887Z</time>
      </trkpt>
      <trkpt lat="20.22362333" lon="-98.73511333">
        <ele>2260.0</ele>
        <time>2019-10-12T17:24:20.891Z</time>
      </trkpt>
      <trkpt lat="20.22360833" lon="-98.73511667">
        <ele>2261.0</ele>
        <time>2019-10-12T17:24:21.899Z</time>
      </trkpt>
      <trkpt lat="20.22359333" lon="-98.73512">
        <ele>2261.0</ele>
        <time>2019-10-12T17:24:22.907Z</time>
      </trkpt>
      <trkpt lat="20.22358" lon="-98.73512667">
        <ele>2261.0</ele>
        <time>2019-10-12T17:24:23.914Z</time>
      </trkpt>
      <trkpt lat="20.22357" lon="-98.73513167">
        <ele>2262.0</ele>
        <time>2019-10-12T17:24:24.920Z</time>
      </trkpt>
      <trkpt lat="20.22356167" lon="-98.73513667">
        <ele>2262.0</ele>
        <time>2019-10-12T17:24:25.926Z</time>
      </trkpt>
      <trkpt lat="20.22355" lon="-98.73514333">
        <ele>2263.0</ele>
        <time>2019-10-12T17:24:26.929Z</time>
      </trkpt>
      <trkpt lat="20.22354667" lon="-98.73514667">
        <ele>2263.0</ele>
        <time>2019-10-12T17:24:27.933Z</time>
      </trkpt>
      <trkpt lat="20.22354167" lon="-98.73514833">
        <ele>2262.0</ele>
        <time>2019-10-12T17:24:28.941Z</time>
      </trkpt>
      <trkpt lat="20.22353667" lon="-98.73514667">
        <ele>2262.0</ele>
        <time>2019-10-12T17:24:29.948Z</time>
      </trkpt>
      <trkpt lat="20.22353167" lon="-98.73515">
        <ele>2262.0</ele>
        <time>2019-10-12T17:24:30.949Z</time>
      </trkpt>
      <trkpt lat="20.223525" lon="-98.73515">
        <ele>2262.0</ele>
        <time>2019-10-12T17:24:31.950Z</time>
      </trkpt>
      <trkpt lat="20.22351833" lon="-98.73515333">
        <ele>2261.0</ele>
        <time>2019-10-12T17:24:32.951Z</time>
      </trkpt>
      <trkpt lat="20.22351" lon="-98.73515667">
        <ele>2261.0</ele>
        <time>2019-10-12T17:24:33.952Z</time>
      </trkpt>
      <trkpt lat="20.22350167" lon="-98.73515833">
        <ele>2261.0</ele>
        <time>2019-10-12T17:24:34.952Z</time>
      </trkpt>
      <trkpt lat="20.22349167" lon="-98.73516333">
        <ele>2261.0</ele>
        <time>2019-10-12T17:24:35.953Z</time>
      </trkpt>
      <trkpt lat="20.22348167" lon="-98.735165">
        <ele>2260.0</ele>
        <time>2019-10-12T17:24:36.953Z</time>
      </trkpt>
      <trkpt lat="20.223475" lon="-98.73516833">
        <ele>2260.0</ele>
        <time>2019-10-12T17:24:37.953Z</time>
      </trkpt>
      <trkpt lat="20.22346833" lon="-98.73517">
        <ele>2259.0</ele>
        <time>2019-10-12T17:24:38.954Z</time>
      </trkpt>
      <trkpt lat="20.22345667" lon="-98.73517167">
        <ele>2259.0</ele>
        <time>2019-10-12T17:24:39.830Z</time>
      </trkpt>
      <trkpt lat="20.22344833" lon="-98.73517">
        <ele>2260.0</ele>
        <time>2019-10-12T17:24:40.831Z</time>
      </trkpt>
      <trkpt lat="20.22343833" lon="-98.73517333">
        <ele>2260.0</ele>
        <time>2019-10-12T17:24:41.831Z</time>
      </trkpt>
      <trkpt lat="20.22343" lon="-98.73517667">
        <ele>2261.0</ele>
        <time>2019-10-12T17:24:42.832Z</time>
      </trkpt>
      <trkpt lat="20.22342167" lon="-98.73518">
        <ele>2261.0</ele>
        <time>2019-10-12T17:24:43.833Z</time>
      </trkpt>
      <trkpt lat="20.22341333" lon="-98.73518167">
        <ele>2261.0</ele>
        <time>2019-10-12T17:24:44.834Z</time>
      </trkpt>
      <trkpt lat="20.22340167" lon="-98.73518167">
        <ele>2262.0</ele>
        <time>2019-10-12T17:24:45.835Z</time>
      </trkpt>
      <trkpt lat="20.22339333" lon="-98.73518167">
        <ele>2261.0</ele>
        <time>2019-10-12T17:24:46.839Z</time>
      </trkpt>
      <trkpt lat="20.22338667" lon="-98.73517833">
        <ele>2261.0</ele>
        <time>2019-10-12T17:24:47.843Z</time>
      </trkpt>
      <trkpt lat="20.22337833" lon="-98.73517333">
        <ele>2262.0</ele>
        <time>2019-10-12T17:24:48.847Z</time>
      </trkpt>
      <trkpt lat="20.22336833" lon="-98.73517">
        <ele>2262.0</ele>
        <time>2019-10-12T17:24:49.852Z</time>
      </trkpt>
      <trkpt lat="20.22336167" lon="-98.73516833">
        <ele>2263.0</ele>
        <time>2019-10-12T17:24:50.858Z</time>
      </trkpt>
      <trkpt lat="20.22335333" lon="-98.73516667">
        <ele>2263.0</ele>
        <time>2019-10-12T17:24:51.860Z</time>
      </trkpt>
      <trkpt lat="20.22334667" lon="-98.735165">
        <ele>2264.0</ele>
        <time>2019-10-12T17:24:52.861Z</time>
      </trkpt>
      <trkpt lat="20.22334333" lon="-98.735165">
        <ele>2265.0</ele>
        <time>2019-10-12T17:24:53.864Z</time>
      </trkpt>
      <trkpt lat="20.22334" lon="-98.73517">
        <ele>2265.0</ele>
        <time>2019-10-12T17:24:54.870Z</time>
      </trkpt>
      <trkpt lat="20.22334" lon="-98.735175">
        <ele>2266.0</ele>
        <time>2019-10-12T17:24:55.873Z</time>
      </trkpt>
      <trkpt lat="20.22334167" lon="-98.73517667">
        <ele>2266.0</ele>
        <time>2019-10-12T17:24:56.874Z</time>
      </trkpt>
      <trkpt lat="20.22334833" lon="-98.73517333">
        <ele>2266.0</ele>
        <time>2019-10-12T17:24:57.880Z</time>
      </trkpt>
      <trkpt lat="20.22335333" lon="-98.73517">
        <ele>2265.0</ele>
        <time>2019-10-12T17:24:58.884Z</time>
      </trkpt>
      <trkpt lat="20.22336167" lon="-98.73516833">
        <ele>2266.0</ele>
        <time>2019-10-12T17:24:59.891Z</time>
      </trkpt>
      <trkpt lat="20.22336333" lon="-98.73516667">
        <ele>2266.0</ele>
        <time>2019-10-12T17:25:00.899Z</time>
      </trkpt>
      <trkpt lat="20.223365" lon="-98.73516">
        <ele>2267.0</ele>
        <time>2019-10-12T17:25:01.907Z</time>
      </trkpt>
      <trkpt lat="20.22337333" lon="-98.73515333">
        <ele>2267.0</ele>
        <time>2019-10-12T17:25:02.910Z</time>
      </trkpt>
      <trkpt lat="20.22337333" lon="-98.73514833">
        <ele>2268.0</ele>
        <time>2019-10-12T17:25:03.916Z</time>
      </trkpt>
      <trkpt lat="20.22337167" lon="-98.73514667">
        <ele>2268.0</ele>
        <time>2019-10-12T17:25:04.920Z</time>
      </trkpt>
      <trkpt lat="20.22337167" lon="-98.735145">
        <ele>2268.0</ele>
        <time>2019-10-12T17:25:05.922Z</time>
      </trkpt>
      <trkpt lat="20.22337167" lon="-98.73514167">
        <ele>2268.0</ele>
        <time>2019-10-12T17:25:06.928Z</time>
      </trkpt>
      <trkpt lat="20.22337" lon="-98.73513833">
        <ele>2268.0</ele>
        <time>2019-10-12T17:25:07.934Z</time>
      </trkpt>
      <trkpt lat="20.223365" lon="-98.73513333">
        <ele>2268.0</ele>
        <time>2019-10-12T17:25:08.937Z</time>
      </trkpt>
      <trkpt lat="20.22335833" lon="-98.73513">
        <ele>2268.0</ele>
        <time>2019-10-12T17:25:09.944Z</time>
      </trkpt>
      <trkpt lat="20.22335333" lon="-98.735125">
        <ele>2267.0</ele>
        <time>2019-10-12T17:25:10.952Z</time>
      </trkpt>
      <trkpt lat="20.22334833" lon="-98.73512">
        <ele>2267.0</ele>
        <time>2019-10-12T17:25:11.830Z</time>
      </trkpt>
      <trkpt lat="20.22334667" lon="-98.735115">
        <ele>2267.0</ele>
        <time>2019-10-12T17:25:12.833Z</time>
      </trkpt>
      <trkpt lat="20.22334667" lon="-98.73511167">
        <ele>2267.0</ele>
        <time>2019-10-12T17:25:13.838Z</time>
      </trkpt>
      <trkpt lat="20.22335167" lon="-98.73510833">
        <ele>2267.0</ele>
        <time>2019-10-12T17:25:14.841Z</time>
      </trkpt>
      <trkpt lat="20.22335833" lon="-98.73510667">
        <ele>2266.0</ele>
        <time>2019-10-12T17:25:15.847Z</time>
      </trkpt>
      <trkpt lat="20.22336667" lon="-98.73510167">
        <ele>2266.0</ele>
        <time>2019-10-12T17:25:16.853Z</time>
      </trkpt>
      <trkpt lat="20.22337167" lon="-98.73509667">
        <ele>2267.0</ele>
        <time>2019-10-12T17:25:17.855Z</time>
      </trkpt>
      <trkpt lat="20.22337667" lon="-98.73509167">
        <ele>2267.0</ele>
        <time>2019-10-12T17:25:18.860Z</time>
      </trkpt>
      <trkpt lat="20.22338" lon="-98.73508833">
        <ele>2267.0</ele>
        <time>2019-10-12T17:25:19.860Z</time>
      </trkpt>
      <trkpt lat="20.22338333" lon="-98.73508167">
        <ele>2267.0</ele>
        <time>2019-10-12T17:25:20.861Z</time>
      </trkpt>
      <trkpt lat="20.22338667" lon="-98.73507667">
        <ele>2267.0</ele>
        <time>2019-10-12T17:25:21.862Z</time>
      </trkpt>
      <trkpt lat="20.22338833" lon="-98.735075">
        <ele>2267.0</ele>
        <time>2019-10-12T17:25:22.863Z</time>
      </trkpt>
      <trkpt lat="20.22339167" lon="-98.73507167">
        <ele>2267.0</ele>
        <time>2019-10-12T17:25:23.864Z</time>
      </trkpt>
      <trkpt lat="20.22339667" lon="-98.73506833">
        <ele>2268.0</ele>
        <time>2019-10-12T17:25:24.865Z</time>
      </trkpt>
      <trkpt lat="20.2234" lon="-98.73506333">
        <ele>2268.0</ele>
        <time>2019-10-12T17:25:25.865Z</time>
      </trkpt>
      <trkpt lat="20.2234" lon="-98.73505833">
        <ele>2268.0</ele>
        <time>2019-10-12T17:25:26.866Z</time>
      </trkpt>
      <trkpt lat="20.22340333" lon="-98.73505333">
        <ele>2269.0</ele>
        <time>2019-10-12T17:25:27.867Z</time>
      </trkpt>
      <trkpt lat="20.223405" lon="-98.73504833">
        <ele>2269.0</ele>
        <time>2019-10-12T17:25:28.868Z</time>
      </trkpt>
      <trkpt lat="20.22340833" lon="-98.735045">
        <ele>2269.0</ele>
        <time>2019-10-12T17:25:29.869Z</time>
      </trkpt>
      <trkpt lat="20.22341167" lon="-98.73504167">
        <ele>2268.0</ele>
        <time>2019-10-12T17:25:30.870Z</time>
      </trkpt>
      <trkpt lat="20.22341833" lon="-98.73503833">
        <ele>2268.0</ele>
        <time>2019-10-12T17:25:31.870Z</time>
      </trkpt>
      <trkpt lat="20.22342333" lon="-98.735035">
        <ele>2268.0</ele>
        <time>2019-10-12T17:25:32.871Z</time>
      </trkpt>
      <trkpt lat="20.22342667" lon="-98.73503">
        <ele>2268.0</ele>
        <time>2019-10-12T17:25:33.872Z</time>
      </trkpt>
      <trkpt lat="20.22342833" lon="-98.73502167">
        <ele>2268.0</ele>
        <time>2019-10-12T17:25:34.873Z</time>
      </trkpt>
      <trkpt lat="20.22342167" lon="-98.73501667">
        <ele>2269.0</ele>
        <time>2019-10-12T17:25:35.873Z</time>
      </trkpt>
      <trkpt lat="20.22342" lon="-98.73501">
        <ele>2269.0</ele>
        <time>2019-10-12T17:25:36.874Z</time>
      </trkpt>
      <trkpt lat="20.22342333" lon="-98.73500167">
        <ele>2269.0</ele>
        <time>2019-10-12T17:25:37.875Z</time>
      </trkpt>
      <trkpt lat="20.22342333" lon="-98.734995">
        <ele>2269.0</ele>
        <time>2019-10-12T17:25:38.880Z</time>
      </trkpt>
      <trkpt lat="20.22342333" lon="-98.73498667">
        <ele>2269.0</ele>
        <time>2019-10-12T17:25:39.885Z</time>
      </trkpt>
      <trkpt lat="20.22342333" lon="-98.73497833">
        <ele>2269.0</ele>
        <time>2019-10-12T17:25:40.892Z</time>
      </trkpt>
      <trkpt lat="20.223425" lon="-98.73497167">
        <ele>2269.0</ele>
        <time>2019-10-12T17:25:41.895Z</time>
      </trkpt>
      <trkpt lat="20.22342833" lon="-98.73496333">
        <ele>2270.0</ele>
        <time>2019-10-12T17:25:42.903Z</time>
      </trkpt>
      <trkpt lat="20.22342833" lon="-98.734955">
        <ele>2270.0</ele>
        <time>2019-10-12T17:25:43.910Z</time>
      </trkpt>
      <trkpt lat="20.22342833" lon="-98.73494833">
        <ele>2270.0</ele>
        <time>2019-10-12T17:25:44.914Z</time>
      </trkpt>
      <trkpt lat="20.22342833" lon="-98.73494167">
        <ele>2270.0</ele>
        <time>2019-10-12T17:25:45.918Z</time>
      </trkpt>
      <trkpt lat="20.22342833" lon="-98.73493333">
        <ele>2271.0</ele>
        <time>2019-10-12T17:25:46.924Z</time>
      </trkpt>
      <trkpt lat="20.22342667" lon="-98.73492333">
        <ele>2271.0</ele>
        <time>2019-10-12T17:25:47.929Z</time>
      </trkpt>
      <trkpt lat="20.22342667" lon="-98.73491667">
        <ele>2271.0</ele>
        <time>2019-10-12T17:25:48.932Z</time>
      </trkpt>
      <trkpt lat="20.223425" lon="-98.73491333">
        <ele>2271.0</ele>
        <time>2019-10-12T17:25:49.937Z</time>
      </trkpt>
      <trkpt lat="20.22342333" lon="-98.73491333">
        <ele>2272.0</ele>
        <time>2019-10-12T17:25:50.942Z</time>
      </trkpt>
      <trkpt lat="20.22342" lon="-98.734915">
        <ele>2272.0</ele>
        <time>2019-10-12T17:25:51.948Z</time>
      </trkpt>
      <trkpt lat="20.22341333" lon="-98.73491167">
        <ele>2272.0</ele>
        <time>2019-10-12T17:25:52.949Z</time>
      </trkpt>
      <trkpt lat="20.22340333" lon="-98.73491167">
        <ele>2273.0</ele>
        <time>2019-10-12T17:25:53.950Z</time>
      </trkpt>
      <trkpt lat="20.22339" lon="-98.73491667">
        <ele>2273.0</ele>
        <time>2019-10-12T17:25:54.951Z</time>
      </trkpt>
      <trkpt lat="20.22338167" lon="-98.73491833">
        <ele>2274.0</ele>
        <time>2019-10-12T17:25:55.952Z</time>
      </trkpt>
      <trkpt lat="20.22337333" lon="-98.734925">
        <ele>2275.0</ele>
        <time>2019-10-12T17:25:56.955Z</time>
      </trkpt>
      <trkpt lat="20.22336333" lon="-98.73493">
        <ele>2276.0</ele>
        <time>2019-10-12T17:25:57.834Z</time>
      </trkpt>
      <trkpt lat="20.223355" lon="-98.734935">
        <ele>2276.0</ele>
        <time>2019-10-12T17:25:58.837Z</time>
      </trkpt>
      <trkpt lat="20.223345" lon="-98.73493333">
        <ele>2275.0</ele>
        <time>2019-10-12T17:25:59.842Z</time>
      </trkpt>
      <trkpt lat="20.22333667" lon="-98.73493167">
        <ele>2275.0</ele>
        <time>2019-10-12T17:26:00.851Z</time>
      </trkpt>
      <trkpt lat="20.22332667" lon="-98.73493">
        <ele>2275.0</ele>
        <time>2019-10-12T17:26:01.853Z</time>
      </trkpt>
      <trkpt lat="20.22331833" lon="-98.73492833">
        <ele>2275.0</ele>
        <time>2019-10-12T17:26:02.860Z</time>
      </trkpt>
      <trkpt lat="20.22331167" lon="-98.73492667">
        <ele>2276.0</ele>
        <time>2019-10-12T17:26:03.865Z</time>
      </trkpt>
      <trkpt lat="20.22330667" lon="-98.73492667">
        <ele>2277.0</ele>
        <time>2019-10-12T17:26:04.871Z</time>
      </trkpt>
      <trkpt lat="20.22330333" lon="-98.734925">
        <ele>2277.0</ele>
        <time>2019-10-12T17:26:05.874Z</time>
      </trkpt>
      <trkpt lat="20.2233" lon="-98.73492">
        <ele>2277.0</ele>
        <time>2019-10-12T17:26:06.881Z</time>
      </trkpt>
      <trkpt lat="20.2233" lon="-98.73491667">
        <ele>2277.0</ele>
        <time>2019-10-12T17:26:07.884Z</time>
      </trkpt>
      <trkpt lat="20.22330333" lon="-98.73491333">
        <ele>2277.0</ele>
        <time>2019-10-12T17:26:08.891Z</time>
      </trkpt>
      <trkpt lat="20.22330333" lon="-98.73491">
        <ele>2277.0</ele>
        <time>2019-10-12T17:26:09.896Z</time>
      </trkpt>
      <trkpt lat="20.22330667" lon="-98.73490833">
        <ele>2278.0</ele>
        <time>2019-10-12T17:26:10.901Z</time>
      </trkpt>
      <trkpt lat="20.22330833" lon="-98.734905">
        <ele>2277.0</ele>
        <time>2019-10-12T17:26:11.908Z</time>
      </trkpt>
      <trkpt lat="20.22330667" lon="-98.73490167">
        <ele>2278.0</ele>
        <time>2019-10-12T17:26:12.914Z</time>
      </trkpt>
      <trkpt lat="20.22330167" lon="-98.73489833">
        <ele>2278.0</ele>
        <time>2019-10-12T17:26:13.920Z</time>
      </trkpt>
      <trkpt lat="20.22329833" lon="-98.73489333">
        <ele>2278.0</ele>
        <time>2019-10-12T17:26:14.923Z</time>
      </trkpt>
      <trkpt lat="20.22328833" lon="-98.73488833">
        <ele>2278.0</ele>
        <time>2019-10-12T17:26:15.928Z</time>
      </trkpt>
      <trkpt lat="20.22328333" lon="-98.73488167">
        <ele>2278.0</ele>
        <time>2019-10-12T17:26:16.931Z</time>
      </trkpt>
      <trkpt lat="20.22327667" lon="-98.73488167">
        <ele>2278.0</ele>
        <time>2019-10-12T17:26:17.936Z</time>
      </trkpt>
      <trkpt lat="20.22327167" lon="-98.73488333">
        <ele>2278.0</ele>
        <time>2019-10-12T17:26:18.941Z</time>
      </trkpt>
      <trkpt lat="20.22326333" lon="-98.73488">
        <ele>2279.0</ele>
        <time>2019-10-12T17:26:19.945Z</time>
      </trkpt>
      <trkpt lat="20.22326167" lon="-98.734875">
        <ele>2279.0</ele>
        <time>2019-10-12T17:26:20.951Z</time>
      </trkpt>
      <trkpt lat="20.22326" lon="-98.73486667">
        <ele>2279.0</ele>
        <time>2019-10-12T17:26:21.954Z</time>
      </trkpt>
      <trkpt lat="20.22325667" lon="-98.73485667">
        <ele>2279.0</ele>
        <time>2019-10-12T17:26:22.832Z</time>
      </trkpt>
      <trkpt lat="20.22325667" lon="-98.73485">
        <ele>2279.0</ele>
        <time>2019-10-12T17:26:23.836Z</time>
      </trkpt>
      <trkpt lat="20.22325667" lon="-98.73484667">
        <ele>2280.0</ele>
        <time>2019-10-12T17:26:24.839Z</time>
      </trkpt>
      <trkpt lat="20.22325667" lon="-98.73484167">
        <ele>2281.0</ele>
        <time>2019-10-12T17:26:25.841Z</time>
      </trkpt>
      <trkpt lat="20.22325667" lon="-98.734835">
        <ele>2282.0</ele>
        <time>2019-10-12T17:26:26.847Z</time>
      </trkpt>
      <trkpt lat="20.22325833" lon="-98.734825">
        <ele>2282.0</ele>
        <time>2019-10-12T17:26:27.852Z</time>
      </trkpt>
      <trkpt lat="20.22326" lon="-98.73482">
        <ele>2283.0</ele>
        <time>2019-10-12T17:26:28.856Z</time>
      </trkpt>
      <trkpt lat="20.223255" lon="-98.73481667">
        <ele>2284.0</ele>
        <time>2019-10-12T17:26:29.862Z</time>
      </trkpt>
      <trkpt lat="20.22324833" lon="-98.73481667">
        <ele>2284.0</ele>
        <time>2019-10-12T17:26:30.864Z</time>
      </trkpt>
      <trkpt lat="20.223245" lon="-98.73481333">
        <ele>2285.0</ele>
        <time>2019-10-12T17:26:31.865Z</time>
      </trkpt>
      <trkpt lat="20.22323667" lon="-98.73481167">
        <ele>2285.0</ele>
        <time>2019-10-12T17:26:32.868Z</time>
      </trkpt>
      <trkpt lat="20.22323167" lon="-98.73480833">
        <ele>2285.0</ele>
        <time>2019-10-12T17:26:33.874Z</time>
      </trkpt>
      <trkpt lat="20.22322667" lon="-98.734805">
        <ele>2285.0</ele>
        <time>2019-10-12T17:26:34.880Z</time>
      </trkpt>
      <trkpt lat="20.22322" lon="-98.73480167">
        <ele>2285.0</ele>
        <time>2019-10-12T17:26:35.887Z</time>
      </trkpt>
      <trkpt lat="20.22321667" lon="-98.73479667">
        <ele>2284.0</ele>
        <time>2019-10-12T17:26:36.892Z</time>
      </trkpt>
      <trkpt lat="20.22320667" lon="-98.73478833">
        <ele>2284.0</ele>
        <time>2019-10-12T17:26:37.895Z</time>
      </trkpt>
      <trkpt lat="20.223205" lon="-98.73477833">
        <ele>2284.0</ele>
        <time>2019-10-12T17:26:38.902Z</time>
      </trkpt>
      <trkpt lat="20.223215" lon="-98.73476833">
        <ele>2287.0</ele>
        <time>2019-10-12T17:26:39.908Z</time>
      </trkpt>
      <trkpt lat="20.22321833" lon="-98.73475667">
        <ele>2288.0</ele>
        <time>2019-10-12T17:26:40.913Z</time>
      </trkpt>
      <trkpt lat="20.22322333" lon="-98.73474667">
        <ele>2289.0</ele>
        <time>2019-10-12T17:26:41.914Z</time>
      </trkpt>
      <trkpt lat="20.22322" lon="-98.73473833">
        <ele>2289.0</ele>
        <time>2019-10-12T17:26:42.915Z</time>
      </trkpt>
      <trkpt lat="20.223215" lon="-98.73473167">
        <ele>2289.0</ele>
        <time>2019-10-12T17:26:43.916Z</time>
      </trkpt>
      <trkpt lat="20.22320667" lon="-98.734725">
        <ele>2289.0</ele>
        <time>2019-10-12T17:26:44.918Z</time>
      </trkpt>
      <trkpt lat="20.22320333" lon="-98.73471667">
        <ele>2289.0</ele>
        <time>2019-10-12T17:26:45.923Z</time>
      </trkpt>
      <trkpt lat="20.22319167" lon="-98.73470833">
        <ele>2288.0</ele>
        <time>2019-10-12T17:26:46.927Z</time>
      </trkpt>
      <trkpt lat="20.22318833" lon="-98.7347">
        <ele>2288.0</ele>
        <time>2019-10-12T17:26:47.929Z</time>
      </trkpt>
      <trkpt lat="20.22318667" lon="-98.734695">
        <ele>2288.0</ele>
        <time>2019-10-12T17:26:48.936Z</time>
      </trkpt>
      <trkpt lat="20.22318667" lon="-98.73469">
        <ele>2289.0</ele>
        <time>2019-10-12T17:26:49.941Z</time>
      </trkpt>
      <trkpt lat="20.223185" lon="-98.73468333">
        <ele>2289.0</ele>
        <time>2019-10-12T17:26:50.944Z</time>
      </trkpt>
      <trkpt lat="20.22317667" lon="-98.73468">
        <ele>2289.0</ele>
        <time>2019-10-12T17:26:51.950Z</time>
      </trkpt>
      <trkpt lat="20.22317167" lon="-98.73467333">
        <ele>2290.0</ele>
        <time>2019-10-12T17:26:52.833Z</time>
      </trkpt>
      <trkpt lat="20.223165" lon="-98.73466667">
        <ele>2289.0</ele>
        <time>2019-10-12T17:26:53.839Z</time>
      </trkpt>
      <trkpt lat="20.22316167" lon="-98.73466333">
        <ele>2290.0</ele>
        <time>2019-10-12T17:26:54.845Z</time>
      </trkpt>
      <trkpt lat="20.22315833" lon="-98.73465833">
        <ele>2289.0</ele>
        <time>2019-10-12T17:26:55.848Z</time>
      </trkpt>
      <trkpt lat="20.22315333" lon="-98.73465333">
        <ele>2289.0</ele>
        <time>2019-10-12T17:26:56.852Z</time>
      </trkpt>
      <trkpt lat="20.22315" lon="-98.73464833">
        <ele>2290.0</ele>
        <time>2019-10-12T17:26:57.855Z</time>
      </trkpt>
      <trkpt lat="20.223145" lon="-98.73464333">
        <ele>2290.0</ele>
        <time>2019-10-12T17:26:58.863Z</time>
      </trkpt>
      <trkpt lat="20.22313667" lon="-98.73463833">
        <ele>2290.0</ele>
        <time>2019-10-12T17:26:59.865Z</time>
      </trkpt>
      <trkpt lat="20.22312833" lon="-98.73463">
        <ele>2290.0</ele>
        <time>2019-10-12T17:27:00.866Z</time>
      </trkpt>
      <trkpt lat="20.22312167" lon="-98.73462">
        <ele>2290.0</ele>
        <time>2019-10-12T17:27:01.867Z</time>
      </trkpt>
      <trkpt lat="20.22311333" lon="-98.73461333">
        <ele>2289.0</ele>
        <time>2019-10-12T17:27:02.870Z</time>
      </trkpt>
      <trkpt lat="20.22310667" lon="-98.73460167">
        <ele>2289.0</ele>
        <time>2019-10-12T17:27:03.878Z</time>
      </trkpt>
      <trkpt lat="20.22310333" lon="-98.73459333">
        <ele>2290.0</ele>
        <time>2019-10-12T17:27:04.883Z</time>
      </trkpt>
      <trkpt lat="20.22310667" lon="-98.73458833">
        <ele>2291.0</ele>
        <time>2019-10-12T17:27:05.885Z</time>
      </trkpt>
      <trkpt lat="20.22310667" lon="-98.73458">
        <ele>2291.0</ele>
        <time>2019-10-12T17:27:06.893Z</time>
      </trkpt>
      <trkpt lat="20.223105" lon="-98.73456833">
        <ele>2291.0</ele>
        <time>2019-10-12T17:27:07.896Z</time>
      </trkpt>
      <trkpt lat="20.22310333" lon="-98.73456">
        <ele>2292.0</ele>
        <time>2019-10-12T17:27:08.901Z</time>
      </trkpt>
      <trkpt lat="20.2231" lon="-98.73455167">
        <ele>2292.0</ele>
        <time>2019-10-12T17:27:09.906Z</time>
      </trkpt>
      <trkpt lat="20.223095" lon="-98.73454167">
        <ele>2293.0</ele>
        <time>2019-10-12T17:27:10.913Z</time>
      </trkpt>
      <trkpt lat="20.223085" lon="-98.734535">
        <ele>2293.0</ele>
        <time>2019-10-12T17:27:11.919Z</time>
      </trkpt>
      <trkpt lat="20.22307667" lon="-98.73452833">
        <ele>2293.0</ele>
        <time>2019-10-12T17:27:12.922Z</time>
      </trkpt>
      <trkpt lat="20.22306833" lon="-98.73452167">
        <ele>2293.0</ele>
        <time>2019-10-12T17:27:13.927Z</time>
      </trkpt>
      <trkpt lat="20.22306" lon="-98.73451333">
        <ele>2293.0</ele>
        <time>2019-10-12T17:27:14.932Z</time>
      </trkpt>
      <trkpt lat="20.22305333" lon="-98.73450167">
        <ele>2293.0</ele>
        <time>2019-10-12T17:27:15.937Z</time>
      </trkpt>
      <trkpt lat="20.223055" lon="-98.73449333">
        <ele>2294.0</ele>
        <time>2019-10-12T17:27:16.941Z</time>
      </trkpt>
      <trkpt lat="20.22305333" lon="-98.73449">
        <ele>2294.0</ele>
        <time>2019-10-12T17:27:17.942Z</time>
      </trkpt>
      <trkpt lat="20.22304833" lon="-98.73448333">
        <ele>2294.0</ele>
        <time>2019-10-12T17:27:18.943Z</time>
      </trkpt>
      <trkpt lat="20.22303667" lon="-98.73447333">
        <ele>2294.0</ele>
        <time>2019-10-12T17:27:19.943Z</time>
      </trkpt>
      <trkpt lat="20.22302833" lon="-98.73446167">
        <ele>2295.0</ele>
        <time>2019-10-12T17:27:20.944Z</time>
      </trkpt>
      <trkpt lat="20.22301667" lon="-98.734455">
        <ele>2295.0</ele>
        <time>2019-10-12T17:27:21.945Z</time>
      </trkpt>
      <trkpt lat="20.22300667" lon="-98.73445167">
        <ele>2295.0</ele>
        <time>2019-10-12T17:27:22.945Z</time>
      </trkpt>
      <trkpt lat="20.223005" lon="-98.73445167">
        <ele>2296.0</ele>
        <time>2019-10-12T17:27:23.946Z</time>
      </trkpt>
      <trkpt lat="20.22300167" lon="-98.73444833">
        <ele>2295.0</ele>
        <time>2019-10-12T17:27:24.947Z</time>
      </trkpt>
      <trkpt lat="20.22300167" lon="-98.73444">
        <ele>2295.0</ele>
        <time>2019-10-12T17:27:25.948Z</time>
      </trkpt>
      <trkpt lat="20.223" lon="-98.73443167">
        <ele>2296.0</ele>
        <time>2019-10-12T17:27:26.949Z</time>
      </trkpt>
      <trkpt lat="20.22298667" lon="-98.734425">
        <ele>2296.0</ele>
        <time>2019-10-12T17:27:27.950Z</time>
      </trkpt>
      <trkpt lat="20.222975" lon="-98.73441833">
        <ele>2295.0</ele>
        <time>2019-10-12T17:27:28.950Z</time>
      </trkpt>
      <trkpt lat="20.22296833" lon="-98.734415">
        <ele>2295.0</ele>
        <time>2019-10-12T17:27:29.951Z</time>
      </trkpt>
      <trkpt lat="20.22296333" lon="-98.73441333">
        <ele>2295.0</ele>
        <time>2019-10-12T17:27:30.952Z</time>
      </trkpt>
      <trkpt lat="20.22296" lon="-98.73440833">
        <ele>2296.0</ele>
        <time>2019-10-12T17:27:31.953Z</time>
      </trkpt>
      <trkpt lat="20.22295667" lon="-98.734405">
        <ele>2296.0</ele>
        <time>2019-10-12T17:27:32.954Z</time>
      </trkpt>
      <trkpt lat="20.22295167" lon="-98.73439833">
        <ele>2296.0</ele>
        <time>2019-10-12T17:27:33.834Z</time>
      </trkpt>
      <trkpt lat="20.222945" lon="-98.73439333">
        <ele>2296.0</ele>
        <time>2019-10-12T17:27:34.840Z</time>
      </trkpt>
      <trkpt lat="20.22294" lon="-98.73439">
        <ele>2297.0</ele>
        <time>2019-10-12T17:27:35.842Z</time>
      </trkpt>
      <trkpt lat="20.222935" lon="-98.73438667">
        <ele>2297.0</ele>
        <time>2019-10-12T17:27:36.848Z</time>
      </trkpt>
      <trkpt lat="20.22293167" lon="-98.734385">
        <ele>2298.0</ele>
        <time>2019-10-12T17:27:37.853Z</time>
      </trkpt>
      <trkpt lat="20.22292667" lon="-98.73438333">
        <ele>2299.0</ele>
        <time>2019-10-12T17:27:38.858Z</time>
      </trkpt>
      <trkpt lat="20.22292" lon="-98.73438167">
        <ele>2299.0</ele>
        <time>2019-10-12T17:27:39.864Z</time>
      </trkpt>
      <trkpt lat="20.22291667" lon="-98.73437667">
        <ele>2299.0</ele>
        <time>2019-10-12T17:27:40.868Z</time>
      </trkpt>
      <trkpt lat="20.22290833" lon="-98.73437667">
        <ele>2300.0</ele>
        <time>2019-10-12T17:27:41.872Z</time>
      </trkpt>
      <trkpt lat="20.22289833" lon="-98.73437333">
        <ele>2300.0</ele>
        <time>2019-10-12T17:27:42.874Z</time>
      </trkpt>
      <trkpt lat="20.22289" lon="-98.73437167">
        <ele>2300.0</ele>
        <time>2019-10-12T17:27:43.880Z</time>
      </trkpt>
      <trkpt lat="20.22287833" lon="-98.73436833">
        <ele>2301.0</ele>
        <time>2019-10-12T17:27:44.884Z</time>
      </trkpt>
      <trkpt lat="20.222865" lon="-98.73436667">
        <ele>2301.0</ele>
        <time>2019-10-12T17:27:45.889Z</time>
      </trkpt>
      <trkpt lat="20.22285167" lon="-98.734365">
        <ele>2301.0</ele>
        <time>2019-10-12T17:27:46.894Z</time>
      </trkpt>
      <trkpt lat="20.22284333" lon="-98.73436667">
        <ele>2302.0</ele>
        <time>2019-10-12T17:27:47.899Z</time>
      </trkpt>
      <trkpt lat="20.22283833" lon="-98.734365">
        <ele>2302.0</ele>
        <time>2019-10-12T17:27:48.904Z</time>
      </trkpt>
      <trkpt lat="20.22283667" lon="-98.73436333">
        <ele>2303.0</ele>
        <time>2019-10-12T17:27:49.905Z</time>
      </trkpt>
      <trkpt lat="20.22283167" lon="-98.73435833">
        <ele>2304.0</ele>
        <time>2019-10-12T17:27:50.905Z</time>
      </trkpt>
      <trkpt lat="20.22282333" lon="-98.73435333">
        <ele>2304.0</ele>
        <time>2019-10-12T17:27:51.906Z</time>
      </trkpt>
      <trkpt lat="20.22281167" lon="-98.73434333">
        <ele>2304.0</ele>
        <time>2019-10-12T17:27:52.907Z</time>
      </trkpt>
      <trkpt lat="20.222805" lon="-98.73434">
        <ele>2304.0</ele>
        <time>2019-10-12T17:27:53.907Z</time>
      </trkpt>
      <trkpt lat="20.22279667" lon="-98.73433667">
        <ele>2305.0</ele>
        <time>2019-10-12T17:27:54.907Z</time>
      </trkpt>
      <trkpt lat="20.22279" lon="-98.73433333">
        <ele>2305.0</ele>
        <time>2019-10-12T17:27:55.908Z</time>
      </trkpt>
      <trkpt lat="20.22277667" lon="-98.73433333">
        <ele>2305.0</ele>
        <time>2019-10-12T17:27:56.908Z</time>
      </trkpt>
      <trkpt lat="20.22276333" lon="-98.73433333">
        <ele>2305.0</ele>
        <time>2019-10-12T17:27:57.908Z</time>
      </trkpt>
      <trkpt lat="20.22275333" lon="-98.73433">
        <ele>2306.0</ele>
        <time>2019-10-12T17:27:58.909Z</time>
      </trkpt>
      <trkpt lat="20.22273833" lon="-98.73433">
        <ele>2306.0</ele>
        <time>2019-10-12T17:27:59.909Z</time>
      </trkpt>
      <trkpt lat="20.22272667" lon="-98.734335">
        <ele>2307.0</ele>
        <time>2019-10-12T17:28:00.909Z</time>
      </trkpt>
      <trkpt lat="20.22271333" lon="-98.73433833">
        <ele>2307.0</ele>
        <time>2019-10-12T17:28:01.909Z</time>
      </trkpt>
      <trkpt lat="20.22270167" lon="-98.73434">
        <ele>2308.0</ele>
        <time>2019-10-12T17:28:02.910Z</time>
      </trkpt>
      <trkpt lat="20.22269333" lon="-98.73434">
        <ele>2309.0</ele>
        <time>2019-10-12T17:28:03.910Z</time>
      </trkpt>
      <trkpt lat="20.22268167" lon="-98.73433833">
        <ele>2309.0</ele>
        <time>2019-10-12T17:28:04.910Z</time>
      </trkpt>
      <trkpt lat="20.22267333" lon="-98.73433167">
        <ele>2310.0</ele>
        <time>2019-10-12T17:28:05.910Z</time>
      </trkpt>
      <trkpt lat="20.22266" lon="-98.73433167">
        <ele>2311.0</ele>
        <time>2019-10-12T17:28:06.910Z</time>
      </trkpt>
      <trkpt lat="20.22264333" lon="-98.73433667">
        <ele>2311.0</ele>
        <time>2019-10-12T17:28:07.911Z</time>
      </trkpt>
      <trkpt lat="20.22263167" lon="-98.73434333">
        <ele>2311.0</ele>
        <time>2019-10-12T17:28:08.911Z</time>
      </trkpt>
      <trkpt lat="20.22262" lon="-98.73434833">
        <ele>2312.0</ele>
        <time>2019-10-12T17:28:09.912Z</time>
      </trkpt>
      <trkpt lat="20.22260333" lon="-98.73435333">
        <ele>2312.0</ele>
        <time>2019-10-12T17:28:10.912Z</time>
      </trkpt>
      <trkpt lat="20.22259333" lon="-98.734355">
        <ele>2312.0</ele>
        <time>2019-10-12T17:28:11.913Z</time>
      </trkpt>
      <trkpt lat="20.22258167" lon="-98.73435667">
        <ele>2312.0</ele>
        <time>2019-10-12T17:28:12.914Z</time>
      </trkpt>
      <trkpt lat="20.22257167" lon="-98.734355">
        <ele>2313.0</ele>
        <time>2019-10-12T17:28:13.915Z</time>
      </trkpt>
      <trkpt lat="20.22255667" lon="-98.73435167">
        <ele>2313.0</ele>
        <time>2019-10-12T17:28:14.916Z</time>
      </trkpt>
      <trkpt lat="20.22254167" lon="-98.73435167">
        <ele>2314.0</ele>
        <time>2019-10-12T17:28:15.917Z</time>
      </trkpt>
      <trkpt lat="20.22253333" lon="-98.734355">
        <ele>2314.0</ele>
        <time>2019-10-12T17:28:16.917Z</time>
      </trkpt>
      <trkpt lat="20.22252" lon="-98.73436167">
        <ele>2314.0</ele>
        <time>2019-10-12T17:28:17.918Z</time>
      </trkpt>
      <trkpt lat="20.22251" lon="-98.73436167">
        <ele>2314.0</ele>
        <time>2019-10-12T17:28:18.919Z</time>
      </trkpt>
      <trkpt lat="20.22249833" lon="-98.73436">
        <ele>2314.0</ele>
        <time>2019-10-12T17:28:19.920Z</time>
      </trkpt>
      <trkpt lat="20.22247167" lon="-98.734355">
        <ele>2314.0</ele>
        <time>2019-10-12T17:28:20.921Z</time>
      </trkpt>
      <trkpt lat="20.22244667" lon="-98.73434833">
        <ele>2314.0</ele>
        <time>2019-10-12T17:28:21.921Z</time>
      </trkpt>
      <trkpt lat="20.22242833" lon="-98.73434167">
        <ele>2315.0</ele>
        <time>2019-10-12T17:28:22.922Z</time>
      </trkpt>
      <trkpt lat="20.22241167" lon="-98.73433667">
        <ele>2315.0</ele>
        <time>2019-10-12T17:28:23.922Z</time>
      </trkpt>
      <trkpt lat="20.22238667" lon="-98.734335">
        <ele>2316.0</ele>
        <time>2019-10-12T17:28:24.923Z</time>
      </trkpt>
      <trkpt lat="20.22237" lon="-98.73433167">
        <ele>2316.0</ele>
        <time>2019-10-12T17:28:25.927Z</time>
      </trkpt>
      <trkpt lat="20.222355" lon="-98.73433167">
        <ele>2316.0</ele>
        <time>2019-10-12T17:28:26.934Z</time>
      </trkpt>
      <trkpt lat="20.22234667" lon="-98.73433">
        <ele>2316.0</ele>
        <time>2019-10-12T17:28:27.939Z</time>
      </trkpt>
      <trkpt lat="20.22233833" lon="-98.73433333">
        <ele>2316.0</ele>
        <time>2019-10-12T17:28:28.942Z</time>
      </trkpt>
      <trkpt lat="20.222335" lon="-98.73433333">
        <ele>2316.0</ele>
        <time>2019-10-12T17:28:29.948Z</time>
      </trkpt>
      <trkpt lat="20.222325" lon="-98.734335">
        <ele>2316.0</ele>
        <time>2019-10-12T17:28:30.953Z</time>
      </trkpt>
      <trkpt lat="20.222305" lon="-98.73433167">
        <ele>2316.0</ele>
        <time>2019-10-12T17:28:31.835Z</time>
      </trkpt>
      <trkpt lat="20.22228333" lon="-98.73433">
        <ele>2316.0</ele>
        <time>2019-10-12T17:28:32.836Z</time>
      </trkpt>
      <trkpt lat="20.22226833" lon="-98.73433">
        <ele>2316.0</ele>
        <time>2019-10-12T17:28:33.841Z</time>
      </trkpt>
      <trkpt lat="20.22225833" lon="-98.73433">
        <ele>2317.0</ele>
        <time>2019-10-12T17:28:34.848Z</time>
      </trkpt>
      <trkpt lat="20.22225" lon="-98.73433667">
        <ele>2318.0</ele>
        <time>2019-10-12T17:28:35.852Z</time>
      </trkpt>
      <trkpt lat="20.22224" lon="-98.73434333">
        <ele>2318.0</ele>
        <time>2019-10-12T17:28:36.859Z</time>
      </trkpt>
      <trkpt lat="20.222225" lon="-98.73435333">
        <ele>2318.0</ele>
        <time>2019-10-12T17:28:37.864Z</time>
      </trkpt>
      <trkpt lat="20.22221333" lon="-98.73436167">
        <ele>2319.0</ele>
        <time>2019-10-12T17:28:38.870Z</time>
      </trkpt>
      <trkpt lat="20.22220167" lon="-98.734365">
        <ele>2319.0</ele>
        <time>2019-10-12T17:28:39.873Z</time>
      </trkpt>
      <trkpt lat="20.22219" lon="-98.73436333">
        <ele>2319.0</ele>
        <time>2019-10-12T17:28:40.874Z</time>
      </trkpt>
      <trkpt lat="20.22217667" lon="-98.73436167">
        <ele>2320.0</ele>
        <time>2019-10-12T17:28:41.875Z</time>
      </trkpt>
      <trkpt lat="20.222165" lon="-98.734365">
        <ele>2320.0</ele>
        <time>2019-10-12T17:28:42.875Z</time>
      </trkpt>
      <trkpt lat="20.22214833" lon="-98.73437167">
        <ele>2320.0</ele>
        <time>2019-10-12T17:28:43.876Z</time>
      </trkpt>
      <trkpt lat="20.22213833" lon="-98.73437167">
        <ele>2321.0</ele>
        <time>2019-10-12T17:28:44.877Z</time>
      </trkpt>
      <trkpt lat="20.22212667" lon="-98.73437167">
        <ele>2321.0</ele>
        <time>2019-10-12T17:28:45.877Z</time>
      </trkpt>
      <trkpt lat="20.222115" lon="-98.734375">
        <ele>2322.0</ele>
        <time>2019-10-12T17:28:46.879Z</time>
      </trkpt>
      <trkpt lat="20.222105" lon="-98.73438">
        <ele>2322.0</ele>
        <time>2019-10-12T17:28:47.882Z</time>
      </trkpt>
      <trkpt lat="20.222095" lon="-98.73439">
        <ele>2321.0</ele>
        <time>2019-10-12T17:28:48.888Z</time>
      </trkpt>
      <trkpt lat="20.222085" lon="-98.73440167">
        <ele>2321.0</ele>
        <time>2019-10-12T17:28:49.894Z</time>
      </trkpt>
      <trkpt lat="20.222075" lon="-98.73441167">
        <ele>2322.0</ele>
        <time>2019-10-12T17:28:50.896Z</time>
      </trkpt>
      <trkpt lat="20.22206" lon="-98.73441833">
        <ele>2322.0</ele>
        <time>2019-10-12T17:28:51.903Z</time>
      </trkpt>
      <trkpt lat="20.22204333" lon="-98.73442333">
        <ele>2323.0</ele>
        <time>2019-10-12T17:28:52.907Z</time>
      </trkpt>
      <trkpt lat="20.22203667" lon="-98.73442667">
        <ele>2323.0</ele>
        <time>2019-10-12T17:28:53.915Z</time>
      </trkpt>
      <trkpt lat="20.22202667" lon="-98.73443">
        <ele>2324.0</ele>
        <time>2019-10-12T17:28:54.921Z</time>
      </trkpt>
      <trkpt lat="20.22201667" lon="-98.73443167">
        <ele>2324.0</ele>
        <time>2019-10-12T17:28:55.926Z</time>
      </trkpt>
      <trkpt lat="20.222005" lon="-98.73443333">
        <ele>2324.0</ele>
        <time>2019-10-12T17:28:56.930Z</time>
      </trkpt>
      <trkpt lat="20.22199167" lon="-98.73443667">
        <ele>2324.0</ele>
        <time>2019-10-12T17:28:57.934Z</time>
      </trkpt>
      <trkpt lat="20.22197833" lon="-98.73443167">
        <ele>2325.0</ele>
        <time>2019-10-12T17:28:58.940Z</time>
      </trkpt>
      <trkpt lat="20.221965" lon="-98.734425">
        <ele>2325.0</ele>
        <time>2019-10-12T17:28:59.947Z</time>
      </trkpt>
      <trkpt lat="20.22195333" lon="-98.73442333">
        <ele>2326.0</ele>
        <time>2019-10-12T17:29:00.952Z</time>
      </trkpt>
      <trkpt lat="20.22193333" lon="-98.73442833">
        <ele>2326.0</ele>
        <time>2019-10-12T17:29:01.952Z</time>
      </trkpt>
      <trkpt lat="20.22192167" lon="-98.734435">
        <ele>2326.0</ele>
        <time>2019-10-12T17:29:02.953Z</time>
      </trkpt>
      <trkpt lat="20.22191333" lon="-98.73444167">
        <ele>2326.0</ele>
        <time>2019-10-12T17:29:03.954Z</time>
      </trkpt>
      <trkpt lat="20.22189" lon="-98.73444333">
        <ele>2326.0</ele>
        <time>2019-10-12T17:29:04.830Z</time>
      </trkpt>
      <trkpt lat="20.22188" lon="-98.73444167">
        <ele>2326.0</ele>
        <time>2019-10-12T17:29:05.833Z</time>
      </trkpt>
      <trkpt lat="20.22186667" lon="-98.73444">
        <ele>2326.0</ele>
        <time>2019-10-12T17:29:06.839Z</time>
      </trkpt>
      <trkpt lat="20.22184667" lon="-98.73444667">
        <ele>2326.0</ele>
        <time>2019-10-12T17:29:07.844Z</time>
      </trkpt>
      <trkpt lat="20.22182333" lon="-98.73444833">
        <ele>2326.0</ele>
        <time>2019-10-12T17:29:08.851Z</time>
      </trkpt>
      <trkpt lat="20.22180167" lon="-98.73444833">
        <ele>2326.0</ele>
        <time>2019-10-12T17:29:09.857Z</time>
      </trkpt>
      <trkpt lat="20.22178667" lon="-98.73445167">
        <ele>2326.0</ele>
        <time>2019-10-12T17:29:10.864Z</time>
      </trkpt>
      <trkpt lat="20.22177167" lon="-98.73445333">
        <ele>2326.0</ele>
        <time>2019-10-12T17:29:11.870Z</time>
      </trkpt>
      <trkpt lat="20.22175833" lon="-98.73445333">
        <ele>2325.0</ele>
        <time>2019-10-12T17:29:12.877Z</time>
      </trkpt>
      <trkpt lat="20.22174333" lon="-98.73445">
        <ele>2324.0</ele>
        <time>2019-10-12T17:29:13.881Z</time>
      </trkpt>
      <trkpt lat="20.22172833" lon="-98.73444333">
        <ele>2322.0</ele>
        <time>2019-10-12T17:29:14.883Z</time>
      </trkpt>
      <trkpt lat="20.22171167" lon="-98.73444">
        <ele>2322.0</ele>
        <time>2019-10-12T17:29:15.890Z</time>
      </trkpt>
      <trkpt lat="20.22169833" lon="-98.73444333">
        <ele>2321.0</ele>
        <time>2019-10-12T17:29:16.896Z</time>
      </trkpt>
      <trkpt lat="20.22168" lon="-98.73444833">
        <ele>2320.0</ele>
        <time>2019-10-12T17:29:17.902Z</time>
      </trkpt>
      <trkpt lat="20.22166167" lon="-98.73445">
        <ele>2320.0</ele>
        <time>2019-10-12T17:29:18.903Z</time>
      </trkpt>
      <trkpt lat="20.22164667" lon="-98.73445">
        <ele>2320.0</ele>
        <time>2019-10-12T17:29:19.904Z</time>
      </trkpt>
      <trkpt lat="20.22163833" lon="-98.73445">
        <ele>2320.0</ele>
        <time>2019-10-12T17:29:20.905Z</time>
      </trkpt>
      <trkpt lat="20.22163" lon="-98.73444333">
        <ele>2319.0</ele>
        <time>2019-10-12T17:29:21.906Z</time>
      </trkpt>
      <trkpt lat="20.22162333" lon="-98.73444333">
        <ele>2319.0</ele>
        <time>2019-10-12T17:29:22.906Z</time>
      </trkpt>
      <trkpt lat="20.22162" lon="-98.73443667">
        <ele>2319.0</ele>
        <time>2019-10-12T17:29:23.907Z</time>
      </trkpt>
      <trkpt lat="20.22160833" lon="-98.73442833">
        <ele>2319.0</ele>
        <time>2019-10-12T17:29:24.908Z</time>
      </trkpt>
      <trkpt lat="20.221595" lon="-98.734415">
        <ele>2318.0</ele>
        <time>2019-10-12T17:29:25.909Z</time>
      </trkpt>
      <trkpt lat="20.22158667" lon="-98.73439667">
        <ele>2318.0</ele>
        <time>2019-10-12T17:29:26.912Z</time>
      </trkpt>
      <trkpt lat="20.22157167" lon="-98.73438333">
        <ele>2316.0</ele>
        <time>2019-10-12T17:29:27.918Z</time>
      </trkpt>
      <trkpt lat="20.221565" lon="-98.73437">
        <ele>2316.0</ele>
        <time>2019-10-12T17:29:28.925Z</time>
      </trkpt>
      <trkpt lat="20.22156667" lon="-98.73435667">
        <ele>2316.0</ele>
        <time>2019-10-12T17:29:29.930Z</time>
      </trkpt>
      <trkpt lat="20.22155833" lon="-98.73434667">
        <ele>2316.0</ele>
        <time>2019-10-12T17:29:30.932Z</time>
      </trkpt>
      <trkpt lat="20.22155167" lon="-98.73433667">
        <ele>2316.0</ele>
        <time>2019-10-12T17:29:31.938Z</time>
      </trkpt>
      <trkpt lat="20.22154" lon="-98.73432833">
        <ele>2316.0</ele>
        <time>2019-10-12T17:29:32.943Z</time>
      </trkpt>
      <trkpt lat="20.22153" lon="-98.73431667">
        <ele>2315.0</ele>
        <time>2019-10-12T17:29:33.945Z</time>
      </trkpt>
      <trkpt lat="20.22152167" lon="-98.73430333">
        <ele>2315.0</ele>
        <time>2019-10-12T17:29:34.948Z</time>
      </trkpt>
      <trkpt lat="20.221515" lon="-98.73428833">
        <ele>2315.0</ele>
        <time>2019-10-12T17:29:35.953Z</time>
      </trkpt>
      <trkpt lat="20.22151333" lon="-98.73426667">
        <ele>2314.0</ele>
        <time>2019-10-12T17:29:36.833Z</time>
      </trkpt>
      <trkpt lat="20.22150667" lon="-98.73425167">
        <ele>2314.0</ele>
        <time>2019-10-12T17:29:37.837Z</time>
      </trkpt>
      <trkpt lat="20.22149333" lon="-98.73424">
        <ele>2314.0</ele>
        <time>2019-10-12T17:29:38.839Z</time>
      </trkpt>
      <trkpt lat="20.22149" lon="-98.734225">
        <ele>2314.0</ele>
        <time>2019-10-12T17:29:39.844Z</time>
      </trkpt>
      <trkpt lat="20.22148667" lon="-98.734215">
        <ele>2314.0</ele>
        <time>2019-10-12T17:29:40.849Z</time>
      </trkpt>
      <trkpt lat="20.22147833" lon="-98.73420667">
        <ele>2315.0</ele>
        <time>2019-10-12T17:29:41.852Z</time>
      </trkpt>
      <trkpt lat="20.22147167" lon="-98.73419167">
        <ele>2315.0</ele>
        <time>2019-10-12T17:29:42.853Z</time>
      </trkpt>
      <trkpt lat="20.22146" lon="-98.73418167">
        <ele>2315.0</ele>
        <time>2019-10-12T17:29:43.853Z</time>
      </trkpt>
      <trkpt lat="20.22144667" lon="-98.73418">
        <ele>2316.0</ele>
        <time>2019-10-12T17:29:44.854Z</time>
      </trkpt>
      <trkpt lat="20.22143167" lon="-98.73418333">
        <ele>2317.0</ele>
        <time>2019-10-12T17:29:45.854Z</time>
      </trkpt>
      <trkpt lat="20.221415" lon="-98.73419">
        <ele>2317.0</ele>
        <time>2019-10-12T17:29:46.854Z</time>
      </trkpt>
      <trkpt lat="20.221405" lon="-98.73419167">
        <ele>2318.0</ele>
        <time>2019-10-12T17:29:47.854Z</time>
      </trkpt>
      <trkpt lat="20.221395" lon="-98.73419667">
        <ele>2318.0</ele>
        <time>2019-10-12T17:29:48.857Z</time>
      </trkpt>
      <trkpt lat="20.22137667" lon="-98.73420333">
        <ele>2319.0</ele>
        <time>2019-10-12T17:29:49.863Z</time>
      </trkpt>
      <trkpt lat="20.22136833" lon="-98.7342">
        <ele>2319.0</ele>
        <time>2019-10-12T17:29:50.869Z</time>
      </trkpt>
      <trkpt lat="20.22135833" lon="-98.73419333">
        <ele>2318.0</ele>
        <time>2019-10-12T17:29:51.875Z</time>
      </trkpt>
      <trkpt lat="20.22135167" lon="-98.73418833">
        <ele>2318.0</ele>
        <time>2019-10-12T17:29:52.880Z</time>
      </trkpt>
      <trkpt lat="20.22134" lon="-98.73418667">
        <ele>2319.0</ele>
        <time>2019-10-12T17:29:53.882Z</time>
      </trkpt>
      <trkpt lat="20.221325" lon="-98.73419">
        <ele>2319.0</ele>
        <time>2019-10-12T17:29:54.882Z</time>
      </trkpt>
      <trkpt lat="20.22131333" lon="-98.73418667">
        <ele>2319.0</ele>
        <time>2019-10-12T17:29:55.882Z</time>
      </trkpt>
      <trkpt lat="20.22129833" lon="-98.73418">
        <ele>2319.0</ele>
        <time>2019-10-12T17:29:56.882Z</time>
      </trkpt>
      <trkpt lat="20.22128" lon="-98.734175">
        <ele>2320.0</ele>
        <time>2019-10-12T17:29:57.884Z</time>
      </trkpt>
      <trkpt lat="20.22126" lon="-98.73417333">
        <ele>2320.0</ele>
        <time>2019-10-12T17:29:58.885Z</time>
      </trkpt>
      <trkpt lat="20.22124333" lon="-98.73417167">
        <ele>2321.0</ele>
        <time>2019-10-12T17:29:59.888Z</time>
      </trkpt>
      <trkpt lat="20.22123333" lon="-98.73417167">
        <ele>2321.0</ele>
        <time>2019-10-12T17:30:00.892Z</time>
      </trkpt>
      <trkpt lat="20.22122" lon="-98.734175">
        <ele>2321.0</ele>
        <time>2019-10-12T17:30:01.900Z</time>
      </trkpt>
      <trkpt lat="20.22120333" lon="-98.73417667">
        <ele>2321.0</ele>
        <time>2019-10-12T17:30:02.906Z</time>
      </trkpt>
      <trkpt lat="20.22119" lon="-98.73418">
        <ele>2321.0</ele>
        <time>2019-10-12T17:30:03.912Z</time>
      </trkpt>
      <trkpt lat="20.22117167" lon="-98.73418167">
        <ele>2322.0</ele>
        <time>2019-10-12T17:30:04.919Z</time>
      </trkpt>
      <trkpt lat="20.22116333" lon="-98.73417667">
        <ele>2321.0</ele>
        <time>2019-10-12T17:30:05.923Z</time>
      </trkpt>
      <trkpt lat="20.22115333" lon="-98.73417667">
        <ele>2321.0</ele>
        <time>2019-10-12T17:30:06.925Z</time>
      </trkpt>
      <trkpt lat="20.22114167" lon="-98.73417833">
        <ele>2321.0</ele>
        <time>2019-10-12T17:30:07.926Z</time>
      </trkpt>
      <trkpt lat="20.22113167" lon="-98.734175">
        <ele>2321.0</ele>
        <time>2019-10-12T17:30:08.927Z</time>
      </trkpt>
      <trkpt lat="20.22111667" lon="-98.73417167">
        <ele>2321.0</ele>
        <time>2019-10-12T17:30:09.928Z</time>
      </trkpt>
      <trkpt lat="20.22109667" lon="-98.73417333">
        <ele>2322.0</ele>
        <time>2019-10-12T17:30:10.928Z</time>
      </trkpt>
      <trkpt lat="20.22108167" lon="-98.73417167">
        <ele>2322.0</ele>
        <time>2019-10-12T17:30:11.929Z</time>
      </trkpt>
      <trkpt lat="20.22106833" lon="-98.73417">
        <ele>2322.0</ele>
        <time>2019-10-12T17:30:12.929Z</time>
      </trkpt>
      <trkpt lat="20.22104333" lon="-98.73417">
        <ele>2323.0</ele>
        <time>2019-10-12T17:30:13.931Z</time>
      </trkpt>
      <trkpt lat="20.22101833" lon="-98.73417">
        <ele>2324.0</ele>
        <time>2019-10-12T17:30:14.932Z</time>
      </trkpt>
      <trkpt lat="20.22099667" lon="-98.73415833">
        <ele>2323.0</ele>
        <time>2019-10-12T17:30:15.938Z</time>
      </trkpt>
      <trkpt lat="20.22098167" lon="-98.73414833">
        <ele>2323.0</ele>
        <time>2019-10-12T17:30:16.945Z</time>
      </trkpt>
      <trkpt lat="20.22096833" lon="-98.73413833">
        <ele>2324.0</ele>
        <time>2019-10-12T17:30:17.952Z</time>
      </trkpt>
      <trkpt lat="20.22096333" lon="-98.73412833">
        <ele>2323.0</ele>
        <time>2019-10-12T17:30:18.832Z</time>
      </trkpt>
      <trkpt lat="20.22095667" lon="-98.734115">
        <ele>2323.0</ele>
        <time>2019-10-12T17:30:19.834Z</time>
      </trkpt>
      <trkpt lat="20.220945" lon="-98.73410833">
        <ele>2324.0</ele>
        <time>2019-10-12T17:30:20.840Z</time>
      </trkpt>
      <trkpt lat="20.22093667" lon="-98.73410333">
        <ele>2325.0</ele>
        <time>2019-10-12T17:30:21.848Z</time>
      </trkpt>
      <trkpt lat="20.22093333" lon="-98.734095">
        <ele>2325.0</ele>
        <time>2019-10-12T17:30:22.852Z</time>
      </trkpt>
      <trkpt lat="20.22092833" lon="-98.73408333">
        <ele>2325.0</ele>
        <time>2019-10-12T17:30:23.856Z</time>
      </trkpt>
      <trkpt lat="20.22092167" lon="-98.73407">
        <ele>2325.0</ele>
        <time>2019-10-12T17:30:24.859Z</time>
      </trkpt>
      <trkpt lat="20.22092333" lon="-98.73405333">
        <ele>2325.0</ele>
        <time>2019-10-12T17:30:25.865Z</time>
      </trkpt>
      <trkpt lat="20.22092167" lon="-98.73403833">
        <ele>2326.0</ele>
        <time>2019-10-12T17:30:26.871Z</time>
      </trkpt>
      <trkpt lat="20.22092667" lon="-98.73402333">
        <ele>2326.0</ele>
        <time>2019-10-12T17:30:27.877Z</time>
      </trkpt>
      <trkpt lat="20.22092667" lon="-98.73401">
        <ele>2326.0</ele>
        <time>2019-10-12T17:30:28.880Z</time>
      </trkpt>
      <trkpt lat="20.22093" lon="-98.73399667">
        <ele>2326.0</ele>
        <time>2019-10-12T17:30:29.881Z</time>
      </trkpt>
      <trkpt lat="20.22093167" lon="-98.73398333">
        <ele>2326.0</ele>
        <time>2019-10-12T17:30:30.885Z</time>
      </trkpt>
      <trkpt lat="20.22093333" lon="-98.733975">
        <ele>2327.0</ele>
        <time>2019-10-12T17:30:31.892Z</time>
      </trkpt>
      <trkpt lat="20.220935" lon="-98.73396833">
        <ele>2327.0</ele>
        <time>2019-10-12T17:30:32.897Z</time>
      </trkpt>
      <trkpt lat="20.22093667" lon="-98.73396333">
        <ele>2327.0</ele>
        <time>2019-10-12T17:30:33.901Z</time>
      </trkpt>
      <trkpt lat="20.22093833" lon="-98.73395667">
        <ele>2327.0</ele>
        <time>2019-10-12T17:30:34.908Z</time>
      </trkpt>
      <trkpt lat="20.22093667" lon="-98.73394667">
        <ele>2327.0</ele>
        <time>2019-10-12T17:30:35.915Z</time>
      </trkpt>
      <trkpt lat="20.22093333" lon="-98.73394">
        <ele>2327.0</ele>
        <time>2019-10-12T17:30:36.918Z</time>
      </trkpt>
      <trkpt lat="20.22093167" lon="-98.73393">
        <ele>2326.0</ele>
        <time>2019-10-12T17:30:37.919Z</time>
      </trkpt>
      <trkpt lat="20.22093333" lon="-98.73392167">
        <ele>2326.0</ele>
        <time>2019-10-12T17:30:38.923Z</time>
      </trkpt>
      <trkpt lat="20.22093833" lon="-98.73391167">
        <ele>2327.0</ele>
        <time>2019-10-12T17:30:39.928Z</time>
      </trkpt>
      <trkpt lat="20.22093833" lon="-98.73390333">
        <ele>2328.0</ele>
        <time>2019-10-12T17:30:40.931Z</time>
      </trkpt>
      <trkpt lat="20.22094333" lon="-98.73389333">
        <ele>2328.0</ele>
        <time>2019-10-12T17:30:41.937Z</time>
      </trkpt>
      <trkpt lat="20.22094333" lon="-98.733885">
        <ele>2328.0</ele>
        <time>2019-10-12T17:30:42.942Z</time>
      </trkpt>
      <trkpt lat="20.22094167" lon="-98.73387667">
        <ele>2328.0</ele>
        <time>2019-10-12T17:30:43.950Z</time>
      </trkpt>
      <trkpt lat="20.22093833" lon="-98.73386333">
        <ele>2328.0</ele>
        <time>2019-10-12T17:30:44.831Z</time>
      </trkpt>
      <trkpt lat="20.22093333" lon="-98.73385">
        <ele>2328.0</ele>
        <time>2019-10-12T17:30:45.832Z</time>
      </trkpt>
      <trkpt lat="20.22093" lon="-98.73384">
        <ele>2329.0</ele>
        <time>2019-10-12T17:30:46.835Z</time>
      </trkpt>
      <trkpt lat="20.22092833" lon="-98.73383">
        <ele>2329.0</ele>
        <time>2019-10-12T17:30:47.841Z</time>
      </trkpt>
      <trkpt lat="20.22093" lon="-98.73382">
        <ele>2329.0</ele>
        <time>2019-10-12T17:30:48.847Z</time>
      </trkpt>
      <trkpt lat="20.22093167" lon="-98.73381667">
        <ele>2329.0</ele>
        <time>2019-10-12T17:30:49.852Z</time>
      </trkpt>
      <trkpt lat="20.220935" lon="-98.73381333">
        <ele>2329.0</ele>
        <time>2019-10-12T17:30:50.857Z</time>
      </trkpt>
      <trkpt lat="20.22094" lon="-98.73380667">
        <ele>2328.0</ele>
        <time>2019-10-12T17:30:51.859Z</time>
      </trkpt>
      <trkpt lat="20.220945" lon="-98.73379833">
        <ele>2328.0</ele>
        <time>2019-10-12T17:30:52.866Z</time>
      </trkpt>
      <trkpt lat="20.22094833" lon="-98.73378667">
        <ele>2329.0</ele>
        <time>2019-10-12T17:30:53.869Z</time>
      </trkpt>
      <trkpt lat="20.22094833" lon="-98.73377667">
        <ele>2329.0</ele>
        <time>2019-10-12T17:30:54.874Z</time>
      </trkpt>
      <trkpt lat="20.22094667" lon="-98.73376667">
        <ele>2330.0</ele>
        <time>2019-10-12T17:30:55.880Z</time>
      </trkpt>
      <trkpt lat="20.22094667" lon="-98.73375667">
        <ele>2330.0</ele>
        <time>2019-10-12T17:30:56.886Z</time>
      </trkpt>
      <trkpt lat="20.22094667" lon="-98.73374833">
        <ele>2331.0</ele>
        <time>2019-10-12T17:30:57.889Z</time>
      </trkpt>
      <trkpt lat="20.22094833" lon="-98.73373833">
        <ele>2331.0</ele>
        <time>2019-10-12T17:30:58.897Z</time>
      </trkpt>
      <trkpt lat="20.22095" lon="-98.73372833">
        <ele>2332.0</ele>
        <time>2019-10-12T17:30:59.901Z</time>
      </trkpt>
      <trkpt lat="20.220945" lon="-98.733715">
        <ele>2332.0</ele>
        <time>2019-10-12T17:31:00.905Z</time>
      </trkpt>
      <trkpt lat="20.220935" lon="-98.73370667">
        <ele>2332.0</ele>
        <time>2019-10-12T17:31:01.906Z</time>
      </trkpt>
      <trkpt lat="20.22092667" lon="-98.73369833">
        <ele>2332.0</ele>
        <time>2019-10-12T17:31:02.907Z</time>
      </trkpt>
      <trkpt lat="20.22091333" lon="-98.73369167">
        <ele>2332.0</ele>
        <time>2019-10-12T17:31:03.908Z</time>
      </trkpt>
      <trkpt lat="20.2209" lon="-98.73368667">
        <ele>2332.0</ele>
        <time>2019-10-12T17:31:04.910Z</time>
      </trkpt>
      <trkpt lat="20.22088833" lon="-98.73368167">
        <ele>2332.0</ele>
        <time>2019-10-12T17:31:05.918Z</time>
      </trkpt>
      <trkpt lat="20.22087333" lon="-98.73368">
        <ele>2332.0</ele>
        <time>2019-10-12T17:31:06.925Z</time>
      </trkpt>
      <trkpt lat="20.220855" lon="-98.73367667">
        <ele>2333.0</ele>
        <time>2019-10-12T17:31:07.931Z</time>
      </trkpt>
      <trkpt lat="20.22084" lon="-98.73368">
        <ele>2333.0</ele>
        <time>2019-10-12T17:31:08.938Z</time>
      </trkpt>
      <trkpt lat="20.22083" lon="-98.73368167">
        <ele>2334.0</ele>
        <time>2019-10-12T17:31:09.944Z</time>
      </trkpt>
      <trkpt lat="20.22081833" lon="-98.73367833">
        <ele>2334.0</ele>
        <time>2019-10-12T17:31:10.947Z</time>
      </trkpt>
      <trkpt lat="20.22080333" lon="-98.73367">
        <ele>2334.0</ele>
        <time>2019-10-12T17:31:11.951Z</time>
      </trkpt>
      <trkpt lat="20.22078833" lon="-98.73365667">
        <ele>2334.0</ele>
        <time>2019-10-12T17:31:12.831Z</time>
      </trkpt>
      <trkpt lat="20.220775" lon="-98.73364167">
        <ele>2333.0</ele>
        <time>2019-10-12T17:31:13.838Z</time>
      </trkpt>
      <trkpt lat="20.22075833" lon="-98.73363">
        <ele>2332.0</ele>
        <time>2019-10-12T17:31:14.846Z</time>
      </trkpt>
      <trkpt lat="20.22074" lon="-98.73362333">
        <ele>2332.0</ele>
        <time>2019-10-12T17:31:15.851Z</time>
      </trkpt>
      <trkpt lat="20.22072667" lon="-98.73361167">
        <ele>2332.0</ele>
        <time>2019-10-12T17:31:16.853Z</time>
      </trkpt>
      <trkpt lat="20.22072" lon="-98.73360167">
        <ele>2331.0</ele>
        <time>2019-10-12T17:31:17.856Z</time>
      </trkpt>
      <trkpt lat="20.22071333" lon="-98.73358833">
        <ele>2331.0</ele>
        <time>2019-10-12T17:31:18.856Z</time>
      </trkpt>
      <trkpt lat="20.2207" lon="-98.73357667">
        <ele>2331.0</ele>
        <time>2019-10-12T17:31:19.857Z</time>
      </trkpt>
      <trkpt lat="20.22068833" lon="-98.73356667">
        <ele>2331.0</ele>
        <time>2019-10-12T17:31:20.858Z</time>
      </trkpt>
      <trkpt lat="20.220685" lon="-98.73356">
        <ele>2332.0</ele>
        <time>2019-10-12T17:31:21.859Z</time>
      </trkpt>
      <trkpt lat="20.22068333" lon="-98.73355333">
        <ele>2333.0</ele>
        <time>2019-10-12T17:31:22.860Z</time>
      </trkpt>
      <trkpt lat="20.22068" lon="-98.733545">
        <ele>2334.0</ele>
        <time>2019-10-12T17:31:23.860Z</time>
      </trkpt>
      <trkpt lat="20.22067167" lon="-98.73353">
        <ele>2334.0</ele>
        <time>2019-10-12T17:31:24.861Z</time>
      </trkpt>
      <trkpt lat="20.22065667" lon="-98.73351833">
        <ele>2334.0</ele>
        <time>2019-10-12T17:31:25.862Z</time>
      </trkpt>
      <trkpt lat="20.22064667" lon="-98.73350167">
        <ele>2334.0</ele>
        <time>2019-10-12T17:31:26.862Z</time>
      </trkpt>
      <trkpt lat="20.220635" lon="-98.73349">
        <ele>2334.0</ele>
        <time>2019-10-12T17:31:27.864Z</time>
      </trkpt>
      <trkpt lat="20.22062667" lon="-98.73348">
        <ele>2333.0</ele>
        <time>2019-10-12T17:31:28.867Z</time>
      </trkpt>
      <trkpt lat="20.22061667" lon="-98.73346833">
        <ele>2333.0</ele>
        <time>2019-10-12T17:31:29.873Z</time>
      </trkpt>
      <trkpt lat="20.220605" lon="-98.73345833">
        <ele>2332.0</ele>
        <time>2019-10-12T17:31:30.879Z</time>
      </trkpt>
      <trkpt lat="20.22059167" lon="-98.73345">
        <ele>2332.0</ele>
        <time>2019-10-12T17:31:31.880Z</time>
      </trkpt>
      <trkpt lat="20.22057833" lon="-98.73344667">
        <ele>2332.0</ele>
        <time>2019-10-12T17:31:32.886Z</time>
      </trkpt>
      <trkpt lat="20.22056" lon="-98.73344333">
        <ele>2331.0</ele>
        <time>2019-10-12T17:31:33.892Z</time>
      </trkpt>
      <trkpt lat="20.22053833" lon="-98.73344">
        <ele>2331.0</ele>
        <time>2019-10-12T17:31:34.899Z</time>
      </trkpt>
      <trkpt lat="20.22051667" lon="-98.73343667">
        <ele>2331.0</ele>
        <time>2019-10-12T17:31:35.905Z</time>
      </trkpt>
      <trkpt lat="20.220495" lon="-98.73342833">
        <ele>2330.0</ele>
        <time>2019-10-12T17:31:36.911Z</time>
      </trkpt>
      <trkpt lat="20.22047667" lon="-98.73341667">
        <ele>2330.0</ele>
        <time>2019-10-12T17:31:37.915Z</time>
      </trkpt>
      <trkpt lat="20.22046" lon="-98.73340833">
        <ele>2329.0</ele>
        <time>2019-10-12T17:31:38.917Z</time>
      </trkpt>
      <trkpt lat="20.22044" lon="-98.73339833">
        <ele>2328.0</ele>
        <time>2019-10-12T17:31:39.921Z</time>
      </trkpt>
      <trkpt lat="20.22041833" lon="-98.73339">
        <ele>2327.0</ele>
        <time>2019-10-12T17:31:40.926Z</time>
      </trkpt>
      <trkpt lat="20.22040167" lon="-98.73338">
        <ele>2327.0</ele>
        <time>2019-10-12T17:31:41.932Z</time>
      </trkpt>
      <trkpt lat="20.22038167" lon="-98.73336833">
        <ele>2327.0</ele>
        <time>2019-10-12T17:31:42.937Z</time>
      </trkpt>
      <trkpt lat="20.220365" lon="-98.73335333">
        <ele>2327.0</ele>
        <time>2019-10-12T17:31:43.939Z</time>
      </trkpt>
      <trkpt lat="20.22035167" lon="-98.73333833">
        <ele>2328.0</ele>
        <time>2019-10-12T17:31:44.945Z</time>
      </trkpt>
      <trkpt lat="20.22033667" lon="-98.73332167">
        <ele>2328.0</ele>
        <time>2019-10-12T17:31:45.952Z</time>
      </trkpt>
      <trkpt lat="20.22032333" lon="-98.73330667">
        <ele>2328.0</ele>
        <time>2019-10-12T17:31:46.831Z</time>
      </trkpt>
      <trkpt lat="20.22031167" lon="-98.73328833">
        <ele>2328.0</ele>
        <time>2019-10-12T17:31:47.835Z</time>
      </trkpt>
      <trkpt lat="20.22030667" lon="-98.73327">
        <ele>2328.0</ele>
        <time>2019-10-12T17:31:48.840Z</time>
      </trkpt>
      <trkpt lat="20.22030333" lon="-98.73324833">
        <ele>2328.0</ele>
        <time>2019-10-12T17:31:49.847Z</time>
      </trkpt>
      <trkpt lat="20.22030333" lon="-98.73322667">
        <ele>2327.0</ele>
        <time>2019-10-12T17:31:50.852Z</time>
      </trkpt>
      <trkpt lat="20.2203" lon="-98.733205">
        <ele>2327.0</ele>
        <time>2019-10-12T17:31:51.858Z</time>
      </trkpt>
      <trkpt lat="20.220295" lon="-98.73318167">
        <ele>2326.0</ele>
        <time>2019-10-12T17:31:52.863Z</time>
      </trkpt>
      <trkpt lat="20.22028333" lon="-98.733165">
        <ele>2326.0</ele>
        <time>2019-10-12T17:31:53.866Z</time>
      </trkpt>
      <trkpt lat="20.22027167" lon="-98.73314333">
        <ele>2326.0</ele>
        <time>2019-10-12T17:31:54.872Z</time>
      </trkpt>
      <trkpt lat="20.22025833" lon="-98.73312333">
        <ele>2326.0</ele>
        <time>2019-10-12T17:31:55.878Z</time>
      </trkpt>
      <trkpt lat="20.22024167" lon="-98.733105">
        <ele>2327.0</ele>
        <time>2019-10-12T17:31:56.878Z</time>
      </trkpt>
      <trkpt lat="20.22022" lon="-98.73309">
        <ele>2327.0</ele>
        <time>2019-10-12T17:31:57.879Z</time>
      </trkpt>
      <trkpt lat="20.22019167" lon="-98.73307667">
        <ele>2327.0</ele>
        <time>2019-10-12T17:31:58.881Z</time>
      </trkpt>
      <trkpt lat="20.22016833" lon="-98.73306333">
        <ele>2327.0</ele>
        <time>2019-10-12T17:31:59.884Z</time>
      </trkpt>
      <trkpt lat="20.22014833" lon="-98.73305833">
        <ele>2327.0</ele>
        <time>2019-10-12T17:32:00.886Z</time>
      </trkpt>
      <trkpt lat="20.22012667" lon="-98.73306167">
        <ele>2328.0</ele>
        <time>2019-10-12T17:32:01.887Z</time>
      </trkpt>
      <trkpt lat="20.22010333" lon="-98.73306667">
        <ele>2329.0</ele>
        <time>2019-10-12T17:32:02.887Z</time>
      </trkpt>
      <trkpt lat="20.22007833" lon="-98.73307333">
        <ele>2329.0</ele>
        <time>2019-10-12T17:32:03.888Z</time>
      </trkpt>
      <trkpt lat="20.22005833" lon="-98.73307667">
        <ele>2328.0</ele>
        <time>2019-10-12T17:32:04.889Z</time>
      </trkpt>
      <trkpt lat="20.22004167" lon="-98.73307667">
        <ele>2328.0</ele>
        <time>2019-10-12T17:32:05.890Z</time>
      </trkpt>
      <trkpt lat="20.22002" lon="-98.73308333">
        <ele>2328.0</ele>
        <time>2019-10-12T17:32:06.890Z</time>
      </trkpt>
      <trkpt lat="20.22" lon="-98.73309167">
        <ele>2329.0</ele>
        <time>2019-10-12T17:32:07.891Z</time>
      </trkpt>
      <trkpt lat="20.21998333" lon="-98.73309333">
        <ele>2329.0</ele>
        <time>2019-10-12T17:32:08.892Z</time>
      </trkpt>
      <trkpt lat="20.219965" lon="-98.73309833">
        <ele>2330.0</ele>
        <time>2019-10-12T17:32:09.893Z</time>
      </trkpt>
      <trkpt lat="20.219945" lon="-98.73310833">
        <ele>2331.0</ele>
        <time>2019-10-12T17:32:10.894Z</time>
      </trkpt>
      <trkpt lat="20.219925" lon="-98.73311333">
        <ele>2332.0</ele>
        <time>2019-10-12T17:32:11.897Z</time>
      </trkpt>
      <trkpt lat="20.2199" lon="-98.733125">
        <ele>2332.0</ele>
        <time>2019-10-12T17:32:12.903Z</time>
      </trkpt>
      <trkpt lat="20.21988167" lon="-98.73313333">
        <ele>2332.0</ele>
        <time>2019-10-12T17:32:13.910Z</time>
      </trkpt>
      <trkpt lat="20.219855" lon="-98.73314167">
        <ele>2332.0</ele>
        <time>2019-10-12T17:32:14.914Z</time>
      </trkpt>
      <trkpt lat="20.21983167" lon="-98.733145">
        <ele>2332.0</ele>
        <time>2019-10-12T17:32:15.920Z</time>
      </trkpt>
      <trkpt lat="20.21980833" lon="-98.73315167">
        <ele>2333.0</ele>
        <time>2019-10-12T17:32:16.923Z</time>
      </trkpt>
      <trkpt lat="20.21978667" lon="-98.73315667">
        <ele>2333.0</ele>
        <time>2019-10-12T17:32:17.930Z</time>
      </trkpt>
      <trkpt lat="20.21976167" lon="-98.73316">
        <ele>2332.0</ele>
        <time>2019-10-12T17:32:18.937Z</time>
      </trkpt>
      <trkpt lat="20.219745" lon="-98.733165">
        <ele>2331.0</ele>
        <time>2019-10-12T17:32:19.944Z</time>
      </trkpt>
      <trkpt lat="20.21973" lon="-98.73317">
        <ele>2331.0</ele>
        <time>2019-10-12T17:32:20.950Z</time>
      </trkpt>
      <trkpt lat="20.21971" lon="-98.73317833">
        <ele>2331.0</ele>
        <time>2019-10-12T17:32:21.830Z</time>
      </trkpt>
      <trkpt lat="20.21969333" lon="-98.73318833">
        <ele>2331.0</ele>
        <time>2019-10-12T17:32:22.835Z</time>
      </trkpt>
      <trkpt lat="20.21968" lon="-98.733195">
        <ele>2331.0</ele>
        <time>2019-10-12T17:32:23.838Z</time>
      </trkpt>
      <trkpt lat="20.21966167" lon="-98.73320333">
        <ele>2332.0</ele>
        <time>2019-10-12T17:32:24.838Z</time>
      </trkpt>
      <trkpt lat="20.21964833" lon="-98.73320833">
        <ele>2332.0</ele>
        <time>2019-10-12T17:32:25.839Z</time>
      </trkpt>
      <trkpt lat="20.21962667" lon="-98.73321833">
        <ele>2332.0</ele>
        <time>2019-10-12T17:32:26.839Z</time>
      </trkpt>
      <trkpt lat="20.21961167" lon="-98.73321667">
        <ele>2332.0</ele>
        <time>2019-10-12T17:32:27.839Z</time>
      </trkpt>
      <trkpt lat="20.21958667" lon="-98.73321667">
        <ele>2332.0</ele>
        <time>2019-10-12T17:32:28.839Z</time>
      </trkpt>
      <trkpt lat="20.21957" lon="-98.73322">
        <ele>2333.0</ele>
        <time>2019-10-12T17:32:29.840Z</time>
      </trkpt>
      <trkpt lat="20.219555" lon="-98.73322">
        <ele>2333.0</ele>
        <time>2019-10-12T17:32:30.840Z</time>
      </trkpt>
      <trkpt lat="20.219545" lon="-98.73321833">
        <ele>2333.0</ele>
        <time>2019-10-12T17:32:31.840Z</time>
      </trkpt>
      <trkpt lat="20.21953" lon="-98.73321833">
        <ele>2332.0</ele>
        <time>2019-10-12T17:32:32.840Z</time>
      </trkpt>
      <trkpt lat="20.219505" lon="-98.73321833">
        <ele>2332.0</ele>
        <time>2019-10-12T17:32:33.840Z</time>
      </trkpt>
      <trkpt lat="20.21947833" lon="-98.73321833">
        <ele>2333.0</ele>
        <time>2019-10-12T17:32:34.841Z</time>
      </trkpt>
      <trkpt lat="20.219455" lon="-98.73321833">
        <ele>2333.0</ele>
        <time>2019-10-12T17:32:35.842Z</time>
      </trkpt>
      <trkpt lat="20.21943333" lon="-98.73321333">
        <ele>2334.0</ele>
        <time>2019-10-12T17:32:36.842Z</time>
      </trkpt>
      <trkpt lat="20.21940667" lon="-98.73320667">
        <ele>2334.0</ele>
        <time>2019-10-12T17:32:37.844Z</time>
      </trkpt>
      <trkpt lat="20.219385" lon="-98.733195">
        <ele>2333.0</ele>
        <time>2019-10-12T17:32:38.845Z</time>
      </trkpt>
      <trkpt lat="20.21937" lon="-98.73318333">
        <ele>2333.0</ele>
        <time>2019-10-12T17:32:39.845Z</time>
      </trkpt>
      <trkpt lat="20.21935333" lon="-98.733175">
        <ele>2333.0</ele>
        <time>2019-10-12T17:32:40.846Z</time>
      </trkpt>
      <trkpt lat="20.21933833" lon="-98.73316667">
        <ele>2334.0</ele>
        <time>2019-10-12T17:32:41.847Z</time>
      </trkpt>
      <trkpt lat="20.219325" lon="-98.73315833">
        <ele>2334.0</ele>
        <time>2019-10-12T17:32:42.848Z</time>
      </trkpt>
      <trkpt lat="20.21930833" lon="-98.73315">
        <ele>2334.0</ele>
        <time>2019-10-12T17:32:43.849Z</time>
      </trkpt>
      <trkpt lat="20.21929333" lon="-98.73313833">
        <ele>2334.0</ele>
        <time>2019-10-12T17:32:44.850Z</time>
      </trkpt>
      <trkpt lat="20.21927833" lon="-98.73312">
        <ele>2334.0</ele>
        <time>2019-10-12T17:32:45.851Z</time>
      </trkpt>
      <trkpt lat="20.21926" lon="-98.73310667">
        <ele>2334.0</ele>
        <time>2019-10-12T17:32:46.851Z</time>
      </trkpt>
      <trkpt lat="20.219235" lon="-98.73309667">
        <ele>2334.0</ele>
        <time>2019-10-12T17:32:47.852Z</time>
      </trkpt>
      <trkpt lat="20.21921333" lon="-98.73308667">
        <ele>2335.0</ele>
        <time>2019-10-12T17:32:48.853Z</time>
      </trkpt>
      <trkpt lat="20.21919333" lon="-98.73307333">
        <ele>2336.0</ele>
        <time>2019-10-12T17:32:49.854Z</time>
      </trkpt>
      <trkpt lat="20.21917167" lon="-98.73305333">
        <ele>2336.0</ele>
        <time>2019-10-12T17:32:50.854Z</time>
      </trkpt>
      <trkpt lat="20.21915167" lon="-98.73303">
        <ele>2336.0</ele>
        <time>2019-10-12T17:32:51.854Z</time>
      </trkpt>
      <trkpt lat="20.21913667" lon="-98.73301">
        <ele>2336.0</ele>
        <time>2019-10-12T17:32:52.856Z</time>
      </trkpt>
      <trkpt lat="20.21912833" lon="-98.73298833">
        <ele>2336.0</ele>
        <time>2019-10-12T17:32:53.857Z</time>
      </trkpt>
      <trkpt lat="20.21912333" lon="-98.732965">
        <ele>2336.0</ele>
        <time>2019-10-12T17:32:54.858Z</time>
      </trkpt>
      <trkpt lat="20.21912167" lon="-98.73294333">
        <ele>2336.0</ele>
        <time>2019-10-12T17:32:55.858Z</time>
      </trkpt>
      <trkpt lat="20.21912" lon="-98.73292">
        <ele>2337.0</ele>
        <time>2019-10-12T17:32:56.859Z</time>
      </trkpt>
      <trkpt lat="20.21912333" lon="-98.73289667">
        <ele>2337.0</ele>
        <time>2019-10-12T17:32:57.860Z</time>
      </trkpt>
      <trkpt lat="20.21912333" lon="-98.73286667">
        <ele>2336.0</ele>
        <time>2019-10-12T17:32:58.860Z</time>
      </trkpt>
      <trkpt lat="20.21911833" lon="-98.73283833">
        <ele>2336.0</ele>
        <time>2019-10-12T17:32:59.864Z</time>
      </trkpt>
      <trkpt lat="20.21911667" lon="-98.73281333">
        <ele>2336.0</ele>
        <time>2019-10-12T17:33:00.872Z</time>
      </trkpt>
      <trkpt lat="20.219115" lon="-98.73279167">
        <ele>2337.0</ele>
        <time>2019-10-12T17:33:01.879Z</time>
      </trkpt>
      <trkpt lat="20.21911167" lon="-98.73277333">
        <ele>2337.0</ele>
        <time>2019-10-12T17:33:02.880Z</time>
      </trkpt>
      <trkpt lat="20.21911167" lon="-98.73275333">
        <ele>2337.0</ele>
        <time>2019-10-12T17:33:03.885Z</time>
      </trkpt>
      <trkpt lat="20.21911167" lon="-98.73273167">
        <ele>2337.0</ele>
        <time>2019-10-12T17:33:04.888Z</time>
      </trkpt>
      <trkpt lat="20.21910333" lon="-98.73271333">
        <ele>2337.0</ele>
        <time>2019-10-12T17:33:05.895Z</time>
      </trkpt>
      <trkpt lat="20.21908833" lon="-98.732695">
        <ele>2336.0</ele>
        <time>2019-10-12T17:33:06.901Z</time>
      </trkpt>
      <trkpt lat="20.21907333" lon="-98.732685">
        <ele>2336.0</ele>
        <time>2019-10-12T17:33:07.909Z</time>
      </trkpt>
      <trkpt lat="20.21906" lon="-98.732675">
        <ele>2335.0</ele>
        <time>2019-10-12T17:33:08.914Z</time>
      </trkpt>
      <trkpt lat="20.21904333" lon="-98.73266333">
        <ele>2335.0</ele>
        <time>2019-10-12T17:33:09.918Z</time>
      </trkpt>
      <trkpt lat="20.21902833" lon="-98.73265333">
        <ele>2334.0</ele>
        <time>2019-10-12T17:33:10.924Z</time>
      </trkpt>
      <trkpt lat="20.219015" lon="-98.73264">
        <ele>2334.0</ele>
        <time>2019-10-12T17:33:11.932Z</time>
      </trkpt>
      <trkpt lat="20.21900333" lon="-98.73262833">
        <ele>2333.0</ele>
        <time>2019-10-12T17:33:12.933Z</time>
      </trkpt>
      <trkpt lat="20.21898833" lon="-98.73261667">
        <ele>2333.0</ele>
        <time>2019-10-12T17:33:13.934Z</time>
      </trkpt>
      <trkpt lat="20.21897833" lon="-98.732605">
        <ele>2333.0</ele>
        <time>2019-10-12T17:33:14.936Z</time>
      </trkpt>
      <trkpt lat="20.21896667" lon="-98.73258833">
        <ele>2333.0</ele>
        <time>2019-10-12T17:33:15.936Z</time>
      </trkpt>
      <trkpt lat="20.21895667" lon="-98.73257">
        <ele>2333.0</ele>
        <time>2019-10-12T17:33:16.937Z</time>
      </trkpt>
      <trkpt lat="20.21894667" lon="-98.73255167">
        <ele>2332.0</ele>
        <time>2019-10-12T17:33:17.938Z</time>
      </trkpt>
      <trkpt lat="20.21893667" lon="-98.732535">
        <ele>2332.0</ele>
        <time>2019-10-12T17:33:18.939Z</time>
      </trkpt>
      <trkpt lat="20.21892833" lon="-98.73251833">
        <ele>2332.0</ele>
        <time>2019-10-12T17:33:19.940Z</time>
      </trkpt>
      <trkpt lat="20.21891833" lon="-98.732505">
        <ele>2331.0</ele>
        <time>2019-10-12T17:33:20.941Z</time>
      </trkpt>
      <trkpt lat="20.21890833" lon="-98.73249667">
        <ele>2331.0</ele>
        <time>2019-10-12T17:33:21.943Z</time>
      </trkpt>
      <trkpt lat="20.21889667" lon="-98.73249">
        <ele>2331.0</ele>
        <time>2019-10-12T17:33:22.949Z</time>
      </trkpt>
      <trkpt lat="20.21888" lon="-98.73248833">
        <ele>2331.0</ele>
        <time>2019-10-12T17:33:23.831Z</time>
      </trkpt>
      <trkpt lat="20.21886667" lon="-98.73248833">
        <ele>2332.0</ele>
        <time>2019-10-12T17:33:24.836Z</time>
      </trkpt>
      <trkpt lat="20.21885" lon="-98.73249167">
        <ele>2332.0</ele>
        <time>2019-10-12T17:33:25.841Z</time>
      </trkpt>
      <trkpt lat="20.21883" lon="-98.73249667">
        <ele>2331.0</ele>
        <time>2019-10-12T17:33:26.843Z</time>
      </trkpt>
      <trkpt lat="20.21881167" lon="-98.732505">
        <ele>2331.0</ele>
        <time>2019-10-12T17:33:27.850Z</time>
      </trkpt>
      <trkpt lat="20.21879833" lon="-98.73251833">
        <ele>2332.0</ele>
        <time>2019-10-12T17:33:28.854Z</time>
      </trkpt>
      <trkpt lat="20.21878" lon="-98.73252833">
        <ele>2332.0</ele>
        <time>2019-10-12T17:33:29.857Z</time>
      </trkpt>
      <trkpt lat="20.21875667" lon="-98.732535">
        <ele>2332.0</ele>
        <time>2019-10-12T17:33:30.862Z</time>
      </trkpt>
      <trkpt lat="20.21873667" lon="-98.73253667">
        <ele>2332.0</ele>
        <time>2019-10-12T17:33:31.867Z</time>
      </trkpt>
      <trkpt lat="20.218715" lon="-98.73253833">
        <ele>2332.0</ele>
        <time>2019-10-12T17:33:32.872Z</time>
      </trkpt>
      <trkpt lat="20.21869333" lon="-98.73254167">
        <ele>2331.0</ele>
        <time>2019-10-12T17:33:33.880Z</time>
      </trkpt>
      <trkpt lat="20.21866667" lon="-98.73254333">
        <ele>2331.0</ele>
        <time>2019-10-12T17:33:34.886Z</time>
      </trkpt>
      <trkpt lat="20.21864667" lon="-98.73254333">
        <ele>2331.0</ele>
        <time>2019-10-12T17:33:35.889Z</time>
      </trkpt>
      <trkpt lat="20.218625" lon="-98.732545">
        <ele>2331.0</ele>
        <time>2019-10-12T17:33:36.890Z</time>
      </trkpt>
      <trkpt lat="20.21859833" lon="-98.732545">
        <ele>2331.0</ele>
        <time>2019-10-12T17:33:37.891Z</time>
      </trkpt>
      <trkpt lat="20.218575" lon="-98.73254333">
        <ele>2331.0</ele>
        <time>2019-10-12T17:33:38.892Z</time>
      </trkpt>
      <trkpt lat="20.218555" lon="-98.73253667">
        <ele>2330.0</ele>
        <time>2019-10-12T17:33:39.893Z</time>
      </trkpt>
      <trkpt lat="20.21853833" lon="-98.732525">
        <ele>2329.0</ele>
        <time>2019-10-12T17:33:40.893Z</time>
      </trkpt>
      <trkpt lat="20.21852167" lon="-98.73251167">
        <ele>2329.0</ele>
        <time>2019-10-12T17:33:41.894Z</time>
      </trkpt>
      <trkpt lat="20.21850667" lon="-98.73249833">
        <ele>2329.0</ele>
        <time>2019-10-12T17:33:42.895Z</time>
      </trkpt>
      <trkpt lat="20.21848333" lon="-98.73248333">
        <ele>2329.0</ele>
        <time>2019-10-12T17:33:43.896Z</time>
      </trkpt>
      <trkpt lat="20.21845833" lon="-98.732465">
        <ele>2329.0</ele>
        <time>2019-10-12T17:33:44.897Z</time>
      </trkpt>
      <trkpt lat="20.21843667" lon="-98.73245167">
        <ele>2329.0</ele>
        <time>2019-10-12T17:33:45.904Z</time>
      </trkpt>
      <trkpt lat="20.21842333" lon="-98.73243333">
        <ele>2330.0</ele>
        <time>2019-10-12T17:33:46.910Z</time>
      </trkpt>
      <trkpt lat="20.21841167" lon="-98.73241167">
        <ele>2330.0</ele>
        <time>2019-10-12T17:33:47.913Z</time>
      </trkpt>
      <trkpt lat="20.21840167" lon="-98.73238667">
        <ele>2330.0</ele>
        <time>2019-10-12T17:33:48.919Z</time>
      </trkpt>
      <trkpt lat="20.218395" lon="-98.73235833">
        <ele>2329.0</ele>
        <time>2019-10-12T17:33:49.924Z</time>
      </trkpt>
      <trkpt lat="20.21839167" lon="-98.73233167">
        <ele>2329.0</ele>
        <time>2019-10-12T17:33:50.930Z</time>
      </trkpt>
      <trkpt lat="20.218395" lon="-98.73231">
        <ele>2329.0</ele>
        <time>2019-10-12T17:33:51.936Z</time>
      </trkpt>
      <trkpt lat="20.21838333" lon="-98.73228333">
        <ele>2330.0</ele>
        <time>2019-10-12T17:33:52.940Z</time>
      </trkpt>
      <trkpt lat="20.21838167" lon="-98.73225833">
        <ele>2330.0</ele>
        <time>2019-10-12T17:33:53.944Z</time>
      </trkpt>
      <trkpt lat="20.218385" lon="-98.73223167">
        <ele>2330.0</ele>
        <time>2019-10-12T17:33:54.946Z</time>
      </trkpt>
      <trkpt lat="20.218385" lon="-98.73220333">
        <ele>2330.0</ele>
        <time>2019-10-12T17:33:55.953Z</time>
      </trkpt>
      <trkpt lat="20.21838167" lon="-98.73217333">
        <ele>2330.0</ele>
        <time>2019-10-12T17:33:56.834Z</time>
      </trkpt>
      <trkpt lat="20.21838" lon="-98.73214667">
        <ele>2330.0</ele>
        <time>2019-10-12T17:33:57.839Z</time>
      </trkpt>
      <trkpt lat="20.21838" lon="-98.73212333">
        <ele>2330.0</ele>
        <time>2019-10-12T17:33:58.845Z</time>
      </trkpt>
      <trkpt lat="20.21838167" lon="-98.73210667">
        <ele>2330.0</ele>
        <time>2019-10-12T17:33:59.846Z</time>
      </trkpt>
      <trkpt lat="20.21838667" lon="-98.73209167">
        <ele>2330.0</ele>
        <time>2019-10-12T17:34:00.847Z</time>
      </trkpt>
      <trkpt lat="20.21838667" lon="-98.73207667">
        <ele>2329.0</ele>
        <time>2019-10-12T17:34:01.847Z</time>
      </trkpt>
      <trkpt lat="20.218385" lon="-98.73206">
        <ele>2329.0</ele>
        <time>2019-10-12T17:34:02.848Z</time>
      </trkpt>
      <trkpt lat="20.21838" lon="-98.73204333">
        <ele>2329.0</ele>
        <time>2019-10-12T17:34:03.848Z</time>
      </trkpt>
      <trkpt lat="20.21837667" lon="-98.73202333">
        <ele>2328.0</ele>
        <time>2019-10-12T17:34:04.850Z</time>
      </trkpt>
      <trkpt lat="20.21836833" lon="-98.73200167">
        <ele>2328.0</ele>
        <time>2019-10-12T17:34:05.851Z</time>
      </trkpt>
      <trkpt lat="20.21835667" lon="-98.73198333">
        <ele>2327.0</ele>
        <time>2019-10-12T17:34:06.851Z</time>
      </trkpt>
      <trkpt lat="20.21834667" lon="-98.73196333">
        <ele>2327.0</ele>
        <time>2019-10-12T17:34:07.852Z</time>
      </trkpt>
      <trkpt lat="20.21833667" lon="-98.73194">
        <ele>2327.0</ele>
        <time>2019-10-12T17:34:08.853Z</time>
      </trkpt>
      <trkpt lat="20.21832833" lon="-98.73191833">
        <ele>2327.0</ele>
        <time>2019-10-12T17:34:09.854Z</time>
      </trkpt>
      <trkpt lat="20.21832167" lon="-98.73189667">
        <ele>2327.0</ele>
        <time>2019-10-12T17:34:10.855Z</time>
      </trkpt>
      <trkpt lat="20.21831167" lon="-98.73187667">
        <ele>2327.0</ele>
        <time>2019-10-12T17:34:11.855Z</time>
      </trkpt>
      <trkpt lat="20.21829833" lon="-98.73185833">
        <ele>2327.0</ele>
        <time>2019-10-12T17:34:12.856Z</time>
      </trkpt>
      <trkpt lat="20.21828667" lon="-98.73184167">
        <ele>2326.0</ele>
        <time>2019-10-12T17:34:13.857Z</time>
      </trkpt>
      <trkpt lat="20.21827667" lon="-98.73182167">
        <ele>2326.0</ele>
        <time>2019-10-12T17:34:14.858Z</time>
      </trkpt>
      <trkpt lat="20.21826167" lon="-98.73179833">
        <ele>2325.0</ele>
        <time>2019-10-12T17:34:15.858Z</time>
      </trkpt>
      <trkpt lat="20.21824667" lon="-98.731775">
        <ele>2325.0</ele>
        <time>2019-10-12T17:34:16.863Z</time>
      </trkpt>
      <trkpt lat="20.21823167" lon="-98.73175333">
        <ele>2325.0</ele>
        <time>2019-10-12T17:34:17.869Z</time>
      </trkpt>
      <trkpt lat="20.21821833" lon="-98.73173833">
        <ele>2325.0</ele>
        <time>2019-10-12T17:34:18.876Z</time>
      </trkpt>
      <trkpt lat="20.218205" lon="-98.73172333">
        <ele>2325.0</ele>
        <time>2019-10-12T17:34:19.878Z</time>
      </trkpt>
      <trkpt lat="20.21819167" lon="-98.73170667">
        <ele>2325.0</ele>
        <time>2019-10-12T17:34:20.879Z</time>
      </trkpt>
      <trkpt lat="20.21818167" lon="-98.73169167">
        <ele>2324.0</ele>
        <time>2019-10-12T17:34:21.885Z</time>
      </trkpt>
      <trkpt lat="20.21816833" lon="-98.731675">
        <ele>2323.0</ele>
        <time>2019-10-12T17:34:22.887Z</time>
      </trkpt>
      <trkpt lat="20.218155" lon="-98.73165667">
        <ele>2323.0</ele>
        <time>2019-10-12T17:34:23.893Z</time>
      </trkpt>
      <trkpt lat="20.21814333" lon="-98.73163667">
        <ele>2323.0</ele>
        <time>2019-10-12T17:34:24.897Z</time>
      </trkpt>
      <trkpt lat="20.21813167" lon="-98.731615">
        <ele>2322.0</ele>
        <time>2019-10-12T17:34:25.901Z</time>
      </trkpt>
      <trkpt lat="20.21811667" lon="-98.73159333">
        <ele>2321.0</ele>
        <time>2019-10-12T17:34:26.908Z</time>
      </trkpt>
      <trkpt lat="20.2181" lon="-98.73156833">
        <ele>2320.0</ele>
        <time>2019-10-12T17:34:27.911Z</time>
      </trkpt>
      <trkpt lat="20.21808667" lon="-98.73154667">
        <ele>2320.0</ele>
        <time>2019-10-12T17:34:28.917Z</time>
      </trkpt>
      <trkpt lat="20.218075" lon="-98.731525">
        <ele>2319.0</ele>
        <time>2019-10-12T17:34:29.924Z</time>
      </trkpt>
      <trkpt lat="20.21807167" lon="-98.73150167">
        <ele>2319.0</ele>
        <time>2019-10-12T17:34:30.930Z</time>
      </trkpt>
      <trkpt lat="20.21807333" lon="-98.73147833">
        <ele>2319.0</ele>
        <time>2019-10-12T17:34:31.933Z</time>
      </trkpt>
      <trkpt lat="20.21807333" lon="-98.73145333">
        <ele>2319.0</ele>
        <time>2019-10-12T17:34:32.935Z</time>
      </trkpt>
      <trkpt lat="20.21806833" lon="-98.73142667">
        <ele>2319.0</ele>
        <time>2019-10-12T17:34:33.935Z</time>
      </trkpt>
      <trkpt lat="20.21805667" lon="-98.73140167">
        <ele>2319.0</ele>
        <time>2019-10-12T17:34:34.940Z</time>
      </trkpt>
      <trkpt lat="20.21804667" lon="-98.731375">
        <ele>2318.0</ele>
        <time>2019-10-12T17:34:35.942Z</time>
      </trkpt>
      <trkpt lat="20.218035" lon="-98.73135">
        <ele>2317.0</ele>
        <time>2019-10-12T17:34:36.948Z</time>
      </trkpt>
      <trkpt lat="20.21802" lon="-98.73132667">
        <ele>2316.0</ele>
        <time>2019-10-12T17:34:37.955Z</time>
      </trkpt>
      <trkpt lat="20.21800833" lon="-98.73129333">
        <ele>2315.0</ele>
        <time>2019-10-12T17:34:38.835Z</time>
      </trkpt>
      <trkpt lat="20.21799833" lon="-98.73126833">
        <ele>2315.0</ele>
        <time>2019-10-12T17:34:39.841Z</time>
      </trkpt>
      <trkpt lat="20.21799" lon="-98.73124667">
        <ele>2315.0</ele>
        <time>2019-10-12T17:34:40.847Z</time>
      </trkpt>
      <trkpt lat="20.21798167" lon="-98.73122">
        <ele>2315.0</ele>
        <time>2019-10-12T17:34:41.850Z</time>
      </trkpt>
      <trkpt lat="20.21797667" lon="-98.73119167">
        <ele>2315.0</ele>
        <time>2019-10-12T17:34:42.852Z</time>
      </trkpt>
      <trkpt lat="20.21796667" lon="-98.73116167">
        <ele>2315.0</ele>
        <time>2019-10-12T17:34:43.861Z</time>
      </trkpt>
      <trkpt lat="20.217965" lon="-98.73113">
        <ele>2315.0</ele>
        <time>2019-10-12T17:34:44.866Z</time>
      </trkpt>
      <trkpt lat="20.217965" lon="-98.7311">
        <ele>2315.0</ele>
        <time>2019-10-12T17:34:45.871Z</time>
      </trkpt>
      <trkpt lat="20.21795667" lon="-98.73107333">
        <ele>2315.0</ele>
        <time>2019-10-12T17:34:46.877Z</time>
      </trkpt>
      <trkpt lat="20.21795" lon="-98.731045">
        <ele>2315.0</ele>
        <time>2019-10-12T17:34:47.882Z</time>
      </trkpt>
      <trkpt lat="20.217945" lon="-98.73101333">
        <ele>2315.0</ele>
        <time>2019-10-12T17:34:48.885Z</time>
      </trkpt>
      <trkpt lat="20.21794167" lon="-98.73098667">
        <ele>2315.0</ele>
        <time>2019-10-12T17:34:49.886Z</time>
      </trkpt>
      <trkpt lat="20.21793833" lon="-98.73096833">
        <ele>2315.0</ele>
        <time>2019-10-12T17:34:50.886Z</time>
      </trkpt>
      <trkpt lat="20.21794" lon="-98.730945">
        <ele>2316.0</ele>
        <time>2019-10-12T17:34:51.887Z</time>
      </trkpt>
      <trkpt lat="20.21794833" lon="-98.73092167">
        <ele>2317.0</ele>
        <time>2019-10-12T17:34:52.887Z</time>
      </trkpt>
      <trkpt lat="20.21795667" lon="-98.730905">
        <ele>2317.0</ele>
        <time>2019-10-12T17:34:53.889Z</time>
      </trkpt>
      <trkpt lat="20.21795667" lon="-98.730885">
        <ele>2317.0</ele>
        <time>2019-10-12T17:34:54.889Z</time>
      </trkpt>
      <trkpt lat="20.217955" lon="-98.730865">
        <ele>2318.0</ele>
        <time>2019-10-12T17:34:55.890Z</time>
      </trkpt>
      <trkpt lat="20.21795167" lon="-98.73084333">
        <ele>2319.0</ele>
        <time>2019-10-12T17:34:56.891Z</time>
      </trkpt>
      <trkpt lat="20.21794667" lon="-98.73082167">
        <ele>2320.0</ele>
        <time>2019-10-12T17:34:57.892Z</time>
      </trkpt>
      <trkpt lat="20.21793667" lon="-98.73079833">
        <ele>2321.0</ele>
        <time>2019-10-12T17:34:58.893Z</time>
      </trkpt>
      <trkpt lat="20.21792333" lon="-98.73077667">
        <ele>2321.0</ele>
        <time>2019-10-12T17:34:59.894Z</time>
      </trkpt>
      <trkpt lat="20.217915" lon="-98.73074833">
        <ele>2322.0</ele>
        <time>2019-10-12T17:35:00.894Z</time>
      </trkpt>
      <trkpt lat="20.21790833" lon="-98.73071833">
        <ele>2322.0</ele>
        <time>2019-10-12T17:35:01.895Z</time>
      </trkpt>
      <trkpt lat="20.217905" lon="-98.73068167">
        <ele>2321.0</ele>
        <time>2019-10-12T17:35:02.895Z</time>
      </trkpt>
      <trkpt lat="20.21790167" lon="-98.730645">
        <ele>2320.0</ele>
        <time>2019-10-12T17:35:03.896Z</time>
      </trkpt>
      <trkpt lat="20.21789167" lon="-98.73061">
        <ele>2320.0</ele>
        <time>2019-10-12T17:35:04.898Z</time>
      </trkpt>
      <trkpt lat="20.21788333" lon="-98.73057667">
        <ele>2319.0</ele>
        <time>2019-10-12T17:35:05.898Z</time>
      </trkpt>
      <trkpt lat="20.21787667" lon="-98.730545">
        <ele>2319.0</ele>
        <time>2019-10-12T17:35:06.899Z</time>
      </trkpt>
      <trkpt lat="20.217875" lon="-98.73051333">
        <ele>2319.0</ele>
        <time>2019-10-12T17:35:07.899Z</time>
      </trkpt>
      <trkpt lat="20.21787333" lon="-98.73048333">
        <ele>2319.0</ele>
        <time>2019-10-12T17:35:08.900Z</time>
      </trkpt>
      <trkpt lat="20.21787333" lon="-98.73045833">
        <ele>2319.0</ele>
        <time>2019-10-12T17:35:09.902Z</time>
      </trkpt>
      <trkpt lat="20.21787167" lon="-98.73043667">
        <ele>2320.0</ele>
        <time>2019-10-12T17:35:10.903Z</time>
      </trkpt>
      <trkpt lat="20.21786833" lon="-98.73041167">
        <ele>2320.0</ele>
        <time>2019-10-12T17:35:11.904Z</time>
      </trkpt>
      <trkpt lat="20.21786167" lon="-98.73038667">
        <ele>2320.0</ele>
        <time>2019-10-12T17:35:12.905Z</time>
      </trkpt>
      <trkpt lat="20.21785" lon="-98.73036167">
        <ele>2321.0</ele>
        <time>2019-10-12T17:35:13.905Z</time>
      </trkpt>
      <trkpt lat="20.21784167" lon="-98.73033333">
        <ele>2320.0</ele>
        <time>2019-10-12T17:35:14.906Z</time>
      </trkpt>
      <trkpt lat="20.217835" lon="-98.73030333">
        <ele>2320.0</ele>
        <time>2019-10-12T17:35:15.907Z</time>
      </trkpt>
      <trkpt lat="20.21783333" lon="-98.73027667">
        <ele>2320.0</ele>
        <time>2019-10-12T17:35:16.907Z</time>
      </trkpt>
      <trkpt lat="20.21783333" lon="-98.73025167">
        <ele>2320.0</ele>
        <time>2019-10-12T17:35:17.908Z</time>
      </trkpt>
      <trkpt lat="20.21783333" lon="-98.73023167">
        <ele>2320.0</ele>
        <time>2019-10-12T17:35:18.908Z</time>
      </trkpt>
      <trkpt lat="20.21783167" lon="-98.73021167">
        <ele>2321.0</ele>
        <time>2019-10-12T17:35:19.908Z</time>
      </trkpt>
      <trkpt lat="20.21781667" lon="-98.73019333">
        <ele>2321.0</ele>
        <time>2019-10-12T17:35:20.909Z</time>
      </trkpt>
      <trkpt lat="20.21781167" lon="-98.73017667">
        <ele>2321.0</ele>
        <time>2019-10-12T17:35:21.909Z</time>
      </trkpt>
      <trkpt lat="20.21780167" lon="-98.73016333">
        <ele>2321.0</ele>
        <time>2019-10-12T17:35:22.910Z</time>
      </trkpt>
      <trkpt lat="20.217795" lon="-98.73014833">
        <ele>2322.0</ele>
        <time>2019-10-12T17:35:23.910Z</time>
      </trkpt>
      <trkpt lat="20.21778167" lon="-98.73013333">
        <ele>2321.0</ele>
        <time>2019-10-12T17:35:24.910Z</time>
      </trkpt>
      <trkpt lat="20.217765" lon="-98.73011667">
        <ele>2320.0</ele>
        <time>2019-10-12T17:35:25.911Z</time>
      </trkpt>
      <trkpt lat="20.21775667" lon="-98.73010167">
        <ele>2319.0</ele>
        <time>2019-10-12T17:35:26.913Z</time>
      </trkpt>
      <trkpt lat="20.21774833" lon="-98.73009333">
        <ele>2318.0</ele>
        <time>2019-10-12T17:35:27.920Z</time>
      </trkpt>
      <trkpt lat="20.21773833" lon="-98.73007833">
        <ele>2318.0</ele>
        <time>2019-10-12T17:35:28.924Z</time>
      </trkpt>
      <trkpt lat="20.21773" lon="-98.73006">
        <ele>2318.0</ele>
        <time>2019-10-12T17:35:29.931Z</time>
      </trkpt>
      <trkpt lat="20.21771833" lon="-98.73004333">
        <ele>2319.0</ele>
        <time>2019-10-12T17:35:30.933Z</time>
      </trkpt>
      <trkpt lat="20.21770833" lon="-98.73002">
        <ele>2318.0</ele>
        <time>2019-10-12T17:35:31.934Z</time>
      </trkpt>
      <trkpt lat="20.2177" lon="-98.73">
        <ele>2318.0</ele>
        <time>2019-10-12T17:35:32.941Z</time>
      </trkpt>
      <trkpt lat="20.21769" lon="-98.72997667">
        <ele>2317.0</ele>
        <time>2019-10-12T17:35:33.945Z</time>
      </trkpt>
      <trkpt lat="20.21768" lon="-98.72995333">
        <ele>2317.0</ele>
        <time>2019-10-12T17:35:34.950Z</time>
      </trkpt>
      <trkpt lat="20.21767167" lon="-98.72993333">
        <ele>2317.0</ele>
        <time>2019-10-12T17:35:35.832Z</time>
      </trkpt>
      <trkpt lat="20.21765667" lon="-98.72991667">
        <ele>2317.0</ele>
        <time>2019-10-12T17:35:36.838Z</time>
      </trkpt>
      <trkpt lat="20.21764" lon="-98.72990167">
        <ele>2318.0</ele>
        <time>2019-10-12T17:35:37.843Z</time>
      </trkpt>
      <trkpt lat="20.21762833" lon="-98.72988667">
        <ele>2318.0</ele>
        <time>2019-10-12T17:35:38.850Z</time>
      </trkpt>
      <trkpt lat="20.217615" lon="-98.729875">
        <ele>2318.0</ele>
        <time>2019-10-12T17:35:39.851Z</time>
      </trkpt>
      <trkpt lat="20.217605" lon="-98.72986333">
        <ele>2319.0</ele>
        <time>2019-10-12T17:35:40.851Z</time>
      </trkpt>
      <trkpt lat="20.217595" lon="-98.72985333">
        <ele>2319.0</ele>
        <time>2019-10-12T17:35:41.852Z</time>
      </trkpt>
      <trkpt lat="20.21758" lon="-98.72984667">
        <ele>2320.0</ele>
        <time>2019-10-12T17:35:42.852Z</time>
      </trkpt>
      <trkpt lat="20.21756333" lon="-98.72984">
        <ele>2320.0</ele>
        <time>2019-10-12T17:35:43.852Z</time>
      </trkpt>
      <trkpt lat="20.21754833" lon="-98.72983833">
        <ele>2320.0</ele>
        <time>2019-10-12T17:35:44.852Z</time>
      </trkpt>
      <trkpt lat="20.21753" lon="-98.72984">
        <ele>2321.0</ele>
        <time>2019-10-12T17:35:45.853Z</time>
      </trkpt>
      <trkpt lat="20.21750667" lon="-98.729845">
        <ele>2321.0</ele>
        <time>2019-10-12T17:35:46.853Z</time>
      </trkpt>
      <trkpt lat="20.21748833" lon="-98.729845">
        <ele>2321.0</ele>
        <time>2019-10-12T17:35:47.853Z</time>
      </trkpt>
      <trkpt lat="20.21747" lon="-98.72984333">
        <ele>2320.0</ele>
        <time>2019-10-12T17:35:48.854Z</time>
      </trkpt>
      <trkpt lat="20.21745333" lon="-98.72984833">
        <ele>2320.0</ele>
        <time>2019-10-12T17:35:49.854Z</time>
      </trkpt>
      <trkpt lat="20.21743167" lon="-98.72985">
        <ele>2321.0</ele>
        <time>2019-10-12T17:35:50.854Z</time>
      </trkpt>
      <trkpt lat="20.21740667" lon="-98.72985167">
        <ele>2320.0</ele>
        <time>2019-10-12T17:35:51.855Z</time>
      </trkpt>
      <trkpt lat="20.217385" lon="-98.72985167">
        <ele>2320.0</ele>
        <time>2019-10-12T17:35:52.855Z</time>
      </trkpt>
      <trkpt lat="20.21737167" lon="-98.72985">
        <ele>2320.0</ele>
        <time>2019-10-12T17:35:53.855Z</time>
      </trkpt>
      <trkpt lat="20.21736333" lon="-98.729845">
        <ele>2320.0</ele>
        <time>2019-10-12T17:35:54.862Z</time>
      </trkpt>
      <trkpt lat="20.21734833" lon="-98.72984">
        <ele>2321.0</ele>
        <time>2019-10-12T17:35:55.866Z</time>
      </trkpt>
      <trkpt lat="20.21733" lon="-98.72983167">
        <ele>2321.0</ele>
        <time>2019-10-12T17:35:56.869Z</time>
      </trkpt>
      <trkpt lat="20.21731167" lon="-98.72982167">
        <ele>2322.0</ele>
        <time>2019-10-12T17:35:57.874Z</time>
      </trkpt>
      <trkpt lat="20.21729" lon="-98.72981167">
        <ele>2321.0</ele>
        <time>2019-10-12T17:35:58.878Z</time>
      </trkpt>
      <trkpt lat="20.21727833" lon="-98.72980667">
        <ele>2322.0</ele>
        <time>2019-10-12T17:35:59.883Z</time>
      </trkpt>
      <trkpt lat="20.217265" lon="-98.729805">
        <ele>2323.0</ele>
        <time>2019-10-12T17:36:00.889Z</time>
      </trkpt>
      <trkpt lat="20.21725167" lon="-98.729805">
        <ele>2323.0</ele>
        <time>2019-10-12T17:36:01.891Z</time>
      </trkpt>
      <trkpt lat="20.217235" lon="-98.729805">
        <ele>2323.0</ele>
        <time>2019-10-12T17:36:02.896Z</time>
      </trkpt>
      <trkpt lat="20.21722" lon="-98.72980667">
        <ele>2323.0</ele>
        <time>2019-10-12T17:36:03.902Z</time>
      </trkpt>
      <trkpt lat="20.21720167" lon="-98.72980667">
        <ele>2322.0</ele>
        <time>2019-10-12T17:36:04.905Z</time>
      </trkpt>
      <trkpt lat="20.21718167" lon="-98.729805">
        <ele>2322.0</ele>
        <time>2019-10-12T17:36:05.912Z</time>
      </trkpt>
      <trkpt lat="20.217165" lon="-98.72980833">
        <ele>2322.0</ele>
        <time>2019-10-12T17:36:06.919Z</time>
      </trkpt>
      <trkpt lat="20.21714667" lon="-98.72981167">
        <ele>2322.0</ele>
        <time>2019-10-12T17:36:07.922Z</time>
      </trkpt>
      <trkpt lat="20.21713333" lon="-98.729815">
        <ele>2322.0</ele>
        <time>2019-10-12T17:36:08.923Z</time>
      </trkpt>
      <trkpt lat="20.217125" lon="-98.72982333">
        <ele>2322.0</ele>
        <time>2019-10-12T17:36:09.928Z</time>
      </trkpt>
      <trkpt lat="20.21712" lon="-98.72983667">
        <ele>2322.0</ele>
        <time>2019-10-12T17:36:10.934Z</time>
      </trkpt>
      <trkpt lat="20.21712" lon="-98.72985333">
        <ele>2323.0</ele>
        <time>2019-10-12T17:36:11.941Z</time>
      </trkpt>
      <trkpt lat="20.217125" lon="-98.72986667">
        <ele>2324.0</ele>
        <time>2019-10-12T17:36:12.946Z</time>
      </trkpt>
      <trkpt lat="20.21712667" lon="-98.72987833">
        <ele>2325.0</ele>
        <time>2019-10-12T17:36:13.948Z</time>
      </trkpt>
      <trkpt lat="20.21713167" lon="-98.72988667">
        <ele>2325.0</ele>
        <time>2019-10-12T17:36:14.951Z</time>
      </trkpt>
      <trkpt lat="20.21713667" lon="-98.72989333">
        <ele>2325.0</ele>
        <time>2019-10-12T17:36:15.830Z</time>
      </trkpt>
      <trkpt lat="20.21713833" lon="-98.72990167">
        <ele>2326.0</ele>
        <time>2019-10-12T17:36:16.836Z</time>
      </trkpt>
      <trkpt lat="20.217145" lon="-98.72991">
        <ele>2325.0</ele>
        <time>2019-10-12T17:36:17.841Z</time>
      </trkpt>
      <trkpt lat="20.21715" lon="-98.72992333">
        <ele>2326.0</ele>
        <time>2019-10-12T17:36:18.847Z</time>
      </trkpt>
      <trkpt lat="20.21715333" lon="-98.72993667">
        <ele>2326.0</ele>
        <time>2019-10-12T17:36:19.853Z</time>
      </trkpt>
      <trkpt lat="20.21715333" lon="-98.72994833">
        <ele>2326.0</ele>
        <time>2019-10-12T17:36:20.858Z</time>
      </trkpt>
      <trkpt lat="20.21715" lon="-98.72995833">
        <ele>2326.0</ele>
        <time>2019-10-12T17:36:21.864Z</time>
      </trkpt>
      <trkpt lat="20.21714833" lon="-98.72996667">
        <ele>2326.0</ele>
        <time>2019-10-12T17:36:22.865Z</time>
      </trkpt>
      <trkpt lat="20.21714833" lon="-98.72997667">
        <ele>2327.0</ele>
        <time>2019-10-12T17:36:23.865Z</time>
      </trkpt>
      <trkpt lat="20.21714833" lon="-98.729985">
        <ele>2327.0</ele>
        <time>2019-10-12T17:36:24.866Z</time>
      </trkpt>
      <trkpt lat="20.21715167" lon="-98.72999667">
        <ele>2327.0</ele>
        <time>2019-10-12T17:36:25.872Z</time>
      </trkpt>
      <trkpt lat="20.21715333" lon="-98.73000667">
        <ele>2327.0</ele>
        <time>2019-10-12T17:36:26.876Z</time>
      </trkpt>
      <trkpt lat="20.217155" lon="-98.73001667">
        <ele>2326.0</ele>
        <time>2019-10-12T17:36:27.882Z</time>
      </trkpt>
      <trkpt lat="20.217155" lon="-98.730025">
        <ele>2326.0</ele>
        <time>2019-10-12T17:36:28.888Z</time>
      </trkpt>
      <trkpt lat="20.21715833" lon="-98.73003667">
        <ele>2327.0</ele>
        <time>2019-10-12T17:36:29.889Z</time>
      </trkpt>
      <trkpt lat="20.21716" lon="-98.73004667">
        <ele>2327.0</ele>
        <time>2019-10-12T17:36:30.894Z</time>
      </trkpt>
      <trkpt lat="20.21715833" lon="-98.73005667">
        <ele>2327.0</ele>
        <time>2019-10-12T17:36:31.899Z</time>
      </trkpt>
      <trkpt lat="20.21715667" lon="-98.73006833">
        <ele>2327.0</ele>
        <time>2019-10-12T17:36:32.901Z</time>
      </trkpt>
      <trkpt lat="20.21715667" lon="-98.73007667">
        <ele>2328.0</ele>
        <time>2019-10-12T17:36:33.907Z</time>
      </trkpt>
      <trkpt lat="20.21715667" lon="-98.73008833">
        <ele>2328.0</ele>
        <time>2019-10-12T17:36:34.914Z</time>
      </trkpt>
      <trkpt lat="20.217155" lon="-98.73009667">
        <ele>2327.0</ele>
        <time>2019-10-12T17:36:35.916Z</time>
      </trkpt>
      <trkpt lat="20.21715333" lon="-98.730105">
        <ele>2327.0</ele>
        <time>2019-10-12T17:36:36.918Z</time>
      </trkpt>
      <trkpt lat="20.217155" lon="-98.73011">
        <ele>2327.0</ele>
        <time>2019-10-12T17:36:37.922Z</time>
      </trkpt>
      <trkpt lat="20.217155" lon="-98.73011667">
        <ele>2327.0</ele>
        <time>2019-10-12T17:36:38.928Z</time>
      </trkpt>
      <trkpt lat="20.21715167" lon="-98.730125">
        <ele>2327.0</ele>
        <time>2019-10-12T17:36:39.933Z</time>
      </trkpt>
      <trkpt lat="20.21715333" lon="-98.730135">
        <ele>2327.0</ele>
        <time>2019-10-12T17:36:40.933Z</time>
      </trkpt>
      <trkpt lat="20.217155" lon="-98.73014667">
        <ele>2328.0</ele>
        <time>2019-10-12T17:36:41.933Z</time>
      </trkpt>
      <trkpt lat="20.21715333" lon="-98.73016">
        <ele>2328.0</ele>
        <time>2019-10-12T17:36:42.934Z</time>
      </trkpt>
      <trkpt lat="20.21715333" lon="-98.73017167">
        <ele>2327.0</ele>
        <time>2019-10-12T17:36:43.934Z</time>
      </trkpt>
      <trkpt lat="20.21714833" lon="-98.73018333">
        <ele>2327.0</ele>
        <time>2019-10-12T17:36:44.934Z</time>
      </trkpt>
      <trkpt lat="20.21714667" lon="-98.73019167">
        <ele>2327.0</ele>
        <time>2019-10-12T17:36:45.935Z</time>
      </trkpt>
      <trkpt lat="20.21714833" lon="-98.73019667">
        <ele>2327.0</ele>
        <time>2019-10-12T17:36:46.935Z</time>
      </trkpt>
      <trkpt lat="20.21715167" lon="-98.7302">
        <ele>2327.0</ele>
        <time>2019-10-12T17:36:47.936Z</time>
      </trkpt>
      <trkpt lat="20.21715333" lon="-98.73020167">
        <ele>2327.0</ele>
        <time>2019-10-12T17:36:48.943Z</time>
      </trkpt>
      <trkpt lat="20.21715" lon="-98.7302">
        <ele>2328.0</ele>
        <time>2019-10-12T17:36:49.950Z</time>
      </trkpt>
      <trkpt lat="20.21714833" lon="-98.73019667">
        <ele>2328.0</ele>
        <time>2019-10-12T17:36:50.952Z</time>
      </trkpt>
      <trkpt lat="20.21715" lon="-98.7302">
        <ele>2328.0</ele>
        <time>2019-10-12T17:36:51.831Z</time>
      </trkpt>
      <trkpt lat="20.21715" lon="-98.73020333">
        <ele>2327.0</ele>
        <time>2019-10-12T17:36:52.836Z</time>
      </trkpt>
      <trkpt lat="20.21715167" lon="-98.73021167">
        <ele>2327.0</ele>
        <time>2019-10-12T17:36:53.840Z</time>
      </trkpt>
      <trkpt lat="20.217155" lon="-98.73021833">
        <ele>2327.0</ele>
        <time>2019-10-12T17:36:54.846Z</time>
      </trkpt>
      <trkpt lat="20.21716167" lon="-98.73022667">
        <ele>2328.0</ele>
        <time>2019-10-12T17:36:55.847Z</time>
      </trkpt>
      <trkpt lat="20.21716667" lon="-98.73023667">
        <ele>2328.0</ele>
        <time>2019-10-12T17:36:56.852Z</time>
      </trkpt>
      <trkpt lat="20.21717333" lon="-98.73024667">
        <ele>2328.0</ele>
        <time>2019-10-12T17:36:57.858Z</time>
      </trkpt>
      <trkpt lat="20.21718" lon="-98.73025667">
        <ele>2329.0</ele>
        <time>2019-10-12T17:36:58.860Z</time>
      </trkpt>
      <trkpt lat="20.21718833" lon="-98.73026667">
        <ele>2329.0</ele>
        <time>2019-10-12T17:36:59.862Z</time>
      </trkpt>
      <trkpt lat="20.21719667" lon="-98.73027833">
        <ele>2330.0</ele>
        <time>2019-10-12T17:37:00.868Z</time>
      </trkpt>
      <trkpt lat="20.21720333" lon="-98.73029">
        <ele>2331.0</ele>
        <time>2019-10-12T17:37:01.873Z</time>
      </trkpt>
      <trkpt lat="20.21721" lon="-98.73030167">
        <ele>2332.0</ele>
        <time>2019-10-12T17:37:02.878Z</time>
      </trkpt>
      <trkpt lat="20.21721333" lon="-98.73031667">
        <ele>2333.0</ele>
        <time>2019-10-12T17:37:03.879Z</time>
      </trkpt>
      <trkpt lat="20.217215" lon="-98.73033">
        <ele>2333.0</ele>
        <time>2019-10-12T17:37:04.879Z</time>
      </trkpt>
      <trkpt lat="20.21721667" lon="-98.730345">
        <ele>2333.0</ele>
        <time>2019-10-12T17:37:05.879Z</time>
      </trkpt>
      <trkpt lat="20.21721667" lon="-98.73035833">
        <ele>2333.0</ele>
        <time>2019-10-12T17:37:06.883Z</time>
      </trkpt>
      <trkpt lat="20.21722" lon="-98.73037333">
        <ele>2333.0</ele>
        <time>2019-10-12T17:37:07.889Z</time>
      </trkpt>
      <trkpt lat="20.21722333" lon="-98.73038667">
        <ele>2333.0</ele>
        <time>2019-10-12T17:37:08.892Z</time>
      </trkpt>
      <trkpt lat="20.21722333" lon="-98.73039833">
        <ele>2333.0</ele>
        <time>2019-10-12T17:37:09.899Z</time>
      </trkpt>
      <trkpt lat="20.217225" lon="-98.73040833">
        <ele>2333.0</ele>
        <time>2019-10-12T17:37:10.902Z</time>
      </trkpt>
      <trkpt lat="20.217225" lon="-98.73041833">
        <ele>2333.0</ele>
        <time>2019-10-12T17:37:11.902Z</time>
      </trkpt>
      <trkpt lat="20.21722833" lon="-98.73043">
        <ele>2333.0</ele>
        <time>2019-10-12T17:37:12.905Z</time>
      </trkpt>
      <trkpt lat="20.21722833" lon="-98.73044167">
        <ele>2333.0</ele>
        <time>2019-10-12T17:37:13.907Z</time>
      </trkpt>
      <trkpt lat="20.21722833" lon="-98.73045333">
        <ele>2333.0</ele>
        <time>2019-10-12T17:37:14.914Z</time>
      </trkpt>
      <trkpt lat="20.21722667" lon="-98.730465">
        <ele>2333.0</ele>
        <time>2019-10-12T17:37:15.921Z</time>
      </trkpt>
      <trkpt lat="20.21722333" lon="-98.730475">
        <ele>2332.0</ele>
        <time>2019-10-12T17:37:16.923Z</time>
      </trkpt>
      <trkpt lat="20.21722" lon="-98.73048333">
        <ele>2332.0</ele>
        <time>2019-10-12T17:37:17.930Z</time>
      </trkpt>
      <trkpt lat="20.217215" lon="-98.73049167">
        <ele>2332.0</ele>
        <time>2019-10-12T17:37:18.936Z</time>
      </trkpt>
      <trkpt lat="20.21721333" lon="-98.73050167">
        <ele>2332.0</ele>
        <time>2019-10-12T17:37:19.939Z</time>
      </trkpt>
      <trkpt lat="20.21721" lon="-98.730515">
        <ele>2332.0</ele>
        <time>2019-10-12T17:37:20.945Z</time>
      </trkpt>
      <trkpt lat="20.21720833" lon="-98.73053">
        <ele>2332.0</ele>
        <time>2019-10-12T17:37:21.947Z</time>
      </trkpt>
      <trkpt lat="20.21719833" lon="-98.73054167">
        <ele>2332.0</ele>
        <time>2019-10-12T17:37:22.947Z</time>
      </trkpt>
      <trkpt lat="20.21719333" lon="-98.73055167">
        <ele>2332.0</ele>
        <time>2019-10-12T17:37:23.948Z</time>
      </trkpt>
      <trkpt lat="20.217195" lon="-98.730565">
        <ele>2333.0</ele>
        <time>2019-10-12T17:37:24.948Z</time>
      </trkpt>
      <trkpt lat="20.21718833" lon="-98.73058167">
        <ele>2334.0</ele>
        <time>2019-10-12T17:37:25.948Z</time>
      </trkpt>
      <trkpt lat="20.217185" lon="-98.73060167">
        <ele>2334.0</ele>
        <time>2019-10-12T17:37:26.949Z</time>
      </trkpt>
      <trkpt lat="20.21717667" lon="-98.73061333">
        <ele>2334.0</ele>
        <time>2019-10-12T17:37:27.949Z</time>
      </trkpt>
      <trkpt lat="20.21717" lon="-98.730625">
        <ele>2334.0</ele>
        <time>2019-10-12T17:37:28.949Z</time>
      </trkpt>
      <trkpt lat="20.21716167" lon="-98.730635">
        <ele>2334.0</ele>
        <time>2019-10-12T17:37:29.950Z</time>
      </trkpt>
      <trkpt lat="20.21715167" lon="-98.73064833">
        <ele>2334.0</ele>
        <time>2019-10-12T17:37:30.950Z</time>
      </trkpt>
      <trkpt lat="20.21715" lon="-98.73065667">
        <ele>2334.0</ele>
        <time>2019-10-12T17:37:31.950Z</time>
      </trkpt>
      <trkpt lat="20.21715" lon="-98.73066167">
        <ele>2334.0</ele>
        <time>2019-10-12T17:37:32.954Z</time>
      </trkpt>
      <trkpt lat="20.21714167" lon="-98.73067833">
        <ele>2335.0</ele>
        <time>2019-10-12T17:37:33.833Z</time>
      </trkpt>
      <trkpt lat="20.21713667" lon="-98.730695">
        <ele>2335.0</ele>
        <time>2019-10-12T17:37:34.838Z</time>
      </trkpt>
      <trkpt lat="20.21713333" lon="-98.73071333">
        <ele>2336.0</ele>
        <time>2019-10-12T17:37:35.845Z</time>
      </trkpt>
      <trkpt lat="20.21712667" lon="-98.730725">
        <ele>2335.0</ele>
        <time>2019-10-12T17:37:36.847Z</time>
      </trkpt>
      <trkpt lat="20.21712" lon="-98.730735">
        <ele>2335.0</ele>
        <time>2019-10-12T17:37:37.848Z</time>
      </trkpt>
      <trkpt lat="20.217115" lon="-98.730745">
        <ele>2336.0</ele>
        <time>2019-10-12T17:37:38.849Z</time>
      </trkpt>
      <trkpt lat="20.21710667" lon="-98.73075667">
        <ele>2335.0</ele>
        <time>2019-10-12T17:37:39.855Z</time>
      </trkpt>
      <trkpt lat="20.2171" lon="-98.73076833">
        <ele>2335.0</ele>
        <time>2019-10-12T17:37:40.856Z</time>
      </trkpt>
      <trkpt lat="20.21709333" lon="-98.73078">
        <ele>2335.0</ele>
        <time>2019-10-12T17:37:41.860Z</time>
      </trkpt>
      <trkpt lat="20.21708667" lon="-98.73079667">
        <ele>2335.0</ele>
        <time>2019-10-12T17:37:42.866Z</time>
      </trkpt>
      <trkpt lat="20.217085" lon="-98.73081">
        <ele>2336.0</ele>
        <time>2019-10-12T17:37:43.869Z</time>
      </trkpt>
      <trkpt lat="20.21708" lon="-98.73082667">
        <ele>2336.0</ele>
        <time>2019-10-12T17:37:44.875Z</time>
      </trkpt>
      <trkpt lat="20.217075" lon="-98.73084">
        <ele>2336.0</ele>
        <time>2019-10-12T17:37:45.880Z</time>
      </trkpt>
      <trkpt lat="20.21707167" lon="-98.73085667">
        <ele>2336.0</ele>
        <time>2019-10-12T17:37:46.884Z</time>
      </trkpt>
      <trkpt lat="20.21706333" lon="-98.730865">
        <ele>2337.0</ele>
        <time>2019-10-12T17:37:47.890Z</time>
      </trkpt>
      <trkpt lat="20.21705667" lon="-98.73086833">
        <ele>2337.0</ele>
        <time>2019-10-12T17:37:48.893Z</time>
      </trkpt>
      <trkpt lat="20.21704833" lon="-98.73087167">
        <ele>2337.0</ele>
        <time>2019-10-12T17:37:49.893Z</time>
      </trkpt>
      <trkpt lat="20.21704" lon="-98.73087167">
        <ele>2337.0</ele>
        <time>2019-10-12T17:37:50.893Z</time>
      </trkpt>
      <trkpt lat="20.21703167" lon="-98.73086667">
        <ele>2337.0</ele>
        <time>2019-10-12T17:37:51.897Z</time>
      </trkpt>
      <trkpt lat="20.21702333" lon="-98.73086667">
        <ele>2337.0</ele>
        <time>2019-10-12T17:37:52.903Z</time>
      </trkpt>
      <trkpt lat="20.21701333" lon="-98.73087">
        <ele>2337.0</ele>
        <time>2019-10-12T17:37:53.905Z</time>
      </trkpt>
      <trkpt lat="20.217005" lon="-98.730875">
        <ele>2338.0</ele>
        <time>2019-10-12T17:37:54.912Z</time>
      </trkpt>
      <trkpt lat="20.216995" lon="-98.73088167">
        <ele>2338.0</ele>
        <time>2019-10-12T17:37:55.917Z</time>
      </trkpt>
      <trkpt lat="20.216985" lon="-98.73088833">
        <ele>2338.0</ele>
        <time>2019-10-12T17:37:56.917Z</time>
      </trkpt>
      <trkpt lat="20.216975" lon="-98.73089167">
        <ele>2337.0</ele>
        <time>2019-10-12T17:37:57.919Z</time>
      </trkpt>
      <trkpt lat="20.21696167" lon="-98.730895">
        <ele>2337.0</ele>
        <time>2019-10-12T17:37:58.924Z</time>
      </trkpt>
      <trkpt lat="20.21694667" lon="-98.730895">
        <ele>2336.0</ele>
        <time>2019-10-12T17:37:59.927Z</time>
      </trkpt>
      <trkpt lat="20.21693333" lon="-98.73089667">
        <ele>2336.0</ele>
        <time>2019-10-12T17:38:00.928Z</time>
      </trkpt>
      <trkpt lat="20.21691833" lon="-98.7309">
        <ele>2336.0</ele>
        <time>2019-10-12T17:38:01.935Z</time>
      </trkpt>
      <trkpt lat="20.21690833" lon="-98.73090333">
        <ele>2336.0</ele>
        <time>2019-10-12T17:38:02.944Z</time>
      </trkpt>
      <trkpt lat="20.21689833" lon="-98.730905">
        <ele>2336.0</ele>
        <time>2019-10-12T17:38:03.946Z</time>
      </trkpt>
      <trkpt lat="20.21688833" lon="-98.730905">
        <ele>2336.0</ele>
        <time>2019-10-12T17:38:04.953Z</time>
      </trkpt>
      <trkpt lat="20.21687833" lon="-98.730905">
        <ele>2335.0</ele>
        <time>2019-10-12T17:38:05.831Z</time>
      </trkpt>
      <trkpt lat="20.21686833" lon="-98.73090667">
        <ele>2335.0</ele>
        <time>2019-10-12T17:38:06.836Z</time>
      </trkpt>
      <trkpt lat="20.21685833" lon="-98.73090833">
        <ele>2335.0</ele>
        <time>2019-10-12T17:38:07.837Z</time>
      </trkpt>
      <trkpt lat="20.21685" lon="-98.73091">
        <ele>2336.0</ele>
        <time>2019-10-12T17:38:08.837Z</time>
      </trkpt>
      <trkpt lat="20.21683833" lon="-98.73091">
        <ele>2336.0</ele>
        <time>2019-10-12T17:38:09.837Z</time>
      </trkpt>
      <trkpt lat="20.21682833" lon="-98.73091167">
        <ele>2336.0</ele>
        <time>2019-10-12T17:38:10.837Z</time>
      </trkpt>
      <trkpt lat="20.21682" lon="-98.73091667">
        <ele>2336.0</ele>
        <time>2019-10-12T17:38:11.838Z</time>
      </trkpt>
      <trkpt lat="20.21682167" lon="-98.73092167">
        <ele>2337.0</ele>
        <time>2019-10-12T17:38:12.838Z</time>
      </trkpt>
      <trkpt lat="20.21682333" lon="-98.73092833">
        <ele>2337.0</ele>
        <time>2019-10-12T17:38:13.838Z</time>
      </trkpt>
      <trkpt lat="20.21682167" lon="-98.730935">
        <ele>2337.0</ele>
        <time>2019-10-12T17:38:14.838Z</time>
      </trkpt>
      <trkpt lat="20.21681833" lon="-98.73093833">
        <ele>2337.0</ele>
        <time>2019-10-12T17:38:15.838Z</time>
      </trkpt>
      <trkpt lat="20.21681667" lon="-98.73094333">
        <ele>2337.0</ele>
        <time>2019-10-12T17:38:16.838Z</time>
      </trkpt>
      <trkpt lat="20.21681333" lon="-98.73095167">
        <ele>2337.0</ele>
        <time>2019-10-12T17:38:17.838Z</time>
      </trkpt>
      <trkpt lat="20.21681333" lon="-98.73095167">
        <ele>2338.0</ele>
        <time>2019-10-12T17:38:18.838Z</time>
      </trkpt>
      <trkpt lat="20.21681167" lon="-98.73095333">
        <ele>2338.0</ele>
        <time>2019-10-12T17:38:19.838Z</time>
      </trkpt>
      <trkpt lat="20.21681667" lon="-98.73095667">
        <ele>2339.0</ele>
        <time>2019-10-12T17:38:20.838Z</time>
      </trkpt>
      <trkpt lat="20.21682833" lon="-98.73095667">
        <ele>2339.0</ele>
        <time>2019-10-12T17:38:21.840Z</time>
      </trkpt>
      <trkpt lat="20.21684167" lon="-98.73095167">
        <ele>2338.0</ele>
        <time>2019-10-12T17:38:22.847Z</time>
      </trkpt>
      <trkpt lat="20.21685833" lon="-98.73094833">
        <ele>2338.0</ele>
        <time>2019-10-12T17:38:23.854Z</time>
      </trkpt>
      <trkpt lat="20.21687167" lon="-98.73094667">
        <ele>2338.0</ele>
        <time>2019-10-12T17:38:24.855Z</time>
      </trkpt>
      <trkpt lat="20.21688" lon="-98.73094333">
        <ele>2338.0</ele>
        <time>2019-10-12T17:38:25.857Z</time>
      </trkpt>
      <trkpt lat="20.21688333" lon="-98.73094333">
        <ele>2337.0</ele>
        <time>2019-10-12T17:38:26.864Z</time>
      </trkpt>
      <trkpt lat="20.21688333" lon="-98.73094333">
        <ele>2337.0</ele>
        <time>2019-10-12T17:38:27.865Z</time>
      </trkpt>
      <trkpt lat="20.21688667" lon="-98.73093833">
        <ele>2337.0</ele>
        <time>2019-10-12T17:38:28.873Z</time>
      </trkpt>
      <trkpt lat="20.21688" lon="-98.730935">
        <ele>2337.0</ele>
        <time>2019-10-12T17:38:29.879Z</time>
      </trkpt>
      <trkpt lat="20.21687167" lon="-98.73093667">
        <ele>2337.0</ele>
        <time>2019-10-12T17:38:30.885Z</time>
      </trkpt>
      <trkpt lat="20.21686167" lon="-98.73093667">
        <ele>2337.0</ele>
        <time>2019-10-12T17:38:31.886Z</time>
      </trkpt>
      <trkpt lat="20.21685167" lon="-98.73093833">
        <ele>2337.0</ele>
        <time>2019-10-12T17:38:32.889Z</time>
      </trkpt>
      <trkpt lat="20.21684" lon="-98.73094">
        <ele>2337.0</ele>
        <time>2019-10-12T17:38:33.896Z</time>
      </trkpt>
      <trkpt lat="20.21683167" lon="-98.73094">
        <ele>2338.0</ele>
        <time>2019-10-12T17:38:34.903Z</time>
      </trkpt>
      <trkpt lat="20.21682333" lon="-98.73094">
        <ele>2338.0</ele>
        <time>2019-10-12T17:38:35.905Z</time>
      </trkpt>
      <trkpt lat="20.216815" lon="-98.73094">
        <ele>2338.0</ele>
        <time>2019-10-12T17:38:36.905Z</time>
      </trkpt>
      <trkpt lat="20.21681" lon="-98.73094167">
        <ele>2339.0</ele>
        <time>2019-10-12T17:38:37.905Z</time>
      </trkpt>
      <trkpt lat="20.21680167" lon="-98.73094333">
        <ele>2339.0</ele>
        <time>2019-10-12T17:38:38.905Z</time>
      </trkpt>
      <trkpt lat="20.21679333" lon="-98.730945">
        <ele>2339.0</ele>
        <time>2019-10-12T17:38:39.906Z</time>
      </trkpt>
      <trkpt lat="20.216785" lon="-98.730945">
        <ele>2339.0</ele>
        <time>2019-10-12T17:38:40.906Z</time>
      </trkpt>
      <trkpt lat="20.216775" lon="-98.73094333">
        <ele>2339.0</ele>
        <time>2019-10-12T17:38:41.906Z</time>
      </trkpt>
      <trkpt lat="20.216765" lon="-98.73094">
        <ele>2340.0</ele>
        <time>2019-10-12T17:38:42.906Z</time>
      </trkpt>
      <trkpt lat="20.21675167" lon="-98.73093667">
        <ele>2339.0</ele>
        <time>2019-10-12T17:38:43.906Z</time>
      </trkpt>
      <trkpt lat="20.21673833" lon="-98.730935">
        <ele>2339.0</ele>
        <time>2019-10-12T17:38:44.907Z</time>
      </trkpt>
      <trkpt lat="20.21672333" lon="-98.73093333">
        <ele>2339.0</ele>
        <time>2019-10-12T17:38:45.907Z</time>
      </trkpt>
      <trkpt lat="20.21671" lon="-98.730935">
        <ele>2339.0</ele>
        <time>2019-10-12T17:38:46.907Z</time>
      </trkpt>
      <trkpt lat="20.21669667" lon="-98.73093833">
        <ele>2339.0</ele>
        <time>2019-10-12T17:38:47.907Z</time>
      </trkpt>
      <trkpt lat="20.21668667" lon="-98.73094167">
        <ele>2339.0</ele>
        <time>2019-10-12T17:38:48.908Z</time>
      </trkpt>
      <trkpt lat="20.21667667" lon="-98.730945">
        <ele>2339.0</ele>
        <time>2019-10-12T17:38:49.908Z</time>
      </trkpt>
      <trkpt lat="20.21666333" lon="-98.73094833">
        <ele>2339.0</ele>
        <time>2019-10-12T17:38:50.908Z</time>
      </trkpt>
      <trkpt lat="20.21665" lon="-98.73095333">
        <ele>2339.0</ele>
        <time>2019-10-12T17:38:51.908Z</time>
      </trkpt>
      <trkpt lat="20.21663667" lon="-98.730955">
        <ele>2340.0</ele>
        <time>2019-10-12T17:38:52.909Z</time>
      </trkpt>
      <trkpt lat="20.216625" lon="-98.73095167">
        <ele>2340.0</ele>
        <time>2019-10-12T17:38:53.909Z</time>
      </trkpt>
      <trkpt lat="20.21661667" lon="-98.73094667">
        <ele>2341.0</ele>
        <time>2019-10-12T17:38:54.909Z</time>
      </trkpt>
      <trkpt lat="20.216605" lon="-98.73094167">
        <ele>2341.0</ele>
        <time>2019-10-12T17:38:55.909Z</time>
      </trkpt>
      <trkpt lat="20.21659333" lon="-98.73093833">
        <ele>2341.0</ele>
        <time>2019-10-12T17:38:56.909Z</time>
      </trkpt>
      <trkpt lat="20.21658667" lon="-98.73094167">
        <ele>2341.0</ele>
        <time>2019-10-12T17:38:57.910Z</time>
      </trkpt>
      <trkpt lat="20.216585" lon="-98.73095167">
        <ele>2340.0</ele>
        <time>2019-10-12T17:38:58.910Z</time>
      </trkpt>
      <trkpt lat="20.21657667" lon="-98.73096333">
        <ele>2341.0</ele>
        <time>2019-10-12T17:38:59.910Z</time>
      </trkpt>
      <trkpt lat="20.216565" lon="-98.73096667">
        <ele>2341.0</ele>
        <time>2019-10-12T17:39:00.910Z</time>
      </trkpt>
      <trkpt lat="20.21655333" lon="-98.73096333">
        <ele>2341.0</ele>
        <time>2019-10-12T17:39:01.910Z</time>
      </trkpt>
      <trkpt lat="20.21654" lon="-98.73096833">
        <ele>2341.0</ele>
        <time>2019-10-12T17:39:02.911Z</time>
      </trkpt>
      <trkpt lat="20.21652833" lon="-98.73097167">
        <ele>2342.0</ele>
        <time>2019-10-12T17:39:03.911Z</time>
      </trkpt>
      <trkpt lat="20.21651333" lon="-98.730975">
        <ele>2342.0</ele>
        <time>2019-10-12T17:39:04.911Z</time>
      </trkpt>
      <trkpt lat="20.21649667" lon="-98.73097667">
        <ele>2342.0</ele>
        <time>2019-10-12T17:39:05.911Z</time>
      </trkpt>
      <trkpt lat="20.216475" lon="-98.73097667">
        <ele>2342.0</ele>
        <time>2019-10-12T17:39:06.911Z</time>
      </trkpt>
      <trkpt lat="20.21645667" lon="-98.73097833">
        <ele>2342.0</ele>
        <time>2019-10-12T17:39:07.912Z</time>
      </trkpt>
      <trkpt lat="20.21644333" lon="-98.73098167">
        <ele>2342.0</ele>
        <time>2019-10-12T17:39:08.912Z</time>
      </trkpt>
      <trkpt lat="20.21642167" lon="-98.73098167">
        <ele>2343.0</ele>
        <time>2019-10-12T17:39:09.912Z</time>
      </trkpt>
      <trkpt lat="20.216405" lon="-98.73097833">
        <ele>2344.0</ele>
        <time>2019-10-12T17:39:10.912Z</time>
      </trkpt>
      <trkpt lat="20.21638333" lon="-98.73097333">
        <ele>2345.0</ele>
        <time>2019-10-12T17:39:11.918Z</time>
      </trkpt>
      <trkpt lat="20.21636833" lon="-98.73096333">
        <ele>2346.0</ele>
        <time>2019-10-12T17:39:12.924Z</time>
      </trkpt>
      <trkpt lat="20.216355" lon="-98.73096167">
        <ele>2346.0</ele>
        <time>2019-10-12T17:39:13.930Z</time>
      </trkpt>
      <trkpt lat="20.21634" lon="-98.73096167">
        <ele>2346.0</ele>
        <time>2019-10-12T17:39:14.930Z</time>
      </trkpt>
      <trkpt lat="20.21632333" lon="-98.73096167">
        <ele>2346.0</ele>
        <time>2019-10-12T17:39:15.934Z</time>
      </trkpt>
      <trkpt lat="20.21631167" lon="-98.73096667">
        <ele>2346.0</ele>
        <time>2019-10-12T17:39:16.934Z</time>
      </trkpt>
      <trkpt lat="20.216295" lon="-98.730975">
        <ele>2347.0</ele>
        <time>2019-10-12T17:39:17.939Z</time>
      </trkpt>
      <trkpt lat="20.21627833" lon="-98.73097667">
        <ele>2347.0</ele>
        <time>2019-10-12T17:39:18.942Z</time>
      </trkpt>
      <trkpt lat="20.21626667" lon="-98.73098">
        <ele>2347.0</ele>
        <time>2019-10-12T17:39:19.945Z</time>
      </trkpt>
      <trkpt lat="20.216255" lon="-98.73098167">
        <ele>2346.0</ele>
        <time>2019-10-12T17:39:20.952Z</time>
      </trkpt>
      <trkpt lat="20.21624333" lon="-98.73098333">
        <ele>2346.0</ele>
        <time>2019-10-12T17:39:21.833Z</time>
      </trkpt>
      <trkpt lat="20.21623167" lon="-98.73098667">
        <ele>2346.0</ele>
        <time>2019-10-12T17:39:22.834Z</time>
      </trkpt>
      <trkpt lat="20.21621667" lon="-98.73099167">
        <ele>2346.0</ele>
        <time>2019-10-12T17:39:23.837Z</time>
      </trkpt>
      <trkpt lat="20.216205" lon="-98.730995">
        <ele>2346.0</ele>
        <time>2019-10-12T17:39:24.838Z</time>
      </trkpt>
      <trkpt lat="20.21619333" lon="-98.73099833">
        <ele>2346.0</ele>
        <time>2019-10-12T17:39:25.843Z</time>
      </trkpt>
      <trkpt lat="20.21618167" lon="-98.73100167">
        <ele>2346.0</ele>
        <time>2019-10-12T17:39:26.846Z</time>
      </trkpt>
      <trkpt lat="20.21617" lon="-98.73100667">
        <ele>2346.0</ele>
        <time>2019-10-12T17:39:27.851Z</time>
      </trkpt>
      <trkpt lat="20.21616167" lon="-98.73101">
        <ele>2346.0</ele>
        <time>2019-10-12T17:39:28.853Z</time>
      </trkpt>
      <trkpt lat="20.21615" lon="-98.731015">
        <ele>2346.0</ele>
        <time>2019-10-12T17:39:29.858Z</time>
      </trkpt>
      <trkpt lat="20.21613833" lon="-98.73102">
        <ele>2346.0</ele>
        <time>2019-10-12T17:39:30.863Z</time>
      </trkpt>
      <trkpt lat="20.21612167" lon="-98.73102333">
        <ele>2347.0</ele>
        <time>2019-10-12T17:39:31.870Z</time>
      </trkpt>
      <trkpt lat="20.21611667" lon="-98.73102667">
        <ele>2347.0</ele>
        <time>2019-10-12T17:39:32.872Z</time>
      </trkpt>
      <trkpt lat="20.21610667" lon="-98.73102833">
        <ele>2348.0</ele>
        <time>2019-10-12T17:39:33.877Z</time>
      </trkpt>
      <trkpt lat="20.21609667" lon="-98.73103">
        <ele>2348.0</ele>
        <time>2019-10-12T17:39:34.882Z</time>
      </trkpt>
      <trkpt lat="20.216085" lon="-98.73103333">
        <ele>2348.0</ele>
        <time>2019-10-12T17:39:35.887Z</time>
      </trkpt>
      <trkpt lat="20.216075" lon="-98.73103667">
        <ele>2349.0</ele>
        <time>2019-10-12T17:39:36.894Z</time>
      </trkpt>
      <trkpt lat="20.216065" lon="-98.73104">
        <ele>2349.0</ele>
        <time>2019-10-12T17:39:37.900Z</time>
      </trkpt>
      <trkpt lat="20.21605667" lon="-98.731045">
        <ele>2350.0</ele>
        <time>2019-10-12T17:39:38.906Z</time>
      </trkpt>
      <trkpt lat="20.21605167" lon="-98.73104833">
        <ele>2350.0</ele>
        <time>2019-10-12T17:39:39.910Z</time>
      </trkpt>
      <trkpt lat="20.21605" lon="-98.73105333">
        <ele>2350.0</ele>
        <time>2019-10-12T17:39:40.917Z</time>
      </trkpt>
      <trkpt lat="20.216045" lon="-98.73105833">
        <ele>2351.0</ele>
        <time>2019-10-12T17:39:41.920Z</time>
      </trkpt>
      <trkpt lat="20.21604" lon="-98.731065">
        <ele>2351.0</ele>
        <time>2019-10-12T17:39:42.920Z</time>
      </trkpt>
      <trkpt lat="20.21603333" lon="-98.73106833">
        <ele>2351.0</ele>
        <time>2019-10-12T17:39:43.921Z</time>
      </trkpt>
      <trkpt lat="20.21602667" lon="-98.73107333">
        <ele>2352.0</ele>
        <time>2019-10-12T17:39:44.921Z</time>
      </trkpt>
      <trkpt lat="20.21602" lon="-98.73107">
        <ele>2352.0</ele>
        <time>2019-10-12T17:39:45.922Z</time>
      </trkpt>
      <trkpt lat="20.21601333" lon="-98.731065">
        <ele>2353.0</ele>
        <time>2019-10-12T17:39:46.926Z</time>
      </trkpt>
      <trkpt lat="20.21600167" lon="-98.73106667">
        <ele>2353.0</ele>
        <time>2019-10-12T17:39:47.933Z</time>
      </trkpt>
      <trkpt lat="20.21599167" lon="-98.73106833">
        <ele>2353.0</ele>
        <time>2019-10-12T17:39:48.937Z</time>
      </trkpt>
      <trkpt lat="20.21598" lon="-98.73107167">
        <ele>2353.0</ele>
        <time>2019-10-12T17:39:49.939Z</time>
      </trkpt>
      <trkpt lat="20.21596833" lon="-98.73107333">
        <ele>2353.0</ele>
        <time>2019-10-12T17:39:50.945Z</time>
      </trkpt>
      <trkpt lat="20.21595833" lon="-98.73107833">
        <ele>2353.0</ele>
        <time>2019-10-12T17:39:51.953Z</time>
      </trkpt>
      <trkpt lat="20.21594833" lon="-98.731085">
        <ele>2354.0</ele>
        <time>2019-10-12T17:39:52.835Z</time>
      </trkpt>
      <trkpt lat="20.21593833" lon="-98.73109167">
        <ele>2355.0</ele>
        <time>2019-10-12T17:39:53.840Z</time>
      </trkpt>
      <trkpt lat="20.21592833" lon="-98.73109833">
        <ele>2355.0</ele>
        <time>2019-10-12T17:39:54.845Z</time>
      </trkpt>
      <trkpt lat="20.21591667" lon="-98.7311">
        <ele>2356.0</ele>
        <time>2019-10-12T17:39:55.852Z</time>
      </trkpt>
      <trkpt lat="20.215905" lon="-98.73110167">
        <ele>2356.0</ele>
        <time>2019-10-12T17:39:56.860Z</time>
      </trkpt>
      <trkpt lat="20.215895" lon="-98.7311">
        <ele>2356.0</ele>
        <time>2019-10-12T17:39:57.861Z</time>
      </trkpt>
      <trkpt lat="20.215885" lon="-98.7311">
        <ele>2357.0</ele>
        <time>2019-10-12T17:39:58.861Z</time>
      </trkpt>
      <trkpt lat="20.21587667" lon="-98.7311">
        <ele>2358.0</ele>
        <time>2019-10-12T17:39:59.861Z</time>
      </trkpt>
      <trkpt lat="20.21586833" lon="-98.73109833">
        <ele>2359.0</ele>
        <time>2019-10-12T17:40:00.865Z</time>
      </trkpt>
      <trkpt lat="20.21585667" lon="-98.73109833">
        <ele>2359.0</ele>
        <time>2019-10-12T17:40:01.871Z</time>
      </trkpt>
      <trkpt lat="20.21584167" lon="-98.731095">
        <ele>2359.0</ele>
        <time>2019-10-12T17:40:02.878Z</time>
      </trkpt>
      <trkpt lat="20.21582833" lon="-98.73109333">
        <ele>2358.0</ele>
        <time>2019-10-12T17:40:03.878Z</time>
      </trkpt>
      <trkpt lat="20.21581667" lon="-98.73108833">
        <ele>2358.0</ele>
        <time>2019-10-12T17:40:04.879Z</time>
      </trkpt>
      <trkpt lat="20.21581" lon="-98.73108333">
        <ele>2358.0</ele>
        <time>2019-10-12T17:40:05.884Z</time>
      </trkpt>
      <trkpt lat="20.2158" lon="-98.73108167">
        <ele>2357.0</ele>
        <time>2019-10-12T17:40:06.893Z</time>
      </trkpt>
      <trkpt lat="20.21578833" lon="-98.73108167">
        <ele>2357.0</ele>
        <time>2019-10-12T17:40:07.900Z</time>
      </trkpt>
      <trkpt lat="20.21577833" lon="-98.731085">
        <ele>2358.0</ele>
        <time>2019-10-12T17:40:08.906Z</time>
      </trkpt>
      <trkpt lat="20.21576833" lon="-98.73108833">
        <ele>2358.0</ele>
        <time>2019-10-12T17:40:09.913Z</time>
      </trkpt>
      <trkpt lat="20.21576167" lon="-98.73109333">
        <ele>2359.0</ele>
        <time>2019-10-12T17:40:10.919Z</time>
      </trkpt>
      <trkpt lat="20.21574667" lon="-98.731095">
        <ele>2359.0</ele>
        <time>2019-10-12T17:40:11.924Z</time>
      </trkpt>
      <trkpt lat="20.215735" lon="-98.73109667">
        <ele>2359.0</ele>
        <time>2019-10-12T17:40:12.927Z</time>
      </trkpt>
      <trkpt lat="20.21572333" lon="-98.73109333">
        <ele>2359.0</ele>
        <time>2019-10-12T17:40:13.927Z</time>
      </trkpt>
      <trkpt lat="20.21571333" lon="-98.73108833">
        <ele>2359.0</ele>
        <time>2019-10-12T17:40:14.927Z</time>
      </trkpt>
      <trkpt lat="20.21570333" lon="-98.73108">
        <ele>2360.0</ele>
        <time>2019-10-12T17:40:15.928Z</time>
      </trkpt>
      <trkpt lat="20.21568833" lon="-98.731075">
        <ele>2360.0</ele>
        <time>2019-10-12T17:40:16.933Z</time>
      </trkpt>
      <trkpt lat="20.215675" lon="-98.73107">
        <ele>2360.0</ele>
        <time>2019-10-12T17:40:17.941Z</time>
      </trkpt>
      <trkpt lat="20.21566167" lon="-98.731065">
        <ele>2360.0</ele>
        <time>2019-10-12T17:40:18.948Z</time>
      </trkpt>
      <trkpt lat="20.21564667" lon="-98.73106">
        <ele>2360.0</ele>
        <time>2019-10-12T17:40:19.950Z</time>
      </trkpt>
      <trkpt lat="20.21563167" lon="-98.731055">
        <ele>2360.0</ele>
        <time>2019-10-12T17:40:20.954Z</time>
      </trkpt>
      <trkpt lat="20.21561667" lon="-98.73104833">
        <ele>2360.0</ele>
        <time>2019-10-12T17:40:21.831Z</time>
      </trkpt>
      <trkpt lat="20.21560833" lon="-98.73104167">
        <ele>2359.0</ele>
        <time>2019-10-12T17:40:22.837Z</time>
      </trkpt>
      <trkpt lat="20.215595" lon="-98.73103333">
        <ele>2359.0</ele>
        <time>2019-10-12T17:40:23.843Z</time>
      </trkpt>
      <trkpt lat="20.215585" lon="-98.73103">
        <ele>2359.0</ele>
        <time>2019-10-12T17:40:24.849Z</time>
      </trkpt>
      <trkpt lat="20.215575" lon="-98.731025">
        <ele>2359.0</ele>
        <time>2019-10-12T17:40:25.857Z</time>
      </trkpt>
      <trkpt lat="20.21556167" lon="-98.73102167">
        <ele>2359.0</ele>
        <time>2019-10-12T17:40:26.859Z</time>
      </trkpt>
      <trkpt lat="20.215545" lon="-98.73102">
        <ele>2360.0</ele>
        <time>2019-10-12T17:40:27.866Z</time>
      </trkpt>
      <trkpt lat="20.21552833" lon="-98.73102167">
        <ele>2361.0</ele>
        <time>2019-10-12T17:40:28.868Z</time>
      </trkpt>
      <trkpt lat="20.21551167" lon="-98.73103">
        <ele>2361.0</ele>
        <time>2019-10-12T17:40:29.869Z</time>
      </trkpt>
      <trkpt lat="20.21549833" lon="-98.731035">
        <ele>2361.0</ele>
        <time>2019-10-12T17:40:30.869Z</time>
      </trkpt>
      <trkpt lat="20.21548" lon="-98.73103333">
        <ele>2361.0</ele>
        <time>2019-10-12T17:40:31.869Z</time>
      </trkpt>
      <trkpt lat="20.21546167" lon="-98.73103167">
        <ele>2361.0</ele>
        <time>2019-10-12T17:40:32.869Z</time>
      </trkpt>
      <trkpt lat="20.21544667" lon="-98.73103167">
        <ele>2361.0</ele>
        <time>2019-10-12T17:40:33.870Z</time>
      </trkpt>
      <trkpt lat="20.21543167" lon="-98.73103">
        <ele>2361.0</ele>
        <time>2019-10-12T17:40:34.870Z</time>
      </trkpt>
      <trkpt lat="20.21541833" lon="-98.73103">
        <ele>2360.0</ele>
        <time>2019-10-12T17:40:35.870Z</time>
      </trkpt>
      <trkpt lat="20.21540167" lon="-98.73103167">
        <ele>2360.0</ele>
        <time>2019-10-12T17:40:36.870Z</time>
      </trkpt>
      <trkpt lat="20.21538667" lon="-98.73103167">
        <ele>2359.0</ele>
        <time>2019-10-12T17:40:37.871Z</time>
      </trkpt>
      <trkpt lat="20.215375" lon="-98.73103167">
        <ele>2359.0</ele>
        <time>2019-10-12T17:40:38.871Z</time>
      </trkpt>
      <trkpt lat="20.21536" lon="-98.73103667">
        <ele>2359.0</ele>
        <time>2019-10-12T17:40:39.871Z</time>
      </trkpt>
      <trkpt lat="20.21534667" lon="-98.73103833">
        <ele>2358.0</ele>
        <time>2019-10-12T17:40:40.871Z</time>
      </trkpt>
      <trkpt lat="20.21533167" lon="-98.73103833">
        <ele>2357.0</ele>
        <time>2019-10-12T17:40:41.871Z</time>
      </trkpt>
      <trkpt lat="20.21531667" lon="-98.73103333">
        <ele>2356.0</ele>
        <time>2019-10-12T17:40:42.872Z</time>
      </trkpt>
      <trkpt lat="20.215305" lon="-98.731025">
        <ele>2356.0</ele>
        <time>2019-10-12T17:40:43.872Z</time>
      </trkpt>
      <trkpt lat="20.215285" lon="-98.73102167">
        <ele>2357.0</ele>
        <time>2019-10-12T17:40:44.872Z</time>
      </trkpt>
      <trkpt lat="20.21527167" lon="-98.73101667">
        <ele>2356.0</ele>
        <time>2019-10-12T17:40:45.872Z</time>
      </trkpt>
      <trkpt lat="20.21526" lon="-98.731005">
        <ele>2357.0</ele>
        <time>2019-10-12T17:40:46.872Z</time>
      </trkpt>
      <trkpt lat="20.21525" lon="-98.73099667">
        <ele>2357.0</ele>
        <time>2019-10-12T17:40:47.873Z</time>
      </trkpt>
      <trkpt lat="20.21523333" lon="-98.73099333">
        <ele>2358.0</ele>
        <time>2019-10-12T17:40:48.873Z</time>
      </trkpt>
      <trkpt lat="20.21521833" lon="-98.73099167">
        <ele>2359.0</ele>
        <time>2019-10-12T17:40:49.873Z</time>
      </trkpt>
      <trkpt lat="20.21520333" lon="-98.73099333">
        <ele>2360.0</ele>
        <time>2019-10-12T17:40:50.873Z</time>
      </trkpt>
      <trkpt lat="20.21518833" lon="-98.73098833">
        <ele>2360.0</ele>
        <time>2019-10-12T17:40:51.873Z</time>
      </trkpt>
      <trkpt lat="20.21516833" lon="-98.73098667">
        <ele>2361.0</ele>
        <time>2019-10-12T17:40:52.875Z</time>
      </trkpt>
    </trkseg>
  </trk>
</gpx>
